<?xml version='1.0' encoding='UTF-8'?><gpx version="1.1" creator="JPX - https://github.com/jenetics/jpx" xmlns="http://www.topografix.com/GPX/1/1"><trk><trkseg><trkpt lat="43.5048951" lon="10.6201051"><ele>309.0</ele><time>2026-04-18T05:37:33.325Z</time></trkpt><trkpt lat="43.5049605" lon="10.6199634"><ele>309.0</ele><time>2026-04-18T05:37:35.324Z</time></trkpt><trkpt lat="43.5050042" lon="10.6198632"><ele>309.0</ele><time>2026-04-18T05:37:36.318Z</time></trkpt><trkpt lat="43.5050437" lon="10.6197621"><ele>309.0</ele><time>2026-04-18T05:37:37.325Z</time></trkpt><trkpt lat="43.5050763" lon="10.6196618"><ele>309.0</ele><time>2026-04-18T05:37:38.322Z</time></trkpt><trkpt lat="43.5051059" lon="10.6195667"><ele>309.0</ele><time>2026-04-18T05:37:39.322Z</time></trkpt><trkpt lat="43.5051698" lon="10.6194155"><ele>309.59999999999997</ele><time>2026-04-18T05:37:41.341Z</time></trkpt><trkpt lat="43.5052585" lon="10.6193306"><ele>310.2</ele><time>2026-04-18T05:37:43.333Z</time></trkpt><trkpt lat="43.5053283" lon="10.619331"><ele>310.79999999999995</ele><time>2026-04-18T05:37:44.324Z</time></trkpt><trkpt lat="43.505424" lon="10.619358"><ele>311.4</ele><time>2026-04-18T05:37:45.325Z</time></trkpt><trkpt lat="43.5055103" lon="10.6193902"><ele>312.0</ele><time>2026-04-18T05:37:46.324Z</time></trkpt><trkpt lat="43.5055996" lon="10.619426"><ele>309.6</ele><time>2026-04-18T05:37:47.324Z</time></trkpt><trkpt lat="43.5056872" lon="10.6194566"><ele>307.2</ele><time>2026-04-18T05:37:48.435Z</time></trkpt><trkpt lat="43.5058405" lon="10.6194605"><ele>304.8</ele><time>2026-04-18T05:37:50.323Z</time></trkpt><trkpt lat="43.5059238" lon="10.6194377"><ele>302.4</ele><time>2026-04-18T05:37:51.324Z</time></trkpt><trkpt lat="43.505999" lon="10.6194014"><ele>300.0</ele><time>2026-04-18T05:37:52.307Z</time></trkpt><trkpt lat="43.5060762" lon="10.6193701"><ele>300.0</ele><time>2026-04-18T05:37:53.316Z</time></trkpt><trkpt lat="43.5061571" lon="10.6193454"><ele>300.0</ele><time>2026-04-18T05:37:54.315Z</time></trkpt><trkpt lat="43.5062348" lon="10.6193215"><ele>300.0</ele><time>2026-04-18T05:37:55.325Z</time></trkpt><trkpt lat="43.5063282" lon="10.6192994"><ele>300.0</ele><time>2026-04-18T05:37:56.324Z</time></trkpt><trkpt lat="43.5064167" lon="10.619304"><ele>300.0</ele><time>2026-04-18T05:37:57.32Z</time></trkpt><trkpt lat="43.5064875" lon="10.6193105"><ele>300.0</ele><time>2026-04-18T05:37:58.325Z</time></trkpt><trkpt lat="43.5065551" lon="10.619309"><ele>297.8</ele><time>2026-04-18T05:37:59.443Z</time></trkpt><trkpt lat="43.5066242" lon="10.6192923"><ele>295.6</ele><time>2026-04-18T05:38:00.425Z</time></trkpt><trkpt lat="43.5066948" lon="10.6192676"><ele>293.4</ele><time>2026-04-18T05:38:01.327Z</time></trkpt><trkpt lat="43.506812" lon="10.619215"><ele>291.2</ele><time>2026-04-18T05:38:03.424Z</time></trkpt><trkpt lat="43.5069232" lon="10.6191326"><ele>289.0</ele><time>2026-04-18T05:38:05.423Z</time></trkpt><trkpt lat="43.506979" lon="10.6190635"><ele>289.0</ele><time>2026-04-18T05:38:06.415Z</time></trkpt><trkpt lat="43.5070396" lon="10.6189916"><ele>289.0</ele><time>2026-04-18T05:38:07.441Z</time></trkpt><trkpt lat="43.5071022" lon="10.6189203"><ele>289.0</ele><time>2026-04-18T05:38:08.375Z</time></trkpt><trkpt lat="43.5071724" lon="10.6188474"><ele>289.0</ele><time>2026-04-18T05:38:09.32Z</time></trkpt><trkpt lat="43.5072608" lon="10.6187854"><ele>289.0</ele><time>2026-04-18T05:38:10.326Z</time></trkpt><trkpt lat="43.5073579" lon="10.6187426"><ele>288.2</ele><time>2026-04-18T05:38:11.321Z</time></trkpt><trkpt lat="43.5074665" lon="10.6187066"><ele>287.4</ele><time>2026-04-18T05:38:12.325Z</time></trkpt><trkpt lat="43.5075686" lon="10.6186517"><ele>286.6</ele><time>2026-04-18T05:38:13.329Z</time></trkpt><trkpt lat="43.5076574" lon="10.6185793"><ele>285.8</ele><time>2026-04-18T05:38:14.324Z</time></trkpt><trkpt lat="43.5077464" lon="10.6185"><ele>285.0</ele><time>2026-04-18T05:38:15.327Z</time></trkpt><trkpt lat="43.5078273" lon="10.6184096"><ele>285.0</ele><time>2026-04-18T05:38:16.425Z</time></trkpt><trkpt lat="43.5078878" lon="10.6183014"><ele>285.0</ele><time>2026-04-18T05:38:17.329Z</time></trkpt><trkpt lat="43.5079562" lon="10.6181663"><ele>285.0</ele><time>2026-04-18T05:38:18.327Z</time></trkpt><trkpt lat="43.5080198" lon="10.6180096"><ele>285.0</ele><time>2026-04-18T05:38:19.328Z</time></trkpt><trkpt lat="43.508075" lon="10.6178761"><ele>285.8</ele><time>2026-04-18T05:38:20.328Z</time></trkpt><trkpt lat="43.5081305" lon="10.6177315"><ele>286.6</ele><time>2026-04-18T05:38:21.321Z</time></trkpt><trkpt lat="43.5081832" lon="10.6175852"><ele>287.4</ele><time>2026-04-18T05:38:22.331Z</time></trkpt><trkpt lat="43.5082263" lon="10.6174593"><ele>288.2</ele><time>2026-04-18T05:38:23.43Z</time></trkpt><trkpt lat="43.5082678" lon="10.6173333"><ele>289.0</ele><time>2026-04-18T05:38:24.422Z</time></trkpt><trkpt lat="43.5083142" lon="10.6172093"><ele>289.0</ele><time>2026-04-18T05:38:25.419Z</time></trkpt><trkpt lat="43.5083702" lon="10.6171025"><ele>289.0</ele><time>2026-04-18T05:38:26.42Z</time></trkpt><trkpt lat="43.5084304" lon="10.6170146"><ele>289.0</ele><time>2026-04-18T05:38:27.45Z</time></trkpt><trkpt lat="43.5084821" lon="10.6169365"><ele>289.0</ele><time>2026-04-18T05:38:28.43Z</time></trkpt><trkpt lat="43.5085506" lon="10.6168466"><ele>289.0</ele><time>2026-04-18T05:38:29.418Z</time></trkpt><trkpt lat="43.5086272" lon="10.6167523"><ele>289.59999999999997</ele><time>2026-04-18T05:38:30.441Z</time></trkpt><trkpt lat="43.5087046" lon="10.6166527"><ele>290.2</ele><time>2026-04-18T05:38:31.427Z</time></trkpt><trkpt lat="43.5087649" lon="10.6165757"><ele>290.79999999999995</ele><time>2026-04-18T05:38:32.417Z</time></trkpt><trkpt lat="43.5088178" lon="10.6165118"><ele>291.4</ele><time>2026-04-18T05:38:33.445Z</time></trkpt><trkpt lat="43.5088939" lon="10.6164197"><ele>292.0</ele><time>2026-04-18T05:38:35.432Z</time></trkpt><trkpt lat="43.5089855" lon="10.6163949"><ele>292.0</ele><time>2026-04-18T05:38:37.443Z</time></trkpt><trkpt lat="43.5090998" lon="10.6165135"><ele>292.0</ele><time>2026-04-18T05:38:39.411Z</time></trkpt><trkpt lat="43.5091606" lon="10.6166031"><ele>292.0</ele><time>2026-04-18T05:38:40.446Z</time></trkpt><trkpt lat="43.5092258" lon="10.6167101"><ele>292.0</ele><time>2026-04-18T05:38:41.431Z</time></trkpt><trkpt lat="43.509291" lon="10.6168309"><ele>292.0</ele><time>2026-04-18T05:38:42.341Z</time></trkpt><trkpt lat="43.5093522" lon="10.6169629"><ele>290.75</ele><time>2026-04-18T05:38:43.328Z</time></trkpt><trkpt lat="43.5094235" lon="10.6171072"><ele>289.5</ele><time>2026-04-18T05:38:44.316Z</time></trkpt><trkpt lat="43.5094899" lon="10.6172399"><ele>288.25</ele><time>2026-04-18T05:38:45.327Z</time></trkpt><trkpt lat="43.509561" lon="10.6173637"><ele>287.0</ele><time>2026-04-18T05:38:46.325Z</time></trkpt><trkpt lat="43.5096231" lon="10.6174784"><ele>286.83333333333337</ele><time>2026-04-18T05:38:47.325Z</time></trkpt><trkpt lat="43.5096801" lon="10.6175788"><ele>286.6666666666667</ele><time>2026-04-18T05:38:48.329Z</time></trkpt><trkpt lat="43.5097367" lon="10.6176773"><ele>286.5</ele><time>2026-04-18T05:38:49.332Z</time></trkpt><trkpt lat="43.5097861" lon="10.6177748"><ele>286.3333333333333</ele><time>2026-04-18T05:38:50.324Z</time></trkpt><trkpt lat="43.5098274" lon="10.6178707"><ele>286.16666666666663</ele><time>2026-04-18T05:38:51.325Z</time></trkpt><trkpt lat="43.5098637" lon="10.6179683"><ele>286.0</ele><time>2026-04-18T05:38:52.325Z</time></trkpt><trkpt lat="43.5098926" lon="10.6180525"><ele>285.57142857142856</ele><time>2026-04-18T05:38:53.321Z</time></trkpt><trkpt lat="43.509922" lon="10.6181327"><ele>285.1428571428571</ele><time>2026-04-18T05:38:54.326Z</time></trkpt><trkpt lat="43.5099503" lon="10.6182121"><ele>284.7142857142857</ele><time>2026-04-18T05:38:55.32Z</time></trkpt><trkpt lat="43.5099716" lon="10.6182952"><ele>284.2857142857143</ele><time>2026-04-18T05:38:56.32Z</time></trkpt><trkpt lat="43.5099968" lon="10.6183826"><ele>283.8571428571429</ele><time>2026-04-18T05:38:57.32Z</time></trkpt><trkpt lat="43.510038" lon="10.6184783"><ele>283.42857142857144</ele><time>2026-04-18T05:38:58.32Z</time></trkpt><trkpt lat="43.5100854" lon="10.6185594"><ele>283.0</ele><time>2026-04-18T05:38:59.325Z</time></trkpt><trkpt lat="43.5101492" lon="10.6185968"><ele>283.0</ele><time>2026-04-18T05:39:00.32Z</time></trkpt><trkpt lat="43.5102249" lon="10.6185783"><ele>283.0</ele><time>2026-04-18T05:39:01.326Z</time></trkpt><trkpt lat="43.5103066" lon="10.6185258"><ele>283.0</ele><time>2026-04-18T05:39:02.321Z</time></trkpt><trkpt lat="43.5103898" lon="10.6184537"><ele>283.0</ele><time>2026-04-18T05:39:03.332Z</time></trkpt><trkpt lat="43.5104744" lon="10.6183713"><ele>283.0</ele><time>2026-04-18T05:39:04.321Z</time></trkpt><trkpt lat="43.5105655" lon="10.6182914"><ele>281.0</ele><time>2026-04-18T05:39:05.329Z</time></trkpt><trkpt lat="43.5106584" lon="10.6182266"><ele>279.0</ele><time>2026-04-18T05:39:06.321Z</time></trkpt><trkpt lat="43.5107541" lon="10.6181849"><ele>277.0</ele><time>2026-04-18T05:39:07.321Z</time></trkpt><trkpt lat="43.5108644" lon="10.6181728"><ele>275.0</ele><time>2026-04-18T05:39:08.321Z</time></trkpt><trkpt lat="43.5109726" lon="10.6181795"><ele>273.0</ele><time>2026-04-18T05:39:09.32Z</time></trkpt><trkpt lat="43.5110733" lon="10.6181966"><ele>273.0</ele><time>2026-04-18T05:39:10.321Z</time></trkpt><trkpt lat="43.5111815" lon="10.6182176"><ele>273.0</ele><time>2026-04-18T05:39:11.327Z</time></trkpt><trkpt lat="43.5113031" lon="10.6182416"><ele>273.0</ele><time>2026-04-18T05:39:12.326Z</time></trkpt><trkpt lat="43.5114263" lon="10.6182702"><ele>273.0</ele><time>2026-04-18T05:39:13.324Z</time></trkpt><trkpt lat="43.51155" lon="10.6183035"><ele>270.75</ele><time>2026-04-18T05:39:14.322Z</time></trkpt><trkpt lat="43.511664" lon="10.6183486"><ele>268.5</ele><time>2026-04-18T05:39:15.326Z</time></trkpt><trkpt lat="43.5117714" lon="10.6184044"><ele>266.25</ele><time>2026-04-18T05:39:16.327Z</time></trkpt><trkpt lat="43.5118796" lon="10.6184807"><ele>264.0</ele><time>2026-04-18T05:39:17.326Z</time></trkpt><trkpt lat="43.5119839" lon="10.6185767"><ele>261.75</ele><time>2026-04-18T05:39:18.318Z</time></trkpt><trkpt lat="43.5120845" lon="10.6186769"><ele>259.5</ele><time>2026-04-18T05:39:19.325Z</time></trkpt><trkpt lat="43.5121929" lon="10.6187734"><ele>257.25</ele><time>2026-04-18T05:39:20.323Z</time></trkpt><trkpt lat="43.51231" lon="10.6188597"><ele>255.0</ele><time>2026-04-18T05:39:21.326Z</time></trkpt><trkpt lat="43.5124399" lon="10.618941"><ele>255.0</ele><time>2026-04-18T05:39:22.326Z</time></trkpt><trkpt lat="43.5125758" lon="10.6190156"><ele>255.0</ele><time>2026-04-18T05:39:23.321Z</time></trkpt><trkpt lat="43.5127173" lon="10.6190852"><ele>255.0</ele><time>2026-04-18T05:39:24.327Z</time></trkpt><trkpt lat="43.5128586" lon="10.6191451"><ele>255.0</ele><time>2026-04-18T05:39:25.319Z</time></trkpt><trkpt lat="43.5129974" lon="10.6192027"><ele>252.75</ele><time>2026-04-18T05:39:26.32Z</time></trkpt><trkpt lat="43.5131259" lon="10.6192619"><ele>250.5</ele><time>2026-04-18T05:39:27.323Z</time></trkpt><trkpt lat="43.5132502" lon="10.6193241"><ele>248.25</ele><time>2026-04-18T05:39:28.325Z</time></trkpt><trkpt lat="43.5133626" lon="10.6193721"><ele>246.0</ele><time>2026-04-18T05:39:29.32Z</time></trkpt><trkpt lat="43.513475" lon="10.6194222"><ele>246.0</ele><time>2026-04-18T05:39:30.321Z</time></trkpt><trkpt lat="43.5135847" lon="10.619467"><ele>246.00000000000003</ele><time>2026-04-18T05:39:31.323Z</time></trkpt><trkpt lat="43.5136921" lon="10.619518"><ele>246.00000000000003</ele><time>2026-04-18T05:39:32.325Z</time></trkpt><trkpt lat="43.5137947" lon="10.6195676"><ele>246.0</ele><time>2026-04-18T05:39:33.322Z</time></trkpt><trkpt lat="43.5138871" lon="10.6196139"><ele>246.0</ele><time>2026-04-18T05:39:34.315Z</time></trkpt><trkpt lat="43.5139667" lon="10.6196649"><ele>244.33333333333334</ele><time>2026-04-18T05:39:35.319Z</time></trkpt><trkpt lat="43.5140292" lon="10.6197435"><ele>242.66666666666669</ele><time>2026-04-18T05:39:36.324Z</time></trkpt><trkpt lat="43.5140734" lon="10.6198386"><ele>241.0</ele><time>2026-04-18T05:39:37.319Z</time></trkpt><trkpt lat="43.5140911" lon="10.619947"><ele>239.33333333333334</ele><time>2026-04-18T05:39:38.32Z</time></trkpt><trkpt lat="43.5140807" lon="10.6200723"><ele>237.66666666666669</ele><time>2026-04-18T05:39:39.318Z</time></trkpt><trkpt lat="43.5140463" lon="10.6202085"><ele>236.0</ele><time>2026-04-18T05:39:40.319Z</time></trkpt><trkpt lat="43.513988" lon="10.620347"><ele>235.5</ele><time>2026-04-18T05:39:41.324Z</time></trkpt><trkpt lat="43.5139111" lon="10.6204809"><ele>235.0</ele><time>2026-04-18T05:39:42.321Z</time></trkpt><trkpt lat="43.5138211" lon="10.6206062"><ele>234.5</ele><time>2026-04-18T05:39:43.321Z</time></trkpt><trkpt lat="43.5137341" lon="10.6207195"><ele>234.0</ele><time>2026-04-18T05:39:44.394Z</time></trkpt><trkpt lat="43.5136564" lon="10.6208211"><ele>234.0</ele><time>2026-04-18T05:39:45.413Z</time></trkpt><trkpt lat="43.5135883" lon="10.6209095"><ele>234.0</ele><time>2026-04-18T05:39:46.325Z</time></trkpt><trkpt lat="43.5135266" lon="10.6209975"><ele>234.0</ele><time>2026-04-18T05:39:47.325Z</time></trkpt><trkpt lat="43.5134813" lon="10.6210944"><ele>234.0</ele><time>2026-04-18T05:39:48.326Z</time></trkpt><trkpt lat="43.513459" lon="10.6212055"><ele>234.0</ele><time>2026-04-18T05:39:49.329Z</time></trkpt><trkpt lat="43.5134701" lon="10.6213236"><ele>234.0</ele><time>2026-04-18T05:39:50.325Z</time></trkpt><trkpt lat="43.5135144" lon="10.6214385"><ele>232.0</ele><time>2026-04-18T05:39:51.319Z</time></trkpt><trkpt lat="43.5135914" lon="10.6215225"><ele>230.0</ele><time>2026-04-18T05:39:52.317Z</time></trkpt><trkpt lat="43.5136946" lon="10.6215804"><ele>228.0</ele><time>2026-04-18T05:39:53.319Z</time></trkpt><trkpt lat="43.5138179" lon="10.6216141"><ele>226.0</ele><time>2026-04-18T05:39:54.319Z</time></trkpt><trkpt lat="43.5139494" lon="10.6216568"><ele>225.0</ele><time>2026-04-18T05:39:55.32Z</time></trkpt><trkpt lat="43.5140769" lon="10.6217208"><ele>224.0</ele><time>2026-04-18T05:39:56.323Z</time></trkpt><trkpt lat="43.5142061" lon="10.6218127"><ele>223.0</ele><time>2026-04-18T05:39:57.435Z</time></trkpt><trkpt lat="43.5144699" lon="10.6219916"><ele>220.0</ele><time>2026-04-18T05:39:59.327Z</time></trkpt><trkpt lat="43.5146149" lon="10.6220601"><ele>217.0</ele><time>2026-04-18T05:40:00.33Z</time></trkpt><trkpt lat="43.5147623" lon="10.6221131"><ele>214.0</ele><time>2026-04-18T05:40:01.325Z</time></trkpt><trkpt lat="43.5149199" lon="10.6221521"><ele>214.0</ele><time>2026-04-18T05:40:02.326Z</time></trkpt><trkpt lat="43.5150821" lon="10.6221783"><ele>214.0</ele><time>2026-04-18T05:40:03.326Z</time></trkpt><trkpt lat="43.5152448" lon="10.6221948"><ele>214.0</ele><time>2026-04-18T05:40:04.326Z</time></trkpt><trkpt lat="43.5154126" lon="10.6221996"><ele>212.0</ele><time>2026-04-18T05:40:05.323Z</time></trkpt><trkpt lat="43.5155864" lon="10.6221989"><ele>210.0</ele><time>2026-04-18T05:40:06.321Z</time></trkpt><trkpt lat="43.5157585" lon="10.622203"><ele>208.0</ele><time>2026-04-18T05:40:07.327Z</time></trkpt><trkpt lat="43.5159229" lon="10.6222151"><ele>208.0</ele><time>2026-04-18T05:40:08.327Z</time></trkpt><trkpt lat="43.5160888" lon="10.6222544"><ele>208.0</ele><time>2026-04-18T05:40:09.326Z</time></trkpt><trkpt lat="43.5162408" lon="10.622315"><ele>208.0</ele><time>2026-04-18T05:40:10.437Z</time></trkpt><trkpt lat="43.5163759" lon="10.6224149"><ele>206.75</ele><time>2026-04-18T05:40:11.32Z</time></trkpt><trkpt lat="43.5164935" lon="10.6225316"><ele>205.5</ele><time>2026-04-18T05:40:12.325Z</time></trkpt><trkpt lat="43.5165975" lon="10.6226691"><ele>204.25</ele><time>2026-04-18T05:40:13.324Z</time></trkpt><trkpt lat="43.5166868" lon="10.6228304"><ele>203.0</ele><time>2026-04-18T05:40:14.322Z</time></trkpt><trkpt lat="43.5167667" lon="10.6230111"><ele>202.75</ele><time>2026-04-18T05:40:15.321Z</time></trkpt><trkpt lat="43.5168335" lon="10.623196"><ele>202.5</ele><time>2026-04-18T05:40:16.323Z</time></trkpt><trkpt lat="43.5168843" lon="10.6233771"><ele>202.25</ele><time>2026-04-18T05:40:17.329Z</time></trkpt><trkpt lat="43.5169265" lon="10.6235463"><ele>202.0</ele><time>2026-04-18T05:40:18.319Z</time></trkpt><trkpt lat="43.5169675" lon="10.6236964"><ele>201.8</ele><time>2026-04-18T05:40:19.325Z</time></trkpt><trkpt lat="43.5170133" lon="10.6238313"><ele>201.6</ele><time>2026-04-18T05:40:20.327Z</time></trkpt><trkpt lat="43.5170791" lon="10.6239416"><ele>201.4</ele><time>2026-04-18T05:40:21.327Z</time></trkpt><trkpt lat="43.5171712" lon="10.6240362"><ele>201.20000000000002</ele><time>2026-04-18T05:40:22.326Z</time></trkpt><trkpt lat="43.5172825" lon="10.6241058"><ele>201.0</ele><time>2026-04-18T05:40:23.328Z</time></trkpt><trkpt lat="43.517409" lon="10.6241502"><ele>198.75</ele><time>2026-04-18T05:40:24.325Z</time></trkpt><trkpt lat="43.517547" lon="10.62419"><ele>196.5</ele><time>2026-04-18T05:40:25.327Z</time></trkpt><trkpt lat="43.5176926" lon="10.6242284"><ele>194.25</ele><time>2026-04-18T05:40:26.33Z</time></trkpt><trkpt lat="43.5178422" lon="10.6242632"><ele>192.0</ele><time>2026-04-18T05:40:27.326Z</time></trkpt><trkpt lat="43.5179941" lon="10.6242986"><ele>188.0</ele><time>2026-04-18T05:40:28.322Z</time></trkpt><trkpt lat="43.518146" lon="10.6243338"><ele>184.0</ele><time>2026-04-18T05:40:29.325Z</time></trkpt><trkpt lat="43.5182935" lon="10.6243695"><ele>180.0</ele><time>2026-04-18T05:40:30.319Z</time></trkpt><trkpt lat="43.5184468" lon="10.6244106"><ele>180.0</ele><time>2026-04-18T05:40:31.322Z</time></trkpt><trkpt lat="43.5186035" lon="10.62445"><ele>180.0</ele><time>2026-04-18T05:40:32.322Z</time></trkpt><trkpt lat="43.5187511" lon="10.6244902"><ele>180.0</ele><time>2026-04-18T05:40:33.327Z</time></trkpt><trkpt lat="43.5188884" lon="10.6245288"><ele>178.0</ele><time>2026-04-18T05:40:34.321Z</time></trkpt><trkpt lat="43.5190138" lon="10.6245644"><ele>176.0</ele><time>2026-04-18T05:40:35.325Z</time></trkpt><trkpt lat="43.5191304" lon="10.6245988"><ele>174.0</ele><time>2026-04-18T05:40:36.421Z</time></trkpt><trkpt lat="43.5192371" lon="10.6246362"><ele>172.0</ele><time>2026-04-18T05:40:37.415Z</time></trkpt><trkpt lat="43.5193285" lon="10.6246746"><ele>172.0</ele><time>2026-04-18T05:40:38.443Z</time></trkpt><trkpt lat="43.519408" lon="10.624707"><ele>172.0</ele><time>2026-04-18T05:40:39.422Z</time></trkpt><trkpt lat="43.5194799" lon="10.6247327"><ele>172.0</ele><time>2026-04-18T05:40:40.415Z</time></trkpt><trkpt lat="43.5195509" lon="10.6247591"><ele>172.0</ele><time>2026-04-18T05:40:41.442Z</time></trkpt><trkpt lat="43.519723" lon="10.6248817"><ele>172.0</ele><time>2026-04-18T05:40:43.413Z</time></trkpt><trkpt lat="43.5198209" lon="10.6249771"><ele>169.66666666666669</ele><time>2026-04-18T05:40:44.421Z</time></trkpt><trkpt lat="43.5199256" lon="10.6250796"><ele>167.33333333333334</ele><time>2026-04-18T05:40:45.444Z</time></trkpt><trkpt lat="43.5200341" lon="10.6251807"><ele>165.0</ele><time>2026-04-18T05:40:46.433Z</time></trkpt><trkpt lat="43.520245" lon="10.6253576"><ele>164.8</ele><time>2026-04-18T05:40:48.328Z</time></trkpt><trkpt lat="43.5203389" lon="10.625425"><ele>164.6</ele><time>2026-04-18T05:40:49.438Z</time></trkpt><trkpt lat="43.520423" lon="10.6254875"><ele>164.39999999999998</ele><time>2026-04-18T05:40:50.44Z</time></trkpt><trkpt lat="43.5204971" lon="10.6255534"><ele>164.2</ele><time>2026-04-18T05:40:51.433Z</time></trkpt><trkpt lat="43.520553" lon="10.6256339"><ele>164.0</ele><time>2026-04-18T05:40:52.446Z</time></trkpt><trkpt lat="43.5206411" lon="10.6258634"><ele>164.0</ele><time>2026-04-18T05:40:54.434Z</time></trkpt><trkpt lat="43.5206798" lon="10.6259937"><ele>164.0</ele><time>2026-04-18T05:40:55.438Z</time></trkpt><trkpt lat="43.5207211" lon="10.626123"><ele>164.0</ele><time>2026-04-18T05:40:56.449Z</time></trkpt><trkpt lat="43.5207782" lon="10.62622"><ele>164.0</ele><time>2026-04-18T05:40:57.441Z</time></trkpt><trkpt lat="43.5208537" lon="10.6262918"><ele>164.0</ele><time>2026-04-18T05:40:58.445Z</time></trkpt><trkpt lat="43.5209371" lon="10.6263481"><ele>164.0</ele><time>2026-04-18T05:40:59.427Z</time></trkpt><trkpt lat="43.5210257" lon="10.6263964"><ele>164.0</ele><time>2026-04-18T05:41:00.433Z</time></trkpt><trkpt lat="43.5211191" lon="10.626451"><ele>164.0</ele><time>2026-04-18T05:41:01.447Z</time></trkpt><trkpt lat="43.5212125" lon="10.6265083"><ele>164.0</ele><time>2026-04-18T05:41:02.438Z</time></trkpt><trkpt lat="43.5213047" lon="10.626573"><ele>164.0</ele><time>2026-04-18T05:41:03.443Z</time></trkpt><trkpt lat="43.5214027" lon="10.6266412"><ele>163.39999999999998</ele><time>2026-04-18T05:41:04.429Z</time></trkpt><trkpt lat="43.5215034" lon="10.6267066"><ele>162.8</ele><time>2026-04-18T05:41:05.423Z</time></trkpt><trkpt lat="43.5216058" lon="10.626772"><ele>162.2</ele><time>2026-04-18T05:41:06.434Z</time></trkpt><trkpt lat="43.5217066" lon="10.6268281"><ele>161.60000000000002</ele><time>2026-04-18T05:41:07.434Z</time></trkpt><trkpt lat="43.5218078" lon="10.6268806"><ele>161.0</ele><time>2026-04-18T05:41:08.393Z</time></trkpt><trkpt lat="43.5219093" lon="10.6269261"><ele>161.0</ele><time>2026-04-18T05:41:09.33Z</time></trkpt><trkpt lat="43.5220162" lon="10.6269622"><ele>161.0</ele><time>2026-04-18T05:41:10.413Z</time></trkpt><trkpt lat="43.5221284" lon="10.6269994"><ele>161.0</ele><time>2026-04-18T05:41:11.435Z</time></trkpt><trkpt lat="43.5222408" lon="10.6270305"><ele>161.0</ele><time>2026-04-18T05:41:12.428Z</time></trkpt><trkpt lat="43.5223548" lon="10.6270619"><ele>160.0</ele><time>2026-04-18T05:41:13.419Z</time></trkpt><trkpt lat="43.5224723" lon="10.6270916"><ele>159.0</ele><time>2026-04-18T05:41:14.411Z</time></trkpt><trkpt lat="43.5225855" lon="10.6271228"><ele>158.0</ele><time>2026-04-18T05:41:15.416Z</time></trkpt><trkpt lat="43.5226998" lon="10.6271561"><ele>157.0</ele><time>2026-04-18T05:41:16.436Z</time></trkpt><trkpt lat="43.5228083" lon="10.6271909"><ele>155.25</ele><time>2026-04-18T05:41:17.448Z</time></trkpt><trkpt lat="43.523031" lon="10.6272642"><ele>153.5</ele><time>2026-04-18T05:41:19.326Z</time></trkpt><trkpt lat="43.5231236" lon="10.6273008"><ele>151.75</ele><time>2026-04-18T05:41:20.322Z</time></trkpt><trkpt lat="43.523213" lon="10.6273612"><ele>150.0</ele><time>2026-04-18T05:41:21.323Z</time></trkpt><trkpt lat="43.5232865" lon="10.6274432"><ele>150.0</ele><time>2026-04-18T05:41:22.319Z</time></trkpt><trkpt lat="43.5233495" lon="10.6275329"><ele>150.0</ele><time>2026-04-18T05:41:23.328Z</time></trkpt><trkpt lat="43.523414" lon="10.6276205"><ele>150.0</ele><time>2026-04-18T05:41:24.422Z</time></trkpt><trkpt lat="43.5234729" lon="10.6276949"><ele>150.0</ele><time>2026-04-18T05:41:25.428Z</time></trkpt><trkpt lat="43.5235382" lon="10.6277405"><ele>150.0</ele><time>2026-04-18T05:41:26.421Z</time></trkpt><trkpt lat="43.5236155" lon="10.627768"><ele>150.0</ele><time>2026-04-18T05:41:27.43Z</time></trkpt><trkpt lat="43.5236891" lon="10.6277773"><ele>148.66666666666666</ele><time>2026-04-18T05:41:28.423Z</time></trkpt><trkpt lat="43.5237712" lon="10.6277728"><ele>147.33333333333334</ele><time>2026-04-18T05:41:29.411Z</time></trkpt><trkpt lat="43.5238562" lon="10.627767"><ele>146.0</ele><time>2026-04-18T05:41:30.429Z</time></trkpt><trkpt lat="43.5239397" lon="10.6277691"><ele>144.66666666666669</ele><time>2026-04-18T05:41:31.429Z</time></trkpt><trkpt lat="43.5240147" lon="10.6277828"><ele>143.33333333333334</ele><time>2026-04-18T05:41:32.441Z</time></trkpt><trkpt lat="43.5240793" lon="10.6277858"><ele>142.0</ele><time>2026-04-18T05:41:33.406Z</time></trkpt><trkpt lat="43.5241867" lon="10.6277939"><ele>142.0</ele><time>2026-04-18T05:41:35.419Z</time></trkpt><trkpt lat="43.5242663" lon="10.6277204"><ele>142.0</ele><time>2026-04-18T05:41:37.446Z</time></trkpt><trkpt lat="43.5242781" lon="10.6276038"><ele>142.0</ele><time>2026-04-18T05:41:39.442Z</time></trkpt><trkpt lat="43.5242552" lon="10.6274465"><ele>142.0</ele><time>2026-04-18T05:41:41.441Z</time></trkpt><trkpt lat="43.5242616" lon="10.6273438"><ele>142.0</ele><time>2026-04-18T05:41:42.435Z</time></trkpt><trkpt lat="43.5242744" lon="10.6272336"><ele>142.0</ele><time>2026-04-18T05:41:43.434Z</time></trkpt><trkpt lat="43.5242871" lon="10.6271276"><ele>142.0</ele><time>2026-04-18T05:41:44.42Z</time></trkpt><trkpt lat="43.5243008" lon="10.6270217"><ele>142.0</ele><time>2026-04-18T05:41:45.321Z</time></trkpt><trkpt lat="43.5243157" lon="10.6269244"><ele>142.0</ele><time>2026-04-18T05:41:46.329Z</time></trkpt><trkpt lat="43.5243322" lon="10.6268253"><ele>142.0</ele><time>2026-04-18T05:41:47.442Z</time></trkpt><trkpt lat="43.5243445" lon="10.6267239"><ele>142.0</ele><time>2026-04-18T05:41:48.417Z</time></trkpt><trkpt lat="43.5243565" lon="10.626618"><ele>142.2</ele><time>2026-04-18T05:41:49.426Z</time></trkpt><trkpt lat="43.5243685" lon="10.6265074"><ele>142.39999999999998</ele><time>2026-04-18T05:41:51.35Z</time></trkpt><trkpt lat="43.5244224" lon="10.6263078"><ele>142.60000000000002</ele><time>2026-04-18T05:41:52.321Z</time></trkpt><trkpt lat="43.5244817" lon="10.6262036"><ele>142.8</ele><time>2026-04-18T05:41:53.324Z</time></trkpt><trkpt lat="43.5245531" lon="10.6260897"><ele>143.0</ele><time>2026-04-18T05:41:54.416Z</time></trkpt><trkpt lat="43.5246321" lon="10.625962"><ele>140.25</ele><time>2026-04-18T05:41:55.419Z</time></trkpt><trkpt lat="43.5247146" lon="10.6258293"><ele>137.5</ele><time>2026-04-18T05:41:56.448Z</time></trkpt><trkpt lat="43.5247937" lon="10.6257029"><ele>134.75</ele><time>2026-04-18T05:41:57.453Z</time></trkpt><trkpt lat="43.5248748" lon="10.6255716"><ele>132.0</ele><time>2026-04-18T05:41:58.435Z</time></trkpt><trkpt lat="43.5249526" lon="10.6254403"><ele>132.0</ele><time>2026-04-18T05:41:59.437Z</time></trkpt><trkpt lat="43.5250263" lon="10.6253141"><ele>132.0</ele><time>2026-04-18T05:42:00.449Z</time></trkpt><trkpt lat="43.5250938" lon="10.6251957"><ele>132.0</ele><time>2026-04-18T05:42:01.44Z</time></trkpt><trkpt lat="43.5252348" lon="10.6249784"><ele>132.0</ele><time>2026-04-18T05:42:03.427Z</time></trkpt><trkpt lat="43.5253209" lon="10.6248685"><ele>130.25</ele><time>2026-04-18T05:42:04.413Z</time></trkpt><trkpt lat="43.5254142" lon="10.6247583"><ele>128.5</ele><time>2026-04-18T05:42:05.418Z</time></trkpt><trkpt lat="43.52551" lon="10.6246435"><ele>126.75</ele><time>2026-04-18T05:42:06.438Z</time></trkpt><trkpt lat="43.5256081" lon="10.6245283"><ele>125.0</ele><time>2026-04-18T05:42:07.434Z</time></trkpt><trkpt lat="43.5257029" lon="10.6244109"><ele>122.66666666666666</ele><time>2026-04-18T05:42:08.442Z</time></trkpt><trkpt lat="43.5257942" lon="10.6242963"><ele>120.33333333333334</ele><time>2026-04-18T05:42:09.427Z</time></trkpt><trkpt lat="43.5258836" lon="10.6241773"><ele>118.0</ele><time>2026-04-18T05:42:10.326Z</time></trkpt><trkpt lat="43.526034" lon="10.6239441"><ele>118.00000000000001</ele><time>2026-04-18T05:42:12.452Z</time></trkpt><trkpt lat="43.5261027" lon="10.623836"><ele>118.0</ele><time>2026-04-18T05:42:13.429Z</time></trkpt><trkpt lat="43.5261616" lon="10.6237398"><ele>118.0</ele><time>2026-04-18T05:42:14.434Z</time></trkpt><trkpt lat="43.526212" lon="10.6236555"><ele>118.0</ele><time>2026-04-18T05:42:15.417Z</time></trkpt><trkpt lat="43.5262468" lon="10.6235748"><ele>118.00000000000001</ele><time>2026-04-18T05:42:16.446Z</time></trkpt><trkpt lat="43.5262638" lon="10.6234876"><ele>118.0</ele><time>2026-04-18T05:42:17.44Z</time></trkpt><trkpt lat="43.5262635" lon="10.6233834"><ele>117.80000000000001</ele><time>2026-04-18T05:42:18.442Z</time></trkpt><trkpt lat="43.5262387" lon="10.6232761"><ele>117.60000000000001</ele><time>2026-04-18T05:42:19.446Z</time></trkpt><trkpt lat="43.52619" lon="10.6231642"><ele>117.39999999999999</ele><time>2026-04-18T05:42:20.449Z</time></trkpt><trkpt lat="43.5261277" lon="10.6230506"><ele>117.19999999999999</ele><time>2026-04-18T05:42:21.436Z</time></trkpt><trkpt lat="43.5260588" lon="10.6229502"><ele>117.0</ele><time>2026-04-18T05:42:22.413Z</time></trkpt><trkpt lat="43.5259834" lon="10.6228424"><ele>115.6</ele><time>2026-04-18T05:42:23.415Z</time></trkpt><trkpt lat="43.5258956" lon="10.622739"><ele>114.19999999999999</ele><time>2026-04-18T05:42:24.415Z</time></trkpt><trkpt lat="43.5258" lon="10.6226552"><ele>112.8</ele><time>2026-04-18T05:42:25.327Z</time></trkpt><trkpt lat="43.5257008" lon="10.6225828"><ele>111.4</ele><time>2026-04-18T05:42:26.329Z</time></trkpt><trkpt lat="43.5256074" lon="10.6225096"><ele>110.0</ele><time>2026-04-18T05:42:27.419Z</time></trkpt><trkpt lat="43.5255215" lon="10.6224359"><ele>110.0</ele><time>2026-04-18T05:42:28.412Z</time></trkpt><trkpt lat="43.5254481" lon="10.6223474"><ele>110.0</ele><time>2026-04-18T05:42:29.437Z</time></trkpt><trkpt lat="43.5253879" lon="10.6222498"><ele>110.0</ele><time>2026-04-18T05:42:30.44Z</time></trkpt><trkpt lat="43.525347" lon="10.6221489"><ele>110.0</ele><time>2026-04-18T05:42:31.428Z</time></trkpt><trkpt lat="43.5252659" lon="10.6219412"><ele>110.0</ele><time>2026-04-18T05:42:33.432Z</time></trkpt><trkpt lat="43.5252337" lon="10.6218358"><ele>110.49999999999999</ele><time>2026-04-18T05:42:34.422Z</time></trkpt><trkpt lat="43.5252331" lon="10.6217399"><ele>111.0</ele><time>2026-04-18T05:42:35.419Z</time></trkpt><trkpt lat="43.5252732" lon="10.6216158"><ele>111.5</ele><time>2026-04-18T05:42:37.425Z</time></trkpt><trkpt lat="43.5253566" lon="10.6215378"><ele>112.0</ele><time>2026-04-18T05:42:40.416Z</time></trkpt><trkpt lat="43.5254211" lon="10.6215317"><ele>112.49999999999999</ele><time>2026-04-18T05:42:41.421Z</time></trkpt><trkpt lat="43.5254985" lon="10.6215401"><ele>113.0</ele><time>2026-04-18T05:42:42.447Z</time></trkpt><trkpt lat="43.5255899" lon="10.6215449"><ele>113.0</ele><time>2026-04-18T05:42:43.415Z</time></trkpt><trkpt lat="43.5256962" lon="10.6215475"><ele>113.00000000000001</ele><time>2026-04-18T05:42:44.452Z</time></trkpt><trkpt lat="43.5258025" lon="10.621545"><ele>113.00000000000001</ele><time>2026-04-18T05:42:45.438Z</time></trkpt><trkpt lat="43.5259107" lon="10.6215449"><ele>113.0</ele><time>2026-04-18T05:42:46.413Z</time></trkpt><trkpt lat="43.5260193" lon="10.6215481"><ele>113.0</ele><time>2026-04-18T05:42:47.421Z</time></trkpt><trkpt lat="43.5261262" lon="10.6215533"><ele>112.99999999999999</ele><time>2026-04-18T05:42:48.413Z</time></trkpt><trkpt lat="43.5262223" lon="10.6215644"><ele>113.0</ele><time>2026-04-18T05:42:49.442Z</time></trkpt><trkpt lat="43.5263116" lon="10.6215741"><ele>113.0</ele><time>2026-04-18T05:42:50.428Z</time></trkpt><trkpt lat="43.5263942" lon="10.62158"><ele>113.0</ele><time>2026-04-18T05:42:51.339Z</time></trkpt><trkpt lat="43.5264655" lon="10.6215868"><ele>112.99999999999999</ele><time>2026-04-18T05:42:52.329Z</time></trkpt><trkpt lat="43.5265744" lon="10.6215863"><ele>113.0</ele><time>2026-04-18T05:42:54.43Z</time></trkpt><trkpt lat="43.52666" lon="10.6215916"><ele>112.4</ele><time>2026-04-18T05:42:57.415Z</time></trkpt><trkpt lat="43.526728" lon="10.621589"><ele>111.80000000000001</ele><time>2026-04-18T05:43:39.327Z</time></trkpt><trkpt lat="43.5268375" lon="10.6215888"><ele>111.2</ele><time>2026-04-18T05:43:41.44Z</time></trkpt><trkpt lat="43.5269117" lon="10.6215871"><ele>110.6</ele><time>2026-04-18T05:43:42.439Z</time></trkpt><trkpt lat="43.5270847" lon="10.621587"><ele>110.0</ele><time>2026-04-18T05:43:44.328Z</time></trkpt><trkpt lat="43.5271851" lon="10.6215917"><ele>109.0</ele><time>2026-04-18T05:43:45.444Z</time></trkpt><trkpt lat="43.5272855" lon="10.6215915"><ele>108.0</ele><time>2026-04-18T05:43:46.45Z</time></trkpt><trkpt lat="43.5273947" lon="10.6215922"><ele>107.0</ele><time>2026-04-18T05:43:47.441Z</time></trkpt><trkpt lat="43.5275135" lon="10.6215767"><ele>106.0</ele><time>2026-04-18T05:43:48.446Z</time></trkpt><trkpt lat="43.5276314" lon="10.6215424"><ele>105.0</ele><time>2026-04-18T05:43:49.448Z</time></trkpt><trkpt lat="43.5277488" lon="10.6214881"><ele>105.0</ele><time>2026-04-18T05:43:50.427Z</time></trkpt><trkpt lat="43.5278676" lon="10.6214227"><ele>105.0</ele><time>2026-04-18T05:43:51.447Z</time></trkpt><trkpt lat="43.5279835" lon="10.6213572"><ele>105.0</ele><time>2026-04-18T05:43:52.437Z</time></trkpt><trkpt lat="43.5281028" lon="10.6212921"><ele>105.0</ele><time>2026-04-18T05:43:53.448Z</time></trkpt><trkpt lat="43.5282245" lon="10.6212246"><ele>105.0</ele><time>2026-04-18T05:43:54.42Z</time></trkpt><trkpt lat="43.5283488" lon="10.6211608"><ele>105.0</ele><time>2026-04-18T05:43:55.438Z</time></trkpt><trkpt lat="43.5285993" lon="10.6210441"><ele>105.0</ele><time>2026-04-18T05:43:57.413Z</time></trkpt><trkpt lat="43.5287238" lon="10.6209944"><ele>103.0</ele><time>2026-04-18T05:43:58.441Z</time></trkpt><trkpt lat="43.528975" lon="10.6208988"><ele>101.0</ele><time>2026-04-18T05:44:00.44Z</time></trkpt><trkpt lat="43.5291022" lon="10.6208672"><ele>99.0</ele><time>2026-04-18T05:44:01.443Z</time></trkpt><trkpt lat="43.5292313" lon="10.6208486"><ele>99.0</ele><time>2026-04-18T05:44:02.438Z</time></trkpt><trkpt lat="43.5293602" lon="10.620845"><ele>99.0</ele><time>2026-04-18T05:44:03.435Z</time></trkpt><trkpt lat="43.5294929" lon="10.6208481"><ele>99.0</ele><time>2026-04-18T05:44:04.454Z</time></trkpt><trkpt lat="43.5296236" lon="10.6208618"><ele>99.0</ele><time>2026-04-18T05:44:05.445Z</time></trkpt><trkpt lat="43.5297555" lon="10.6208876"><ele>98.0</ele><time>2026-04-18T05:44:06.43Z</time></trkpt><trkpt lat="43.529887" lon="10.6209271"><ele>97.0</ele><time>2026-04-18T05:44:07.433Z</time></trkpt><trkpt lat="43.5300205" lon="10.6209656"><ele>96.0</ele><time>2026-04-18T05:44:08.424Z</time></trkpt><trkpt lat="43.5301655" lon="10.621007"><ele>95.0</ele><time>2026-04-18T05:44:09.423Z</time></trkpt><trkpt lat="43.5303127" lon="10.6210454"><ele>93.25</ele><time>2026-04-18T05:44:10.417Z</time></trkpt><trkpt lat="43.5304583" lon="10.621076"><ele>91.5</ele><time>2026-04-18T05:44:11.437Z</time></trkpt><trkpt lat="43.5305987" lon="10.6210804"><ele>89.75</ele><time>2026-04-18T05:44:12.437Z</time></trkpt><trkpt lat="43.5307287" lon="10.6210577"><ele>88.0</ele><time>2026-04-18T05:44:13.417Z</time></trkpt><trkpt lat="43.5308484" lon="10.6210025"><ele>88.0</ele><time>2026-04-18T05:44:14.428Z</time></trkpt><trkpt lat="43.5309502" lon="10.6209088"><ele>88.0</ele><time>2026-04-18T05:44:15.425Z</time></trkpt><trkpt lat="43.5310365" lon="10.6207857"><ele>88.0</ele><time>2026-04-18T05:44:16.448Z</time></trkpt><trkpt lat="43.5311772" lon="10.620482"><ele>85.33333333333333</ele><time>2026-04-18T05:44:18.328Z</time></trkpt><trkpt lat="43.5312458" lon="10.6203198"><ele>82.66666666666667</ele><time>2026-04-18T05:44:19.442Z</time></trkpt><trkpt lat="43.5313852" lon="10.6199914"><ele>80.0</ele><time>2026-04-18T05:44:21.321Z</time></trkpt><trkpt lat="43.5314654" lon="10.6198326"><ele>80.0</ele><time>2026-04-18T05:44:22.441Z</time></trkpt><trkpt lat="43.5315608" lon="10.6196864"><ele>80.0</ele><time>2026-04-18T05:44:23.438Z</time></trkpt><trkpt lat="43.5316752" lon="10.6195633"><ele>80.0</ele><time>2026-04-18T05:44:24.443Z</time></trkpt><trkpt lat="43.5318079" lon="10.6194635"><ele>80.0</ele><time>2026-04-18T05:44:25.419Z</time></trkpt><trkpt lat="43.5319484" lon="10.6193804"><ele>77.66666666666667</ele><time>2026-04-18T05:44:26.439Z</time></trkpt><trkpt lat="43.5321097" lon="10.61934"><ele>75.33333333333333</ele><time>2026-04-18T05:44:27.42Z</time></trkpt><trkpt lat="43.5322682" lon="10.6193326"><ele>73.0</ele><time>2026-04-18T05:44:28.419Z</time></trkpt><trkpt lat="43.5324274" lon="10.6193518"><ele>73.0</ele><time>2026-04-18T05:44:29.428Z</time></trkpt><trkpt lat="43.5325967" lon="10.6193949"><ele>73.0</ele><time>2026-04-18T05:44:30.403Z</time></trkpt><trkpt lat="43.5327608" lon="10.6194468"><ele>73.0</ele><time>2026-04-18T05:44:31.442Z</time></trkpt><trkpt lat="43.532928" lon="10.6194957"><ele>71.66666666666666</ele><time>2026-04-18T05:44:32.428Z</time></trkpt><trkpt lat="43.5330963" lon="10.6195426"><ele>70.33333333333333</ele><time>2026-04-18T05:44:33.441Z</time></trkpt><trkpt lat="43.5332652" lon="10.6195902"><ele>69.0</ele><time>2026-04-18T05:44:34.439Z</time></trkpt><trkpt lat="43.5334309" lon="10.6196403"><ele>69.0</ele><time>2026-04-18T05:44:35.423Z</time></trkpt><trkpt lat="43.5335976" lon="10.6196951"><ele>69.0</ele><time>2026-04-18T05:44:36.43Z</time></trkpt><trkpt lat="43.5337659" lon="10.6197463"><ele>69.0</ele><time>2026-04-18T05:44:37.441Z</time></trkpt><trkpt lat="43.5340985" lon="10.6198362"><ele>68.66666666666667</ele><time>2026-04-18T05:44:39.442Z</time></trkpt><trkpt lat="43.534262" lon="10.6198782"><ele>68.33333333333334</ele><time>2026-04-18T05:44:40.45Z</time></trkpt><trkpt lat="43.5344305" lon="10.619904"><ele>68.0</ele><time>2026-04-18T05:44:41.415Z</time></trkpt><trkpt lat="43.5346061" lon="10.619902"><ele>67.66666666666667</ele><time>2026-04-18T05:44:42.439Z</time></trkpt><trkpt lat="43.5347845" lon="10.6198734"><ele>67.33333333333333</ele><time>2026-04-18T05:44:43.416Z</time></trkpt><trkpt lat="43.5349665" lon="10.6198264"><ele>67.0</ele><time>2026-04-18T05:44:44.448Z</time></trkpt><trkpt lat="43.5351522" lon="10.6197798"><ele>67.0</ele><time>2026-04-18T05:44:45.439Z</time></trkpt><trkpt lat="43.5353341" lon="10.6197271"><ele>67.0</ele><time>2026-04-18T05:44:46.429Z</time></trkpt><trkpt lat="43.5355152" lon="10.6196675"><ele>67.0</ele><time>2026-04-18T05:44:47.441Z</time></trkpt><trkpt lat="43.5356998" lon="10.6196158"><ele>66.66666666666666</ele><time>2026-04-18T05:44:48.445Z</time></trkpt><trkpt lat="43.5358818" lon="10.6195715"><ele>66.33333333333333</ele><time>2026-04-18T05:44:49.422Z</time></trkpt><trkpt lat="43.5360615" lon="10.6195244"><ele>66.0</ele><time>2026-04-18T05:44:50.442Z</time></trkpt><trkpt lat="43.5364154" lon="10.6194315"><ele>66.0</ele><time>2026-04-18T05:44:52.312Z</time></trkpt><trkpt lat="43.5365929" lon="10.6193812"><ele>66.0</ele><time>2026-04-18T05:44:53.44Z</time></trkpt><trkpt lat="43.5367762" lon="10.6193328"><ele>66.0</ele><time>2026-04-18T05:44:54.439Z</time></trkpt><trkpt lat="43.5369546" lon="10.6192952"><ele>65.66666666666667</ele><time>2026-04-18T05:44:55.44Z</time></trkpt><trkpt lat="43.537122" lon="10.6192769"><ele>65.33333333333334</ele><time>2026-04-18T05:44:56.42Z</time></trkpt><trkpt lat="43.5372904" lon="10.6192683"><ele>65.0</ele><time>2026-04-18T05:44:57.416Z</time></trkpt><trkpt lat="43.5374642" lon="10.6192629"><ele>65.0</ele><time>2026-04-18T05:44:58.425Z</time></trkpt><trkpt lat="43.5376357" lon="10.6192535"><ele>65.0</ele><time>2026-04-18T05:44:59.424Z</time></trkpt><trkpt lat="43.53781" lon="10.6192446"><ele>65.0</ele><time>2026-04-18T05:45:00.415Z</time></trkpt><trkpt lat="43.5379912" lon="10.6192332"><ele>63.66666666666667</ele><time>2026-04-18T05:45:01.442Z</time></trkpt><trkpt lat="43.5381691" lon="10.6192259"><ele>62.33333333333333</ele><time>2026-04-18T05:45:02.44Z</time></trkpt><trkpt lat="43.5383484" lon="10.6192212"><ele>61.0</ele><time>2026-04-18T05:45:03.44Z</time></trkpt><trkpt lat="43.5385269" lon="10.6192314"><ele>61.0</ele><time>2026-04-18T05:45:04.368Z</time></trkpt><trkpt lat="43.5387036" lon="10.6192558"><ele>61.0</ele><time>2026-04-18T05:45:05.447Z</time></trkpt><trkpt lat="43.538879" lon="10.6192834"><ele>61.0</ele><time>2026-04-18T05:45:06.407Z</time></trkpt><trkpt lat="43.5390548" lon="10.6193061"><ele>61.0</ele><time>2026-04-18T05:45:07.435Z</time></trkpt><trkpt lat="43.5392353" lon="10.6193311"><ele>61.0</ele><time>2026-04-18T05:45:08.446Z</time></trkpt><trkpt lat="43.5394163" lon="10.6193485"><ele>61.0</ele><time>2026-04-18T05:45:09.434Z</time></trkpt><trkpt lat="43.5395959" lon="10.6193573"><ele>61.0</ele><time>2026-04-18T05:45:10.442Z</time></trkpt><trkpt lat="43.5397651" lon="10.6193485"><ele>61.0</ele><time>2026-04-18T05:45:11.43Z</time></trkpt><trkpt lat="43.5399339" lon="10.6193299"><ele>61.0</ele><time>2026-04-18T05:45:12.421Z</time></trkpt><trkpt lat="43.5401077" lon="10.6193006"><ele>61.0</ele><time>2026-04-18T05:45:13.415Z</time></trkpt><trkpt lat="43.5402835" lon="10.6192688"><ele>61.0</ele><time>2026-04-18T05:45:14.434Z</time></trkpt><trkpt lat="43.5404595" lon="10.6192405"><ele>61.0</ele><time>2026-04-18T05:45:15.438Z</time></trkpt><trkpt lat="43.5406384" lon="10.6192102"><ele>60.666666666666664</ele><time>2026-04-18T05:45:16.42Z</time></trkpt><trkpt lat="43.5408201" lon="10.6191798"><ele>60.33333333333333</ele><time>2026-04-18T05:45:17.412Z</time></trkpt><trkpt lat="43.541002" lon="10.6191605"><ele>60.0</ele><time>2026-04-18T05:45:18.415Z</time></trkpt><trkpt lat="43.5411865" lon="10.6191496"><ele>59.66666666666667</ele><time>2026-04-18T05:45:19.436Z</time></trkpt><trkpt lat="43.5413691" lon="10.619156"><ele>59.333333333333336</ele><time>2026-04-18T05:45:20.411Z</time></trkpt><trkpt lat="43.541549" lon="10.6191795"><ele>59.0</ele><time>2026-04-18T05:45:21.429Z</time></trkpt><trkpt lat="43.5417251" lon="10.6192197"><ele>59.0</ele><time>2026-04-18T05:45:22.443Z</time></trkpt><trkpt lat="43.5419052" lon="10.6192705"><ele>59.0</ele><time>2026-04-18T05:45:23.416Z</time></trkpt><trkpt lat="43.5420809" lon="10.6193331"><ele>59.0</ele><time>2026-04-18T05:45:24.423Z</time></trkpt><trkpt lat="43.5422524" lon="10.6194092"><ele>59.0</ele><time>2026-04-18T05:45:25.326Z</time></trkpt><trkpt lat="43.5424168" lon="10.6194957"><ele>59.0</ele><time>2026-04-18T05:45:26.326Z</time></trkpt><trkpt lat="43.5425817" lon="10.619584"><ele>59.0</ele><time>2026-04-18T05:45:27.435Z</time></trkpt><trkpt lat="43.5427464" lon="10.6196737"><ele>58.333333333333336</ele><time>2026-04-18T05:45:28.418Z</time></trkpt><trkpt lat="43.5429137" lon="10.6197561"><ele>57.66666666666667</ele><time>2026-04-18T05:45:29.415Z</time></trkpt><trkpt lat="43.5430805" lon="10.6198369"><ele>57.0</ele><time>2026-04-18T05:45:30.408Z</time></trkpt><trkpt lat="43.543243" lon="10.619921"><ele>57.0</ele><time>2026-04-18T05:45:31.42Z</time></trkpt><trkpt lat="43.5434089" lon="10.6199996"><ele>57.0</ele><time>2026-04-18T05:45:32.441Z</time></trkpt><trkpt lat="43.5435742" lon="10.6200793"><ele>57.0</ele><time>2026-04-18T05:45:33.422Z</time></trkpt><trkpt lat="43.5437404" lon="10.6201632"><ele>57.0</ele><time>2026-04-18T05:45:34.419Z</time></trkpt><trkpt lat="43.5439047" lon="10.6202458"><ele>57.0</ele><time>2026-04-18T05:45:35.449Z</time></trkpt><trkpt lat="43.5440721" lon="10.6203369"><ele>57.0</ele><time>2026-04-18T05:45:36.449Z</time></trkpt><trkpt lat="43.5442362" lon="10.6204425"><ele>56.66666666666667</ele><time>2026-04-18T05:45:37.426Z</time></trkpt><trkpt lat="43.5443997" lon="10.620552"><ele>56.333333333333336</ele><time>2026-04-18T05:45:38.42Z</time></trkpt><trkpt lat="43.5445634" lon="10.6206681"><ele>56.0</ele><time>2026-04-18T05:45:39.417Z</time></trkpt><trkpt lat="43.5447249" lon="10.6207796"><ele>55.333333333333336</ele><time>2026-04-18T05:45:40.423Z</time></trkpt><trkpt lat="43.5448888" lon="10.6208928"><ele>54.66666666666667</ele><time>2026-04-18T05:45:41.452Z</time></trkpt><trkpt lat="43.5450505" lon="10.6210205"><ele>54.0</ele><time>2026-04-18T05:45:42.418Z</time></trkpt><trkpt lat="43.5452042" lon="10.6211541"><ele>53.33333333333333</ele><time>2026-04-18T05:45:43.323Z</time></trkpt><trkpt lat="43.5453575" lon="10.6212971"><ele>52.666666666666664</ele><time>2026-04-18T05:45:44.435Z</time></trkpt><trkpt lat="43.5455078" lon="10.6214432"><ele>52.0</ele><time>2026-04-18T05:45:45.448Z</time></trkpt><trkpt lat="43.5456561" lon="10.6215895"><ele>52.0</ele><time>2026-04-18T05:45:46.442Z</time></trkpt><trkpt lat="43.545802" lon="10.621736"><ele>52.0</ele><time>2026-04-18T05:45:47.418Z</time></trkpt><trkpt lat="43.5459529" lon="10.6218801"><ele>52.0</ele><time>2026-04-18T05:45:48.416Z</time></trkpt><trkpt lat="43.546106" lon="10.6220103"><ele>51.666666666666664</ele><time>2026-04-18T05:45:49.374Z</time></trkpt><trkpt lat="43.5462649" lon="10.6221179"><ele>51.33333333333333</ele><time>2026-04-18T05:45:50.326Z</time></trkpt><trkpt lat="43.5464303" lon="10.6222193"><ele>51.0</ele><time>2026-04-18T05:45:51.321Z</time></trkpt><trkpt lat="43.5465985" lon="10.6223092"><ele>51.0</ele><time>2026-04-18T05:45:52.319Z</time></trkpt><trkpt lat="43.5467693" lon="10.6223866"><ele>51.0</ele><time>2026-04-18T05:45:53.435Z</time></trkpt><trkpt lat="43.5469389" lon="10.6224567"><ele>51.0</ele><time>2026-04-18T05:45:54.421Z</time></trkpt><trkpt lat="43.5471103" lon="10.6225112"><ele>54.0</ele><time>2026-04-18T05:45:55.448Z</time></trkpt><trkpt lat="43.5472854" lon="10.6225617"><ele>57.0</ele><time>2026-04-18T05:45:56.445Z</time></trkpt><trkpt lat="43.5474593" lon="10.622613"><ele>60.0</ele><time>2026-04-18T05:45:57.444Z</time></trkpt><trkpt lat="43.547629" lon="10.6226796"><ele>60.0</ele><time>2026-04-18T05:45:58.418Z</time></trkpt><trkpt lat="43.5477898" lon="10.6227584"><ele>60.0</ele><time>2026-04-18T05:45:59.323Z</time></trkpt><trkpt lat="43.5479439" lon="10.622843"><ele>60.0</ele><time>2026-04-18T05:46:00.326Z</time></trkpt><trkpt lat="43.5480924" lon="10.6229229"><ele>59.0</ele><time>2026-04-18T05:46:01.322Z</time></trkpt><trkpt lat="43.5482349" lon="10.6230193"><ele>58.0</ele><time>2026-04-18T05:46:02.318Z</time></trkpt><trkpt lat="43.5483626" lon="10.6231412"><ele>57.0</ele><time>2026-04-18T05:46:03.324Z</time></trkpt><trkpt lat="43.5484736" lon="10.6232983"><ele>57.0</ele><time>2026-04-18T05:46:04.325Z</time></trkpt><trkpt lat="43.5485602" lon="10.6234806"><ele>57.0</ele><time>2026-04-18T05:46:05.321Z</time></trkpt><trkpt lat="43.5486325" lon="10.6236754"><ele>57.0</ele><time>2026-04-18T05:46:06.421Z</time></trkpt><trkpt lat="43.5486985" lon="10.6238802"><ele>59.66666666666667</ele><time>2026-04-18T05:46:07.411Z</time></trkpt><trkpt lat="43.5487622" lon="10.6240858"><ele>62.333333333333336</ele><time>2026-04-18T05:46:08.353Z</time></trkpt><trkpt lat="43.5488316" lon="10.6242753"><ele>65.0</ele><time>2026-04-18T05:46:09.447Z</time></trkpt><trkpt lat="43.5489154" lon="10.6244511"><ele>62.333333333333336</ele><time>2026-04-18T05:46:10.411Z</time></trkpt><trkpt lat="43.5490178" lon="10.6246174"><ele>59.66666666666667</ele><time>2026-04-18T05:46:11.417Z</time></trkpt><trkpt lat="43.5491327" lon="10.6247783"><ele>57.0</ele><time>2026-04-18T05:46:12.435Z</time></trkpt><trkpt lat="43.5492545" lon="10.6249362"><ele>57.0</ele><time>2026-04-18T05:46:13.434Z</time></trkpt><trkpt lat="43.5493726" lon="10.6250843"><ele>57.0</ele><time>2026-04-18T05:46:14.417Z</time></trkpt><trkpt lat="43.5494887" lon="10.6252277"><ele>57.0</ele><time>2026-04-18T05:46:15.414Z</time></trkpt><trkpt lat="43.5496083" lon="10.6253461"><ele>55.5</ele><time>2026-04-18T05:46:16.321Z</time></trkpt><trkpt lat="43.5497417" lon="10.6254405"><ele>54.0</ele><time>2026-04-18T05:46:17.442Z</time></trkpt><trkpt lat="43.5500533" lon="10.6255625"><ele>54.0</ele><time>2026-04-18T05:46:19.433Z</time></trkpt><trkpt lat="43.5502203" lon="10.6256109"><ele>54.0</ele><time>2026-04-18T05:46:20.426Z</time></trkpt><trkpt lat="43.5505631" lon="10.6257004"><ele>53.66666666666667</ele><time>2026-04-18T05:46:22.318Z</time></trkpt><trkpt lat="43.5507315" lon="10.6257423"><ele>53.333333333333336</ele><time>2026-04-18T05:46:23.33Z</time></trkpt><trkpt lat="43.5508984" lon="10.6257637"><ele>53.0</ele><time>2026-04-18T05:46:24.326Z</time></trkpt><trkpt lat="43.551068" lon="10.6257644"><ele>52.333333333333336</ele><time>2026-04-18T05:46:25.321Z</time></trkpt><trkpt lat="43.5512358" lon="10.625746"><ele>51.66666666666667</ele><time>2026-04-18T05:46:26.317Z</time></trkpt><trkpt lat="43.5514042" lon="10.625724"><ele>51.0</ele><time>2026-04-18T05:46:27.323Z</time></trkpt><trkpt lat="43.551572" lon="10.6257024"><ele>51.0</ele><time>2026-04-18T05:46:28.328Z</time></trkpt><trkpt lat="43.551737" lon="10.6256776"><ele>51.0</ele><time>2026-04-18T05:46:29.326Z</time></trkpt><trkpt lat="43.5518887" lon="10.6256738"><ele>51.0</ele><time>2026-04-18T05:46:30.442Z</time></trkpt><trkpt lat="43.5520413" lon="10.6256951"><ele>52.0</ele><time>2026-04-18T05:46:31.424Z</time></trkpt><trkpt lat="43.5521914" lon="10.6257508"><ele>53.0</ele><time>2026-04-18T05:46:32.327Z</time></trkpt><trkpt lat="43.5523319" lon="10.6258288"><ele>54.0</ele><time>2026-04-18T05:46:33.324Z</time></trkpt><trkpt lat="43.5524703" lon="10.625928"><ele>54.0</ele><time>2026-04-18T05:46:34.43Z</time></trkpt><trkpt lat="43.5526033" lon="10.626028"><ele>54.0</ele><time>2026-04-18T05:46:35.427Z</time></trkpt><trkpt lat="43.5527305" lon="10.6261388"><ele>54.0</ele><time>2026-04-18T05:46:36.438Z</time></trkpt><trkpt lat="43.5528475" lon="10.6262599"><ele>54.0</ele><time>2026-04-18T05:46:37.45Z</time></trkpt><trkpt lat="43.55296" lon="10.6263846"><ele>54.0</ele><time>2026-04-18T05:46:38.411Z</time></trkpt><trkpt lat="43.5530713" lon="10.6265108"><ele>54.0</ele><time>2026-04-18T05:46:39.41Z</time></trkpt><trkpt lat="43.5531836" lon="10.6266295"><ele>54.0</ele><time>2026-04-18T05:46:40.432Z</time></trkpt><trkpt lat="43.5533014" lon="10.6267268"><ele>54.0</ele><time>2026-04-18T05:46:41.445Z</time></trkpt><trkpt lat="43.5534256" lon="10.6268132"><ele>54.0</ele><time>2026-04-18T05:46:42.446Z</time></trkpt><trkpt lat="43.5535507" lon="10.6268732"><ele>54.0</ele><time>2026-04-18T05:46:43.443Z</time></trkpt><trkpt lat="43.5536829" lon="10.6268945"><ele>54.0</ele><time>2026-04-18T05:46:44.388Z</time></trkpt><trkpt lat="43.5538103" lon="10.6269119"><ele>54.0</ele><time>2026-04-18T05:46:45.447Z</time></trkpt><trkpt lat="43.5539363" lon="10.6269333"><ele>51.75</ele><time>2026-04-18T05:46:46.441Z</time></trkpt><trkpt lat="43.55406" lon="10.6269973"><ele>49.5</ele><time>2026-04-18T05:46:47.442Z</time></trkpt><trkpt lat="43.5541794" lon="10.6270789"><ele>47.25</ele><time>2026-04-18T05:46:48.437Z</time></trkpt><trkpt lat="43.5542927" lon="10.627147"><ele>45.0</ele><time>2026-04-18T05:46:49.443Z</time></trkpt><trkpt lat="43.5544141" lon="10.6271983"><ele>45.0</ele><time>2026-04-18T05:46:50.443Z</time></trkpt><trkpt lat="43.5545192" lon="10.6272111"><ele>45.0</ele><time>2026-04-18T05:46:51.438Z</time></trkpt><trkpt lat="43.554613" lon="10.6272149"><ele>45.0</ele><time>2026-04-18T05:46:52.444Z</time></trkpt><trkpt lat="43.5546965" lon="10.6272087"><ele>45.0</ele><time>2026-04-18T05:46:53.412Z</time></trkpt><trkpt lat="43.5548079" lon="10.6272104"><ele>45.0</ele><time>2026-04-18T05:46:55.337Z</time></trkpt><trkpt lat="43.5548474" lon="10.6273016"><ele>44.666666666666664</ele><time>2026-04-18T05:46:57.412Z</time></trkpt><trkpt lat="43.5547821" lon="10.6274532"><ele>44.33333333333333</ele><time>2026-04-18T05:46:59.432Z</time></trkpt><trkpt lat="43.5546306" lon="10.6276832"><ele>44.0</ele><time>2026-04-18T05:47:01.322Z</time></trkpt><trkpt lat="43.5545441" lon="10.6278167"><ele>43.800000000000004</ele><time>2026-04-18T05:47:02.415Z</time></trkpt><trkpt lat="43.5544572" lon="10.6279415"><ele>43.6</ele><time>2026-04-18T05:47:03.321Z</time></trkpt><trkpt lat="43.5543727" lon="10.6280509"><ele>43.4</ele><time>2026-04-18T05:47:04.43Z</time></trkpt><trkpt lat="43.5542882" lon="10.6281373"><ele>43.2</ele><time>2026-04-18T05:47:05.417Z</time></trkpt><trkpt lat="43.5541989" lon="10.6281809"><ele>43.0</ele><time>2026-04-18T05:47:06.323Z</time></trkpt><trkpt lat="43.5541242" lon="10.6282027"><ele>43.0</ele><time>2026-04-18T05:47:07.321Z</time></trkpt><trkpt lat="43.5540525" lon="10.6282345"><ele>43.0</ele><time>2026-04-18T05:47:08.437Z</time></trkpt><trkpt lat="43.5539831" lon="10.6282859"><ele>43.0</ele><time>2026-04-18T05:47:09.426Z</time></trkpt><trkpt lat="43.553923" lon="10.6283636"><ele>43.0</ele><time>2026-04-18T05:47:10.409Z</time></trkpt><trkpt lat="43.5538834" lon="10.6284723"><ele>43.0</ele><time>2026-04-18T05:47:11.437Z</time></trkpt><trkpt lat="43.5538482" lon="10.6286227"><ele>43.0</ele><time>2026-04-18T05:47:12.434Z</time></trkpt><trkpt lat="43.5538149" lon="10.6287777"><ele>43.0</ele><time>2026-04-18T05:47:13.44Z</time></trkpt><trkpt lat="43.5537814" lon="10.6289457"><ele>43.0</ele><time>2026-04-18T05:47:14.415Z</time></trkpt><trkpt lat="43.5537481" lon="10.6291264"><ele>43.0</ele><time>2026-04-18T05:47:15.435Z</time></trkpt><trkpt lat="43.5537137" lon="10.6293126"><ele>43.0</ele><time>2026-04-18T05:47:16.42Z</time></trkpt><trkpt lat="43.5536823" lon="10.6294998"><ele>43.75</ele><time>2026-04-18T05:47:17.413Z</time></trkpt><trkpt lat="43.5536541" lon="10.6296755"><ele>44.5</ele><time>2026-04-18T05:47:18.415Z</time></trkpt><trkpt lat="43.5536315" lon="10.6298523"><ele>45.25</ele><time>2026-04-18T05:47:19.434Z</time></trkpt><trkpt lat="43.5536119" lon="10.6300319"><ele>46.0</ele><time>2026-04-18T05:47:20.414Z</time></trkpt><trkpt lat="43.5535887" lon="10.6302141"><ele>45.75</ele><time>2026-04-18T05:47:21.349Z</time></trkpt><trkpt lat="43.5535662" lon="10.6303909"><ele>45.5</ele><time>2026-04-18T05:47:22.322Z</time></trkpt><trkpt lat="43.5535448" lon="10.6305696"><ele>45.25</ele><time>2026-04-18T05:47:23.424Z</time></trkpt><trkpt lat="43.5535254" lon="10.6307492"><ele>45.0</ele><time>2026-04-18T05:47:24.432Z</time></trkpt><trkpt lat="43.5535027" lon="10.6309268"><ele>45.333333333333336</ele><time>2026-04-18T05:47:25.446Z</time></trkpt><trkpt lat="43.5534502" lon="10.6312864"><ele>45.66666666666667</ele><time>2026-04-18T05:47:27.414Z</time></trkpt><trkpt lat="43.5534218" lon="10.6314652"><ele>46.0</ele><time>2026-04-18T05:47:28.442Z</time></trkpt><trkpt lat="43.5533922" lon="10.6316398"><ele>46.0</ele><time>2026-04-18T05:47:29.437Z</time></trkpt><trkpt lat="43.553357" lon="10.6318144"><ele>46.0</ele><time>2026-04-18T05:47:30.417Z</time></trkpt><trkpt lat="43.5533151" lon="10.6319852"><ele>46.0</ele><time>2026-04-18T05:47:31.438Z</time></trkpt><trkpt lat="43.5532291" lon="10.632294"><ele>46.0</ele><time>2026-04-18T05:47:33.383Z</time></trkpt><trkpt lat="43.5531872" lon="10.6324474"><ele>46.0</ele><time>2026-04-18T05:47:34.419Z</time></trkpt><trkpt lat="43.5531495" lon="10.6325815"><ele>46.0</ele><time>2026-04-18T05:47:35.402Z</time></trkpt><trkpt lat="43.5531202" lon="10.6326987"><ele>46.0</ele><time>2026-04-18T05:47:36.424Z</time></trkpt><trkpt lat="43.5530736" lon="10.6329111"><ele>46.8</ele><time>2026-04-18T05:47:38.427Z</time></trkpt><trkpt lat="43.5530275" lon="10.6330748"><ele>47.599999999999994</ele><time>2026-04-18T05:47:40.375Z</time></trkpt><trkpt lat="43.5529156" lon="10.6331452"><ele>48.4</ele><time>2026-04-18T05:47:42.408Z</time></trkpt><trkpt lat="43.5528457" lon="10.6331329"><ele>49.2</ele><time>2026-04-18T05:47:43.325Z</time></trkpt><trkpt lat="43.55277" lon="10.6330989"><ele>50.0</ele><time>2026-04-18T05:47:44.436Z</time></trkpt><trkpt lat="43.5526865" lon="10.6330452"><ele>49.25</ele><time>2026-04-18T05:47:45.437Z</time></trkpt><trkpt lat="43.552592" lon="10.6329898"><ele>48.5</ele><time>2026-04-18T05:47:46.439Z</time></trkpt><trkpt lat="43.5524899" lon="10.6329237"><ele>47.75</ele><time>2026-04-18T05:47:47.433Z</time></trkpt><trkpt lat="43.5523805" lon="10.6328463"><ele>47.0</ele><time>2026-04-18T05:47:48.422Z</time></trkpt><trkpt lat="43.5522712" lon="10.6327713"><ele>47.0</ele><time>2026-04-18T05:47:49.443Z</time></trkpt><trkpt lat="43.5521508" lon="10.632685"><ele>47.0</ele><time>2026-04-18T05:47:50.43Z</time></trkpt><trkpt lat="43.5520341" lon="10.6325866"><ele>47.0</ele><time>2026-04-18T05:47:51.419Z</time></trkpt><trkpt lat="43.5519178" lon="10.6324689"><ele>47.0</ele><time>2026-04-18T05:47:52.422Z</time></trkpt><trkpt lat="43.5518014" lon="10.6323399"><ele>47.25</ele><time>2026-04-18T05:47:53.421Z</time></trkpt><trkpt lat="43.5516885" lon="10.6322067"><ele>47.5</ele><time>2026-04-18T05:47:54.422Z</time></trkpt><trkpt lat="43.5515749" lon="10.6320895"><ele>47.75</ele><time>2026-04-18T05:47:55.415Z</time></trkpt><trkpt lat="43.5514612" lon="10.631984"><ele>48.0</ele><time>2026-04-18T05:47:56.424Z</time></trkpt><trkpt lat="43.5512096" lon="10.631829"><ele>48.5</ele><time>2026-04-18T05:47:58.419Z</time></trkpt><trkpt lat="43.5510732" lon="10.6317795"><ele>49.0</ele><time>2026-04-18T05:47:59.428Z</time></trkpt><trkpt lat="43.5509356" lon="10.6317467"><ele>49.5</ele><time>2026-04-18T05:48:00.33Z</time></trkpt><trkpt lat="43.5507963" lon="10.6317299"><ele>50.0</ele><time>2026-04-18T05:48:01.427Z</time></trkpt><trkpt lat="43.5506602" lon="10.6317335"><ele>50.0</ele><time>2026-04-18T05:48:02.442Z</time></trkpt><trkpt lat="43.5505255" lon="10.6317461"><ele>50.0</ele><time>2026-04-18T05:48:03.444Z</time></trkpt><trkpt lat="43.5503864" lon="10.6317649"><ele>50.0</ele><time>2026-04-18T05:48:04.452Z</time></trkpt><trkpt lat="43.550247" lon="10.631781"><ele>50.0</ele><time>2026-04-18T05:48:05.441Z</time></trkpt><trkpt lat="43.5501052" lon="10.6318011"><ele>50.5</ele><time>2026-04-18T05:48:06.413Z</time></trkpt><trkpt lat="43.5499629" lon="10.6318171"><ele>51.0</ele><time>2026-04-18T05:48:07.432Z</time></trkpt><trkpt lat="43.5498154" lon="10.6318311"><ele>51.5</ele><time>2026-04-18T05:48:08.4Z</time></trkpt><trkpt lat="43.549666" lon="10.6318455"><ele>52.0</ele><time>2026-04-18T05:48:09.423Z</time></trkpt><trkpt lat="43.5495201" lon="10.6318666"><ele>52.25</ele><time>2026-04-18T05:48:10.417Z</time></trkpt><trkpt lat="43.5493801" lon="10.6318966"><ele>52.5</ele><time>2026-04-18T05:48:11.413Z</time></trkpt><trkpt lat="43.5492419" lon="10.6319521"><ele>52.75</ele><time>2026-04-18T05:48:12.443Z</time></trkpt><trkpt lat="43.549106" lon="10.6320378"><ele>53.0</ele><time>2026-04-18T05:48:13.431Z</time></trkpt><trkpt lat="43.5488242" lon="10.6322516"><ele>52.66666666666667</ele><time>2026-04-18T05:48:15.319Z</time></trkpt><trkpt lat="43.5486809" lon="10.6323647"><ele>52.33333333333333</ele><time>2026-04-18T05:48:16.418Z</time></trkpt><trkpt lat="43.5485385" lon="10.6324793"><ele>52.0</ele><time>2026-04-18T05:48:17.412Z</time></trkpt><trkpt lat="43.5483951" lon="10.63259"><ele>52.0</ele><time>2026-04-18T05:48:18.451Z</time></trkpt><trkpt lat="43.5482528" lon="10.6327014"><ele>52.0</ele><time>2026-04-18T05:48:19.436Z</time></trkpt><trkpt lat="43.5481104" lon="10.6328085"><ele>52.0</ele><time>2026-04-18T05:48:20.42Z</time></trkpt><trkpt lat="43.5479698" lon="10.6329144"><ele>53.0</ele><time>2026-04-18T05:48:21.433Z</time></trkpt><trkpt lat="43.5478313" lon="10.6330248"><ele>54.0</ele><time>2026-04-18T05:48:22.447Z</time></trkpt><trkpt lat="43.5476943" lon="10.6331305"><ele>55.0</ele><time>2026-04-18T05:48:23.444Z</time></trkpt><trkpt lat="43.5475542" lon="10.633229"><ele>55.0</ele><time>2026-04-18T05:48:24.451Z</time></trkpt><trkpt lat="43.5474115" lon="10.6333195"><ele>55.0</ele><time>2026-04-18T05:48:25.423Z</time></trkpt><trkpt lat="43.5472698" lon="10.6334177"><ele>55.0</ele><time>2026-04-18T05:48:26.438Z</time></trkpt><trkpt lat="43.5471322" lon="10.633517"><ele>55.0</ele><time>2026-04-18T05:48:27.44Z</time></trkpt><trkpt lat="43.5469974" lon="10.6336261"><ele>55.0</ele><time>2026-04-18T05:48:28.429Z</time></trkpt><trkpt lat="43.5468694" lon="10.6337505"><ele>55.0</ele><time>2026-04-18T05:48:29.437Z</time></trkpt><trkpt lat="43.5467485" lon="10.6338946"><ele>55.0</ele><time>2026-04-18T05:48:30.44Z</time></trkpt><trkpt lat="43.546633" lon="10.6340482"><ele>55.0</ele><time>2026-04-18T05:48:31.432Z</time></trkpt><trkpt lat="43.5465178" lon="10.6341999"><ele>55.0</ele><time>2026-04-18T05:48:32.418Z</time></trkpt><trkpt lat="43.5464034" lon="10.634349"><ele>54.33333333333333</ele><time>2026-04-18T05:48:33.421Z</time></trkpt><trkpt lat="43.5462896" lon="10.6345023"><ele>53.66666666666667</ele><time>2026-04-18T05:48:34.437Z</time></trkpt><trkpt lat="43.5461735" lon="10.634654"><ele>53.0</ele><time>2026-04-18T05:48:35.442Z</time></trkpt><trkpt lat="43.5460581" lon="10.6348071"><ele>53.0</ele><time>2026-04-18T05:48:36.446Z</time></trkpt><trkpt lat="43.5459423" lon="10.634956"><ele>53.0</ele><time>2026-04-18T05:48:37.449Z</time></trkpt><trkpt lat="43.5458262" lon="10.6351031"><ele>53.0</ele><time>2026-04-18T05:48:38.416Z</time></trkpt><trkpt lat="43.5456979" lon="10.6352407"><ele>54.333333333333336</ele><time>2026-04-18T05:48:39.416Z</time></trkpt><trkpt lat="43.5455611" lon="10.6353597"><ele>55.66666666666667</ele><time>2026-04-18T05:48:40.442Z</time></trkpt><trkpt lat="43.5454166" lon="10.6354555"><ele>57.0</ele><time>2026-04-18T05:48:41.443Z</time></trkpt><trkpt lat="43.5452615" lon="10.6355167"><ele>57.75</ele><time>2026-04-18T05:48:42.438Z</time></trkpt><trkpt lat="43.5451121" lon="10.6355433"><ele>58.5</ele><time>2026-04-18T05:48:43.416Z</time></trkpt><trkpt lat="43.5449667" lon="10.6355556"><ele>59.25</ele><time>2026-04-18T05:48:44.421Z</time></trkpt><trkpt lat="43.544822" lon="10.6355793"><ele>60.0</ele><time>2026-04-18T05:48:45.44Z</time></trkpt><trkpt lat="43.5446801" lon="10.6356177"><ele>58.0</ele><time>2026-04-18T05:48:46.416Z</time></trkpt><trkpt lat="43.5445424" lon="10.6356894"><ele>56.0</ele><time>2026-04-18T05:48:47.44Z</time></trkpt><trkpt lat="43.5442822" lon="10.6359222"><ele>56.0</ele><time>2026-04-18T05:48:49.324Z</time></trkpt><trkpt lat="43.5441568" lon="10.6360581"><ele>56.0</ele><time>2026-04-18T05:48:50.326Z</time></trkpt><trkpt lat="43.5440272" lon="10.6361958"><ele>56.0</ele><time>2026-04-18T05:48:51.429Z</time></trkpt><trkpt lat="43.5438989" lon="10.6363382"><ele>56.333333333333336</ele><time>2026-04-18T05:48:52.431Z</time></trkpt><trkpt lat="43.5437712" lon="10.6364838"><ele>56.66666666666667</ele><time>2026-04-18T05:48:53.416Z</time></trkpt><trkpt lat="43.5436465" lon="10.6366357"><ele>57.0</ele><time>2026-04-18T05:48:54.443Z</time></trkpt><trkpt lat="43.5435187" lon="10.6367841"><ele>57.0</ele><time>2026-04-18T05:48:55.438Z</time></trkpt><trkpt lat="43.5433937" lon="10.6369335"><ele>57.0</ele><time>2026-04-18T05:48:56.44Z</time></trkpt><trkpt lat="43.5432698" lon="10.6370849"><ele>57.0</ele><time>2026-04-18T05:48:57.449Z</time></trkpt><trkpt lat="43.5431472" lon="10.6372353"><ele>56.66666666666667</ele><time>2026-04-18T05:48:58.445Z</time></trkpt><trkpt lat="43.5430227" lon="10.6373843"><ele>56.333333333333336</ele><time>2026-04-18T05:48:59.413Z</time></trkpt><trkpt lat="43.5428996" lon="10.6375313"><ele>56.0</ele><time>2026-04-18T05:49:00.421Z</time></trkpt><trkpt lat="43.5427737" lon="10.6376746"><ele>57.66666666666667</ele><time>2026-04-18T05:49:01.42Z</time></trkpt><trkpt lat="43.5426471" lon="10.6378216"><ele>59.33333333333333</ele><time>2026-04-18T05:49:02.417Z</time></trkpt><trkpt lat="43.5425213" lon="10.6379683"><ele>61.0</ele><time>2026-04-18T05:49:03.442Z</time></trkpt><trkpt lat="43.5423966" lon="10.638107"><ele>61.0</ele><time>2026-04-18T05:49:04.445Z</time></trkpt><trkpt lat="43.5421461" lon="10.6383983"><ele>61.0</ele><time>2026-04-18T05:49:06.431Z</time></trkpt><trkpt lat="43.5420259" lon="10.6385336"><ele>60.0</ele><time>2026-04-18T05:49:07.441Z</time></trkpt><trkpt lat="43.5419052" lon="10.6386661"><ele>59.0</ele><time>2026-04-18T05:49:08.45Z</time></trkpt><trkpt lat="43.541785" lon="10.6387995"><ele>58.0</ele><time>2026-04-18T05:49:09.449Z</time></trkpt><trkpt lat="43.5416683" lon="10.6389351"><ele>58.0</ele><time>2026-04-18T05:49:10.412Z</time></trkpt><trkpt lat="43.5415506" lon="10.639077"><ele>58.0</ele><time>2026-04-18T05:49:11.435Z</time></trkpt><trkpt lat="43.5414347" lon="10.6392221"><ele>58.0</ele><time>2026-04-18T05:49:12.443Z</time></trkpt><trkpt lat="43.5413179" lon="10.6393707"><ele>57.33333333333333</ele><time>2026-04-18T05:49:13.437Z</time></trkpt><trkpt lat="43.5412014" lon="10.6395261"><ele>56.66666666666667</ele><time>2026-04-18T05:49:14.436Z</time></trkpt><trkpt lat="43.5410964" lon="10.6396825"><ele>56.0</ele><time>2026-04-18T05:49:15.439Z</time></trkpt><trkpt lat="43.5410002" lon="10.639846"><ele>56.0</ele><time>2026-04-18T05:49:16.413Z</time></trkpt><trkpt lat="43.5409101" lon="10.6400134"><ele>56.0</ele><time>2026-04-18T05:49:17.437Z</time></trkpt><trkpt lat="43.5408226" lon="10.6401925"><ele>56.0</ele><time>2026-04-18T05:49:18.423Z</time></trkpt><trkpt lat="43.5407333" lon="10.6403749"><ele>56.333333333333336</ele><time>2026-04-18T05:49:19.401Z</time></trkpt><trkpt lat="43.5406405" lon="10.6405554"><ele>56.66666666666667</ele><time>2026-04-18T05:49:20.319Z</time></trkpt><trkpt lat="43.5405438" lon="10.6407414"><ele>57.0</ele><time>2026-04-18T05:49:21.328Z</time></trkpt><trkpt lat="43.5404462" lon="10.6409259"><ele>56.66666666666667</ele><time>2026-04-18T05:49:22.328Z</time></trkpt><trkpt lat="43.5403451" lon="10.6411096"><ele>56.333333333333336</ele><time>2026-04-18T05:49:23.326Z</time></trkpt><trkpt lat="43.5402437" lon="10.6412887"><ele>56.0</ele><time>2026-04-18T05:49:24.325Z</time></trkpt><trkpt lat="43.5401419" lon="10.6414623"><ele>56.66666666666667</ele><time>2026-04-18T05:49:25.321Z</time></trkpt><trkpt lat="43.5400362" lon="10.6416373"><ele>57.33333333333333</ele><time>2026-04-18T05:49:26.416Z</time></trkpt><trkpt lat="43.5399282" lon="10.6418001"><ele>58.0</ele><time>2026-04-18T05:49:27.44Z</time></trkpt><trkpt lat="43.5396987" lon="10.6421149"><ele>58.0</ele><time>2026-04-18T05:49:29.428Z</time></trkpt><trkpt lat="43.5394714" lon="10.642422"><ele>58.0</ele><time>2026-04-18T05:49:31.426Z</time></trkpt><trkpt lat="43.5393591" lon="10.6425751"><ele>58.0</ele><time>2026-04-18T05:49:32.426Z</time></trkpt><trkpt lat="43.5392502" lon="10.6427296"><ele>58.0</ele><time>2026-04-18T05:49:33.443Z</time></trkpt><trkpt lat="43.5391411" lon="10.6428841"><ele>58.0</ele><time>2026-04-18T05:49:34.439Z</time></trkpt><trkpt lat="43.539036" lon="10.6430379"><ele>62.666666666666664</ele><time>2026-04-18T05:49:35.431Z</time></trkpt><trkpt lat="43.5389292" lon="10.6431978"><ele>67.33333333333333</ele><time>2026-04-18T05:49:36.443Z</time></trkpt><trkpt lat="43.5388302" lon="10.6433614"><ele>72.0</ele><time>2026-04-18T05:49:37.451Z</time></trkpt><trkpt lat="43.5387433" lon="10.6435177"><ele>69.66666666666667</ele><time>2026-04-18T05:49:38.439Z</time></trkpt><trkpt lat="43.5386542" lon="10.6436884"><ele>67.33333333333334</ele><time>2026-04-18T05:49:39.44Z</time></trkpt><trkpt lat="43.5385678" lon="10.6438579"><ele>65.0</ele><time>2026-04-18T05:49:40.44Z</time></trkpt><trkpt lat="43.5384844" lon="10.6440301"><ele>65.0</ele><time>2026-04-18T05:49:41.437Z</time></trkpt><trkpt lat="43.5383997" lon="10.6442013"><ele>65.0</ele><time>2026-04-18T05:49:42.414Z</time></trkpt><trkpt lat="43.5383233" lon="10.6443728"><ele>65.0</ele><time>2026-04-18T05:49:43.437Z</time></trkpt><trkpt lat="43.5382474" lon="10.6445383"><ele>65.0</ele><time>2026-04-18T05:49:44.443Z</time></trkpt><trkpt lat="43.5381709" lon="10.6447094"><ele>66.75</ele><time>2026-04-18T05:49:45.431Z</time></trkpt><trkpt lat="43.5381002" lon="10.6448771"><ele>68.5</ele><time>2026-04-18T05:49:46.436Z</time></trkpt><trkpt lat="43.5380427" lon="10.6450391"><ele>70.25</ele><time>2026-04-18T05:49:47.418Z</time></trkpt><trkpt lat="43.5379944" lon="10.6452139"><ele>72.0</ele><time>2026-04-18T05:49:48.444Z</time></trkpt><trkpt lat="43.5379544" lon="10.6453829"><ele>72.83333333333333</ele><time>2026-04-18T05:49:49.447Z</time></trkpt><trkpt lat="43.5379239" lon="10.6455146"><ele>73.66666666666667</ele><time>2026-04-18T05:49:50.436Z</time></trkpt><trkpt lat="43.5378988" lon="10.6456214"><ele>74.5</ele><time>2026-04-18T05:49:51.441Z</time></trkpt><trkpt lat="43.5378749" lon="10.6457125"><ele>75.33333333333334</ele><time>2026-04-18T05:49:52.444Z</time></trkpt><trkpt lat="43.5378282" lon="10.6458548"><ele>76.16666666666667</ele><time>2026-04-18T05:49:54.444Z</time></trkpt><trkpt lat="43.5377928" lon="10.645935"><ele>77.0</ele><time>2026-04-18T05:49:56.325Z</time></trkpt><trkpt lat="43.5378596" lon="10.6458722"><ele>77.0</ele><time>2026-04-18T05:50:09.327Z</time></trkpt><trkpt lat="43.5378939" lon="10.6457558"><ele>77.0</ele><time>2026-04-18T05:50:11.324Z</time></trkpt><trkpt lat="43.5379297" lon="10.6455973"><ele>77.0</ele><time>2026-04-18T05:50:13.449Z</time></trkpt><trkpt lat="43.5379976" lon="10.6455316"><ele>77.0</ele><time>2026-04-18T05:50:15.454Z</time></trkpt><trkpt lat="43.5380644" lon="10.6456097"><ele>77.0</ele><time>2026-04-18T05:50:17.327Z</time></trkpt><trkpt lat="43.5381062" lon="10.6458009"><ele>77.0</ele><time>2026-04-18T05:50:19.46Z</time></trkpt><trkpt lat="43.5381239" lon="10.6459302"><ele>77.0</ele><time>2026-04-18T05:50:20.465Z</time></trkpt><trkpt lat="43.5381419" lon="10.6460558"><ele>77.0</ele><time>2026-04-18T05:50:21.429Z</time></trkpt><trkpt lat="43.538161" lon="10.6461808"><ele>77.0</ele><time>2026-04-18T05:50:22.33Z</time></trkpt><trkpt lat="43.5382103" lon="10.6462929"><ele>77.0</ele><time>2026-04-18T05:50:23.458Z</time></trkpt><trkpt lat="43.5383339" lon="10.6464883"><ele>76.6</ele><time>2026-04-18T05:50:25.457Z</time></trkpt><trkpt lat="43.5384071" lon="10.6465989"><ele>76.2</ele><time>2026-04-18T05:50:26.459Z</time></trkpt><trkpt lat="43.5384861" lon="10.6466929"><ele>75.8</ele><time>2026-04-18T05:50:27.449Z</time></trkpt><trkpt lat="43.5385605" lon="10.6467984"><ele>75.4</ele><time>2026-04-18T05:50:28.455Z</time></trkpt><trkpt lat="43.5386394" lon="10.6469148"><ele>75.0</ele><time>2026-04-18T05:50:29.449Z</time></trkpt><trkpt lat="43.5387237" lon="10.6470081"><ele>76.5</ele><time>2026-04-18T05:50:30.444Z</time></trkpt><trkpt lat="43.53882" lon="10.6471113"><ele>78.0</ele><time>2026-04-18T05:50:31.46Z</time></trkpt><trkpt lat="43.5389127" lon="10.6471862"><ele>79.5</ele><time>2026-04-18T05:50:32.455Z</time></trkpt><trkpt lat="43.5390136" lon="10.6472365"><ele>81.0</ele><time>2026-04-18T05:50:33.457Z</time></trkpt><trkpt lat="43.539158" lon="10.647294"><ele>81.0</ele><time>2026-04-18T05:50:34.459Z</time></trkpt><trkpt lat="43.5392731" lon="10.6473422"><ele>81.0</ele><time>2026-04-18T05:50:35.462Z</time></trkpt><trkpt lat="43.539391" lon="10.6473959"><ele>81.0</ele><time>2026-04-18T05:50:36.452Z</time></trkpt><trkpt lat="43.5394702" lon="10.6474905"><ele>81.0</ele><time>2026-04-18T05:50:37.43Z</time></trkpt><trkpt lat="43.5396205" lon="10.6476822"><ele>83.66666666666667</ele><time>2026-04-18T05:50:39.457Z</time></trkpt><trkpt lat="43.5396769" lon="10.6477762"><ele>86.33333333333334</ele><time>2026-04-18T05:50:40.464Z</time></trkpt><trkpt lat="43.5397038" lon="10.6478806"><ele>89.0</ele><time>2026-04-18T05:50:41.459Z</time></trkpt><trkpt lat="43.5397329" lon="10.6480006"><ele>91.66666666666667</ele><time>2026-04-18T05:50:42.456Z</time></trkpt><trkpt lat="43.5397555" lon="10.648123"><ele>94.33333333333334</ele><time>2026-04-18T05:50:43.441Z</time></trkpt><trkpt lat="43.5397859" lon="10.648248"><ele>97.0</ele><time>2026-04-18T05:50:44.457Z</time></trkpt><trkpt lat="43.5398185" lon="10.6483658"><ele>97.0</ele><time>2026-04-18T05:50:45.461Z</time></trkpt><trkpt lat="43.5398431" lon="10.6484745"><ele>97.0</ele><time>2026-04-18T05:50:46.451Z</time></trkpt><trkpt lat="43.5398727" lon="10.6485904"><ele>97.0</ele><time>2026-04-18T05:50:47.45Z</time></trkpt><trkpt lat="43.5399017" lon="10.6487119"><ele>97.0</ele><time>2026-04-18T05:50:48.429Z</time></trkpt><trkpt lat="43.5399307" lon="10.6488318"><ele>97.0</ele><time>2026-04-18T05:50:49.45Z</time></trkpt><trkpt lat="43.5399607" lon="10.6489609"><ele>97.0</ele><time>2026-04-18T05:50:50.466Z</time></trkpt><trkpt lat="43.5400084" lon="10.6490968"><ele>97.0</ele><time>2026-04-18T05:50:51.463Z</time></trkpt><trkpt lat="43.5400573" lon="10.6492277"><ele>97.0</ele><time>2026-04-18T05:50:52.401Z</time></trkpt><trkpt lat="43.5401189" lon="10.6493668"><ele>97.0</ele><time>2026-04-18T05:50:53.322Z</time></trkpt><trkpt lat="43.5401791" lon="10.6494946"><ele>97.0</ele><time>2026-04-18T05:50:54.321Z</time></trkpt><trkpt lat="43.5402345" lon="10.6496162"><ele>97.39999999999999</ele><time>2026-04-18T05:50:55.322Z</time></trkpt><trkpt lat="43.5402666" lon="10.6497398"><ele>97.8</ele><time>2026-04-18T05:50:56.326Z</time></trkpt><trkpt lat="43.5403176" lon="10.6498929"><ele>98.2</ele><time>2026-04-18T05:50:57.318Z</time></trkpt><trkpt lat="43.5403663" lon="10.6500027"><ele>98.6</ele><time>2026-04-18T05:50:58.322Z</time></trkpt><trkpt lat="43.5404143" lon="10.6501261"><ele>99.0</ele><time>2026-04-18T05:50:59.326Z</time></trkpt><trkpt lat="43.5404459" lon="10.6502499"><ele>103.6</ele><time>2026-04-18T05:51:00.329Z</time></trkpt><trkpt lat="43.5405001" lon="10.6503351"><ele>108.2</ele><time>2026-04-18T05:51:01.32Z</time></trkpt><trkpt lat="43.5405495" lon="10.6504232"><ele>112.79999999999998</ele><time>2026-04-18T05:51:02.323Z</time></trkpt><trkpt lat="43.5405217" lon="10.6506479"><ele>117.39999999999999</ele><time>2026-04-18T05:51:04.32Z</time></trkpt><trkpt lat="43.5404962" lon="10.6507398"><ele>122.0</ele><time>2026-04-18T05:51:05.32Z</time></trkpt><trkpt lat="43.5404423" lon="10.6508561"><ele>120.19999999999999</ele><time>2026-04-18T05:51:06.321Z</time></trkpt><trkpt lat="43.5403522" lon="10.6508881"><ele>118.39999999999999</ele><time>2026-04-18T05:51:08.32Z</time></trkpt><trkpt lat="43.5402518" lon="10.6509485"><ele>116.60000000000001</ele><time>2026-04-18T05:51:10.324Z</time></trkpt><trkpt lat="43.5401117" lon="10.651"><ele>114.80000000000001</ele><time>2026-04-18T05:51:11.323Z</time></trkpt><trkpt lat="43.5400221" lon="10.6510149"><ele>113.0</ele><time>2026-04-18T05:51:12.322Z</time></trkpt><trkpt lat="43.5399401" lon="10.6509843"><ele>112.99999999999999</ele><time>2026-04-18T05:51:13.322Z</time></trkpt><trkpt lat="43.5398688" lon="10.6509578"><ele>113.0</ele><time>2026-04-18T05:51:14.322Z</time></trkpt><trkpt lat="43.5397938" lon="10.6508813"><ele>113.0</ele><time>2026-04-18T05:51:15.321Z</time></trkpt><trkpt lat="43.5397226" lon="10.6508425"><ele>113.0</ele><time>2026-04-18T05:51:16.322Z</time></trkpt><trkpt lat="43.5396488" lon="10.6508671"><ele>112.99999999999999</ele><time>2026-04-18T05:51:17.322Z</time></trkpt><trkpt lat="43.5395659" lon="10.65089"><ele>113.0</ele><time>2026-04-18T05:51:18.321Z</time></trkpt><trkpt lat="43.5394891" lon="10.6509068"><ele>114.16666666666666</ele><time>2026-04-18T05:51:19.321Z</time></trkpt><trkpt lat="43.5394076" lon="10.6509566"><ele>115.33333333333333</ele><time>2026-04-18T05:51:20.319Z</time></trkpt><trkpt lat="43.5393334" lon="10.6510189"><ele>116.5</ele><time>2026-04-18T05:51:21.318Z</time></trkpt><trkpt lat="43.5392722" lon="10.6510634"><ele>117.66666666666666</ele><time>2026-04-18T05:51:22.316Z</time></trkpt><trkpt lat="43.5392006" lon="10.6510718"><ele>118.83333333333333</ele><time>2026-04-18T05:51:23.331Z</time></trkpt><trkpt lat="43.5391371" lon="10.6511372"><ele>120.0</ele><time>2026-04-18T05:51:24.314Z</time></trkpt><trkpt lat="43.5390752" lon="10.6511732"><ele>122.16666666666667</ele><time>2026-04-18T05:51:25.318Z</time></trkpt><trkpt lat="43.5390904" lon="10.6512934"><ele>124.33333333333334</ele><time>2026-04-18T05:51:27.318Z</time></trkpt><trkpt lat="43.5391837" lon="10.6514262"><ele>126.5</ele><time>2026-04-18T05:51:29.321Z</time></trkpt><trkpt lat="43.5392412" lon="10.651493"><ele>128.66666666666669</ele><time>2026-04-18T05:51:30.322Z</time></trkpt><trkpt lat="43.5392821" lon="10.6515704"><ele>130.83333333333334</ele><time>2026-04-18T05:51:31.324Z</time></trkpt><trkpt lat="43.5392987" lon="10.6516616"><ele>133.0</ele><time>2026-04-18T05:51:32.322Z</time></trkpt><trkpt lat="43.5392566" lon="10.6518282"><ele>133.0</ele><time>2026-04-18T05:51:34.318Z</time></trkpt><trkpt lat="43.5391286" lon="10.6518389"><ele>133.0</ele><time>2026-04-18T05:51:36.326Z</time></trkpt><trkpt lat="43.5390129" lon="10.6517704"><ele>133.0</ele><time>2026-04-18T05:51:38.326Z</time></trkpt><trkpt lat="43.5389562" lon="10.6517204"><ele>133.0</ele><time>2026-04-18T05:51:39.32Z</time></trkpt><trkpt lat="43.5388799" lon="10.6516685"><ele>133.0</ele><time>2026-04-18T05:51:40.322Z</time></trkpt><trkpt lat="43.5388056" lon="10.6516197"><ele>133.0</ele><time>2026-04-18T05:51:41.321Z</time></trkpt><trkpt lat="43.5387231" lon="10.651544"><ele>133.0</ele><time>2026-04-18T05:51:42.319Z</time></trkpt><trkpt lat="43.5386402" lon="10.6514926"><ele>133.0</ele><time>2026-04-18T05:51:43.321Z</time></trkpt><trkpt lat="43.5385574" lon="10.6514369"><ele>133.0</ele><time>2026-04-18T05:51:44.321Z</time></trkpt><trkpt lat="43.5384669" lon="10.6513833"><ele>133.0</ele><time>2026-04-18T05:51:45.321Z</time></trkpt><trkpt lat="43.5383689" lon="10.651297"><ele>136.33333333333334</ele><time>2026-04-18T05:51:46.322Z</time></trkpt><trkpt lat="43.5382841" lon="10.6512337"><ele>139.66666666666669</ele><time>2026-04-18T05:51:47.321Z</time></trkpt><trkpt lat="43.538226" lon="10.6511551"><ele>143.0</ele><time>2026-04-18T05:51:48.331Z</time></trkpt><trkpt lat="43.538161" lon="10.6511556"><ele>146.33333333333334</ele><time>2026-04-18T05:51:49.325Z</time></trkpt><trkpt lat="43.5380854" lon="10.6511796"><ele>149.66666666666666</ele><time>2026-04-18T05:51:50.32Z</time></trkpt><trkpt lat="43.5380267" lon="10.6512767"><ele>153.0</ele><time>2026-04-18T05:51:51.318Z</time></trkpt><trkpt lat="43.5379695" lon="10.6513387"><ele>153.0</ele><time>2026-04-18T05:51:52.323Z</time></trkpt><trkpt lat="43.5378976" lon="10.6514131"><ele>153.0</ele><time>2026-04-18T05:51:54.38Z</time></trkpt><trkpt lat="43.5377469" lon="10.6515858"><ele>153.0</ele><time>2026-04-18T05:51:55.46Z</time></trkpt><trkpt lat="43.5376689" lon="10.6516629"><ele>153.0</ele><time>2026-04-18T05:51:56.468Z</time></trkpt><trkpt lat="43.5375734" lon="10.6517402"><ele>153.0</ele><time>2026-04-18T05:51:57.456Z</time></trkpt><trkpt lat="43.5374917" lon="10.6517553"><ele>153.0</ele><time>2026-04-18T05:51:58.452Z</time></trkpt><trkpt lat="43.5374187" lon="10.6517458"><ele>153.0</ele><time>2026-04-18T05:51:59.446Z</time></trkpt><trkpt lat="43.5372162" lon="10.6516618"><ele>153.0</ele><time>2026-04-18T05:52:01.322Z</time></trkpt><trkpt lat="43.5371491" lon="10.6516063"><ele>153.0</ele><time>2026-04-18T05:52:02.446Z</time></trkpt><trkpt lat="43.5370615" lon="10.6515365"><ele>152.6</ele><time>2026-04-18T05:52:03.453Z</time></trkpt><trkpt lat="43.5369816" lon="10.6514707"><ele>152.20000000000002</ele><time>2026-04-18T05:52:04.468Z</time></trkpt><trkpt lat="43.5368271" lon="10.6513267"><ele>151.8</ele><time>2026-04-18T05:52:06.322Z</time></trkpt><trkpt lat="43.5367587" lon="10.6512598"><ele>151.4</ele><time>2026-04-18T05:52:07.319Z</time></trkpt><trkpt lat="43.5366882" lon="10.6512071"><ele>151.0</ele><time>2026-04-18T05:52:08.319Z</time></trkpt><trkpt lat="43.5366155" lon="10.6511799"><ele>151.0</ele><time>2026-04-18T05:52:09.319Z</time></trkpt><trkpt lat="43.5365506" lon="10.6511724"><ele>151.0</ele><time>2026-04-18T05:52:10.322Z</time></trkpt><trkpt lat="43.536486" lon="10.6511838"><ele>151.0</ele><time>2026-04-18T05:52:11.325Z</time></trkpt><trkpt lat="43.5363402" lon="10.6511905"><ele>151.0</ele><time>2026-04-18T05:52:13.449Z</time></trkpt><trkpt lat="43.536198" lon="10.6512362"><ele>151.0</ele><time>2026-04-18T05:52:14.428Z</time></trkpt><trkpt lat="43.5360769" lon="10.6512545"><ele>148.75</ele><time>2026-04-18T05:52:15.426Z</time></trkpt><trkpt lat="43.5359528" lon="10.6512529"><ele>146.5</ele><time>2026-04-18T05:52:16.438Z</time></trkpt><trkpt lat="43.535825" lon="10.6512562"><ele>144.25</ele><time>2026-04-18T05:52:17.438Z</time></trkpt><trkpt lat="43.5357013" lon="10.6512633"><ele>142.0</ele><time>2026-04-18T05:52:18.441Z</time></trkpt><trkpt lat="43.5355861" lon="10.6512625"><ele>142.0</ele><time>2026-04-18T05:52:19.442Z</time></trkpt><trkpt lat="43.5353926" lon="10.6512829"><ele>142.0</ele><time>2026-04-18T05:52:21.424Z</time></trkpt><trkpt lat="43.5352987" lon="10.6513055"><ele>142.0</ele><time>2026-04-18T05:52:22.435Z</time></trkpt><trkpt lat="43.5352028" lon="10.6513363"><ele>142.0</ele><time>2026-04-18T05:52:23.416Z</time></trkpt><trkpt lat="43.5351074" lon="10.6514222"><ele>139.16666666666669</ele><time>2026-04-18T05:52:24.416Z</time></trkpt><trkpt lat="43.5350214" lon="10.6515001"><ele>136.33333333333334</ele><time>2026-04-18T05:52:25.44Z</time></trkpt><trkpt lat="43.5349451" lon="10.651576"><ele>133.5</ele><time>2026-04-18T05:52:26.421Z</time></trkpt><trkpt lat="43.5348802" lon="10.6516461"><ele>130.66666666666666</ele><time>2026-04-18T05:52:27.439Z</time></trkpt><trkpt lat="43.5348273" lon="10.6517267"><ele>127.83333333333333</ele><time>2026-04-18T05:52:28.438Z</time></trkpt><trkpt lat="43.5347918" lon="10.6518273"><ele>125.0</ele><time>2026-04-18T05:52:29.424Z</time></trkpt><trkpt lat="43.5347746" lon="10.6519357"><ele>124.16666666666666</ele><time>2026-04-18T05:52:30.434Z</time></trkpt><trkpt lat="43.5347718" lon="10.65205"><ele>123.33333333333333</ele><time>2026-04-18T05:52:31.413Z</time></trkpt><trkpt lat="43.5347797" lon="10.6521649"><ele>122.5</ele><time>2026-04-18T05:52:32.411Z</time></trkpt><trkpt lat="43.5347795" lon="10.6522869"><ele>121.66666666666666</ele><time>2026-04-18T05:52:33.324Z</time></trkpt><trkpt lat="43.5347735" lon="10.6524142"><ele>120.83333333333333</ele><time>2026-04-18T05:52:34.325Z</time></trkpt><trkpt lat="43.5347859" lon="10.6525327"><ele>120.0</ele><time>2026-04-18T05:52:35.431Z</time></trkpt><trkpt lat="43.5347996" lon="10.6526667"><ele>120.0</ele><time>2026-04-18T05:52:36.442Z</time></trkpt><trkpt lat="43.5348349" lon="10.6527764"><ele>120.0</ele><time>2026-04-18T05:52:37.44Z</time></trkpt><trkpt lat="43.534874" lon="10.6529243"><ele>120.0</ele><time>2026-04-18T05:52:38.416Z</time></trkpt><trkpt lat="43.5349132" lon="10.6530379"><ele>120.0</ele><time>2026-04-18T05:52:39.415Z</time></trkpt><trkpt lat="43.5349497" lon="10.6531222"><ele>120.0</ele><time>2026-04-18T05:52:40.414Z</time></trkpt><trkpt lat="43.5349885" lon="10.6532321"><ele>118.2</ele><time>2026-04-18T05:52:41.439Z</time></trkpt><trkpt lat="43.5350215" lon="10.6533425"><ele>116.4</ele><time>2026-04-18T05:52:42.421Z</time></trkpt><trkpt lat="43.5350501" lon="10.6534544"><ele>114.6</ele><time>2026-04-18T05:52:43.421Z</time></trkpt><trkpt lat="43.5350711" lon="10.6535716"><ele>112.8</ele><time>2026-04-18T05:52:44.323Z</time></trkpt><trkpt lat="43.5350763" lon="10.6538084"><ele>111.0</ele><time>2026-04-18T05:52:46.32Z</time></trkpt><trkpt lat="43.5350691" lon="10.6539298"><ele>110.5</ele><time>2026-04-18T05:52:47.32Z</time></trkpt><trkpt lat="43.5350079" lon="10.6541678"><ele>110.0</ele><time>2026-04-18T05:52:49.442Z</time></trkpt><trkpt lat="43.5349577" lon="10.6542778"><ele>109.5</ele><time>2026-04-18T05:52:50.417Z</time></trkpt><trkpt lat="43.534906" lon="10.6544031"><ele>109.0</ele><time>2026-04-18T05:52:51.44Z</time></trkpt><trkpt lat="43.5348442" lon="10.6545192"><ele>109.0</ele><time>2026-04-18T05:52:52.426Z</time></trkpt><trkpt lat="43.5347736" lon="10.6546381"><ele>109.0</ele><time>2026-04-18T05:52:53.44Z</time></trkpt><trkpt lat="43.534693" lon="10.654749"><ele>109.0</ele><time>2026-04-18T05:52:54.429Z</time></trkpt><trkpt lat="43.5345953" lon="10.6548392"><ele>109.0</ele><time>2026-04-18T05:52:55.438Z</time></trkpt><trkpt lat="43.5344975" lon="10.654931"><ele>109.0</ele><time>2026-04-18T05:52:56.397Z</time></trkpt><trkpt lat="43.534392" lon="10.6550115"><ele>109.0</ele><time>2026-04-18T05:52:57.423Z</time></trkpt><trkpt lat="43.534297" lon="10.6550821"><ele>109.0</ele><time>2026-04-18T05:52:58.414Z</time></trkpt><trkpt lat="43.5342004" lon="10.6551558"><ele>109.0</ele><time>2026-04-18T05:52:59.427Z</time></trkpt><trkpt lat="43.5341088" lon="10.6552195"><ele>109.0</ele><time>2026-04-18T05:53:00.416Z</time></trkpt><trkpt lat="43.5340278" lon="10.6552997"><ele>109.6</ele><time>2026-04-18T05:53:01.445Z</time></trkpt><trkpt lat="43.5339593" lon="10.6553908"><ele>110.2</ele><time>2026-04-18T05:53:02.381Z</time></trkpt><trkpt lat="43.5339097" lon="10.6554915"><ele>110.79999999999998</ele><time>2026-04-18T05:53:03.443Z</time></trkpt><trkpt lat="43.5338532" lon="10.6556065"><ele>111.39999999999999</ele><time>2026-04-18T05:53:04.446Z</time></trkpt><trkpt lat="43.5338091" lon="10.6557347"><ele>112.0</ele><time>2026-04-18T05:53:05.442Z</time></trkpt><trkpt lat="43.5337731" lon="10.6558704"><ele>112.0</ele><time>2026-04-18T05:53:06.438Z</time></trkpt><trkpt lat="43.5337377" lon="10.6560091"><ele>112.0</ele><time>2026-04-18T05:53:07.319Z</time></trkpt><trkpt lat="43.533707" lon="10.6561539"><ele>112.0</ele><time>2026-04-18T05:53:08.324Z</time></trkpt><trkpt lat="43.5336569" lon="10.656335"><ele>112.0</ele><time>2026-04-18T05:53:09.443Z</time></trkpt><trkpt lat="43.5336162" lon="10.6564875"><ele>114.75</ele><time>2026-04-18T05:53:10.42Z</time></trkpt><trkpt lat="43.5335687" lon="10.6566314"><ele>117.5</ele><time>2026-04-18T05:53:11.425Z</time></trkpt><trkpt lat="43.5335193" lon="10.6567763"><ele>120.25</ele><time>2026-04-18T05:53:12.418Z</time></trkpt><trkpt lat="43.5334649" lon="10.6569126"><ele>123.0</ele><time>2026-04-18T05:53:13.421Z</time></trkpt><trkpt lat="43.5334033" lon="10.6570426"><ele>124.80000000000001</ele><time>2026-04-18T05:53:14.436Z</time></trkpt><trkpt lat="43.5333347" lon="10.6571774"><ele>126.60000000000001</ele><time>2026-04-18T05:53:15.442Z</time></trkpt><trkpt lat="43.5332581" lon="10.6573016"><ele>128.39999999999998</ele><time>2026-04-18T05:53:16.42Z</time></trkpt><trkpt lat="43.5331838" lon="10.6574036"><ele>130.2</ele><time>2026-04-18T05:53:17.415Z</time></trkpt><trkpt lat="43.5330996" lon="10.6574808"><ele>132.0</ele><time>2026-04-18T05:53:18.44Z</time></trkpt><trkpt lat="43.5330108" lon="10.657529"><ele>132.0</ele><time>2026-04-18T05:53:19.427Z</time></trkpt><trkpt lat="43.532923" lon="10.6575624"><ele>132.0</ele><time>2026-04-18T05:53:20.43Z</time></trkpt><trkpt lat="43.5328056" lon="10.657605"><ele>132.0</ele><time>2026-04-18T05:53:21.416Z</time></trkpt><trkpt lat="43.532686" lon="10.6576295"><ele>132.0</ele><time>2026-04-18T05:53:22.419Z</time></trkpt><trkpt lat="43.5325879" lon="10.6576385"><ele>132.0</ele><time>2026-04-18T05:53:23.325Z</time></trkpt><trkpt lat="43.5325069" lon="10.6576491"><ele>133.4</ele><time>2026-04-18T05:53:24.325Z</time></trkpt><trkpt lat="43.5323997" lon="10.6576403"><ele>134.79999999999998</ele><time>2026-04-18T05:53:26.439Z</time></trkpt><trkpt lat="43.5323322" lon="10.6576869"><ele>136.2</ele><time>2026-04-18T05:53:29.444Z</time></trkpt><trkpt lat="43.532379" lon="10.6577696"><ele>137.6</ele><time>2026-04-18T05:53:32.324Z</time></trkpt><trkpt lat="43.53248" lon="10.6578345"><ele>139.0</ele><time>2026-04-18T05:53:34.435Z</time></trkpt><trkpt lat="43.5325216" lon="10.6579852"><ele>142.5</ele><time>2026-04-18T05:53:36.445Z</time></trkpt><trkpt lat="43.5324437" lon="10.6581427"><ele>146.0</ele><time>2026-04-18T05:53:38.442Z</time></trkpt><trkpt lat="43.5323719" lon="10.6581792"><ele>149.5</ele><time>2026-04-18T05:53:39.43Z</time></trkpt><trkpt lat="43.5322129" lon="10.6581425"><ele>153.0</ele><time>2026-04-18T05:53:41.325Z</time></trkpt><trkpt lat="43.5321219" lon="10.6580746"><ele>154.20000000000002</ele><time>2026-04-18T05:53:42.45Z</time></trkpt><trkpt lat="43.532024" lon="10.6579934"><ele>155.4</ele><time>2026-04-18T05:53:43.444Z</time></trkpt><trkpt lat="43.5318451" lon="10.6579102"><ele>156.60000000000002</ele><time>2026-04-18T05:53:45.324Z</time></trkpt><trkpt lat="43.5317714" lon="10.657915"><ele>157.8</ele><time>2026-04-18T05:53:46.319Z</time></trkpt><trkpt lat="43.5317136" lon="10.6579525"><ele>159.0</ele><time>2026-04-18T05:53:47.323Z</time></trkpt><trkpt lat="43.5316743" lon="10.6580265"><ele>159.0</ele><time>2026-04-18T05:53:48.32Z</time></trkpt><trkpt lat="43.5316586" lon="10.6581234"><ele>159.0</ele><time>2026-04-18T05:53:49.319Z</time></trkpt><trkpt lat="43.5316718" lon="10.6582202"><ele>159.0</ele><time>2026-04-18T05:53:50.318Z</time></trkpt><trkpt lat="43.5317119" lon="10.6583024"><ele>159.0</ele><time>2026-04-18T05:53:51.445Z</time></trkpt><trkpt lat="43.5317799" lon="10.6583678"><ele>159.0</ele><time>2026-04-18T05:53:52.433Z</time></trkpt><trkpt lat="43.5318578" lon="10.658438"><ele>159.0</ele><time>2026-04-18T05:53:53.441Z</time></trkpt><trkpt lat="43.5319385" lon="10.6585221"><ele>159.5</ele><time>2026-04-18T05:53:54.429Z</time></trkpt><trkpt lat="43.5320147" lon="10.6586299"><ele>160.0</ele><time>2026-04-18T05:53:55.442Z</time></trkpt><trkpt lat="43.5320869" lon="10.6587679"><ele>160.5</ele><time>2026-04-18T05:53:56.444Z</time></trkpt><trkpt lat="43.5321531" lon="10.6589192"><ele>161.0</ele><time>2026-04-18T05:53:57.417Z</time></trkpt><trkpt lat="43.5322275" lon="10.6590806"><ele>161.0</ele><time>2026-04-18T05:53:58.327Z</time></trkpt><trkpt lat="43.5323205" lon="10.6592512"><ele>161.0</ele><time>2026-04-18T05:53:59.439Z</time></trkpt><trkpt lat="43.5324106" lon="10.6594141"><ele>161.0</ele><time>2026-04-18T05:54:00.422Z</time></trkpt><trkpt lat="43.5325003" lon="10.6595737"><ele>165.0</ele><time>2026-04-18T05:54:01.428Z</time></trkpt><trkpt lat="43.5325896" lon="10.6597128"><ele>169.0</ele><time>2026-04-18T05:54:02.42Z</time></trkpt><trkpt lat="43.5326742" lon="10.6598465"><ele>173.0</ele><time>2026-04-18T05:54:04.454Z</time></trkpt><trkpt lat="43.5328411" lon="10.6600948"><ele>171.66666666666666</ele><time>2026-04-18T05:54:06.376Z</time></trkpt><trkpt lat="43.5329998" lon="10.6603321"><ele>170.33333333333334</ele><time>2026-04-18T05:54:07.31Z</time></trkpt><trkpt lat="43.5330746" lon="10.6604624"><ele>169.0</ele><time>2026-04-18T05:54:08.322Z</time></trkpt><trkpt lat="43.5331485" lon="10.6605839"><ele>169.0</ele><time>2026-04-18T05:54:09.322Z</time></trkpt><trkpt lat="43.5332225" lon="10.6606758"><ele>169.0</ele><time>2026-04-18T05:54:10.325Z</time></trkpt><trkpt lat="43.5333017" lon="10.6607557"><ele>169.0</ele><time>2026-04-18T05:54:11.323Z</time></trkpt><trkpt lat="43.5333814" lon="10.660836"><ele>169.0</ele><time>2026-04-18T05:54:12.32Z</time></trkpt><trkpt lat="43.5334628" lon="10.6608902"><ele>169.0</ele><time>2026-04-18T05:54:13.319Z</time></trkpt><trkpt lat="43.5335219" lon="10.6609434"><ele>169.0</ele><time>2026-04-18T05:54:14.45Z</time></trkpt><trkpt lat="43.5336128" lon="10.6610441"><ele>169.0</ele><time>2026-04-18T05:54:16.452Z</time></trkpt><trkpt lat="43.533677" lon="10.6610922"><ele>169.0</ele><time>2026-04-18T05:54:17.456Z</time></trkpt><trkpt lat="43.5337561" lon="10.6611268"><ele>169.0</ele><time>2026-04-18T05:54:18.372Z</time></trkpt><trkpt lat="43.5338512" lon="10.6611514"><ele>169.0</ele><time>2026-04-18T05:54:19.453Z</time></trkpt><trkpt lat="43.5339437" lon="10.6611691"><ele>167.79999999999998</ele><time>2026-04-18T05:54:20.445Z</time></trkpt><trkpt lat="43.5340244" lon="10.6611798"><ele>166.6</ele><time>2026-04-18T05:54:21.433Z</time></trkpt><trkpt lat="43.5340957" lon="10.6611944"><ele>165.4</ele><time>2026-04-18T05:54:22.444Z</time></trkpt><trkpt lat="43.5341958" lon="10.6612321"><ele>164.2</ele><time>2026-04-18T05:54:24.457Z</time></trkpt><trkpt lat="43.5342444" lon="10.6613175"><ele>163.0</ele><time>2026-04-18T05:54:26.362Z</time></trkpt><trkpt lat="43.5342112" lon="10.6614795"><ele>163.0</ele><time>2026-04-18T05:54:28.439Z</time></trkpt><trkpt lat="43.5341659" lon="10.6615788"><ele>163.0</ele><time>2026-04-18T05:54:29.452Z</time></trkpt><trkpt lat="43.5341153" lon="10.6616962"><ele>163.0</ele><time>2026-04-18T05:54:30.458Z</time></trkpt><trkpt lat="43.5340685" lon="10.6618351"><ele>163.0</ele><time>2026-04-18T05:54:31.446Z</time></trkpt><trkpt lat="43.5340166" lon="10.6619846"><ele>163.0</ele><time>2026-04-18T05:54:32.436Z</time></trkpt><trkpt lat="43.5339649" lon="10.6621475"><ele>161.5</ele><time>2026-04-18T05:54:33.468Z</time></trkpt><trkpt lat="43.5339113" lon="10.6623087"><ele>160.0</ele><time>2026-04-18T05:54:34.458Z</time></trkpt><trkpt lat="43.533855" lon="10.6624728"><ele>158.5</ele><time>2026-04-18T05:54:35.45Z</time></trkpt><trkpt lat="43.5337965" lon="10.6626396"><ele>157.0</ele><time>2026-04-18T05:54:36.443Z</time></trkpt><trkpt lat="43.5337435" lon="10.662808"><ele>160.75</ele><time>2026-04-18T05:54:37.421Z</time></trkpt><trkpt lat="43.5336964" lon="10.662979"><ele>164.5</ele><time>2026-04-18T05:54:38.449Z</time></trkpt><trkpt lat="43.5336528" lon="10.6631598"><ele>168.25</ele><time>2026-04-18T05:54:39.452Z</time></trkpt><trkpt lat="43.5336112" lon="10.6633463"><ele>172.0</ele><time>2026-04-18T05:54:40.45Z</time></trkpt><trkpt lat="43.5335719" lon="10.6635456"><ele>170.25</ele><time>2026-04-18T05:54:41.45Z</time></trkpt><trkpt lat="43.5335361" lon="10.6637446"><ele>168.5</ele><time>2026-04-18T05:54:42.452Z</time></trkpt><trkpt lat="43.5335098" lon="10.6639379"><ele>166.75</ele><time>2026-04-18T05:54:43.447Z</time></trkpt><trkpt lat="43.5334897" lon="10.6641173"><ele>165.0</ele><time>2026-04-18T05:54:44.387Z</time></trkpt><trkpt lat="43.5334698" lon="10.6642762"><ele>161.66666666666666</ele><time>2026-04-18T05:54:45.452Z</time></trkpt><trkpt lat="43.5334024" lon="10.6645618"><ele>158.33333333333331</ele><time>2026-04-18T05:54:47.321Z</time></trkpt><trkpt lat="43.5333369" lon="10.6646896"><ele>155.0</ele><time>2026-04-18T05:54:48.324Z</time></trkpt><trkpt lat="43.5332515" lon="10.664803"><ele>155.0</ele><time>2026-04-18T05:54:49.325Z</time></trkpt><trkpt lat="43.53316" lon="10.6649061"><ele>155.0</ele><time>2026-04-18T05:54:50.458Z</time></trkpt><trkpt lat="43.5330596" lon="10.664989"><ele>155.0</ele><time>2026-04-18T05:54:51.466Z</time></trkpt><trkpt lat="43.5328404" lon="10.6650652"><ele>154.5</ele><time>2026-04-18T05:54:53.324Z</time></trkpt><trkpt lat="43.5327316" lon="10.665053"><ele>154.0</ele><time>2026-04-18T05:54:54.448Z</time></trkpt><trkpt lat="43.532622" lon="10.6650239"><ele>153.5</ele><time>2026-04-18T05:54:55.455Z</time></trkpt><trkpt lat="43.5325174" lon="10.664992"><ele>153.0</ele><time>2026-04-18T05:54:56.459Z</time></trkpt><trkpt lat="43.5323127" lon="10.6650052"><ele>153.0</ele><time>2026-04-18T05:54:58.442Z</time></trkpt><trkpt lat="43.5321333" lon="10.6651541"><ele>153.0</ele><time>2026-04-18T05:55:00.441Z</time></trkpt><trkpt lat="43.5320586" lon="10.6652806"><ele>153.0</ele><time>2026-04-18T05:55:01.448Z</time></trkpt><trkpt lat="43.5319866" lon="10.6654246"><ele>151.0</ele><time>2026-04-18T05:55:02.456Z</time></trkpt><trkpt lat="43.531842" lon="10.6657409"><ele>149.0</ele><time>2026-04-18T05:55:04.324Z</time></trkpt><trkpt lat="43.5317674" lon="10.6659077"><ele>147.0</ele><time>2026-04-18T05:55:05.447Z</time></trkpt><trkpt lat="43.531608" lon="10.6662359"><ele>147.0</ele><time>2026-04-18T05:55:07.318Z</time></trkpt><trkpt lat="43.5315194" lon="10.6663946"><ele>147.0</ele><time>2026-04-18T05:55:08.325Z</time></trkpt><trkpt lat="43.5314224" lon="10.6665523"><ele>147.0</ele><time>2026-04-18T05:55:09.447Z</time></trkpt><trkpt lat="43.5313227" lon="10.6666997"><ele>147.0</ele><time>2026-04-18T05:55:10.443Z</time></trkpt><trkpt lat="43.5312243" lon="10.6668546"><ele>151.0</ele><time>2026-04-18T05:55:11.45Z</time></trkpt><trkpt lat="43.5311229" lon="10.6670072"><ele>155.0</ele><time>2026-04-18T05:55:12.445Z</time></trkpt><trkpt lat="43.5310211" lon="10.6671709"><ele>159.0</ele><time>2026-04-18T05:55:13.453Z</time></trkpt><trkpt lat="43.5309201" lon="10.667333"><ele>159.0</ele><time>2026-04-18T05:55:14.462Z</time></trkpt><trkpt lat="43.5308101" lon="10.6674814"><ele>159.0</ele><time>2026-04-18T05:55:15.457Z</time></trkpt><trkpt lat="43.5306883" lon="10.6676105"><ele>159.0</ele><time>2026-04-18T05:55:16.447Z</time></trkpt><trkpt lat="43.5305656" lon="10.6677195"><ele>160.0</ele><time>2026-04-18T05:55:17.455Z</time></trkpt><trkpt lat="43.5304449" lon="10.6678344"><ele>161.0</ele><time>2026-04-18T05:55:18.445Z</time></trkpt><trkpt lat="43.5303328" lon="10.6679489"><ele>162.0</ele><time>2026-04-18T05:55:19.354Z</time></trkpt><trkpt lat="43.5302258" lon="10.6680819"><ele>163.0</ele><time>2026-04-18T05:55:20.327Z</time></trkpt><trkpt lat="43.5301077" lon="10.668257"><ele>163.0</ele><time>2026-04-18T05:55:21.322Z</time></trkpt><trkpt lat="43.5299948" lon="10.6684608"><ele>163.0</ele><time>2026-04-18T05:55:22.321Z</time></trkpt><trkpt lat="43.5298913" lon="10.6686262"><ele>163.0</ele><time>2026-04-18T05:55:23.444Z</time></trkpt><trkpt lat="43.5296815" lon="10.6689304"><ele>163.0</ele><time>2026-04-18T05:55:25.46Z</time></trkpt><trkpt lat="43.529576" lon="10.6690742"><ele>163.0</ele><time>2026-04-18T05:55:27.357Z</time></trkpt><trkpt lat="43.5293537" lon="10.6693438"><ele>163.0</ele><time>2026-04-18T05:55:28.44Z</time></trkpt><trkpt lat="43.5292439" lon="10.6694637"><ele>163.0</ele><time>2026-04-18T05:55:29.461Z</time></trkpt><trkpt lat="43.5290366" lon="10.6696694"><ele>163.0</ele><time>2026-04-18T05:55:31.324Z</time></trkpt><trkpt lat="43.5289309" lon="10.6697816"><ele>163.0</ele><time>2026-04-18T05:55:32.45Z</time></trkpt><trkpt lat="43.5288316" lon="10.6698958"><ele>163.0</ele><time>2026-04-18T05:55:33.43Z</time></trkpt><trkpt lat="43.5287302" lon="10.6700204"><ele>163.0</ele><time>2026-04-18T05:55:34.462Z</time></trkpt><trkpt lat="43.5286299" lon="10.6701413"><ele>163.0</ele><time>2026-04-18T05:55:35.448Z</time></trkpt><trkpt lat="43.5284227" lon="10.6703948"><ele>162.5</ele><time>2026-04-18T05:55:37.455Z</time></trkpt><trkpt lat="43.528317" lon="10.6705285"><ele>162.0</ele><time>2026-04-18T05:55:38.448Z</time></trkpt><trkpt lat="43.5282127" lon="10.6706639"><ele>161.5</ele><time>2026-04-18T05:55:39.458Z</time></trkpt><trkpt lat="43.5281023" lon="10.6708022"><ele>161.0</ele><time>2026-04-18T05:55:40.458Z</time></trkpt><trkpt lat="43.5279939" lon="10.6709439"><ele>162.66666666666666</ele><time>2026-04-18T05:55:41.445Z</time></trkpt><trkpt lat="43.5278803" lon="10.6710852"><ele>164.33333333333334</ele><time>2026-04-18T05:55:42.439Z</time></trkpt><trkpt lat="43.5277659" lon="10.6712271"><ele>166.0</ele><time>2026-04-18T05:55:43.456Z</time></trkpt><trkpt lat="43.527651" lon="10.6713684"><ele>166.0</ele><time>2026-04-18T05:55:44.432Z</time></trkpt><trkpt lat="43.5275523" lon="10.671531"><ele>166.0</ele><time>2026-04-18T05:55:45.448Z</time></trkpt><trkpt lat="43.5274678" lon="10.6717102"><ele>166.0</ele><time>2026-04-18T05:55:46.46Z</time></trkpt><trkpt lat="43.5273937" lon="10.6718791"><ele>167.66666666666669</ele><time>2026-04-18T05:55:47.456Z</time></trkpt><trkpt lat="43.5273215" lon="10.672036"><ele>169.33333333333334</ele><time>2026-04-18T05:55:48.457Z</time></trkpt><trkpt lat="43.5272445" lon="10.6721823"><ele>171.0</ele><time>2026-04-18T05:55:49.46Z</time></trkpt><trkpt lat="43.5270607" lon="10.6724156"><ele>171.0</ele><time>2026-04-18T05:55:51.452Z</time></trkpt><trkpt lat="43.5269561" lon="10.672495"><ele>171.0</ele><time>2026-04-18T05:55:52.433Z</time></trkpt><trkpt lat="43.5268347" lon="10.6724799"><ele>171.0</ele><time>2026-04-18T05:55:53.399Z</time></trkpt><trkpt lat="43.5267147" lon="10.6724694"><ele>171.0</ele><time>2026-04-18T05:55:54.329Z</time></trkpt><trkpt lat="43.5265972" lon="10.6724522"><ele>171.0</ele><time>2026-04-18T05:55:55.318Z</time></trkpt><trkpt lat="43.5264788" lon="10.6724525"><ele>171.0</ele><time>2026-04-18T05:55:56.466Z</time></trkpt><trkpt lat="43.5263676" lon="10.6724717"><ele>171.0</ele><time>2026-04-18T05:55:57.421Z</time></trkpt><trkpt lat="43.5262607" lon="10.6725261"><ele>171.0</ele><time>2026-04-18T05:55:58.44Z</time></trkpt><trkpt lat="43.526097" lon="10.6726752"><ele>170.75</ele><time>2026-04-18T05:56:00.431Z</time></trkpt><trkpt lat="43.5259503" lon="10.6728811"><ele>170.5</ele><time>2026-04-18T05:56:02.323Z</time></trkpt><trkpt lat="43.5258986" lon="10.673015"><ele>170.25</ele><time>2026-04-18T05:56:03.447Z</time></trkpt><trkpt lat="43.5258693" lon="10.6731718"><ele>170.0</ele><time>2026-04-18T05:56:04.453Z</time></trkpt><trkpt lat="43.5258554" lon="10.6733378"><ele>170.0</ele><time>2026-04-18T05:56:05.438Z</time></trkpt><trkpt lat="43.5258435" lon="10.6735088"><ele>170.0</ele><time>2026-04-18T05:56:06.405Z</time></trkpt><trkpt lat="43.5258275" lon="10.6736789"><ele>170.0</ele><time>2026-04-18T05:56:07.432Z</time></trkpt><trkpt lat="43.5258136" lon="10.6738468"><ele>170.0</ele><time>2026-04-18T05:56:08.465Z</time></trkpt><trkpt lat="43.5257661" lon="10.6741575"><ele>172.0</ele><time>2026-04-18T05:56:10.318Z</time></trkpt><trkpt lat="43.5257451" lon="10.6743102"><ele>174.0</ele><time>2026-04-18T05:56:11.323Z</time></trkpt><trkpt lat="43.5257266" lon="10.6744584"><ele>176.0</ele><time>2026-04-18T05:56:12.329Z</time></trkpt><trkpt lat="43.5257029" lon="10.6746147"><ele>178.0</ele><time>2026-04-18T05:56:13.326Z</time></trkpt><trkpt lat="43.5256848" lon="10.6747713"><ele>178.83333333333334</ele><time>2026-04-18T05:56:14.446Z</time></trkpt><trkpt lat="43.5256613" lon="10.6749085"><ele>179.66666666666669</ele><time>2026-04-18T05:56:15.457Z</time></trkpt><trkpt lat="43.5256395" lon="10.6750348"><ele>180.5</ele><time>2026-04-18T05:56:16.455Z</time></trkpt><trkpt lat="43.5256215" lon="10.675149"><ele>181.33333333333334</ele><time>2026-04-18T05:56:17.448Z</time></trkpt><trkpt lat="43.5256042" lon="10.675257"><ele>182.16666666666666</ele><time>2026-04-18T05:56:18.457Z</time></trkpt><trkpt lat="43.5255847" lon="10.6753576"><ele>183.0</ele><time>2026-04-18T05:56:19.466Z</time></trkpt><trkpt lat="43.525559" lon="10.6754492"><ele>183.0</ele><time>2026-04-18T05:56:20.459Z</time></trkpt><trkpt lat="43.5254852" lon="10.6756525"><ele>183.0</ele><time>2026-04-18T05:56:22.324Z</time></trkpt><trkpt lat="43.5254429" lon="10.675743"><ele>183.0</ele><time>2026-04-18T05:56:23.308Z</time></trkpt><trkpt lat="43.5253903" lon="10.6758405"><ele>183.0</ele><time>2026-04-18T05:56:24.445Z</time></trkpt><trkpt lat="43.5252741" lon="10.6759836"><ele>183.0</ele><time>2026-04-18T05:56:26.45Z</time></trkpt><trkpt lat="43.5252134" lon="10.6760177"><ele>183.0</ele><time>2026-04-18T05:56:27.459Z</time></trkpt><trkpt lat="43.5250913" lon="10.6761173"><ele>183.0</ele><time>2026-04-18T05:56:29.318Z</time></trkpt><trkpt lat="43.5250343" lon="10.6761718"><ele>183.0</ele><time>2026-04-18T05:56:30.323Z</time></trkpt><trkpt lat="43.5249664" lon="10.6762224"><ele>183.0</ele><time>2026-04-18T05:56:31.319Z</time></trkpt><trkpt lat="43.5249023" lon="10.6762795"><ele>183.0</ele><time>2026-04-18T05:56:32.319Z</time></trkpt><trkpt lat="43.5248419" lon="10.6763536"><ele>182.8</ele><time>2026-04-18T05:56:33.32Z</time></trkpt><trkpt lat="43.5247784" lon="10.6764239"><ele>182.60000000000002</ele><time>2026-04-18T05:56:34.441Z</time></trkpt><trkpt lat="43.5247184" lon="10.6764996"><ele>182.39999999999998</ele><time>2026-04-18T05:56:35.438Z</time></trkpt><trkpt lat="43.5246627" lon="10.676571"><ele>182.2</ele><time>2026-04-18T05:56:37.472Z</time></trkpt><trkpt lat="43.5246111" lon="10.6766924"><ele>182.0</ele><time>2026-04-18T05:56:39.444Z</time></trkpt><trkpt lat="43.5245737" lon="10.6768436"><ele>181.39999999999998</ele><time>2026-04-18T05:56:41.461Z</time></trkpt><trkpt lat="43.5245441" lon="10.6769672"><ele>180.79999999999998</ele><time>2026-04-18T05:56:43.453Z</time></trkpt><trkpt lat="43.5245155" lon="10.6770739"><ele>180.2</ele><time>2026-04-18T05:56:44.466Z</time></trkpt><trkpt lat="43.524514" lon="10.6772408"><ele>179.6</ele><time>2026-04-18T05:56:46.416Z</time></trkpt><trkpt lat="43.524573" lon="10.6773291"><ele>179.0</ele><time>2026-04-18T05:56:48.451Z</time></trkpt><trkpt lat="43.5246333" lon="10.6774018"><ele>178.33333333333331</ele><time>2026-04-18T05:56:50.454Z</time></trkpt><trkpt lat="43.5246918" lon="10.6774801"><ele>177.66666666666666</ele><time>2026-04-18T05:56:52.422Z</time></trkpt><trkpt lat="43.5247264" lon="10.6775792"><ele>177.0</ele><time>2026-04-18T05:56:54.446Z</time></trkpt><trkpt lat="43.5247503" lon="10.6776762"><ele>176.33333333333334</ele><time>2026-04-18T05:56:56.462Z</time></trkpt><trkpt lat="43.5247477" lon="10.6777639"><ele>175.66666666666669</ele><time>2026-04-18T05:56:59.452Z</time></trkpt><trkpt lat="43.524745" lon="10.6779059"><ele>175.0</ele><time>2026-04-18T05:57:02.323Z</time></trkpt><trkpt lat="43.5247492" lon="10.6780021"><ele>174.5</ele><time>2026-04-18T05:57:04.456Z</time></trkpt><trkpt lat="43.5247505" lon="10.6781032"><ele>174.0</ele><time>2026-04-18T05:57:06.445Z</time></trkpt><trkpt lat="43.5247501" lon="10.6782282"><ele>173.5</ele><time>2026-04-18T05:57:09.452Z</time></trkpt><trkpt lat="43.5247575" lon="10.6783599"><ele>173.0</ele><time>2026-04-18T05:57:11.417Z</time></trkpt><trkpt lat="43.5247631" lon="10.6784498"><ele>172.5</ele><time>2026-04-18T05:57:12.326Z</time></trkpt><trkpt lat="43.5247763" lon="10.6785394"><ele>172.0</ele><time>2026-04-18T05:57:13.327Z</time></trkpt><trkpt lat="43.5247981" lon="10.6786307"><ele>173.39999999999998</ele><time>2026-04-18T05:57:14.324Z</time></trkpt><trkpt lat="43.5248371" lon="10.6787877"><ele>174.79999999999998</ele><time>2026-04-18T05:57:16.462Z</time></trkpt><trkpt lat="43.5248652" lon="10.678921"><ele>176.2</ele><time>2026-04-18T05:57:18.453Z</time></trkpt><trkpt lat="43.5248859" lon="10.6790783"><ele>177.6</ele><time>2026-04-18T05:57:20.45Z</time></trkpt><trkpt lat="43.5248868" lon="10.6791706"><ele>179.0</ele><time>2026-04-18T05:57:21.45Z</time></trkpt><trkpt lat="43.5248899" lon="10.6792637"><ele>179.0</ele><time>2026-04-18T05:57:22.422Z</time></trkpt><trkpt lat="43.5248903" lon="10.6793581"><ele>179.0</ele><time>2026-04-18T05:57:23.419Z</time></trkpt><trkpt lat="43.5248874" lon="10.679455"><ele>179.0</ele><time>2026-04-18T05:57:24.457Z</time></trkpt><trkpt lat="43.5248754" lon="10.6795602"><ele>179.0</ele><time>2026-04-18T05:57:25.448Z</time></trkpt><trkpt lat="43.5248603" lon="10.6796658"><ele>179.0</ele><time>2026-04-18T05:57:26.457Z</time></trkpt><trkpt lat="43.5248544" lon="10.6797777"><ele>179.0</ele><time>2026-04-18T05:57:27.443Z</time></trkpt><trkpt lat="43.5248561" lon="10.6799018"><ele>179.75</ele><time>2026-04-18T05:57:28.454Z</time></trkpt><trkpt lat="43.5248752" lon="10.6800072"><ele>180.5</ele><time>2026-04-18T05:57:29.442Z</time></trkpt><trkpt lat="43.5249006" lon="10.6801354"><ele>181.25</ele><time>2026-04-18T05:57:30.38Z</time></trkpt><trkpt lat="43.5249262" lon="10.6802644"><ele>182.0</ele><time>2026-04-18T05:57:31.457Z</time></trkpt><trkpt lat="43.5249689" lon="10.6805157"><ele>180.83333333333331</ele><time>2026-04-18T05:57:33.444Z</time></trkpt><trkpt lat="43.5249854" lon="10.6806374"><ele>179.66666666666666</ele><time>2026-04-18T05:57:34.449Z</time></trkpt><trkpt lat="43.5249937" lon="10.6807637"><ele>178.5</ele><time>2026-04-18T05:57:35.449Z</time></trkpt><trkpt lat="43.5249991" lon="10.6808876"><ele>177.33333333333334</ele><time>2026-04-18T05:57:36.458Z</time></trkpt><trkpt lat="43.5249954" lon="10.6809996"><ele>176.16666666666669</ele><time>2026-04-18T05:57:37.427Z</time></trkpt><trkpt lat="43.5249844" lon="10.6811166"><ele>175.0</ele><time>2026-04-18T05:57:38.471Z</time></trkpt><trkpt lat="43.5249788" lon="10.6812477"><ele>174.4</ele><time>2026-04-18T05:57:39.466Z</time></trkpt><trkpt lat="43.5249731" lon="10.681384"><ele>173.8</ele><time>2026-04-18T05:57:40.47Z</time></trkpt><trkpt lat="43.5249696" lon="10.6815261"><ele>173.2</ele><time>2026-04-18T05:57:41.441Z</time></trkpt><trkpt lat="43.5249689" lon="10.6816725"><ele>172.6</ele><time>2026-04-18T05:57:42.43Z</time></trkpt><trkpt lat="43.5249693" lon="10.6818171"><ele>172.0</ele><time>2026-04-18T05:57:43.453Z</time></trkpt><trkpt lat="43.5249696" lon="10.681961"><ele>171.6</ele><time>2026-04-18T05:57:44.457Z</time></trkpt><trkpt lat="43.5249676" lon="10.682099"><ele>171.2</ele><time>2026-04-18T05:57:45.446Z</time></trkpt><trkpt lat="43.524971" lon="10.6823491"><ele>170.8</ele><time>2026-04-18T05:57:47.327Z</time></trkpt><trkpt lat="43.5249903" lon="10.6824545"><ele>170.4</ele><time>2026-04-18T05:57:48.324Z</time></trkpt><trkpt lat="43.5250337" lon="10.6825404"><ele>170.0</ele><time>2026-04-18T05:57:49.454Z</time></trkpt><trkpt lat="43.5250966" lon="10.6826072"><ele>170.0</ele><time>2026-04-18T05:57:50.459Z</time></trkpt><trkpt lat="43.5251624" lon="10.682653"><ele>170.0</ele><time>2026-04-18T05:57:51.447Z</time></trkpt><trkpt lat="43.5252465" lon="10.6826945"><ele>170.0</ele><time>2026-04-18T05:57:52.459Z</time></trkpt><trkpt lat="43.5253362" lon="10.682746"><ele>170.0</ele><time>2026-04-18T05:57:53.423Z</time></trkpt><trkpt lat="43.525426" lon="10.6828495"><ele>170.0</ele><time>2026-04-18T05:57:55.379Z</time></trkpt><trkpt lat="43.5255514" lon="10.6830626"><ele>168.8</ele><time>2026-04-18T05:57:56.322Z</time></trkpt><trkpt lat="43.5255895" lon="10.6831569"><ele>167.6</ele><time>2026-04-18T05:57:57.459Z</time></trkpt><trkpt lat="43.5256158" lon="10.6832411"><ele>166.39999999999998</ele><time>2026-04-18T05:57:58.441Z</time></trkpt><trkpt lat="43.5255998" lon="10.683404"><ele>165.2</ele><time>2026-04-18T05:58:00.448Z</time></trkpt><trkpt lat="43.5254651" lon="10.6835478"><ele>164.0</ele><time>2026-04-18T05:58:02.462Z</time></trkpt><trkpt lat="43.5253732" lon="10.6836096"><ele>161.25</ele><time>2026-04-18T05:58:03.447Z</time></trkpt><trkpt lat="43.5252741" lon="10.6836772"><ele>158.5</ele><time>2026-04-18T05:58:04.448Z</time></trkpt><trkpt lat="43.5251712" lon="10.6837463"><ele>155.75</ele><time>2026-04-18T05:58:05.451Z</time></trkpt><trkpt lat="43.5250677" lon="10.6838165"><ele>153.0</ele><time>2026-04-18T05:58:06.453Z</time></trkpt><trkpt lat="43.5249671" lon="10.6838805"><ele>153.0</ele><time>2026-04-18T05:58:07.416Z</time></trkpt><trkpt lat="43.5248769" lon="10.6839261"><ele>153.0</ele><time>2026-04-18T05:58:08.46Z</time></trkpt><trkpt lat="43.5247988" lon="10.6839379"><ele>153.0</ele><time>2026-04-18T05:58:09.442Z</time></trkpt><trkpt lat="43.524736" lon="10.6839234"><ele>153.0</ele><time>2026-04-18T05:58:10.437Z</time></trkpt><trkpt lat="43.5246334" lon="10.6839047"><ele>153.0</ele><time>2026-04-18T05:58:12.434Z</time></trkpt><trkpt lat="43.5245423" lon="10.6839975"><ele>151.4</ele><time>2026-04-18T05:58:14.446Z</time></trkpt><trkpt lat="43.524516" lon="10.6840898"><ele>149.8</ele><time>2026-04-18T05:58:15.45Z</time></trkpt><trkpt lat="43.5245032" lon="10.6841972"><ele>148.2</ele><time>2026-04-18T05:58:16.323Z</time></trkpt><trkpt lat="43.5245086" lon="10.6843043"><ele>146.6</ele><time>2026-04-18T05:58:17.468Z</time></trkpt><trkpt lat="43.5245927" lon="10.684475"><ele>145.0</ele><time>2026-04-18T05:58:19.452Z</time></trkpt><trkpt lat="43.5247031" lon="10.6845576"><ele>145.0</ele><time>2026-04-18T05:58:21.32Z</time></trkpt><trkpt lat="43.5248415" lon="10.684562"><ele>145.0</ele><time>2026-04-18T05:58:22.448Z</time></trkpt><trkpt lat="43.524936" lon="10.6845877"><ele>145.0</ele><time>2026-04-18T05:58:23.418Z</time></trkpt><trkpt lat="43.5250261" lon="10.6846292"><ele>145.0</ele><time>2026-04-18T05:58:24.46Z</time></trkpt><trkpt lat="43.5251107" lon="10.684689"><ele>145.0</ele><time>2026-04-18T05:58:25.409Z</time></trkpt><trkpt lat="43.5251922" lon="10.6847669"><ele>145.0</ele><time>2026-04-18T05:58:26.453Z</time></trkpt><trkpt lat="43.5252443" lon="10.684879"><ele>145.0</ele><time>2026-04-18T05:58:27.462Z</time></trkpt><trkpt lat="43.5252838" lon="10.6849997"><ele>145.0</ele><time>2026-04-18T05:58:28.463Z</time></trkpt><trkpt lat="43.5253183" lon="10.6851316"><ele>145.0</ele><time>2026-04-18T05:58:29.453Z</time></trkpt><trkpt lat="43.525354" lon="10.6852698"><ele>145.0</ele><time>2026-04-18T05:58:30.456Z</time></trkpt><trkpt lat="43.525383" lon="10.6854187"><ele>146.33333333333334</ele><time>2026-04-18T05:58:31.456Z</time></trkpt><trkpt lat="43.5254099" lon="10.6855627"><ele>147.66666666666666</ele><time>2026-04-18T05:58:32.454Z</time></trkpt><trkpt lat="43.5254463" lon="10.6857124"><ele>149.0</ele><time>2026-04-18T05:58:33.427Z</time></trkpt><trkpt lat="43.5255154" lon="10.6860263"><ele>146.0</ele><time>2026-04-18T05:58:35.329Z</time></trkpt><trkpt lat="43.5255451" lon="10.6861854"><ele>143.0</ele><time>2026-04-18T05:58:36.451Z</time></trkpt><trkpt lat="43.5255697" lon="10.6863509"><ele>140.0</ele><time>2026-04-18T05:58:37.415Z</time></trkpt><trkpt lat="43.5255805" lon="10.6865147"><ele>137.0</ele><time>2026-04-18T05:58:38.322Z</time></trkpt><trkpt lat="43.5255863" lon="10.6866785"><ele>137.0</ele><time>2026-04-18T05:58:39.45Z</time></trkpt><trkpt lat="43.5255816" lon="10.6868502"><ele>137.0</ele><time>2026-04-18T05:58:40.441Z</time></trkpt><trkpt lat="43.5255629" lon="10.6870144"><ele>137.0</ele><time>2026-04-18T05:58:41.428Z</time></trkpt><trkpt lat="43.5255303" lon="10.6871723"><ele>137.0</ele><time>2026-04-18T05:58:42.455Z</time></trkpt><trkpt lat="43.5254855" lon="10.6873279"><ele>135.25</ele><time>2026-04-18T05:58:43.412Z</time></trkpt><trkpt lat="43.5254361" lon="10.6874847"><ele>133.5</ele><time>2026-04-18T05:58:44.325Z</time></trkpt><trkpt lat="43.5253863" lon="10.6876427"><ele>131.75</ele><time>2026-04-18T05:58:45.321Z</time></trkpt><trkpt lat="43.5253376" lon="10.6878021"><ele>130.0</ele><time>2026-04-18T05:58:46.455Z</time></trkpt><trkpt lat="43.5252935" lon="10.6879683"><ele>127.0</ele><time>2026-04-18T05:58:47.463Z</time></trkpt><trkpt lat="43.5252543" lon="10.6881361"><ele>124.0</ele><time>2026-04-18T05:58:48.448Z</time></trkpt><trkpt lat="43.5251885" lon="10.6884754"><ele>121.0</ele><time>2026-04-18T05:58:50.324Z</time></trkpt><trkpt lat="43.525165" lon="10.6886468"><ele>120.66666666666667</ele><time>2026-04-18T05:58:51.457Z</time></trkpt><trkpt lat="43.5251472" lon="10.6888222"><ele>120.33333333333334</ele><time>2026-04-18T05:58:52.467Z</time></trkpt><trkpt lat="43.5251015" lon="10.6891725"><ele>120.0</ele><time>2026-04-18T05:58:54.323Z</time></trkpt><trkpt lat="43.5250756" lon="10.6893483"><ele>120.0</ele><time>2026-04-18T05:58:55.46Z</time></trkpt><trkpt lat="43.5250492" lon="10.6895215"><ele>120.0</ele><time>2026-04-18T05:58:56.439Z</time></trkpt><trkpt lat="43.5250241" lon="10.6896989"><ele>120.0</ele><time>2026-04-18T05:58:57.457Z</time></trkpt><trkpt lat="43.5249995" lon="10.6900373"><ele>120.0</ele><time>2026-04-18T05:58:59.32Z</time></trkpt><trkpt lat="43.5250108" lon="10.690216"><ele>120.0</ele><time>2026-04-18T05:59:00.326Z</time></trkpt><trkpt lat="43.5250358" lon="10.6904017"><ele>120.0</ele><time>2026-04-18T05:59:01.45Z</time></trkpt><trkpt lat="43.5250933" lon="10.6907946"><ele>118.66666666666666</ele><time>2026-04-18T05:59:03.463Z</time></trkpt><trkpt lat="43.5251171" lon="10.6909998"><ele>117.33333333333333</ele><time>2026-04-18T05:59:04.457Z</time></trkpt><trkpt lat="43.5251438" lon="10.6912109"><ele>116.0</ele><time>2026-04-18T05:59:05.461Z</time></trkpt><trkpt lat="43.5251832" lon="10.6914042"><ele>114.0</ele><time>2026-04-18T05:59:06.455Z</time></trkpt><trkpt lat="43.5252346" lon="10.6916079"><ele>112.0</ele><time>2026-04-18T05:59:07.472Z</time></trkpt><trkpt lat="43.5252871" lon="10.6917976"><ele>110.0</ele><time>2026-04-18T05:59:08.459Z</time></trkpt><trkpt lat="43.5253352" lon="10.6919917"><ele>108.66666666666666</ele><time>2026-04-18T05:59:09.452Z</time></trkpt><trkpt lat="43.5253959" lon="10.6923605"><ele>107.33333333333334</ele><time>2026-04-18T05:59:11.455Z</time></trkpt><trkpt lat="43.525412" lon="10.6925602"><ele>106.0</ele><time>2026-04-18T05:59:12.456Z</time></trkpt><trkpt lat="43.5254235" lon="10.6927472"><ele>106.75</ele><time>2026-04-18T05:59:13.458Z</time></trkpt><trkpt lat="43.5254277" lon="10.6929259"><ele>107.5</ele><time>2026-04-18T05:59:14.462Z</time></trkpt><trkpt lat="43.5254344" lon="10.693092"><ele>108.25</ele><time>2026-04-18T05:59:15.425Z</time></trkpt><trkpt lat="43.5254488" lon="10.6932645"><ele>109.0</ele><time>2026-04-18T05:59:16.458Z</time></trkpt><trkpt lat="43.5255452" lon="10.6935882"><ele>108.33333333333334</ele><time>2026-04-18T05:59:18.323Z</time></trkpt><trkpt lat="43.5256189" lon="10.6937605"><ele>107.66666666666666</ele><time>2026-04-18T05:59:19.457Z</time></trkpt><trkpt lat="43.5257689" lon="10.6941107"><ele>107.0</ele><time>2026-04-18T05:59:21.322Z</time></trkpt><trkpt lat="43.5258245" lon="10.6942816"><ele>106.33333333333333</ele><time>2026-04-18T05:59:22.454Z</time></trkpt><trkpt lat="43.5258614" lon="10.6944636"><ele>105.66666666666666</ele><time>2026-04-18T05:59:23.466Z</time></trkpt><trkpt lat="43.5258643" lon="10.6948247"><ele>105.0</ele><time>2026-04-18T05:59:25.448Z</time></trkpt><trkpt lat="43.5257824" lon="10.6951363"><ele>105.0</ele><time>2026-04-18T05:59:27.321Z</time></trkpt><trkpt lat="43.5257221" lon="10.6952491"><ele>105.0</ele><time>2026-04-18T05:59:28.324Z</time></trkpt><trkpt lat="43.5256658" lon="10.69535"><ele>105.0</ele><time>2026-04-18T05:59:29.422Z</time></trkpt><trkpt lat="43.5256399" lon="10.6954675"><ele>105.0</ele><time>2026-04-18T05:59:30.451Z</time></trkpt><trkpt lat="43.5256776" lon="10.6957475"><ele>103.75</ele><time>2026-04-18T05:59:32.45Z</time></trkpt><trkpt lat="43.5257162" lon="10.6959039"><ele>102.5</ele><time>2026-04-18T05:59:33.454Z</time></trkpt><trkpt lat="43.525747" lon="10.6960808"><ele>101.25</ele><time>2026-04-18T05:59:34.455Z</time></trkpt><trkpt lat="43.5257563" lon="10.6962653"><ele>100.0</ele><time>2026-04-18T05:59:35.456Z</time></trkpt><trkpt lat="43.5257468" lon="10.6964549"><ele>98.75</ele><time>2026-04-18T05:59:36.46Z</time></trkpt><trkpt lat="43.5257264" lon="10.6966434"><ele>97.5</ele><time>2026-04-18T05:59:37.457Z</time></trkpt><trkpt lat="43.5257014" lon="10.6968224"><ele>96.25</ele><time>2026-04-18T05:59:38.457Z</time></trkpt><trkpt lat="43.5256678" lon="10.6969982"><ele>95.0</ele><time>2026-04-18T05:59:39.455Z</time></trkpt><trkpt lat="43.5255578" lon="10.6973065"><ele>94.5</ele><time>2026-04-18T05:59:41.462Z</time></trkpt><trkpt lat="43.5254939" lon="10.6974462"><ele>94.0</ele><time>2026-04-18T05:59:42.455Z</time></trkpt><trkpt lat="43.5254441" lon="10.6975912"><ele>93.5</ele><time>2026-04-18T05:59:43.466Z</time></trkpt><trkpt lat="43.5254183" lon="10.6977514"><ele>93.0</ele><time>2026-04-18T05:59:44.463Z</time></trkpt><trkpt lat="43.5254142" lon="10.6979152"><ele>92.0</ele><time>2026-04-18T05:59:45.456Z</time></trkpt><trkpt lat="43.5254317" lon="10.6980818"><ele>91.0</ele><time>2026-04-18T05:59:46.446Z</time></trkpt><trkpt lat="43.5254549" lon="10.6982454"><ele>90.0</ele><time>2026-04-18T05:59:47.456Z</time></trkpt><trkpt lat="43.5254967" lon="10.6984087"><ele>89.0</ele><time>2026-04-18T05:59:48.424Z</time></trkpt><trkpt lat="43.5255201" lon="10.6985677"><ele>88.25</ele><time>2026-04-18T05:59:49.324Z</time></trkpt><trkpt lat="43.5255231" lon="10.6987435"><ele>87.5</ele><time>2026-04-18T05:59:50.321Z</time></trkpt><trkpt lat="43.5255002" lon="10.6989184"><ele>86.75</ele><time>2026-04-18T05:59:51.322Z</time></trkpt><trkpt lat="43.5254623" lon="10.6990814"><ele>86.0</ele><time>2026-04-18T05:59:52.446Z</time></trkpt><trkpt lat="43.5254121" lon="10.6992301"><ele>84.39999999999999</ele><time>2026-04-18T05:59:53.46Z</time></trkpt><trkpt lat="43.5253598" lon="10.6993583"><ele>82.8</ele><time>2026-04-18T05:59:54.451Z</time></trkpt><trkpt lat="43.5253107" lon="10.6994793"><ele>81.19999999999999</ele><time>2026-04-18T05:59:55.455Z</time></trkpt><trkpt lat="43.5252899" lon="10.6996048"><ele>79.6</ele><time>2026-04-18T05:59:56.462Z</time></trkpt><trkpt lat="43.5252966" lon="10.6997492"><ele>78.0</ele><time>2026-04-18T05:59:57.427Z</time></trkpt><trkpt lat="43.525396" lon="10.7000513"><ele>78.0</ele><time>2026-04-18T05:59:59.456Z</time></trkpt><trkpt lat="43.5254524" lon="10.700221"><ele>78.0</ele><time>2026-04-18T06:00:00.449Z</time></trkpt><trkpt lat="43.5255685" lon="10.7005655"><ele>78.0</ele><time>2026-04-18T06:00:02.33Z</time></trkpt><trkpt lat="43.5256235" lon="10.7007295"><ele>75.0</ele><time>2026-04-18T06:00:03.323Z</time></trkpt><trkpt lat="43.5256737" lon="10.7008963"><ele>72.0</ele><time>2026-04-18T06:00:04.455Z</time></trkpt><trkpt lat="43.5257165" lon="10.7010491"><ele>69.0</ele><time>2026-04-18T06:00:05.453Z</time></trkpt><trkpt lat="43.5257347" lon="10.7012216"><ele>66.0</ele><time>2026-04-18T06:00:06.447Z</time></trkpt><trkpt lat="43.5257451" lon="10.7013953"><ele>64.5</ele><time>2026-04-18T06:00:07.455Z</time></trkpt><trkpt lat="43.5257484" lon="10.7015634"><ele>63.0</ele><time>2026-04-18T06:00:08.462Z</time></trkpt><trkpt lat="43.5257504" lon="10.7017314"><ele>61.5</ele><time>2026-04-18T06:00:09.466Z</time></trkpt><trkpt lat="43.5257603" lon="10.7018942"><ele>60.0</ele><time>2026-04-18T06:00:10.456Z</time></trkpt><trkpt lat="43.5257828" lon="10.7020621"><ele>59.25</ele><time>2026-04-18T06:00:11.469Z</time></trkpt><trkpt lat="43.5258225" lon="10.7022272"><ele>58.5</ele><time>2026-04-18T06:00:12.426Z</time></trkpt><trkpt lat="43.5258652" lon="10.702372"><ele>57.75</ele><time>2026-04-18T06:00:13.456Z</time></trkpt><trkpt lat="43.5259044" lon="10.7024918"><ele>57.0</ele><time>2026-04-18T06:00:14.448Z</time></trkpt><trkpt lat="43.5259474" lon="10.7026401"><ele>57.0</ele><time>2026-04-18T06:00:16.461Z</time></trkpt><trkpt lat="43.5259676" lon="10.7027233"><ele>57.0</ele><time>2026-04-18T06:00:19.325Z</time></trkpt><trkpt lat="43.5260937" lon="10.7026995"><ele>57.0</ele><time>2026-04-18T06:00:26.328Z</time></trkpt><trkpt lat="43.5261581" lon="10.7026416"><ele>57.0</ele><time>2026-04-18T06:00:27.322Z</time></trkpt><trkpt lat="43.52632" lon="10.7025122"><ele>56.75</ele><time>2026-04-18T06:00:29.471Z</time></trkpt><trkpt lat="43.5264165" lon="10.7024469"><ele>56.5</ele><time>2026-04-18T06:00:30.456Z</time></trkpt><trkpt lat="43.5265285" lon="10.7023797"><ele>56.25</ele><time>2026-04-18T06:00:31.453Z</time></trkpt><trkpt lat="43.5266482" lon="10.7023305"><ele>56.0</ele><time>2026-04-18T06:00:32.441Z</time></trkpt><trkpt lat="43.5267821" lon="10.7022965"><ele>56.0</ele><time>2026-04-18T06:00:33.464Z</time></trkpt><trkpt lat="43.5269267" lon="10.7022846"><ele>56.0</ele><time>2026-04-18T06:00:34.466Z</time></trkpt><trkpt lat="43.5270735" lon="10.7022795"><ele>56.0</ele><time>2026-04-18T06:00:35.46Z</time></trkpt><trkpt lat="43.5272283" lon="10.7022788"><ele>56.0</ele><time>2026-04-18T06:00:36.462Z</time></trkpt><trkpt lat="43.527389" lon="10.7022724"><ele>56.0</ele><time>2026-04-18T06:00:37.382Z</time></trkpt><trkpt lat="43.527558" lon="10.7022609"><ele>56.0</ele><time>2026-04-18T06:00:38.424Z</time></trkpt><trkpt lat="43.5277232" lon="10.702255"><ele>56.0</ele><time>2026-04-18T06:00:39.444Z</time></trkpt><trkpt lat="43.5280601" lon="10.702247"><ele>56.66666666666667</ele><time>2026-04-18T06:00:41.448Z</time></trkpt><trkpt lat="43.528229" lon="10.7022402"><ele>57.33333333333333</ele><time>2026-04-18T06:00:42.464Z</time></trkpt><trkpt lat="43.5284004" lon="10.7022335"><ele>58.0</ele><time>2026-04-18T06:00:43.461Z</time></trkpt><trkpt lat="43.5285758" lon="10.7022274"><ele>57.0</ele><time>2026-04-18T06:00:44.332Z</time></trkpt><trkpt lat="43.5287484" lon="10.7022216"><ele>56.0</ele><time>2026-04-18T06:00:45.445Z</time></trkpt><trkpt lat="43.5289258" lon="10.7022143"><ele>55.0</ele><time>2026-04-18T06:00:46.457Z</time></trkpt><trkpt lat="43.5291029" lon="10.7022054"><ele>55.0</ele><time>2026-04-18T06:00:47.445Z</time></trkpt><trkpt lat="43.5292786" lon="10.7021923"><ele>55.0</ele><time>2026-04-18T06:00:48.44Z</time></trkpt><trkpt lat="43.5294562" lon="10.7021743"><ele>55.0</ele><time>2026-04-18T06:00:49.452Z</time></trkpt><trkpt lat="43.5296323" lon="10.7021531"><ele>54.666666666666664</ele><time>2026-04-18T06:00:50.427Z</time></trkpt><trkpt lat="43.5298096" lon="10.7021313"><ele>54.33333333333333</ele><time>2026-04-18T06:00:51.418Z</time></trkpt><trkpt lat="43.5299857" lon="10.7021066"><ele>54.0</ele><time>2026-04-18T06:00:52.324Z</time></trkpt><trkpt lat="43.5301638" lon="10.7020823"><ele>54.0</ele><time>2026-04-18T06:00:53.42Z</time></trkpt><trkpt lat="43.5303431" lon="10.7020602"><ele>54.0</ele><time>2026-04-18T06:00:54.322Z</time></trkpt><trkpt lat="43.5305239" lon="10.7020332"><ele>54.0</ele><time>2026-04-18T06:00:55.324Z</time></trkpt><trkpt lat="43.5307029" lon="10.7020099"><ele>54.33333333333333</ele><time>2026-04-18T06:00:56.323Z</time></trkpt><trkpt lat="43.5308811" lon="10.7019754"><ele>54.666666666666664</ele><time>2026-04-18T06:00:57.449Z</time></trkpt><trkpt lat="43.531061" lon="10.7019496"><ele>55.0</ele><time>2026-04-18T06:00:58.445Z</time></trkpt><trkpt lat="43.5314232" lon="10.7018908"><ele>55.0</ele><time>2026-04-18T06:01:00.323Z</time></trkpt><trkpt lat="43.5316069" lon="10.7018463"><ele>55.0</ele><time>2026-04-18T06:01:01.468Z</time></trkpt><trkpt lat="43.5317864" lon="10.7018084"><ele>55.0</ele><time>2026-04-18T06:01:02.455Z</time></trkpt><trkpt lat="43.5319701" lon="10.7017711"><ele>55.0</ele><time>2026-04-18T06:01:03.314Z</time></trkpt><trkpt lat="43.5321552" lon="10.7017353"><ele>55.0</ele><time>2026-04-18T06:01:04.443Z</time></trkpt><trkpt lat="43.5323347" lon="10.7016955"><ele>55.0</ele><time>2026-04-18T06:01:05.414Z</time></trkpt><trkpt lat="43.5325139" lon="10.7016588"><ele>55.0</ele><time>2026-04-18T06:01:06.326Z</time></trkpt><trkpt lat="43.5326946" lon="10.7016189"><ele>55.0</ele><time>2026-04-18T06:01:07.467Z</time></trkpt><trkpt lat="43.5328694" lon="10.7015838"><ele>55.0</ele><time>2026-04-18T06:01:08.455Z</time></trkpt><trkpt lat="43.5330412" lon="10.7015541"><ele>55.33333333333333</ele><time>2026-04-18T06:01:09.462Z</time></trkpt><trkpt lat="43.5332181" lon="10.7015186"><ele>55.66666666666667</ele><time>2026-04-18T06:01:10.45Z</time></trkpt><trkpt lat="43.5333989" lon="10.7014804"><ele>56.0</ele><time>2026-04-18T06:01:11.421Z</time></trkpt><trkpt lat="43.5335778" lon="10.7014433"><ele>56.66666666666667</ele><time>2026-04-18T06:01:12.45Z</time></trkpt><trkpt lat="43.5337592" lon="10.7014059"><ele>57.33333333333333</ele><time>2026-04-18T06:01:13.459Z</time></trkpt><trkpt lat="43.5339403" lon="10.701373"><ele>58.0</ele><time>2026-04-18T06:01:14.47Z</time></trkpt><trkpt lat="43.5341216" lon="10.7013382"><ele>58.0</ele><time>2026-04-18T06:01:15.451Z</time></trkpt><trkpt lat="43.5343051" lon="10.7012947"><ele>58.0</ele><time>2026-04-18T06:01:16.456Z</time></trkpt><trkpt lat="43.5344842" lon="10.7012519"><ele>58.0</ele><time>2026-04-18T06:01:17.455Z</time></trkpt><trkpt lat="43.5348273" lon="10.7011707"><ele>57.33333333333333</ele><time>2026-04-18T06:01:19.314Z</time></trkpt><trkpt lat="43.5349932" lon="10.7011364"><ele>56.66666666666667</ele><time>2026-04-18T06:01:20.455Z</time></trkpt><trkpt lat="43.5351636" lon="10.7011111"><ele>56.0</ele><time>2026-04-18T06:01:21.386Z</time></trkpt><trkpt lat="43.5353319" lon="10.7010842"><ele>56.333333333333336</ele><time>2026-04-18T06:01:22.324Z</time></trkpt><trkpt lat="43.5354923" lon="10.7010539"><ele>56.66666666666667</ele><time>2026-04-18T06:01:23.445Z</time></trkpt><trkpt lat="43.5356483" lon="10.7010194"><ele>57.0</ele><time>2026-04-18T06:01:24.46Z</time></trkpt><trkpt lat="43.5357834" lon="10.7009926"><ele>57.0</ele><time>2026-04-18T06:01:25.46Z</time></trkpt><trkpt lat="43.5360097" lon="10.7009455"><ele>57.0</ele><time>2026-04-18T06:01:27.44Z</time></trkpt><trkpt lat="43.5362297" lon="10.7008956"><ele>56.5</ele><time>2026-04-18T06:01:29.452Z</time></trkpt><trkpt lat="43.5363457" lon="10.7008704"><ele>56.0</ele><time>2026-04-18T06:01:30.454Z</time></trkpt><trkpt lat="43.5364672" lon="10.7008451"><ele>55.5</ele><time>2026-04-18T06:01:31.454Z</time></trkpt><trkpt lat="43.5365856" lon="10.7008185"><ele>55.0</ele><time>2026-04-18T06:01:32.456Z</time></trkpt><trkpt lat="43.5368266" lon="10.700774"><ele>55.0</ele><time>2026-04-18T06:01:34.331Z</time></trkpt><trkpt lat="43.5369378" lon="10.7007546"><ele>55.0</ele><time>2026-04-18T06:01:35.456Z</time></trkpt><trkpt lat="43.5370385" lon="10.700734"><ele>55.0</ele><time>2026-04-18T06:01:36.453Z</time></trkpt><trkpt lat="43.5371303" lon="10.7007163"><ele>55.0</ele><time>2026-04-18T06:01:37.468Z</time></trkpt><trkpt lat="43.5372175" lon="10.7006965"><ele>55.0</ele><time>2026-04-18T06:01:38.454Z</time></trkpt><trkpt lat="43.5373433" lon="10.7006839"><ele>55.166666666666664</ele><time>2026-04-18T06:01:40.456Z</time></trkpt><trkpt lat="43.5374049" lon="10.7007732"><ele>55.33333333333333</ele><time>2026-04-18T06:01:42.446Z</time></trkpt><trkpt lat="43.5374202" lon="10.7008629"><ele>55.5</ele><time>2026-04-18T06:01:43.445Z</time></trkpt><trkpt lat="43.5374341" lon="10.7009744"><ele>55.66666666666667</ele><time>2026-04-18T06:01:44.453Z</time></trkpt><trkpt lat="43.5374472" lon="10.7011061"><ele>55.833333333333336</ele><time>2026-04-18T06:01:45.45Z</time></trkpt><trkpt lat="43.5374609" lon="10.7012458"><ele>56.0</ele><time>2026-04-18T06:01:46.445Z</time></trkpt><trkpt lat="43.5374848" lon="10.7013894"><ele>56.0</ele><time>2026-04-18T06:01:47.441Z</time></trkpt><trkpt lat="43.5375085" lon="10.7015405"><ele>56.0</ele><time>2026-04-18T06:01:48.459Z</time></trkpt><trkpt lat="43.5375292" lon="10.7016817"><ele>56.0</ele><time>2026-04-18T06:01:49.468Z</time></trkpt><trkpt lat="43.5375475" lon="10.70182"><ele>56.0</ele><time>2026-04-18T06:01:50.431Z</time></trkpt><trkpt lat="43.537582" lon="10.7020845"><ele>55.50000000000001</ele><time>2026-04-18T06:01:52.314Z</time></trkpt><trkpt lat="43.5375993" lon="10.70221"><ele>55.0</ele><time>2026-04-18T06:01:53.315Z</time></trkpt><trkpt lat="43.537619" lon="10.7023275"><ele>54.5</ele><time>2026-04-18T06:01:54.333Z</time></trkpt><trkpt lat="43.5376393" lon="10.7024239"><ele>54.0</ele><time>2026-04-18T06:01:55.328Z</time></trkpt><trkpt lat="43.5376634" lon="10.7025097"><ele>53.50000000000001</ele><time>2026-04-18T06:01:56.321Z</time></trkpt><trkpt lat="43.5377428" lon="10.7026318"><ele>53.0</ele><time>2026-04-18T06:01:58.321Z</time></trkpt><trkpt lat="43.5378086" lon="10.7026958"><ele>52.8</ele><time>2026-04-18T06:01:59.323Z</time></trkpt><trkpt lat="43.5378861" lon="10.7027674"><ele>52.599999999999994</ele><time>2026-04-18T06:02:00.321Z</time></trkpt><trkpt lat="43.5379723" lon="10.7028447"><ele>52.400000000000006</ele><time>2026-04-18T06:02:01.323Z</time></trkpt><trkpt lat="43.5380693" lon="10.7029311"><ele>52.2</ele><time>2026-04-18T06:02:02.324Z</time></trkpt><trkpt lat="43.5381701" lon="10.703023"><ele>52.0</ele><time>2026-04-18T06:02:04.372Z</time></trkpt><trkpt lat="43.5383517" lon="10.7031923"><ele>52.0</ele><time>2026-04-18T06:02:05.418Z</time></trkpt><trkpt lat="43.538431" lon="10.7032642"><ele>52.0</ele><time>2026-04-18T06:02:06.458Z</time></trkpt><trkpt lat="43.5385743" lon="10.7034275"><ele>52.0</ele><time>2026-04-18T06:02:08.32Z</time></trkpt><trkpt lat="43.538621" lon="10.703524"><ele>52.0</ele><time>2026-04-18T06:02:09.458Z</time></trkpt><trkpt lat="43.5386432" lon="10.7036384"><ele>51.6</ele><time>2026-04-18T06:02:10.447Z</time></trkpt><trkpt lat="43.5386519" lon="10.7037685"><ele>51.2</ele><time>2026-04-18T06:02:11.457Z</time></trkpt><trkpt lat="43.5386536" lon="10.7038982"><ele>50.8</ele><time>2026-04-18T06:02:12.457Z</time></trkpt><trkpt lat="43.538675" lon="10.7040233"><ele>50.4</ele><time>2026-04-18T06:02:13.467Z</time></trkpt><trkpt lat="43.5387077" lon="10.7041351"><ele>50.0</ele><time>2026-04-18T06:02:14.455Z</time></trkpt><trkpt lat="43.5387568" lon="10.7042347"><ele>50.00000000000001</ele><time>2026-04-18T06:02:15.457Z</time></trkpt><trkpt lat="43.5388274" lon="10.7043316"><ele>50.0</ele><time>2026-04-18T06:02:16.459Z</time></trkpt><trkpt lat="43.5388992" lon="10.7044168"><ele>50.0</ele><time>2026-04-18T06:02:17.466Z</time></trkpt><trkpt lat="43.5389652" lon="10.7044967"><ele>50.0</ele><time>2026-04-18T06:02:18.453Z</time></trkpt><trkpt lat="43.5390257" lon="10.704584"><ele>50.00000000000001</ele><time>2026-04-18T06:02:19.449Z</time></trkpt><trkpt lat="43.5390649" lon="10.7046792"><ele>50.0</ele><time>2026-04-18T06:02:20.42Z</time></trkpt><trkpt lat="43.539082" lon="10.70479"><ele>50.0</ele><time>2026-04-18T06:02:21.465Z</time></trkpt><trkpt lat="43.5390863" lon="10.7049158"><ele>50.0</ele><time>2026-04-18T06:02:22.45Z</time></trkpt><trkpt lat="43.5390691" lon="10.7051937"><ele>50.0</ele><time>2026-04-18T06:02:24.322Z</time></trkpt><trkpt lat="43.5390594" lon="10.7053426"><ele>50.0</ele><time>2026-04-18T06:02:25.467Z</time></trkpt><trkpt lat="43.5390437" lon="10.7056423"><ele>50.0</ele><time>2026-04-18T06:02:27.321Z</time></trkpt><trkpt lat="43.5390443" lon="10.7057899"><ele>50.0</ele><time>2026-04-18T06:02:28.324Z</time></trkpt><trkpt lat="43.539049" lon="10.705943"><ele>50.0</ele><time>2026-04-18T06:02:29.325Z</time></trkpt><trkpt lat="43.5390649" lon="10.7062616"><ele>49.8</ele><time>2026-04-18T06:02:31.449Z</time></trkpt><trkpt lat="43.5390713" lon="10.7064074"><ele>49.6</ele><time>2026-04-18T06:02:32.454Z</time></trkpt><trkpt lat="43.5390729" lon="10.7065544"><ele>49.400000000000006</ele><time>2026-04-18T06:02:33.451Z</time></trkpt><trkpt lat="43.5390777" lon="10.7067017"><ele>49.2</ele><time>2026-04-18T06:02:34.455Z</time></trkpt><trkpt lat="43.539087" lon="10.7068415"><ele>49.0</ele><time>2026-04-18T06:02:35.467Z</time></trkpt><trkpt lat="43.5390916" lon="10.7069836"><ele>49.0</ele><time>2026-04-18T06:02:36.471Z</time></trkpt><trkpt lat="43.5390952" lon="10.7072254"><ele>49.0</ele><time>2026-04-18T06:02:38.444Z</time></trkpt><trkpt lat="43.5390913" lon="10.7073282"><ele>49.0</ele><time>2026-04-18T06:02:39.447Z</time></trkpt><trkpt lat="43.5390773" lon="10.707421"><ele>49.0</ele><time>2026-04-18T06:02:40.47Z</time></trkpt><trkpt lat="43.5389969" lon="10.7075797"><ele>49.0</ele><time>2026-04-18T06:02:42.319Z</time></trkpt><trkpt lat="43.5389421" lon="10.7076373"><ele>49.0</ele><time>2026-04-18T06:02:43.413Z</time></trkpt><trkpt lat="43.538886" lon="10.7077605"><ele>49.0</ele><time>2026-04-18T06:02:45.451Z</time></trkpt><trkpt lat="43.5389127" lon="10.7079414"><ele>49.0</ele><time>2026-04-18T06:02:47.431Z</time></trkpt><trkpt lat="43.5389531" lon="10.7080446"><ele>49.0</ele><time>2026-04-18T06:02:48.445Z</time></trkpt><trkpt lat="43.539006" lon="10.7081479"><ele>49.0</ele><time>2026-04-18T06:02:49.446Z</time></trkpt><trkpt lat="43.5390632" lon="10.7082663"><ele>49.0</ele><time>2026-04-18T06:02:50.429Z</time></trkpt><trkpt lat="43.5391216" lon="10.7083896"><ele>49.0</ele><time>2026-04-18T06:02:51.448Z</time></trkpt><trkpt lat="43.539178" lon="10.7085136"><ele>49.0</ele><time>2026-04-18T06:02:52.462Z</time></trkpt><trkpt lat="43.5392334" lon="10.7086343"><ele>49.0</ele><time>2026-04-18T06:02:53.459Z</time></trkpt><trkpt lat="43.5392891" lon="10.708758"><ele>49.0</ele><time>2026-04-18T06:02:54.455Z</time></trkpt><trkpt lat="43.5393519" lon="10.7088776"><ele>49.0</ele><time>2026-04-18T06:02:55.43Z</time></trkpt><trkpt lat="43.5394233" lon="10.7089971"><ele>49.0</ele><time>2026-04-18T06:02:56.453Z</time></trkpt><trkpt lat="43.5395" lon="10.7091007"><ele>49.0</ele><time>2026-04-18T06:02:57.45Z</time></trkpt><trkpt lat="43.5395718" lon="10.7091944"><ele>49.0</ele><time>2026-04-18T06:02:58.444Z</time></trkpt><trkpt lat="43.5396959" lon="10.7093561"><ele>49.0</ele><time>2026-04-18T06:03:00.425Z</time></trkpt><trkpt lat="43.539744" lon="10.709432"><ele>49.0</ele><time>2026-04-18T06:03:01.453Z</time></trkpt><trkpt lat="43.5397787" lon="10.7095094"><ele>49.0</ele><time>2026-04-18T06:03:02.425Z</time></trkpt><trkpt lat="43.5398026" lon="10.7096007"><ele>49.0</ele><time>2026-04-18T06:03:03.452Z</time></trkpt><trkpt lat="43.539816" lon="10.7097008"><ele>49.0</ele><time>2026-04-18T06:03:04.457Z</time></trkpt><trkpt lat="43.5398238" lon="10.7098127"><ele>49.0</ele><time>2026-04-18T06:03:05.449Z</time></trkpt><trkpt lat="43.5398376" lon="10.7099273"><ele>49.0</ele><time>2026-04-18T06:03:06.456Z</time></trkpt><trkpt lat="43.5398581" lon="10.7100501"><ele>48.99999999999999</ele><time>2026-04-18T06:03:07.448Z</time></trkpt><trkpt lat="43.5398802" lon="10.7101707"><ele>49.0</ele><time>2026-04-18T06:03:08.46Z</time></trkpt><trkpt lat="43.539907" lon="10.7102806"><ele>49.0</ele><time>2026-04-18T06:03:09.459Z</time></trkpt><trkpt lat="43.5399328" lon="10.7103818"><ele>49.0</ele><time>2026-04-18T06:03:10.458Z</time></trkpt><trkpt lat="43.5399573" lon="10.7104777"><ele>48.99999999999999</ele><time>2026-04-18T06:03:11.414Z</time></trkpt><trkpt lat="43.5399803" lon="10.7105668"><ele>49.0</ele><time>2026-04-18T06:03:12.461Z</time></trkpt><trkpt lat="43.540004" lon="10.7106619"><ele>48.2</ele><time>2026-04-18T06:03:13.458Z</time></trkpt><trkpt lat="43.540043" lon="10.7108577"><ele>47.400000000000006</ele><time>2026-04-18T06:03:15.456Z</time></trkpt><trkpt lat="43.5400612" lon="10.7109602"><ele>46.6</ele><time>2026-04-18T06:03:16.452Z</time></trkpt><trkpt lat="43.5400847" lon="10.7110686"><ele>45.8</ele><time>2026-04-18T06:03:17.435Z</time></trkpt><trkpt lat="43.5401235" lon="10.7111879"><ele>45.0</ele><time>2026-04-18T06:03:18.464Z</time></trkpt><trkpt lat="43.5401706" lon="10.7112937"><ele>44.8</ele><time>2026-04-18T06:03:19.449Z</time></trkpt><trkpt lat="43.540252" lon="10.711397"><ele>44.6</ele><time>2026-04-18T06:03:20.45Z</time></trkpt><trkpt lat="43.5403283" lon="10.7115007"><ele>44.400000000000006</ele><time>2026-04-18T06:03:21.457Z</time></trkpt><trkpt lat="43.5404071" lon="10.711601"><ele>44.2</ele><time>2026-04-18T06:03:22.42Z</time></trkpt><trkpt lat="43.5404853" lon="10.7116933"><ele>44.0</ele><time>2026-04-18T06:03:23.453Z</time></trkpt><trkpt lat="43.5405596" lon="10.7117759"><ele>43.800000000000004</ele><time>2026-04-18T06:03:24.426Z</time></trkpt><trkpt lat="43.5406358" lon="10.7118441"><ele>43.6</ele><time>2026-04-18T06:03:25.472Z</time></trkpt><trkpt lat="43.540717" lon="10.7118965"><ele>43.4</ele><time>2026-04-18T06:03:26.452Z</time></trkpt><trkpt lat="43.5408144" lon="10.7119183"><ele>43.2</ele><time>2026-04-18T06:03:27.458Z</time></trkpt><trkpt lat="43.5409245" lon="10.7119242"><ele>43.0</ele><time>2026-04-18T06:03:28.455Z</time></trkpt><trkpt lat="43.5410352" lon="10.7119258"><ele>43.0</ele><time>2026-04-18T06:03:29.457Z</time></trkpt><trkpt lat="43.5411524" lon="10.7119261"><ele>43.0</ele><time>2026-04-18T06:03:30.416Z</time></trkpt><trkpt lat="43.5412768" lon="10.7119329"><ele>43.0</ele><time>2026-04-18T06:03:31.448Z</time></trkpt><trkpt lat="43.5414971" lon="10.7119425"><ele>43.0</ele><time>2026-04-18T06:03:33.457Z</time></trkpt><trkpt lat="43.5415924" lon="10.7119469"><ele>43.0</ele><time>2026-04-18T06:03:34.436Z</time></trkpt><trkpt lat="43.5416786" lon="10.7119473"><ele>43.0</ele><time>2026-04-18T06:03:35.439Z</time></trkpt><trkpt lat="43.5417484" lon="10.7119336"><ele>43.0</ele><time>2026-04-18T06:03:36.442Z</time></trkpt><trkpt lat="43.5418076" lon="10.71189"><ele>43.0</ele><time>2026-04-18T06:03:37.455Z</time></trkpt><trkpt lat="43.5418542" lon="10.7117604"><ele>43.0</ele><time>2026-04-18T06:03:39.417Z</time></trkpt><trkpt lat="43.5418226" lon="10.711565"><ele>43.25</ele><time>2026-04-18T06:03:41.461Z</time></trkpt><trkpt lat="43.5418001" lon="10.7114361"><ele>43.5</ele><time>2026-04-18T06:03:42.457Z</time></trkpt><trkpt lat="43.5417787" lon="10.7113027"><ele>43.75</ele><time>2026-04-18T06:03:43.447Z</time></trkpt><trkpt lat="43.5417696" lon="10.711161"><ele>44.0</ele><time>2026-04-18T06:03:44.461Z</time></trkpt><trkpt lat="43.5417879" lon="10.7109221"><ele>44.0</ele><time>2026-04-18T06:03:46.461Z</time></trkpt><trkpt lat="43.5418782" lon="10.7107836"><ele>44.0</ele><time>2026-04-18T06:03:48.318Z</time></trkpt><trkpt lat="43.5420088" lon="10.7107375"><ele>44.0</ele><time>2026-04-18T06:03:50.437Z</time></trkpt><trkpt lat="43.5421897" lon="10.7107634"><ele>44.25</ele><time>2026-04-18T06:03:52.455Z</time></trkpt><trkpt lat="43.5422985" lon="10.7107796"><ele>44.5</ele><time>2026-04-18T06:03:53.446Z</time></trkpt><trkpt lat="43.5424151" lon="10.7107951"><ele>44.75</ele><time>2026-04-18T06:03:54.456Z</time></trkpt><trkpt lat="43.5425449" lon="10.7107927"><ele>45.0</ele><time>2026-04-18T06:03:55.456Z</time></trkpt><trkpt lat="43.5427792" lon="10.7107615"><ele>45.0</ele><time>2026-04-18T06:03:57.436Z</time></trkpt><trkpt lat="43.5428725" lon="10.7107208"><ele>45.0</ele><time>2026-04-18T06:03:58.44Z</time></trkpt><trkpt lat="43.5429543" lon="10.7106769"><ele>45.0</ele><time>2026-04-18T06:03:59.44Z</time></trkpt><trkpt lat="43.5430212" lon="10.7106269"><ele>45.0</ele><time>2026-04-18T06:04:00.448Z</time></trkpt><trkpt lat="43.5430935" lon="10.71058"><ele>45.0</ele><time>2026-04-18T06:04:02.437Z</time></trkpt><trkpt lat="43.5431665" lon="10.7106773"><ele>45.0</ele><time>2026-04-18T06:04:05.314Z</time></trkpt><trkpt lat="43.5431756" lon="10.7107725"><ele>45.0</ele><time>2026-04-18T06:04:06.317Z</time></trkpt><trkpt lat="43.5431836" lon="10.7108995"><ele>45.0</ele><time>2026-04-18T06:04:07.442Z</time></trkpt><trkpt lat="43.5432016" lon="10.7110437"><ele>45.0</ele><time>2026-04-18T06:04:08.422Z</time></trkpt><trkpt lat="43.5432224" lon="10.7112076"><ele>45.0</ele><time>2026-04-18T06:04:09.422Z</time></trkpt><trkpt lat="43.5432439" lon="10.7113797"><ele>45.0</ele><time>2026-04-18T06:04:10.456Z</time></trkpt><trkpt lat="43.5432669" lon="10.7115621"><ele>44.333333333333336</ele><time>2026-04-18T06:04:11.458Z</time></trkpt><trkpt lat="43.5432918" lon="10.7117444"><ele>43.66666666666667</ele><time>2026-04-18T06:04:12.455Z</time></trkpt><trkpt lat="43.543317" lon="10.7119291"><ele>43.0</ele><time>2026-04-18T06:04:13.44Z</time></trkpt><trkpt lat="43.5433682" lon="10.7123201"><ele>43.0</ele><time>2026-04-18T06:04:15.45Z</time></trkpt><trkpt lat="43.543393" lon="10.7125218"><ele>43.0</ele><time>2026-04-18T06:04:16.452Z</time></trkpt><trkpt lat="43.543422" lon="10.7127257"><ele>43.0</ele><time>2026-04-18T06:04:17.455Z</time></trkpt><trkpt lat="43.5434511" lon="10.7129208"><ele>43.0</ele><time>2026-04-18T06:04:18.457Z</time></trkpt><trkpt lat="43.5434794" lon="10.713125"><ele>42.66666666666667</ele><time>2026-04-18T06:04:19.449Z</time></trkpt><trkpt lat="43.5435084" lon="10.7133356"><ele>42.333333333333336</ele><time>2026-04-18T06:04:20.426Z</time></trkpt><trkpt lat="43.5435375" lon="10.713547"><ele>42.0</ele><time>2026-04-18T06:04:21.323Z</time></trkpt><trkpt lat="43.5435653" lon="10.7137586"><ele>41.75</ele><time>2026-04-18T06:04:22.32Z</time></trkpt><trkpt lat="43.5435921" lon="10.7139576"><ele>41.5</ele><time>2026-04-18T06:04:23.325Z</time></trkpt><trkpt lat="43.5436174" lon="10.7141568"><ele>41.25</ele><time>2026-04-18T06:04:24.319Z</time></trkpt><trkpt lat="43.5436419" lon="10.7143479"><ele>41.0</ele><time>2026-04-18T06:04:25.321Z</time></trkpt><trkpt lat="43.5436653" lon="10.7145197"><ele>41.83333333333333</ele><time>2026-04-18T06:04:26.32Z</time></trkpt><trkpt lat="43.5436908" lon="10.7146686"><ele>42.666666666666664</ele><time>2026-04-18T06:04:27.318Z</time></trkpt><trkpt lat="43.5437208" lon="10.7148005"><ele>43.5</ele><time>2026-04-18T06:04:28.325Z</time></trkpt><trkpt lat="43.5437464" lon="10.7149129"><ele>44.333333333333336</ele><time>2026-04-18T06:04:29.325Z</time></trkpt><trkpt lat="43.5437646" lon="10.7149963"><ele>45.16666666666667</ele><time>2026-04-18T06:04:30.32Z</time></trkpt><trkpt lat="43.5437745" lon="10.7151084"><ele>46.0</ele><time>2026-04-18T06:04:32.319Z</time></trkpt><trkpt lat="43.543695" lon="10.7151379"><ele>46.0</ele><time>2026-04-18T06:04:35.323Z</time></trkpt><trkpt lat="43.5436341" lon="10.7149656"><ele>46.0</ele><time>2026-04-18T06:04:37.322Z</time></trkpt><trkpt lat="43.5436053" lon="10.7148381"><ele>46.0</ele><time>2026-04-18T06:04:38.323Z</time></trkpt><trkpt lat="43.5435716" lon="10.714695"><ele>46.0</ele><time>2026-04-18T06:04:39.322Z</time></trkpt><trkpt lat="43.543539" lon="10.7145677"><ele>46.0</ele><time>2026-04-18T06:04:40.325Z</time></trkpt><trkpt lat="43.5435088" lon="10.7144555"><ele>45.16666666666667</ele><time>2026-04-18T06:04:41.319Z</time></trkpt><trkpt lat="43.5434764" lon="10.7143507"><ele>44.333333333333336</ele><time>2026-04-18T06:04:42.321Z</time></trkpt><trkpt lat="43.5434269" lon="10.7142538"><ele>43.5</ele><time>2026-04-18T06:04:43.327Z</time></trkpt><trkpt lat="43.5433648" lon="10.7141712"><ele>42.666666666666664</ele><time>2026-04-18T06:04:44.313Z</time></trkpt><trkpt lat="43.5432971" lon="10.7141148"><ele>41.83333333333333</ele><time>2026-04-18T06:04:45.32Z</time></trkpt><trkpt lat="43.5432212" lon="10.7140797"><ele>41.0</ele><time>2026-04-18T06:04:46.322Z</time></trkpt><trkpt lat="43.5431241" lon="10.7140644"><ele>41.0</ele><time>2026-04-18T06:04:47.322Z</time></trkpt><trkpt lat="43.5430149" lon="10.7140683"><ele>41.0</ele><time>2026-04-18T06:04:48.322Z</time></trkpt><trkpt lat="43.5428947" lon="10.7140811"><ele>41.0</ele><time>2026-04-18T06:04:49.323Z</time></trkpt><trkpt lat="43.5427764" lon="10.714085"><ele>41.0</ele><time>2026-04-18T06:04:50.321Z</time></trkpt><trkpt lat="43.5426388" lon="10.7140852"><ele>41.0</ele><time>2026-04-18T06:04:51.322Z</time></trkpt><trkpt lat="43.5424816" lon="10.714086"><ele>41.0</ele><time>2026-04-18T06:04:52.322Z</time></trkpt><trkpt lat="43.5423208" lon="10.7140961"><ele>41.0</ele><time>2026-04-18T06:04:53.322Z</time></trkpt><trkpt lat="43.542149" lon="10.7141237"><ele>40.75</ele><time>2026-04-18T06:04:54.327Z</time></trkpt><trkpt lat="43.5419925" lon="10.7141605"><ele>40.5</ele><time>2026-04-18T06:04:55.324Z</time></trkpt><trkpt lat="43.5418466" lon="10.7141993"><ele>40.25</ele><time>2026-04-18T06:04:56.32Z</time></trkpt><trkpt lat="43.5417128" lon="10.7142416"><ele>40.0</ele><time>2026-04-18T06:04:57.327Z</time></trkpt><trkpt lat="43.5415923" lon="10.7142852"><ele>40.0</ele><time>2026-04-18T06:04:58.319Z</time></trkpt><trkpt lat="43.5414716" lon="10.7143297"><ele>40.0</ele><time>2026-04-18T06:04:59.323Z</time></trkpt><trkpt lat="43.5413442" lon="10.7143805"><ele>40.0</ele><time>2026-04-18T06:05:00.326Z</time></trkpt><trkpt lat="43.5412195" lon="10.7144308"><ele>40.0</ele><time>2026-04-18T06:05:01.322Z</time></trkpt><trkpt lat="43.5410939" lon="10.7144765"><ele>41.5</ele><time>2026-04-18T06:05:02.319Z</time></trkpt><trkpt lat="43.5409578" lon="10.714507"><ele>43.0</ele><time>2026-04-18T06:05:03.319Z</time></trkpt><trkpt lat="43.5408187" lon="10.7145281"><ele>44.5</ele><time>2026-04-18T06:05:04.326Z</time></trkpt><trkpt lat="43.5406764" lon="10.7145448"><ele>46.0</ele><time>2026-04-18T06:05:05.323Z</time></trkpt><trkpt lat="43.5405268" lon="10.7145594"><ele>46.0</ele><time>2026-04-18T06:05:06.324Z</time></trkpt><trkpt lat="43.5403859" lon="10.7145669"><ele>46.0</ele><time>2026-04-18T06:05:07.325Z</time></trkpt><trkpt lat="43.5402532" lon="10.7145733"><ele>46.0</ele><time>2026-04-18T06:05:08.329Z</time></trkpt><trkpt lat="43.5401258" lon="10.7145717"><ele>46.0</ele><time>2026-04-18T06:05:09.322Z</time></trkpt><trkpt lat="43.5400399" lon="10.7145455"><ele>46.833333333333336</ele><time>2026-04-18T06:05:10.322Z</time></trkpt><trkpt lat="43.5399359" lon="10.714522"><ele>47.66666666666667</ele><time>2026-04-18T06:05:11.323Z</time></trkpt><trkpt lat="43.5398442" lon="10.7144988"><ele>48.5</ele><time>2026-04-18T06:05:12.317Z</time></trkpt><trkpt lat="43.539757" lon="10.7144817"><ele>49.333333333333336</ele><time>2026-04-18T06:05:13.32Z</time></trkpt><trkpt lat="43.5396759" lon="10.714479"><ele>50.166666666666664</ele><time>2026-04-18T06:05:14.32Z</time></trkpt><trkpt lat="43.5396059" lon="10.7144964"><ele>51.0</ele><time>2026-04-18T06:05:15.326Z</time></trkpt><trkpt lat="43.5395399" lon="10.714536"><ele>51.0</ele><time>2026-04-18T06:05:16.318Z</time></trkpt><trkpt lat="43.5394771" lon="10.7145999"><ele>51.0</ele><time>2026-04-18T06:05:17.321Z</time></trkpt><trkpt lat="43.539413" lon="10.7146845"><ele>51.0</ele><time>2026-04-18T06:05:18.327Z</time></trkpt><trkpt lat="43.5393597" lon="10.7147764"><ele>51.0</ele><time>2026-04-18T06:05:19.328Z</time></trkpt><trkpt lat="43.5393081" lon="10.7148721"><ele>51.0</ele><time>2026-04-18T06:05:20.32Z</time></trkpt><trkpt lat="43.5392618" lon="10.7149313"><ele>51.0</ele><time>2026-04-18T06:05:21.319Z</time></trkpt><trkpt lat="43.5391825" lon="10.7149496"><ele>51.0</ele><time>2026-04-18T06:05:23.459Z</time></trkpt><trkpt lat="43.5391154" lon="10.7148172"><ele>51.0</ele><time>2026-04-18T06:05:25.444Z</time></trkpt><trkpt lat="43.53909" lon="10.7147166"><ele>51.0</ele><time>2026-04-18T06:05:26.459Z</time></trkpt><trkpt lat="43.5390598" lon="10.7145881"><ele>51.0</ele><time>2026-04-18T06:05:27.473Z</time></trkpt><trkpt lat="43.5389539" lon="10.7143648"><ele>49.666666666666664</ele><time>2026-04-18T06:05:29.323Z</time></trkpt><trkpt lat="43.5388831" lon="10.7142797"><ele>48.333333333333336</ele><time>2026-04-18T06:05:30.366Z</time></trkpt><trkpt lat="43.5388063" lon="10.7142144"><ele>47.0</ele><time>2026-04-18T06:05:31.324Z</time></trkpt><trkpt lat="43.5387289" lon="10.7141557"><ele>45.66666666666667</ele><time>2026-04-18T06:05:32.457Z</time></trkpt><trkpt lat="43.5386575" lon="10.71411"><ele>44.333333333333336</ele><time>2026-04-18T06:05:33.418Z</time></trkpt><trkpt lat="43.5385887" lon="10.7140807"><ele>43.0</ele><time>2026-04-18T06:05:34.444Z</time></trkpt><trkpt lat="43.5385234" lon="10.7140451"><ele>43.0</ele><time>2026-04-18T06:05:35.457Z</time></trkpt><trkpt lat="43.5384087" lon="10.7139157"><ele>43.0</ele><time>2026-04-18T06:05:37.32Z</time></trkpt><trkpt lat="43.5383628" lon="10.7138341"><ele>43.0</ele><time>2026-04-18T06:05:38.325Z</time></trkpt><trkpt lat="43.5383243" lon="10.7137446"><ele>43.0</ele><time>2026-04-18T06:05:39.328Z</time></trkpt><trkpt lat="43.5382972" lon="10.7136513"><ele>43.0</ele><time>2026-04-18T06:05:40.324Z</time></trkpt><trkpt lat="43.5382881" lon="10.7134952"><ele>42.833333333333336</ele><time>2026-04-18T06:05:42.312Z</time></trkpt><trkpt lat="43.538311" lon="10.7133519"><ele>42.66666666666667</ele><time>2026-04-18T06:05:44.319Z</time></trkpt><trkpt lat="43.5383034" lon="10.7132386"><ele>42.5</ele><time>2026-04-18T06:05:46.32Z</time></trkpt><trkpt lat="43.5382426" lon="10.7131474"><ele>42.333333333333336</ele><time>2026-04-18T06:05:48.324Z</time></trkpt><trkpt lat="43.5381876" lon="10.7130996"><ele>42.166666666666664</ele><time>2026-04-18T06:05:49.329Z</time></trkpt><trkpt lat="43.5381019" lon="10.7130228"><ele>42.0</ele><time>2026-04-18T06:05:50.323Z</time></trkpt><trkpt lat="43.5380161" lon="10.712923"><ele>42.0</ele><time>2026-04-18T06:05:51.322Z</time></trkpt><trkpt lat="43.5379177" lon="10.7128272"><ele>42.0</ele><time>2026-04-18T06:05:52.318Z</time></trkpt><trkpt lat="43.5378338" lon="10.712725"><ele>42.0</ele><time>2026-04-18T06:05:53.459Z</time></trkpt><trkpt lat="43.537736" lon="10.7126352"><ele>42.0</ele><time>2026-04-18T06:05:54.45Z</time></trkpt><trkpt lat="43.5376315" lon="10.7125162"><ele>42.0</ele><time>2026-04-18T06:05:55.458Z</time></trkpt><trkpt lat="43.5375218" lon="10.712406"><ele>42.0</ele><time>2026-04-18T06:05:56.457Z</time></trkpt><trkpt lat="43.5374011" lon="10.7122963"><ele>42.0</ele><time>2026-04-18T06:05:57.473Z</time></trkpt><trkpt lat="43.5372983" lon="10.7121935"><ele>42.0</ele><time>2026-04-18T06:05:58.452Z</time></trkpt><trkpt lat="43.537205" lon="10.7120953"><ele>42.0</ele><time>2026-04-18T06:05:59.449Z</time></trkpt><trkpt lat="43.5371248" lon="10.7120156"><ele>42.0</ele><time>2026-04-18T06:06:00.452Z</time></trkpt><trkpt lat="43.5370329" lon="10.7119413"><ele>42.0</ele><time>2026-04-18T06:06:01.438Z</time></trkpt><trkpt lat="43.5368256" lon="10.7118421"><ele>42.0</ele><time>2026-04-18T06:06:03.323Z</time></trkpt><trkpt lat="43.5366093" lon="10.7117794"><ele>42.0</ele><time>2026-04-18T06:06:05.446Z</time></trkpt><trkpt lat="43.5364765" lon="10.7117579"><ele>42.0</ele><time>2026-04-18T06:06:06.451Z</time></trkpt><trkpt lat="43.5363431" lon="10.7117418"><ele>42.0</ele><time>2026-04-18T06:06:07.456Z</time></trkpt><trkpt lat="43.5362097" lon="10.7117248"><ele>42.0</ele><time>2026-04-18T06:06:08.453Z</time></trkpt><trkpt lat="43.5360801" lon="10.7117088"><ele>41.75</ele><time>2026-04-18T06:06:09.454Z</time></trkpt><trkpt lat="43.5359586" lon="10.7116913"><ele>41.5</ele><time>2026-04-18T06:06:10.446Z</time></trkpt><trkpt lat="43.5358491" lon="10.7116718"><ele>41.25</ele><time>2026-04-18T06:06:11.464Z</time></trkpt><trkpt lat="43.5357373" lon="10.7116428"><ele>41.0</ele><time>2026-04-18T06:06:12.461Z</time></trkpt><trkpt lat="43.5356341" lon="10.7115933"><ele>41.0</ele><time>2026-04-18T06:06:13.449Z</time></trkpt><trkpt lat="43.5355349" lon="10.711536"><ele>41.0</ele><time>2026-04-18T06:06:14.456Z</time></trkpt><trkpt lat="43.5354278" lon="10.7114916"><ele>41.0</ele><time>2026-04-18T06:06:15.458Z</time></trkpt><trkpt lat="43.5353102" lon="10.7114384"><ele>41.0</ele><time>2026-04-18T06:06:16.454Z</time></trkpt><trkpt lat="43.5351022" lon="10.7113337"><ele>41.33333333333333</ele><time>2026-04-18T06:06:18.463Z</time></trkpt><trkpt lat="43.5348778" lon="10.7112106"><ele>41.666666666666664</ele><time>2026-04-18T06:06:20.321Z</time></trkpt><trkpt lat="43.534762" lon="10.7111527"><ele>42.0</ele><time>2026-04-18T06:06:21.317Z</time></trkpt><trkpt lat="43.5346536" lon="10.7110948"><ele>42.0</ele><time>2026-04-18T06:06:22.32Z</time></trkpt><trkpt lat="43.5345556" lon="10.7110376"><ele>42.0</ele><time>2026-04-18T06:06:23.324Z</time></trkpt><trkpt lat="43.5344721" lon="10.7109799"><ele>42.0</ele><time>2026-04-18T06:06:24.318Z</time></trkpt><trkpt lat="43.534406" lon="10.7109399"><ele>42.0</ele><time>2026-04-18T06:06:25.321Z</time></trkpt><trkpt lat="43.5343216" lon="10.7108898"><ele>42.0</ele><time>2026-04-18T06:06:27.321Z</time></trkpt><trkpt lat="43.5342495" lon="10.7109405"><ele>42.0</ele><time>2026-04-18T06:06:29.321Z</time></trkpt><trkpt lat="43.5342055" lon="10.7110753"><ele>41.8</ele><time>2026-04-18T06:06:31.321Z</time></trkpt><trkpt lat="43.5341805" lon="10.7111696"><ele>41.6</ele><time>2026-04-18T06:06:32.318Z</time></trkpt><trkpt lat="43.5341471" lon="10.7112943"><ele>41.4</ele><time>2026-04-18T06:06:33.325Z</time></trkpt><trkpt lat="43.5341112" lon="10.7114331"><ele>41.199999999999996</ele><time>2026-04-18T06:06:34.315Z</time></trkpt><trkpt lat="43.5340676" lon="10.7115587"><ele>41.0</ele><time>2026-04-18T06:06:35.311Z</time></trkpt><trkpt lat="43.5340342" lon="10.7116584"><ele>41.0</ele><time>2026-04-18T06:06:36.32Z</time></trkpt><trkpt lat="43.5339515" lon="10.7117576"><ele>41.0</ele><time>2026-04-18T06:06:38.321Z</time></trkpt><trkpt lat="43.5338893" lon="10.7117716"><ele>41.0</ele><time>2026-04-18T06:06:39.398Z</time></trkpt><trkpt lat="43.5338067" lon="10.7117898"><ele>41.0</ele><time>2026-04-18T06:06:40.442Z</time></trkpt><trkpt lat="43.5337154" lon="10.7118125"><ele>41.0</ele><time>2026-04-18T06:06:41.441Z</time></trkpt><trkpt lat="43.5336186" lon="10.7118454"><ele>41.0</ele><time>2026-04-18T06:06:42.438Z</time></trkpt><trkpt lat="43.5335161" lon="10.7118811"><ele>42.33333333333333</ele><time>2026-04-18T06:06:43.406Z</time></trkpt><trkpt lat="43.5334081" lon="10.7119227"><ele>43.666666666666664</ele><time>2026-04-18T06:06:44.417Z</time></trkpt><trkpt lat="43.5332942" lon="10.7119686"><ele>45.0</ele><time>2026-04-18T06:06:45.324Z</time></trkpt><trkpt lat="43.5330656" lon="10.7120617"><ele>45.0</ele><time>2026-04-18T06:06:47.433Z</time></trkpt><trkpt lat="43.5329433" lon="10.7121087"><ele>45.0</ele><time>2026-04-18T06:06:48.428Z</time></trkpt><trkpt lat="43.5328198" lon="10.7121568"><ele>45.0</ele><time>2026-04-18T06:06:49.44Z</time></trkpt><trkpt lat="43.532696" lon="10.7122054"><ele>45.0</ele><time>2026-04-18T06:06:50.406Z</time></trkpt><trkpt lat="43.5325705" lon="10.7122502"><ele>44.75</ele><time>2026-04-18T06:06:51.414Z</time></trkpt><trkpt lat="43.5324455" lon="10.7123006"><ele>44.5</ele><time>2026-04-18T06:06:52.441Z</time></trkpt><trkpt lat="43.5323181" lon="10.7123534"><ele>44.25</ele><time>2026-04-18T06:06:53.446Z</time></trkpt><trkpt lat="43.5321854" lon="10.7124075"><ele>44.0</ele><time>2026-04-18T06:06:54.437Z</time></trkpt><trkpt lat="43.5319169" lon="10.7125157"><ele>43.33333333333333</ele><time>2026-04-18T06:06:56.325Z</time></trkpt><trkpt lat="43.5317917" lon="10.7125706"><ele>42.666666666666664</ele><time>2026-04-18T06:06:57.439Z</time></trkpt><trkpt lat="43.5316796" lon="10.7126221"><ele>42.0</ele><time>2026-04-18T06:06:58.437Z</time></trkpt><trkpt lat="43.5314806" lon="10.7127158"><ele>42.2</ele><time>2026-04-18T06:07:00.433Z</time></trkpt><trkpt lat="43.5313147" lon="10.7127849"><ele>42.400000000000006</ele><time>2026-04-18T06:07:02.33Z</time></trkpt><trkpt lat="43.5312436" lon="10.712815"><ele>42.599999999999994</ele><time>2026-04-18T06:07:03.325Z</time></trkpt><trkpt lat="43.5311791" lon="10.7128427"><ele>42.8</ele><time>2026-04-18T06:07:04.438Z</time></trkpt><trkpt lat="43.5311181" lon="10.7128685"><ele>43.0</ele><time>2026-04-18T06:07:05.446Z</time></trkpt><trkpt lat="43.5310098" lon="10.7129158"><ele>43.0</ele><time>2026-04-18T06:07:07.324Z</time></trkpt><trkpt lat="43.5308973" lon="10.7129654"><ele>43.0</ele><time>2026-04-18T06:07:09.321Z</time></trkpt><trkpt lat="43.5307997" lon="10.7130079"><ele>43.0</ele><time>2026-04-18T06:07:11.317Z</time></trkpt><trkpt lat="43.5306991" lon="10.7130524"><ele>43.0</ele><time>2026-04-18T06:07:13.323Z</time></trkpt><trkpt lat="43.5305973" lon="10.7130962"><ele>43.0</ele><time>2026-04-18T06:07:15.458Z</time></trkpt><trkpt lat="43.5305349" lon="10.7131226"><ele>43.0</ele><time>2026-04-18T06:07:16.453Z</time></trkpt><trkpt lat="43.5304622" lon="10.7131493"><ele>43.0</ele><time>2026-04-18T06:07:17.457Z</time></trkpt><trkpt lat="43.5303789" lon="10.7131816"><ele>43.0</ele><time>2026-04-18T06:07:18.379Z</time></trkpt><trkpt lat="43.5302842" lon="10.7132173"><ele>43.0</ele><time>2026-04-18T06:07:19.43Z</time></trkpt><trkpt lat="43.5301791" lon="10.7132524"><ele>43.0</ele><time>2026-04-18T06:07:20.459Z</time></trkpt><trkpt lat="43.5300654" lon="10.7132876"><ele>43.25</ele><time>2026-04-18T06:07:21.454Z</time></trkpt><trkpt lat="43.5299394" lon="10.7133342"><ele>43.5</ele><time>2026-04-18T06:07:22.448Z</time></trkpt><trkpt lat="43.5298116" lon="10.7133832"><ele>43.75</ele><time>2026-04-18T06:07:23.459Z</time></trkpt><trkpt lat="43.5296827" lon="10.7134375"><ele>44.0</ele><time>2026-04-18T06:07:24.457Z</time></trkpt><trkpt lat="43.5295516" lon="10.7134899"><ele>44.33333333333333</ele><time>2026-04-18T06:07:25.464Z</time></trkpt><trkpt lat="43.5294259" lon="10.7135398"><ele>44.666666666666664</ele><time>2026-04-18T06:07:26.448Z</time></trkpt><trkpt lat="43.5293052" lon="10.7135906"><ele>45.0</ele><time>2026-04-18T06:07:27.46Z</time></trkpt><trkpt lat="43.5290782" lon="10.7136866"><ele>45.0</ele><time>2026-04-18T06:07:29.326Z</time></trkpt><trkpt lat="43.5289518" lon="10.7137413"><ele>45.0</ele><time>2026-04-18T06:07:30.461Z</time></trkpt><trkpt lat="43.5288197" lon="10.7137991"><ele>45.0</ele><time>2026-04-18T06:07:31.457Z</time></trkpt><trkpt lat="43.5286697" lon="10.7138591"><ele>45.0</ele><time>2026-04-18T06:07:32.422Z</time></trkpt><trkpt lat="43.5285254" lon="10.7139151"><ele>45.0</ele><time>2026-04-18T06:07:33.451Z</time></trkpt><trkpt lat="43.5283741" lon="10.713974"><ele>45.0</ele><time>2026-04-18T06:07:34.459Z</time></trkpt><trkpt lat="43.5282187" lon="10.7140345"><ele>45.0</ele><time>2026-04-18T06:07:35.456Z</time></trkpt><trkpt lat="43.5280563" lon="10.7141001"><ele>45.0</ele><time>2026-04-18T06:07:36.453Z</time></trkpt><trkpt lat="43.5278957" lon="10.7141649"><ele>45.0</ele><time>2026-04-18T06:07:37.36Z</time></trkpt><trkpt lat="43.5277416" lon="10.7142266"><ele>45.0</ele><time>2026-04-18T06:07:38.455Z</time></trkpt><trkpt lat="43.5275977" lon="10.714286"><ele>45.0</ele><time>2026-04-18T06:07:39.458Z</time></trkpt><trkpt lat="43.5274531" lon="10.7143459"><ele>45.0</ele><time>2026-04-18T06:07:40.438Z</time></trkpt><trkpt lat="43.5273112" lon="10.7144042"><ele>45.0</ele><time>2026-04-18T06:07:41.472Z</time></trkpt><trkpt lat="43.5271687" lon="10.7144642"><ele>45.0</ele><time>2026-04-18T06:07:42.447Z</time></trkpt><trkpt lat="43.5270342" lon="10.7145202"><ele>46.75</ele><time>2026-04-18T06:07:43.452Z</time></trkpt><trkpt lat="43.5268981" lon="10.7145762"><ele>48.5</ele><time>2026-04-18T06:07:44.405Z</time></trkpt><trkpt lat="43.5267584" lon="10.714631"><ele>50.25</ele><time>2026-04-18T06:07:45.417Z</time></trkpt><trkpt lat="43.5266245" lon="10.714688"><ele>52.0</ele><time>2026-04-18T06:07:46.455Z</time></trkpt><trkpt lat="43.5264921" lon="10.7147432"><ele>52.0</ele><time>2026-04-18T06:07:47.456Z</time></trkpt><trkpt lat="43.526352" lon="10.7148029"><ele>52.0</ele><time>2026-04-18T06:07:48.458Z</time></trkpt><trkpt lat="43.5262062" lon="10.7148618"><ele>52.0</ele><time>2026-04-18T06:07:49.452Z</time></trkpt><trkpt lat="43.526069" lon="10.7149142"><ele>52.0</ele><time>2026-04-18T06:07:50.427Z</time></trkpt><trkpt lat="43.5259309" lon="10.7149659"><ele>50.5</ele><time>2026-04-18T06:07:51.457Z</time></trkpt><trkpt lat="43.5257991" lon="10.7150182"><ele>49.0</ele><time>2026-04-18T06:07:52.431Z</time></trkpt><trkpt lat="43.5256748" lon="10.7150668"><ele>47.5</ele><time>2026-04-18T06:07:53.436Z</time></trkpt><trkpt lat="43.5255443" lon="10.7151133"><ele>46.0</ele><time>2026-04-18T06:07:54.457Z</time></trkpt><trkpt lat="43.5254123" lon="10.715169"><ele>45.599999999999994</ele><time>2026-04-18T06:07:55.459Z</time></trkpt><trkpt lat="43.5252922" lon="10.7152161"><ele>45.2</ele><time>2026-04-18T06:07:56.461Z</time></trkpt><trkpt lat="43.5251806" lon="10.7152631"><ele>44.8</ele><time>2026-04-18T06:07:57.459Z</time></trkpt><trkpt lat="43.5250776" lon="10.7153052"><ele>44.400000000000006</ele><time>2026-04-18T06:07:58.468Z</time></trkpt><trkpt lat="43.5249853" lon="10.7153371"><ele>44.0</ele><time>2026-04-18T06:07:59.454Z</time></trkpt><trkpt lat="43.5249025" lon="10.7153609"><ele>44.800000000000004</ele><time>2026-04-18T06:08:00.47Z</time></trkpt><trkpt lat="43.5248248" lon="10.7153894"><ele>45.6</ele><time>2026-04-18T06:08:01.462Z</time></trkpt><trkpt lat="43.5247109" lon="10.7154815"><ele>46.4</ele><time>2026-04-18T06:08:03.322Z</time></trkpt><trkpt lat="43.5246331" lon="10.7156209"><ele>47.2</ele><time>2026-04-18T06:08:05.458Z</time></trkpt><trkpt lat="43.5246109" lon="10.7157207"><ele>48.0</ele><time>2026-04-18T06:08:06.449Z</time></trkpt><trkpt lat="43.5245787" lon="10.7159707"><ele>47.0</ele><time>2026-04-18T06:08:08.447Z</time></trkpt><trkpt lat="43.5245726" lon="10.7161277"><ele>46.0</ele><time>2026-04-18T06:08:09.459Z</time></trkpt><trkpt lat="43.524569" lon="10.7162928"><ele>45.0</ele><time>2026-04-18T06:08:10.455Z</time></trkpt><trkpt lat="43.5245696" lon="10.7164412"><ele>44.0</ele><time>2026-04-18T06:08:11.45Z</time></trkpt><trkpt lat="43.524549" lon="10.7166039"><ele>44.0</ele><time>2026-04-18T06:08:12.453Z</time></trkpt><trkpt lat="43.5244731" lon="10.716939"><ele>44.0</ele><time>2026-04-18T06:08:14.314Z</time></trkpt><trkpt lat="43.5244211" lon="10.7171097"><ele>44.0</ele><time>2026-04-18T06:08:15.319Z</time></trkpt><trkpt lat="43.5243621" lon="10.7172826"><ele>44.0</ele><time>2026-04-18T06:08:16.319Z</time></trkpt><trkpt lat="43.5242995" lon="10.7174629"><ele>44.0</ele><time>2026-04-18T06:08:17.328Z</time></trkpt><trkpt lat="43.5242437" lon="10.7176389"><ele>44.0</ele><time>2026-04-18T06:08:18.315Z</time></trkpt><trkpt lat="43.5241907" lon="10.717824"><ele>44.0</ele><time>2026-04-18T06:08:19.32Z</time></trkpt><trkpt lat="43.524143" lon="10.7180112"><ele>44.75</ele><time>2026-04-18T06:08:20.468Z</time></trkpt><trkpt lat="43.5240977" lon="10.7182019"><ele>45.5</ele><time>2026-04-18T06:08:21.435Z</time></trkpt><trkpt lat="43.5240509" lon="10.7183913"><ele>46.25</ele><time>2026-04-18T06:08:22.404Z</time></trkpt><trkpt lat="43.5240018" lon="10.7185907"><ele>47.0</ele><time>2026-04-18T06:08:23.374Z</time></trkpt><trkpt lat="43.5239526" lon="10.7187679"><ele>47.33333333333333</ele><time>2026-04-18T06:08:24.403Z</time></trkpt><trkpt lat="43.5239046" lon="10.7189274"><ele>47.666666666666664</ele><time>2026-04-18T06:08:25.321Z</time></trkpt><trkpt lat="43.5238548" lon="10.7190908"><ele>48.0</ele><time>2026-04-18T06:08:26.43Z</time></trkpt><trkpt lat="43.5237616" lon="10.719436"><ele>47.0</ele><time>2026-04-18T06:08:28.329Z</time></trkpt><trkpt lat="43.5237176" lon="10.7195963"><ele>46.0</ele><time>2026-04-18T06:08:29.43Z</time></trkpt><trkpt lat="43.5236076" lon="10.7199297"><ele>45.0</ele><time>2026-04-18T06:08:31.319Z</time></trkpt><trkpt lat="43.5235434" lon="10.7200942"><ele>45.25</ele><time>2026-04-18T06:08:32.42Z</time></trkpt><trkpt lat="43.5234773" lon="10.7202616"><ele>45.5</ele><time>2026-04-18T06:08:33.413Z</time></trkpt><trkpt lat="43.5234256" lon="10.720412"><ele>45.75</ele><time>2026-04-18T06:08:34.407Z</time></trkpt><trkpt lat="43.523378" lon="10.7205815"><ele>46.0</ele><time>2026-04-18T06:08:35.324Z</time></trkpt><trkpt lat="43.5233357" lon="10.7207431"><ele>46.0</ele><time>2026-04-18T06:08:36.321Z</time></trkpt><trkpt lat="43.5232981" lon="10.7209137"><ele>46.0</ele><time>2026-04-18T06:08:37.327Z</time></trkpt><trkpt lat="43.5232548" lon="10.7210861"><ele>46.0</ele><time>2026-04-18T06:08:38.321Z</time></trkpt><trkpt lat="43.5232121" lon="10.7212457"><ele>46.0</ele><time>2026-04-18T06:08:39.322Z</time></trkpt><trkpt lat="43.5231623" lon="10.7213987"><ele>46.0</ele><time>2026-04-18T06:08:40.326Z</time></trkpt><trkpt lat="43.5230969" lon="10.7215556"><ele>46.0</ele><time>2026-04-18T06:08:41.439Z</time></trkpt><trkpt lat="43.523031" lon="10.7216959"><ele>46.0</ele><time>2026-04-18T06:08:42.425Z</time></trkpt><trkpt lat="43.5229637" lon="10.7218325"><ele>46.0</ele><time>2026-04-18T06:08:43.437Z</time></trkpt><trkpt lat="43.5228927" lon="10.7219623"><ele>47.0</ele><time>2026-04-18T06:08:44.444Z</time></trkpt><trkpt lat="43.5228172" lon="10.7221047"><ele>48.0</ele><time>2026-04-18T06:08:45.422Z</time></trkpt><trkpt lat="43.5227379" lon="10.7222335"><ele>49.0</ele><time>2026-04-18T06:08:46.438Z</time></trkpt><trkpt lat="43.5226554" lon="10.7223577"><ele>50.0</ele><time>2026-04-18T06:08:47.429Z</time></trkpt><trkpt lat="43.5225582" lon="10.7224803"><ele>50.0</ele><time>2026-04-18T06:08:48.447Z</time></trkpt><trkpt lat="43.5224564" lon="10.7225855"><ele>50.0</ele><time>2026-04-18T06:08:49.412Z</time></trkpt><trkpt lat="43.522353" lon="10.722706"><ele>50.0</ele><time>2026-04-18T06:08:50.427Z</time></trkpt><trkpt lat="43.5222521" lon="10.7228067"><ele>50.0</ele><time>2026-04-18T06:08:51.441Z</time></trkpt><trkpt lat="43.5221401" lon="10.7228969"><ele>50.0</ele><time>2026-04-18T06:08:52.44Z</time></trkpt><trkpt lat="43.5220341" lon="10.7229784"><ele>50.0</ele><time>2026-04-18T06:08:53.455Z</time></trkpt><trkpt lat="43.521925" lon="10.7230696"><ele>50.0</ele><time>2026-04-18T06:08:54.435Z</time></trkpt><trkpt lat="43.5218206" lon="10.7231537"><ele>50.0</ele><time>2026-04-18T06:08:55.444Z</time></trkpt><trkpt lat="43.521722" lon="10.7232417"><ele>50.0</ele><time>2026-04-18T06:08:56.442Z</time></trkpt><trkpt lat="43.5216271" lon="10.7233518"><ele>50.0</ele><time>2026-04-18T06:08:57.439Z</time></trkpt><trkpt lat="43.5215459" lon="10.723447"><ele>50.0</ele><time>2026-04-18T06:08:58.44Z</time></trkpt><trkpt lat="43.5214039" lon="10.7236588"><ele>50.0</ele><time>2026-04-18T06:09:00.414Z</time></trkpt><trkpt lat="43.521331" lon="10.7237714"><ele>49.75</ele><time>2026-04-18T06:09:01.438Z</time></trkpt><trkpt lat="43.5212633" lon="10.7238902"><ele>49.5</ele><time>2026-04-18T06:09:02.388Z</time></trkpt><trkpt lat="43.5211913" lon="10.7240206"><ele>49.25</ele><time>2026-04-18T06:09:03.429Z</time></trkpt><trkpt lat="43.521115" lon="10.7241693"><ele>49.0</ele><time>2026-04-18T06:09:04.444Z</time></trkpt><trkpt lat="43.521037" lon="10.7243007"><ele>48.75</ele><time>2026-04-18T06:09:05.436Z</time></trkpt><trkpt lat="43.5209638" lon="10.7244109"><ele>48.5</ele><time>2026-04-18T06:09:06.443Z</time></trkpt><trkpt lat="43.5208966" lon="10.7245138"><ele>48.25</ele><time>2026-04-18T06:09:07.439Z</time></trkpt><trkpt lat="43.5207975" lon="10.7247225"><ele>48.0</ele><time>2026-04-18T06:09:09.43Z</time></trkpt><trkpt lat="43.5207601" lon="10.724933"><ele>48.0</ele><time>2026-04-18T06:09:11.32Z</time></trkpt><trkpt lat="43.5207666" lon="10.7250733"><ele>48.0</ele><time>2026-04-18T06:09:12.39Z</time></trkpt><trkpt lat="43.5207814" lon="10.7252373"><ele>48.0</ele><time>2026-04-18T06:09:13.408Z</time></trkpt><trkpt lat="43.5207969" lon="10.7254172"><ele>48.0</ele><time>2026-04-18T06:09:14.317Z</time></trkpt><trkpt lat="43.5208167" lon="10.7256032"><ele>48.2</ele><time>2026-04-18T06:09:15.316Z</time></trkpt><trkpt lat="43.5208502" lon="10.7257636"><ele>48.4</ele><time>2026-04-18T06:09:16.322Z</time></trkpt><trkpt lat="43.520892" lon="10.7259067"><ele>48.6</ele><time>2026-04-18T06:09:17.326Z</time></trkpt><trkpt lat="43.5209252" lon="10.7260351"><ele>48.800000000000004</ele><time>2026-04-18T06:09:18.32Z</time></trkpt><trkpt lat="43.5209528" lon="10.7261396"><ele>49.0</ele><time>2026-04-18T06:09:19.432Z</time></trkpt><trkpt lat="43.5209504" lon="10.726335"><ele>49.400000000000006</ele><time>2026-04-18T06:09:22.443Z</time></trkpt><trkpt lat="43.520859" lon="10.7264467"><ele>49.8</ele><time>2026-04-18T06:09:24.444Z</time></trkpt><trkpt lat="43.5207777" lon="10.7265159"><ele>50.2</ele><time>2026-04-18T06:09:25.433Z</time></trkpt><trkpt lat="43.5206959" lon="10.7265818"><ele>50.599999999999994</ele><time>2026-04-18T06:09:26.442Z</time></trkpt><trkpt lat="43.5206059" lon="10.7266341"><ele>51.0</ele><time>2026-04-18T06:09:27.445Z</time></trkpt><trkpt lat="43.520515" lon="10.7266884"><ele>51.0</ele><time>2026-04-18T06:09:28.463Z</time></trkpt><trkpt lat="43.5204215" lon="10.726758"><ele>51.0</ele><time>2026-04-18T06:09:29.443Z</time></trkpt><trkpt lat="43.52033" lon="10.7268296"><ele>51.0</ele><time>2026-04-18T06:09:30.434Z</time></trkpt><trkpt lat="43.5202484" lon="10.7269015"><ele>51.0</ele><time>2026-04-18T06:09:31.442Z</time></trkpt><trkpt lat="43.5201721" lon="10.7269674"><ele>51.0</ele><time>2026-04-18T06:09:32.45Z</time></trkpt><trkpt lat="43.5200981" lon="10.7270374"><ele>51.0</ele><time>2026-04-18T06:09:33.434Z</time></trkpt><trkpt lat="43.5200145" lon="10.7271123"><ele>51.0</ele><time>2026-04-18T06:09:34.441Z</time></trkpt><trkpt lat="43.5199359" lon="10.7271798"><ele>51.0</ele><time>2026-04-18T06:09:35.41Z</time></trkpt><trkpt lat="43.5198579" lon="10.7272507"><ele>51.0</ele><time>2026-04-18T06:09:36.423Z</time></trkpt><trkpt lat="43.5197964" lon="10.7273147"><ele>51.0</ele><time>2026-04-18T06:09:37.441Z</time></trkpt><trkpt lat="43.5197482" lon="10.7273827"><ele>51.0</ele><time>2026-04-18T06:09:38.423Z</time></trkpt><trkpt lat="43.5196931" lon="10.7275404"><ele>51.0</ele><time>2026-04-18T06:09:40.415Z</time></trkpt><trkpt lat="43.5196696" lon="10.7276322"><ele>51.0</ele><time>2026-04-18T06:09:41.411Z</time></trkpt><trkpt lat="43.51965" lon="10.7277935"><ele>51.0</ele><time>2026-04-18T06:09:43.327Z</time></trkpt><trkpt lat="43.5196527" lon="10.7279598"><ele>51.0</ele><time>2026-04-18T06:09:45.418Z</time></trkpt><trkpt lat="43.519644" lon="10.7280935"><ele>51.0</ele><time>2026-04-18T06:09:46.405Z</time></trkpt><trkpt lat="43.5196327" lon="10.7282276"><ele>51.833333333333336</ele><time>2026-04-18T06:09:47.325Z</time></trkpt><trkpt lat="43.5196224" lon="10.7283562"><ele>52.66666666666667</ele><time>2026-04-18T06:09:48.324Z</time></trkpt><trkpt lat="43.5196066" lon="10.7284617"><ele>53.5</ele><time>2026-04-18T06:09:49.325Z</time></trkpt><trkpt lat="43.5195989" lon="10.7285631"><ele>54.333333333333336</ele><time>2026-04-18T06:09:50.327Z</time></trkpt><trkpt lat="43.5195988" lon="10.7286666"><ele>55.16666666666667</ele><time>2026-04-18T06:09:51.324Z</time></trkpt><trkpt lat="43.5196035" lon="10.7287581"><ele>56.0</ele><time>2026-04-18T06:09:52.405Z</time></trkpt><trkpt lat="43.5196142" lon="10.7288554"><ele>56.66666666666667</ele><time>2026-04-18T06:09:53.432Z</time></trkpt><trkpt lat="43.5196277" lon="10.7289641"><ele>57.333333333333336</ele><time>2026-04-18T06:09:54.418Z</time></trkpt><trkpt lat="43.5196449" lon="10.7290612"><ele>58.0</ele><time>2026-04-18T06:09:55.435Z</time></trkpt><trkpt lat="43.519657" lon="10.7291643"><ele>58.66666666666667</ele><time>2026-04-18T06:09:56.434Z</time></trkpt><trkpt lat="43.5196683" lon="10.7292645"><ele>59.333333333333336</ele><time>2026-04-18T06:09:57.429Z</time></trkpt><trkpt lat="43.5196971" lon="10.7294604"><ele>60.0</ele><time>2026-04-18T06:09:59.433Z</time></trkpt><trkpt lat="43.5196911" lon="10.7296924"><ele>60.66666666666667</ele><time>2026-04-18T06:10:01.419Z</time></trkpt><trkpt lat="43.5196387" lon="10.7299196"><ele>61.333333333333336</ele><time>2026-04-18T06:10:03.331Z</time></trkpt><trkpt lat="43.5195608" lon="10.7302471"><ele>62.0</ele><time>2026-04-18T06:10:06.315Z</time></trkpt><trkpt lat="43.5195843" lon="10.7303523"><ele>62.833333333333336</ele><time>2026-04-18T06:10:08.313Z</time></trkpt><trkpt lat="43.5195907" lon="10.7304713"><ele>63.66666666666667</ele><time>2026-04-18T06:10:09.319Z</time></trkpt><trkpt lat="43.5195945" lon="10.730585"><ele>64.5</ele><time>2026-04-18T06:10:10.32Z</time></trkpt><trkpt lat="43.5196055" lon="10.7306783"><ele>65.33333333333333</ele><time>2026-04-18T06:10:11.32Z</time></trkpt><trkpt lat="43.51961" lon="10.7307774"><ele>66.16666666666666</ele><time>2026-04-18T06:10:12.455Z</time></trkpt><trkpt lat="43.5196272" lon="10.7308878"><ele>67.0</ele><time>2026-04-18T06:10:14.423Z</time></trkpt><trkpt lat="43.5196374" lon="10.7309848"><ele>69.4</ele><time>2026-04-18T06:10:15.433Z</time></trkpt><trkpt lat="43.519645" lon="10.7310909"><ele>71.80000000000001</ele><time>2026-04-18T06:10:16.459Z</time></trkpt><trkpt lat="43.5196458" lon="10.7311934"><ele>74.2</ele><time>2026-04-18T06:10:17.457Z</time></trkpt><trkpt lat="43.519665" lon="10.7313734"><ele>76.60000000000001</ele><time>2026-04-18T06:10:19.328Z</time></trkpt><trkpt lat="43.5196704" lon="10.7315235"><ele>79.0</ele><time>2026-04-18T06:10:21.449Z</time></trkpt><trkpt lat="43.5197078" lon="10.7316837"><ele>79.0</ele><time>2026-04-18T06:10:23.419Z</time></trkpt><trkpt lat="43.5197378" lon="10.7317923"><ele>79.0</ele><time>2026-04-18T06:10:24.452Z</time></trkpt><trkpt lat="43.5197665" lon="10.7318823"><ele>79.0</ele><time>2026-04-18T06:10:25.459Z</time></trkpt><trkpt lat="43.5197998" lon="10.7319978"><ele>79.0</ele><time>2026-04-18T06:10:26.447Z</time></trkpt><trkpt lat="43.519825" lon="10.7321029"><ele>79.0</ele><time>2026-04-18T06:10:27.465Z</time></trkpt><trkpt lat="43.5198436" lon="10.7321899"><ele>79.0</ele><time>2026-04-18T06:10:28.442Z</time></trkpt><trkpt lat="43.5198651" lon="10.7323231"><ele>80.4</ele><time>2026-04-18T06:10:30.452Z</time></trkpt><trkpt lat="43.519874" lon="10.7324712"><ele>81.80000000000001</ele><time>2026-04-18T06:10:33.384Z</time></trkpt><trkpt lat="43.5198591" lon="10.7326731"><ele>83.19999999999999</ele><time>2026-04-18T06:10:34.321Z</time></trkpt><trkpt lat="43.5198379" lon="10.7327707"><ele>84.6</ele><time>2026-04-18T06:10:35.307Z</time></trkpt><trkpt lat="43.5198326" lon="10.732915"><ele>86.0</ele><time>2026-04-18T06:10:37.324Z</time></trkpt><trkpt lat="43.519844" lon="10.7330032"><ele>87.66666666666667</ele><time>2026-04-18T06:10:38.306Z</time></trkpt><trkpt lat="43.5198484" lon="10.7331025"><ele>89.33333333333334</ele><time>2026-04-18T06:10:39.312Z</time></trkpt><trkpt lat="43.5198553" lon="10.7331905"><ele>91.0</ele><time>2026-04-18T06:10:40.319Z</time></trkpt><trkpt lat="43.519865" lon="10.7332988"><ele>92.66666666666667</ele><time>2026-04-18T06:10:41.318Z</time></trkpt><trkpt lat="43.5198726" lon="10.733413"><ele>94.33333333333333</ele><time>2026-04-18T06:10:42.327Z</time></trkpt><trkpt lat="43.5198763" lon="10.7335085"><ele>96.0</ele><time>2026-04-18T06:10:43.321Z</time></trkpt><trkpt lat="43.5198561" lon="10.7336833"><ele>96.83333333333333</ele><time>2026-04-18T06:10:45.329Z</time></trkpt><trkpt lat="43.519841" lon="10.733774"><ele>97.66666666666666</ele><time>2026-04-18T06:10:46.322Z</time></trkpt><trkpt lat="43.519831" lon="10.733892"><ele>98.5</ele><time>2026-04-18T06:10:48.442Z</time></trkpt><trkpt lat="43.5198275" lon="10.7340194"><ele>99.33333333333333</ele><time>2026-04-18T06:11:39.316Z</time></trkpt><trkpt lat="43.5198197" lon="10.7341089"><ele>100.16666666666666</ele><time>2026-04-18T06:11:41.324Z</time></trkpt><trkpt lat="43.5198135" lon="10.7342343"><ele>101.0</ele><time>2026-04-18T06:11:44.326Z</time></trkpt><trkpt lat="43.5198281" lon="10.7343487"><ele>100.4</ele><time>2026-04-18T06:11:47.315Z</time></trkpt><trkpt lat="43.5199044" lon="10.7344154"><ele>99.8</ele><time>2026-04-18T06:11:50.304Z</time></trkpt><trkpt lat="43.5199762" lon="10.7344644"><ele>99.2</ele><time>2026-04-18T06:11:52.324Z</time></trkpt><trkpt lat="43.5200685" lon="10.7345178"><ele>98.60000000000001</ele><time>2026-04-18T06:11:54.333Z</time></trkpt><trkpt lat="43.5201269" lon="10.7345572"><ele>98.0</ele><time>2026-04-18T06:11:55.325Z</time></trkpt><trkpt lat="43.5202324" lon="10.734645"><ele>97.99999999999999</ele><time>2026-04-18T06:11:57.324Z</time></trkpt><trkpt lat="43.5202927" lon="10.7346946"><ele>98.0</ele><time>2026-04-18T06:11:58.321Z</time></trkpt><trkpt lat="43.5203529" lon="10.7347482"><ele>98.0</ele><time>2026-04-18T06:11:59.324Z</time></trkpt><trkpt lat="43.5204199" lon="10.7348038"><ele>98.0</ele><time>2026-04-18T06:12:00.322Z</time></trkpt><trkpt lat="43.5204901" lon="10.7348661"><ele>97.99999999999999</ele><time>2026-04-18T06:12:01.421Z</time></trkpt><trkpt lat="43.5205551" lon="10.7349282"><ele>98.0</ele><time>2026-04-18T06:12:02.442Z</time></trkpt><trkpt lat="43.5206155" lon="10.7349984"><ele>100.80000000000001</ele><time>2026-04-18T06:12:03.434Z</time></trkpt><trkpt lat="43.5206712" lon="10.7350756"><ele>103.6</ele><time>2026-04-18T06:12:04.451Z</time></trkpt><trkpt lat="43.5207348" lon="10.7352693"><ele>106.39999999999999</ele><time>2026-04-18T06:12:06.322Z</time></trkpt><trkpt lat="43.5207603" lon="10.735367"><ele>109.19999999999999</ele><time>2026-04-18T06:12:07.324Z</time></trkpt><trkpt lat="43.5207868" lon="10.7354515"><ele>112.0</ele><time>2026-04-18T06:12:08.324Z</time></trkpt><trkpt lat="43.520868" lon="10.7355831"><ele>112.75</ele><time>2026-04-18T06:12:10.325Z</time></trkpt><trkpt lat="43.5209167" lon="10.7356536"><ele>113.5</ele><time>2026-04-18T06:12:11.326Z</time></trkpt><trkpt lat="43.5209747" lon="10.7357343"><ele>114.25</ele><time>2026-04-18T06:12:12.448Z</time></trkpt><trkpt lat="43.5210605" lon="10.7358419"><ele>115.0</ele><time>2026-04-18T06:12:14.43Z</time></trkpt><trkpt lat="43.5212335" lon="10.7359659"><ele>118.4</ele><time>2026-04-18T06:12:17.317Z</time></trkpt><trkpt lat="43.5212994" lon="10.7360187"><ele>121.8</ele><time>2026-04-18T06:12:18.322Z</time></trkpt><trkpt lat="43.5213566" lon="10.7360809"><ele>125.19999999999999</ele><time>2026-04-18T06:12:19.32Z</time></trkpt><trkpt lat="43.5214631" lon="10.7362187"><ele>128.6</ele><time>2026-04-18T06:12:21.322Z</time></trkpt><trkpt lat="43.5215276" lon="10.7363159"><ele>132.0</ele><time>2026-04-18T06:12:22.317Z</time></trkpt><trkpt lat="43.5215863" lon="10.7363833"><ele>132.4</ele><time>2026-04-18T06:12:23.461Z</time></trkpt><trkpt lat="43.5216569" lon="10.73649"><ele>132.79999999999998</ele><time>2026-04-18T06:12:25.445Z</time></trkpt><trkpt lat="43.5217265" lon="10.7366008"><ele>133.2</ele><time>2026-04-18T06:12:27.453Z</time></trkpt><trkpt lat="43.5217667" lon="10.73667"><ele>133.6</ele><time>2026-04-18T06:12:30.324Z</time></trkpt><trkpt lat="43.5218538" lon="10.7367793"><ele>134.0</ele><time>2026-04-18T06:12:34.325Z</time></trkpt><trkpt lat="43.5218975" lon="10.736844"><ele>133.66666666666666</ele><time>2026-04-18T06:12:35.454Z</time></trkpt><trkpt lat="43.5219445" lon="10.7369102"><ele>133.33333333333331</ele><time>2026-04-18T06:12:36.431Z</time></trkpt><trkpt lat="43.5219994" lon="10.7369864"><ele>133.0</ele><time>2026-04-18T06:12:37.456Z</time></trkpt><trkpt lat="43.5220615" lon="10.7370722"><ele>132.66666666666666</ele><time>2026-04-18T06:12:39.325Z</time></trkpt><trkpt lat="43.5221032" lon="10.7371484"><ele>132.33333333333334</ele><time>2026-04-18T06:12:42.321Z</time></trkpt><trkpt lat="43.5221008" lon="10.7372656"><ele>132.0</ele><time>2026-04-18T06:13:38.318Z</time></trkpt><trkpt lat="43.5220747" lon="10.7374199"><ele>134.0</ele><time>2026-04-18T06:13:40.321Z</time></trkpt><trkpt lat="43.5220464" lon="10.7375193"><ele>136.0</ele><time>2026-04-18T06:13:41.459Z</time></trkpt><trkpt lat="43.5220085" lon="10.7376313"><ele>138.0</ele><time>2026-04-18T06:13:42.451Z</time></trkpt><trkpt lat="43.5219623" lon="10.7377404"><ele>140.0</ele><time>2026-04-18T06:13:43.446Z</time></trkpt><trkpt lat="43.5218634" lon="10.7379097"><ele>142.0</ele><time>2026-04-18T06:13:45.325Z</time></trkpt><trkpt lat="43.5218137" lon="10.7379684"><ele>142.4</ele><time>2026-04-18T06:13:46.454Z</time></trkpt><trkpt lat="43.5217308" lon="10.7380817"><ele>142.79999999999998</ele><time>2026-04-18T06:13:48.442Z</time></trkpt><trkpt lat="43.521702" lon="10.7382436"><ele>143.2</ele><time>2026-04-18T06:13:50.441Z</time></trkpt><trkpt lat="43.5217235" lon="10.7383648"><ele>143.6</ele><time>2026-04-18T06:13:51.442Z</time></trkpt><trkpt lat="43.5217451" lon="10.7384962"><ele>144.0</ele><time>2026-04-18T06:13:52.44Z</time></trkpt><trkpt lat="43.5217709" lon="10.7386253"><ele>144.0</ele><time>2026-04-18T06:13:53.456Z</time></trkpt><trkpt lat="43.5217993" lon="10.7387717"><ele>144.0</ele><time>2026-04-18T06:13:54.445Z</time></trkpt><trkpt lat="43.521838" lon="10.7389188"><ele>144.0</ele><time>2026-04-18T06:13:55.45Z</time></trkpt><trkpt lat="43.5218854" lon="10.7390652"><ele>144.0</ele><time>2026-04-18T06:13:56.459Z</time></trkpt><trkpt lat="43.5219392" lon="10.7392162"><ele>144.0</ele><time>2026-04-18T06:13:57.451Z</time></trkpt><trkpt lat="43.5219959" lon="10.7393701"><ele>144.0</ele><time>2026-04-18T06:13:58.452Z</time></trkpt><trkpt lat="43.5220535" lon="10.7395255"><ele>144.0</ele><time>2026-04-18T06:13:59.453Z</time></trkpt><trkpt lat="43.5221112" lon="10.7396884"><ele>144.0</ele><time>2026-04-18T06:14:00.446Z</time></trkpt><trkpt lat="43.5221706" lon="10.7398516"><ele>147.0</ele><time>2026-04-18T06:14:01.447Z</time></trkpt><trkpt lat="43.5222349" lon="10.740013"><ele>150.0</ele><time>2026-04-18T06:14:02.397Z</time></trkpt><trkpt lat="43.5222988" lon="10.7401785"><ele>153.0</ele><time>2026-04-18T06:14:03.449Z</time></trkpt><trkpt lat="43.5223639" lon="10.740348"><ele>156.0</ele><time>2026-04-18T06:14:04.455Z</time></trkpt><trkpt lat="43.5224314" lon="10.7405057"><ele>156.33333333333334</ele><time>2026-04-18T06:14:05.472Z</time></trkpt><trkpt lat="43.5224922" lon="10.7406423"><ele>156.66666666666666</ele><time>2026-04-18T06:14:06.458Z</time></trkpt><trkpt lat="43.5225393" lon="10.7407426"><ele>157.0</ele><time>2026-04-18T06:14:07.446Z</time></trkpt><trkpt lat="43.5225937" lon="10.7408492"><ele>157.33333333333331</ele><time>2026-04-18T06:14:09.456Z</time></trkpt><trkpt lat="43.5226331" lon="10.7409345"><ele>157.66666666666666</ele><time>2026-04-18T06:14:11.445Z</time></trkpt><trkpt lat="43.5226581" lon="10.7410153"><ele>158.0</ele><time>2026-04-18T06:14:13.424Z</time></trkpt><trkpt lat="43.5227084" lon="10.7411048"><ele>158.0</ele><time>2026-04-18T06:14:16.417Z</time></trkpt><trkpt lat="43.5227608" lon="10.7411906"><ele>158.0</ele><time>2026-04-18T06:14:19.31Z</time></trkpt><trkpt lat="43.5228108" lon="10.7412741"><ele>158.0</ele><time>2026-04-18T06:14:22.314Z</time></trkpt><trkpt lat="43.5228621" lon="10.7413472"><ele>158.0</ele><time>2026-04-18T06:14:24.322Z</time></trkpt><trkpt lat="43.5229131" lon="10.7414066"><ele>158.0</ele><time>2026-04-18T06:14:25.32Z</time></trkpt><trkpt lat="43.5229876" lon="10.7414678"><ele>158.0</ele><time>2026-04-18T06:14:26.317Z</time></trkpt><trkpt lat="43.5230721" lon="10.7415476"><ele>158.25</ele><time>2026-04-18T06:14:27.321Z</time></trkpt><trkpt lat="43.5231689" lon="10.7416372"><ele>158.5</ele><time>2026-04-18T06:14:28.321Z</time></trkpt><trkpt lat="43.5232693" lon="10.7417364"><ele>158.75</ele><time>2026-04-18T06:14:29.323Z</time></trkpt><trkpt lat="43.5233658" lon="10.7418231"><ele>159.0</ele><time>2026-04-18T06:14:30.316Z</time></trkpt><trkpt lat="43.5234564" lon="10.7418984"><ele>159.6</ele><time>2026-04-18T06:14:31.327Z</time></trkpt><trkpt lat="43.5235403" lon="10.74196"><ele>160.2</ele><time>2026-04-18T06:14:32.349Z</time></trkpt><trkpt lat="43.52362" lon="10.7419995"><ele>160.79999999999998</ele><time>2026-04-18T06:14:33.32Z</time></trkpt><trkpt lat="43.5237092" lon="10.7420196"><ele>161.4</ele><time>2026-04-18T06:14:34.323Z</time></trkpt><trkpt lat="43.5238106" lon="10.7420073"><ele>162.0</ele><time>2026-04-18T06:14:35.324Z</time></trkpt><trkpt lat="43.52392" lon="10.7419782"><ele>162.0</ele><time>2026-04-18T06:14:36.347Z</time></trkpt><trkpt lat="43.524041" lon="10.7419309"><ele>162.0</ele><time>2026-04-18T06:14:37.322Z</time></trkpt><trkpt lat="43.5241717" lon="10.7418808"><ele>162.0</ele><time>2026-04-18T06:14:38.321Z</time></trkpt><trkpt lat="43.5243006" lon="10.741833"><ele>162.0</ele><time>2026-04-18T06:14:39.321Z</time></trkpt><trkpt lat="43.5244198" lon="10.7417938"><ele>165.33333333333334</ele><time>2026-04-18T06:14:40.449Z</time></trkpt><trkpt lat="43.5246454" lon="10.7417575"><ele>168.66666666666669</ele><time>2026-04-18T06:14:42.317Z</time></trkpt><trkpt lat="43.5247652" lon="10.7417629"><ele>172.0</ele><time>2026-04-18T06:14:43.323Z</time></trkpt><trkpt lat="43.5248787" lon="10.7417828"><ele>172.0</ele><time>2026-04-18T06:14:44.32Z</time></trkpt><trkpt lat="43.5249919" lon="10.7417816"><ele>172.0</ele><time>2026-04-18T06:14:45.308Z</time></trkpt><trkpt lat="43.5251169" lon="10.7417695"><ele>172.0</ele><time>2026-04-18T06:14:46.312Z</time></trkpt><trkpt lat="43.5252428" lon="10.7417405"><ele>172.0</ele><time>2026-04-18T06:14:47.32Z</time></trkpt><trkpt lat="43.5253611" lon="10.7416892"><ele>171.39999999999998</ele><time>2026-04-18T06:14:48.323Z</time></trkpt><trkpt lat="43.5254713" lon="10.7416208"><ele>170.79999999999998</ele><time>2026-04-18T06:14:49.324Z</time></trkpt><trkpt lat="43.5255667" lon="10.7415481"><ele>170.2</ele><time>2026-04-18T06:14:50.321Z</time></trkpt><trkpt lat="43.5256573" lon="10.7414715"><ele>169.6</ele><time>2026-04-18T06:14:51.328Z</time></trkpt><trkpt lat="43.5257327" lon="10.7414007"><ele>169.0</ele><time>2026-04-18T06:14:52.447Z</time></trkpt><trkpt lat="43.5257949" lon="10.7413358"><ele>169.0</ele><time>2026-04-18T06:14:53.455Z</time></trkpt><trkpt lat="43.525892" lon="10.7412708"><ele>169.0</ele><time>2026-04-18T06:14:55.322Z</time></trkpt><trkpt lat="43.5259845" lon="10.741314"><ele>169.0</ele><time>2026-04-18T06:14:57.326Z</time></trkpt><trkpt lat="43.5260752" lon="10.7414497"><ele>169.0</ele><time>2026-04-18T06:14:59.447Z</time></trkpt><trkpt lat="43.52619" lon="10.7416175"><ele>169.39999999999998</ele><time>2026-04-18T06:15:01.323Z</time></trkpt><trkpt lat="43.5262585" lon="10.7417095"><ele>169.8</ele><time>2026-04-18T06:15:02.328Z</time></trkpt><trkpt lat="43.5263276" lon="10.7418024"><ele>170.2</ele><time>2026-04-18T06:15:03.323Z</time></trkpt><trkpt lat="43.5264052" lon="10.7419048"><ele>170.60000000000002</ele><time>2026-04-18T06:15:04.424Z</time></trkpt><trkpt lat="43.5264838" lon="10.742021"><ele>171.0</ele><time>2026-04-18T06:15:05.445Z</time></trkpt><trkpt lat="43.5265667" lon="10.7421411"><ele>171.0</ele><time>2026-04-18T06:15:06.457Z</time></trkpt><trkpt lat="43.5266519" lon="10.7422588"><ele>171.0</ele><time>2026-04-18T06:15:07.467Z</time></trkpt><trkpt lat="43.5268184" lon="10.7424989"><ele>171.0</ele><time>2026-04-18T06:15:09.318Z</time></trkpt><trkpt lat="43.5268935" lon="10.7426379"><ele>171.5</ele><time>2026-04-18T06:15:10.318Z</time></trkpt><trkpt lat="43.5269616" lon="10.742795"><ele>172.0</ele><time>2026-04-18T06:15:11.316Z</time></trkpt><trkpt lat="43.5270217" lon="10.7429609"><ele>172.5</ele><time>2026-04-18T06:15:12.322Z</time></trkpt><trkpt lat="43.5270764" lon="10.74314"><ele>173.0</ele><time>2026-04-18T06:15:13.315Z</time></trkpt><trkpt lat="43.5271309" lon="10.7433182"><ele>172.5</ele><time>2026-04-18T06:15:14.319Z</time></trkpt><trkpt lat="43.5271876" lon="10.7434851"><ele>172.0</ele><time>2026-04-18T06:15:15.452Z</time></trkpt><trkpt lat="43.5272347" lon="10.7436389"><ele>171.5</ele><time>2026-04-18T06:15:16.455Z</time></trkpt><trkpt lat="43.5272486" lon="10.7437936"><ele>171.0</ele><time>2026-04-18T06:15:17.446Z</time></trkpt><trkpt lat="43.5272988" lon="10.7439897"><ele>171.0</ele><time>2026-04-18T06:15:19.404Z</time></trkpt><trkpt lat="43.5273459" lon="10.744098"><ele>171.0</ele><time>2026-04-18T06:15:20.322Z</time></trkpt><trkpt lat="43.5274045" lon="10.7441944"><ele>171.0</ele><time>2026-04-18T06:15:21.453Z</time></trkpt><trkpt lat="43.5274497" lon="10.7442656"><ele>171.0</ele><time>2026-04-18T06:15:22.441Z</time></trkpt><trkpt lat="43.5275089" lon="10.7443295"><ele>171.0</ele><time>2026-04-18T06:15:23.442Z</time></trkpt><trkpt lat="43.5276093" lon="10.7443394"><ele>171.0</ele><time>2026-04-18T06:15:24.452Z</time></trkpt><trkpt lat="43.5276977" lon="10.7443765"><ele>169.75</ele><time>2026-04-18T06:15:25.455Z</time></trkpt><trkpt lat="43.5278198" lon="10.7444263"><ele>168.5</ele><time>2026-04-18T06:15:26.432Z</time></trkpt><trkpt lat="43.5279097" lon="10.7444779"><ele>167.25</ele><time>2026-04-18T06:15:27.427Z</time></trkpt><trkpt lat="43.5280567" lon="10.7445965"><ele>166.0</ele><time>2026-04-18T06:15:29.324Z</time></trkpt><trkpt lat="43.5281203" lon="10.7446719"><ele>165.8</ele><time>2026-04-18T06:15:30.325Z</time></trkpt><trkpt lat="43.5281871" lon="10.7447606"><ele>165.60000000000002</ele><time>2026-04-18T06:15:31.323Z</time></trkpt><trkpt lat="43.5282553" lon="10.7448745"><ele>165.4</ele><time>2026-04-18T06:15:32.325Z</time></trkpt><trkpt lat="43.5282742" lon="10.7449963"><ele>165.2</ele><time>2026-04-18T06:15:33.326Z</time></trkpt><trkpt lat="43.5283213" lon="10.7451087"><ele>165.0</ele><time>2026-04-18T06:15:34.326Z</time></trkpt><trkpt lat="43.5283655" lon="10.745224"><ele>163.83333333333334</ele><time>2026-04-18T06:15:35.32Z</time></trkpt><trkpt lat="43.5283981" lon="10.7453076"><ele>162.66666666666666</ele><time>2026-04-18T06:15:36.32Z</time></trkpt><trkpt lat="43.5284654" lon="10.7454181"><ele>161.5</ele><time>2026-04-18T06:15:38.32Z</time></trkpt><trkpt lat="43.528542" lon="10.745458"><ele>160.33333333333331</ele><time>2026-04-18T06:15:40.328Z</time></trkpt><trkpt lat="43.5286364" lon="10.745467"><ele>159.16666666666666</ele><time>2026-04-18T06:15:42.321Z</time></trkpt><trkpt lat="43.528694" lon="10.7455471"><ele>158.0</ele><time>2026-04-18T06:15:44.46Z</time></trkpt><trkpt lat="43.528712" lon="10.7456365"><ele>158.00000000000003</ele><time>2026-04-18T06:15:46.452Z</time></trkpt><trkpt lat="43.5287319" lon="10.7457263"><ele>158.0</ele><time>2026-04-18T06:15:49.477Z</time></trkpt><trkpt lat="43.5287582" lon="10.7458065"><ele>158.0</ele><time>2026-04-18T06:15:51.412Z</time></trkpt><trkpt lat="43.5287996" lon="10.7458771"><ele>158.0</ele><time>2026-04-18T06:15:58.46Z</time></trkpt><trkpt lat="43.5288391" lon="10.7459579"><ele>158.0</ele><time>2026-04-18T06:16:01.311Z</time></trkpt><trkpt lat="43.5288006" lon="10.7458602"><ele>158.00000000000003</ele><time>2026-04-18T06:16:22.311Z</time></trkpt><trkpt lat="43.5287516" lon="10.7457973"><ele>158.0</ele><time>2026-04-18T06:16:24.316Z</time></trkpt><trkpt lat="43.5287191" lon="10.7457031"><ele>158.0</ele><time>2026-04-18T06:16:26.32Z</time></trkpt><trkpt lat="43.5286852" lon="10.7455655"><ele>158.0</ele><time>2026-04-18T06:16:28.452Z</time></trkpt><trkpt lat="43.5286351" lon="10.7454434"><ele>158.0</ele><time>2026-04-18T06:16:30.326Z</time></trkpt><trkpt lat="43.5285995" lon="10.7453507"><ele>158.0</ele><time>2026-04-18T06:16:32.426Z</time></trkpt><trkpt lat="43.5286338" lon="10.7452773"><ele>158.0</ele><time>2026-04-18T06:16:35.32Z</time></trkpt><trkpt lat="43.5287118" lon="10.7452811"><ele>158.0</ele><time>2026-04-18T06:16:37.458Z</time></trkpt><trkpt lat="43.5288631" lon="10.7452495"><ele>158.0</ele><time>2026-04-18T06:16:40.32Z</time></trkpt><trkpt lat="43.528965" lon="10.7452256"><ele>158.0</ele><time>2026-04-18T06:16:42.322Z</time></trkpt><trkpt lat="43.5290664" lon="10.7452036"><ele>158.0</ele><time>2026-04-18T06:16:44.433Z</time></trkpt><trkpt lat="43.5291871" lon="10.7451781"><ele>158.0</ele><time>2026-04-18T06:16:46.393Z</time></trkpt><trkpt lat="43.5292526" lon="10.7451439"><ele>158.0</ele><time>2026-04-18T06:16:47.447Z</time></trkpt><trkpt lat="43.5293388" lon="10.7451193"><ele>158.0</ele><time>2026-04-18T06:16:49.321Z</time></trkpt><trkpt lat="43.5294023" lon="10.7451145"><ele>158.0</ele><time>2026-04-18T06:16:52.317Z</time></trkpt><trkpt lat="43.5294987" lon="10.7451774"><ele>158.0</ele><time>2026-04-18T06:16:55.406Z</time></trkpt><trkpt lat="43.52956" lon="10.7452173"><ele>158.0</ele><time>2026-04-18T06:16:56.441Z</time></trkpt><trkpt lat="43.5296651" lon="10.74528"><ele>158.0</ele><time>2026-04-18T06:16:58.321Z</time></trkpt><trkpt lat="43.5297414" lon="10.7453049"><ele>158.0</ele><time>2026-04-18T06:17:00.321Z</time></trkpt><trkpt lat="43.5298341" lon="10.745281"><ele>157.8</ele><time>2026-04-18T06:17:02.325Z</time></trkpt><trkpt lat="43.5299246" lon="10.7452402"><ele>157.60000000000002</ele><time>2026-04-18T06:17:03.321Z</time></trkpt><trkpt lat="43.5300215" lon="10.7451832"><ele>157.39999999999998</ele><time>2026-04-18T06:17:04.322Z</time></trkpt><trkpt lat="43.5300965" lon="10.7451289"><ele>157.2</ele><time>2026-04-18T06:17:05.323Z</time></trkpt><trkpt lat="43.5301889" lon="10.7450509"><ele>157.0</ele><time>2026-04-18T06:17:06.321Z</time></trkpt><trkpt lat="43.530278" lon="10.7449671"><ele>156.79999999999998</ele><time>2026-04-18T06:17:07.32Z</time></trkpt><trkpt lat="43.5303503" lon="10.7448807"><ele>156.6</ele><time>2026-04-18T06:17:08.323Z</time></trkpt><trkpt lat="43.5304408" lon="10.7448286"><ele>156.39999999999998</ele><time>2026-04-18T06:17:09.321Z</time></trkpt><trkpt lat="43.53053" lon="10.7447807"><ele>156.2</ele><time>2026-04-18T06:17:10.318Z</time></trkpt><trkpt lat="43.5306112" lon="10.7447319"><ele>156.0</ele><time>2026-04-18T06:17:11.321Z</time></trkpt><trkpt lat="43.530689" lon="10.7446935"><ele>156.0</ele><time>2026-04-18T06:17:12.453Z</time></trkpt><trkpt lat="43.5308276" lon="10.7445861"><ele>156.0</ele><time>2026-04-18T06:17:14.318Z</time></trkpt><trkpt lat="43.5308991" lon="10.7445172"><ele>156.0</ele><time>2026-04-18T06:17:15.323Z</time></trkpt><trkpt lat="43.530917" lon="10.7443988"><ele>156.0</ele><time>2026-04-18T06:17:16.317Z</time></trkpt><trkpt lat="43.5309552" lon="10.744296"><ele>156.0</ele><time>2026-04-18T06:17:17.327Z</time></trkpt><trkpt lat="43.5309717" lon="10.74417"><ele>156.0</ele><time>2026-04-18T06:17:18.319Z</time></trkpt><trkpt lat="43.5309861" lon="10.74401"><ele>156.0</ele><time>2026-04-18T06:17:19.323Z</time></trkpt><trkpt lat="43.5309892" lon="10.743851"><ele>156.0</ele><time>2026-04-18T06:17:20.322Z</time></trkpt><trkpt lat="43.5309957" lon="10.7436944"><ele>156.0</ele><time>2026-04-18T06:17:21.317Z</time></trkpt><trkpt lat="43.5309693" lon="10.7435131"><ele>157.5</ele><time>2026-04-18T06:17:22.325Z</time></trkpt><trkpt lat="43.5309444" lon="10.7433233"><ele>159.0</ele><time>2026-04-18T06:17:23.318Z</time></trkpt><trkpt lat="43.530938" lon="10.7431632"><ele>160.5</ele><time>2026-04-18T06:17:24.322Z</time></trkpt><trkpt lat="43.5309057" lon="10.743039"><ele>162.0</ele><time>2026-04-18T06:17:25.322Z</time></trkpt><trkpt lat="43.5309194" lon="10.7429037"><ele>162.0</ele><time>2026-04-18T06:17:26.318Z</time></trkpt><trkpt lat="43.5309088" lon="10.7427803"><ele>162.0</ele><time>2026-04-18T06:17:27.321Z</time></trkpt><trkpt lat="43.5309181" lon="10.7426743"><ele>162.0</ele><time>2026-04-18T06:17:28.317Z</time></trkpt><trkpt lat="43.5309314" lon="10.7425665"><ele>162.0</ele><time>2026-04-18T06:17:29.322Z</time></trkpt><trkpt lat="43.5309284" lon="10.7424519"><ele>162.0</ele><time>2026-04-18T06:17:30.32Z</time></trkpt><trkpt lat="43.5309021" lon="10.7423136"><ele>162.0</ele><time>2026-04-18T06:17:31.322Z</time></trkpt><trkpt lat="43.5308618" lon="10.7421483"><ele>162.8</ele><time>2026-04-18T06:17:32.321Z</time></trkpt><trkpt lat="43.5308203" lon="10.7420161"><ele>163.6</ele><time>2026-04-18T06:17:33.325Z</time></trkpt><trkpt lat="43.5307829" lon="10.7418851"><ele>164.4</ele><time>2026-04-18T06:17:34.321Z</time></trkpt><trkpt lat="43.5307463" lon="10.7417697"><ele>165.20000000000002</ele><time>2026-04-18T06:17:35.323Z</time></trkpt><trkpt lat="43.5307259" lon="10.7416714"><ele>166.0</ele><time>2026-04-18T06:17:36.314Z</time></trkpt><trkpt lat="43.5307137" lon="10.7415585"><ele>166.33333333333334</ele><time>2026-04-18T06:17:37.321Z</time></trkpt><trkpt lat="43.5306965" lon="10.7414551"><ele>166.66666666666669</ele><time>2026-04-18T06:17:38.321Z</time></trkpt><trkpt lat="43.5307138" lon="10.7413538"><ele>167.0</ele><time>2026-04-18T06:17:39.326Z</time></trkpt><trkpt lat="43.5307396" lon="10.741269"><ele>167.33333333333334</ele><time>2026-04-18T06:17:40.32Z</time></trkpt><trkpt lat="43.5307851" lon="10.7411545"><ele>167.66666666666666</ele><time>2026-04-18T06:17:41.322Z</time></trkpt><trkpt lat="43.5308315" lon="10.7410324"><ele>168.0</ele><time>2026-04-18T06:17:42.321Z</time></trkpt><trkpt lat="43.5308799" lon="10.7409265"><ele>168.0</ele><time>2026-04-18T06:17:43.316Z</time></trkpt><trkpt lat="43.5309256" lon="10.740813"><ele>168.0</ele><time>2026-04-18T06:17:44.324Z</time></trkpt><trkpt lat="43.530983" lon="10.7407103"><ele>168.0</ele><time>2026-04-18T06:17:45.317Z</time></trkpt><trkpt lat="43.5310395" lon="10.7405436"><ele>168.0</ele><time>2026-04-18T06:17:46.323Z</time></trkpt><trkpt lat="43.5310768" lon="10.7403978"><ele>168.0</ele><time>2026-04-18T06:17:47.321Z</time></trkpt><trkpt lat="43.5311133" lon="10.7402469"><ele>168.16666666666666</ele><time>2026-04-18T06:17:48.324Z</time></trkpt><trkpt lat="43.5311433" lon="10.7401171"><ele>168.33333333333334</ele><time>2026-04-18T06:17:49.321Z</time></trkpt><trkpt lat="43.5311753" lon="10.7400096"><ele>168.5</ele><time>2026-04-18T06:17:50.322Z</time></trkpt><trkpt lat="43.5312076" lon="10.7398919"><ele>168.66666666666669</ele><time>2026-04-18T06:17:51.322Z</time></trkpt><trkpt lat="43.5312482" lon="10.7397868"><ele>168.83333333333334</ele><time>2026-04-18T06:17:52.321Z</time></trkpt><trkpt lat="43.5312964" lon="10.7397015"><ele>169.0</ele><time>2026-04-18T06:17:53.316Z</time></trkpt><trkpt lat="43.5313434" lon="10.7396017"><ele>166.25</ele><time>2026-04-18T06:17:54.316Z</time></trkpt><trkpt lat="43.5314157" lon="10.739479"><ele>163.5</ele><time>2026-04-18T06:17:55.31Z</time></trkpt><trkpt lat="43.5315132" lon="10.7393636"><ele>160.75</ele><time>2026-04-18T06:17:56.322Z</time></trkpt><trkpt lat="43.5316081" lon="10.739268"><ele>158.0</ele><time>2026-04-18T06:17:57.321Z</time></trkpt><trkpt lat="43.5317185" lon="10.7391614"><ele>158.0</ele><time>2026-04-18T06:17:58.318Z</time></trkpt><trkpt lat="43.5317952" lon="10.7390674"><ele>158.0</ele><time>2026-04-18T06:17:59.321Z</time></trkpt><trkpt lat="43.5318945" lon="10.7389926"><ele>158.0</ele><time>2026-04-18T06:18:00.321Z</time></trkpt><trkpt lat="43.5319828" lon="10.7389127"><ele>158.0</ele><time>2026-04-18T06:18:01.32Z</time></trkpt><trkpt lat="43.5320722" lon="10.7388295"><ele>158.0</ele><time>2026-04-18T06:18:02.323Z</time></trkpt><trkpt lat="43.5321835" lon="10.7387425"><ele>156.5</ele><time>2026-04-18T06:18:03.328Z</time></trkpt><trkpt lat="43.5322903" lon="10.7386709"><ele>155.0</ele><time>2026-04-18T06:18:04.322Z</time></trkpt><trkpt lat="43.5324094" lon="10.7385822"><ele>153.5</ele><time>2026-04-18T06:18:05.321Z</time></trkpt><trkpt lat="43.5325355" lon="10.7385023"><ele>152.0</ele><time>2026-04-18T06:18:06.32Z</time></trkpt><trkpt lat="43.5326482" lon="10.7384264"><ele>152.0</ele><time>2026-04-18T06:18:07.321Z</time></trkpt><trkpt lat="43.5327547" lon="10.7383477"><ele>152.0</ele><time>2026-04-18T06:18:08.322Z</time></trkpt><trkpt lat="43.5328563" lon="10.7382731"><ele>152.0</ele><time>2026-04-18T06:18:09.321Z</time></trkpt><trkpt lat="43.5329559" lon="10.7381861"><ele>152.0</ele><time>2026-04-18T06:18:10.322Z</time></trkpt><trkpt lat="43.5330534" lon="10.7380876"><ele>151.0</ele><time>2026-04-18T06:18:11.317Z</time></trkpt><trkpt lat="43.5331479" lon="10.737984"><ele>150.0</ele><time>2026-04-18T06:18:12.321Z</time></trkpt><trkpt lat="43.5332438" lon="10.7378847"><ele>149.0</ele><time>2026-04-18T06:18:13.436Z</time></trkpt><trkpt lat="43.5333384" lon="10.737795"><ele>148.0</ele><time>2026-04-18T06:18:14.35Z</time></trkpt><trkpt lat="43.5334229" lon="10.7377272"><ele>147.83333333333334</ele><time>2026-04-18T06:18:15.453Z</time></trkpt><trkpt lat="43.5335031" lon="10.7376793"><ele>147.66666666666669</ele><time>2026-04-18T06:18:16.437Z</time></trkpt><trkpt lat="43.533588" lon="10.737651"><ele>147.5</ele><time>2026-04-18T06:18:17.449Z</time></trkpt><trkpt lat="43.5336663" lon="10.7376272"><ele>147.33333333333334</ele><time>2026-04-18T06:18:18.457Z</time></trkpt><trkpt lat="43.5337545" lon="10.7375942"><ele>147.16666666666666</ele><time>2026-04-18T06:18:19.459Z</time></trkpt><trkpt lat="43.5338442" lon="10.7375594"><ele>147.0</ele><time>2026-04-18T06:18:20.45Z</time></trkpt><trkpt lat="43.5339371" lon="10.7375186"><ele>146.4</ele><time>2026-04-18T06:18:21.451Z</time></trkpt><trkpt lat="43.5340259" lon="10.737472"><ele>145.79999999999998</ele><time>2026-04-18T06:18:22.451Z</time></trkpt><trkpt lat="43.5341223" lon="10.7374216"><ele>145.2</ele><time>2026-04-18T06:18:23.428Z</time></trkpt><trkpt lat="43.5342263" lon="10.7373703"><ele>144.6</ele><time>2026-04-18T06:18:24.448Z</time></trkpt><trkpt lat="43.5343296" lon="10.7373183"><ele>144.0</ele><time>2026-04-18T06:18:25.456Z</time></trkpt><trkpt lat="43.5344482" lon="10.7372511"><ele>142.75</ele><time>2026-04-18T06:18:26.418Z</time></trkpt><trkpt lat="43.5345689" lon="10.7371837"><ele>141.5</ele><time>2026-04-18T06:18:27.468Z</time></trkpt><trkpt lat="43.5346876" lon="10.7371172"><ele>140.25</ele><time>2026-04-18T06:18:28.434Z</time></trkpt><trkpt lat="43.5348049" lon="10.7370493"><ele>139.0</ele><time>2026-04-18T06:18:29.447Z</time></trkpt><trkpt lat="43.5349176" lon="10.7369759"><ele>138.75</ele><time>2026-04-18T06:18:30.461Z</time></trkpt><trkpt lat="43.5350348" lon="10.7368837"><ele>138.5</ele><time>2026-04-18T06:18:31.465Z</time></trkpt><trkpt lat="43.5351536" lon="10.7367801"><ele>138.25</ele><time>2026-04-18T06:18:32.458Z</time></trkpt><trkpt lat="43.5352694" lon="10.7366729"><ele>138.0</ele><time>2026-04-18T06:18:33.46Z</time></trkpt><trkpt lat="43.5353716" lon="10.7365737"><ele>137.5</ele><time>2026-04-18T06:18:34.461Z</time></trkpt><trkpt lat="43.5354692" lon="10.7364802"><ele>137.0</ele><time>2026-04-18T06:18:35.457Z</time></trkpt><trkpt lat="43.5355685" lon="10.7363885"><ele>136.5</ele><time>2026-04-18T06:18:36.456Z</time></trkpt><trkpt lat="43.535675" lon="10.7362886"><ele>136.0</ele><time>2026-04-18T06:18:37.467Z</time></trkpt><trkpt lat="43.5357754" lon="10.7361943"><ele>135.0</ele><time>2026-04-18T06:18:38.453Z</time></trkpt><trkpt lat="43.5359664" lon="10.7360325"><ele>134.0</ele><time>2026-04-18T06:18:40.462Z</time></trkpt><trkpt lat="43.5360509" lon="10.7359616"><ele>133.0</ele><time>2026-04-18T06:18:41.474Z</time></trkpt><trkpt lat="43.5361248" lon="10.7358966"><ele>132.0</ele><time>2026-04-18T06:18:42.464Z</time></trkpt><trkpt lat="43.5361902" lon="10.735832"><ele>130.79999999999998</ele><time>2026-04-18T06:18:43.477Z</time></trkpt><trkpt lat="43.5363163" lon="10.7357128"><ele>129.6</ele><time>2026-04-18T06:18:45.321Z</time></trkpt><trkpt lat="43.5363915" lon="10.7356446"><ele>128.39999999999998</ele><time>2026-04-18T06:18:46.452Z</time></trkpt><trkpt lat="43.5364643" lon="10.7355796"><ele>127.19999999999999</ele><time>2026-04-18T06:18:47.453Z</time></trkpt><trkpt lat="43.5365332" lon="10.7355148"><ele>126.0</ele><time>2026-04-18T06:18:48.458Z</time></trkpt><trkpt lat="43.5365975" lon="10.7354525"><ele>126.0</ele><time>2026-04-18T06:18:49.448Z</time></trkpt><trkpt lat="43.5366665" lon="10.7353876"><ele>126.0</ele><time>2026-04-18T06:18:50.457Z</time></trkpt><trkpt lat="43.5367398" lon="10.7353085"><ele>126.0</ele><time>2026-04-18T06:18:51.451Z</time></trkpt><trkpt lat="43.5368213" lon="10.7352299"><ele>126.0</ele><time>2026-04-18T06:18:52.464Z</time></trkpt><trkpt lat="43.5369002" lon="10.7351502"><ele>126.0</ele><time>2026-04-18T06:18:53.435Z</time></trkpt><trkpt lat="43.5369859" lon="10.7350701"><ele>125.0</ele><time>2026-04-18T06:18:54.459Z</time></trkpt><trkpt lat="43.5370709" lon="10.7349918"><ele>124.0</ele><time>2026-04-18T06:18:55.468Z</time></trkpt><trkpt lat="43.5372274" lon="10.7348391"><ele>123.0</ele><time>2026-04-18T06:18:57.455Z</time></trkpt><trkpt lat="43.5373" lon="10.7347574"><ele>122.0</ele><time>2026-04-18T06:18:58.46Z</time></trkpt><trkpt lat="43.5373717" lon="10.7346849"><ele>122.0</ele><time>2026-04-18T06:18:59.453Z</time></trkpt><trkpt lat="43.5374451" lon="10.7346037"><ele>121.99999999999999</ele><time>2026-04-18T06:19:00.467Z</time></trkpt><trkpt lat="43.5375194" lon="10.7345188"><ele>121.99999999999999</ele><time>2026-04-18T06:19:01.459Z</time></trkpt><trkpt lat="43.5375893" lon="10.7344289"><ele>122.0</ele><time>2026-04-18T06:19:02.445Z</time></trkpt><trkpt lat="43.5376493" lon="10.7343425"><ele>122.0</ele><time>2026-04-18T06:19:03.461Z</time></trkpt><trkpt lat="43.5376939" lon="10.7342535"><ele>120.19999999999999</ele><time>2026-04-18T06:19:04.463Z</time></trkpt><trkpt lat="43.5377266" lon="10.7341563"><ele>118.39999999999999</ele><time>2026-04-18T06:19:05.449Z</time></trkpt><trkpt lat="43.5377476" lon="10.7340505"><ele>116.60000000000001</ele><time>2026-04-18T06:19:06.45Z</time></trkpt><trkpt lat="43.5377684" lon="10.7339306"><ele>114.80000000000001</ele><time>2026-04-18T06:19:07.455Z</time></trkpt><trkpt lat="43.5377864" lon="10.7338124"><ele>113.0</ele><time>2026-04-18T06:19:08.427Z</time></trkpt><trkpt lat="43.5378162" lon="10.7335721"><ele>111.4</ele><time>2026-04-18T06:19:10.446Z</time></trkpt><trkpt lat="43.5378176" lon="10.7334584"><ele>109.80000000000001</ele><time>2026-04-18T06:19:11.449Z</time></trkpt><trkpt lat="43.5378113" lon="10.73334"><ele>108.2</ele><time>2026-04-18T06:19:12.424Z</time></trkpt><trkpt lat="43.5377989" lon="10.7332095"><ele>106.6</ele><time>2026-04-18T06:19:13.425Z</time></trkpt><trkpt lat="43.537783" lon="10.733077"><ele>105.0</ele><time>2026-04-18T06:19:14.455Z</time></trkpt><trkpt lat="43.5377631" lon="10.732948"><ele>103.8</ele><time>2026-04-18T06:19:15.46Z</time></trkpt><trkpt lat="43.5377445" lon="10.7327018"><ele>102.6</ele><time>2026-04-18T06:19:17.324Z</time></trkpt><trkpt lat="43.5377479" lon="10.7325771"><ele>101.4</ele><time>2026-04-18T06:19:18.328Z</time></trkpt><trkpt lat="43.5377538" lon="10.732456"><ele>100.2</ele><time>2026-04-18T06:19:19.322Z</time></trkpt><trkpt lat="43.5377665" lon="10.7323408"><ele>99.0</ele><time>2026-04-18T06:19:20.325Z</time></trkpt><trkpt lat="43.5377817" lon="10.7322413"><ele>99.0</ele><time>2026-04-18T06:19:21.323Z</time></trkpt><trkpt lat="43.5378049" lon="10.7321599"><ele>99.0</ele><time>2026-04-18T06:19:22.326Z</time></trkpt><trkpt lat="43.5378615" lon="10.7320217"><ele>99.0</ele><time>2026-04-18T06:19:24.458Z</time></trkpt><trkpt lat="43.5379077" lon="10.7319083"><ele>99.0</ele><time>2026-04-18T06:19:26.463Z</time></trkpt><trkpt lat="43.5379479" lon="10.7318287"><ele>99.0</ele><time>2026-04-18T06:19:28.455Z</time></trkpt><trkpt lat="43.5379886" lon="10.7317589"><ele>99.0</ele><time>2026-04-18T06:19:30.455Z</time></trkpt><trkpt lat="43.5380651" lon="10.7316543"><ele>99.80000000000001</ele><time>2026-04-18T06:19:33.453Z</time></trkpt><trkpt lat="43.5381348" lon="10.7315992"><ele>100.60000000000001</ele><time>2026-04-18T06:19:36.42Z</time></trkpt><trkpt lat="43.5382476" lon="10.7314803"><ele>101.4</ele><time>2026-04-18T06:19:40.434Z</time></trkpt><trkpt lat="43.5383058" lon="10.7314458"><ele>102.2</ele><time>2026-04-18T06:19:41.448Z</time></trkpt><trkpt lat="43.5383791" lon="10.7314042"><ele>103.0</ele><time>2026-04-18T06:19:42.348Z</time></trkpt><trkpt lat="43.538463" lon="10.731353"><ele>103.0</ele><time>2026-04-18T06:19:43.447Z</time></trkpt><trkpt lat="43.5386492" lon="10.7312173"><ele>103.0</ele><time>2026-04-18T06:19:45.317Z</time></trkpt><trkpt lat="43.5387334" lon="10.7311437"><ele>103.0</ele><time>2026-04-18T06:19:46.324Z</time></trkpt><trkpt lat="43.5388148" lon="10.7310756"><ele>103.0</ele><time>2026-04-18T06:19:47.325Z</time></trkpt><trkpt lat="43.5388931" lon="10.731006"><ele>99.33333333333334</ele><time>2026-04-18T06:19:48.321Z</time></trkpt><trkpt lat="43.5389666" lon="10.7309352"><ele>95.66666666666667</ele><time>2026-04-18T06:19:49.319Z</time></trkpt><trkpt lat="43.5390382" lon="10.730855"><ele>92.0</ele><time>2026-04-18T06:19:50.318Z</time></trkpt><trkpt lat="43.5392421" lon="10.7305729"><ele>92.0</ele><time>2026-04-18T06:19:53.446Z</time></trkpt><trkpt lat="43.5393035" lon="10.7304669"><ele>92.0</ele><time>2026-04-18T06:19:54.46Z</time></trkpt><trkpt lat="43.5393635" lon="10.7303618"><ele>92.0</ele><time>2026-04-18T06:19:55.461Z</time></trkpt><trkpt lat="43.5394276" lon="10.7302494"><ele>92.0</ele><time>2026-04-18T06:19:56.455Z</time></trkpt><trkpt lat="43.5394908" lon="10.7301436"><ele>92.0</ele><time>2026-04-18T06:19:57.455Z</time></trkpt><trkpt lat="43.5395555" lon="10.7300453"><ele>89.19999999999999</ele><time>2026-04-18T06:19:58.423Z</time></trkpt><trkpt lat="43.5396251" lon="10.7299546"><ele>86.39999999999999</ele><time>2026-04-18T06:19:59.451Z</time></trkpt><trkpt lat="43.5397037" lon="10.7298705"><ele>83.6</ele><time>2026-04-18T06:20:00.42Z</time></trkpt><trkpt lat="43.5397967" lon="10.7298009"><ele>80.8</ele><time>2026-04-18T06:20:01.447Z</time></trkpt><trkpt lat="43.5398935" lon="10.729744"><ele>78.0</ele><time>2026-04-18T06:20:02.451Z</time></trkpt><trkpt lat="43.539986" lon="10.7296968"><ele>78.0</ele><time>2026-04-18T06:20:03.454Z</time></trkpt><trkpt lat="43.5400745" lon="10.7296432"><ele>78.0</ele><time>2026-04-18T06:20:04.465Z</time></trkpt><trkpt lat="43.5401634" lon="10.7295829"><ele>78.0</ele><time>2026-04-18T06:20:05.452Z</time></trkpt><trkpt lat="43.5402481" lon="10.7295299"><ele>78.0</ele><time>2026-04-18T06:20:06.45Z</time></trkpt><trkpt lat="43.5403313" lon="10.7294893"><ele>78.0</ele><time>2026-04-18T06:20:07.459Z</time></trkpt><trkpt lat="43.5404113" lon="10.7294632"><ele>78.0</ele><time>2026-04-18T06:20:08.45Z</time></trkpt><trkpt lat="43.5404888" lon="10.7294337"><ele>78.0</ele><time>2026-04-18T06:20:09.457Z</time></trkpt><trkpt lat="43.5405681" lon="10.7294111"><ele>78.0</ele><time>2026-04-18T06:20:10.449Z</time></trkpt><trkpt lat="43.5406321" lon="10.7293907"><ele>78.0</ele><time>2026-04-18T06:20:11.448Z</time></trkpt><trkpt lat="43.5407469" lon="10.7293448"><ele>78.0</ele><time>2026-04-18T06:20:13.325Z</time></trkpt><trkpt lat="43.5408073" lon="10.7292972"><ele>78.0</ele><time>2026-04-18T06:20:14.444Z</time></trkpt><trkpt lat="43.5408511" lon="10.7292007"><ele>76.0</ele><time>2026-04-18T06:20:15.459Z</time></trkpt><trkpt lat="43.5408935" lon="10.7291056"><ele>74.0</ele><time>2026-04-18T06:20:16.454Z</time></trkpt><trkpt lat="43.5409437" lon="10.7289969"><ele>72.0</ele><time>2026-04-18T06:20:17.451Z</time></trkpt><trkpt lat="43.5409874" lon="10.7288743"><ele>70.0</ele><time>2026-04-18T06:20:18.459Z</time></trkpt><trkpt lat="43.5410347" lon="10.7287368"><ele>68.0</ele><time>2026-04-18T06:20:19.445Z</time></trkpt><trkpt lat="43.5410743" lon="10.7285869"><ele>66.25</ele><time>2026-04-18T06:20:20.397Z</time></trkpt><trkpt lat="43.541125" lon="10.7284324"><ele>64.5</ele><time>2026-04-18T06:20:21.322Z</time></trkpt><trkpt lat="43.5411712" lon="10.7282866"><ele>62.75</ele><time>2026-04-18T06:20:22.326Z</time></trkpt><trkpt lat="43.5412239" lon="10.7281416"><ele>61.0</ele><time>2026-04-18T06:20:23.456Z</time></trkpt><trkpt lat="43.5412704" lon="10.7279811"><ele>60.599999999999994</ele><time>2026-04-18T06:20:24.454Z</time></trkpt><trkpt lat="43.5413123" lon="10.7278352"><ele>60.199999999999996</ele><time>2026-04-18T06:20:25.426Z</time></trkpt><trkpt lat="43.5413411" lon="10.7276829"><ele>59.800000000000004</ele><time>2026-04-18T06:20:26.457Z</time></trkpt><trkpt lat="43.5413595" lon="10.7275343"><ele>59.400000000000006</ele><time>2026-04-18T06:20:27.445Z</time></trkpt><trkpt lat="43.5413886" lon="10.7273878"><ele>59.0</ele><time>2026-04-18T06:20:28.457Z</time></trkpt><trkpt lat="43.5414282" lon="10.7272545"><ele>59.0</ele><time>2026-04-18T06:20:29.458Z</time></trkpt><trkpt lat="43.5414835" lon="10.7271302"><ele>59.0</ele><time>2026-04-18T06:20:30.453Z</time></trkpt><trkpt lat="43.5415556" lon="10.7270043"><ele>59.0</ele><time>2026-04-18T06:20:31.446Z</time></trkpt><trkpt lat="43.5416346" lon="10.7268771"><ele>59.0</ele><time>2026-04-18T06:20:32.461Z</time></trkpt><trkpt lat="43.5417231" lon="10.7267474"><ele>59.0</ele><time>2026-04-18T06:20:33.456Z</time></trkpt><trkpt lat="43.5418172" lon="10.7266054"><ele>59.0</ele><time>2026-04-18T06:20:34.458Z</time></trkpt><trkpt lat="43.541901" lon="10.7264783"><ele>59.0</ele><time>2026-04-18T06:20:35.458Z</time></trkpt><trkpt lat="43.5419841" lon="10.7263529"><ele>59.0</ele><time>2026-04-18T06:20:36.458Z</time></trkpt><trkpt lat="43.5420693" lon="10.7262188"><ele>59.0</ele><time>2026-04-18T06:20:37.453Z</time></trkpt><trkpt lat="43.5421489" lon="10.7260944"><ele>59.0</ele><time>2026-04-18T06:20:38.418Z</time></trkpt><trkpt lat="43.5422337" lon="10.7259699"><ele>59.0</ele><time>2026-04-18T06:20:39.323Z</time></trkpt><trkpt lat="43.5423093" lon="10.7258597"><ele>59.0</ele><time>2026-04-18T06:20:40.436Z</time></trkpt><trkpt lat="43.5423763" lon="10.7257645"><ele>60.16666666666667</ele><time>2026-04-18T06:20:41.454Z</time></trkpt><trkpt lat="43.5424368" lon="10.725689"><ele>61.333333333333336</ele><time>2026-04-18T06:20:42.46Z</time></trkpt><trkpt lat="43.5425371" lon="10.7256442"><ele>62.5</ele><time>2026-04-18T06:20:44.454Z</time></trkpt><trkpt lat="43.542604" lon="10.7256366"><ele>63.66666666666667</ele><time>2026-04-18T06:20:45.412Z</time></trkpt><trkpt lat="43.5426791" lon="10.7256318"><ele>64.83333333333333</ele><time>2026-04-18T06:20:46.454Z</time></trkpt><trkpt lat="43.5427473" lon="10.7256056"><ele>66.0</ele><time>2026-04-18T06:20:47.451Z</time></trkpt><trkpt lat="43.542814" lon="10.7255565"><ele>66.0</ele><time>2026-04-18T06:20:48.461Z</time></trkpt><trkpt lat="43.5428364" lon="10.7254669"><ele>66.0</ele><time>2026-04-18T06:20:49.46Z</time></trkpt><trkpt lat="43.5428751" lon="10.7253572"><ele>66.0</ele><time>2026-04-18T06:20:50.468Z</time></trkpt><trkpt lat="43.5429066" lon="10.7252365"><ele>66.0</ele><time>2026-04-18T06:20:51.449Z</time></trkpt><trkpt lat="43.5429383" lon="10.7251019"><ele>66.0</ele><time>2026-04-18T06:20:52.462Z</time></trkpt><trkpt lat="43.5429626" lon="10.7249641"><ele>71.8</ele><time>2026-04-18T06:20:53.449Z</time></trkpt><trkpt lat="43.5429808" lon="10.7248264"><ele>77.6</ele><time>2026-04-18T06:20:54.448Z</time></trkpt><trkpt lat="43.5430271" lon="10.7246438"><ele>83.4</ele><time>2026-04-18T06:20:56.318Z</time></trkpt><trkpt lat="43.543072" lon="10.7245731"><ele>89.2</ele><time>2026-04-18T06:20:57.33Z</time></trkpt><trkpt lat="43.5431338" lon="10.7245081"><ele>95.0</ele><time>2026-04-18T06:20:58.453Z</time></trkpt><trkpt lat="43.5432147" lon="10.7244707"><ele>95.0</ele><time>2026-04-18T06:20:59.459Z</time></trkpt><trkpt lat="43.5432986" lon="10.7244092"><ele>95.0</ele><time>2026-04-18T06:21:00.468Z</time></trkpt><trkpt lat="43.5433823" lon="10.7243429"><ele>95.0</ele><time>2026-04-18T06:21:01.426Z</time></trkpt><trkpt lat="43.5434603" lon="10.7242753"><ele>95.0</ele><time>2026-04-18T06:21:02.454Z</time></trkpt><trkpt lat="43.5435137" lon="10.7242169"><ele>95.0</ele><time>2026-04-18T06:21:03.447Z</time></trkpt><trkpt lat="43.5435647" lon="10.7241402"><ele>95.0</ele><time>2026-04-18T06:21:04.467Z</time></trkpt><trkpt lat="43.543589" lon="10.7240134"><ele>95.6</ele><time>2026-04-18T06:21:05.45Z</time></trkpt><trkpt lat="43.5436491" lon="10.7239165"><ele>96.2</ele><time>2026-04-18T06:21:06.449Z</time></trkpt><trkpt lat="43.5437063" lon="10.7238156"><ele>96.80000000000001</ele><time>2026-04-18T06:21:07.454Z</time></trkpt><trkpt lat="43.5437725" lon="10.7237114"><ele>97.4</ele><time>2026-04-18T06:21:08.444Z</time></trkpt><trkpt lat="43.5438348" lon="10.7236153"><ele>98.0</ele><time>2026-04-18T06:21:09.43Z</time></trkpt><trkpt lat="43.5438975" lon="10.7235064"><ele>101.80000000000001</ele><time>2026-04-18T06:21:10.45Z</time></trkpt><trkpt lat="43.5439597" lon="10.7234037"><ele>105.6</ele><time>2026-04-18T06:21:11.449Z</time></trkpt><trkpt lat="43.544014" lon="10.7232934"><ele>109.39999999999999</ele><time>2026-04-18T06:21:12.452Z</time></trkpt><trkpt lat="43.5440524" lon="10.7231813"><ele>113.19999999999999</ele><time>2026-04-18T06:21:13.445Z</time></trkpt><trkpt lat="43.5440806" lon="10.7230747"><ele>117.0</ele><time>2026-04-18T06:21:14.45Z</time></trkpt><trkpt lat="43.544106" lon="10.7229545"><ele>117.0</ele><time>2026-04-18T06:21:15.452Z</time></trkpt><trkpt lat="43.5441396" lon="10.7228278"><ele>116.99999999999999</ele><time>2026-04-18T06:21:16.451Z</time></trkpt><trkpt lat="43.5441888" lon="10.7227042"><ele>116.99999999999999</ele><time>2026-04-18T06:21:17.451Z</time></trkpt><trkpt lat="43.5442357" lon="10.7225801"><ele>117.0</ele><time>2026-04-18T06:21:18.452Z</time></trkpt><trkpt lat="43.5442954" lon="10.7224485"><ele>117.0</ele><time>2026-04-18T06:21:19.45Z</time></trkpt><trkpt lat="43.5443537" lon="10.7223114"><ele>116.25</ele><time>2026-04-18T06:21:20.464Z</time></trkpt><trkpt lat="43.5444982" lon="10.7220966"><ele>115.5</ele><time>2026-04-18T06:21:22.321Z</time></trkpt><trkpt lat="43.5445756" lon="10.7219882"><ele>114.75</ele><time>2026-04-18T06:21:23.333Z</time></trkpt><trkpt lat="43.5446518" lon="10.7218756"><ele>114.0</ele><time>2026-04-18T06:21:24.42Z</time></trkpt><trkpt lat="43.544731" lon="10.7217911"><ele>115.5</ele><time>2026-04-18T06:21:25.457Z</time></trkpt><trkpt lat="43.5448173" lon="10.7217146"><ele>117.0</ele><time>2026-04-18T06:21:26.457Z</time></trkpt><trkpt lat="43.5449119" lon="10.7216398"><ele>118.5</ele><time>2026-04-18T06:21:27.447Z</time></trkpt><trkpt lat="43.5450116" lon="10.7215763"><ele>120.0</ele><time>2026-04-18T06:21:28.45Z</time></trkpt><trkpt lat="43.5452278" lon="10.7214666"><ele>120.0</ele><time>2026-04-18T06:21:30.322Z</time></trkpt><trkpt lat="43.5453294" lon="10.7214137"><ele>120.0</ele><time>2026-04-18T06:21:31.451Z</time></trkpt><trkpt lat="43.5454253" lon="10.7213631"><ele>120.0</ele><time>2026-04-18T06:21:32.414Z</time></trkpt><trkpt lat="43.545508" lon="10.7213142"><ele>120.0</ele><time>2026-04-18T06:21:33.454Z</time></trkpt><trkpt lat="43.5455991" lon="10.7212764"><ele>120.0</ele><time>2026-04-18T06:21:34.45Z</time></trkpt><trkpt lat="43.5456834" lon="10.7212361"><ele>119.5</ele><time>2026-04-18T06:21:35.469Z</time></trkpt><trkpt lat="43.5457473" lon="10.7211669"><ele>119.0</ele><time>2026-04-18T06:21:37.451Z</time></trkpt><trkpt lat="43.545778" lon="10.7210542"><ele>118.5</ele><time>2026-04-18T06:21:39.444Z</time></trkpt><trkpt lat="43.5457015" lon="10.7209476"><ele>118.0</ele><time>2026-04-18T06:21:41.458Z</time></trkpt><trkpt lat="43.5456341" lon="10.7208857"><ele>117.5</ele><time>2026-04-18T06:21:42.446Z</time></trkpt><trkpt lat="43.5455602" lon="10.7208311"><ele>117.0</ele><time>2026-04-18T06:21:43.451Z</time></trkpt><trkpt lat="43.5454726" lon="10.720782"><ele>117.8</ele><time>2026-04-18T06:21:44.436Z</time></trkpt><trkpt lat="43.5453089" lon="10.7207183"><ele>118.6</ele><time>2026-04-18T06:21:46.324Z</time></trkpt><trkpt lat="43.5452311" lon="10.7206921"><ele>119.39999999999999</ele><time>2026-04-18T06:21:47.457Z</time></trkpt><trkpt lat="43.5451566" lon="10.7206574"><ele>120.19999999999999</ele><time>2026-04-18T06:21:48.463Z</time></trkpt><trkpt lat="43.5450937" lon="10.7206135"><ele>121.0</ele><time>2026-04-18T06:21:49.449Z</time></trkpt><trkpt lat="43.5450301" lon="10.7204731"><ele>121.00000000000001</ele><time>2026-04-18T06:21:51.456Z</time></trkpt><trkpt lat="43.5450409" lon="10.7203868"><ele>121.0</ele><time>2026-04-18T06:21:52.454Z</time></trkpt><trkpt lat="43.5450752" lon="10.7202961"><ele>121.0</ele><time>2026-04-18T06:21:53.452Z</time></trkpt><trkpt lat="43.5451218" lon="10.7202055"><ele>121.0</ele><time>2026-04-18T06:21:54.452Z</time></trkpt><trkpt lat="43.5451759" lon="10.7201214"><ele>121.00000000000001</ele><time>2026-04-18T06:21:55.424Z</time></trkpt><trkpt lat="43.5452332" lon="10.7200432"><ele>121.0</ele><time>2026-04-18T06:21:56.471Z</time></trkpt><trkpt lat="43.5452918" lon="10.719972"><ele>120.5</ele><time>2026-04-18T06:21:57.43Z</time></trkpt><trkpt lat="43.5453541" lon="10.7199084"><ele>120.0</ele><time>2026-04-18T06:21:58.448Z</time></trkpt><trkpt lat="43.5454227" lon="10.7198481"><ele>119.5</ele><time>2026-04-18T06:21:59.455Z</time></trkpt><trkpt lat="43.545599" lon="10.7197342"><ele>119.0</ele><time>2026-04-18T06:22:01.454Z</time></trkpt><trkpt lat="43.5456956" lon="10.7196884"><ele>119.0</ele><time>2026-04-18T06:22:02.47Z</time></trkpt><trkpt lat="43.5457943" lon="10.7196426"><ele>119.0</ele><time>2026-04-18T06:22:03.464Z</time></trkpt><trkpt lat="43.5458928" lon="10.7195973"><ele>119.0</ele><time>2026-04-18T06:22:04.462Z</time></trkpt><trkpt lat="43.5459918" lon="10.7195528"><ele>119.0</ele><time>2026-04-18T06:22:05.467Z</time></trkpt><trkpt lat="43.5460876" lon="10.7195089"><ele>119.0</ele><time>2026-04-18T06:22:06.454Z</time></trkpt><trkpt lat="43.5461842" lon="10.7194691"><ele>119.80000000000001</ele><time>2026-04-18T06:22:07.422Z</time></trkpt><trkpt lat="43.5462821" lon="10.7194308"><ele>120.60000000000001</ele><time>2026-04-18T06:22:08.327Z</time></trkpt><trkpt lat="43.5463724" lon="10.7193931"><ele>121.4</ele><time>2026-04-18T06:22:09.32Z</time></trkpt><trkpt lat="43.5464544" lon="10.7193604"><ele>122.2</ele><time>2026-04-18T06:22:10.323Z</time></trkpt><trkpt lat="43.5465344" lon="10.7193429"><ele>123.0</ele><time>2026-04-18T06:22:11.326Z</time></trkpt><trkpt lat="43.546622" lon="10.7193484"><ele>119.75</ele><time>2026-04-18T06:22:12.318Z</time></trkpt><trkpt lat="43.5467126" lon="10.7193544"><ele>116.5</ele><time>2026-04-18T06:22:13.432Z</time></trkpt><trkpt lat="43.5468048" lon="10.7193631"><ele>113.25</ele><time>2026-04-18T06:22:14.468Z</time></trkpt><trkpt lat="43.5469043" lon="10.7193663"><ele>110.0</ele><time>2026-04-18T06:22:15.461Z</time></trkpt><trkpt lat="43.5471165" lon="10.7193492"><ele>109.5</ele><time>2026-04-18T06:22:17.314Z</time></trkpt><trkpt lat="43.5472265" lon="10.7193447"><ele>109.0</ele><time>2026-04-18T06:22:18.317Z</time></trkpt><trkpt lat="43.5473445" lon="10.7193409"><ele>108.5</ele><time>2026-04-18T06:22:19.323Z</time></trkpt><trkpt lat="43.5474639" lon="10.719335"><ele>108.0</ele><time>2026-04-18T06:22:20.327Z</time></trkpt><trkpt lat="43.5475934" lon="10.7193229"><ele>108.0</ele><time>2026-04-18T06:22:21.324Z</time></trkpt><trkpt lat="43.5477212" lon="10.7193143"><ele>108.0</ele><time>2026-04-18T06:22:22.325Z</time></trkpt><trkpt lat="43.5478507" lon="10.7193101"><ele>108.0</ele><time>2026-04-18T06:22:23.448Z</time></trkpt><trkpt lat="43.547985" lon="10.7193056"><ele>108.0</ele><time>2026-04-18T06:22:24.454Z</time></trkpt><trkpt lat="43.5481184" lon="10.7193032"><ele>109.5</ele><time>2026-04-18T06:22:25.449Z</time></trkpt><trkpt lat="43.5482545" lon="10.7193032"><ele>111.0</ele><time>2026-04-18T06:22:26.399Z</time></trkpt><trkpt lat="43.5483923" lon="10.7193024"><ele>112.5</ele><time>2026-04-18T06:22:27.454Z</time></trkpt><trkpt lat="43.5485336" lon="10.7192972"><ele>114.0</ele><time>2026-04-18T06:22:28.459Z</time></trkpt><trkpt lat="43.5486756" lon="10.7193003"><ele>114.5</ele><time>2026-04-18T06:22:29.422Z</time></trkpt><trkpt lat="43.5488113" lon="10.7193142"><ele>115.0</ele><time>2026-04-18T06:22:30.451Z</time></trkpt><trkpt lat="43.5489461" lon="10.7193464"><ele>115.5</ele><time>2026-04-18T06:22:31.44Z</time></trkpt><trkpt lat="43.549073" lon="10.7193971"><ele>116.0</ele><time>2026-04-18T06:22:32.44Z</time></trkpt><trkpt lat="43.5491806" lon="10.7194497"><ele>120.4</ele><time>2026-04-18T06:22:33.447Z</time></trkpt><trkpt lat="43.549264" lon="10.7195189"><ele>124.8</ele><time>2026-04-18T06:22:34.431Z</time></trkpt><trkpt lat="43.5493294" lon="10.7196089"><ele>129.20000000000002</ele><time>2026-04-18T06:22:35.439Z</time></trkpt><trkpt lat="43.5493929" lon="10.7197058"><ele>133.6</ele><time>2026-04-18T06:22:36.423Z</time></trkpt><trkpt lat="43.5494536" lon="10.7198061"><ele>138.0</ele><time>2026-04-18T06:22:37.445Z</time></trkpt><trkpt lat="43.5495105" lon="10.71991"><ele>135.5</ele><time>2026-04-18T06:22:38.452Z</time></trkpt><trkpt lat="43.5495726" lon="10.7200138"><ele>133.0</ele><time>2026-04-18T06:22:39.449Z</time></trkpt><trkpt lat="43.5496294" lon="10.720123"><ele>130.5</ele><time>2026-04-18T06:22:40.444Z</time></trkpt><trkpt lat="43.5496727" lon="10.7202419"><ele>128.0</ele><time>2026-04-18T06:22:41.437Z</time></trkpt><trkpt lat="43.5496997" lon="10.7205071"><ele>128.0</ele><time>2026-04-18T06:22:43.331Z</time></trkpt><trkpt lat="43.5496896" lon="10.7206558"><ele>128.0</ele><time>2026-04-18T06:22:44.324Z</time></trkpt><trkpt lat="43.5496789" lon="10.7208106"><ele>128.0</ele><time>2026-04-18T06:22:45.444Z</time></trkpt><trkpt lat="43.5496717" lon="10.7209584"><ele>128.0</ele><time>2026-04-18T06:22:46.452Z</time></trkpt><trkpt lat="43.5496622" lon="10.7210928"><ele>128.0</ele><time>2026-04-18T06:22:47.441Z</time></trkpt><trkpt lat="43.5496437" lon="10.7212063"><ele>129.20000000000002</ele><time>2026-04-18T06:22:48.449Z</time></trkpt><trkpt lat="43.5496138" lon="10.7212982"><ele>130.4</ele><time>2026-04-18T06:22:49.462Z</time></trkpt><trkpt lat="43.5495884" lon="10.7214624"><ele>131.60000000000002</ele><time>2026-04-18T06:22:51.45Z</time></trkpt><trkpt lat="43.54962" lon="10.7216859"><ele>132.8</ele><time>2026-04-18T06:22:53.32Z</time></trkpt><trkpt lat="43.5496502" lon="10.7217961"><ele>134.0</ele><time>2026-04-18T06:22:54.441Z</time></trkpt><trkpt lat="43.5496974" lon="10.7219228"><ele>134.5</ele><time>2026-04-18T06:22:56.37Z</time></trkpt><trkpt lat="43.5497801" lon="10.7221741"><ele>135.0</ele><time>2026-04-18T06:22:57.401Z</time></trkpt><trkpt lat="43.5498177" lon="10.7222984"><ele>135.5</ele><time>2026-04-18T06:22:58.45Z</time></trkpt><trkpt lat="43.5498403" lon="10.7224277"><ele>136.0</ele><time>2026-04-18T06:22:59.455Z</time></trkpt><trkpt lat="43.5498545" lon="10.7225718"><ele>136.0</ele><time>2026-04-18T06:23:00.427Z</time></trkpt><trkpt lat="43.549849" lon="10.7227032"><ele>136.0</ele><time>2026-04-18T06:23:01.455Z</time></trkpt><trkpt lat="43.5498459" lon="10.7228277"><ele>136.0</ele><time>2026-04-18T06:23:02.417Z</time></trkpt><trkpt lat="43.5498657" lon="10.722964"><ele>136.0</ele><time>2026-04-18T06:23:03.322Z</time></trkpt><trkpt lat="43.5499112" lon="10.7230954"><ele>136.0</ele><time>2026-04-18T06:23:04.45Z</time></trkpt><trkpt lat="43.5499582" lon="10.7232329"><ele>135.0</ele><time>2026-04-18T06:23:05.453Z</time></trkpt><trkpt lat="43.5499937" lon="10.7233814"><ele>134.0</ele><time>2026-04-18T06:23:06.428Z</time></trkpt><trkpt lat="43.5500118" lon="10.7235385"><ele>133.0</ele><time>2026-04-18T06:23:07.448Z</time></trkpt><trkpt lat="43.5500758" lon="10.7238468"><ele>131.6</ele><time>2026-04-18T06:23:09.463Z</time></trkpt><trkpt lat="43.5501615" lon="10.7239606"><ele>130.20000000000002</ele><time>2026-04-18T06:23:10.44Z</time></trkpt><trkpt lat="43.5502235" lon="10.7240721"><ele>128.8</ele><time>2026-04-18T06:23:11.445Z</time></trkpt><trkpt lat="43.5502839" lon="10.7241749"><ele>127.4</ele><time>2026-04-18T06:23:12.455Z</time></trkpt><trkpt lat="43.5503382" lon="10.7242623"><ele>126.0</ele><time>2026-04-18T06:23:13.464Z</time></trkpt><trkpt lat="43.5504088" lon="10.7243361"><ele>126.0</ele><time>2026-04-18T06:23:14.468Z</time></trkpt><trkpt lat="43.5505428" lon="10.7243289"><ele>126.0</ele><time>2026-04-18T06:23:15.456Z</time></trkpt><trkpt lat="43.5506483" lon="10.7243466"><ele>126.0</ele><time>2026-04-18T06:23:16.45Z</time></trkpt><trkpt lat="43.550755" lon="10.7243564"><ele>126.0</ele><time>2026-04-18T06:23:17.429Z</time></trkpt><trkpt lat="43.5509311" lon="10.7243722"><ele>120.25</ele><time>2026-04-18T06:23:18.451Z</time></trkpt><trkpt lat="43.5510773" lon="10.7244101"><ele>114.5</ele><time>2026-04-18T06:23:19.464Z</time></trkpt><trkpt lat="43.5512288" lon="10.7244404"><ele>108.75</ele><time>2026-04-18T06:23:20.445Z</time></trkpt><trkpt lat="43.5513561" lon="10.7244976"><ele>103.0</ele><time>2026-04-18T06:23:21.425Z</time></trkpt><trkpt lat="43.5514892" lon="10.7245424"><ele>102.5</ele><time>2026-04-18T06:23:22.453Z</time></trkpt><trkpt lat="43.5516152" lon="10.7245888"><ele>102.0</ele><time>2026-04-18T06:23:23.468Z</time></trkpt><trkpt lat="43.551745" lon="10.7246272"><ele>101.5</ele><time>2026-04-18T06:23:24.413Z</time></trkpt><trkpt lat="43.5518841" lon="10.7246447"><ele>101.0</ele><time>2026-04-18T06:23:25.456Z</time></trkpt><trkpt lat="43.552136" lon="10.7245999"><ele>99.5</ele><time>2026-04-18T06:23:27.309Z</time></trkpt><trkpt lat="43.5522662" lon="10.7245866"><ele>98.0</ele><time>2026-04-18T06:23:28.31Z</time></trkpt><trkpt lat="43.5523913" lon="10.724571"><ele>96.5</ele><time>2026-04-18T06:23:29.313Z</time></trkpt><trkpt lat="43.5525161" lon="10.7245727"><ele>95.0</ele><time>2026-04-18T06:23:30.317Z</time></trkpt><trkpt lat="43.5526444" lon="10.7245933"><ele>95.0</ele><time>2026-04-18T06:23:31.324Z</time></trkpt><trkpt lat="43.55278" lon="10.7246178"><ele>95.0</ele><time>2026-04-18T06:23:32.403Z</time></trkpt><trkpt lat="43.5529203" lon="10.7246504"><ele>95.0</ele><time>2026-04-18T06:23:33.453Z</time></trkpt><trkpt lat="43.5530647" lon="10.724681"><ele>95.0</ele><time>2026-04-18T06:23:34.46Z</time></trkpt><trkpt lat="43.553214" lon="10.7247149"><ele>92.75</ele><time>2026-04-18T06:23:35.43Z</time></trkpt><trkpt lat="43.5533547" lon="10.7247441"><ele>90.5</ele><time>2026-04-18T06:23:36.45Z</time></trkpt><trkpt lat="43.5534973" lon="10.7247787"><ele>88.25</ele><time>2026-04-18T06:23:37.467Z</time></trkpt><trkpt lat="43.5536377" lon="10.7248129"><ele>86.0</ele><time>2026-04-18T06:23:38.459Z</time></trkpt><trkpt lat="43.5537827" lon="10.7248416"><ele>84.75</ele><time>2026-04-18T06:23:39.424Z</time></trkpt><trkpt lat="43.5539203" lon="10.724864"><ele>83.5</ele><time>2026-04-18T06:23:40.454Z</time></trkpt><trkpt lat="43.5540709" lon="10.7248847"><ele>82.25</ele><time>2026-04-18T06:23:41.45Z</time></trkpt><trkpt lat="43.5542209" lon="10.7249046"><ele>81.0</ele><time>2026-04-18T06:23:42.42Z</time></trkpt><trkpt lat="43.5543738" lon="10.7249105"><ele>81.0</ele><time>2026-04-18T06:23:43.321Z</time></trkpt><trkpt lat="43.5545325" lon="10.7249023"><ele>81.0</ele><time>2026-04-18T06:23:44.323Z</time></trkpt><trkpt lat="43.5546943" lon="10.7248947"><ele>81.0</ele><time>2026-04-18T06:23:45.462Z</time></trkpt><trkpt lat="43.5548569" lon="10.7248894"><ele>78.0</ele><time>2026-04-18T06:23:46.452Z</time></trkpt><trkpt lat="43.5550099" lon="10.7248815"><ele>75.0</ele><time>2026-04-18T06:23:47.457Z</time></trkpt><trkpt lat="43.555159" lon="10.72488"><ele>72.0</ele><time>2026-04-18T06:23:48.459Z</time></trkpt><trkpt lat="43.5553109" lon="10.724878"><ele>69.5</ele><time>2026-04-18T06:23:49.451Z</time></trkpt><trkpt lat="43.5556222" lon="10.7248802"><ele>67.0</ele><time>2026-04-18T06:23:51.458Z</time></trkpt><trkpt lat="43.5557822" lon="10.7248922"><ele>67.0</ele><time>2026-04-18T06:23:52.459Z</time></trkpt><trkpt lat="43.5561102" lon="10.724965"><ele>67.0</ele><time>2026-04-18T06:23:54.429Z</time></trkpt><trkpt lat="43.5562734" lon="10.7250284"><ele>66.33333333333333</ele><time>2026-04-18T06:23:55.455Z</time></trkpt><trkpt lat="43.5564419" lon="10.7250892"><ele>65.66666666666667</ele><time>2026-04-18T06:23:56.457Z</time></trkpt><trkpt lat="43.5566191" lon="10.7251512"><ele>65.0</ele><time>2026-04-18T06:23:57.463Z</time></trkpt><trkpt lat="43.5567963" lon="10.7252151"><ele>60.66666666666667</ele><time>2026-04-18T06:23:58.446Z</time></trkpt><trkpt lat="43.5569679" lon="10.7252904"><ele>56.33333333333333</ele><time>2026-04-18T06:23:59.367Z</time></trkpt><trkpt lat="43.5571295" lon="10.7253944"><ele>52.0</ele><time>2026-04-18T06:24:00.321Z</time></trkpt><trkpt lat="43.5572858" lon="10.7255264"><ele>51.0</ele><time>2026-04-18T06:24:01.43Z</time></trkpt><trkpt lat="43.557426" lon="10.7256895"><ele>50.0</ele><time>2026-04-18T06:24:02.456Z</time></trkpt><trkpt lat="43.5576839" lon="10.7260716"><ele>49.333333333333336</ele><time>2026-04-18T06:24:04.452Z</time></trkpt><trkpt lat="43.5578088" lon="10.7262756"><ele>48.66666666666667</ele><time>2026-04-18T06:24:05.458Z</time></trkpt><trkpt lat="43.5579347" lon="10.7264749"><ele>48.0</ele><time>2026-04-18T06:24:06.44Z</time></trkpt><trkpt lat="43.5580596" lon="10.7266711"><ele>47.666666666666664</ele><time>2026-04-18T06:24:07.465Z</time></trkpt><trkpt lat="43.5581797" lon="10.7268712"><ele>47.33333333333333</ele><time>2026-04-18T06:24:08.422Z</time></trkpt><trkpt lat="43.558303" lon="10.7270642"><ele>47.0</ele><time>2026-04-18T06:24:09.438Z</time></trkpt><trkpt lat="43.5584252" lon="10.7272561"><ele>47.0</ele><time>2026-04-18T06:24:10.455Z</time></trkpt><trkpt lat="43.5585489" lon="10.7274546"><ele>47.0</ele><time>2026-04-18T06:24:11.47Z</time></trkpt><trkpt lat="43.5586758" lon="10.7276562"><ele>47.0</ele><time>2026-04-18T06:24:12.443Z</time></trkpt><trkpt lat="43.5588053" lon="10.7278617"><ele>47.0</ele><time>2026-04-18T06:24:13.416Z</time></trkpt><trkpt lat="43.558933" lon="10.7280675"><ele>47.0</ele><time>2026-04-18T06:24:14.435Z</time></trkpt><trkpt lat="43.5590593" lon="10.7282702"><ele>47.0</ele><time>2026-04-18T06:24:15.454Z</time></trkpt><trkpt lat="43.5591816" lon="10.7284707"><ele>47.666666666666664</ele><time>2026-04-18T06:24:16.448Z</time></trkpt><trkpt lat="43.5593005" lon="10.7286615"><ele>48.33333333333333</ele><time>2026-04-18T06:24:17.429Z</time></trkpt><trkpt lat="43.5594207" lon="10.7288496"><ele>49.0</ele><time>2026-04-18T06:24:18.442Z</time></trkpt><trkpt lat="43.5595401" lon="10.7290419"><ele>47.666666666666664</ele><time>2026-04-18T06:24:19.434Z</time></trkpt><trkpt lat="43.5596598" lon="10.7292337"><ele>46.33333333333333</ele><time>2026-04-18T06:24:20.455Z</time></trkpt><trkpt lat="43.5597795" lon="10.7294292"><ele>45.0</ele><time>2026-04-18T06:24:21.45Z</time></trkpt><trkpt lat="43.5599032" lon="10.7296212"><ele>45.0</ele><time>2026-04-18T06:24:22.463Z</time></trkpt><trkpt lat="43.5600222" lon="10.7298241"><ele>45.0</ele><time>2026-04-18T06:24:23.457Z</time></trkpt><trkpt lat="43.5601444" lon="10.7300246"><ele>45.0</ele><time>2026-04-18T06:24:24.446Z</time></trkpt><trkpt lat="43.5602665" lon="10.7302261"><ele>45.0</ele><time>2026-04-18T06:24:25.446Z</time></trkpt><trkpt lat="43.5603927" lon="10.7304207"><ele>45.0</ele><time>2026-04-18T06:24:26.459Z</time></trkpt><trkpt lat="43.5605175" lon="10.7306176"><ele>45.0</ele><time>2026-04-18T06:24:27.428Z</time></trkpt><trkpt lat="43.5606418" lon="10.7308135"><ele>45.0</ele><time>2026-04-18T06:24:28.427Z</time></trkpt><trkpt lat="43.5607669" lon="10.7310107"><ele>45.0</ele><time>2026-04-18T06:24:29.45Z</time></trkpt><trkpt lat="43.5608919" lon="10.7312059"><ele>45.0</ele><time>2026-04-18T06:24:30.452Z</time></trkpt><trkpt lat="43.5610144" lon="10.7314021"><ele>45.0</ele><time>2026-04-18T06:24:31.4Z</time></trkpt><trkpt lat="43.5611367" lon="10.7315982"><ele>45.0</ele><time>2026-04-18T06:24:32.321Z</time></trkpt><trkpt lat="43.5612619" lon="10.7317892"><ele>45.0</ele><time>2026-04-18T06:24:33.322Z</time></trkpt><trkpt lat="43.561387" lon="10.7319837"><ele>45.0</ele><time>2026-04-18T06:24:34.325Z</time></trkpt><trkpt lat="43.5615091" lon="10.7321805"><ele>45.0</ele><time>2026-04-18T06:24:35.316Z</time></trkpt><trkpt lat="43.5616274" lon="10.7323734"><ele>45.0</ele><time>2026-04-18T06:24:36.32Z</time></trkpt><trkpt lat="43.5617447" lon="10.7325657"><ele>45.333333333333336</ele><time>2026-04-18T06:24:37.322Z</time></trkpt><trkpt lat="43.5618637" lon="10.7327512"><ele>45.66666666666667</ele><time>2026-04-18T06:24:38.315Z</time></trkpt><trkpt lat="43.5619818" lon="10.7329426"><ele>46.0</ele><time>2026-04-18T06:24:39.319Z</time></trkpt><trkpt lat="43.5621049" lon="10.733135"><ele>46.333333333333336</ele><time>2026-04-18T06:24:40.32Z</time></trkpt><trkpt lat="43.5622295" lon="10.733332"><ele>46.666666666666664</ele><time>2026-04-18T06:24:41.325Z</time></trkpt><trkpt lat="43.5623574" lon="10.7335327"><ele>47.0</ele><time>2026-04-18T06:24:42.325Z</time></trkpt><trkpt lat="43.5624874" lon="10.7337405"><ele>47.0</ele><time>2026-04-18T06:24:43.325Z</time></trkpt><trkpt lat="43.5626143" lon="10.7339536"><ele>47.0</ele><time>2026-04-18T06:24:44.323Z</time></trkpt><trkpt lat="43.5627454" lon="10.7341669"><ele>47.0</ele><time>2026-04-18T06:24:45.446Z</time></trkpt><trkpt lat="43.5628779" lon="10.7343853"><ele>47.33333333333333</ele><time>2026-04-18T06:24:46.416Z</time></trkpt><trkpt lat="43.5630071" lon="10.7346103"><ele>47.666666666666664</ele><time>2026-04-18T06:24:47.421Z</time></trkpt><trkpt lat="43.5631264" lon="10.7348524"><ele>48.0</ele><time>2026-04-18T06:24:48.463Z</time></trkpt><trkpt lat="43.5632358" lon="10.7351063"><ele>47.666666666666664</ele><time>2026-04-18T06:24:49.467Z</time></trkpt><trkpt lat="43.5633428" lon="10.7353639"><ele>47.33333333333333</ele><time>2026-04-18T06:24:50.449Z</time></trkpt><trkpt lat="43.5634517" lon="10.7356185"><ele>47.0</ele><time>2026-04-18T06:24:51.462Z</time></trkpt><trkpt lat="43.5635554" lon="10.7358692"><ele>47.33333333333333</ele><time>2026-04-18T06:24:52.465Z</time></trkpt><trkpt lat="43.5636527" lon="10.7360936"><ele>47.666666666666664</ele><time>2026-04-18T06:24:53.447Z</time></trkpt><trkpt lat="43.5637429" lon="10.7362981"><ele>48.0</ele><time>2026-04-18T06:24:54.465Z</time></trkpt><trkpt lat="43.5638297" lon="10.736505"><ele>48.0</ele><time>2026-04-18T06:24:55.464Z</time></trkpt><trkpt lat="43.5639963" lon="10.736918"><ele>48.0</ele><time>2026-04-18T06:24:57.332Z</time></trkpt><trkpt lat="43.5640815" lon="10.7371183"><ele>48.0</ele><time>2026-04-18T06:24:58.325Z</time></trkpt><trkpt lat="43.5641716" lon="10.7373109"><ele>48.0</ele><time>2026-04-18T06:24:59.425Z</time></trkpt><trkpt lat="43.5642607" lon="10.7375067"><ele>48.0</ele><time>2026-04-18T06:25:00.443Z</time></trkpt><trkpt lat="43.564347" lon="10.7377053"><ele>48.0</ele><time>2026-04-18T06:25:01.442Z</time></trkpt><trkpt lat="43.5644258" lon="10.7378985"><ele>48.0</ele><time>2026-04-18T06:25:02.448Z</time></trkpt><trkpt lat="43.5644982" lon="10.7380785"><ele>48.0</ele><time>2026-04-18T06:25:03.452Z</time></trkpt><trkpt lat="43.5645686" lon="10.7382471"><ele>48.33333333333333</ele><time>2026-04-18T06:25:04.456Z</time></trkpt><trkpt lat="43.5646418" lon="10.7384116"><ele>48.666666666666664</ele><time>2026-04-18T06:25:05.463Z</time></trkpt><trkpt lat="43.5647169" lon="10.7385712"><ele>49.0</ele><time>2026-04-18T06:25:06.463Z</time></trkpt><trkpt lat="43.5648687" lon="10.7388353"><ele>49.5</ele><time>2026-04-18T06:25:08.321Z</time></trkpt><trkpt lat="43.564939" lon="10.7389513"><ele>50.0</ele><time>2026-04-18T06:25:09.451Z</time></trkpt><trkpt lat="43.5650418" lon="10.7391645"><ele>50.5</ele><time>2026-04-18T06:25:11.443Z</time></trkpt><trkpt lat="43.565055" lon="10.7392831"><ele>51.0</ele><time>2026-04-18T06:25:12.452Z</time></trkpt><trkpt lat="43.5650435" lon="10.7394097"><ele>51.5</ele><time>2026-04-18T06:25:13.462Z</time></trkpt><trkpt lat="43.5650039" lon="10.7395371"><ele>52.0</ele><time>2026-04-18T06:25:14.39Z</time></trkpt><trkpt lat="43.5649378" lon="10.7396646"><ele>52.5</ele><time>2026-04-18T06:25:15.45Z</time></trkpt><trkpt lat="43.5648558" lon="10.7397975"><ele>53.0</ele><time>2026-04-18T06:25:16.451Z</time></trkpt><trkpt lat="43.5647697" lon="10.7399472"><ele>53.0</ele><time>2026-04-18T06:25:17.451Z</time></trkpt><trkpt lat="43.5646809" lon="10.740107"><ele>53.0</ele><time>2026-04-18T06:25:18.449Z</time></trkpt><trkpt lat="43.564589" lon="10.7402754"><ele>53.0</ele><time>2026-04-18T06:25:19.423Z</time></trkpt><trkpt lat="43.5644955" lon="10.7404493"><ele>52.333333333333336</ele><time>2026-04-18T06:25:20.419Z</time></trkpt><trkpt lat="43.5643984" lon="10.7406268"><ele>51.66666666666667</ele><time>2026-04-18T06:25:21.462Z</time></trkpt><trkpt lat="43.5642978" lon="10.7408008"><ele>51.0</ele><time>2026-04-18T06:25:22.45Z</time></trkpt><trkpt lat="43.5641973" lon="10.7409803"><ele>53.0</ele><time>2026-04-18T06:25:23.457Z</time></trkpt><trkpt lat="43.564095" lon="10.7411633"><ele>55.0</ele><time>2026-04-18T06:25:24.439Z</time></trkpt><trkpt lat="43.5639919" lon="10.7413467"><ele>57.0</ele><time>2026-04-18T06:25:25.454Z</time></trkpt><trkpt lat="43.5638893" lon="10.7415273"><ele>57.0</ele><time>2026-04-18T06:25:26.448Z</time></trkpt><trkpt lat="43.5637876" lon="10.7417108"><ele>57.0</ele><time>2026-04-18T06:25:27.426Z</time></trkpt><trkpt lat="43.5636864" lon="10.7418886"><ele>57.0</ele><time>2026-04-18T06:25:28.464Z</time></trkpt><trkpt lat="43.5634863" lon="10.7422383"><ele>57.33333333333333</ele><time>2026-04-18T06:25:30.46Z</time></trkpt><trkpt lat="43.5633925" lon="10.7424135"><ele>57.666666666666664</ele><time>2026-04-18T06:25:31.471Z</time></trkpt><trkpt lat="43.5632962" lon="10.7425891"><ele>58.0</ele><time>2026-04-18T06:25:32.463Z</time></trkpt><trkpt lat="43.5631987" lon="10.7427596"><ele>58.0</ele><time>2026-04-18T06:25:33.467Z</time></trkpt><trkpt lat="43.563104" lon="10.7429318"><ele>58.0</ele><time>2026-04-18T06:25:34.456Z</time></trkpt><trkpt lat="43.5630086" lon="10.7431064"><ele>58.0</ele><time>2026-04-18T06:25:35.442Z</time></trkpt><trkpt lat="43.5629111" lon="10.7432819"><ele>57.0</ele><time>2026-04-18T06:25:36.45Z</time></trkpt><trkpt lat="43.5628109" lon="10.7434558"><ele>56.0</ele><time>2026-04-18T06:25:37.458Z</time></trkpt><trkpt lat="43.5627079" lon="10.7436355"><ele>55.0</ele><time>2026-04-18T06:25:38.456Z</time></trkpt><trkpt lat="43.5626074" lon="10.7438214"><ele>55.0</ele><time>2026-04-18T06:25:39.458Z</time></trkpt><trkpt lat="43.5625152" lon="10.7440132"><ele>55.0</ele><time>2026-04-18T06:25:40.455Z</time></trkpt><trkpt lat="43.5623565" lon="10.744422"><ele>56.0</ele><time>2026-04-18T06:25:42.324Z</time></trkpt><trkpt lat="43.5622921" lon="10.7446419"><ele>57.0</ele><time>2026-04-18T06:25:43.452Z</time></trkpt><trkpt lat="43.5622362" lon="10.7448692"><ele>58.0</ele><time>2026-04-18T06:25:44.453Z</time></trkpt><trkpt lat="43.5621965" lon="10.7451041"><ele>58.0</ele><time>2026-04-18T06:25:45.456Z</time></trkpt><trkpt lat="43.5621691" lon="10.7453462"><ele>58.0</ele><time>2026-04-18T06:25:46.455Z</time></trkpt><trkpt lat="43.5621534" lon="10.7455918"><ele>58.0</ele><time>2026-04-18T06:25:47.459Z</time></trkpt><trkpt lat="43.5621429" lon="10.7458421"><ele>56.666666666666664</ele><time>2026-04-18T06:25:48.458Z</time></trkpt><trkpt lat="43.5621392" lon="10.7460969"><ele>55.33333333333333</ele><time>2026-04-18T06:25:49.45Z</time></trkpt><trkpt lat="43.5621474" lon="10.7463514"><ele>54.0</ele><time>2026-04-18T06:25:50.451Z</time></trkpt><trkpt lat="43.5621692" lon="10.7465988"><ele>54.0</ele><time>2026-04-18T06:25:51.451Z</time></trkpt><trkpt lat="43.5622064" lon="10.7468296"><ele>54.0</ele><time>2026-04-18T06:25:52.447Z</time></trkpt><trkpt lat="43.5622516" lon="10.7470419"><ele>54.0</ele><time>2026-04-18T06:25:53.456Z</time></trkpt><trkpt lat="43.5623033" lon="10.7472323"><ele>53.66666666666667</ele><time>2026-04-18T06:25:54.421Z</time></trkpt><trkpt lat="43.5623592" lon="10.7474039"><ele>53.333333333333336</ele><time>2026-04-18T06:25:55.451Z</time></trkpt><trkpt lat="43.5624717" lon="10.7477536"><ele>53.0</ele><time>2026-04-18T06:25:57.331Z</time></trkpt><trkpt lat="43.5625309" lon="10.7479324"><ele>53.0</ele><time>2026-04-18T06:25:58.322Z</time></trkpt><trkpt lat="43.562588" lon="10.7481016"><ele>53.0</ele><time>2026-04-18T06:25:59.324Z</time></trkpt><trkpt lat="43.5626418" lon="10.748256"><ele>53.0</ele><time>2026-04-18T06:26:00.443Z</time></trkpt><trkpt lat="43.5626882" lon="10.7483809"><ele>53.0</ele><time>2026-04-18T06:26:01.462Z</time></trkpt><trkpt lat="43.5627213" lon="10.7485006"><ele>52.8</ele><time>2026-04-18T06:26:02.454Z</time></trkpt><trkpt lat="43.5627271" lon="10.7486165"><ele>52.599999999999994</ele><time>2026-04-18T06:26:03.442Z</time></trkpt><trkpt lat="43.5627045" lon="10.74873"><ele>52.400000000000006</ele><time>2026-04-18T06:26:04.447Z</time></trkpt><trkpt lat="43.5626506" lon="10.7488305"><ele>52.2</ele><time>2026-04-18T06:26:05.47Z</time></trkpt><trkpt lat="43.5625691" lon="10.7489045"><ele>52.0</ele><time>2026-04-18T06:26:06.445Z</time></trkpt><trkpt lat="43.5624659" lon="10.7489425"><ele>52.0</ele><time>2026-04-18T06:26:07.454Z</time></trkpt><trkpt lat="43.5623467" lon="10.7489376"><ele>52.0</ele><time>2026-04-18T06:26:08.444Z</time></trkpt><trkpt lat="43.5622131" lon="10.7489155"><ele>52.0</ele><time>2026-04-18T06:26:09.445Z</time></trkpt><trkpt lat="43.5620679" lon="10.7488842"><ele>52.0</ele><time>2026-04-18T06:26:10.477Z</time></trkpt><trkpt lat="43.5619114" lon="10.7488495"><ele>51.5</ele><time>2026-04-18T06:26:11.464Z</time></trkpt><trkpt lat="43.5617594" lon="10.7488245"><ele>51.0</ele><time>2026-04-18T06:26:12.457Z</time></trkpt><trkpt lat="43.561614" lon="10.7488067"><ele>50.5</ele><time>2026-04-18T06:26:13.436Z</time></trkpt><trkpt lat="43.5614698" lon="10.7487956"><ele>50.0</ele><time>2026-04-18T06:26:14.446Z</time></trkpt><trkpt lat="43.5612043" lon="10.7488164"><ele>50.66666666666667</ele><time>2026-04-18T06:26:16.324Z</time></trkpt><trkpt lat="43.5610732" lon="10.748851"><ele>51.33333333333333</ele><time>2026-04-18T06:26:17.453Z</time></trkpt><trkpt lat="43.5608162" lon="10.7489257"><ele>52.0</ele><time>2026-04-18T06:26:19.315Z</time></trkpt><trkpt lat="43.560685" lon="10.7489564"><ele>52.0</ele><time>2026-04-18T06:26:20.312Z</time></trkpt><trkpt lat="43.560553" lon="10.7489928"><ele>52.0</ele><time>2026-04-18T06:26:21.322Z</time></trkpt><trkpt lat="43.5604181" lon="10.7490263"><ele>52.0</ele><time>2026-04-18T06:26:22.318Z</time></trkpt><trkpt lat="43.5602843" lon="10.7490648"><ele>52.0</ele><time>2026-04-18T06:26:23.323Z</time></trkpt><trkpt lat="43.5601464" lon="10.7491025"><ele>51.75</ele><time>2026-04-18T06:26:24.329Z</time></trkpt><trkpt lat="43.5600059" lon="10.7491411"><ele>51.5</ele><time>2026-04-18T06:26:25.448Z</time></trkpt><trkpt lat="43.5598671" lon="10.7491955"><ele>51.25</ele><time>2026-04-18T06:26:26.448Z</time></trkpt><trkpt lat="43.5597347" lon="10.749271"><ele>51.0</ele><time>2026-04-18T06:26:27.471Z</time></trkpt><trkpt lat="43.5596173" lon="10.7493661"><ele>51.0</ele><time>2026-04-18T06:26:28.445Z</time></trkpt><trkpt lat="43.5595143" lon="10.7494831"><ele>51.0</ele><time>2026-04-18T06:26:29.42Z</time></trkpt><trkpt lat="43.5594266" lon="10.7496345"><ele>51.0</ele><time>2026-04-18T06:26:30.443Z</time></trkpt><trkpt lat="43.5593333" lon="10.74978"><ele>51.0</ele><time>2026-04-18T06:26:31.444Z</time></trkpt><trkpt lat="43.5592331" lon="10.7499239"><ele>51.0</ele><time>2026-04-18T06:26:32.457Z</time></trkpt><trkpt lat="43.5591338" lon="10.7500588"><ele>51.0</ele><time>2026-04-18T06:26:33.452Z</time></trkpt><trkpt lat="43.5590488" lon="10.7501736"><ele>51.0</ele><time>2026-04-18T06:26:34.457Z</time></trkpt><trkpt lat="43.5589841" lon="10.7502551"><ele>51.0</ele><time>2026-04-18T06:26:35.454Z</time></trkpt><trkpt lat="43.5589309" lon="10.750318"><ele>51.0</ele><time>2026-04-18T06:26:36.441Z</time></trkpt><trkpt lat="43.5588749" lon="10.7503914"><ele>51.833333333333336</ele><time>2026-04-18T06:26:38.427Z</time></trkpt><trkpt lat="43.558836" lon="10.750466"><ele>52.66666666666667</ele><time>2026-04-18T06:26:40.315Z</time></trkpt><trkpt lat="43.5588689" lon="10.7505716"><ele>53.5</ele><time>2026-04-18T06:26:42.33Z</time></trkpt><trkpt lat="43.5589211" lon="10.7506365"><ele>54.333333333333336</ele><time>2026-04-18T06:26:43.457Z</time></trkpt><trkpt lat="43.5589738" lon="10.7507251"><ele>55.16666666666667</ele><time>2026-04-18T06:26:44.464Z</time></trkpt><trkpt lat="43.5590259" lon="10.7508364"><ele>56.0</ele><time>2026-04-18T06:26:45.455Z</time></trkpt><trkpt lat="43.5590792" lon="10.7509597"><ele>57.25</ele><time>2026-04-18T06:26:46.446Z</time></trkpt><trkpt lat="43.5591254" lon="10.751089"><ele>58.5</ele><time>2026-04-18T06:26:47.459Z</time></trkpt><trkpt lat="43.5591512" lon="10.7512359"><ele>59.75</ele><time>2026-04-18T06:26:48.46Z</time></trkpt><trkpt lat="43.5591713" lon="10.7515525"><ele>61.0</ele><time>2026-04-18T06:26:50.325Z</time></trkpt><trkpt lat="43.559185" lon="10.7517199"><ele>60.99999999999999</ele><time>2026-04-18T06:26:51.451Z</time></trkpt><trkpt lat="43.5591959" lon="10.7518635"><ele>61.0</ele><time>2026-04-18T06:26:52.448Z</time></trkpt><trkpt lat="43.5591883" lon="10.7519803"><ele>61.0</ele><time>2026-04-18T06:26:53.455Z</time></trkpt><trkpt lat="43.5591524" lon="10.7520847"><ele>61.0</ele><time>2026-04-18T06:26:54.442Z</time></trkpt><trkpt lat="43.5590913" lon="10.7521706"><ele>60.99999999999999</ele><time>2026-04-18T06:26:55.456Z</time></trkpt><trkpt lat="43.5590183" lon="10.7522348"><ele>61.0</ele><time>2026-04-18T06:26:56.455Z</time></trkpt><trkpt lat="43.5589156" lon="10.7522717"><ele>62.0</ele><time>2026-04-18T06:26:57.457Z</time></trkpt><trkpt lat="43.5588131" lon="10.7523235"><ele>62.99999999999999</ele><time>2026-04-18T06:26:58.45Z</time></trkpt><trkpt lat="43.5587259" lon="10.752378"><ele>63.99999999999999</ele><time>2026-04-18T06:26:59.449Z</time></trkpt><trkpt lat="43.5586462" lon="10.752448"><ele>65.0</ele><time>2026-04-18T06:27:00.457Z</time></trkpt><trkpt lat="43.5585841" lon="10.7525336"><ele>66.0</ele><time>2026-04-18T06:27:01.455Z</time></trkpt><trkpt lat="43.5585568" lon="10.7526474"><ele>67.75</ele><time>2026-04-18T06:27:02.454Z</time></trkpt><trkpt lat="43.5585183" lon="10.7527534"><ele>69.5</ele><time>2026-04-18T06:27:03.461Z</time></trkpt><trkpt lat="43.5584888" lon="10.752882"><ele>71.25</ele><time>2026-04-18T06:27:04.462Z</time></trkpt><trkpt lat="43.5584916" lon="10.7531822"><ele>73.0</ele><time>2026-04-18T06:27:05.458Z</time></trkpt><trkpt lat="43.558472" lon="10.7533522"><ele>75.5</ele><time>2026-04-18T06:27:06.446Z</time></trkpt><trkpt lat="43.5584444" lon="10.7535471"><ele>78.0</ele><time>2026-04-18T06:27:07.455Z</time></trkpt><trkpt lat="43.5584148" lon="10.7537387"><ele>80.5</ele><time>2026-04-18T06:27:08.453Z</time></trkpt><trkpt lat="43.5583752" lon="10.7539348"><ele>83.0</ele><time>2026-04-18T06:27:09.455Z</time></trkpt><trkpt lat="43.558337" lon="10.7541036"><ele>83.0</ele><time>2026-04-18T06:27:10.451Z</time></trkpt><trkpt lat="43.5583016" lon="10.7542734"><ele>83.0</ele><time>2026-04-18T06:27:11.423Z</time></trkpt><trkpt lat="43.5582676" lon="10.7544509"><ele>83.0</ele><time>2026-04-18T06:27:12.473Z</time></trkpt><trkpt lat="43.5582322" lon="10.7546288"><ele>83.0</ele><time>2026-04-18T06:27:13.421Z</time></trkpt><trkpt lat="43.5581909" lon="10.7548088"><ele>84.75</ele><time>2026-04-18T06:27:14.435Z</time></trkpt><trkpt lat="43.5581522" lon="10.7549917"><ele>86.5</ele><time>2026-04-18T06:27:15.447Z</time></trkpt><trkpt lat="43.5581007" lon="10.7551573"><ele>88.25</ele><time>2026-04-18T06:27:16.467Z</time></trkpt><trkpt lat="43.5580325" lon="10.7553037"><ele>90.0</ele><time>2026-04-18T06:27:17.455Z</time></trkpt><trkpt lat="43.5579605" lon="10.7554366"><ele>90.0</ele><time>2026-04-18T06:27:18.442Z</time></trkpt><trkpt lat="43.5579047" lon="10.755566"><ele>90.0</ele><time>2026-04-18T06:27:19.461Z</time></trkpt><trkpt lat="43.5578497" lon="10.7556868"><ele>90.0</ele><time>2026-04-18T06:27:20.385Z</time></trkpt><trkpt lat="43.5578042" lon="10.7558217"><ele>90.0</ele><time>2026-04-18T06:27:21.45Z</time></trkpt><trkpt lat="43.5577788" lon="10.7559224"><ele>90.0</ele><time>2026-04-18T06:27:22.457Z</time></trkpt><trkpt lat="43.5577785" lon="10.7561538"><ele>90.4</ele><time>2026-04-18T06:27:24.317Z</time></trkpt><trkpt lat="43.557819" lon="10.756277"><ele>90.8</ele><time>2026-04-18T06:27:25.45Z</time></trkpt><trkpt lat="43.5578704" lon="10.7564013"><ele>91.19999999999999</ele><time>2026-04-18T06:27:26.443Z</time></trkpt><trkpt lat="43.5579113" lon="10.7565292"><ele>91.6</ele><time>2026-04-18T06:27:27.419Z</time></trkpt><trkpt lat="43.5579425" lon="10.7566702"><ele>92.0</ele><time>2026-04-18T06:27:28.439Z</time></trkpt><trkpt lat="43.5579594" lon="10.7568105"><ele>93.5</ele><time>2026-04-18T06:27:29.458Z</time></trkpt><trkpt lat="43.5579642" lon="10.7569579"><ele>95.0</ele><time>2026-04-18T06:27:30.449Z</time></trkpt><trkpt lat="43.5579636" lon="10.7571355"><ele>96.5</ele><time>2026-04-18T06:27:31.459Z</time></trkpt><trkpt lat="43.5579405" lon="10.7573062"><ele>98.0</ele><time>2026-04-18T06:27:32.45Z</time></trkpt><trkpt lat="43.5579118" lon="10.7574811"><ele>98.0</ele><time>2026-04-18T06:27:33.454Z</time></trkpt><trkpt lat="43.5578761" lon="10.7576887"><ele>98.0</ele><time>2026-04-18T06:27:34.441Z</time></trkpt><trkpt lat="43.5578474" lon="10.757901"><ele>98.0</ele><time>2026-04-18T06:27:35.451Z</time></trkpt><trkpt lat="43.5578001" lon="10.7581192"><ele>98.66666666666666</ele><time>2026-04-18T06:27:36.439Z</time></trkpt><trkpt lat="43.5577447" lon="10.7583507"><ele>99.33333333333334</ele><time>2026-04-18T06:27:37.447Z</time></trkpt><trkpt lat="43.5576605" lon="10.7585597"><ele>100.0</ele><time>2026-04-18T06:27:38.425Z</time></trkpt><trkpt lat="43.5575716" lon="10.7587591"><ele>102.25</ele><time>2026-04-18T06:27:39.447Z</time></trkpt><trkpt lat="43.5574667" lon="10.7589331"><ele>104.5</ele><time>2026-04-18T06:27:40.432Z</time></trkpt><trkpt lat="43.5573649" lon="10.7590788"><ele>106.75</ele><time>2026-04-18T06:27:41.453Z</time></trkpt><trkpt lat="43.557263" lon="10.7592056"><ele>109.0</ele><time>2026-04-18T06:27:42.421Z</time></trkpt><trkpt lat="43.5571859" lon="10.759297"><ele>109.4</ele><time>2026-04-18T06:27:43.446Z</time></trkpt><trkpt lat="43.5571096" lon="10.759395"><ele>109.80000000000001</ele><time>2026-04-18T06:27:44.454Z</time></trkpt><trkpt lat="43.5570836" lon="10.7595123"><ele>110.19999999999999</ele><time>2026-04-18T06:27:45.451Z</time></trkpt><trkpt lat="43.5570547" lon="10.7596426"><ele>110.6</ele><time>2026-04-18T06:27:46.451Z</time></trkpt><trkpt lat="43.5570339" lon="10.7597606"><ele>111.0</ele><time>2026-04-18T06:27:47.46Z</time></trkpt><trkpt lat="43.5570849" lon="10.7599387"><ele>114.0</ele><time>2026-04-18T06:27:48.454Z</time></trkpt><trkpt lat="43.5571706" lon="10.7602772"><ele>117.0</ele><time>2026-04-18T06:27:50.462Z</time></trkpt><trkpt lat="43.5572015" lon="10.7604554"><ele>120.0</ele><time>2026-04-18T06:27:51.439Z</time></trkpt><trkpt lat="43.5572371" lon="10.7606366"><ele>120.0</ele><time>2026-04-18T06:27:52.413Z</time></trkpt><trkpt lat="43.5572708" lon="10.76083"><ele>120.0</ele><time>2026-04-18T06:27:53.421Z</time></trkpt><trkpt lat="43.5573567" lon="10.7612123"><ele>120.0</ele><time>2026-04-18T06:27:55.393Z</time></trkpt><trkpt lat="43.5573818" lon="10.7614033"><ele>121.33333333333334</ele><time>2026-04-18T06:27:56.415Z</time></trkpt><trkpt lat="43.5574261" lon="10.7616017"><ele>122.66666666666667</ele><time>2026-04-18T06:27:57.321Z</time></trkpt><trkpt lat="43.5574756" lon="10.7618332"><ele>124.0</ele><time>2026-04-18T06:27:58.443Z</time></trkpt><trkpt lat="43.5575111" lon="10.762023"><ele>125.0</ele><time>2026-04-18T06:27:59.452Z</time></trkpt><trkpt lat="43.5575622" lon="10.7622318"><ele>126.0</ele><time>2026-04-18T06:28:00.459Z</time></trkpt><trkpt lat="43.5575953" lon="10.7624094"><ele>127.0</ele><time>2026-04-18T06:28:01.448Z</time></trkpt><trkpt lat="43.5575886" lon="10.7627564"><ele>128.25</ele><time>2026-04-18T06:28:03.453Z</time></trkpt><trkpt lat="43.5575824" lon="10.7629276"><ele>129.5</ele><time>2026-04-18T06:28:04.449Z</time></trkpt><trkpt lat="43.5575917" lon="10.7630988"><ele>130.75</ele><time>2026-04-18T06:28:05.465Z</time></trkpt><trkpt lat="43.557594" lon="10.7632732"><ele>132.0</ele><time>2026-04-18T06:28:06.443Z</time></trkpt><trkpt lat="43.5575963" lon="10.7634518"><ele>133.75</ele><time>2026-04-18T06:28:07.449Z</time></trkpt><trkpt lat="43.5576063" lon="10.7636233"><ele>135.5</ele><time>2026-04-18T06:28:08.431Z</time></trkpt><trkpt lat="43.5576561" lon="10.763791"><ele>137.25</ele><time>2026-04-18T06:28:09.46Z</time></trkpt><trkpt lat="43.5576866" lon="10.763957"><ele>139.0</ele><time>2026-04-18T06:28:10.388Z</time></trkpt><trkpt lat="43.5576983" lon="10.7641045"><ele>139.0</ele><time>2026-04-18T06:28:11.451Z</time></trkpt><trkpt lat="43.5576948" lon="10.7642442"><ele>139.0</ele><time>2026-04-18T06:28:12.465Z</time></trkpt><trkpt lat="43.5576713" lon="10.7643461"><ele>139.0</ele><time>2026-04-18T06:28:13.454Z</time></trkpt><trkpt lat="43.5575512" lon="10.7643648"><ele>139.0</ele><time>2026-04-18T06:28:14.449Z</time></trkpt><trkpt lat="43.5574723" lon="10.7644079"><ele>139.0</ele><time>2026-04-18T06:28:15.424Z</time></trkpt><trkpt lat="43.5573829" lon="10.7644567"><ele>140.6</ele><time>2026-04-18T06:28:16.451Z</time></trkpt><trkpt lat="43.5573083" lon="10.764548"><ele>142.2</ele><time>2026-04-18T06:28:17.46Z</time></trkpt><trkpt lat="43.5572437" lon="10.7646643"><ele>143.79999999999998</ele><time>2026-04-18T06:28:18.458Z</time></trkpt><trkpt lat="43.5571903" lon="10.7648053"><ele>145.4</ele><time>2026-04-18T06:28:19.452Z</time></trkpt><trkpt lat="43.5571395" lon="10.7649541"><ele>147.0</ele><time>2026-04-18T06:28:20.461Z</time></trkpt><trkpt lat="43.5570912" lon="10.7651087"><ele>146.75</ele><time>2026-04-18T06:28:21.445Z</time></trkpt><trkpt lat="43.557044" lon="10.7652647"><ele>146.5</ele><time>2026-04-18T06:28:22.45Z</time></trkpt><trkpt lat="43.5569998" lon="10.7654248"><ele>146.25</ele><time>2026-04-18T06:28:23.452Z</time></trkpt><trkpt lat="43.5569522" lon="10.7655836"><ele>146.0</ele><time>2026-04-18T06:28:24.458Z</time></trkpt><trkpt lat="43.5568906" lon="10.7657353"><ele>146.0</ele><time>2026-04-18T06:28:25.451Z</time></trkpt><trkpt lat="43.5568116" lon="10.7658703"><ele>146.0</ele><time>2026-04-18T06:28:26.454Z</time></trkpt><trkpt lat="43.5567141" lon="10.7659884"><ele>146.0</ele><time>2026-04-18T06:28:27.459Z</time></trkpt><trkpt lat="43.5566102" lon="10.7661009"><ele>146.0</ele><time>2026-04-18T06:28:28.457Z</time></trkpt><trkpt lat="43.5565082" lon="10.7662137"><ele>147.66666666666666</ele><time>2026-04-18T06:28:29.45Z</time></trkpt><trkpt lat="43.5563161" lon="10.766432"><ele>149.33333333333334</ele><time>2026-04-18T06:28:31.32Z</time></trkpt><trkpt lat="43.5562219" lon="10.7665438"><ele>151.0</ele><time>2026-04-18T06:28:32.461Z</time></trkpt><trkpt lat="43.5561305" lon="10.7666193"><ele>151.0</ele><time>2026-04-18T06:28:33.448Z</time></trkpt><trkpt lat="43.5560438" lon="10.7666375"><ele>151.0</ele><time>2026-04-18T06:28:34.453Z</time></trkpt><trkpt lat="43.5559631" lon="10.7666336"><ele>151.0</ele><time>2026-04-18T06:28:35.462Z</time></trkpt><trkpt lat="43.5558793" lon="10.7666529"><ele>151.0</ele><time>2026-04-18T06:28:36.452Z</time></trkpt><trkpt lat="43.555726" lon="10.7667395"><ele>151.0</ele><time>2026-04-18T06:28:38.45Z</time></trkpt><trkpt lat="43.5556784" lon="10.7668047"><ele>150.8</ele><time>2026-04-18T06:28:39.456Z</time></trkpt><trkpt lat="43.5556859" lon="10.76691"><ele>150.6</ele><time>2026-04-18T06:28:40.451Z</time></trkpt><trkpt lat="43.5557177" lon="10.7670021"><ele>150.4</ele><time>2026-04-18T06:28:41.455Z</time></trkpt><trkpt lat="43.5557407" lon="10.7671028"><ele>150.2</ele><time>2026-04-18T06:28:42.451Z</time></trkpt><trkpt lat="43.5557669" lon="10.7672258"><ele>150.0</ele><time>2026-04-18T06:28:43.455Z</time></trkpt><trkpt lat="43.5558633" lon="10.7674794"><ele>150.0</ele><time>2026-04-18T06:28:45.445Z</time></trkpt><trkpt lat="43.5559164" lon="10.7676028"><ele>150.0</ele><time>2026-04-18T06:28:46.442Z</time></trkpt><trkpt lat="43.5559642" lon="10.7677103"><ele>150.0</ele><time>2026-04-18T06:28:47.416Z</time></trkpt><trkpt lat="43.5560169" lon="10.7677984"><ele>150.0</ele><time>2026-04-18T06:28:48.47Z</time></trkpt><trkpt lat="43.5560327" lon="10.7679807"><ele>150.0</ele><time>2026-04-18T06:28:50.451Z</time></trkpt><trkpt lat="43.5559648" lon="10.7681033"><ele>148.33333333333334</ele><time>2026-04-18T06:28:52.453Z</time></trkpt><trkpt lat="43.5558548" lon="10.7682781"><ele>146.66666666666669</ele><time>2026-04-18T06:28:54.449Z</time></trkpt><trkpt lat="43.5557232" lon="10.7684355"><ele>145.0</ele><time>2026-04-18T06:28:55.448Z</time></trkpt><trkpt lat="43.5555556" lon="10.7686093"><ele>143.33333333333334</ele><time>2026-04-18T06:28:56.467Z</time></trkpt><trkpt lat="43.5554157" lon="10.7687864"><ele>141.66666666666666</ele><time>2026-04-18T06:28:57.432Z</time></trkpt><trkpt lat="43.5553021" lon="10.7689282"><ele>140.0</ele><time>2026-04-18T06:28:58.446Z</time></trkpt><trkpt lat="43.5551782" lon="10.7690771"><ele>139.5</ele><time>2026-04-18T06:28:59.426Z</time></trkpt><trkpt lat="43.5550514" lon="10.7692297"><ele>139.0</ele><time>2026-04-18T06:29:00.4Z</time></trkpt><trkpt lat="43.5549503" lon="10.7693579"><ele>138.5</ele><time>2026-04-18T06:29:01.319Z</time></trkpt><trkpt lat="43.5548509" lon="10.7694828"><ele>138.0</ele><time>2026-04-18T06:29:02.448Z</time></trkpt><trkpt lat="43.5547498" lon="10.7696268"><ele>137.0</ele><time>2026-04-18T06:29:03.455Z</time></trkpt><trkpt lat="43.5545818" lon="10.7699556"><ele>136.0</ele><time>2026-04-18T06:29:05.324Z</time></trkpt><trkpt lat="43.5545098" lon="10.7701334"><ele>135.0</ele><time>2026-04-18T06:29:06.451Z</time></trkpt><trkpt lat="43.5544318" lon="10.7703276"><ele>137.33333333333334</ele><time>2026-04-18T06:29:07.452Z</time></trkpt><trkpt lat="43.5543544" lon="10.7705131"><ele>139.66666666666669</ele><time>2026-04-18T06:29:08.424Z</time></trkpt><trkpt lat="43.5543025" lon="10.770711"><ele>142.0</ele><time>2026-04-18T06:29:09.415Z</time></trkpt><trkpt lat="43.55424" lon="10.7708918"><ele>142.25</ele><time>2026-04-18T06:29:10.45Z</time></trkpt><trkpt lat="43.5541817" lon="10.7710448"><ele>142.5</ele><time>2026-04-18T06:29:11.438Z</time></trkpt><trkpt lat="43.5541298" lon="10.7712142"><ele>142.75</ele><time>2026-04-18T06:29:12.46Z</time></trkpt><trkpt lat="43.55409" lon="10.7713856"><ele>143.0</ele><time>2026-04-18T06:29:13.454Z</time></trkpt><trkpt lat="43.5540617" lon="10.771575"><ele>143.0</ele><time>2026-04-18T06:29:14.456Z</time></trkpt><trkpt lat="43.5540451" lon="10.7717802"><ele>143.0</ele><time>2026-04-18T06:29:15.456Z</time></trkpt><trkpt lat="43.554046" lon="10.7719923"><ele>143.0</ele><time>2026-04-18T06:29:16.446Z</time></trkpt><trkpt lat="43.5540851" lon="10.7722371"><ele>142.5</ele><time>2026-04-18T06:29:17.465Z</time></trkpt><trkpt lat="43.5540931" lon="10.7724859"><ele>142.0</ele><time>2026-04-18T06:29:18.457Z</time></trkpt><trkpt lat="43.554115" lon="10.7729542"><ele>143.0</ele><time>2026-04-18T06:29:20.32Z</time></trkpt><trkpt lat="43.5541341" lon="10.7731857"><ele>144.0</ele><time>2026-04-18T06:29:21.462Z</time></trkpt><trkpt lat="43.5541463" lon="10.7734101"><ele>145.0</ele><time>2026-04-18T06:29:22.42Z</time></trkpt><trkpt lat="43.554153" lon="10.7736363"><ele>148.5</ele><time>2026-04-18T06:29:23.455Z</time></trkpt><trkpt lat="43.554164" lon="10.774079"><ele>152.0</ele><time>2026-04-18T06:29:25.327Z</time></trkpt><trkpt lat="43.5541604" lon="10.7742959"><ele>154.0</ele><time>2026-04-18T06:29:26.323Z</time></trkpt><trkpt lat="43.5541541" lon="10.774458"><ele>156.0</ele><time>2026-04-18T06:29:27.315Z</time></trkpt><trkpt lat="43.5541236" lon="10.7746336"><ele>158.0</ele><time>2026-04-18T06:29:28.321Z</time></trkpt><trkpt lat="43.5540861" lon="10.7748088"><ele>160.0</ele><time>2026-04-18T06:29:29.318Z</time></trkpt><trkpt lat="43.5540772" lon="10.7749374"><ele>160.0</ele><time>2026-04-18T06:29:30.32Z</time></trkpt><trkpt lat="43.55407" lon="10.7750582"><ele>160.0</ele><time>2026-04-18T06:29:31.319Z</time></trkpt><trkpt lat="43.5540624" lon="10.775179"><ele>160.0</ele><time>2026-04-18T06:29:32.316Z</time></trkpt><trkpt lat="43.5541384" lon="10.7752932"><ele>160.0</ele><time>2026-04-18T06:29:33.326Z</time></trkpt><trkpt lat="43.5542007" lon="10.7754096"><ele>160.0</ele><time>2026-04-18T06:29:34.319Z</time></trkpt><trkpt lat="43.5542648" lon="10.7755228"><ele>160.0</ele><time>2026-04-18T06:29:35.317Z</time></trkpt><trkpt lat="43.5543799" lon="10.7756077"><ele>160.0</ele><time>2026-04-18T06:29:36.325Z</time></trkpt><trkpt lat="43.5544725" lon="10.7756973"><ele>160.0</ele><time>2026-04-18T06:29:37.32Z</time></trkpt><trkpt lat="43.5545599" lon="10.7758092"><ele>160.0</ele><time>2026-04-18T06:29:38.319Z</time></trkpt><trkpt lat="43.5546386" lon="10.775938"><ele>165.25</ele><time>2026-04-18T06:29:39.322Z</time></trkpt><trkpt lat="43.5547096" lon="10.7760662"><ele>170.5</ele><time>2026-04-18T06:29:40.319Z</time></trkpt><trkpt lat="43.5547917" lon="10.7761924"><ele>175.75</ele><time>2026-04-18T06:29:41.321Z</time></trkpt><trkpt lat="43.5548604" lon="10.7763188"><ele>181.0</ele><time>2026-04-18T06:29:42.319Z</time></trkpt><trkpt lat="43.5549226" lon="10.7764362"><ele>181.0</ele><time>2026-04-18T06:29:43.325Z</time></trkpt><trkpt lat="43.5549785" lon="10.7765945"><ele>181.0</ele><time>2026-04-18T06:29:44.322Z</time></trkpt><trkpt lat="43.555014" lon="10.7767248"><ele>181.0</ele><time>2026-04-18T06:29:45.323Z</time></trkpt><trkpt lat="43.5550092" lon="10.7768316"><ele>181.0</ele><time>2026-04-18T06:29:46.318Z</time></trkpt><trkpt lat="43.5549262" lon="10.7769898"><ele>181.0</ele><time>2026-04-18T06:29:47.32Z</time></trkpt><trkpt lat="43.5549076" lon="10.7771055"><ele>181.33333333333334</ele><time>2026-04-18T06:29:48.319Z</time></trkpt><trkpt lat="43.5549041" lon="10.7772332"><ele>181.66666666666669</ele><time>2026-04-18T06:29:49.319Z</time></trkpt><trkpt lat="43.5548985" lon="10.7773579"><ele>182.0</ele><time>2026-04-18T06:29:50.317Z</time></trkpt><trkpt lat="43.5549126" lon="10.7774802"><ele>182.33333333333334</ele><time>2026-04-18T06:29:51.315Z</time></trkpt><trkpt lat="43.5549501" lon="10.7775806"><ele>182.66666666666666</ele><time>2026-04-18T06:29:52.323Z</time></trkpt><trkpt lat="43.5550164" lon="10.7776582"><ele>183.0</ele><time>2026-04-18T06:29:53.322Z</time></trkpt><trkpt lat="43.5550928" lon="10.7777281"><ele>183.0</ele><time>2026-04-18T06:29:54.322Z</time></trkpt><trkpt lat="43.5551679" lon="10.7777986"><ele>183.0</ele><time>2026-04-18T06:29:55.32Z</time></trkpt><trkpt lat="43.5552292" lon="10.77787"><ele>183.0</ele><time>2026-04-18T06:29:56.325Z</time></trkpt><trkpt lat="43.5552768" lon="10.7779358"><ele>183.0</ele><time>2026-04-18T06:29:57.326Z</time></trkpt><trkpt lat="43.5553137" lon="10.7780093"><ele>183.0</ele><time>2026-04-18T06:29:58.319Z</time></trkpt><trkpt lat="43.555338" lon="10.7780903"><ele>183.0</ele><time>2026-04-18T06:29:59.316Z</time></trkpt><trkpt lat="43.5553524" lon="10.778185"><ele>183.0</ele><time>2026-04-18T06:30:00.318Z</time></trkpt><trkpt lat="43.5553674" lon="10.7783019"><ele>183.0</ele><time>2026-04-18T06:30:01.319Z</time></trkpt><trkpt lat="43.5553762" lon="10.7784215"><ele>183.0</ele><time>2026-04-18T06:30:02.32Z</time></trkpt><trkpt lat="43.555387" lon="10.778547"><ele>183.0</ele><time>2026-04-18T06:30:03.32Z</time></trkpt><trkpt lat="43.5553985" lon="10.7786771"><ele>183.0</ele><time>2026-04-18T06:30:04.32Z</time></trkpt><trkpt lat="43.5554059" lon="10.7788114"><ele>183.0</ele><time>2026-04-18T06:30:05.323Z</time></trkpt><trkpt lat="43.5554123" lon="10.7789443"><ele>182.4</ele><time>2026-04-18T06:30:06.318Z</time></trkpt><trkpt lat="43.5554087" lon="10.779089"><ele>181.8</ele><time>2026-04-18T06:30:07.317Z</time></trkpt><trkpt lat="43.5554027" lon="10.7792358"><ele>181.2</ele><time>2026-04-18T06:30:08.322Z</time></trkpt><trkpt lat="43.5553994" lon="10.7793858"><ele>180.6</ele><time>2026-04-18T06:30:09.325Z</time></trkpt><trkpt lat="43.5553997" lon="10.7795352"><ele>180.0</ele><time>2026-04-18T06:30:10.32Z</time></trkpt><trkpt lat="43.555406" lon="10.7796773"><ele>180.2</ele><time>2026-04-18T06:30:11.32Z</time></trkpt><trkpt lat="43.5554282" lon="10.7798178"><ele>180.4</ele><time>2026-04-18T06:30:12.318Z</time></trkpt><trkpt lat="43.5554629" lon="10.7799537"><ele>180.60000000000002</ele><time>2026-04-18T06:30:13.318Z</time></trkpt><trkpt lat="43.5555064" lon="10.7800962"><ele>180.8</ele><time>2026-04-18T06:30:14.318Z</time></trkpt><trkpt lat="43.5555538" lon="10.7802336"><ele>181.0</ele><time>2026-04-18T06:30:15.321Z</time></trkpt><trkpt lat="43.5556029" lon="10.780376"><ele>181.0</ele><time>2026-04-18T06:30:16.319Z</time></trkpt><trkpt lat="43.5556549" lon="10.7805041"><ele>181.0</ele><time>2026-04-18T06:30:17.324Z</time></trkpt><trkpt lat="43.5556899" lon="10.7806489"><ele>181.0</ele><time>2026-04-18T06:30:18.319Z</time></trkpt><trkpt lat="43.5557357" lon="10.7807808"><ele>181.0</ele><time>2026-04-18T06:30:19.322Z</time></trkpt><trkpt lat="43.5557774" lon="10.7809176"><ele>181.0</ele><time>2026-04-18T06:30:20.322Z</time></trkpt><trkpt lat="43.5558138" lon="10.7810603"><ele>181.0</ele><time>2026-04-18T06:30:21.323Z</time></trkpt><trkpt lat="43.5558038" lon="10.7812059"><ele>181.0</ele><time>2026-04-18T06:30:22.326Z</time></trkpt><trkpt lat="43.5558026" lon="10.7813517"><ele>181.0</ele><time>2026-04-18T06:30:23.321Z</time></trkpt><trkpt lat="43.5557856" lon="10.7815023"><ele>181.0</ele><time>2026-04-18T06:30:24.461Z</time></trkpt><trkpt lat="43.5557744" lon="10.7816042"><ele>181.0</ele><time>2026-04-18T06:30:25.458Z</time></trkpt><trkpt lat="43.5557676" lon="10.7817187"><ele>181.0</ele><time>2026-04-18T06:30:26.475Z</time></trkpt><trkpt lat="43.5557309" lon="10.781831"><ele>181.0</ele><time>2026-04-18T06:30:27.458Z</time></trkpt><trkpt lat="43.5556901" lon="10.7819489"><ele>181.0</ele><time>2026-04-18T06:30:28.442Z</time></trkpt><trkpt lat="43.5556529" lon="10.7820776"><ele>181.0</ele><time>2026-04-18T06:30:29.484Z</time></trkpt><trkpt lat="43.5555862" lon="10.7823441"><ele>179.0</ele><time>2026-04-18T06:30:31.321Z</time></trkpt><trkpt lat="43.5555967" lon="10.7824736"><ele>177.0</ele><time>2026-04-18T06:30:32.455Z</time></trkpt><trkpt lat="43.555585" lon="10.7827269"><ele>175.0</ele><time>2026-04-18T06:30:34.316Z</time></trkpt><trkpt lat="43.5555677" lon="10.7828411"><ele>173.0</ele><time>2026-04-18T06:30:35.317Z</time></trkpt><trkpt lat="43.5555522" lon="10.7829934"><ele>170.5</ele><time>2026-04-18T06:30:36.328Z</time></trkpt><trkpt lat="43.5555378" lon="10.7831472"><ele>168.0</ele><time>2026-04-18T06:30:37.448Z</time></trkpt><trkpt lat="43.5555211" lon="10.7833121"><ele>165.5</ele><time>2026-04-18T06:30:38.442Z</time></trkpt><trkpt lat="43.5555066" lon="10.7834624"><ele>163.0</ele><time>2026-04-18T06:30:39.359Z</time></trkpt><trkpt lat="43.5554962" lon="10.7836089"><ele>161.6</ele><time>2026-04-18T06:30:40.321Z</time></trkpt><trkpt lat="43.5554818" lon="10.7837528"><ele>160.20000000000002</ele><time>2026-04-18T06:30:41.322Z</time></trkpt><trkpt lat="43.5554758" lon="10.7838935"><ele>158.8</ele><time>2026-04-18T06:30:42.316Z</time></trkpt><trkpt lat="43.5554754" lon="10.7840326"><ele>157.4</ele><time>2026-04-18T06:30:43.319Z</time></trkpt><trkpt lat="43.5554871" lon="10.7841693"><ele>156.0</ele><time>2026-04-18T06:30:44.431Z</time></trkpt><trkpt lat="43.5555177" lon="10.7843077"><ele>155.33333333333334</ele><time>2026-04-18T06:30:45.45Z</time></trkpt><trkpt lat="43.5556128" lon="10.784608"><ele>154.66666666666669</ele><time>2026-04-18T06:30:47.323Z</time></trkpt><trkpt lat="43.5556674" lon="10.7847718"><ele>154.0</ele><time>2026-04-18T06:30:48.323Z</time></trkpt><trkpt lat="43.555708" lon="10.7849234"><ele>154.0</ele><time>2026-04-18T06:30:49.329Z</time></trkpt><trkpt lat="43.5557207" lon="10.7850704"><ele>154.0</ele><time>2026-04-18T06:30:50.328Z</time></trkpt><trkpt lat="43.5557163" lon="10.7852145"><ele>154.0</ele><time>2026-04-18T06:30:51.312Z</time></trkpt><trkpt lat="43.5556972" lon="10.7853516"><ele>154.0</ele><time>2026-04-18T06:30:52.323Z</time></trkpt><trkpt lat="43.5556667" lon="10.7854815"><ele>154.0</ele><time>2026-04-18T06:30:53.32Z</time></trkpt><trkpt lat="43.5556477" lon="10.7855965"><ele>154.33333333333334</ele><time>2026-04-18T06:30:54.326Z</time></trkpt><trkpt lat="43.5556401" lon="10.7857094"><ele>154.66666666666669</ele><time>2026-04-18T06:30:55.318Z</time></trkpt><trkpt lat="43.5556518" lon="10.7858131"><ele>155.0</ele><time>2026-04-18T06:30:56.324Z</time></trkpt><trkpt lat="43.5556873" lon="10.7859057"><ele>155.33333333333334</ele><time>2026-04-18T06:30:57.329Z</time></trkpt><trkpt lat="43.5557349" lon="10.7859807"><ele>155.66666666666666</ele><time>2026-04-18T06:30:58.333Z</time></trkpt><trkpt lat="43.5557967" lon="10.7860532"><ele>156.0</ele><time>2026-04-18T06:30:59.326Z</time></trkpt><trkpt lat="43.5558733" lon="10.7861168"><ele>156.0</ele><time>2026-04-18T06:31:00.322Z</time></trkpt><trkpt lat="43.5559585" lon="10.7861877"><ele>156.0</ele><time>2026-04-18T06:31:01.325Z</time></trkpt><trkpt lat="43.5560463" lon="10.7862809"><ele>156.0</ele><time>2026-04-18T06:31:02.329Z</time></trkpt><trkpt lat="43.5561343" lon="10.7863937"><ele>156.0</ele><time>2026-04-18T06:31:03.324Z</time></trkpt><trkpt lat="43.5562149" lon="10.7865144"><ele>156.0</ele><time>2026-04-18T06:31:04.322Z</time></trkpt><trkpt lat="43.5562913" lon="10.78664"><ele>155.4</ele><time>2026-04-18T06:31:05.324Z</time></trkpt><trkpt lat="43.5563665" lon="10.7867609"><ele>154.8</ele><time>2026-04-18T06:31:06.322Z</time></trkpt><trkpt lat="43.5564381" lon="10.7868773"><ele>154.20000000000002</ele><time>2026-04-18T06:31:07.325Z</time></trkpt><trkpt lat="43.5565055" lon="10.786987"><ele>153.6</ele><time>2026-04-18T06:31:08.325Z</time></trkpt><trkpt lat="43.556572" lon="10.7870925"><ele>153.0</ele><time>2026-04-18T06:31:09.325Z</time></trkpt><trkpt lat="43.5566384" lon="10.7871942"><ele>152.8</ele><time>2026-04-18T06:31:10.321Z</time></trkpt><trkpt lat="43.5566983" lon="10.7872971"><ele>152.60000000000002</ele><time>2026-04-18T06:31:11.324Z</time></trkpt><trkpt lat="43.5567555" lon="10.787414"><ele>152.39999999999998</ele><time>2026-04-18T06:31:12.319Z</time></trkpt><trkpt lat="43.5568107" lon="10.7875532"><ele>152.2</ele><time>2026-04-18T06:31:13.346Z</time></trkpt><trkpt lat="43.5568608" lon="10.7877108"><ele>152.0</ele><time>2026-04-18T06:31:14.452Z</time></trkpt><trkpt lat="43.5569613" lon="10.7880537"><ele>153.33333333333331</ele><time>2026-04-18T06:31:16.449Z</time></trkpt><trkpt lat="43.5570829" lon="10.7883911"><ele>154.66666666666666</ele><time>2026-04-18T06:31:18.448Z</time></trkpt><trkpt lat="43.557149" lon="10.7885488"><ele>156.0</ele><time>2026-04-18T06:31:19.439Z</time></trkpt><trkpt lat="43.557213" lon="10.7887099"><ele>156.0</ele><time>2026-04-18T06:31:20.444Z</time></trkpt><trkpt lat="43.557315" lon="10.7890029"><ele>156.0</ele><time>2026-04-18T06:31:22.322Z</time></trkpt><trkpt lat="43.5573456" lon="10.7891489"><ele>156.0</ele><time>2026-04-18T06:31:23.322Z</time></trkpt><trkpt lat="43.5573644" lon="10.7892897"><ele>156.0</ele><time>2026-04-18T06:31:24.447Z</time></trkpt><trkpt lat="43.557378" lon="10.789424"><ele>155.2</ele><time>2026-04-18T06:31:25.449Z</time></trkpt><trkpt lat="43.5573917" lon="10.7895474"><ele>154.39999999999998</ele><time>2026-04-18T06:31:26.449Z</time></trkpt><trkpt lat="43.5574165" lon="10.7896655"><ele>153.6</ele><time>2026-04-18T06:31:27.449Z</time></trkpt><trkpt lat="43.557446" lon="10.789775"><ele>152.79999999999998</ele><time>2026-04-18T06:31:28.444Z</time></trkpt><trkpt lat="43.5574868" lon="10.7898833"><ele>152.0</ele><time>2026-04-18T06:31:29.455Z</time></trkpt><trkpt lat="43.5575427" lon="10.7899965"><ele>152.0</ele><time>2026-04-18T06:31:30.457Z</time></trkpt><trkpt lat="43.5576069" lon="10.7901128"><ele>152.0</ele><time>2026-04-18T06:31:31.423Z</time></trkpt><trkpt lat="43.5576754" lon="10.7902368"><ele>152.0</ele><time>2026-04-18T06:31:32.44Z</time></trkpt><trkpt lat="43.5577385" lon="10.7903618"><ele>152.0</ele><time>2026-04-18T06:31:33.456Z</time></trkpt><trkpt lat="43.557803" lon="10.7904794"><ele>152.0</ele><time>2026-04-18T06:31:34.455Z</time></trkpt><trkpt lat="43.5578647" lon="10.7906011"><ele>149.75</ele><time>2026-04-18T06:31:35.433Z</time></trkpt><trkpt lat="43.5579219" lon="10.7907226"><ele>147.5</ele><time>2026-04-18T06:31:36.468Z</time></trkpt><trkpt lat="43.5580257" lon="10.7909564"><ele>145.25</ele><time>2026-04-18T06:31:38.461Z</time></trkpt><trkpt lat="43.5580572" lon="10.7910824"><ele>143.0</ele><time>2026-04-18T06:31:39.451Z</time></trkpt><trkpt lat="43.558073" lon="10.7912021"><ele>143.0</ele><time>2026-04-18T06:31:40.454Z</time></trkpt><trkpt lat="43.558074" lon="10.7913277"><ele>143.0</ele><time>2026-04-18T06:31:41.445Z</time></trkpt><trkpt lat="43.5580602" lon="10.7914615"><ele>143.0</ele><time>2026-04-18T06:31:42.446Z</time></trkpt><trkpt lat="43.5580421" lon="10.7916"><ele>143.0</ele><time>2026-04-18T06:31:43.421Z</time></trkpt><trkpt lat="43.5580079" lon="10.7917333"><ele>143.0</ele><time>2026-04-18T06:31:44.454Z</time></trkpt><trkpt lat="43.5579552" lon="10.7918644"><ele>143.0</ele><time>2026-04-18T06:31:45.455Z</time></trkpt><trkpt lat="43.5578982" lon="10.7919829"><ele>143.0</ele><time>2026-04-18T06:31:46.427Z</time></trkpt><trkpt lat="43.5578406" lon="10.7922099"><ele>143.0</ele><time>2026-04-18T06:31:48.461Z</time></trkpt><trkpt lat="43.5578379" lon="10.7923242"><ele>143.0</ele><time>2026-04-18T06:31:49.446Z</time></trkpt><trkpt lat="43.5578512" lon="10.7924423"><ele>143.0</ele><time>2026-04-18T06:31:50.443Z</time></trkpt><trkpt lat="43.5578823" lon="10.7925546"><ele>145.0</ele><time>2026-04-18T06:31:51.462Z</time></trkpt><trkpt lat="43.5579156" lon="10.7926962"><ele>147.0</ele><time>2026-04-18T06:31:52.467Z</time></trkpt><trkpt lat="43.5579557" lon="10.7928534"><ele>149.0</ele><time>2026-04-18T06:31:53.45Z</time></trkpt><trkpt lat="43.5580001" lon="10.7930186"><ele>151.0</ele><time>2026-04-18T06:31:54.442Z</time></trkpt><trkpt lat="43.5580449" lon="10.7931961"><ele>150.5</ele><time>2026-04-18T06:31:55.47Z</time></trkpt><trkpt lat="43.5581404" lon="10.7935565"><ele>150.0</ele><time>2026-04-18T06:31:57.435Z</time></trkpt><trkpt lat="43.5581957" lon="10.7938899"><ele>150.0</ele><time>2026-04-18T06:31:59.313Z</time></trkpt><trkpt lat="43.5582102" lon="10.7940185"><ele>150.0</ele><time>2026-04-18T06:32:00.322Z</time></trkpt><trkpt lat="43.5582282" lon="10.7941401"><ele>150.0</ele><time>2026-04-18T06:32:01.319Z</time></trkpt><trkpt lat="43.5582591" lon="10.794254"><ele>150.0</ele><time>2026-04-18T06:32:02.325Z</time></trkpt><trkpt lat="43.5583033" lon="10.7943757"><ele>150.0</ele><time>2026-04-18T06:32:03.318Z</time></trkpt><trkpt lat="43.5583602" lon="10.794499"><ele>148.25</ele><time>2026-04-18T06:32:04.322Z</time></trkpt><trkpt lat="43.5584236" lon="10.7946358"><ele>146.5</ele><time>2026-04-18T06:32:05.461Z</time></trkpt><trkpt lat="43.5584929" lon="10.7947772"><ele>144.75</ele><time>2026-04-18T06:32:06.451Z</time></trkpt><trkpt lat="43.5585626" lon="10.7949315"><ele>143.0</ele><time>2026-04-18T06:32:07.446Z</time></trkpt><trkpt lat="43.5586416" lon="10.7950773"><ele>145.0</ele><time>2026-04-18T06:32:08.457Z</time></trkpt><trkpt lat="43.5587318" lon="10.7952232"><ele>147.0</ele><time>2026-04-18T06:32:09.444Z</time></trkpt><trkpt lat="43.5588345" lon="10.7953524"><ele>149.0</ele><time>2026-04-18T06:32:10.452Z</time></trkpt><trkpt lat="43.5589456" lon="10.7954716"><ele>151.0</ele><time>2026-04-18T06:32:11.454Z</time></trkpt><trkpt lat="43.559057" lon="10.7955807"><ele>151.0</ele><time>2026-04-18T06:32:12.457Z</time></trkpt><trkpt lat="43.5591717" lon="10.7956734"><ele>151.0</ele><time>2026-04-18T06:32:13.458Z</time></trkpt><trkpt lat="43.5593853" lon="10.7958679"><ele>151.0</ele><time>2026-04-18T06:32:15.451Z</time></trkpt><trkpt lat="43.5594693" lon="10.7959772"><ele>156.66666666666669</ele><time>2026-04-18T06:32:16.454Z</time></trkpt><trkpt lat="43.5595438" lon="10.796109"><ele>162.33333333333334</ele><time>2026-04-18T06:32:17.457Z</time></trkpt><trkpt lat="43.5596206" lon="10.796254"><ele>168.0</ele><time>2026-04-18T06:32:18.421Z</time></trkpt><trkpt lat="43.5597731" lon="10.7965042"><ele>168.0</ele><time>2026-04-18T06:32:20.318Z</time></trkpt><trkpt lat="43.5598397" lon="10.796617"><ele>168.0</ele><time>2026-04-18T06:32:21.32Z</time></trkpt><trkpt lat="43.5599086" lon="10.7967293"><ele>168.0</ele><time>2026-04-18T06:32:22.318Z</time></trkpt><trkpt lat="43.5599786" lon="10.7968424"><ele>168.0</ele><time>2026-04-18T06:32:23.322Z</time></trkpt><trkpt lat="43.5600507" lon="10.7969687"><ele>168.0</ele><time>2026-04-18T06:32:24.321Z</time></trkpt><trkpt lat="43.5601276" lon="10.7970932"><ele>168.0</ele><time>2026-04-18T06:32:25.325Z</time></trkpt><trkpt lat="43.5601988" lon="10.7971951"><ele>168.0</ele><time>2026-04-18T06:32:26.451Z</time></trkpt><trkpt lat="43.5602742" lon="10.7972833"><ele>168.0</ele><time>2026-04-18T06:32:27.424Z</time></trkpt><trkpt lat="43.5603564" lon="10.7973541"><ele>168.0</ele><time>2026-04-18T06:32:28.452Z</time></trkpt><trkpt lat="43.5604475" lon="10.797407"><ele>168.0</ele><time>2026-04-18T06:32:29.465Z</time></trkpt><trkpt lat="43.5605518" lon="10.7974398"><ele>168.0</ele><time>2026-04-18T06:32:30.457Z</time></trkpt><trkpt lat="43.5606581" lon="10.7974625"><ele>168.0</ele><time>2026-04-18T06:32:31.318Z</time></trkpt><trkpt lat="43.5607857" lon="10.7974675"><ele>168.0</ele><time>2026-04-18T06:32:32.449Z</time></trkpt><trkpt lat="43.5609151" lon="10.7974618"><ele>168.0</ele><time>2026-04-18T06:32:33.45Z</time></trkpt><trkpt lat="43.5611767" lon="10.7974778"><ele>168.0</ele><time>2026-04-18T06:32:35.322Z</time></trkpt><trkpt lat="43.5613137" lon="10.7975031"><ele>168.0</ele><time>2026-04-18T06:32:36.45Z</time></trkpt><trkpt lat="43.5614535" lon="10.7975333"><ele>168.0</ele><time>2026-04-18T06:32:37.463Z</time></trkpt><trkpt lat="43.5615945" lon="10.7975732"><ele>168.0</ele><time>2026-04-18T06:32:38.444Z</time></trkpt><trkpt lat="43.5617236" lon="10.7976134"><ele>168.0</ele><time>2026-04-18T06:32:39.452Z</time></trkpt><trkpt lat="43.5618517" lon="10.7976511"><ele>168.0</ele><time>2026-04-18T06:32:40.449Z</time></trkpt><trkpt lat="43.5619763" lon="10.7976943"><ele>168.0</ele><time>2026-04-18T06:32:41.453Z</time></trkpt><trkpt lat="43.5620859" lon="10.7977351"><ele>168.0</ele><time>2026-04-18T06:32:42.443Z</time></trkpt><trkpt lat="43.5621876" lon="10.7977821"><ele>171.33333333333334</ele><time>2026-04-18T06:32:43.461Z</time></trkpt><trkpt lat="43.5623839" lon="10.7979334"><ele>174.66666666666669</ele><time>2026-04-18T06:32:45.316Z</time></trkpt><trkpt lat="43.5624826" lon="10.7980327"><ele>178.0</ele><time>2026-04-18T06:32:46.425Z</time></trkpt><trkpt lat="43.5625829" lon="10.7981451"><ele>178.0</ele><time>2026-04-18T06:32:47.443Z</time></trkpt><trkpt lat="43.5626881" lon="10.7982624"><ele>178.0</ele><time>2026-04-18T06:32:48.422Z</time></trkpt><trkpt lat="43.5628003" lon="10.7983679"><ele>178.0</ele><time>2026-04-18T06:32:49.44Z</time></trkpt><trkpt lat="43.5629212" lon="10.7984739"><ele>178.0</ele><time>2026-04-18T06:32:50.443Z</time></trkpt><trkpt lat="43.5630399" lon="10.7985756"><ele>180.75</ele><time>2026-04-18T06:32:51.471Z</time></trkpt><trkpt lat="43.5631534" lon="10.7986724"><ele>183.5</ele><time>2026-04-18T06:32:52.461Z</time></trkpt><trkpt lat="43.5632586" lon="10.7987634"><ele>186.25</ele><time>2026-04-18T06:32:53.443Z</time></trkpt><trkpt lat="43.5633609" lon="10.7988543"><ele>189.0</ele><time>2026-04-18T06:32:54.456Z</time></trkpt><trkpt lat="43.5634624" lon="10.798944"><ele>189.0</ele><time>2026-04-18T06:32:55.455Z</time></trkpt><trkpt lat="43.5635533" lon="10.7990413"><ele>189.0</ele><time>2026-04-18T06:32:56.387Z</time></trkpt><trkpt lat="43.5636412" lon="10.7991327"><ele>189.0</ele><time>2026-04-18T06:32:57.442Z</time></trkpt><trkpt lat="43.5637058" lon="10.7992291"><ele>189.0</ele><time>2026-04-18T06:32:58.454Z</time></trkpt><trkpt lat="43.5637591" lon="10.7993359"><ele>189.0</ele><time>2026-04-18T06:32:59.443Z</time></trkpt><trkpt lat="43.5637959" lon="10.7994519"><ele>188.0</ele><time>2026-04-18T06:33:00.45Z</time></trkpt><trkpt lat="43.5638824" lon="10.7996979"><ele>187.0</ele><time>2026-04-18T06:33:02.32Z</time></trkpt><trkpt lat="43.5639507" lon="10.7997969"><ele>186.0</ele><time>2026-04-18T06:33:03.451Z</time></trkpt><trkpt lat="43.5640327" lon="10.7998774"><ele>185.0</ele><time>2026-04-18T06:33:04.435Z</time></trkpt><trkpt lat="43.5641228" lon="10.7999456"><ele>185.0</ele><time>2026-04-18T06:33:05.442Z</time></trkpt><trkpt lat="43.5643208" lon="10.8000815"><ele>185.0</ele><time>2026-04-18T06:33:07.462Z</time></trkpt><trkpt lat="43.5645158" lon="10.8001902"><ele>185.0</ele><time>2026-04-18T06:33:09.332Z</time></trkpt><trkpt lat="43.5646096" lon="10.800238"><ele>183.75</ele><time>2026-04-18T06:33:10.455Z</time></trkpt><trkpt lat="43.5646972" lon="10.8002811"><ele>182.5</ele><time>2026-04-18T06:33:11.447Z</time></trkpt><trkpt lat="43.5648816" lon="10.8003802"><ele>181.25</ele><time>2026-04-18T06:33:13.449Z</time></trkpt><trkpt lat="43.564973" lon="10.800411"><ele>180.0</ele><time>2026-04-18T06:33:14.455Z</time></trkpt><trkpt lat="43.5650628" lon="10.800431"><ele>180.0</ele><time>2026-04-18T06:33:15.451Z</time></trkpt><trkpt lat="43.5651501" lon="10.8004357"><ele>180.0</ele><time>2026-04-18T06:33:16.454Z</time></trkpt><trkpt lat="43.5652376" lon="10.8004297"><ele>180.0</ele><time>2026-04-18T06:33:17.451Z</time></trkpt><trkpt lat="43.5653244" lon="10.8004257"><ele>180.0</ele><time>2026-04-18T06:33:18.444Z</time></trkpt><trkpt lat="43.5654128" lon="10.8004387"><ele>180.0</ele><time>2026-04-18T06:33:19.448Z</time></trkpt><trkpt lat="43.5654935" lon="10.8004671"><ele>180.0</ele><time>2026-04-18T06:33:20.452Z</time></trkpt><trkpt lat="43.5655678" lon="10.8005113"><ele>180.4</ele><time>2026-04-18T06:33:21.429Z</time></trkpt><trkpt lat="43.5656348" lon="10.8005796"><ele>180.8</ele><time>2026-04-18T06:33:22.451Z</time></trkpt><trkpt lat="43.5657004" lon="10.8006678"><ele>181.2</ele><time>2026-04-18T06:33:23.461Z</time></trkpt><trkpt lat="43.5657655" lon="10.8007639"><ele>181.6</ele><time>2026-04-18T06:33:24.448Z</time></trkpt><trkpt lat="43.56584" lon="10.800852"><ele>182.0</ele><time>2026-04-18T06:33:25.448Z</time></trkpt><trkpt lat="43.5659281" lon="10.8009309"><ele>182.25</ele><time>2026-04-18T06:33:26.452Z</time></trkpt><trkpt lat="43.5660264" lon="10.8010065"><ele>182.5</ele><time>2026-04-18T06:33:27.444Z</time></trkpt><trkpt lat="43.5661337" lon="10.801077"><ele>182.75</ele><time>2026-04-18T06:33:28.452Z</time></trkpt><trkpt lat="43.5662465" lon="10.8011476"><ele>183.0</ele><time>2026-04-18T06:33:29.461Z</time></trkpt><trkpt lat="43.5663613" lon="10.8012228"><ele>183.0</ele><time>2026-04-18T06:33:30.456Z</time></trkpt><trkpt lat="43.5664815" lon="10.8012999"><ele>183.0</ele><time>2026-04-18T06:33:31.45Z</time></trkpt><trkpt lat="43.5666075" lon="10.8013812"><ele>183.0</ele><time>2026-04-18T06:33:32.422Z</time></trkpt><trkpt lat="43.5667323" lon="10.8014633"><ele>183.0</ele><time>2026-04-18T06:33:33.449Z</time></trkpt><trkpt lat="43.5668619" lon="10.8015475"><ele>183.0</ele><time>2026-04-18T06:33:34.448Z</time></trkpt><trkpt lat="43.566999" lon="10.8016312"><ele>183.0</ele><time>2026-04-18T06:33:35.457Z</time></trkpt><trkpt lat="43.5671451" lon="10.8017126"><ele>183.0</ele><time>2026-04-18T06:33:36.463Z</time></trkpt><trkpt lat="43.5672812" lon="10.8017738"><ele>183.0</ele><time>2026-04-18T06:33:37.445Z</time></trkpt><trkpt lat="43.5675592" lon="10.8018593"><ele>183.0</ele><time>2026-04-18T06:33:39.324Z</time></trkpt><trkpt lat="43.5676962" lon="10.8018767"><ele>183.0</ele><time>2026-04-18T06:33:40.33Z</time></trkpt><trkpt lat="43.5678397" lon="10.8018896"><ele>182.33333333333334</ele><time>2026-04-18T06:33:41.328Z</time></trkpt><trkpt lat="43.5679866" lon="10.8019023"><ele>181.66666666666669</ele><time>2026-04-18T06:33:42.322Z</time></trkpt><trkpt lat="43.568139" lon="10.8019148"><ele>181.0</ele><time>2026-04-18T06:33:43.323Z</time></trkpt><trkpt lat="43.5682945" lon="10.8019225"><ele>181.0</ele><time>2026-04-18T06:33:44.319Z</time></trkpt><trkpt lat="43.568452" lon="10.8019294"><ele>181.0</ele><time>2026-04-18T06:33:45.317Z</time></trkpt><trkpt lat="43.5686061" lon="10.801937"><ele>181.0</ele><time>2026-04-18T06:33:46.323Z</time></trkpt><trkpt lat="43.5687417" lon="10.8019431"><ele>181.0</ele><time>2026-04-18T06:33:47.321Z</time></trkpt><trkpt lat="43.5688712" lon="10.801937"><ele>184.25</ele><time>2026-04-18T06:33:48.321Z</time></trkpt><trkpt lat="43.5689964" lon="10.8019137"><ele>187.5</ele><time>2026-04-18T06:33:49.419Z</time></trkpt><trkpt lat="43.5691167" lon="10.8018668"><ele>190.75</ele><time>2026-04-18T06:33:50.433Z</time></trkpt><trkpt lat="43.5692343" lon="10.8018264"><ele>194.0</ele><time>2026-04-18T06:33:51.462Z</time></trkpt><trkpt lat="43.5693329" lon="10.8018203"><ele>194.0</ele><time>2026-04-18T06:33:52.444Z</time></trkpt><trkpt lat="43.5694163" lon="10.8018454"><ele>194.0</ele><time>2026-04-18T06:33:53.455Z</time></trkpt><trkpt lat="43.569491" lon="10.8018971"><ele>194.0</ele><time>2026-04-18T06:33:54.449Z</time></trkpt><trkpt lat="43.569558" lon="10.8019763"><ele>194.0</ele><time>2026-04-18T06:33:55.462Z</time></trkpt><trkpt lat="43.5696143" lon="10.8020824"><ele>194.0</ele><time>2026-04-18T06:33:56.456Z</time></trkpt><trkpt lat="43.5696684" lon="10.8021968"><ele>196.75</ele><time>2026-04-18T06:33:57.45Z</time></trkpt><trkpt lat="43.5697227" lon="10.8023135"><ele>199.5</ele><time>2026-04-18T06:33:58.416Z</time></trkpt><trkpt lat="43.5697766" lon="10.8024319"><ele>202.25</ele><time>2026-04-18T06:33:59.449Z</time></trkpt><trkpt lat="43.5698842" lon="10.8026907"><ele>205.0</ele><time>2026-04-18T06:34:01.451Z</time></trkpt><trkpt lat="43.5699432" lon="10.8028312"><ele>205.0</ele><time>2026-04-18T06:34:02.437Z</time></trkpt><trkpt lat="43.5700085" lon="10.802972"><ele>205.0</ele><time>2026-04-18T06:34:03.453Z</time></trkpt><trkpt lat="43.5700741" lon="10.8031023"><ele>205.0</ele><time>2026-04-18T06:34:04.462Z</time></trkpt><trkpt lat="43.5701458" lon="10.8032137"><ele>205.0</ele><time>2026-04-18T06:34:05.444Z</time></trkpt><trkpt lat="43.5702327" lon="10.8033036"><ele>205.0</ele><time>2026-04-18T06:34:06.451Z</time></trkpt><trkpt lat="43.5703365" lon="10.8033791"><ele>205.0</ele><time>2026-04-18T06:34:07.448Z</time></trkpt><trkpt lat="43.5704516" lon="10.803446"><ele>205.0</ele><time>2026-04-18T06:34:08.465Z</time></trkpt><trkpt lat="43.5705649" lon="10.8035064"><ele>205.0</ele><time>2026-04-18T06:34:09.424Z</time></trkpt><trkpt lat="43.5707708" lon="10.8036269"><ele>204.4</ele><time>2026-04-18T06:34:11.319Z</time></trkpt><trkpt lat="43.5708628" lon="10.8037085"><ele>203.8</ele><time>2026-04-18T06:34:12.319Z</time></trkpt><trkpt lat="43.5709416" lon="10.8038158"><ele>203.2</ele><time>2026-04-18T06:34:13.321Z</time></trkpt><trkpt lat="43.5709999" lon="10.8039417"><ele>202.6</ele><time>2026-04-18T06:34:14.362Z</time></trkpt><trkpt lat="43.571044" lon="10.8040821"><ele>202.0</ele><time>2026-04-18T06:34:15.314Z</time></trkpt><trkpt lat="43.5710722" lon="10.8042412"><ele>199.5</ele><time>2026-04-18T06:34:16.321Z</time></trkpt><trkpt lat="43.5710859" lon="10.8044157"><ele>197.0</ele><time>2026-04-18T06:34:17.322Z</time></trkpt><trkpt lat="43.5710868" lon="10.8045935"><ele>194.5</ele><time>2026-04-18T06:34:18.323Z</time></trkpt><trkpt lat="43.5710739" lon="10.8047748"><ele>192.0</ele><time>2026-04-18T06:34:19.447Z</time></trkpt><trkpt lat="43.5710577" lon="10.8049546"><ele>192.0</ele><time>2026-04-18T06:34:20.411Z</time></trkpt><trkpt lat="43.5710382" lon="10.805133"><ele>192.0</ele><time>2026-04-18T06:34:21.458Z</time></trkpt><trkpt lat="43.5710177" lon="10.8053086"><ele>192.0</ele><time>2026-04-18T06:34:22.462Z</time></trkpt><trkpt lat="43.5709983" lon="10.8054759"><ele>192.0</ele><time>2026-04-18T06:34:23.453Z</time></trkpt><trkpt lat="43.5709818" lon="10.8056557"><ele>189.25</ele><time>2026-04-18T06:34:24.451Z</time></trkpt><trkpt lat="43.5709789" lon="10.805845"><ele>186.5</ele><time>2026-04-18T06:34:25.416Z</time></trkpt><trkpt lat="43.5709924" lon="10.8060444"><ele>183.75</ele><time>2026-04-18T06:34:26.395Z</time></trkpt><trkpt lat="43.5710148" lon="10.8062457"><ele>181.0</ele><time>2026-04-18T06:34:27.45Z</time></trkpt><trkpt lat="43.5710428" lon="10.8064393"><ele>180.75</ele><time>2026-04-18T06:34:28.455Z</time></trkpt><trkpt lat="43.5710737" lon="10.8066287"><ele>180.5</ele><time>2026-04-18T06:34:29.441Z</time></trkpt><trkpt lat="43.5711031" lon="10.8068128"><ele>180.25</ele><time>2026-04-18T06:34:30.457Z</time></trkpt><trkpt lat="43.5711308" lon="10.8069835"><ele>180.0</ele><time>2026-04-18T06:34:31.453Z</time></trkpt><trkpt lat="43.5711522" lon="10.8071536"><ele>180.0</ele><time>2026-04-18T06:34:32.452Z</time></trkpt><trkpt lat="43.5711577" lon="10.8073298"><ele>180.0</ele><time>2026-04-18T06:34:33.446Z</time></trkpt><trkpt lat="43.5711336" lon="10.807509"><ele>180.0</ele><time>2026-04-18T06:34:34.445Z</time></trkpt><trkpt lat="43.5710764" lon="10.8076712"><ele>180.0</ele><time>2026-04-18T06:34:35.451Z</time></trkpt><trkpt lat="43.571004" lon="10.8078301"><ele>179.0</ele><time>2026-04-18T06:34:36.45Z</time></trkpt><trkpt lat="43.5709199" lon="10.8079928"><ele>178.0</ele><time>2026-04-18T06:34:37.451Z</time></trkpt><trkpt lat="43.5708242" lon="10.8081486"><ele>177.0</ele><time>2026-04-18T06:34:38.447Z</time></trkpt><trkpt lat="43.5707292" lon="10.8083029"><ele>176.0</ele><time>2026-04-18T06:34:39.481Z</time></trkpt><trkpt lat="43.5706314" lon="10.8084593"><ele>174.5</ele><time>2026-04-18T06:34:40.413Z</time></trkpt><trkpt lat="43.5705392" lon="10.8085958"><ele>173.0</ele><time>2026-04-18T06:34:41.449Z</time></trkpt><trkpt lat="43.5704501" lon="10.8087073"><ele>171.5</ele><time>2026-04-18T06:34:42.468Z</time></trkpt><trkpt lat="43.5703573" lon="10.8087899"><ele>170.0</ele><time>2026-04-18T06:34:43.456Z</time></trkpt><trkpt lat="43.5702616" lon="10.8088388"><ele>170.0</ele><time>2026-04-18T06:34:44.458Z</time></trkpt><trkpt lat="43.5701549" lon="10.8088576"><ele>170.0</ele><time>2026-04-18T06:34:45.459Z</time></trkpt><trkpt lat="43.5700451" lon="10.8088407"><ele>170.0</ele><time>2026-04-18T06:34:46.451Z</time></trkpt><trkpt lat="43.5699365" lon="10.8087938"><ele>170.0</ele><time>2026-04-18T06:34:47.425Z</time></trkpt><trkpt lat="43.569828" lon="10.8087358"><ele>170.0</ele><time>2026-04-18T06:34:48.44Z</time></trkpt><trkpt lat="43.5697217" lon="10.8086832"><ele>170.0</ele><time>2026-04-18T06:34:49.405Z</time></trkpt><trkpt lat="43.5696125" lon="10.808652"><ele>170.0</ele><time>2026-04-18T06:34:50.331Z</time></trkpt><trkpt lat="43.5695021" lon="10.8086581"><ele>170.0</ele><time>2026-04-18T06:34:51.431Z</time></trkpt><trkpt lat="43.5693878" lon="10.8087055"><ele>170.0</ele><time>2026-04-18T06:34:52.438Z</time></trkpt><trkpt lat="43.5692767" lon="10.8087863"><ele>169.5</ele><time>2026-04-18T06:34:53.446Z</time></trkpt><trkpt lat="43.5691675" lon="10.8088949"><ele>169.0</ele><time>2026-04-18T06:34:54.406Z</time></trkpt><trkpt lat="43.5690657" lon="10.8090225"><ele>168.5</ele><time>2026-04-18T06:34:55.447Z</time></trkpt><trkpt lat="43.5689681" lon="10.8091674"><ele>168.0</ele><time>2026-04-18T06:34:56.455Z</time></trkpt><trkpt lat="43.5687753" lon="10.8094793"><ele>168.25</ele><time>2026-04-18T06:34:58.314Z</time></trkpt><trkpt lat="43.5686838" lon="10.8096282"><ele>168.5</ele><time>2026-04-18T06:34:59.317Z</time></trkpt><trkpt lat="43.5685923" lon="10.8097523"><ele>168.75</ele><time>2026-04-18T06:35:00.446Z</time></trkpt><trkpt lat="43.5685021" lon="10.8098388"><ele>169.0</ele><time>2026-04-18T06:35:01.415Z</time></trkpt><trkpt lat="43.5683868" lon="10.8098966"><ele>169.0</ele><time>2026-04-18T06:35:02.445Z</time></trkpt><trkpt lat="43.5682634" lon="10.8099263"><ele>169.0</ele><time>2026-04-18T06:35:03.454Z</time></trkpt><trkpt lat="43.5680338" lon="10.8100926"><ele>169.0</ele><time>2026-04-18T06:35:05.447Z</time></trkpt><trkpt lat="43.567941" lon="10.8102346"><ele>170.25</ele><time>2026-04-18T06:35:06.464Z</time></trkpt><trkpt lat="43.5678601" lon="10.8103853"><ele>171.5</ele><time>2026-04-18T06:35:07.458Z</time></trkpt><trkpt lat="43.5677945" lon="10.8105337"><ele>172.75</ele><time>2026-04-18T06:35:08.458Z</time></trkpt><trkpt lat="43.5677576" lon="10.8106923"><ele>174.0</ele><time>2026-04-18T06:35:09.441Z</time></trkpt><trkpt lat="43.5677539" lon="10.8108597"><ele>172.25</ele><time>2026-04-18T06:35:10.434Z</time></trkpt><trkpt lat="43.5677805" lon="10.8110289"><ele>170.5</ele><time>2026-04-18T06:35:11.458Z</time></trkpt><trkpt lat="43.567826" lon="10.8112051"><ele>168.75</ele><time>2026-04-18T06:35:12.419Z</time></trkpt><trkpt lat="43.5678804" lon="10.8113799"><ele>167.0</ele><time>2026-04-18T06:35:13.445Z</time></trkpt><trkpt lat="43.5679319" lon="10.8115637"><ele>167.0</ele><time>2026-04-18T06:35:14.469Z</time></trkpt><trkpt lat="43.5679804" lon="10.8117567"><ele>167.0</ele><time>2026-04-18T06:35:15.452Z</time></trkpt><trkpt lat="43.5680304" lon="10.8119515"><ele>167.0</ele><time>2026-04-18T06:35:16.472Z</time></trkpt><trkpt lat="43.5680823" lon="10.8121447"><ele>167.0</ele><time>2026-04-18T06:35:17.459Z</time></trkpt><trkpt lat="43.5681285" lon="10.8123286"><ele>168.25</ele><time>2026-04-18T06:35:18.441Z</time></trkpt><trkpt lat="43.5681719" lon="10.8125029"><ele>169.5</ele><time>2026-04-18T06:35:19.449Z</time></trkpt><trkpt lat="43.5682047" lon="10.8126685"><ele>170.75</ele><time>2026-04-18T06:35:20.373Z</time></trkpt><trkpt lat="43.5682127" lon="10.8128197"><ele>172.0</ele><time>2026-04-18T06:35:21.316Z</time></trkpt><trkpt lat="43.5681914" lon="10.8129611"><ele>172.0</ele><time>2026-04-18T06:35:22.415Z</time></trkpt><trkpt lat="43.5681451" lon="10.81311"><ele>172.0</ele><time>2026-04-18T06:35:23.326Z</time></trkpt><trkpt lat="43.5680859" lon="10.8132646"><ele>172.0</ele><time>2026-04-18T06:35:24.327Z</time></trkpt><trkpt lat="43.5680333" lon="10.8134234"><ele>172.0</ele><time>2026-04-18T06:35:25.323Z</time></trkpt><trkpt lat="43.5680044" lon="10.8135924"><ele>172.25</ele><time>2026-04-18T06:35:26.433Z</time></trkpt><trkpt lat="43.5680055" lon="10.8137809"><ele>172.5</ele><time>2026-04-18T06:35:27.459Z</time></trkpt><trkpt lat="43.5680174" lon="10.8139799"><ele>172.75</ele><time>2026-04-18T06:35:28.427Z</time></trkpt><trkpt lat="43.5680357" lon="10.8141811"><ele>173.0</ele><time>2026-04-18T06:35:29.465Z</time></trkpt><trkpt lat="43.5680588" lon="10.8143908"><ele>174.66666666666666</ele><time>2026-04-18T06:35:30.457Z</time></trkpt><trkpt lat="43.568082" lon="10.8146041"><ele>176.33333333333334</ele><time>2026-04-18T06:35:31.46Z</time></trkpt><trkpt lat="43.5681053" lon="10.8148163"><ele>178.0</ele><time>2026-04-18T06:35:32.433Z</time></trkpt><trkpt lat="43.5681261" lon="10.8150275"><ele>179.0</ele><time>2026-04-18T06:35:33.451Z</time></trkpt><trkpt lat="43.568152" lon="10.8152389"><ele>180.0</ele><time>2026-04-18T06:35:34.452Z</time></trkpt><trkpt lat="43.5681917" lon="10.815449"><ele>181.0</ele><time>2026-04-18T06:35:35.448Z</time></trkpt><trkpt lat="43.5682452" lon="10.8156526"><ele>181.0</ele><time>2026-04-18T06:35:36.466Z</time></trkpt><trkpt lat="43.568317" lon="10.8158442"><ele>181.0</ele><time>2026-04-18T06:35:37.454Z</time></trkpt><trkpt lat="43.5683959" lon="10.8160383"><ele>181.0</ele><time>2026-04-18T06:35:38.438Z</time></trkpt><trkpt lat="43.5684843" lon="10.8162191"><ele>180.0</ele><time>2026-04-18T06:35:39.459Z</time></trkpt><trkpt lat="43.5685718" lon="10.8164063"><ele>179.0</ele><time>2026-04-18T06:35:40.419Z</time></trkpt><trkpt lat="43.5686615" lon="10.8165979"><ele>178.0</ele><time>2026-04-18T06:35:41.438Z</time></trkpt><trkpt lat="43.5687532" lon="10.8167897"><ele>179.33333333333334</ele><time>2026-04-18T06:35:42.428Z</time></trkpt><trkpt lat="43.5688383" lon="10.8169728"><ele>180.66666666666666</ele><time>2026-04-18T06:35:43.459Z</time></trkpt><trkpt lat="43.568992" lon="10.8173013"><ele>182.0</ele><time>2026-04-18T06:35:45.348Z</time></trkpt><trkpt lat="43.5690626" lon="10.8174575"><ele>178.66666666666666</ele><time>2026-04-18T06:35:46.444Z</time></trkpt><trkpt lat="43.5692089" lon="10.8177951"><ele>175.33333333333334</ele><time>2026-04-18T06:35:48.317Z</time></trkpt><trkpt lat="43.5692722" lon="10.8179701"><ele>172.0</ele><time>2026-04-18T06:35:49.321Z</time></trkpt><trkpt lat="43.5693403" lon="10.818147"><ele>171.33333333333334</ele><time>2026-04-18T06:35:50.46Z</time></trkpt><trkpt lat="43.5694533" lon="10.81849"><ele>170.66666666666666</ele><time>2026-04-18T06:35:52.321Z</time></trkpt><trkpt lat="43.5694831" lon="10.8186764"><ele>170.0</ele><time>2026-04-18T06:35:53.321Z</time></trkpt><trkpt lat="43.5694886" lon="10.8188486"><ele>170.0</ele><time>2026-04-18T06:35:54.462Z</time></trkpt><trkpt lat="43.5694735" lon="10.8190096"><ele>170.0</ele><time>2026-04-18T06:35:55.446Z</time></trkpt><trkpt lat="43.569435" lon="10.8191615"><ele>170.0</ele><time>2026-04-18T06:35:56.44Z</time></trkpt><trkpt lat="43.569302" lon="10.8194562"><ele>169.75</ele><time>2026-04-18T06:35:58.32Z</time></trkpt><trkpt lat="43.5692226" lon="10.8196162"><ele>169.5</ele><time>2026-04-18T06:35:59.322Z</time></trkpt><trkpt lat="43.5691493" lon="10.8197724"><ele>169.25</ele><time>2026-04-18T06:36:00.328Z</time></trkpt><trkpt lat="43.5690803" lon="10.819924"><ele>169.0</ele><time>2026-04-18T06:36:01.324Z</time></trkpt><trkpt lat="43.5690145" lon="10.8200735"><ele>167.6</ele><time>2026-04-18T06:36:02.323Z</time></trkpt><trkpt lat="43.5689604" lon="10.8202159"><ele>166.2</ele><time>2026-04-18T06:36:03.322Z</time></trkpt><trkpt lat="43.5689118" lon="10.8203505"><ele>164.79999999999998</ele><time>2026-04-18T06:36:04.326Z</time></trkpt><trkpt lat="43.5688861" lon="10.8204912"><ele>163.39999999999998</ele><time>2026-04-18T06:36:05.324Z</time></trkpt><trkpt lat="43.5688812" lon="10.8206367"><ele>162.0</ele><time>2026-04-18T06:36:06.436Z</time></trkpt><trkpt lat="43.5688953" lon="10.8207944"><ele>162.0</ele><time>2026-04-18T06:36:07.459Z</time></trkpt><trkpt lat="43.5689222" lon="10.8209635"><ele>162.0</ele><time>2026-04-18T06:36:08.451Z</time></trkpt><trkpt lat="43.5689532" lon="10.8211427"><ele>162.0</ele><time>2026-04-18T06:36:09.422Z</time></trkpt><trkpt lat="43.5689854" lon="10.8213291"><ele>162.0</ele><time>2026-04-18T06:36:10.455Z</time></trkpt><trkpt lat="43.5690162" lon="10.821522"><ele>159.75</ele><time>2026-04-18T06:36:11.47Z</time></trkpt><trkpt lat="43.569048" lon="10.8217193"><ele>157.5</ele><time>2026-04-18T06:36:12.463Z</time></trkpt><trkpt lat="43.5690718" lon="10.8219216"><ele>155.25</ele><time>2026-04-18T06:36:13.451Z</time></trkpt><trkpt lat="43.569084" lon="10.8221337"><ele>153.0</ele><time>2026-04-18T06:36:14.445Z</time></trkpt><trkpt lat="43.5690843" lon="10.8223424"><ele>151.33333333333334</ele><time>2026-04-18T06:36:15.455Z</time></trkpt><trkpt lat="43.5690751" lon="10.8225546"><ele>149.66666666666669</ele><time>2026-04-18T06:36:16.45Z</time></trkpt><trkpt lat="43.569058" lon="10.8227605"><ele>148.0</ele><time>2026-04-18T06:36:17.465Z</time></trkpt><trkpt lat="43.5690412" lon="10.8229678"><ele>147.33333333333334</ele><time>2026-04-18T06:36:18.453Z</time></trkpt><trkpt lat="43.5690234" lon="10.8231704"><ele>146.66666666666666</ele><time>2026-04-18T06:36:19.474Z</time></trkpt><trkpt lat="43.5690022" lon="10.8233711"><ele>146.0</ele><time>2026-04-18T06:36:20.462Z</time></trkpt><trkpt lat="43.56895" lon="10.8237502"><ele>144.75</ele><time>2026-04-18T06:36:22.318Z</time></trkpt><trkpt lat="43.5689197" lon="10.8239274"><ele>143.5</ele><time>2026-04-18T06:36:23.449Z</time></trkpt><trkpt lat="43.5688906" lon="10.8240943"><ele>142.25</ele><time>2026-04-18T06:36:24.447Z</time></trkpt><trkpt lat="43.5688633" lon="10.824253"><ele>141.0</ele><time>2026-04-18T06:36:25.453Z</time></trkpt><trkpt lat="43.5688132" lon="10.8245474"><ele>140.33333333333334</ele><time>2026-04-18T06:36:27.449Z</time></trkpt><trkpt lat="43.5687948" lon="10.8246743"><ele>139.66666666666666</ele><time>2026-04-18T06:36:28.461Z</time></trkpt><trkpt lat="43.5687764" lon="10.8247723"><ele>139.0</ele><time>2026-04-18T06:36:29.464Z</time></trkpt><trkpt lat="43.5687519" lon="10.8248716"><ele>138.33333333333331</ele><time>2026-04-18T06:36:30.406Z</time></trkpt><trkpt lat="43.5687228" lon="10.8249602"><ele>137.66666666666666</ele><time>2026-04-18T06:36:31.324Z</time></trkpt><trkpt lat="43.5686585" lon="10.825053"><ele>137.0</ele><time>2026-04-18T06:36:33.325Z</time></trkpt><trkpt lat="43.5685867" lon="10.8249709"><ele>136.79999999999998</ele><time>2026-04-18T06:36:35.42Z</time></trkpt><trkpt lat="43.5685626" lon="10.824871"><ele>136.6</ele><time>2026-04-18T06:36:36.438Z</time></trkpt><trkpt lat="43.5685468" lon="10.8247384"><ele>136.39999999999998</ele><time>2026-04-18T06:36:37.464Z</time></trkpt><trkpt lat="43.5685352" lon="10.8245838"><ele>136.2</ele><time>2026-04-18T06:36:38.442Z</time></trkpt><trkpt lat="43.56852" lon="10.824408"><ele>136.0</ele><time>2026-04-18T06:36:39.453Z</time></trkpt><trkpt lat="43.5684969" lon="10.8242233"><ele>134.75</ele><time>2026-04-18T06:36:40.455Z</time></trkpt><trkpt lat="43.5684731" lon="10.8240249"><ele>133.5</ele><time>2026-04-18T06:36:41.472Z</time></trkpt><trkpt lat="43.5684533" lon="10.8238227"><ele>132.25</ele><time>2026-04-18T06:36:42.42Z</time></trkpt><trkpt lat="43.5684365" lon="10.8236232"><ele>131.0</ele><time>2026-04-18T06:36:43.46Z</time></trkpt><trkpt lat="43.5684244" lon="10.8234297"><ele>130.5</ele><time>2026-04-18T06:36:44.471Z</time></trkpt><trkpt lat="43.568415" lon="10.8232452"><ele>130.0</ele><time>2026-04-18T06:36:45.455Z</time></trkpt><trkpt lat="43.5684027" lon="10.8230645"><ele>129.5</ele><time>2026-04-18T06:36:46.446Z</time></trkpt><trkpt lat="43.5683888" lon="10.8228913"><ele>129.0</ele><time>2026-04-18T06:36:47.464Z</time></trkpt><trkpt lat="43.5683811" lon="10.8227292"><ele>129.2</ele><time>2026-04-18T06:36:48.459Z</time></trkpt><trkpt lat="43.5683694" lon="10.8225719"><ele>129.4</ele><time>2026-04-18T06:36:49.423Z</time></trkpt><trkpt lat="43.5683555" lon="10.8224244"><ele>129.6</ele><time>2026-04-18T06:36:50.414Z</time></trkpt><trkpt lat="43.5683327" lon="10.822288"><ele>129.8</ele><time>2026-04-18T06:36:51.442Z</time></trkpt><trkpt lat="43.5682897" lon="10.8221631"><ele>130.0</ele><time>2026-04-18T06:36:52.418Z</time></trkpt><trkpt lat="43.5682303" lon="10.8220507"><ele>130.0</ele><time>2026-04-18T06:36:53.46Z</time></trkpt><trkpt lat="43.568151" lon="10.8219566"><ele>130.0</ele><time>2026-04-18T06:36:54.457Z</time></trkpt><trkpt lat="43.5680535" lon="10.8218929"><ele>130.0</ele><time>2026-04-18T06:36:55.459Z</time></trkpt><trkpt lat="43.5679408" lon="10.8218499"><ele>130.0</ele><time>2026-04-18T06:36:56.467Z</time></trkpt><trkpt lat="43.5678174" lon="10.8218157"><ele>129.0</ele><time>2026-04-18T06:36:57.458Z</time></trkpt><trkpt lat="43.567692" lon="10.8217806"><ele>128.0</ele><time>2026-04-18T06:36:58.463Z</time></trkpt><trkpt lat="43.567569" lon="10.8217469"><ele>127.0</ele><time>2026-04-18T06:36:59.457Z</time></trkpt><trkpt lat="43.567441" lon="10.821714"><ele>126.0</ele><time>2026-04-18T06:37:00.457Z</time></trkpt><trkpt lat="43.5673137" lon="10.821677"><ele>126.0</ele><time>2026-04-18T06:37:01.457Z</time></trkpt><trkpt lat="43.5671898" lon="10.8216419"><ele>126.0</ele><time>2026-04-18T06:37:02.455Z</time></trkpt><trkpt lat="43.5670681" lon="10.8216064"><ele>126.0</ele><time>2026-04-18T06:37:03.444Z</time></trkpt><trkpt lat="43.5669438" lon="10.8215695"><ele>126.0</ele><time>2026-04-18T06:37:04.445Z</time></trkpt><trkpt lat="43.5668243" lon="10.8215341"><ele>122.0</ele><time>2026-04-18T06:37:05.325Z</time></trkpt><trkpt lat="43.5667066" lon="10.8214955"><ele>118.0</ele><time>2026-04-18T06:37:06.311Z</time></trkpt><trkpt lat="43.5665946" lon="10.8214605"><ele>114.0</ele><time>2026-04-18T06:37:07.445Z</time></trkpt><trkpt lat="43.5664859" lon="10.8214219"><ele>110.0</ele><time>2026-04-18T06:37:08.428Z</time></trkpt><trkpt lat="43.5663803" lon="10.8213825"><ele>110.0</ele><time>2026-04-18T06:37:09.435Z</time></trkpt><trkpt lat="43.5662757" lon="10.8213492"><ele>110.0</ele><time>2026-04-18T06:37:10.442Z</time></trkpt><trkpt lat="43.5661742" lon="10.8213281"><ele>110.0</ele><time>2026-04-18T06:37:11.437Z</time></trkpt><trkpt lat="43.5660747" lon="10.8213078"><ele>110.0</ele><time>2026-04-18T06:37:12.449Z</time></trkpt><trkpt lat="43.5659617" lon="10.8212838"><ele>110.0</ele><time>2026-04-18T06:37:13.458Z</time></trkpt><trkpt lat="43.5658476" lon="10.8212551"><ele>110.66666666666666</ele><time>2026-04-18T06:37:14.449Z</time></trkpt><trkpt lat="43.5657375" lon="10.8212193"><ele>111.33333333333334</ele><time>2026-04-18T06:37:15.419Z</time></trkpt><trkpt lat="43.5656221" lon="10.8211618"><ele>112.0</ele><time>2026-04-18T06:37:16.447Z</time></trkpt><trkpt lat="43.5654019" lon="10.8209787"><ele>108.75</ele><time>2026-04-18T06:37:18.329Z</time></trkpt><trkpt lat="43.5652939" lon="10.8208722"><ele>105.5</ele><time>2026-04-18T06:37:19.435Z</time></trkpt><trkpt lat="43.5651885" lon="10.8207589"><ele>102.25</ele><time>2026-04-18T06:37:20.336Z</time></trkpt><trkpt lat="43.5650857" lon="10.8206489"><ele>99.0</ele><time>2026-04-18T06:37:21.352Z</time></trkpt><trkpt lat="43.5649808" lon="10.8205352"><ele>99.0</ele><time>2026-04-18T06:37:22.313Z</time></trkpt><trkpt lat="43.564878" lon="10.8204213"><ele>99.0</ele><time>2026-04-18T06:37:23.32Z</time></trkpt><trkpt lat="43.5647787" lon="10.8203112"><ele>99.0</ele><time>2026-04-18T06:37:24.326Z</time></trkpt><trkpt lat="43.5646828" lon="10.8202035"><ele>99.0</ele><time>2026-04-18T06:37:25.322Z</time></trkpt><trkpt lat="43.5645921" lon="10.8200946"><ele>96.2</ele><time>2026-04-18T06:37:26.318Z</time></trkpt><trkpt lat="43.5645064" lon="10.8199859"><ele>93.4</ele><time>2026-04-18T06:37:27.321Z</time></trkpt><trkpt lat="43.56443" lon="10.819873"><ele>90.6</ele><time>2026-04-18T06:37:28.321Z</time></trkpt><trkpt lat="43.5643643" lon="10.8197539"><ele>87.8</ele><time>2026-04-18T06:37:29.329Z</time></trkpt><trkpt lat="43.5643125" lon="10.8196345"><ele>85.0</ele><time>2026-04-18T06:37:30.319Z</time></trkpt><trkpt lat="43.5642635" lon="10.8195194"><ele>85.0</ele><time>2026-04-18T06:37:31.323Z</time></trkpt><trkpt lat="43.5642217" lon="10.819422"><ele>85.0</ele><time>2026-04-18T06:37:32.317Z</time></trkpt><trkpt lat="43.5641775" lon="10.8193335"><ele>85.0</ele><time>2026-04-18T06:37:33.323Z</time></trkpt><trkpt lat="43.5641374" lon="10.8192394"><ele>85.0</ele><time>2026-04-18T06:37:34.319Z</time></trkpt><trkpt lat="43.5641016" lon="10.8191515"><ele>85.0</ele><time>2026-04-18T06:37:35.322Z</time></trkpt><trkpt lat="43.5640693" lon="10.8190745"><ele>85.0</ele><time>2026-04-18T06:37:36.318Z</time></trkpt><trkpt lat="43.5640356" lon="10.8189969"><ele>85.0</ele><time>2026-04-18T06:37:37.323Z</time></trkpt><trkpt lat="43.5639699" lon="10.818861"><ele>85.28571428571429</ele><time>2026-04-18T06:37:39.323Z</time></trkpt><trkpt lat="43.5639298" lon="10.8187882"><ele>85.57142857142857</ele><time>2026-04-18T06:37:40.321Z</time></trkpt><trkpt lat="43.5638783" lon="10.8187137"><ele>85.85714285714286</ele><time>2026-04-18T06:37:41.314Z</time></trkpt><trkpt lat="43.5638208" lon="10.8186561"><ele>86.14285714285714</ele><time>2026-04-18T06:37:42.32Z</time></trkpt><trkpt lat="43.5637579" lon="10.818618"><ele>86.42857142857143</ele><time>2026-04-18T06:37:43.321Z</time></trkpt><trkpt lat="43.5636847" lon="10.8185859"><ele>86.71428571428571</ele><time>2026-04-18T06:37:44.321Z</time></trkpt><trkpt lat="43.5636074" lon="10.8185725"><ele>87.0</ele><time>2026-04-18T06:37:45.321Z</time></trkpt><trkpt lat="43.5635258" lon="10.8185788"><ele>85.39999999999999</ele><time>2026-04-18T06:37:46.322Z</time></trkpt><trkpt lat="43.5634352" lon="10.8186069"><ele>83.8</ele><time>2026-04-18T06:37:47.33Z</time></trkpt><trkpt lat="43.5633451" lon="10.8186493"><ele>82.2</ele><time>2026-04-18T06:37:48.325Z</time></trkpt><trkpt lat="43.5632487" lon="10.8187106"><ele>80.6</ele><time>2026-04-18T06:37:49.321Z</time></trkpt><trkpt lat="43.5631452" lon="10.8187772"><ele>79.0</ele><time>2026-04-18T06:37:50.451Z</time></trkpt><trkpt lat="43.5630379" lon="10.818845"><ele>79.0</ele><time>2026-04-18T06:37:51.447Z</time></trkpt><trkpt lat="43.5629281" lon="10.8189196"><ele>79.0</ele><time>2026-04-18T06:37:52.45Z</time></trkpt><trkpt lat="43.5628208" lon="10.8189994"><ele>79.0</ele><time>2026-04-18T06:37:53.447Z</time></trkpt><trkpt lat="43.5627122" lon="10.8190729"><ele>79.0</ele><time>2026-04-18T06:37:54.446Z</time></trkpt><trkpt lat="43.562605" lon="10.8191423"><ele>80.0</ele><time>2026-04-18T06:37:55.444Z</time></trkpt><trkpt lat="43.5625002" lon="10.8191986"><ele>81.0</ele><time>2026-04-18T06:37:56.428Z</time></trkpt><trkpt lat="43.5623925" lon="10.8192311"><ele>82.0</ele><time>2026-04-18T06:37:57.459Z</time></trkpt><trkpt lat="43.5622872" lon="10.819225"><ele>83.0</ele><time>2026-04-18T06:37:58.439Z</time></trkpt><trkpt lat="43.5621821" lon="10.8191839"><ele>84.0</ele><time>2026-04-18T06:37:59.459Z</time></trkpt><trkpt lat="43.5620853" lon="10.8191036"><ele>85.0</ele><time>2026-04-18T06:38:00.448Z</time></trkpt><trkpt lat="43.5619984" lon="10.8189988"><ele>86.0</ele><time>2026-04-18T06:38:01.464Z</time></trkpt><trkpt lat="43.561915" lon="10.818871"><ele>87.0</ele><time>2026-04-18T06:38:02.443Z</time></trkpt><trkpt lat="43.5618289" lon="10.8187253"><ele>88.0</ele><time>2026-04-18T06:38:03.464Z</time></trkpt><trkpt lat="43.5617375" lon="10.8185642"><ele>85.0</ele><time>2026-04-18T06:38:04.443Z</time></trkpt><trkpt lat="43.5616446" lon="10.8183947"><ele>82.0</ele><time>2026-04-18T06:38:05.446Z</time></trkpt><trkpt lat="43.5614552" lon="10.8180585"><ele>82.0</ele><time>2026-04-18T06:38:07.311Z</time></trkpt><trkpt lat="43.5613573" lon="10.8178853"><ele>82.0</ele><time>2026-04-18T06:38:08.312Z</time></trkpt><trkpt lat="43.561259" lon="10.8177153"><ele>82.0</ele><time>2026-04-18T06:38:09.318Z</time></trkpt><trkpt lat="43.5611588" lon="10.8175443"><ele>82.75</ele><time>2026-04-18T06:38:10.316Z</time></trkpt><trkpt lat="43.5610641" lon="10.8173862"><ele>83.5</ele><time>2026-04-18T06:38:11.316Z</time></trkpt><trkpt lat="43.5609793" lon="10.8172445"><ele>84.25</ele><time>2026-04-18T06:38:12.318Z</time></trkpt><trkpt lat="43.5608964" lon="10.8171148"><ele>85.0</ele><time>2026-04-18T06:38:13.445Z</time></trkpt><trkpt lat="43.5607199" lon="10.8168776"><ele>85.75</ele><time>2026-04-18T06:38:15.325Z</time></trkpt><trkpt lat="43.5606227" lon="10.8167719"><ele>86.5</ele><time>2026-04-18T06:38:16.326Z</time></trkpt><trkpt lat="43.5605165" lon="10.8166628"><ele>87.25</ele><time>2026-04-18T06:38:17.424Z</time></trkpt><trkpt lat="43.5604078" lon="10.8165515"><ele>88.0</ele><time>2026-04-18T06:38:18.425Z</time></trkpt><trkpt lat="43.5602938" lon="10.8164374"><ele>88.0</ele><time>2026-04-18T06:38:19.448Z</time></trkpt><trkpt lat="43.560176" lon="10.8163186"><ele>88.0</ele><time>2026-04-18T06:38:20.43Z</time></trkpt><trkpt lat="43.5600588" lon="10.8162024"><ele>88.0</ele><time>2026-04-18T06:38:21.445Z</time></trkpt><trkpt lat="43.5599477" lon="10.8160956"><ele>88.0</ele><time>2026-04-18T06:38:22.451Z</time></trkpt><trkpt lat="43.55984" lon="10.815994"><ele>86.25</ele><time>2026-04-18T06:38:23.461Z</time></trkpt><trkpt lat="43.5597329" lon="10.8159024"><ele>84.5</ele><time>2026-04-18T06:38:24.45Z</time></trkpt><trkpt lat="43.5596287" lon="10.8158299"><ele>82.75</ele><time>2026-04-18T06:38:25.459Z</time></trkpt><trkpt lat="43.5595223" lon="10.8157667"><ele>81.0</ele><time>2026-04-18T06:38:26.422Z</time></trkpt><trkpt lat="43.5594098" lon="10.8157239"><ele>81.0</ele><time>2026-04-18T06:38:27.447Z</time></trkpt><trkpt lat="43.5592868" lon="10.8156916"><ele>81.0</ele><time>2026-04-18T06:38:28.443Z</time></trkpt><trkpt lat="43.5591521" lon="10.8156603"><ele>81.0</ele><time>2026-04-18T06:38:29.451Z</time></trkpt><trkpt lat="43.5590118" lon="10.815627"><ele>81.0</ele><time>2026-04-18T06:38:30.439Z</time></trkpt><trkpt lat="43.5588658" lon="10.8155929"><ele>81.0</ele><time>2026-04-18T06:38:31.441Z</time></trkpt><trkpt lat="43.5587107" lon="10.8155584"><ele>81.0</ele><time>2026-04-18T06:38:32.455Z</time></trkpt><trkpt lat="43.558555" lon="10.8155267"><ele>81.0</ele><time>2026-04-18T06:38:33.458Z</time></trkpt><trkpt lat="43.5583972" lon="10.8154888"><ele>80.66666666666667</ele><time>2026-04-18T06:38:34.452Z</time></trkpt><trkpt lat="43.5582424" lon="10.8154557"><ele>80.33333333333334</ele><time>2026-04-18T06:38:35.461Z</time></trkpt><trkpt lat="43.558085" lon="10.8154202"><ele>80.0</ele><time>2026-04-18T06:38:36.458Z</time></trkpt><trkpt lat="43.5579216" lon="10.8153795"><ele>79.0</ele><time>2026-04-18T06:38:37.443Z</time></trkpt><trkpt lat="43.5577597" lon="10.815336"><ele>78.0</ele><time>2026-04-18T06:38:38.449Z</time></trkpt><trkpt lat="43.5576026" lon="10.8152957"><ele>77.0</ele><time>2026-04-18T06:38:39.435Z</time></trkpt><trkpt lat="43.5574632" lon="10.8152594"><ele>77.0</ele><time>2026-04-18T06:38:40.447Z</time></trkpt><trkpt lat="43.5573186" lon="10.8152271"><ele>77.0</ele><time>2026-04-18T06:38:41.453Z</time></trkpt><trkpt lat="43.55718" lon="10.8151998"><ele>77.0</ele><time>2026-04-18T06:38:42.462Z</time></trkpt><trkpt lat="43.5570448" lon="10.8151807"><ele>77.0</ele><time>2026-04-18T06:38:43.466Z</time></trkpt><trkpt lat="43.5569067" lon="10.8151853"><ele>78.33333333333334</ele><time>2026-04-18T06:38:44.454Z</time></trkpt><trkpt lat="43.556626" lon="10.8152467"><ele>79.66666666666667</ele><time>2026-04-18T06:38:46.322Z</time></trkpt><trkpt lat="43.5564809" lon="10.8153034"><ele>81.0</ele><time>2026-04-18T06:38:47.321Z</time></trkpt><trkpt lat="43.5563282" lon="10.8153646"><ele>83.66666666666667</ele><time>2026-04-18T06:38:48.321Z</time></trkpt><trkpt lat="43.5561695" lon="10.8154245"><ele>86.33333333333334</ele><time>2026-04-18T06:38:49.443Z</time></trkpt><trkpt lat="43.5560161" lon="10.815477"><ele>89.0</ele><time>2026-04-18T06:38:50.443Z</time></trkpt><trkpt lat="43.5558789" lon="10.8155205"><ele>89.0</ele><time>2026-04-18T06:38:51.453Z</time></trkpt><trkpt lat="43.5557571" lon="10.8155657"><ele>89.0</ele><time>2026-04-18T06:38:52.456Z</time></trkpt><trkpt lat="43.5556483" lon="10.8156189"><ele>89.0</ele><time>2026-04-18T06:38:53.468Z</time></trkpt><trkpt lat="43.5555481" lon="10.8156841"><ele>89.0</ele><time>2026-04-18T06:38:54.459Z</time></trkpt><trkpt lat="43.5554563" lon="10.815763"><ele>89.0</ele><time>2026-04-18T06:38:55.475Z</time></trkpt><trkpt lat="43.555375" lon="10.8158594"><ele>89.0</ele><time>2026-04-18T06:38:56.451Z</time></trkpt><trkpt lat="43.5552987" lon="10.8159729"><ele>89.0</ele><time>2026-04-18T06:38:57.467Z</time></trkpt><trkpt lat="43.555141" lon="10.8162466"><ele>91.0</ele><time>2026-04-18T06:38:59.424Z</time></trkpt><trkpt lat="43.5550589" lon="10.8163989"><ele>93.0</ele><time>2026-04-18T06:39:00.321Z</time></trkpt><trkpt lat="43.5549748" lon="10.8165556"><ele>95.0</ele><time>2026-04-18T06:39:01.323Z</time></trkpt><trkpt lat="43.5548855" lon="10.8167203"><ele>97.0</ele><time>2026-04-18T06:39:02.32Z</time></trkpt><trkpt lat="43.5547935" lon="10.8168871"><ele>98.33333333333334</ele><time>2026-04-18T06:39:03.317Z</time></trkpt><trkpt lat="43.5546968" lon="10.8170603"><ele>99.66666666666666</ele><time>2026-04-18T06:39:04.322Z</time></trkpt><trkpt lat="43.5545975" lon="10.817238"><ele>101.0</ele><time>2026-04-18T06:39:05.322Z</time></trkpt><trkpt lat="43.5544973" lon="10.8174178"><ele>101.66666666666666</ele><time>2026-04-18T06:39:06.319Z</time></trkpt><trkpt lat="43.5543925" lon="10.8176035"><ele>102.33333333333334</ele><time>2026-04-18T06:39:07.323Z</time></trkpt><trkpt lat="43.5542871" lon="10.8177921"><ele>103.0</ele><time>2026-04-18T06:39:08.317Z</time></trkpt><trkpt lat="43.5541812" lon="10.8179867"><ele>105.0</ele><time>2026-04-18T06:39:09.317Z</time></trkpt><trkpt lat="43.5540721" lon="10.8181899"><ele>107.0</ele><time>2026-04-18T06:39:10.319Z</time></trkpt><trkpt lat="43.5539619" lon="10.8183889"><ele>109.0</ele><time>2026-04-18T06:39:11.321Z</time></trkpt><trkpt lat="43.5538593" lon="10.8185789"><ele>110.33333333333334</ele><time>2026-04-18T06:39:12.316Z</time></trkpt><trkpt lat="43.5537592" lon="10.8187622"><ele>111.66666666666666</ele><time>2026-04-18T06:39:13.324Z</time></trkpt><trkpt lat="43.5536602" lon="10.8189444"><ele>113.0</ele><time>2026-04-18T06:39:14.315Z</time></trkpt><trkpt lat="43.5535623" lon="10.8191223"><ele>113.75</ele><time>2026-04-18T06:39:15.322Z</time></trkpt><trkpt lat="43.5534739" lon="10.8192796"><ele>114.5</ele><time>2026-04-18T06:39:16.321Z</time></trkpt><trkpt lat="43.5533926" lon="10.8194326"><ele>115.25</ele><time>2026-04-18T06:39:17.321Z</time></trkpt><trkpt lat="43.5533089" lon="10.8195842"><ele>116.0</ele><time>2026-04-18T06:39:18.321Z</time></trkpt><trkpt lat="43.5532337" lon="10.8197269"><ele>117.5</ele><time>2026-04-18T06:39:19.308Z</time></trkpt><trkpt lat="43.5531533" lon="10.8198791"><ele>119.0</ele><time>2026-04-18T06:39:20.312Z</time></trkpt><trkpt lat="43.5530696" lon="10.8200355"><ele>120.5</ele><time>2026-04-18T06:39:21.323Z</time></trkpt><trkpt lat="43.5529842" lon="10.8201895"><ele>122.0</ele><time>2026-04-18T06:39:22.312Z</time></trkpt><trkpt lat="43.5529005" lon="10.8203407"><ele>123.0</ele><time>2026-04-18T06:39:23.323Z</time></trkpt><trkpt lat="43.5528189" lon="10.8204881"><ele>124.0</ele><time>2026-04-18T06:39:24.317Z</time></trkpt><trkpt lat="43.552738" lon="10.8206312"><ele>125.0</ele><time>2026-04-18T06:39:25.321Z</time></trkpt><trkpt lat="43.5526555" lon="10.8207796"><ele>126.0</ele><time>2026-04-18T06:39:26.322Z</time></trkpt><trkpt lat="43.5525788" lon="10.820918"><ele>127.0</ele><time>2026-04-18T06:39:27.316Z</time></trkpt><trkpt lat="43.5525098" lon="10.821048"><ele>128.0</ele><time>2026-04-18T06:39:28.327Z</time></trkpt><trkpt lat="43.5524483" lon="10.821168"><ele>129.0</ele><time>2026-04-18T06:39:29.317Z</time></trkpt><trkpt lat="43.5523939" lon="10.8212705"><ele>130.0</ele><time>2026-04-18T06:39:30.319Z</time></trkpt><trkpt lat="43.5523386" lon="10.8213709"><ele>131.0</ele><time>2026-04-18T06:39:31.319Z</time></trkpt><trkpt lat="43.5522841" lon="10.8214662"><ele>131.0</ele><time>2026-04-18T06:39:32.32Z</time></trkpt><trkpt lat="43.5522309" lon="10.8215713"><ele>131.0</ele><time>2026-04-18T06:39:33.317Z</time></trkpt><trkpt lat="43.5521869" lon="10.8216602"><ele>131.0</ele><time>2026-04-18T06:39:34.316Z</time></trkpt><trkpt lat="43.552151" lon="10.8217335"><ele>131.0</ele><time>2026-04-18T06:39:35.324Z</time></trkpt><trkpt lat="43.5521131" lon="10.8218107"><ele>131.0</ele><time>2026-04-18T06:39:36.447Z</time></trkpt><trkpt lat="43.552028" lon="10.82195"><ele>131.0</ele><time>2026-04-18T06:39:38.446Z</time></trkpt><trkpt lat="43.5519427" lon="10.8220619"><ele>132.2</ele><time>2026-04-18T06:39:40.444Z</time></trkpt><trkpt lat="43.5518998" lon="10.8221356"><ele>133.39999999999998</ele><time>2026-04-18T06:39:41.426Z</time></trkpt><trkpt lat="43.5518525" lon="10.8222299"><ele>134.6</ele><time>2026-04-18T06:39:42.46Z</time></trkpt><trkpt lat="43.5518009" lon="10.8223344"><ele>135.79999999999998</ele><time>2026-04-18T06:39:43.417Z</time></trkpt><trkpt lat="43.5517434" lon="10.8224449"><ele>137.0</ele><time>2026-04-18T06:39:44.465Z</time></trkpt><trkpt lat="43.5516765" lon="10.8225633"><ele>139.0</ele><time>2026-04-18T06:39:45.454Z</time></trkpt><trkpt lat="43.5516042" lon="10.8226883"><ele>141.0</ele><time>2026-04-18T06:39:46.452Z</time></trkpt><trkpt lat="43.5515216" lon="10.8227992"><ele>143.0</ele><time>2026-04-18T06:39:47.454Z</time></trkpt><trkpt lat="43.5514311" lon="10.8228822"><ele>145.0</ele><time>2026-04-18T06:39:48.463Z</time></trkpt><trkpt lat="43.5513334" lon="10.8229338"><ele>147.0</ele><time>2026-04-18T06:39:49.441Z</time></trkpt><trkpt lat="43.5512323" lon="10.8229583"><ele>147.0</ele><time>2026-04-18T06:39:50.444Z</time></trkpt><trkpt lat="43.5511205" lon="10.8229665"><ele>147.0</ele><time>2026-04-18T06:39:51.442Z</time></trkpt><trkpt lat="43.5509926" lon="10.8229682"><ele>147.0</ele><time>2026-04-18T06:39:52.441Z</time></trkpt><trkpt lat="43.5506955" lon="10.8229246"><ele>147.0</ele><time>2026-04-18T06:39:54.314Z</time></trkpt><trkpt lat="43.5505305" lon="10.8228828"><ele>147.0</ele><time>2026-04-18T06:39:55.318Z</time></trkpt><trkpt lat="43.550381" lon="10.8228365"><ele>147.0</ele><time>2026-04-18T06:39:56.32Z</time></trkpt><trkpt lat="43.5502312" lon="10.8227944"><ele>148.0</ele><time>2026-04-18T06:39:57.325Z</time></trkpt><trkpt lat="43.5500781" lon="10.8227491"><ele>149.0</ele><time>2026-04-18T06:39:58.328Z</time></trkpt><trkpt lat="43.5499223" lon="10.8227097"><ele>150.0</ele><time>2026-04-18T06:39:59.324Z</time></trkpt><trkpt lat="43.5497622" lon="10.8226682"><ele>148.33333333333334</ele><time>2026-04-18T06:40:00.323Z</time></trkpt><trkpt lat="43.5496024" lon="10.8226224"><ele>146.66666666666669</ele><time>2026-04-18T06:40:01.321Z</time></trkpt><trkpt lat="43.5494416" lon="10.8225785"><ele>145.0</ele><time>2026-04-18T06:40:02.318Z</time></trkpt><trkpt lat="43.5492897" lon="10.8225357"><ele>145.0</ele><time>2026-04-18T06:40:03.325Z</time></trkpt><trkpt lat="43.5491465" lon="10.8224962"><ele>145.0</ele><time>2026-04-18T06:40:04.452Z</time></trkpt><trkpt lat="43.549015" lon="10.8224618"><ele>145.0</ele><time>2026-04-18T06:40:05.45Z</time></trkpt><trkpt lat="43.5488847" lon="10.8224204"><ele>145.0</ele><time>2026-04-18T06:40:06.46Z</time></trkpt><trkpt lat="43.5487593" lon="10.8223714"><ele>147.25</ele><time>2026-04-18T06:40:07.465Z</time></trkpt><trkpt lat="43.548635" lon="10.8223071"><ele>149.5</ele><time>2026-04-18T06:40:08.456Z</time></trkpt><trkpt lat="43.5485162" lon="10.8222178"><ele>151.75</ele><time>2026-04-18T06:40:09.459Z</time></trkpt><trkpt lat="43.5484044" lon="10.8221098"><ele>154.0</ele><time>2026-04-18T06:40:10.456Z</time></trkpt><trkpt lat="43.5483057" lon="10.8219858"><ele>151.66666666666669</ele><time>2026-04-18T06:40:11.469Z</time></trkpt><trkpt lat="43.5481259" lon="10.8217336"><ele>149.33333333333334</ele><time>2026-04-18T06:40:13.455Z</time></trkpt><trkpt lat="43.5480333" lon="10.8216069"><ele>147.0</ele><time>2026-04-18T06:40:14.448Z</time></trkpt><trkpt lat="43.5479453" lon="10.8214855"><ele>145.66666666666666</ele><time>2026-04-18T06:40:15.421Z</time></trkpt><trkpt lat="43.5478607" lon="10.8213706"><ele>144.33333333333331</ele><time>2026-04-18T06:40:16.442Z</time></trkpt><trkpt lat="43.5476949" lon="10.8211535"><ele>143.0</ele><time>2026-04-18T06:40:18.312Z</time></trkpt><trkpt lat="43.5476115" lon="10.8210407"><ele>143.20000000000002</ele><time>2026-04-18T06:40:19.32Z</time></trkpt><trkpt lat="43.5475317" lon="10.8209337"><ele>143.4</ele><time>2026-04-18T06:40:20.323Z</time></trkpt><trkpt lat="43.5474548" lon="10.8208256"><ele>143.60000000000002</ele><time>2026-04-18T06:40:21.32Z</time></trkpt><trkpt lat="43.5473837" lon="10.8207234"><ele>143.8</ele><time>2026-04-18T06:40:22.323Z</time></trkpt><trkpt lat="43.5473232" lon="10.8206275"><ele>144.0</ele><time>2026-04-18T06:40:23.321Z</time></trkpt><trkpt lat="43.5472667" lon="10.8205438"><ele>144.0</ele><time>2026-04-18T06:40:24.451Z</time></trkpt><trkpt lat="43.5472165" lon="10.8204718"><ele>144.0</ele><time>2026-04-18T06:40:25.458Z</time></trkpt><trkpt lat="43.5471619" lon="10.8204152"><ele>144.0</ele><time>2026-04-18T06:40:26.411Z</time></trkpt><trkpt lat="43.5469751" lon="10.8204056"><ele>144.0</ele><time>2026-04-18T06:40:29.31Z</time></trkpt><trkpt lat="43.5469194" lon="10.8204544"><ele>144.0</ele><time>2026-04-18T06:40:30.449Z</time></trkpt><trkpt lat="43.5468758" lon="10.8205211"><ele>141.5</ele><time>2026-04-18T06:40:31.449Z</time></trkpt><trkpt lat="43.5468414" lon="10.8206024"><ele>139.0</ele><time>2026-04-18T06:40:32.451Z</time></trkpt><trkpt lat="43.5468135" lon="10.8207041"><ele>136.5</ele><time>2026-04-18T06:40:33.463Z</time></trkpt><trkpt lat="43.5467862" lon="10.8208208"><ele>134.0</ele><time>2026-04-18T06:40:34.456Z</time></trkpt><trkpt lat="43.5467567" lon="10.8209395"><ele>131.5</ele><time>2026-04-18T06:40:35.457Z</time></trkpt><trkpt lat="43.5467247" lon="10.8210645"><ele>129.0</ele><time>2026-04-18T06:40:36.449Z</time></trkpt><trkpt lat="43.5466923" lon="10.821199"><ele>128.5</ele><time>2026-04-18T06:40:37.451Z</time></trkpt><trkpt lat="43.546634" lon="10.8214742"><ele>128.0</ele><time>2026-04-18T06:40:39.447Z</time></trkpt><trkpt lat="43.5466034" lon="10.8216151"><ele>127.5</ele><time>2026-04-18T06:40:40.455Z</time></trkpt><trkpt lat="43.5465743" lon="10.8217529"><ele>127.0</ele><time>2026-04-18T06:40:41.412Z</time></trkpt><trkpt lat="43.5465455" lon="10.8218855"><ele>126.50000000000001</ele><time>2026-04-18T06:40:42.464Z</time></trkpt><trkpt lat="43.5465173" lon="10.822012"><ele>126.0</ele><time>2026-04-18T06:40:43.466Z</time></trkpt><trkpt lat="43.54649" lon="10.8221337"><ele>125.5</ele><time>2026-04-18T06:40:44.463Z</time></trkpt><trkpt lat="43.5464633" lon="10.8222471"><ele>125.0</ele><time>2026-04-18T06:40:45.448Z</time></trkpt><trkpt lat="43.5464367" lon="10.8223522"><ele>124.50000000000001</ele><time>2026-04-18T06:40:46.442Z</time></trkpt><trkpt lat="43.5464142" lon="10.8224577"><ele>124.0</ele><time>2026-04-18T06:40:47.415Z</time></trkpt><trkpt lat="43.5463942" lon="10.8225552"><ele>123.6</ele><time>2026-04-18T06:40:48.448Z</time></trkpt><trkpt lat="43.546372" lon="10.8226518"><ele>123.2</ele><time>2026-04-18T06:40:49.415Z</time></trkpt><trkpt lat="43.5463062" lon="10.8227987"><ele>122.79999999999998</ele><time>2026-04-18T06:40:51.468Z</time></trkpt><trkpt lat="43.5461991" lon="10.8228739"><ele>122.39999999999999</ele><time>2026-04-18T06:40:53.463Z</time></trkpt><trkpt lat="43.546077" lon="10.8228462"><ele>122.0</ele><time>2026-04-18T06:40:55.461Z</time></trkpt><trkpt lat="43.5460246" lon="10.8227927"><ele>119.6</ele><time>2026-04-18T06:40:56.463Z</time></trkpt><trkpt lat="43.5459772" lon="10.8227125"><ele>117.19999999999999</ele><time>2026-04-18T06:40:57.453Z</time></trkpt><trkpt lat="43.54593" lon="10.8226131"><ele>114.8</ele><time>2026-04-18T06:40:58.453Z</time></trkpt><trkpt lat="43.5458801" lon="10.822507"><ele>112.4</ele><time>2026-04-18T06:40:59.413Z</time></trkpt><trkpt lat="43.5458298" lon="10.8223861"><ele>110.0</ele><time>2026-04-18T06:41:00.465Z</time></trkpt><trkpt lat="43.5457762" lon="10.8222529"><ele>110.0</ele><time>2026-04-18T06:41:01.456Z</time></trkpt><trkpt lat="43.5456865" lon="10.8219905"><ele>110.0</ele><time>2026-04-18T06:41:03.324Z</time></trkpt><trkpt lat="43.5456562" lon="10.8218556"><ele>110.0</ele><time>2026-04-18T06:41:04.925Z</time></trkpt><trkpt lat="43.5455994" lon="10.8215784"><ele>110.0</ele><time>2026-04-18T06:41:06.328Z</time></trkpt><trkpt lat="43.5455459" lon="10.8212802"><ele>110.0</ele><time>2026-04-18T06:41:08.45Z</time></trkpt><trkpt lat="43.5455182" lon="10.8211337"><ele>110.0</ele><time>2026-04-18T06:41:09.435Z</time></trkpt><trkpt lat="43.54549" lon="10.8209935"><ele>110.0</ele><time>2026-04-18T06:41:10.449Z</time></trkpt><trkpt lat="43.5454591" lon="10.8208584"><ele>109.8</ele><time>2026-04-18T06:41:11.451Z</time></trkpt><trkpt lat="43.5454272" lon="10.8207274"><ele>109.6</ele><time>2026-04-18T06:41:12.449Z</time></trkpt><trkpt lat="43.5453956" lon="10.8205968"><ele>109.4</ele><time>2026-04-18T06:41:13.462Z</time></trkpt><trkpt lat="43.5453528" lon="10.8204791"><ele>109.2</ele><time>2026-04-18T06:41:14.452Z</time></trkpt><trkpt lat="43.5453027" lon="10.8203816"><ele>109.0</ele><time>2026-04-18T06:41:15.455Z</time></trkpt><trkpt lat="43.5452355" lon="10.8202844"><ele>106.6</ele><time>2026-04-18T06:41:16.423Z</time></trkpt><trkpt lat="43.5451638" lon="10.8201914"><ele>104.2</ele><time>2026-04-18T06:41:17.46Z</time></trkpt><trkpt lat="43.5450873" lon="10.8201011"><ele>101.8</ele><time>2026-04-18T06:41:18.453Z</time></trkpt><trkpt lat="43.5450086" lon="10.8200084"><ele>99.39999999999999</ele><time>2026-04-18T06:41:19.447Z</time></trkpt><trkpt lat="43.5449324" lon="10.8199053"><ele>97.0</ele><time>2026-04-18T06:41:20.442Z</time></trkpt><trkpt lat="43.5447989" lon="10.8196629"><ele>97.0</ele><time>2026-04-18T06:41:22.324Z</time></trkpt><trkpt lat="43.5447458" lon="10.8195207"><ele>97.0</ele><time>2026-04-18T06:41:23.447Z</time></trkpt><trkpt lat="43.5447082" lon="10.819362"><ele>97.0</ele><time>2026-04-18T06:41:24.444Z</time></trkpt><trkpt lat="43.5446807" lon="10.8191975"><ele>97.0</ele><time>2026-04-18T06:41:25.441Z</time></trkpt><trkpt lat="43.5446565" lon="10.8190196"><ele>96.75</ele><time>2026-04-18T06:41:26.426Z</time></trkpt><trkpt lat="43.5446315" lon="10.8188298"><ele>96.5</ele><time>2026-04-18T06:41:27.448Z</time></trkpt><trkpt lat="43.544603" lon="10.8186314"><ele>96.25</ele><time>2026-04-18T06:41:28.451Z</time></trkpt><trkpt lat="43.5445773" lon="10.8184213"><ele>96.0</ele><time>2026-04-18T06:41:29.437Z</time></trkpt><trkpt lat="43.5445483" lon="10.8182247"><ele>92.75</ele><time>2026-04-18T06:41:30.446Z</time></trkpt><trkpt lat="43.5445236" lon="10.8180381"><ele>89.5</ele><time>2026-04-18T06:41:31.44Z</time></trkpt><trkpt lat="43.544493" lon="10.8178522"><ele>86.25</ele><time>2026-04-18T06:41:32.423Z</time></trkpt><trkpt lat="43.5444708" lon="10.8176691"><ele>83.0</ele><time>2026-04-18T06:41:33.442Z</time></trkpt><trkpt lat="43.5444485" lon="10.8174984"><ele>83.0</ele><time>2026-04-18T06:41:34.456Z</time></trkpt><trkpt lat="43.544427" lon="10.8173444"><ele>83.0</ele><time>2026-04-18T06:41:35.445Z</time></trkpt><trkpt lat="43.5443698" lon="10.8170938"><ele>83.0</ele><time>2026-04-18T06:41:37.32Z</time></trkpt><trkpt lat="43.5443247" lon="10.8169942"><ele>83.0</ele><time>2026-04-18T06:41:38.317Z</time></trkpt><trkpt lat="43.5442682" lon="10.8169096"><ele>83.0</ele><time>2026-04-18T06:41:39.451Z</time></trkpt><trkpt lat="43.5442012" lon="10.8168426"><ele>83.0</ele><time>2026-04-18T06:41:40.444Z</time></trkpt><trkpt lat="43.5441294" lon="10.8168037"><ele>83.0</ele><time>2026-04-18T06:41:41.456Z</time></trkpt><trkpt lat="43.5440539" lon="10.8167897"><ele>83.0</ele><time>2026-04-18T06:41:42.446Z</time></trkpt><trkpt lat="43.5439776" lon="10.8167911"><ele>83.0</ele><time>2026-04-18T06:41:43.444Z</time></trkpt><trkpt lat="43.5438945" lon="10.8168078"><ele>83.0</ele><time>2026-04-18T06:41:44.449Z</time></trkpt><trkpt lat="43.5438028" lon="10.8168391"><ele>82.0</ele><time>2026-04-18T06:41:45.452Z</time></trkpt><trkpt lat="43.5437013" lon="10.8168794"><ele>81.0</ele><time>2026-04-18T06:41:46.447Z</time></trkpt><trkpt lat="43.5434728" lon="10.81698"><ele>80.0</ele><time>2026-04-18T06:41:48.445Z</time></trkpt><trkpt lat="43.5432207" lon="10.8170962"><ele>80.0</ele><time>2026-04-18T06:41:50.407Z</time></trkpt><trkpt lat="43.5431001" lon="10.8171572"><ele>80.0</ele><time>2026-04-18T06:41:51.354Z</time></trkpt><trkpt lat="43.5429944" lon="10.8172147"><ele>80.0</ele><time>2026-04-18T06:41:52.321Z</time></trkpt><trkpt lat="43.5429045" lon="10.8172786"><ele>80.0</ele><time>2026-04-18T06:41:53.447Z</time></trkpt><trkpt lat="43.5428277" lon="10.8173553"><ele>80.0</ele><time>2026-04-18T06:41:54.446Z</time></trkpt><trkpt lat="43.5427204" lon="10.8175573"><ele>83.0</ele><time>2026-04-18T06:41:56.319Z</time></trkpt><trkpt lat="43.5426855" lon="10.8176852"><ele>86.0</ele><time>2026-04-18T06:41:57.444Z</time></trkpt><trkpt lat="43.5426399" lon="10.8179855"><ele>89.0</ele><time>2026-04-18T06:41:59.329Z</time></trkpt><trkpt lat="43.5426269" lon="10.8181546"><ele>92.0</ele><time>2026-04-18T06:42:00.389Z</time></trkpt><trkpt lat="43.5426179" lon="10.8183275"><ele>93.66666666666667</ele><time>2026-04-18T06:42:01.387Z</time></trkpt><trkpt lat="43.542606" lon="10.8185154"><ele>95.33333333333334</ele><time>2026-04-18T06:42:02.321Z</time></trkpt><trkpt lat="43.542596" lon="10.8187146"><ele>97.0</ele><time>2026-04-18T06:42:03.454Z</time></trkpt><trkpt lat="43.5425726" lon="10.8191333"><ele>98.33333333333334</ele><time>2026-04-18T06:42:05.323Z</time></trkpt><trkpt lat="43.5425589" lon="10.81936"><ele>99.66666666666666</ele><time>2026-04-18T06:42:06.463Z</time></trkpt><trkpt lat="43.542538" lon="10.819591"><ele>101.0</ele><time>2026-04-18T06:42:07.459Z</time></trkpt><trkpt lat="43.5425059" lon="10.8198235"><ele>102.5</ele><time>2026-04-18T06:42:08.442Z</time></trkpt><trkpt lat="43.5424158" lon="10.8203002"><ele>104.0</ele><time>2026-04-18T06:42:10.318Z</time></trkpt><trkpt lat="43.5423683" lon="10.8205137"><ele>104.0</ele><time>2026-04-18T06:42:11.322Z</time></trkpt><trkpt lat="43.5423148" lon="10.8207158"><ele>104.0</ele><time>2026-04-18T06:42:12.322Z</time></trkpt><trkpt lat="43.5422547" lon="10.820909"><ele>104.0</ele><time>2026-04-18T06:42:13.451Z</time></trkpt><trkpt lat="43.5421855" lon="10.8210938"><ele>104.0</ele><time>2026-04-18T06:42:14.452Z</time></trkpt><trkpt lat="43.5421069" lon="10.8212641"><ele>104.0</ele><time>2026-04-18T06:42:15.446Z</time></trkpt><trkpt lat="43.5420182" lon="10.8214298"><ele>104.0</ele><time>2026-04-18T06:42:16.458Z</time></trkpt><trkpt lat="43.5419353" lon="10.821593"><ele>104.0</ele><time>2026-04-18T06:42:17.445Z</time></trkpt><trkpt lat="43.5418723" lon="10.8217521"><ele>113.0</ele><time>2026-04-18T06:42:18.43Z</time></trkpt><trkpt lat="43.541795" lon="10.8220507"><ele>122.0</ele><time>2026-04-18T06:42:20.447Z</time></trkpt><trkpt lat="43.5417719" lon="10.8223557"><ele>122.0</ele><time>2026-04-18T06:42:22.321Z</time></trkpt><trkpt lat="43.5417685" lon="10.822529"><ele>122.0</ele><time>2026-04-18T06:42:23.321Z</time></trkpt><trkpt lat="43.5417603" lon="10.8226986"><ele>122.0</ele><time>2026-04-18T06:42:24.322Z</time></trkpt><trkpt lat="43.5417386" lon="10.8228684"><ele>122.0</ele><time>2026-04-18T06:42:25.326Z</time></trkpt><trkpt lat="43.5417018" lon="10.8230342"><ele>122.75</ele><time>2026-04-18T06:42:26.319Z</time></trkpt><trkpt lat="43.5416552" lon="10.8232075"><ele>123.5</ele><time>2026-04-18T06:42:27.321Z</time></trkpt><trkpt lat="43.5416049" lon="10.823388"><ele>124.25</ele><time>2026-04-18T06:42:28.319Z</time></trkpt><trkpt lat="43.5415503" lon="10.8235739"><ele>125.0</ele><time>2026-04-18T06:42:29.453Z</time></trkpt><trkpt lat="43.5414894" lon="10.8237666"><ele>125.0</ele><time>2026-04-18T06:42:30.433Z</time></trkpt><trkpt lat="43.5414292" lon="10.8239669"><ele>125.0</ele><time>2026-04-18T06:42:31.455Z</time></trkpt><trkpt lat="43.5413058" lon="10.8243473"><ele>124.0</ele><time>2026-04-18T06:42:33.321Z</time></trkpt><trkpt lat="43.5412401" lon="10.8245464"><ele>123.0</ele><time>2026-04-18T06:42:34.323Z</time></trkpt><trkpt lat="43.5411803" lon="10.8247366"><ele>122.0</ele><time>2026-04-18T06:42:35.321Z</time></trkpt><trkpt lat="43.5411281" lon="10.8249207"><ele>126.75</ele><time>2026-04-18T06:42:36.315Z</time></trkpt><trkpt lat="43.5410778" lon="10.8250995"><ele>131.5</ele><time>2026-04-18T06:42:37.322Z</time></trkpt><trkpt lat="43.54102" lon="10.8252939"><ele>136.25</ele><time>2026-04-18T06:42:38.32Z</time></trkpt><trkpt lat="43.5409633" lon="10.8254881"><ele>141.0</ele><time>2026-04-18T06:42:39.318Z</time></trkpt><trkpt lat="43.540911" lon="10.8256742"><ele>141.0</ele><time>2026-04-18T06:42:40.321Z</time></trkpt><trkpt lat="43.5408632" lon="10.8258522"><ele>141.0</ele><time>2026-04-18T06:42:41.321Z</time></trkpt><trkpt lat="43.5408183" lon="10.8260374"><ele>141.0</ele><time>2026-04-18T06:42:42.316Z</time></trkpt><trkpt lat="43.5407728" lon="10.8262096"><ele>141.0</ele><time>2026-04-18T06:42:43.324Z</time></trkpt><trkpt lat="43.5407292" lon="10.8263806"><ele>141.0</ele><time>2026-04-18T06:42:44.322Z</time></trkpt><trkpt lat="43.540685" lon="10.8265521"><ele>141.0</ele><time>2026-04-18T06:42:45.318Z</time></trkpt><trkpt lat="43.5406413" lon="10.8267187"><ele>141.0</ele><time>2026-04-18T06:42:46.326Z</time></trkpt><trkpt lat="43.540595" lon="10.8268869"><ele>141.0</ele><time>2026-04-18T06:42:47.318Z</time></trkpt><trkpt lat="43.5405474" lon="10.8270551"><ele>141.0</ele><time>2026-04-18T06:42:48.319Z</time></trkpt><trkpt lat="43.5404959" lon="10.8272235"><ele>141.0</ele><time>2026-04-18T06:42:49.314Z</time></trkpt><trkpt lat="43.540438" lon="10.8273822"><ele>141.0</ele><time>2026-04-18T06:42:50.319Z</time></trkpt><trkpt lat="43.5403742" lon="10.8275291"><ele>141.0</ele><time>2026-04-18T06:42:51.318Z</time></trkpt><trkpt lat="43.5403168" lon="10.8276552"><ele>142.66666666666666</ele><time>2026-04-18T06:42:52.316Z</time></trkpt><trkpt lat="43.5402526" lon="10.82777"><ele>144.33333333333334</ele><time>2026-04-18T06:42:53.322Z</time></trkpt><trkpt lat="43.5401982" lon="10.8278707"><ele>146.0</ele><time>2026-04-18T06:42:54.327Z</time></trkpt><trkpt lat="43.5401488" lon="10.827956"><ele>147.66666666666669</ele><time>2026-04-18T06:42:55.318Z</time></trkpt><trkpt lat="43.5401009" lon="10.8280408"><ele>149.33333333333334</ele><time>2026-04-18T06:42:56.32Z</time></trkpt><trkpt lat="43.5400671" lon="10.8281229"><ele>151.0</ele><time>2026-04-18T06:42:57.317Z</time></trkpt><trkpt lat="43.5400435" lon="10.8282145"><ele>151.0</ele><time>2026-04-18T06:42:58.32Z</time></trkpt><trkpt lat="43.5400359" lon="10.8283172"><ele>151.0</ele><time>2026-04-18T06:42:59.317Z</time></trkpt><trkpt lat="43.5400342" lon="10.8284395"><ele>151.0</ele><time>2026-04-18T06:43:00.319Z</time></trkpt><trkpt lat="43.5400416" lon="10.8285736"><ele>151.0</ele><time>2026-04-18T06:43:01.319Z</time></trkpt><trkpt lat="43.5400594" lon="10.828728"><ele>151.0</ele><time>2026-04-18T06:43:02.317Z</time></trkpt><trkpt lat="43.5400805" lon="10.8288997"><ele>151.25</ele><time>2026-04-18T06:43:03.322Z</time></trkpt><trkpt lat="43.5401056" lon="10.8290854"><ele>151.5</ele><time>2026-04-18T06:43:04.318Z</time></trkpt><trkpt lat="43.5401335" lon="10.8292791"><ele>151.75</ele><time>2026-04-18T06:43:05.32Z</time></trkpt><trkpt lat="43.5401646" lon="10.8294843"><ele>152.0</ele><time>2026-04-18T06:43:06.319Z</time></trkpt><trkpt lat="43.5401946" lon="10.8296915"><ele>152.33333333333331</ele><time>2026-04-18T06:43:07.319Z</time></trkpt><trkpt lat="43.540221" lon="10.8299057"><ele>152.66666666666666</ele><time>2026-04-18T06:43:08.322Z</time></trkpt><trkpt lat="43.5402417" lon="10.8301247"><ele>153.0</ele><time>2026-04-18T06:43:09.317Z</time></trkpt><trkpt lat="43.5402562" lon="10.8303457"><ele>154.33333333333334</ele><time>2026-04-18T06:43:10.32Z</time></trkpt><trkpt lat="43.5402608" lon="10.8305703"><ele>155.66666666666669</ele><time>2026-04-18T06:43:11.312Z</time></trkpt><trkpt lat="43.5402572" lon="10.8307916"><ele>157.0</ele><time>2026-04-18T06:43:12.322Z</time></trkpt><trkpt lat="43.5402457" lon="10.8310203"><ele>158.66666666666669</ele><time>2026-04-18T06:43:13.316Z</time></trkpt><trkpt lat="43.5402338" lon="10.8312413"><ele>160.33333333333334</ele><time>2026-04-18T06:43:14.322Z</time></trkpt><trkpt lat="43.5402215" lon="10.8314614"><ele>162.0</ele><time>2026-04-18T06:43:15.322Z</time></trkpt><trkpt lat="43.5402144" lon="10.8316691"><ele>163.0</ele><time>2026-04-18T06:43:16.315Z</time></trkpt><trkpt lat="43.5402067" lon="10.8318673"><ele>164.0</ele><time>2026-04-18T06:43:17.326Z</time></trkpt><trkpt lat="43.5402073" lon="10.8320427"><ele>165.0</ele><time>2026-04-18T06:43:18.319Z</time></trkpt><trkpt lat="43.5402157" lon="10.8321942"><ele>166.0</ele><time>2026-04-18T06:43:19.32Z</time></trkpt><trkpt lat="43.5402352" lon="10.8323318"><ele>166.0</ele><time>2026-04-18T06:43:20.32Z</time></trkpt><trkpt lat="43.5402573" lon="10.8324792"><ele>166.0</ele><time>2026-04-18T06:43:21.322Z</time></trkpt><trkpt lat="43.5402845" lon="10.8326188"><ele>166.0</ele><time>2026-04-18T06:43:22.322Z</time></trkpt><trkpt lat="43.5403102" lon="10.8327462"><ele>166.0</ele><time>2026-04-18T06:43:23.319Z</time></trkpt><trkpt lat="43.5403324" lon="10.8328725"><ele>166.0</ele><time>2026-04-18T06:43:24.323Z</time></trkpt><trkpt lat="43.5403474" lon="10.8329976"><ele>165.4</ele><time>2026-04-18T06:43:25.323Z</time></trkpt><trkpt lat="43.5403537" lon="10.8331209"><ele>164.8</ele><time>2026-04-18T06:43:26.323Z</time></trkpt><trkpt lat="43.540357" lon="10.8332331"><ele>164.20000000000002</ele><time>2026-04-18T06:43:27.306Z</time></trkpt><trkpt lat="43.5403595" lon="10.8333573"><ele>163.60000000000002</ele><time>2026-04-18T06:43:28.322Z</time></trkpt><trkpt lat="43.5403587" lon="10.8334944"><ele>163.0</ele><time>2026-04-18T06:43:29.315Z</time></trkpt><trkpt lat="43.5403541" lon="10.8336409"><ele>162.25</ele><time>2026-04-18T06:43:30.319Z</time></trkpt><trkpt lat="43.5403465" lon="10.8337936"><ele>161.5</ele><time>2026-04-18T06:43:31.322Z</time></trkpt><trkpt lat="43.5403421" lon="10.8339517"><ele>160.75</ele><time>2026-04-18T06:43:32.326Z</time></trkpt><trkpt lat="43.5403353" lon="10.8341141"><ele>160.0</ele><time>2026-04-18T06:43:33.321Z</time></trkpt><trkpt lat="43.5403303" lon="10.8342746"><ele>160.25</ele><time>2026-04-18T06:43:34.32Z</time></trkpt><trkpt lat="43.5403262" lon="10.8344513"><ele>160.5</ele><time>2026-04-18T06:43:35.32Z</time></trkpt><trkpt lat="43.5403227" lon="10.8346365"><ele>160.75</ele><time>2026-04-18T06:43:36.322Z</time></trkpt><trkpt lat="43.5403172" lon="10.8348266"><ele>161.0</ele><time>2026-04-18T06:43:37.32Z</time></trkpt><trkpt lat="43.540308" lon="10.8350212"><ele>160.75</ele><time>2026-04-18T06:43:38.32Z</time></trkpt><trkpt lat="43.5402964" lon="10.8352218"><ele>160.5</ele><time>2026-04-18T06:43:39.321Z</time></trkpt><trkpt lat="43.5402826" lon="10.8354156"><ele>160.25</ele><time>2026-04-18T06:43:40.326Z</time></trkpt><trkpt lat="43.5402735" lon="10.8356001"><ele>160.0</ele><time>2026-04-18T06:43:41.326Z</time></trkpt><trkpt lat="43.5402646" lon="10.8357838"><ele>160.0</ele><time>2026-04-18T06:43:42.321Z</time></trkpt><trkpt lat="43.5402559" lon="10.8359677"><ele>160.0</ele><time>2026-04-18T06:43:43.322Z</time></trkpt><trkpt lat="43.5402476" lon="10.8361444"><ele>160.0</ele><time>2026-04-18T06:43:44.322Z</time></trkpt><trkpt lat="43.5402402" lon="10.836324"><ele>160.0</ele><time>2026-04-18T06:43:45.328Z</time></trkpt><trkpt lat="43.5402323" lon="10.8365095"><ele>159.25</ele><time>2026-04-18T06:43:46.321Z</time></trkpt><trkpt lat="43.5402293" lon="10.836691"><ele>158.5</ele><time>2026-04-18T06:43:47.324Z</time></trkpt><trkpt lat="43.5402309" lon="10.8368671"><ele>157.75</ele><time>2026-04-18T06:43:48.325Z</time></trkpt><trkpt lat="43.5402385" lon="10.8370458"><ele>157.0</ele><time>2026-04-18T06:43:49.324Z</time></trkpt><trkpt lat="43.5402524" lon="10.8372344"><ele>157.0</ele><time>2026-04-18T06:43:50.318Z</time></trkpt><trkpt lat="43.5402743" lon="10.8374262"><ele>157.0</ele><time>2026-04-18T06:43:51.322Z</time></trkpt><trkpt lat="43.5402998" lon="10.8376205"><ele>157.0</ele><time>2026-04-18T06:43:52.451Z</time></trkpt><trkpt lat="43.5403299" lon="10.8378167"><ele>157.0</ele><time>2026-04-18T06:43:53.451Z</time></trkpt><trkpt lat="43.5403986" lon="10.838206"><ele>157.5</ele><time>2026-04-18T06:43:55.4Z</time></trkpt><trkpt lat="43.540433" lon="10.8383996"><ele>158.0</ele><time>2026-04-18T06:43:56.444Z</time></trkpt><trkpt lat="43.5404694" lon="10.8385894"><ele>158.5</ele><time>2026-04-18T06:43:57.433Z</time></trkpt><trkpt lat="43.5405031" lon="10.8387698"><ele>159.0</ele><time>2026-04-18T06:43:58.455Z</time></trkpt><trkpt lat="43.5405326" lon="10.8389489"><ele>161.25</ele><time>2026-04-18T06:43:59.468Z</time></trkpt><trkpt lat="43.540598" lon="10.8392686"><ele>163.5</ele><time>2026-04-18T06:44:01.438Z</time></trkpt><trkpt lat="43.540626" lon="10.8394196"><ele>165.75</ele><time>2026-04-18T06:44:02.45Z</time></trkpt><trkpt lat="43.5406524" lon="10.8395455"><ele>168.0</ele><time>2026-04-18T06:44:03.47Z</time></trkpt><trkpt lat="43.5406563" lon="10.83968"><ele>169.75</ele><time>2026-04-18T06:44:05.452Z</time></trkpt><trkpt lat="43.5405068" lon="10.8396249"><ele>171.5</ele><time>2026-04-18T06:44:09.446Z</time></trkpt><trkpt lat="43.5404258" lon="10.8395896"><ele>173.25</ele><time>2026-04-18T06:44:10.443Z</time></trkpt><trkpt lat="43.5403507" lon="10.8395778"><ele>175.0</ele><time>2026-04-18T06:44:11.463Z</time></trkpt><trkpt lat="43.5402154" lon="10.8395454"><ele>175.16666666666669</ele><time>2026-04-18T06:44:13.316Z</time></trkpt><trkpt lat="43.5401484" lon="10.8395121"><ele>175.33333333333334</ele><time>2026-04-18T06:44:14.317Z</time></trkpt><trkpt lat="43.5400754" lon="10.8394574"><ele>175.5</ele><time>2026-04-18T06:44:15.316Z</time></trkpt><trkpt lat="43.5399988" lon="10.8393972"><ele>175.66666666666666</ele><time>2026-04-18T06:44:16.323Z</time></trkpt><trkpt lat="43.5399215" lon="10.839331"><ele>175.83333333333331</ele><time>2026-04-18T06:44:17.324Z</time></trkpt><trkpt lat="43.5398465" lon="10.8392701"><ele>176.0</ele><time>2026-04-18T06:44:18.32Z</time></trkpt><trkpt lat="43.5397753" lon="10.8392116"><ele>174.8</ele><time>2026-04-18T06:44:19.468Z</time></trkpt><trkpt lat="43.5397102" lon="10.8391537"><ele>173.60000000000002</ele><time>2026-04-18T06:44:20.458Z</time></trkpt><trkpt lat="43.5396086" lon="10.8390689"><ele>172.4</ele><time>2026-04-18T06:44:22.317Z</time></trkpt><trkpt lat="43.5395539" lon="10.8390192"><ele>171.2</ele><time>2026-04-18T06:44:24.406Z</time></trkpt><trkpt lat="43.5394021" lon="10.8389163"><ele>170.0</ele><time>2026-04-18T06:45:57.449Z</time></trkpt><trkpt lat="43.5392966" lon="10.8388276"><ele>169.85714285714286</ele><time>2026-04-18T06:45:59.321Z</time></trkpt><trkpt lat="43.5392411" lon="10.8387827"><ele>169.7142857142857</ele><time>2026-04-18T06:46:00.321Z</time></trkpt><trkpt lat="43.5391844" lon="10.8387351"><ele>169.57142857142856</ele><time>2026-04-18T06:46:01.323Z</time></trkpt><trkpt lat="43.5391272" lon="10.8386825"><ele>169.42857142857144</ele><time>2026-04-18T06:46:02.323Z</time></trkpt><trkpt lat="43.539071" lon="10.8386285"><ele>169.28571428571428</ele><time>2026-04-18T06:46:03.326Z</time></trkpt><trkpt lat="43.5390005" lon="10.838565"><ele>169.14285714285714</ele><time>2026-04-18T06:46:04.325Z</time></trkpt><trkpt lat="43.5389268" lon="10.8384987"><ele>169.0</ele><time>2026-04-18T06:46:05.444Z</time></trkpt><trkpt lat="43.5387755" lon="10.8383905"><ele>168.0</ele><time>2026-04-18T06:46:07.323Z</time></trkpt><trkpt lat="43.53869" lon="10.8383271"><ele>167.0</ele><time>2026-04-18T06:46:08.444Z</time></trkpt><trkpt lat="43.5386019" lon="10.8382558"><ele>166.0</ele><time>2026-04-18T06:46:09.457Z</time></trkpt><trkpt lat="43.5385182" lon="10.8381884"><ele>165.0</ele><time>2026-04-18T06:46:10.458Z</time></trkpt><trkpt lat="43.5383822" lon="10.8380675"><ele>165.0</ele><time>2026-04-18T06:46:12.323Z</time></trkpt><trkpt lat="43.5383176" lon="10.8380116"><ele>165.0</ele><time>2026-04-18T06:46:13.438Z</time></trkpt><trkpt lat="43.5382502" lon="10.8379525"><ele>165.0</ele><time>2026-04-18T06:46:14.452Z</time></trkpt><trkpt lat="43.5381796" lon="10.8378989"><ele>165.0</ele><time>2026-04-18T06:46:15.454Z</time></trkpt><trkpt lat="43.5381039" lon="10.83783"><ele>165.0</ele><time>2026-04-18T06:46:16.44Z</time></trkpt><trkpt lat="43.5379537" lon="10.8376949"><ele>165.0</ele><time>2026-04-18T06:46:18.323Z</time></trkpt><trkpt lat="43.5378921" lon="10.8376393"><ele>165.0</ele><time>2026-04-18T06:46:19.321Z</time></trkpt><trkpt lat="43.5377799" lon="10.8375421"><ele>165.0</ele><time>2026-04-18T06:46:21.308Z</time></trkpt><trkpt lat="43.5377224" lon="10.8374832"><ele>165.0</ele><time>2026-04-18T06:46:22.312Z</time></trkpt><trkpt lat="43.5376541" lon="10.837432"><ele>165.0</ele><time>2026-04-18T06:46:23.322Z</time></trkpt><trkpt lat="43.5375697" lon="10.8373831"><ele>165.0</ele><time>2026-04-18T06:46:24.319Z</time></trkpt><trkpt lat="43.5374726" lon="10.8373383"><ele>164.5</ele><time>2026-04-18T06:46:25.317Z</time></trkpt><trkpt lat="43.5373808" lon="10.8373132"><ele>164.0</ele><time>2026-04-18T06:46:26.316Z</time></trkpt><trkpt lat="43.5372915" lon="10.8372842"><ele>163.5</ele><time>2026-04-18T06:46:27.313Z</time></trkpt><trkpt lat="43.5372034" lon="10.8372573"><ele>163.0</ele><time>2026-04-18T06:46:28.324Z</time></trkpt><trkpt lat="43.5371185" lon="10.8372301"><ele>162.5</ele><time>2026-04-18T06:46:29.32Z</time></trkpt><trkpt lat="43.5370369" lon="10.8371933"><ele>162.0</ele><time>2026-04-18T06:46:30.323Z</time></trkpt><trkpt lat="43.5369593" lon="10.837136"><ele>162.0</ele><time>2026-04-18T06:46:31.315Z</time></trkpt><trkpt lat="43.5368842" lon="10.8370543"><ele>162.0</ele><time>2026-04-18T06:46:32.317Z</time></trkpt><trkpt lat="43.5368015" lon="10.8369788"><ele>162.0</ele><time>2026-04-18T06:46:33.315Z</time></trkpt><trkpt lat="43.5367134" lon="10.8369122"><ele>162.0</ele><time>2026-04-18T06:46:34.315Z</time></trkpt><trkpt lat="43.5366288" lon="10.8368529"><ele>162.0</ele><time>2026-04-18T06:46:35.319Z</time></trkpt><trkpt lat="43.5365391" lon="10.8367873"><ele>161.16666666666666</ele><time>2026-04-18T06:46:36.319Z</time></trkpt><trkpt lat="43.536456" lon="10.8367117"><ele>160.33333333333334</ele><time>2026-04-18T06:46:37.315Z</time></trkpt><trkpt lat="43.5363743" lon="10.8366273"><ele>159.5</ele><time>2026-04-18T06:46:38.315Z</time></trkpt><trkpt lat="43.5363069" lon="10.8365458"><ele>158.66666666666669</ele><time>2026-04-18T06:46:39.322Z</time></trkpt><trkpt lat="43.5362562" lon="10.8364871"><ele>157.83333333333334</ele><time>2026-04-18T06:46:40.32Z</time></trkpt><trkpt lat="43.5361814" lon="10.8364171"><ele>157.0</ele><time>2026-04-18T06:46:42.317Z</time></trkpt><trkpt lat="43.5360709" lon="10.8363442"><ele>158.0</ele><time>2026-04-18T06:46:44.314Z</time></trkpt><trkpt lat="43.5359846" lon="10.8362998"><ele>159.0</ele><time>2026-04-18T06:46:45.323Z</time></trkpt><trkpt lat="43.535911" lon="10.8362446"><ele>160.0</ele><time>2026-04-18T06:46:46.321Z</time></trkpt><trkpt lat="43.5358446" lon="10.8361672"><ele>161.0</ele><time>2026-04-18T06:46:47.318Z</time></trkpt><trkpt lat="43.5357722" lon="10.836073"><ele>162.0</ele><time>2026-04-18T06:46:48.321Z</time></trkpt><trkpt lat="43.5356903" lon="10.835953"><ele>162.0</ele><time>2026-04-18T06:46:49.319Z</time></trkpt><trkpt lat="43.5355967" lon="10.8358136"><ele>162.0</ele><time>2026-04-18T06:46:50.303Z</time></trkpt><trkpt lat="43.5355124" lon="10.8356896"><ele>162.0</ele><time>2026-04-18T06:46:51.307Z</time></trkpt><trkpt lat="43.535423" lon="10.8355801"><ele>162.0</ele><time>2026-04-18T06:46:52.313Z</time></trkpt><trkpt lat="43.53533" lon="10.835477"><ele>163.6</ele><time>2026-04-18T06:46:53.319Z</time></trkpt><trkpt lat="43.5352281" lon="10.8353812"><ele>165.2</ele><time>2026-04-18T06:46:54.312Z</time></trkpt><trkpt lat="43.5351387" lon="10.8353207"><ele>166.8</ele><time>2026-04-18T06:46:55.314Z</time></trkpt><trkpt lat="43.5350653" lon="10.8352616"><ele>168.4</ele><time>2026-04-18T06:46:56.324Z</time></trkpt><trkpt lat="43.5350011" lon="10.8351919"><ele>170.0</ele><time>2026-04-18T06:46:57.317Z</time></trkpt><trkpt lat="43.5349495" lon="10.8351235"><ele>170.0</ele><time>2026-04-18T06:46:58.321Z</time></trkpt><trkpt lat="43.5349077" lon="10.8350347"><ele>170.0</ele><time>2026-04-18T06:46:59.323Z</time></trkpt><trkpt lat="43.5348611" lon="10.8349148"><ele>170.0</ele><time>2026-04-18T06:47:00.316Z</time></trkpt><trkpt lat="43.5348097" lon="10.8347852"><ele>170.0</ele><time>2026-04-18T06:47:01.319Z</time></trkpt><trkpt lat="43.5347623" lon="10.8346745"><ele>170.0</ele><time>2026-04-18T06:47:02.316Z</time></trkpt><trkpt lat="43.5347077" lon="10.8345654"><ele>170.0</ele><time>2026-04-18T06:47:03.319Z</time></trkpt><trkpt lat="43.5346468" lon="10.8344724"><ele>170.0</ele><time>2026-04-18T06:47:04.315Z</time></trkpt><trkpt lat="43.5345743" lon="10.834374"><ele>170.0</ele><time>2026-04-18T06:47:05.323Z</time></trkpt><trkpt lat="43.5344998" lon="10.8342786"><ele>170.0</ele><time>2026-04-18T06:47:06.424Z</time></trkpt><trkpt lat="43.5344302" lon="10.8341914"><ele>170.0</ele><time>2026-04-18T06:47:07.441Z</time></trkpt><trkpt lat="43.5343637" lon="10.8341184"><ele>170.33333333333331</ele><time>2026-04-18T06:47:08.448Z</time></trkpt><trkpt lat="43.5343001" lon="10.834054"><ele>170.66666666666666</ele><time>2026-04-18T06:47:09.442Z</time></trkpt><trkpt lat="43.5342363" lon="10.8339926"><ele>171.0</ele><time>2026-04-18T06:47:10.41Z</time></trkpt><trkpt lat="43.5341593" lon="10.833933"><ele>171.33333333333334</ele><time>2026-04-18T06:47:11.439Z</time></trkpt><trkpt lat="43.5340729" lon="10.8338606"><ele>171.66666666666669</ele><time>2026-04-18T06:47:12.432Z</time></trkpt><trkpt lat="43.5339888" lon="10.8337844"><ele>172.0</ele><time>2026-04-18T06:47:13.414Z</time></trkpt><trkpt lat="43.5339199" lon="10.8336938"><ele>172.0</ele><time>2026-04-18T06:47:14.417Z</time></trkpt><trkpt lat="43.5337968" lon="10.8334915"><ele>172.0</ele><time>2026-04-18T06:47:16.317Z</time></trkpt><trkpt lat="43.5337324" lon="10.8333843"><ele>172.0</ele><time>2026-04-18T06:47:17.318Z</time></trkpt><trkpt lat="43.5336652" lon="10.8332628"><ele>172.0</ele><time>2026-04-18T06:47:18.318Z</time></trkpt><trkpt lat="43.5335846" lon="10.8331222"><ele>171.5</ele><time>2026-04-18T06:47:19.322Z</time></trkpt><trkpt lat="43.5335107" lon="10.8329866"><ele>171.0</ele><time>2026-04-18T06:47:20.321Z</time></trkpt><trkpt lat="43.533447" lon="10.8328402"><ele>170.5</ele><time>2026-04-18T06:47:21.323Z</time></trkpt><trkpt lat="43.5333954" lon="10.8327053"><ele>170.0</ele><time>2026-04-18T06:47:22.466Z</time></trkpt><trkpt lat="43.5333466" lon="10.8325875"><ele>170.0</ele><time>2026-04-18T06:47:23.451Z</time></trkpt><trkpt lat="43.5332884" lon="10.8324677"><ele>170.0</ele><time>2026-04-18T06:47:24.457Z</time></trkpt><trkpt lat="43.5332253" lon="10.8323651"><ele>170.0</ele><time>2026-04-18T06:47:25.45Z</time></trkpt><trkpt lat="43.5331523" lon="10.8322596"><ele>170.0</ele><time>2026-04-18T06:47:26.444Z</time></trkpt><trkpt lat="43.5330733" lon="10.8321482"><ele>170.0</ele><time>2026-04-18T06:47:27.397Z</time></trkpt><trkpt lat="43.5330003" lon="10.8320296"><ele>170.0</ele><time>2026-04-18T06:47:28.325Z</time></trkpt><trkpt lat="43.5329345" lon="10.8319072"><ele>170.0</ele><time>2026-04-18T06:47:29.32Z</time></trkpt><trkpt lat="43.5328701" lon="10.8317804"><ele>170.0</ele><time>2026-04-18T06:47:30.307Z</time></trkpt><trkpt lat="43.5328079" lon="10.8316546"><ele>170.0</ele><time>2026-04-18T06:47:31.32Z</time></trkpt><trkpt lat="43.5327397" lon="10.8315203"><ele>170.0</ele><time>2026-04-18T06:47:32.317Z</time></trkpt><trkpt lat="43.5326758" lon="10.8313949"><ele>170.0</ele><time>2026-04-18T06:47:33.309Z</time></trkpt><trkpt lat="43.5326098" lon="10.8312944"><ele>170.0</ele><time>2026-04-18T06:47:34.31Z</time></trkpt><trkpt lat="43.5325304" lon="10.8311974"><ele>170.0</ele><time>2026-04-18T06:47:35.318Z</time></trkpt><trkpt lat="43.5324377" lon="10.8311064"><ele>170.0</ele><time>2026-04-18T06:47:36.318Z</time></trkpt><trkpt lat="43.5323385" lon="10.8310255"><ele>171.75</ele><time>2026-04-18T06:47:37.323Z</time></trkpt><trkpt lat="43.5322357" lon="10.8309598"><ele>173.5</ele><time>2026-04-18T06:47:38.322Z</time></trkpt><trkpt lat="43.5321247" lon="10.8308992"><ele>175.25</ele><time>2026-04-18T06:47:39.318Z</time></trkpt><trkpt lat="43.5320104" lon="10.8308381"><ele>177.0</ele><time>2026-04-18T06:47:40.446Z</time></trkpt><trkpt lat="43.5318962" lon="10.8307744"><ele>178.0</ele><time>2026-04-18T06:47:41.439Z</time></trkpt><trkpt lat="43.5317734" lon="10.8307084"><ele>179.0</ele><time>2026-04-18T06:47:42.348Z</time></trkpt><trkpt lat="43.5316567" lon="10.8306437"><ele>180.0</ele><time>2026-04-18T06:47:43.431Z</time></trkpt><trkpt lat="43.5315438" lon="10.8305795"><ele>181.0</ele><time>2026-04-18T06:47:44.408Z</time></trkpt><trkpt lat="43.5314386" lon="10.8305234"><ele>181.0</ele><time>2026-04-18T06:47:45.439Z</time></trkpt><trkpt lat="43.5313509" lon="10.8304754"><ele>181.0</ele><time>2026-04-18T06:47:46.45Z</time></trkpt><trkpt lat="43.5312678" lon="10.8304261"><ele>181.0</ele><time>2026-04-18T06:47:47.437Z</time></trkpt><trkpt lat="43.5311938" lon="10.830365"><ele>181.0</ele><time>2026-04-18T06:47:48.434Z</time></trkpt><trkpt lat="43.5311264" lon="10.8302955"><ele>181.0</ele><time>2026-04-18T06:47:49.414Z</time></trkpt><trkpt lat="43.5310759" lon="10.830215"><ele>181.0</ele><time>2026-04-18T06:47:50.414Z</time></trkpt><trkpt lat="43.5310428" lon="10.8301158"><ele>180.4</ele><time>2026-04-18T06:47:51.434Z</time></trkpt><trkpt lat="43.5310176" lon="10.8300158"><ele>179.8</ele><time>2026-04-18T06:47:52.405Z</time></trkpt><trkpt lat="43.5310024" lon="10.8299107"><ele>179.20000000000002</ele><time>2026-04-18T06:47:53.421Z</time></trkpt><trkpt lat="43.530975" lon="10.8296936"><ele>178.60000000000002</ele><time>2026-04-18T06:47:55.422Z</time></trkpt><trkpt lat="43.5309635" lon="10.8295854"><ele>178.0</ele><time>2026-04-18T06:47:56.409Z</time></trkpt><trkpt lat="43.5309505" lon="10.8294794"><ele>178.0</ele><time>2026-04-18T06:47:57.417Z</time></trkpt><trkpt lat="43.5309344" lon="10.8293751"><ele>178.0</ele><time>2026-04-18T06:47:58.417Z</time></trkpt><trkpt lat="43.5309168" lon="10.8292581"><ele>178.0</ele><time>2026-04-18T06:47:59.369Z</time></trkpt><trkpt lat="43.5308896" lon="10.8291465"><ele>178.0</ele><time>2026-04-18T06:48:00.424Z</time></trkpt><trkpt lat="43.5308559" lon="10.8290344"><ele>178.0</ele><time>2026-04-18T06:48:02.359Z</time></trkpt><trkpt lat="43.5307685" lon="10.8288316"><ele>177.33333333333334</ele><time>2026-04-18T06:48:03.431Z</time></trkpt><trkpt lat="43.5306263" lon="10.8285897"><ele>176.66666666666666</ele><time>2026-04-18T06:48:05.324Z</time></trkpt><trkpt lat="43.5305433" lon="10.8284691"><ele>176.0</ele><time>2026-04-18T06:48:06.423Z</time></trkpt><trkpt lat="43.5304629" lon="10.8283534"><ele>174.0</ele><time>2026-04-18T06:48:07.438Z</time></trkpt><trkpt lat="43.530309" lon="10.8281579"><ele>172.0</ele><time>2026-04-18T06:48:09.425Z</time></trkpt><trkpt lat="43.5302402" lon="10.8280705"><ele>170.0</ele><time>2026-04-18T06:48:10.447Z</time></trkpt><trkpt lat="43.5301765" lon="10.8279902"><ele>168.0</ele><time>2026-04-18T06:48:11.444Z</time></trkpt><trkpt lat="43.5301283" lon="10.827927"><ele>168.0</ele><time>2026-04-18T06:48:12.437Z</time></trkpt><trkpt lat="43.5300767" lon="10.8278471"><ele>168.0</ele><time>2026-04-18T06:48:14.416Z</time></trkpt><trkpt lat="43.5300475" lon="10.8277517"><ele>168.0</ele><time>2026-04-18T06:48:25.318Z</time></trkpt><trkpt lat="43.5300183" lon="10.8276727"><ele>168.0</ele><time>2026-04-18T06:48:28.324Z</time></trkpt><trkpt lat="43.5299739" lon="10.8275804"><ele>168.0</ele><time>2026-04-18T06:48:31.323Z</time></trkpt><trkpt lat="43.5299049" lon="10.8274593"><ele>168.0</ele><time>2026-04-18T06:48:35.323Z</time></trkpt><trkpt lat="43.5298552" lon="10.8274017"><ele>168.0</ele><time>2026-04-18T06:48:37.427Z</time></trkpt><trkpt lat="43.5298054" lon="10.8273357"><ele>168.0</ele><time>2026-04-18T06:48:39.325Z</time></trkpt><trkpt lat="43.5297607" lon="10.8272594"><ele>168.0</ele><time>2026-04-18T06:48:41.436Z</time></trkpt><trkpt lat="43.5297189" lon="10.8271757"><ele>168.0</ele><time>2026-04-18T06:48:43.443Z</time></trkpt><trkpt lat="43.529667" lon="10.8270798"><ele>168.0</ele><time>2026-04-18T06:48:46.331Z</time></trkpt><trkpt lat="43.5296157" lon="10.8269921"><ele>168.0</ele><time>2026-04-18T06:48:49.323Z</time></trkpt><trkpt lat="43.5295539" lon="10.8269023"><ele>167.8</ele><time>2026-04-18T06:48:52.409Z</time></trkpt><trkpt lat="43.5295044" lon="10.8268299"><ele>167.60000000000002</ele><time>2026-04-18T06:48:54.318Z</time></trkpt><trkpt lat="43.5294325" lon="10.8267226"><ele>167.39999999999998</ele><time>2026-04-18T06:48:56.325Z</time></trkpt><trkpt lat="43.5293668" lon="10.826597"><ele>167.2</ele><time>2026-04-18T06:48:58.323Z</time></trkpt><trkpt lat="43.5292938" lon="10.8264442"><ele>167.0</ele><time>2026-04-18T06:49:00.328Z</time></trkpt><trkpt lat="43.5292492" lon="10.8263524"><ele>164.6</ele><time>2026-04-18T06:49:01.325Z</time></trkpt><trkpt lat="43.5291952" lon="10.8262424"><ele>162.2</ele><time>2026-04-18T06:49:02.316Z</time></trkpt><trkpt lat="43.5291348" lon="10.8261284"><ele>159.8</ele><time>2026-04-18T06:49:03.322Z</time></trkpt><trkpt lat="43.5290809" lon="10.8260252"><ele>157.4</ele><time>2026-04-18T06:49:04.427Z</time></trkpt><trkpt lat="43.5290313" lon="10.825925"><ele>155.0</ele><time>2026-04-18T06:49:05.437Z</time></trkpt><trkpt lat="43.5289585" lon="10.8257356"><ele>152.6</ele><time>2026-04-18T06:49:07.445Z</time></trkpt><trkpt lat="43.5289196" lon="10.8256122"><ele>150.2</ele><time>2026-04-18T06:49:08.444Z</time></trkpt><trkpt lat="43.528884" lon="10.8254902"><ele>147.8</ele><time>2026-04-18T06:49:09.414Z</time></trkpt><trkpt lat="43.5288315" lon="10.8252829"><ele>145.4</ele><time>2026-04-18T06:49:11.318Z</time></trkpt><trkpt lat="43.5288047" lon="10.8251551"><ele>143.0</ele><time>2026-04-18T06:49:13.316Z</time></trkpt><trkpt lat="43.5287856" lon="10.8250611"><ele>142.0</ele><time>2026-04-18T06:49:15.322Z</time></trkpt><trkpt lat="43.5287675" lon="10.8249696"><ele>141.0</ele><time>2026-04-18T06:49:18.416Z</time></trkpt><trkpt lat="43.528742" lon="10.8248413"><ele>140.0</ele><time>2026-04-18T06:49:22.422Z</time></trkpt><trkpt lat="43.5287075" lon="10.8246935"><ele>139.0</ele><time>2026-04-18T06:49:24.419Z</time></trkpt><trkpt lat="43.5286801" lon="10.8245753"><ele>138.0</ele><time>2026-04-18T06:49:26.423Z</time></trkpt><trkpt lat="43.5286561" lon="10.8244919"><ele>137.0</ele><time>2026-04-18T06:49:28.44Z</time></trkpt><trkpt lat="43.5286222" lon="10.8243728"><ele>136.79999999999998</ele><time>2026-04-18T06:49:32.323Z</time></trkpt><trkpt lat="43.528593" lon="10.82428"><ele>136.6</ele><time>2026-04-18T06:49:35.439Z</time></trkpt><trkpt lat="43.5285629" lon="10.8241826"><ele>136.39999999999998</ele><time>2026-04-18T06:49:38.323Z</time></trkpt><trkpt lat="43.5285358" lon="10.8240934"><ele>136.2</ele><time>2026-04-18T06:49:40.416Z</time></trkpt><trkpt lat="43.5284823" lon="10.8239553"><ele>136.0</ele><time>2026-04-18T06:49:43.325Z</time></trkpt><trkpt lat="43.528433" lon="10.823789"><ele>136.0</ele><time>2026-04-18T06:49:47.321Z</time></trkpt><trkpt lat="43.528391" lon="10.8236572"><ele>136.0</ele><time>2026-04-18T06:49:49.325Z</time></trkpt><trkpt lat="43.5283588" lon="10.8235711"><ele>136.0</ele><time>2026-04-18T06:49:50.321Z</time></trkpt><trkpt lat="43.5283131" lon="10.8234674"><ele>136.0</ele><time>2026-04-18T06:49:51.445Z</time></trkpt><trkpt lat="43.5282585" lon="10.8233422"><ele>136.0</ele><time>2026-04-18T06:49:52.328Z</time></trkpt><trkpt lat="43.5282136" lon="10.823236"><ele>134.6</ele><time>2026-04-18T06:49:53.326Z</time></trkpt><trkpt lat="43.5281636" lon="10.8231253"><ele>133.2</ele><time>2026-04-18T06:49:54.441Z</time></trkpt><trkpt lat="43.5281075" lon="10.8230014"><ele>131.8</ele><time>2026-04-18T06:49:55.44Z</time></trkpt><trkpt lat="43.5280561" lon="10.8228863"><ele>130.4</ele><time>2026-04-18T06:49:56.431Z</time></trkpt><trkpt lat="43.5280076" lon="10.8227804"><ele>129.0</ele><time>2026-04-18T06:49:57.415Z</time></trkpt><trkpt lat="43.5279617" lon="10.8226834"><ele>126.75</ele><time>2026-04-18T06:49:58.435Z</time></trkpt><trkpt lat="43.527882" lon="10.8225105"><ele>124.5</ele><time>2026-04-18T06:50:00.312Z</time></trkpt><trkpt lat="43.5278515" lon="10.8223609"><ele>122.25</ele><time>2026-04-18T06:50:02.424Z</time></trkpt><trkpt lat="43.5278875" lon="10.8222315"><ele>120.0</ele><time>2026-04-18T06:50:04.442Z</time></trkpt><trkpt lat="43.527942" lon="10.8221014"><ele>120.0</ele><time>2026-04-18T06:50:06.433Z</time></trkpt><trkpt lat="43.5279743" lon="10.8220011"><ele>120.0</ele><time>2026-04-18T06:50:07.428Z</time></trkpt><trkpt lat="43.5279999" lon="10.8218885"><ele>120.0</ele><time>2026-04-18T06:50:08.445Z</time></trkpt><trkpt lat="43.5280108" lon="10.8217575"><ele>120.0</ele><time>2026-04-18T06:50:09.414Z</time></trkpt><trkpt lat="43.5280073" lon="10.8216117"><ele>120.0</ele><time>2026-04-18T06:50:10.419Z</time></trkpt><trkpt lat="43.5279923" lon="10.8214475"><ele>118.4</ele><time>2026-04-18T06:50:11.415Z</time></trkpt><trkpt lat="43.5279733" lon="10.8212849"><ele>116.8</ele><time>2026-04-18T06:50:12.409Z</time></trkpt><trkpt lat="43.5279521" lon="10.8211291"><ele>115.19999999999999</ele><time>2026-04-18T06:50:13.447Z</time></trkpt><trkpt lat="43.5279312" lon="10.8209783"><ele>113.6</ele><time>2026-04-18T06:50:14.439Z</time></trkpt><trkpt lat="43.5279121" lon="10.8208436"><ele>112.0</ele><time>2026-04-18T06:50:15.447Z</time></trkpt><trkpt lat="43.5278872" lon="10.820723"><ele>111.6</ele><time>2026-04-18T06:50:16.416Z</time></trkpt><trkpt lat="43.5278423" lon="10.8206193"><ele>111.19999999999999</ele><time>2026-04-18T06:50:17.447Z</time></trkpt><trkpt lat="43.5277742" lon="10.8205395"><ele>110.8</ele><time>2026-04-18T06:50:18.446Z</time></trkpt><trkpt lat="43.5276862" lon="10.8204803"><ele>110.4</ele><time>2026-04-18T06:50:19.443Z</time></trkpt><trkpt lat="43.5275946" lon="10.8204395"><ele>110.0</ele><time>2026-04-18T06:50:20.409Z</time></trkpt><trkpt lat="43.5274972" lon="10.8204103"><ele>110.0</ele><time>2026-04-18T06:50:21.418Z</time></trkpt><trkpt lat="43.5274028" lon="10.8203845"><ele>110.0</ele><time>2026-04-18T06:50:22.433Z</time></trkpt><trkpt lat="43.5273132" lon="10.8203559"><ele>110.0</ele><time>2026-04-18T06:50:23.429Z</time></trkpt><trkpt lat="43.5272304" lon="10.8203228"><ele>110.0</ele><time>2026-04-18T06:50:24.437Z</time></trkpt><trkpt lat="43.5271513" lon="10.8202825"><ele>110.0</ele><time>2026-04-18T06:50:25.444Z</time></trkpt><trkpt lat="43.5270365" lon="10.8201323"><ele>106.6</ele><time>2026-04-18T06:50:27.312Z</time></trkpt><trkpt lat="43.5270136" lon="10.8200316"><ele>103.2</ele><time>2026-04-18T06:50:28.321Z</time></trkpt><trkpt lat="43.5270115" lon="10.8199088"><ele>99.80000000000001</ele><time>2026-04-18T06:50:29.323Z</time></trkpt><trkpt lat="43.5270211" lon="10.819765"><ele>96.4</ele><time>2026-04-18T06:50:30.323Z</time></trkpt><trkpt lat="43.5270371" lon="10.8196125"><ele>93.0</ele><time>2026-04-18T06:50:31.409Z</time></trkpt><trkpt lat="43.5270506" lon="10.8194695"><ele>93.0</ele><time>2026-04-18T06:50:32.443Z</time></trkpt><trkpt lat="43.5270568" lon="10.8193429"><ele>93.0</ele><time>2026-04-18T06:50:33.434Z</time></trkpt><trkpt lat="43.5270582" lon="10.8192304"><ele>93.0</ele><time>2026-04-18T06:50:34.417Z</time></trkpt><trkpt lat="43.5270461" lon="10.8191195"><ele>93.0</ele><time>2026-04-18T06:50:35.417Z</time></trkpt><trkpt lat="43.52702" lon="10.8190049"><ele>93.0</ele><time>2026-04-18T06:50:36.434Z</time></trkpt><trkpt lat="43.526975" lon="10.8188905"><ele>93.0</ele><time>2026-04-18T06:50:37.421Z</time></trkpt><trkpt lat="43.5269168" lon="10.8187775"><ele>92.33333333333333</ele><time>2026-04-18T06:50:38.424Z</time></trkpt><trkpt lat="43.5268617" lon="10.8186815"><ele>91.66666666666667</ele><time>2026-04-18T06:50:39.407Z</time></trkpt><trkpt lat="43.5268147" lon="10.8186014"><ele>91.0</ele><time>2026-04-18T06:50:40.411Z</time></trkpt><trkpt lat="43.5267457" lon="10.8185006"><ele>90.33333333333334</ele><time>2026-04-18T06:50:42.412Z</time></trkpt><trkpt lat="43.5266879" lon="10.8184321"><ele>89.66666666666667</ele><time>2026-04-18T06:50:45.317Z</time></trkpt><trkpt lat="43.526732" lon="10.8185108"><ele>89.0</ele><time>2026-04-18T06:51:04.31Z</time></trkpt><trkpt lat="43.5268168" lon="10.8185192"><ele>89.0</ele><time>2026-04-18T06:51:07.319Z</time></trkpt><trkpt lat="43.5269144" lon="10.8183899"><ele>89.0</ele><time>2026-04-18T06:51:09.318Z</time></trkpt><trkpt lat="43.5269606" lon="10.818305"><ele>89.0</ele><time>2026-04-18T06:51:10.32Z</time></trkpt><trkpt lat="43.5270258" lon="10.8181878"><ele>89.0</ele><time>2026-04-18T06:51:11.315Z</time></trkpt><trkpt lat="43.5270934" lon="10.8180613"><ele>89.0</ele><time>2026-04-18T06:51:12.32Z</time></trkpt><trkpt lat="43.5271722" lon="10.8179085"><ele>87.75</ele><time>2026-04-18T06:51:13.316Z</time></trkpt><trkpt lat="43.5272357" lon="10.8177689"><ele>86.5</ele><time>2026-04-18T06:51:14.323Z</time></trkpt><trkpt lat="43.5273002" lon="10.8176454"><ele>85.25</ele><time>2026-04-18T06:51:15.315Z</time></trkpt><trkpt lat="43.5273637" lon="10.8175353"><ele>84.0</ele><time>2026-04-18T06:51:16.313Z</time></trkpt><trkpt lat="43.5274508" lon="10.8174245"><ele>84.0</ele><time>2026-04-18T06:51:17.317Z</time></trkpt><trkpt lat="43.5275408" lon="10.8173358"><ele>84.0</ele><time>2026-04-18T06:51:18.33Z</time></trkpt><trkpt lat="43.5276148" lon="10.8172682"><ele>84.0</ele><time>2026-04-18T06:51:19.322Z</time></trkpt><trkpt lat="43.5276853" lon="10.8171948"><ele>84.0</ele><time>2026-04-18T06:51:20.313Z</time></trkpt><trkpt lat="43.5277476" lon="10.8170968"><ele>84.0</ele><time>2026-04-18T06:51:21.317Z</time></trkpt><trkpt lat="43.5277872" lon="10.8170069"><ele>84.0</ele><time>2026-04-18T06:51:22.311Z</time></trkpt><trkpt lat="43.5278149" lon="10.8169265"><ele>84.0</ele><time>2026-04-18T06:51:23.322Z</time></trkpt><trkpt lat="43.5278455" lon="10.8168352"><ele>84.0</ele><time>2026-04-18T06:51:24.316Z</time></trkpt><trkpt lat="43.5278757" lon="10.816739"><ele>84.0</ele><time>2026-04-18T06:51:25.323Z</time></trkpt><trkpt lat="43.5278978" lon="10.8166515"><ele>84.0</ele><time>2026-04-18T06:51:26.319Z</time></trkpt><trkpt lat="43.5279281" lon="10.8165587"><ele>84.0</ele><time>2026-04-18T06:51:27.326Z</time></trkpt><trkpt lat="43.5279643" lon="10.816454"><ele>84.0</ele><time>2026-04-18T06:51:28.323Z</time></trkpt><trkpt lat="43.5280006" lon="10.8163559"><ele>85.2</ele><time>2026-04-18T06:51:29.325Z</time></trkpt><trkpt lat="43.5280405" lon="10.816254"><ele>86.4</ele><time>2026-04-18T06:51:30.319Z</time></trkpt><trkpt lat="43.5281354" lon="10.8160871"><ele>87.6</ele><time>2026-04-18T06:51:32.422Z</time></trkpt><trkpt lat="43.5281941" lon="10.8160282"><ele>88.8</ele><time>2026-04-18T06:51:33.438Z</time></trkpt><trkpt lat="43.5282606" lon="10.8160014"><ele>90.0</ele><time>2026-04-18T06:51:34.414Z</time></trkpt><trkpt lat="43.5283343" lon="10.81599"><ele>90.0</ele><time>2026-04-18T06:51:35.403Z</time></trkpt><trkpt lat="43.5284197" lon="10.816009"><ele>90.0</ele><time>2026-04-18T06:51:36.314Z</time></trkpt><trkpt lat="43.5285143" lon="10.8160349"><ele>90.0</ele><time>2026-04-18T06:51:37.316Z</time></trkpt><trkpt lat="43.5286107" lon="10.8160613"><ele>90.0</ele><time>2026-04-18T06:51:38.32Z</time></trkpt><trkpt lat="43.5287068" lon="10.8160813"><ele>90.0</ele><time>2026-04-18T06:51:39.319Z</time></trkpt><trkpt lat="43.5288002" lon="10.8160938"><ele>91.8</ele><time>2026-04-18T06:51:40.327Z</time></trkpt><trkpt lat="43.5288995" lon="10.816088"><ele>93.6</ele><time>2026-04-18T06:51:41.318Z</time></trkpt><trkpt lat="43.5290005" lon="10.8160647"><ele>95.4</ele><time>2026-04-18T06:51:42.314Z</time></trkpt><trkpt lat="43.529102" lon="10.8160251"><ele>97.2</ele><time>2026-04-18T06:51:43.317Z</time></trkpt><trkpt lat="43.5292004" lon="10.8159786"><ele>99.0</ele><time>2026-04-18T06:51:44.318Z</time></trkpt><trkpt lat="43.5293059" lon="10.8159266"><ele>103.75</ele><time>2026-04-18T06:51:45.306Z</time></trkpt><trkpt lat="43.5294101" lon="10.8158779"><ele>108.5</ele><time>2026-04-18T06:51:46.32Z</time></trkpt><trkpt lat="43.5295223" lon="10.8158391"><ele>113.25</ele><time>2026-04-18T06:51:47.322Z</time></trkpt><trkpt lat="43.5296308" lon="10.8158026"><ele>118.0</ele><time>2026-04-18T06:51:48.328Z</time></trkpt><trkpt lat="43.5297472" lon="10.8157646"><ele>119.5</ele><time>2026-04-18T06:51:49.323Z</time></trkpt><trkpt lat="43.5298745" lon="10.8157307"><ele>121.0</ele><time>2026-04-18T06:51:50.324Z</time></trkpt><trkpt lat="43.5300047" lon="10.815704"><ele>122.5</ele><time>2026-04-18T06:51:51.321Z</time></trkpt><trkpt lat="43.5301266" lon="10.8156847"><ele>124.0</ele><time>2026-04-18T06:51:52.428Z</time></trkpt><trkpt lat="43.5302536" lon="10.8156649"><ele>124.0</ele><time>2026-04-18T06:51:53.356Z</time></trkpt><trkpt lat="43.5303632" lon="10.8156442"><ele>124.0</ele><time>2026-04-18T06:51:54.324Z</time></trkpt><trkpt lat="43.5304658" lon="10.8156245"><ele>124.0</ele><time>2026-04-18T06:51:55.413Z</time></trkpt><trkpt lat="43.5305655" lon="10.8156049"><ele>124.0</ele><time>2026-04-18T06:51:56.453Z</time></trkpt><trkpt lat="43.5306768" lon="10.815588"><ele>124.0</ele><time>2026-04-18T06:51:57.444Z</time></trkpt><trkpt lat="43.5307892" lon="10.8155907"><ele>124.75</ele><time>2026-04-18T06:51:58.353Z</time></trkpt><trkpt lat="43.5309124" lon="10.8156238"><ele>125.5</ele><time>2026-04-18T06:51:59.449Z</time></trkpt><trkpt lat="43.531037" lon="10.815669"><ele>126.25</ele><time>2026-04-18T06:52:00.432Z</time></trkpt><trkpt lat="43.5311584" lon="10.8157168"><ele>127.0</ele><time>2026-04-18T06:52:01.468Z</time></trkpt><trkpt lat="43.5313914" lon="10.8158018"><ele>128.25</ele><time>2026-04-18T06:52:03.448Z</time></trkpt><trkpt lat="43.5316099" lon="10.8158364"><ele>129.5</ele><time>2026-04-18T06:52:05.323Z</time></trkpt><trkpt lat="43.5317254" lon="10.815839"><ele>130.75</ele><time>2026-04-18T06:52:06.446Z</time></trkpt><trkpt lat="43.5318359" lon="10.8158485"><ele>132.0</ele><time>2026-04-18T06:52:07.4Z</time></trkpt><trkpt lat="43.531941" lon="10.8158769"><ele>132.0</ele><time>2026-04-18T06:52:08.32Z</time></trkpt><trkpt lat="43.5320429" lon="10.8159192"><ele>132.0</ele><time>2026-04-18T06:52:09.442Z</time></trkpt><trkpt lat="43.5321371" lon="10.8160009"><ele>132.0</ele><time>2026-04-18T06:52:10.442Z</time></trkpt><trkpt lat="43.5322543" lon="10.8161017"><ele>132.0</ele><time>2026-04-18T06:52:11.447Z</time></trkpt><trkpt lat="43.5323663" lon="10.8162005"><ele>133.5</ele><time>2026-04-18T06:52:12.462Z</time></trkpt><trkpt lat="43.5324721" lon="10.8162842"><ele>135.0</ele><time>2026-04-18T06:52:13.452Z</time></trkpt><trkpt lat="43.5325712" lon="10.8163382"><ele>136.5</ele><time>2026-04-18T06:52:14.418Z</time></trkpt><trkpt lat="43.5326783" lon="10.8163841"><ele>138.0</ele><time>2026-04-18T06:52:15.321Z</time></trkpt><trkpt lat="43.5327936" lon="10.816427"><ele>137.75</ele><time>2026-04-18T06:52:16.438Z</time></trkpt><trkpt lat="43.5329087" lon="10.8164707"><ele>137.5</ele><time>2026-04-18T06:52:17.407Z</time></trkpt><trkpt lat="43.5330348" lon="10.8165251"><ele>137.25</ele><time>2026-04-18T06:52:18.412Z</time></trkpt><trkpt lat="43.5331556" lon="10.8165766"><ele>137.0</ele><time>2026-04-18T06:52:19.322Z</time></trkpt><trkpt lat="43.5332672" lon="10.8166303"><ele>137.0</ele><time>2026-04-18T06:52:20.317Z</time></trkpt><trkpt lat="43.533365" lon="10.8166782"><ele>137.0</ele><time>2026-04-18T06:52:21.319Z</time></trkpt><trkpt lat="43.5334588" lon="10.8167203"><ele>137.0</ele><time>2026-04-18T06:52:22.45Z</time></trkpt><trkpt lat="43.5335433" lon="10.816746"><ele>137.0</ele><time>2026-04-18T06:52:23.446Z</time></trkpt><trkpt lat="43.5336326" lon="10.8167488"><ele>137.0</ele><time>2026-04-18T06:52:24.446Z</time></trkpt><trkpt lat="43.5338292" lon="10.8167028"><ele>138.5</ele><time>2026-04-18T06:52:26.447Z</time></trkpt><trkpt lat="43.5339355" lon="10.8166714"><ele>140.0</ele><time>2026-04-18T06:52:27.446Z</time></trkpt><trkpt lat="43.5340491" lon="10.8166472"><ele>141.5</ele><time>2026-04-18T06:52:28.419Z</time></trkpt><trkpt lat="43.5341653" lon="10.8166201"><ele>143.0</ele><time>2026-04-18T06:52:29.449Z</time></trkpt><trkpt lat="43.5342858" lon="10.8166356"><ele>143.0</ele><time>2026-04-18T06:52:30.445Z</time></trkpt><trkpt lat="43.5344041" lon="10.8166421"><ele>143.0</ele><time>2026-04-18T06:52:31.443Z</time></trkpt><trkpt lat="43.534541" lon="10.8166628"><ele>143.0</ele><time>2026-04-18T06:52:32.443Z</time></trkpt><trkpt lat="43.5346632" lon="10.8166809"><ele>143.0</ele><time>2026-04-18T06:52:33.448Z</time></trkpt><trkpt lat="43.5348534" lon="10.8167114"><ele>144.8</ele><time>2026-04-18T06:52:35.323Z</time></trkpt><trkpt lat="43.5349476" lon="10.8167051"><ele>146.60000000000002</ele><time>2026-04-18T06:52:36.322Z</time></trkpt><trkpt lat="43.5350373" lon="10.8166845"><ele>148.39999999999998</ele><time>2026-04-18T06:52:37.321Z</time></trkpt><trkpt lat="43.5351255" lon="10.8166156"><ele>150.2</ele><time>2026-04-18T06:52:38.449Z</time></trkpt><trkpt lat="43.5352082" lon="10.8165552"><ele>152.0</ele><time>2026-04-18T06:52:39.443Z</time></trkpt><trkpt lat="43.5353027" lon="10.816482"><ele>155.0</ele><time>2026-04-18T06:52:40.456Z</time></trkpt><trkpt lat="43.5354072" lon="10.8163963"><ele>158.0</ele><time>2026-04-18T06:52:41.452Z</time></trkpt><trkpt lat="43.5355226" lon="10.8162941"><ele>161.0</ele><time>2026-04-18T06:52:42.451Z</time></trkpt><trkpt lat="43.5356334" lon="10.8161902"><ele>164.0</ele><time>2026-04-18T06:52:43.452Z</time></trkpt><trkpt lat="43.5357425" lon="10.8160881"><ele>164.0</ele><time>2026-04-18T06:52:44.446Z</time></trkpt><trkpt lat="43.5358413" lon="10.8159896"><ele>164.0</ele><time>2026-04-18T06:52:45.445Z</time></trkpt><trkpt lat="43.5359488" lon="10.8159078"><ele>164.0</ele><time>2026-04-18T06:52:46.449Z</time></trkpt><trkpt lat="43.5360503" lon="10.815838"><ele>164.0</ele><time>2026-04-18T06:52:47.42Z</time></trkpt><trkpt lat="43.5361495" lon="10.8157823"><ele>165.6</ele><time>2026-04-18T06:52:48.443Z</time></trkpt><trkpt lat="43.5362401" lon="10.8157385"><ele>167.2</ele><time>2026-04-18T06:52:49.391Z</time></trkpt><trkpt lat="43.5363452" lon="10.8156976"><ele>168.79999999999998</ele><time>2026-04-18T06:52:50.321Z</time></trkpt><trkpt lat="43.5364492" lon="10.8156657"><ele>170.39999999999998</ele><time>2026-04-18T06:52:51.322Z</time></trkpt><trkpt lat="43.5365422" lon="10.8156461"><ele>172.0</ele><time>2026-04-18T06:52:52.318Z</time></trkpt><trkpt lat="43.5366345" lon="10.8156351"><ele>172.0</ele><time>2026-04-18T06:52:53.325Z</time></trkpt><trkpt lat="43.5367243" lon="10.8156298"><ele>172.0</ele><time>2026-04-18T06:52:54.325Z</time></trkpt><trkpt lat="43.5368092" lon="10.8156291"><ele>172.0</ele><time>2026-04-18T06:52:55.318Z</time></trkpt><trkpt lat="43.5368813" lon="10.8156248"><ele>172.0</ele><time>2026-04-18T06:52:56.322Z</time></trkpt><trkpt lat="43.5369671" lon="10.8156033"><ele>172.0</ele><time>2026-04-18T06:52:57.323Z</time></trkpt><trkpt lat="43.5370282" lon="10.8155408"><ele>172.0</ele><time>2026-04-18T06:52:58.323Z</time></trkpt><trkpt lat="43.5370734" lon="10.8154531"><ele>170.0</ele><time>2026-04-18T06:52:59.324Z</time></trkpt><trkpt lat="43.5371148" lon="10.8153604"><ele>168.0</ele><time>2026-04-18T06:53:00.322Z</time></trkpt><trkpt lat="43.5371601" lon="10.815273"><ele>166.0</ele><time>2026-04-18T06:53:01.324Z</time></trkpt><trkpt lat="43.5372211" lon="10.8151387"><ele>164.0</ele><time>2026-04-18T06:53:03.442Z</time></trkpt><trkpt lat="43.5372494" lon="10.8150529"><ele>162.0</ele><time>2026-04-18T06:53:05.45Z</time></trkpt><trkpt lat="43.5372568" lon="10.814858"><ele>161.6</ele><time>2026-04-18T06:53:08.455Z</time></trkpt><trkpt lat="43.537229" lon="10.8147527"><ele>161.2</ele><time>2026-04-18T06:53:09.444Z</time></trkpt><trkpt lat="43.5371966" lon="10.8146368"><ele>160.8</ele><time>2026-04-18T06:53:10.417Z</time></trkpt><trkpt lat="43.5371754" lon="10.814476"><ele>160.4</ele><time>2026-04-18T06:53:11.425Z</time></trkpt><trkpt lat="43.5371752" lon="10.8143191"><ele>160.0</ele><time>2026-04-18T06:53:12.434Z</time></trkpt><trkpt lat="43.5372426" lon="10.8140064"><ele>161.75</ele><time>2026-04-18T06:53:14.322Z</time></trkpt><trkpt lat="43.5373157" lon="10.8138518"><ele>163.5</ele><time>2026-04-18T06:53:15.309Z</time></trkpt><trkpt lat="43.537398" lon="10.8136938"><ele>165.25</ele><time>2026-04-18T06:53:16.324Z</time></trkpt><trkpt lat="43.5374728" lon="10.8135361"><ele>167.0</ele><time>2026-04-18T06:53:17.324Z</time></trkpt><trkpt lat="43.5375268" lon="10.8133917"><ele>169.0</ele><time>2026-04-18T06:53:18.322Z</time></trkpt><trkpt lat="43.5375539" lon="10.8132575"><ele>171.0</ele><time>2026-04-18T06:53:19.445Z</time></trkpt><trkpt lat="43.5375517" lon="10.8131221"><ele>173.0</ele><time>2026-04-18T06:53:20.446Z</time></trkpt><trkpt lat="43.537521" lon="10.8129878"><ele>175.0</ele><time>2026-04-18T06:53:21.449Z</time></trkpt><trkpt lat="43.537458" lon="10.8128712"><ele>177.0</ele><time>2026-04-18T06:53:22.438Z</time></trkpt><trkpt lat="43.5373821" lon="10.8127721"><ele>177.0</ele><time>2026-04-18T06:53:23.454Z</time></trkpt><trkpt lat="43.5372819" lon="10.812684"><ele>177.0</ele><time>2026-04-18T06:53:24.438Z</time></trkpt><trkpt lat="43.5370618" lon="10.8124503"><ele>177.0</ele><time>2026-04-18T06:53:26.438Z</time></trkpt><trkpt lat="43.5368411" lon="10.812143"><ele>176.5</ele><time>2026-04-18T06:53:28.32Z</time></trkpt><trkpt lat="43.5367393" lon="10.8119861"><ele>176.0</ele><time>2026-04-18T06:53:29.325Z</time></trkpt><trkpt lat="43.5366451" lon="10.8118253"><ele>175.5</ele><time>2026-04-18T06:53:30.444Z</time></trkpt><trkpt lat="43.5365695" lon="10.811657"><ele>175.0</ele><time>2026-04-18T06:53:31.448Z</time></trkpt><trkpt lat="43.536509" lon="10.8114695"><ele>173.5</ele><time>2026-04-18T06:53:32.441Z</time></trkpt><trkpt lat="43.5364676" lon="10.8112761"><ele>172.0</ele><time>2026-04-18T06:53:33.438Z</time></trkpt><trkpt lat="43.5364381" lon="10.81107"><ele>170.5</ele><time>2026-04-18T06:53:34.451Z</time></trkpt><trkpt lat="43.5364487" lon="10.8108753"><ele>169.0</ele><time>2026-04-18T06:53:35.412Z</time></trkpt><trkpt lat="43.5364509" lon="10.8106965"><ele>168.5</ele><time>2026-04-18T06:53:36.447Z</time></trkpt><trkpt lat="43.5364533" lon="10.810522"><ele>168.0</ele><time>2026-04-18T06:53:37.433Z</time></trkpt><trkpt lat="43.5364435" lon="10.8103542"><ele>167.5</ele><time>2026-04-18T06:53:38.452Z</time></trkpt><trkpt lat="43.5364201" lon="10.810189"><ele>167.0</ele><time>2026-04-18T06:53:39.435Z</time></trkpt><trkpt lat="43.5363276" lon="10.8100179"><ele>166.33333333333331</ele><time>2026-04-18T06:53:40.422Z</time></trkpt><trkpt lat="43.5362418" lon="10.8098589"><ele>165.66666666666666</ele><time>2026-04-18T06:53:41.452Z</time></trkpt><trkpt lat="43.536149" lon="10.8096776"><ele>165.0</ele><time>2026-04-18T06:53:42.445Z</time></trkpt><trkpt lat="43.5360913" lon="10.8094932"><ele>164.75</ele><time>2026-04-18T06:53:43.443Z</time></trkpt><trkpt lat="43.5360522" lon="10.8093141"><ele>164.5</ele><time>2026-04-18T06:53:44.441Z</time></trkpt><trkpt lat="43.536013" lon="10.8091371"><ele>164.25</ele><time>2026-04-18T06:53:45.455Z</time></trkpt><trkpt lat="43.5360026" lon="10.8089543"><ele>164.0</ele><time>2026-04-18T06:53:46.456Z</time></trkpt><trkpt lat="43.5360075" lon="10.8087603"><ele>164.0</ele><time>2026-04-18T06:53:47.407Z</time></trkpt><trkpt lat="43.5360386" lon="10.8085725"><ele>164.0</ele><time>2026-04-18T06:53:48.45Z</time></trkpt><trkpt lat="43.5360705" lon="10.8083752"><ele>164.0</ele><time>2026-04-18T06:53:49.451Z</time></trkpt><trkpt lat="43.5361058" lon="10.8081709"><ele>164.0</ele><time>2026-04-18T06:53:50.453Z</time></trkpt><trkpt lat="43.53613" lon="10.8079628"><ele>163.66666666666666</ele><time>2026-04-18T06:53:51.448Z</time></trkpt><trkpt lat="43.5361351" lon="10.8077367"><ele>163.33333333333334</ele><time>2026-04-18T06:53:52.445Z</time></trkpt><trkpt lat="43.5361309" lon="10.8075114"><ele>163.0</ele><time>2026-04-18T06:53:53.447Z</time></trkpt><trkpt lat="43.5361194" lon="10.807287"><ele>163.0</ele><time>2026-04-18T06:53:54.449Z</time></trkpt><trkpt lat="43.5361023" lon="10.8070593"><ele>163.0</ele><time>2026-04-18T06:53:55.456Z</time></trkpt><trkpt lat="43.5360723" lon="10.8068327"><ele>163.0</ele><time>2026-04-18T06:53:56.448Z</time></trkpt><trkpt lat="43.5360361" lon="10.8066264"><ele>163.33333333333334</ele><time>2026-04-18T06:53:57.444Z</time></trkpt><trkpt lat="43.5360135" lon="10.8064346"><ele>163.66666666666666</ele><time>2026-04-18T06:53:58.445Z</time></trkpt><trkpt lat="43.5360121" lon="10.806234"><ele>164.0</ele><time>2026-04-18T06:53:59.433Z</time></trkpt><trkpt lat="43.5360549" lon="10.8058383"><ele>164.0</ele><time>2026-04-18T06:54:01.322Z</time></trkpt><trkpt lat="43.5360958" lon="10.8056461"><ele>164.0</ele><time>2026-04-18T06:54:02.311Z</time></trkpt><trkpt lat="43.5361522" lon="10.805456"><ele>164.0</ele><time>2026-04-18T06:54:03.323Z</time></trkpt><trkpt lat="43.5362227" lon="10.8052656"><ele>164.0</ele><time>2026-04-18T06:54:04.321Z</time></trkpt><trkpt lat="43.5362974" lon="10.8050834"><ele>164.0</ele><time>2026-04-18T06:54:05.325Z</time></trkpt><trkpt lat="43.5363689" lon="10.8048795"><ele>164.0</ele><time>2026-04-18T06:54:06.321Z</time></trkpt><trkpt lat="43.5364431" lon="10.8046681"><ele>164.0</ele><time>2026-04-18T06:54:07.449Z</time></trkpt><trkpt lat="43.5365096" lon="10.8044507"><ele>162.0</ele><time>2026-04-18T06:54:08.451Z</time></trkpt><trkpt lat="43.5365686" lon="10.8042217"><ele>160.0</ele><time>2026-04-18T06:54:09.449Z</time></trkpt><trkpt lat="43.5366165" lon="10.8039975"><ele>158.0</ele><time>2026-04-18T06:54:10.451Z</time></trkpt><trkpt lat="43.5366553" lon="10.8037713"><ele>158.0</ele><time>2026-04-18T06:54:11.449Z</time></trkpt><trkpt lat="43.5366835" lon="10.803546"><ele>158.0</ele><time>2026-04-18T06:54:12.453Z</time></trkpt><trkpt lat="43.536703" lon="10.8033124"><ele>158.0</ele><time>2026-04-18T06:54:13.446Z</time></trkpt><trkpt lat="43.5367167" lon="10.803078"><ele>157.33333333333331</ele><time>2026-04-18T06:54:14.45Z</time></trkpt><trkpt lat="43.5367259" lon="10.8028572"><ele>156.66666666666666</ele><time>2026-04-18T06:54:15.439Z</time></trkpt><trkpt lat="43.5367324" lon="10.8026512"><ele>156.0</ele><time>2026-04-18T06:54:16.441Z</time></trkpt><trkpt lat="43.5367385" lon="10.8024418"><ele>157.33333333333334</ele><time>2026-04-18T06:54:17.454Z</time></trkpt><trkpt lat="43.5367612" lon="10.8022332"><ele>158.66666666666669</ele><time>2026-04-18T06:54:18.445Z</time></trkpt><trkpt lat="43.5368045" lon="10.8020231"><ele>160.0</ele><time>2026-04-18T06:54:19.455Z</time></trkpt><trkpt lat="43.5368664" lon="10.801829"><ele>161.33333333333334</ele><time>2026-04-18T06:54:20.459Z</time></trkpt><trkpt lat="43.5369375" lon="10.8016471"><ele>162.66666666666666</ele><time>2026-04-18T06:54:21.43Z</time></trkpt><trkpt lat="43.5370322" lon="10.8014755"><ele>164.0</ele><time>2026-04-18T06:54:22.452Z</time></trkpt><trkpt lat="43.5371285" lon="10.8013024"><ele>164.0</ele><time>2026-04-18T06:54:23.367Z</time></trkpt><trkpt lat="43.5372314" lon="10.8011812"><ele>164.0</ele><time>2026-04-18T06:54:24.443Z</time></trkpt><trkpt lat="43.5374955" lon="10.8009733"><ele>164.0</ele><time>2026-04-18T06:54:26.321Z</time></trkpt><trkpt lat="43.537611" lon="10.8008677"><ele>163.0</ele><time>2026-04-18T06:54:27.322Z</time></trkpt><trkpt lat="43.5377243" lon="10.8007517"><ele>162.0</ele><time>2026-04-18T06:54:28.322Z</time></trkpt><trkpt lat="43.537828" lon="10.8006364"><ele>161.0</ele><time>2026-04-18T06:54:29.432Z</time></trkpt><trkpt lat="43.5379202" lon="10.8005123"><ele>160.0</ele><time>2026-04-18T06:54:30.411Z</time></trkpt><trkpt lat="43.5380091" lon="10.8003717"><ele>160.0</ele><time>2026-04-18T06:54:31.458Z</time></trkpt><trkpt lat="43.5380814" lon="10.8001902"><ele>160.0</ele><time>2026-04-18T06:54:32.446Z</time></trkpt><trkpt lat="43.5381565" lon="10.8000081"><ele>160.0</ele><time>2026-04-18T06:54:33.446Z</time></trkpt><trkpt lat="43.5382287" lon="10.799825"><ele>160.5</ele><time>2026-04-18T06:54:34.412Z</time></trkpt><trkpt lat="43.5383024" lon="10.7996509"><ele>161.0</ele><time>2026-04-18T06:54:35.46Z</time></trkpt><trkpt lat="43.538368" lon="10.7994834"><ele>161.5</ele><time>2026-04-18T06:54:36.48Z</time></trkpt><trkpt lat="43.5384262" lon="10.7993143"><ele>162.0</ele><time>2026-04-18T06:54:37.451Z</time></trkpt><trkpt lat="43.5385106" lon="10.7989878"><ele>162.0</ele><time>2026-04-18T06:54:39.451Z</time></trkpt><trkpt lat="43.5385366" lon="10.7988112"><ele>162.0</ele><time>2026-04-18T06:54:40.45Z</time></trkpt><trkpt lat="43.5385401" lon="10.7986163"><ele>162.0</ele><time>2026-04-18T06:54:41.42Z</time></trkpt><trkpt lat="43.5385274" lon="10.7984026"><ele>162.0</ele><time>2026-04-18T06:54:42.386Z</time></trkpt><trkpt lat="43.5384993" lon="10.7981789"><ele>161.33333333333334</ele><time>2026-04-18T06:54:43.45Z</time></trkpt><trkpt lat="43.538464" lon="10.7979429"><ele>160.66666666666669</ele><time>2026-04-18T06:54:44.451Z</time></trkpt><trkpt lat="43.5384311" lon="10.7977094"><ele>160.0</ele><time>2026-04-18T06:54:45.452Z</time></trkpt><trkpt lat="43.5383957" lon="10.7974868"><ele>160.0</ele><time>2026-04-18T06:54:46.456Z</time></trkpt><trkpt lat="43.5383584" lon="10.7972759"><ele>160.0</ele><time>2026-04-18T06:54:47.443Z</time></trkpt><trkpt lat="43.5383149" lon="10.7970724"><ele>160.0</ele><time>2026-04-18T06:54:48.46Z</time></trkpt><trkpt lat="43.5382601" lon="10.7968743"><ele>162.66666666666669</ele><time>2026-04-18T06:54:49.452Z</time></trkpt><trkpt lat="43.5382033" lon="10.7966948"><ele>165.33333333333334</ele><time>2026-04-18T06:54:50.466Z</time></trkpt><trkpt lat="43.5381244" lon="10.7963886"><ele>168.0</ele><time>2026-04-18T06:54:52.321Z</time></trkpt><trkpt lat="43.5381139" lon="10.7962311"><ele>168.0</ele><time>2026-04-18T06:54:53.319Z</time></trkpt><trkpt lat="43.5381189" lon="10.7960756"><ele>168.0</ele><time>2026-04-18T06:54:54.325Z</time></trkpt><trkpt lat="43.538149" lon="10.7959204"><ele>168.0</ele><time>2026-04-18T06:54:55.323Z</time></trkpt><trkpt lat="43.5382161" lon="10.7957835"><ele>168.0</ele><time>2026-04-18T06:54:56.322Z</time></trkpt><trkpt lat="43.538274" lon="10.7956587"><ele>167.8</ele><time>2026-04-18T06:54:57.324Z</time></trkpt><trkpt lat="43.5383504" lon="10.795555"><ele>167.60000000000002</ele><time>2026-04-18T06:54:58.319Z</time></trkpt><trkpt lat="43.5384461" lon="10.7954736"><ele>167.39999999999998</ele><time>2026-04-18T06:54:59.318Z</time></trkpt><trkpt lat="43.5385477" lon="10.79541"><ele>167.2</ele><time>2026-04-18T06:55:00.317Z</time></trkpt><trkpt lat="43.5386449" lon="10.7953577"><ele>167.0</ele><time>2026-04-18T06:55:01.319Z</time></trkpt><trkpt lat="43.538727" lon="10.7952974"><ele>167.0</ele><time>2026-04-18T06:55:02.312Z</time></trkpt><trkpt lat="43.5387996" lon="10.7952129"><ele>167.0</ele><time>2026-04-18T06:55:03.313Z</time></trkpt><trkpt lat="43.5388631" lon="10.7951015"><ele>167.0</ele><time>2026-04-18T06:55:04.324Z</time></trkpt><trkpt lat="43.5389141" lon="10.7949716"><ele>167.0</ele><time>2026-04-18T06:55:05.32Z</time></trkpt><trkpt lat="43.5389464" lon="10.7948437"><ele>167.0</ele><time>2026-04-18T06:55:06.32Z</time></trkpt><trkpt lat="43.5389696" lon="10.7947169"><ele>169.39999999999998</ele><time>2026-04-18T06:55:07.318Z</time></trkpt><trkpt lat="43.5389883" lon="10.7945877"><ele>171.79999999999998</ele><time>2026-04-18T06:55:08.329Z</time></trkpt><trkpt lat="43.5390045" lon="10.7944578"><ele>174.2</ele><time>2026-04-18T06:55:09.322Z</time></trkpt><trkpt lat="43.5390198" lon="10.7943438"><ele>176.6</ele><time>2026-04-18T06:55:10.32Z</time></trkpt><trkpt lat="43.5390425" lon="10.794226"><ele>179.0</ele><time>2026-04-18T06:55:11.317Z</time></trkpt><trkpt lat="43.5390913" lon="10.7941175"><ele>179.2</ele><time>2026-04-18T06:55:12.319Z</time></trkpt><trkpt lat="43.5391599" lon="10.7940269"><ele>179.39999999999998</ele><time>2026-04-18T06:55:13.321Z</time></trkpt><trkpt lat="43.5392354" lon="10.793949"><ele>179.6</ele><time>2026-04-18T06:55:14.32Z</time></trkpt><trkpt lat="43.5393113" lon="10.7938696"><ele>179.8</ele><time>2026-04-18T06:55:15.323Z</time></trkpt><trkpt lat="43.5393788" lon="10.7937953"><ele>180.0</ele><time>2026-04-18T06:55:16.318Z</time></trkpt><trkpt lat="43.539438" lon="10.7937213"><ele>180.0</ele><time>2026-04-18T06:55:17.319Z</time></trkpt><trkpt lat="43.5394946" lon="10.7936507"><ele>180.0</ele><time>2026-04-18T06:55:18.319Z</time></trkpt><trkpt lat="43.5395412" lon="10.7935638"><ele>180.0</ele><time>2026-04-18T06:55:19.321Z</time></trkpt><trkpt lat="43.5395724" lon="10.793463"><ele>180.0</ele><time>2026-04-18T06:55:20.321Z</time></trkpt><trkpt lat="43.539586" lon="10.7933609"><ele>180.0</ele><time>2026-04-18T06:55:21.319Z</time></trkpt><trkpt lat="43.5395969" lon="10.7932663"><ele>180.0</ele><time>2026-04-18T06:55:22.318Z</time></trkpt><trkpt lat="43.539605" lon="10.7931667"><ele>180.16666666666666</ele><time>2026-04-18T06:55:23.32Z</time></trkpt><trkpt lat="43.5395972" lon="10.7930593"><ele>180.33333333333334</ele><time>2026-04-18T06:55:24.313Z</time></trkpt><trkpt lat="43.5395829" lon="10.7929519"><ele>180.5</ele><time>2026-04-18T06:55:25.317Z</time></trkpt><trkpt lat="43.5395374" lon="10.792838"><ele>180.66666666666669</ele><time>2026-04-18T06:55:26.316Z</time></trkpt><trkpt lat="43.53949" lon="10.7927257"><ele>180.83333333333334</ele><time>2026-04-18T06:55:27.309Z</time></trkpt><trkpt lat="43.5394414" lon="10.7926075"><ele>181.0</ele><time>2026-04-18T06:55:28.316Z</time></trkpt><trkpt lat="43.5393902" lon="10.7924884"><ele>181.0</ele><time>2026-04-18T06:55:29.314Z</time></trkpt><trkpt lat="43.5393407" lon="10.7923681"><ele>181.0</ele><time>2026-04-18T06:55:30.317Z</time></trkpt><trkpt lat="43.5392857" lon="10.7922433"><ele>181.0</ele><time>2026-04-18T06:55:31.317Z</time></trkpt><trkpt lat="43.5392266" lon="10.7921095"><ele>181.0</ele><time>2026-04-18T06:55:32.315Z</time></trkpt><trkpt lat="43.5391747" lon="10.7919725"><ele>181.0</ele><time>2026-04-18T06:55:33.319Z</time></trkpt><trkpt lat="43.539133" lon="10.7918537"><ele>182.4</ele><time>2026-04-18T06:55:34.319Z</time></trkpt><trkpt lat="43.5390791" lon="10.7917485"><ele>183.8</ele><time>2026-04-18T06:55:35.322Z</time></trkpt><trkpt lat="43.5390181" lon="10.7916391"><ele>185.20000000000002</ele><time>2026-04-18T06:55:36.322Z</time></trkpt><trkpt lat="43.5389469" lon="10.7915235"><ele>186.60000000000002</ele><time>2026-04-18T06:55:37.322Z</time></trkpt><trkpt lat="43.5388783" lon="10.7914209"><ele>188.0</ele><time>2026-04-18T06:55:38.323Z</time></trkpt><trkpt lat="43.5388025" lon="10.7913051"><ele>188.0</ele><time>2026-04-18T06:55:39.32Z</time></trkpt><trkpt lat="43.5387255" lon="10.7911958"><ele>188.0</ele><time>2026-04-18T06:55:40.317Z</time></trkpt><trkpt lat="43.5386572" lon="10.7910926"><ele>188.0</ele><time>2026-04-18T06:55:41.319Z</time></trkpt><trkpt lat="43.5385999" lon="10.7910075"><ele>188.0</ele><time>2026-04-18T06:55:42.318Z</time></trkpt><trkpt lat="43.53853" lon="10.7909043"><ele>188.0</ele><time>2026-04-18T06:55:44.321Z</time></trkpt><trkpt lat="43.5384194" lon="10.790839"><ele>186.2</ele><time>2026-04-18T06:55:46.319Z</time></trkpt><trkpt lat="43.5383395" lon="10.7907933"><ele>184.4</ele><time>2026-04-18T06:55:47.318Z</time></trkpt><trkpt lat="43.5382467" lon="10.7907325"><ele>182.6</ele><time>2026-04-18T06:55:48.321Z</time></trkpt><trkpt lat="43.538148" lon="10.7906851"><ele>180.79999999999998</ele><time>2026-04-18T06:55:49.321Z</time></trkpt><trkpt lat="43.5380392" lon="10.7906477"><ele>179.0</ele><time>2026-04-18T06:55:50.319Z</time></trkpt><trkpt lat="43.5379254" lon="10.7906237"><ele>178.6</ele><time>2026-04-18T06:55:51.319Z</time></trkpt><trkpt lat="43.5378053" lon="10.7906129"><ele>178.2</ele><time>2026-04-18T06:55:52.419Z</time></trkpt><trkpt lat="43.5376949" lon="10.7906204"><ele>177.79999999999998</ele><time>2026-04-18T06:55:53.398Z</time></trkpt><trkpt lat="43.5375893" lon="10.7906471"><ele>177.39999999999998</ele><time>2026-04-18T06:55:54.463Z</time></trkpt><trkpt lat="43.5374971" lon="10.790682"><ele>177.0</ele><time>2026-04-18T06:55:55.428Z</time></trkpt><trkpt lat="43.5374147" lon="10.7907177"><ele>177.0</ele><time>2026-04-18T06:55:56.422Z</time></trkpt><trkpt lat="43.5373402" lon="10.7907464"><ele>177.0</ele><time>2026-04-18T06:55:57.439Z</time></trkpt><trkpt lat="43.5371829" lon="10.7908055"><ele>177.0</ele><time>2026-04-18T06:55:59.449Z</time></trkpt><trkpt lat="43.5370967" lon="10.790819"><ele>177.0</ele><time>2026-04-18T06:56:00.445Z</time></trkpt><trkpt lat="43.5370003" lon="10.7908277"><ele>177.0</ele><time>2026-04-18T06:56:01.353Z</time></trkpt><trkpt lat="43.5368954" lon="10.7908228"><ele>177.5</ele><time>2026-04-18T06:56:02.323Z</time></trkpt><trkpt lat="43.5367805" lon="10.7908104"><ele>178.0</ele><time>2026-04-18T06:56:03.326Z</time></trkpt><trkpt lat="43.5366583" lon="10.7908009"><ele>178.5</ele><time>2026-04-18T06:56:04.416Z</time></trkpt><trkpt lat="43.5365339" lon="10.7907998"><ele>179.0</ele><time>2026-04-18T06:56:05.437Z</time></trkpt><trkpt lat="43.5364079" lon="10.7908218"><ele>179.0</ele><time>2026-04-18T06:56:06.446Z</time></trkpt><trkpt lat="43.536293" lon="10.7908432"><ele>179.0</ele><time>2026-04-18T06:56:07.461Z</time></trkpt><trkpt lat="43.5361884" lon="10.7908568"><ele>179.0</ele><time>2026-04-18T06:56:08.448Z</time></trkpt><trkpt lat="43.536089" lon="10.7908496"><ele>179.0</ele><time>2026-04-18T06:56:09.447Z</time></trkpt><trkpt lat="43.5359007" lon="10.7907752"><ele>178.75</ele><time>2026-04-18T06:56:11.423Z</time></trkpt><trkpt lat="43.5357998" lon="10.7907044"><ele>178.5</ele><time>2026-04-18T06:56:12.449Z</time></trkpt><trkpt lat="43.5356884" lon="10.7906161"><ele>178.25</ele><time>2026-04-18T06:56:13.437Z</time></trkpt><trkpt lat="43.5355731" lon="10.7905169"><ele>178.0</ele><time>2026-04-18T06:56:14.443Z</time></trkpt><trkpt lat="43.5354562" lon="10.7904225"><ele>176.25</ele><time>2026-04-18T06:56:15.451Z</time></trkpt><trkpt lat="43.5353375" lon="10.7903289"><ele>174.5</ele><time>2026-04-18T06:56:16.453Z</time></trkpt><trkpt lat="43.5352354" lon="10.7902296"><ele>172.75</ele><time>2026-04-18T06:56:17.442Z</time></trkpt><trkpt lat="43.5351287" lon="10.7901464"><ele>171.0</ele><time>2026-04-18T06:56:18.444Z</time></trkpt><trkpt lat="43.5350187" lon="10.7900575"><ele>171.0</ele><time>2026-04-18T06:56:19.454Z</time></trkpt><trkpt lat="43.5348065" lon="10.7898965"><ele>171.0</ele><time>2026-04-18T06:56:21.318Z</time></trkpt><trkpt lat="43.534699" lon="10.7898144"><ele>171.0</ele><time>2026-04-18T06:56:22.323Z</time></trkpt><trkpt lat="43.53459" lon="10.7897352"><ele>169.5</ele><time>2026-04-18T06:56:23.319Z</time></trkpt><trkpt lat="43.5344811" lon="10.7896572"><ele>168.0</ele><time>2026-04-18T06:56:24.455Z</time></trkpt><trkpt lat="43.5343778" lon="10.7895935"><ele>166.5</ele><time>2026-04-18T06:56:25.448Z</time></trkpt><trkpt lat="43.5342698" lon="10.7895309"><ele>165.0</ele><time>2026-04-18T06:56:26.441Z</time></trkpt><trkpt lat="43.5341547" lon="10.7894677"><ele>165.0</ele><time>2026-04-18T06:56:27.439Z</time></trkpt><trkpt lat="43.5340392" lon="10.7893976"><ele>165.0</ele><time>2026-04-18T06:56:28.453Z</time></trkpt><trkpt lat="43.5339231" lon="10.7893253"><ele>165.0</ele><time>2026-04-18T06:56:29.443Z</time></trkpt><trkpt lat="43.5336817" lon="10.7891771"><ele>164.25</ele><time>2026-04-18T06:56:31.321Z</time></trkpt><trkpt lat="43.5335541" lon="10.7891066"><ele>163.5</ele><time>2026-04-18T06:56:32.324Z</time></trkpt><trkpt lat="43.533427" lon="10.7890323"><ele>162.75</ele><time>2026-04-18T06:56:33.389Z</time></trkpt><trkpt lat="43.533295" lon="10.7889579"><ele>162.0</ele><time>2026-04-18T06:56:34.322Z</time></trkpt><trkpt lat="43.5331631" lon="10.7888902"><ele>162.0</ele><time>2026-04-18T06:56:35.419Z</time></trkpt><trkpt lat="43.5329183" lon="10.7887524"><ele>162.0</ele><time>2026-04-18T06:56:37.327Z</time></trkpt><trkpt lat="43.5327953" lon="10.7886802"><ele>162.0</ele><time>2026-04-18T06:56:38.32Z</time></trkpt><trkpt lat="43.5326673" lon="10.7886048"><ele>160.75</ele><time>2026-04-18T06:56:39.315Z</time></trkpt><trkpt lat="43.5325346" lon="10.7885316"><ele>159.5</ele><time>2026-04-18T06:56:40.319Z</time></trkpt><trkpt lat="43.5324012" lon="10.7884599"><ele>158.25</ele><time>2026-04-18T06:56:41.319Z</time></trkpt><trkpt lat="43.5322806" lon="10.7883906"><ele>157.0</ele><time>2026-04-18T06:56:42.315Z</time></trkpt><trkpt lat="43.5321687" lon="10.7883193"><ele>154.25</ele><time>2026-04-18T06:56:43.319Z</time></trkpt><trkpt lat="43.5320525" lon="10.7882501"><ele>151.5</ele><time>2026-04-18T06:56:44.319Z</time></trkpt><trkpt lat="43.5319481" lon="10.7881821"><ele>148.75</ele><time>2026-04-18T06:56:45.323Z</time></trkpt><trkpt lat="43.5318669" lon="10.7880933"><ele>146.0</ele><time>2026-04-18T06:56:46.433Z</time></trkpt><trkpt lat="43.5317888" lon="10.7879831"><ele>146.0</ele><time>2026-04-18T06:56:47.434Z</time></trkpt><trkpt lat="43.5317112" lon="10.7878603"><ele>146.0</ele><time>2026-04-18T06:56:48.439Z</time></trkpt><trkpt lat="43.5316293" lon="10.7877256"><ele>146.0</ele><time>2026-04-18T06:56:49.438Z</time></trkpt><trkpt lat="43.5315438" lon="10.7875793"><ele>146.0</ele><time>2026-04-18T06:56:50.417Z</time></trkpt><trkpt lat="43.5314627" lon="10.787439"><ele>147.75</ele><time>2026-04-18T06:56:51.416Z</time></trkpt><trkpt lat="43.5313848" lon="10.7873003"><ele>149.5</ele><time>2026-04-18T06:56:52.434Z</time></trkpt><trkpt lat="43.5313133" lon="10.7871723"><ele>151.25</ele><time>2026-04-18T06:56:53.419Z</time></trkpt><trkpt lat="43.5312416" lon="10.78705"><ele>153.0</ele><time>2026-04-18T06:56:54.414Z</time></trkpt><trkpt lat="43.5311632" lon="10.7869236"><ele>150.0</ele><time>2026-04-18T06:56:55.418Z</time></trkpt><trkpt lat="43.5310744" lon="10.7867928"><ele>147.0</ele><time>2026-04-18T06:56:56.416Z</time></trkpt><trkpt lat="43.5309814" lon="10.7866621"><ele>144.0</ele><time>2026-04-18T06:56:57.439Z</time></trkpt><trkpt lat="43.5308967" lon="10.7865459"><ele>141.0</ele><time>2026-04-18T06:56:58.415Z</time></trkpt><trkpt lat="43.5308235" lon="10.7864409"><ele>141.0</ele><time>2026-04-18T06:56:59.415Z</time></trkpt><trkpt lat="43.5307551" lon="10.7863459"><ele>141.0</ele><time>2026-04-18T06:57:00.421Z</time></trkpt><trkpt lat="43.5306993" lon="10.7862596"><ele>141.0</ele><time>2026-04-18T06:57:01.325Z</time></trkpt><trkpt lat="43.5306568" lon="10.7861781"><ele>141.0</ele><time>2026-04-18T06:57:02.415Z</time></trkpt><trkpt lat="43.5306407" lon="10.7860886"><ele>141.0</ele><time>2026-04-18T06:57:03.44Z</time></trkpt><trkpt lat="43.5306424" lon="10.785989"><ele>141.0</ele><time>2026-04-18T06:57:04.432Z</time></trkpt><trkpt lat="43.5307159" lon="10.7857755"><ele>140.66666666666666</ele><time>2026-04-18T06:57:06.316Z</time></trkpt><trkpt lat="43.5307627" lon="10.7856687"><ele>140.33333333333334</ele><time>2026-04-18T06:57:07.427Z</time></trkpt><trkpt lat="43.5308106" lon="10.785564"><ele>140.0</ele><time>2026-04-18T06:57:08.434Z</time></trkpt><trkpt lat="43.5308545" lon="10.7854597"><ele>139.66666666666669</ele><time>2026-04-18T06:57:09.423Z</time></trkpt><trkpt lat="43.5308821" lon="10.7853524"><ele>139.33333333333334</ele><time>2026-04-18T06:57:10.405Z</time></trkpt><trkpt lat="43.5308913" lon="10.7852514"><ele>139.0</ele><time>2026-04-18T06:57:11.423Z</time></trkpt><trkpt lat="43.5308879" lon="10.7851296"><ele>139.0</ele><time>2026-04-18T06:57:12.437Z</time></trkpt><trkpt lat="43.5308756" lon="10.7850171"><ele>139.0</ele><time>2026-04-18T06:57:13.422Z</time></trkpt><trkpt lat="43.5308082" lon="10.7847509"><ele>139.0</ele><time>2026-04-18T06:57:15.426Z</time></trkpt><trkpt lat="43.530771" lon="10.7846247"><ele>139.0</ele><time>2026-04-18T06:57:16.409Z</time></trkpt><trkpt lat="43.5307291" lon="10.7844913"><ele>139.0</ele><time>2026-04-18T06:57:17.444Z</time></trkpt><trkpt lat="43.5307004" lon="10.784378"><ele>139.0</ele><time>2026-04-18T06:57:18.411Z</time></trkpt><trkpt lat="43.5306756" lon="10.7842785"><ele>139.0</ele><time>2026-04-18T06:57:19.428Z</time></trkpt><trkpt lat="43.5306141" lon="10.7841462"><ele>139.0</ele><time>2026-04-18T06:57:21.435Z</time></trkpt><trkpt lat="43.5305271" lon="10.7841095"><ele>139.0</ele><time>2026-04-18T06:57:23.318Z</time></trkpt><trkpt lat="43.5304497" lon="10.7841125"><ele>139.0</ele><time>2026-04-18T06:57:25.411Z</time></trkpt><trkpt lat="43.5303741" lon="10.7841971"><ele>138.2</ele><time>2026-04-18T06:57:26.393Z</time></trkpt><trkpt lat="43.5303205" lon="10.7842788"><ele>137.4</ele><time>2026-04-18T06:57:27.321Z</time></trkpt><trkpt lat="43.5302589" lon="10.7843588"><ele>136.6</ele><time>2026-04-18T06:57:28.317Z</time></trkpt><trkpt lat="43.5301921" lon="10.7844416"><ele>135.8</ele><time>2026-04-18T06:57:29.425Z</time></trkpt><trkpt lat="43.5301259" lon="10.7845254"><ele>135.0</ele><time>2026-04-18T06:57:30.425Z</time></trkpt><trkpt lat="43.529988" lon="10.7846556"><ele>135.0</ele><time>2026-04-18T06:57:32.435Z</time></trkpt><trkpt lat="43.5299104" lon="10.7847027"><ele>135.0</ele><time>2026-04-18T06:57:33.438Z</time></trkpt><trkpt lat="43.5298278" lon="10.7847292"><ele>135.0</ele><time>2026-04-18T06:57:34.428Z</time></trkpt><trkpt lat="43.5297371" lon="10.7847415"><ele>135.0</ele><time>2026-04-18T06:57:35.405Z</time></trkpt><trkpt lat="43.5296314" lon="10.7847541"><ele>135.0</ele><time>2026-04-18T06:57:36.439Z</time></trkpt><trkpt lat="43.5295239" lon="10.7847613"><ele>129.5</ele><time>2026-04-18T06:57:37.437Z</time></trkpt><trkpt lat="43.5293033" lon="10.7847458"><ele>124.0</ele><time>2026-04-18T06:57:39.322Z</time></trkpt><trkpt lat="43.5291885" lon="10.7847256"><ele>118.5</ele><time>2026-04-18T06:57:40.315Z</time></trkpt><trkpt lat="43.5290781" lon="10.7847023"><ele>113.0</ele><time>2026-04-18T06:57:41.324Z</time></trkpt><trkpt lat="43.5289691" lon="10.7846775"><ele>113.0</ele><time>2026-04-18T06:57:42.325Z</time></trkpt><trkpt lat="43.5288671" lon="10.7846517"><ele>113.00000000000001</ele><time>2026-04-18T06:57:43.316Z</time></trkpt><trkpt lat="43.5287673" lon="10.7846367"><ele>113.00000000000001</ele><time>2026-04-18T06:57:44.318Z</time></trkpt><trkpt lat="43.5286662" lon="10.7846282"><ele>113.0</ele><time>2026-04-18T06:57:45.322Z</time></trkpt><trkpt lat="43.5285698" lon="10.7846364"><ele>113.0</ele><time>2026-04-18T06:57:46.321Z</time></trkpt><trkpt lat="43.5284754" lon="10.7846547"><ele>110.60000000000001</ele><time>2026-04-18T06:57:47.317Z</time></trkpt><trkpt lat="43.5283781" lon="10.7846773"><ele>108.20000000000002</ele><time>2026-04-18T06:57:48.315Z</time></trkpt><trkpt lat="43.5282756" lon="10.7846957"><ele>105.8</ele><time>2026-04-18T06:57:49.317Z</time></trkpt><trkpt lat="43.528169" lon="10.7847105"><ele>103.4</ele><time>2026-04-18T06:57:50.438Z</time></trkpt><trkpt lat="43.5280653" lon="10.7847096"><ele>101.0</ele><time>2026-04-18T06:57:51.413Z</time></trkpt><trkpt lat="43.5279616" lon="10.7846989"><ele>98.6</ele><time>2026-04-18T06:57:52.436Z</time></trkpt><trkpt lat="43.5278625" lon="10.784686"><ele>96.19999999999999</ele><time>2026-04-18T06:57:53.437Z</time></trkpt><trkpt lat="43.5277683" lon="10.7846706"><ele>93.80000000000001</ele><time>2026-04-18T06:57:54.413Z</time></trkpt><trkpt lat="43.5276819" lon="10.7846556"><ele>91.4</ele><time>2026-04-18T06:57:55.424Z</time></trkpt><trkpt lat="43.5275937" lon="10.784634"><ele>89.0</ele><time>2026-04-18T06:57:56.414Z</time></trkpt><trkpt lat="43.5275093" lon="10.7845975"><ele>89.0</ele><time>2026-04-18T06:57:57.437Z</time></trkpt><trkpt lat="43.527428" lon="10.7845483"><ele>89.0</ele><time>2026-04-18T06:57:58.415Z</time></trkpt><trkpt lat="43.5273512" lon="10.7844836"><ele>89.0</ele><time>2026-04-18T06:57:59.437Z</time></trkpt><trkpt lat="43.5272876" lon="10.7844028"><ele>89.0</ele><time>2026-04-18T06:58:00.434Z</time></trkpt><trkpt lat="43.5272266" lon="10.7843081"><ele>89.0</ele><time>2026-04-18T06:58:02.359Z</time></trkpt><trkpt lat="43.5271055" lon="10.7840714"><ele>89.4</ele><time>2026-04-18T06:58:03.319Z</time></trkpt><trkpt lat="43.5270399" lon="10.7839453"><ele>89.80000000000001</ele><time>2026-04-18T06:58:04.322Z</time></trkpt><trkpt lat="43.526971" lon="10.7838209"><ele>90.19999999999999</ele><time>2026-04-18T06:58:05.432Z</time></trkpt><trkpt lat="43.5269025" lon="10.7836987"><ele>90.6</ele><time>2026-04-18T06:58:06.412Z</time></trkpt><trkpt lat="43.5268332" lon="10.7835815"><ele>91.0</ele><time>2026-04-18T06:58:07.324Z</time></trkpt><trkpt lat="43.5267669" lon="10.7834679"><ele>90.19999999999999</ele><time>2026-04-18T06:58:08.322Z</time></trkpt><trkpt lat="43.5267041" lon="10.7833594"><ele>89.39999999999999</ele><time>2026-04-18T06:58:09.412Z</time></trkpt><trkpt lat="43.5266508" lon="10.7832473"><ele>88.6</ele><time>2026-04-18T06:58:10.323Z</time></trkpt><trkpt lat="43.5266029" lon="10.783134"><ele>87.8</ele><time>2026-04-18T06:58:11.325Z</time></trkpt><trkpt lat="43.5265594" lon="10.7830102"><ele>87.0</ele><time>2026-04-18T06:58:12.314Z</time></trkpt><trkpt lat="43.5265176" lon="10.7828802"><ele>87.0</ele><time>2026-04-18T06:58:13.311Z</time></trkpt><trkpt lat="43.5264715" lon="10.7827476"><ele>87.0</ele><time>2026-04-18T06:58:14.323Z</time></trkpt><trkpt lat="43.5264266" lon="10.7826085"><ele>87.0</ele><time>2026-04-18T06:58:15.32Z</time></trkpt><trkpt lat="43.5263802" lon="10.7824646"><ele>87.0</ele><time>2026-04-18T06:58:16.32Z</time></trkpt><trkpt lat="43.5263338" lon="10.7823147"><ele>87.0</ele><time>2026-04-18T06:58:17.427Z</time></trkpt><trkpt lat="43.5262899" lon="10.7821639"><ele>84.75</ele><time>2026-04-18T06:58:18.438Z</time></trkpt><trkpt lat="43.5262471" lon="10.7820148"><ele>82.5</ele><time>2026-04-18T06:58:19.429Z</time></trkpt><trkpt lat="43.5262053" lon="10.7818642"><ele>80.25</ele><time>2026-04-18T06:58:20.411Z</time></trkpt><trkpt lat="43.5261627" lon="10.7817193"><ele>78.0</ele><time>2026-04-18T06:58:21.38Z</time></trkpt><trkpt lat="43.5261222" lon="10.7815879"><ele>76.5</ele><time>2026-04-18T06:58:22.428Z</time></trkpt><trkpt lat="43.5260841" lon="10.7814699"><ele>75.0</ele><time>2026-04-18T06:58:23.413Z</time></trkpt><trkpt lat="43.5260567" lon="10.7813732"><ele>73.5</ele><time>2026-04-18T06:58:24.434Z</time></trkpt><trkpt lat="43.5260149" lon="10.7812595"><ele>72.0</ele><time>2026-04-18T06:58:26.437Z</time></trkpt><trkpt lat="43.5259224" lon="10.781244"><ele>70.5</ele><time>2026-04-18T06:58:29.319Z</time></trkpt><trkpt lat="43.5258627" lon="10.7812847"><ele>69.0</ele><time>2026-04-18T06:58:30.329Z</time></trkpt><trkpt lat="43.5257945" lon="10.7813477"><ele>69.0</ele><time>2026-04-18T06:58:31.319Z</time></trkpt><trkpt lat="43.5257134" lon="10.7814257"><ele>69.0</ele><time>2026-04-18T06:58:32.32Z</time></trkpt><trkpt lat="43.5256249" lon="10.7815103"><ele>69.0</ele><time>2026-04-18T06:58:33.32Z</time></trkpt><trkpt lat="43.5255295" lon="10.7816069"><ele>69.0</ele><time>2026-04-18T06:58:34.316Z</time></trkpt><trkpt lat="43.5254277" lon="10.7817069"><ele>69.5</ele><time>2026-04-18T06:58:35.433Z</time></trkpt><trkpt lat="43.5253219" lon="10.7818093"><ele>70.0</ele><time>2026-04-18T06:58:36.435Z</time></trkpt><trkpt lat="43.5252124" lon="10.7819196"><ele>70.5</ele><time>2026-04-18T06:58:37.442Z</time></trkpt><trkpt lat="43.5250969" lon="10.7820323"><ele>71.0</ele><time>2026-04-18T06:58:38.437Z</time></trkpt><trkpt lat="43.5249802" lon="10.7821544"><ele>71.0</ele><time>2026-04-18T06:58:39.409Z</time></trkpt><trkpt lat="43.5248668" lon="10.7822827"><ele>71.0</ele><time>2026-04-18T06:58:40.419Z</time></trkpt><trkpt lat="43.5247478" lon="10.7824419"><ele>71.0</ele><time>2026-04-18T06:58:41.429Z</time></trkpt><trkpt lat="43.5246337" lon="10.7826364"><ele>69.0</ele><time>2026-04-18T06:58:42.434Z</time></trkpt><trkpt lat="43.5245247" lon="10.7828598"><ele>67.0</ele><time>2026-04-18T06:58:43.413Z</time></trkpt><trkpt lat="43.5244258" lon="10.7830844"><ele>65.0</ele><time>2026-04-18T06:58:44.413Z</time></trkpt><trkpt lat="43.5243333" lon="10.7832919"><ele>65.0</ele><time>2026-04-18T06:58:45.442Z</time></trkpt><trkpt lat="43.5241445" lon="10.783695"><ele>65.0</ele><time>2026-04-18T06:58:47.315Z</time></trkpt><trkpt lat="43.5240491" lon="10.7838896"><ele>65.0</ele><time>2026-04-18T06:58:48.323Z</time></trkpt><trkpt lat="43.5239599" lon="10.7840679"><ele>65.0</ele><time>2026-04-18T06:58:49.431Z</time></trkpt><trkpt lat="43.5238725" lon="10.7842156"><ele>65.0</ele><time>2026-04-18T06:58:50.431Z</time></trkpt><trkpt lat="43.5237639" lon="10.7843571"><ele>65.0</ele><time>2026-04-18T06:58:51.406Z</time></trkpt><trkpt lat="43.5236337" lon="10.7844627"><ele>66.33333333333334</ele><time>2026-04-18T06:58:52.435Z</time></trkpt><trkpt lat="43.5234963" lon="10.7845583"><ele>67.66666666666667</ele><time>2026-04-18T06:58:53.431Z</time></trkpt><trkpt lat="43.5233542" lon="10.7846463"><ele>69.0</ele><time>2026-04-18T06:58:54.411Z</time></trkpt><trkpt lat="43.5230676" lon="10.7848199"><ele>69.0</ele><time>2026-04-18T06:58:56.314Z</time></trkpt><trkpt lat="43.5229252" lon="10.7849073"><ele>69.0</ele><time>2026-04-18T06:58:57.319Z</time></trkpt><trkpt lat="43.5227834" lon="10.7849913"><ele>69.0</ele><time>2026-04-18T06:58:58.378Z</time></trkpt><trkpt lat="43.5226551" lon="10.7850687"><ele>69.0</ele><time>2026-04-18T06:58:59.323Z</time></trkpt><trkpt lat="43.5225612" lon="10.7851285"><ele>69.0</ele><time>2026-04-18T06:59:00.372Z</time></trkpt><trkpt lat="43.5224908" lon="10.7851701"><ele>69.0</ele><time>2026-04-18T06:59:01.319Z</time></trkpt><trkpt lat="43.5224021" lon="10.7852264"><ele>69.0</ele><time>2026-04-18T06:59:03.316Z</time></trkpt><trkpt lat="43.5223829" lon="10.7853363"><ele>69.0</ele><time>2026-04-18T06:59:06.429Z</time></trkpt><trkpt lat="43.5224457" lon="10.7854739"><ele>69.0</ele><time>2026-04-18T06:59:08.428Z</time></trkpt><trkpt lat="43.5224887" lon="10.7855625"><ele>69.0</ele><time>2026-04-18T06:59:09.426Z</time></trkpt><trkpt lat="43.5225285" lon="10.7856684"><ele>69.0</ele><time>2026-04-18T06:59:10.433Z</time></trkpt><trkpt lat="43.522569" lon="10.7859329"><ele>69.0</ele><time>2026-04-18T06:59:12.322Z</time></trkpt><trkpt lat="43.522569" lon="10.786081"><ele>69.25</ele><time>2026-04-18T06:59:13.323Z</time></trkpt><trkpt lat="43.5225691" lon="10.7862382"><ele>69.5</ele><time>2026-04-18T06:59:14.32Z</time></trkpt><trkpt lat="43.5225739" lon="10.7864067"><ele>69.75</ele><time>2026-04-18T06:59:15.435Z</time></trkpt><trkpt lat="43.5225859" lon="10.7865928"><ele>70.0</ele><time>2026-04-18T06:59:16.409Z</time></trkpt><trkpt lat="43.5226033" lon="10.7867821"><ele>70.66666666666666</ele><time>2026-04-18T06:59:17.409Z</time></trkpt><trkpt lat="43.5226278" lon="10.7869682"><ele>71.33333333333333</ele><time>2026-04-18T06:59:18.43Z</time></trkpt><trkpt lat="43.5226542" lon="10.7871631"><ele>72.0</ele><time>2026-04-18T06:59:19.44Z</time></trkpt><trkpt lat="43.5227118" lon="10.7875496"><ele>72.5</ele><time>2026-04-18T06:59:21.318Z</time></trkpt><trkpt lat="43.522736" lon="10.7877422"><ele>73.0</ele><time>2026-04-18T06:59:22.419Z</time></trkpt><trkpt lat="43.5227588" lon="10.7879357"><ele>73.5</ele><time>2026-04-18T06:59:23.433Z</time></trkpt><trkpt lat="43.5227836" lon="10.7881287"><ele>74.0</ele><time>2026-04-18T06:59:24.42Z</time></trkpt><trkpt lat="43.5228104" lon="10.788306"><ele>74.0</ele><time>2026-04-18T06:59:25.437Z</time></trkpt><trkpt lat="43.522835" lon="10.7884599"><ele>74.0</ele><time>2026-04-18T06:59:26.322Z</time></trkpt><trkpt lat="43.5228557" lon="10.7886216"><ele>74.0</ele><time>2026-04-18T06:59:27.439Z</time></trkpt><trkpt lat="43.5228791" lon="10.7887779"><ele>74.0</ele><time>2026-04-18T06:59:28.518Z</time></trkpt><trkpt lat="43.5229178" lon="10.7890364"><ele>75.66666666666667</ele><time>2026-04-18T06:59:30.337Z</time></trkpt><trkpt lat="43.5229327" lon="10.7891512"><ele>77.33333333333334</ele><time>2026-04-18T06:59:31.31Z</time></trkpt><trkpt lat="43.5229442" lon="10.7892426"><ele>79.0</ele><time>2026-04-18T06:59:32.322Z</time></trkpt><trkpt lat="43.5229717" lon="10.789378"><ele>80.66666666666667</ele><time>2026-04-18T06:59:34.321Z</time></trkpt><trkpt lat="43.5229953" lon="10.7894921"><ele>82.33333333333333</ele><time>2026-04-18T06:59:37.415Z</time></trkpt><trkpt lat="43.5230048" lon="10.789591"><ele>84.0</ele><time>2026-04-18T06:59:39.324Z</time></trkpt><trkpt lat="43.5230524" lon="10.7898046"><ele>85.2</ele><time>2026-04-18T06:59:42.432Z</time></trkpt><trkpt lat="43.5230897" lon="10.7899227"><ele>86.4</ele><time>2026-04-18T06:59:44.419Z</time></trkpt><trkpt lat="43.5231269" lon="10.7900375"><ele>87.6</ele><time>2026-04-18T06:59:46.417Z</time></trkpt><trkpt lat="43.5231533" lon="10.7901277"><ele>88.8</ele><time>2026-04-18T06:59:48.44Z</time></trkpt><trkpt lat="43.5231393" lon="10.7902386"><ele>90.0</ele><time>2026-04-18T06:59:50.433Z</time></trkpt><trkpt lat="43.523156" lon="10.7904035"><ele>90.5</ele><time>2026-04-18T06:59:52.322Z</time></trkpt><trkpt lat="43.5231693" lon="10.7905079"><ele>91.0</ele><time>2026-04-18T06:59:53.318Z</time></trkpt><trkpt lat="43.523187" lon="10.7906195"><ele>91.5</ele><time>2026-04-18T06:59:54.421Z</time></trkpt><trkpt lat="43.523198" lon="10.7907391"><ele>92.0</ele><time>2026-04-18T06:59:55.429Z</time></trkpt><trkpt lat="43.5232121" lon="10.7908558"><ele>92.5</ele><time>2026-04-18T06:59:56.43Z</time></trkpt><trkpt lat="43.5232377" lon="10.7909706"><ele>93.0</ele><time>2026-04-18T06:59:57.411Z</time></trkpt><trkpt lat="43.5232814" lon="10.7910751"><ele>93.0</ele><time>2026-04-18T06:59:58.429Z</time></trkpt><trkpt lat="43.5233374" lon="10.7911709"><ele>93.0</ele><time>2026-04-18T06:59:59.418Z</time></trkpt><trkpt lat="43.5234074" lon="10.7912701"><ele>93.0</ele><time>2026-04-18T07:00:00.413Z</time></trkpt><trkpt lat="43.5234728" lon="10.7913785"><ele>93.0</ele><time>2026-04-18T07:00:01.42Z</time></trkpt><trkpt lat="43.5235309" lon="10.7914759"><ele>93.0</ele><time>2026-04-18T07:00:02.428Z</time></trkpt><trkpt lat="43.523588" lon="10.7915706"><ele>93.0</ele><time>2026-04-18T07:00:03.419Z</time></trkpt><trkpt lat="43.5236402" lon="10.7916723"><ele>93.0</ele><time>2026-04-18T07:00:04.389Z</time></trkpt><trkpt lat="43.523675" lon="10.7917873"><ele>93.0</ele><time>2026-04-18T07:00:05.411Z</time></trkpt><trkpt lat="43.5236908" lon="10.7919026"><ele>93.0</ele><time>2026-04-18T07:00:06.322Z</time></trkpt><trkpt lat="43.5236912" lon="10.7920305"><ele>93.0</ele><time>2026-04-18T07:00:07.423Z</time></trkpt><trkpt lat="43.5236771" lon="10.7921679"><ele>93.0</ele><time>2026-04-18T07:00:08.417Z</time></trkpt><trkpt lat="43.5236543" lon="10.7923048"><ele>93.0</ele><time>2026-04-18T07:00:09.424Z</time></trkpt><trkpt lat="43.5235855" lon="10.7925993"><ele>93.0</ele><time>2026-04-18T07:00:11.423Z</time></trkpt><trkpt lat="43.5235512" lon="10.7927569"><ele>93.0</ele><time>2026-04-18T07:00:13.006Z</time></trkpt><trkpt lat="43.5235064" lon="10.7931245"><ele>93.75</ele><time>2026-04-18T07:00:14.414Z</time></trkpt><trkpt lat="43.5234994" lon="10.7933175"><ele>94.5</ele><time>2026-04-18T07:00:15.32Z</time></trkpt><trkpt lat="43.5234989" lon="10.7935005"><ele>95.25</ele><time>2026-04-18T07:00:16.414Z</time></trkpt><trkpt lat="43.5234988" lon="10.7936855"><ele>96.0</ele><time>2026-04-18T07:00:17.322Z</time></trkpt><trkpt lat="43.5235003" lon="10.7938708"><ele>96.0</ele><time>2026-04-18T07:00:18.449Z</time></trkpt><trkpt lat="43.5234945" lon="10.7940624"><ele>96.0</ele><time>2026-04-18T07:00:19.413Z</time></trkpt><trkpt lat="43.5234813" lon="10.7942582"><ele>96.0</ele><time>2026-04-18T07:00:20.422Z</time></trkpt><trkpt lat="43.5234672" lon="10.7944564"><ele>96.0</ele><time>2026-04-18T07:00:21.434Z</time></trkpt><trkpt lat="43.5234521" lon="10.7946398"><ele>96.0</ele><time>2026-04-18T07:00:22.429Z</time></trkpt><trkpt lat="43.5234436" lon="10.7948006"><ele>96.0</ele><time>2026-04-18T07:00:23.44Z</time></trkpt><trkpt lat="43.5234441" lon="10.7949535"><ele>96.0</ele><time>2026-04-18T07:00:24.439Z</time></trkpt><trkpt lat="43.5234759" lon="10.7952466"><ele>96.0</ele><time>2026-04-18T07:00:26.328Z</time></trkpt><trkpt lat="43.5235092" lon="10.7954075"><ele>95.0</ele><time>2026-04-18T07:00:27.307Z</time></trkpt><trkpt lat="43.5235466" lon="10.7955748"><ele>94.0</ele><time>2026-04-18T07:00:28.313Z</time></trkpt><trkpt lat="43.5235914" lon="10.7957427"><ele>93.0</ele><time>2026-04-18T07:00:29.308Z</time></trkpt><trkpt lat="43.5236459" lon="10.795917"><ele>92.0</ele><time>2026-04-18T07:00:30.315Z</time></trkpt><trkpt lat="43.523708" lon="10.7960945"><ele>92.5</ele><time>2026-04-18T07:00:31.32Z</time></trkpt><trkpt lat="43.5237746" lon="10.7962707"><ele>93.0</ele><time>2026-04-18T07:00:32.317Z</time></trkpt><trkpt lat="43.523832" lon="10.7964563"><ele>93.5</ele><time>2026-04-18T07:00:33.307Z</time></trkpt><trkpt lat="43.5238803" lon="10.796653"><ele>94.0</ele><time>2026-04-18T07:00:34.433Z</time></trkpt><trkpt lat="43.5239166" lon="10.7968509"><ele>94.0</ele><time>2026-04-18T07:00:35.438Z</time></trkpt><trkpt lat="43.5239706" lon="10.7972702"><ele>94.0</ele><time>2026-04-18T07:00:37.313Z</time></trkpt><trkpt lat="43.52399" lon="10.7974859"><ele>95.33333333333333</ele><time>2026-04-18T07:00:38.324Z</time></trkpt><trkpt lat="43.5240089" lon="10.7977066"><ele>96.66666666666666</ele><time>2026-04-18T07:00:39.428Z</time></trkpt><trkpt lat="43.5240289" lon="10.797932"><ele>98.0</ele><time>2026-04-18T07:00:40.42Z</time></trkpt><trkpt lat="43.5240507" lon="10.7981583"><ele>98.0</ele><time>2026-04-18T07:00:41.429Z</time></trkpt><trkpt lat="43.5240757" lon="10.798362"><ele>98.0</ele><time>2026-04-18T07:00:42.434Z</time></trkpt><trkpt lat="43.5241081" lon="10.7985609"><ele>98.0</ele><time>2026-04-18T07:00:43.438Z</time></trkpt><trkpt lat="43.5241432" lon="10.7987617"><ele>98.0</ele><time>2026-04-18T07:00:44.403Z</time></trkpt><trkpt lat="43.524177" lon="10.7989736"><ele>98.75</ele><time>2026-04-18T07:00:45.418Z</time></trkpt><trkpt lat="43.5242034" lon="10.7991617"><ele>99.5</ele><time>2026-04-18T07:00:46.413Z</time></trkpt><trkpt lat="43.5242226" lon="10.799363"><ele>100.25</ele><time>2026-04-18T07:00:47.327Z</time></trkpt><trkpt lat="43.5242267" lon="10.7995529"><ele>101.0</ele><time>2026-04-18T07:00:48.422Z</time></trkpt><trkpt lat="43.5242128" lon="10.7997262"><ele>100.66666666666666</ele><time>2026-04-18T07:00:49.43Z</time></trkpt><trkpt lat="43.5241769" lon="10.8000869"><ele>100.33333333333334</ele><time>2026-04-18T07:00:51.316Z</time></trkpt><trkpt lat="43.5241629" lon="10.8002808"><ele>100.0</ele><time>2026-04-18T07:00:52.32Z</time></trkpt><trkpt lat="43.5241534" lon="10.8004698"><ele>100.0</ele><time>2026-04-18T07:00:53.32Z</time></trkpt><trkpt lat="43.5241441" lon="10.8006433"><ele>100.0</ele><time>2026-04-18T07:00:54.39Z</time></trkpt><trkpt lat="43.5241311" lon="10.8008095"><ele>100.0</ele><time>2026-04-18T07:00:55.321Z</time></trkpt><trkpt lat="43.5241069" lon="10.8009675"><ele>100.0</ele><time>2026-04-18T07:00:56.319Z</time></trkpt><trkpt lat="43.5240704" lon="10.8011333"><ele>98.5</ele><time>2026-04-18T07:00:57.32Z</time></trkpt><trkpt lat="43.5240165" lon="10.8013022"><ele>97.0</ele><time>2026-04-18T07:00:58.321Z</time></trkpt><trkpt lat="43.5239504" lon="10.8014715"><ele>95.5</ele><time>2026-04-18T07:00:59.324Z</time></trkpt><trkpt lat="43.5238843" lon="10.8016304"><ele>94.0</ele><time>2026-04-18T07:01:00.32Z</time></trkpt><trkpt lat="43.5238169" lon="10.8017752"><ele>94.0</ele><time>2026-04-18T07:01:01.418Z</time></trkpt><trkpt lat="43.5237394" lon="10.801898"><ele>94.0</ele><time>2026-04-18T07:01:02.427Z</time></trkpt><trkpt lat="43.5236484" lon="10.8019982"><ele>94.0</ele><time>2026-04-18T07:01:03.412Z</time></trkpt><trkpt lat="43.5235464" lon="10.8020777"><ele>94.0</ele><time>2026-04-18T07:01:04.412Z</time></trkpt><trkpt lat="43.5234385" lon="10.8021412"><ele>96.25</ele><time>2026-04-18T07:01:05.317Z</time></trkpt><trkpt lat="43.5233377" lon="10.8022111"><ele>98.5</ele><time>2026-04-18T07:01:06.435Z</time></trkpt><trkpt lat="43.5232492" lon="10.8022827"><ele>100.75</ele><time>2026-04-18T07:01:07.412Z</time></trkpt><trkpt lat="43.5231737" lon="10.8023573"><ele>103.0</ele><time>2026-04-18T07:01:08.431Z</time></trkpt><trkpt lat="43.5230594" lon="10.8025288"><ele>103.00000000000001</ele><time>2026-04-18T07:01:10.318Z</time></trkpt><trkpt lat="43.5230184" lon="10.8026373"><ele>103.0</ele><time>2026-04-18T07:01:11.321Z</time></trkpt><trkpt lat="43.5229893" lon="10.8027575"><ele>103.0</ele><time>2026-04-18T07:01:12.319Z</time></trkpt><trkpt lat="43.5229686" lon="10.8028856"><ele>103.0</ele><time>2026-04-18T07:01:13.322Z</time></trkpt><trkpt lat="43.5229518" lon="10.8029998"><ele>103.00000000000001</ele><time>2026-04-18T07:01:14.317Z</time></trkpt><trkpt lat="43.5229318" lon="10.8031194"><ele>103.0</ele><time>2026-04-18T07:01:15.316Z</time></trkpt><trkpt lat="43.5229181" lon="10.8032452"><ele>103.60000000000001</ele><time>2026-04-18T07:01:16.307Z</time></trkpt><trkpt lat="43.5229153" lon="10.8033685"><ele>104.2</ele><time>2026-04-18T07:01:17.321Z</time></trkpt><trkpt lat="43.5229215" lon="10.8034911"><ele>104.8</ele><time>2026-04-18T07:01:18.317Z</time></trkpt><trkpt lat="43.5229414" lon="10.8036223"><ele>105.4</ele><time>2026-04-18T07:01:19.318Z</time></trkpt><trkpt lat="43.522975" lon="10.8037497"><ele>106.0</ele><time>2026-04-18T07:01:20.317Z</time></trkpt><trkpt lat="43.5230212" lon="10.8038773"><ele>106.0</ele><time>2026-04-18T07:01:21.318Z</time></trkpt><trkpt lat="43.5230825" lon="10.8040104"><ele>106.0</ele><time>2026-04-18T07:01:22.313Z</time></trkpt><trkpt lat="43.5231542" lon="10.8041527"><ele>106.0</ele><time>2026-04-18T07:01:23.451Z</time></trkpt><trkpt lat="43.5232909" lon="10.8044568"><ele>104.5</ele><time>2026-04-18T07:01:25.314Z</time></trkpt><trkpt lat="43.5233529" lon="10.8046187"><ele>103.0</ele><time>2026-04-18T07:01:26.319Z</time></trkpt><trkpt lat="43.5234208" lon="10.8047743"><ele>101.5</ele><time>2026-04-18T07:01:27.313Z</time></trkpt><trkpt lat="43.5234832" lon="10.8049323"><ele>100.0</ele><time>2026-04-18T07:01:28.322Z</time></trkpt><trkpt lat="43.523548" lon="10.8050943"><ele>99.75</ele><time>2026-04-18T07:01:29.322Z</time></trkpt><trkpt lat="43.5236039" lon="10.8052595"><ele>99.5</ele><time>2026-04-18T07:01:30.316Z</time></trkpt><trkpt lat="43.5236482" lon="10.8054368"><ele>99.25</ele><time>2026-04-18T07:01:31.448Z</time></trkpt><trkpt lat="43.5236839" lon="10.80562"><ele>99.0</ele><time>2026-04-18T07:01:32.45Z</time></trkpt><trkpt lat="43.5237546" lon="10.8059275"><ele>98.4</ele><time>2026-04-18T07:01:34.316Z</time></trkpt><trkpt lat="43.5237815" lon="10.8060588"><ele>97.80000000000001</ele><time>2026-04-18T07:01:35.446Z</time></trkpt><trkpt lat="43.523799" lon="10.8061824"><ele>97.19999999999999</ele><time>2026-04-18T07:01:36.447Z</time></trkpt><trkpt lat="43.5238013" lon="10.8063197"><ele>96.6</ele><time>2026-04-18T07:01:37.445Z</time></trkpt><trkpt lat="43.5237879" lon="10.8064572"><ele>96.0</ele><time>2026-04-18T07:01:38.454Z</time></trkpt><trkpt lat="43.5237675" lon="10.8065937"><ele>96.0</ele><time>2026-04-18T07:01:39.449Z</time></trkpt><trkpt lat="43.5237461" lon="10.806726"><ele>96.0</ele><time>2026-04-18T07:01:40.457Z</time></trkpt><trkpt lat="43.5237268" lon="10.8070094"><ele>96.0</ele><time>2026-04-18T07:01:42.322Z</time></trkpt><trkpt lat="43.5237366" lon="10.8071719"><ele>96.0</ele><time>2026-04-18T07:01:43.322Z</time></trkpt><trkpt lat="43.5237571" lon="10.8073356"><ele>96.0</ele><time>2026-04-18T07:01:44.32Z</time></trkpt><trkpt lat="43.5237931" lon="10.8074892"><ele>96.0</ele><time>2026-04-18T07:01:45.412Z</time></trkpt><trkpt lat="43.523844" lon="10.8076569"><ele>96.0</ele><time>2026-04-18T07:01:46.324Z</time></trkpt><trkpt lat="43.5239011" lon="10.8078211"><ele>96.0</ele><time>2026-04-18T07:01:47.323Z</time></trkpt><trkpt lat="43.5239594" lon="10.8079768"><ele>96.0</ele><time>2026-04-18T07:01:48.45Z</time></trkpt><trkpt lat="43.5240127" lon="10.8081292"><ele>96.0</ele><time>2026-04-18T07:01:49.448Z</time></trkpt><trkpt lat="43.524057" lon="10.8082769"><ele>96.0</ele><time>2026-04-18T07:01:50.456Z</time></trkpt><trkpt lat="43.5240777" lon="10.8084194"><ele>96.0</ele><time>2026-04-18T07:01:51.433Z</time></trkpt><trkpt lat="43.5240823" lon="10.8085734"><ele>97.0</ele><time>2026-04-18T07:01:52.422Z</time></trkpt><trkpt lat="43.5240762" lon="10.80874"><ele>98.0</ele><time>2026-04-18T07:01:53.45Z</time></trkpt><trkpt lat="43.5240629" lon="10.8089229"><ele>99.0</ele><time>2026-04-18T07:01:54.453Z</time></trkpt><trkpt lat="43.5240523" lon="10.8091003"><ele>100.0</ele><time>2026-04-18T07:01:55.457Z</time></trkpt><trkpt lat="43.5240524" lon="10.8092831"><ele>100.75</ele><time>2026-04-18T07:01:56.45Z</time></trkpt><trkpt lat="43.5240665" lon="10.8094754"><ele>101.5</ele><time>2026-04-18T07:01:57.472Z</time></trkpt><trkpt lat="43.5240897" lon="10.8096797"><ele>102.25</ele><time>2026-04-18T07:01:58.447Z</time></trkpt><trkpt lat="43.524111" lon="10.8098753"><ele>103.0</ele><time>2026-04-18T07:01:59.447Z</time></trkpt><trkpt lat="43.5241213" lon="10.8100501"><ele>103.33333333333334</ele><time>2026-04-18T07:02:00.418Z</time></trkpt><trkpt lat="43.5241155" lon="10.8102143"><ele>103.66666666666666</ele><time>2026-04-18T07:02:01.457Z</time></trkpt><trkpt lat="43.5240545" lon="10.8105699"><ele>104.0</ele><time>2026-04-18T07:02:03.308Z</time></trkpt><trkpt lat="43.5240169" lon="10.810757"><ele>104.0</ele><time>2026-04-18T07:02:04.306Z</time></trkpt><trkpt lat="43.523989" lon="10.8109373"><ele>104.0</ele><time>2026-04-18T07:02:05.317Z</time></trkpt><trkpt lat="43.5239638" lon="10.8111078"><ele>104.0</ele><time>2026-04-18T07:02:06.303Z</time></trkpt><trkpt lat="43.5239269" lon="10.8112742"><ele>104.0</ele><time>2026-04-18T07:02:07.321Z</time></trkpt><trkpt lat="43.5238775" lon="10.8114297"><ele>103.5</ele><time>2026-04-18T07:02:08.318Z</time></trkpt><trkpt lat="43.5238154" lon="10.8115689"><ele>103.0</ele><time>2026-04-18T07:02:09.318Z</time></trkpt><trkpt lat="43.5237393" lon="10.8116734"><ele>102.5</ele><time>2026-04-18T07:02:10.318Z</time></trkpt><trkpt lat="43.5236525" lon="10.8117818"><ele>102.0</ele><time>2026-04-18T07:02:11.319Z</time></trkpt><trkpt lat="43.5235728" lon="10.8118823"><ele>104.8</ele><time>2026-04-18T07:02:12.315Z</time></trkpt><trkpt lat="43.5234922" lon="10.8119576"><ele>107.6</ele><time>2026-04-18T07:02:13.425Z</time></trkpt><trkpt lat="43.5234132" lon="10.8120102"><ele>110.39999999999999</ele><time>2026-04-18T07:02:14.414Z</time></trkpt><trkpt lat="43.5233289" lon="10.8120611"><ele>113.19999999999999</ele><time>2026-04-18T07:02:15.421Z</time></trkpt><trkpt lat="43.523243" lon="10.8121092"><ele>116.0</ele><time>2026-04-18T07:02:16.437Z</time></trkpt><trkpt lat="43.5231557" lon="10.8121522"><ele>116.0</ele><time>2026-04-18T07:02:17.438Z</time></trkpt><trkpt lat="43.5230746" lon="10.8122432"><ele>116.0</ele><time>2026-04-18T07:02:18.412Z</time></trkpt><trkpt lat="43.5230059" lon="10.8123599"><ele>116.0</ele><time>2026-04-18T07:02:19.432Z</time></trkpt><trkpt lat="43.5229534" lon="10.8124824"><ele>116.0</ele><time>2026-04-18T07:02:20.419Z</time></trkpt><trkpt lat="43.5229022" lon="10.8126142"><ele>116.0</ele><time>2026-04-18T07:02:21.432Z</time></trkpt><trkpt lat="43.5228451" lon="10.812748"><ele>117.5</ele><time>2026-04-18T07:02:22.435Z</time></trkpt><trkpt lat="43.5227938" lon="10.8129049"><ele>119.0</ele><time>2026-04-18T07:02:23.439Z</time></trkpt><trkpt lat="43.5227579" lon="10.8130602"><ele>120.5</ele><time>2026-04-18T07:02:24.431Z</time></trkpt><trkpt lat="43.5226698" lon="10.813164"><ele>122.0</ele><time>2026-04-18T07:02:25.434Z</time></trkpt><trkpt lat="43.5224565" lon="10.8133581"><ele>122.0</ele><time>2026-04-18T07:02:27.313Z</time></trkpt><trkpt lat="43.5223558" lon="10.8134557"><ele>121.99999999999999</ele><time>2026-04-18T07:02:28.323Z</time></trkpt><trkpt lat="43.5222574" lon="10.8135436"><ele>121.99999999999999</ele><time>2026-04-18T07:02:29.319Z</time></trkpt><trkpt lat="43.5221723" lon="10.8136305"><ele>122.0</ele><time>2026-04-18T07:02:30.32Z</time></trkpt><trkpt lat="43.522114" lon="10.8137143"><ele>122.0</ele><time>2026-04-18T07:02:31.315Z</time></trkpt><trkpt lat="43.5220608" lon="10.8138044"><ele>123.5</ele><time>2026-04-18T07:02:32.32Z</time></trkpt><trkpt lat="43.522047" lon="10.8138951"><ele>125.0</ele><time>2026-04-18T07:02:33.419Z</time></trkpt><trkpt lat="43.522016" lon="10.8139881"><ele>126.5</ele><time>2026-04-18T07:02:34.443Z</time></trkpt><trkpt lat="43.5219472" lon="10.8142414"><ele>128.0</ele><time>2026-04-18T07:02:36.32Z</time></trkpt><trkpt lat="43.5219119" lon="10.8143891"><ele>128.0</ele><time>2026-04-18T07:02:37.324Z</time></trkpt><trkpt lat="43.5218496" lon="10.8145307"><ele>128.0</ele><time>2026-04-18T07:02:38.305Z</time></trkpt><trkpt lat="43.5217917" lon="10.8146666"><ele>128.0</ele><time>2026-04-18T07:02:39.318Z</time></trkpt><trkpt lat="43.5217599" lon="10.8148204"><ele>128.0</ele><time>2026-04-18T07:02:40.317Z</time></trkpt><trkpt lat="43.5217265" lon="10.8149579"><ele>127.75</ele><time>2026-04-18T07:02:41.319Z</time></trkpt><trkpt lat="43.5217461" lon="10.815155"><ele>127.5</ele><time>2026-04-18T07:02:42.318Z</time></trkpt><trkpt lat="43.5217339" lon="10.8153213"><ele>127.25</ele><time>2026-04-18T07:02:43.32Z</time></trkpt><trkpt lat="43.5217243" lon="10.8154703"><ele>127.0</ele><time>2026-04-18T07:02:44.314Z</time></trkpt><trkpt lat="43.5217286" lon="10.8155957"><ele>127.0</ele><time>2026-04-18T07:02:45.418Z</time></trkpt><trkpt lat="43.5217336" lon="10.8157355"><ele>126.99999999999999</ele><time>2026-04-18T07:02:46.401Z</time></trkpt><trkpt lat="43.5217415" lon="10.8158654"><ele>126.99999999999999</ele><time>2026-04-18T07:02:47.411Z</time></trkpt><trkpt lat="43.521786" lon="10.8159855"><ele>127.0</ele><time>2026-04-18T07:02:48.421Z</time></trkpt><trkpt lat="43.5218428" lon="10.8161136"><ele>127.0</ele><time>2026-04-18T07:02:49.411Z</time></trkpt><trkpt lat="43.5219138" lon="10.8162318"><ele>126.25</ele><time>2026-04-18T07:02:50.41Z</time></trkpt><trkpt lat="43.5220071" lon="10.816366"><ele>125.5</ele><time>2026-04-18T07:02:51.322Z</time></trkpt><trkpt lat="43.5220632" lon="10.8165172"><ele>124.75</ele><time>2026-04-18T07:02:52.325Z</time></trkpt><trkpt lat="43.5221016" lon="10.8166421"><ele>124.0</ele><time>2026-04-18T07:02:53.321Z</time></trkpt><trkpt lat="43.5221053" lon="10.81678"><ele>123.75</ele><time>2026-04-18T07:02:54.415Z</time></trkpt><trkpt lat="43.5221054" lon="10.816913"><ele>123.5</ele><time>2026-04-18T07:02:55.397Z</time></trkpt><trkpt lat="43.5220861" lon="10.8170541"><ele>123.25</ele><time>2026-04-18T07:02:56.444Z</time></trkpt><trkpt lat="43.5220486" lon="10.8172124"><ele>123.0</ele><time>2026-04-18T07:02:57.435Z</time></trkpt><trkpt lat="43.5219459" lon="10.8175397"><ele>125.0</ele><time>2026-04-18T07:02:59.317Z</time></trkpt><trkpt lat="43.5218923" lon="10.8176845"><ele>127.0</ele><time>2026-04-18T07:03:00.315Z</time></trkpt><trkpt lat="43.5218425" lon="10.8178177"><ele>129.0</ele><time>2026-04-18T07:03:01.314Z</time></trkpt><trkpt lat="43.5217769" lon="10.8179428"><ele>131.0</ele><time>2026-04-18T07:03:02.318Z</time></trkpt><trkpt lat="43.5216981" lon="10.8180587"><ele>131.0</ele><time>2026-04-18T07:03:03.317Z</time></trkpt><trkpt lat="43.5216058" lon="10.8181755"><ele>131.0</ele><time>2026-04-18T07:03:04.315Z</time></trkpt><trkpt lat="43.521512" lon="10.8182947"><ele>131.0</ele><time>2026-04-18T07:03:05.414Z</time></trkpt><trkpt lat="43.5214253" lon="10.8183773"><ele>131.0</ele><time>2026-04-18T07:03:06.438Z</time></trkpt><trkpt lat="43.5213595" lon="10.8184643"><ele>131.0</ele><time>2026-04-18T07:03:07.42Z</time></trkpt><trkpt lat="43.5212982" lon="10.8185812"><ele>130.0</ele><time>2026-04-18T07:03:09.42Z</time></trkpt><trkpt lat="43.5212585" lon="10.8187197"><ele>129.0</ele><time>2026-04-18T07:03:11.322Z</time></trkpt><trkpt lat="43.5212509" lon="10.8188074"><ele>128.0</ele><time>2026-04-18T07:03:12.328Z</time></trkpt><trkpt lat="43.5212381" lon="10.818947"><ele>127.0</ele><time>2026-04-18T07:03:13.414Z</time></trkpt><trkpt lat="43.5212851" lon="10.8190831"><ele>126.0</ele><time>2026-04-18T07:03:14.321Z</time></trkpt><trkpt lat="43.5213203" lon="10.8192015"><ele>126.0</ele><time>2026-04-18T07:03:15.329Z</time></trkpt><trkpt lat="43.5213583" lon="10.8192968"><ele>126.0</ele><time>2026-04-18T07:03:16.438Z</time></trkpt><trkpt lat="43.5214173" lon="10.8194774"><ele>126.0</ele><time>2026-04-18T07:03:18.43Z</time></trkpt><trkpt lat="43.5214386" lon="10.8195784"><ele>126.0</ele><time>2026-04-18T07:03:19.433Z</time></trkpt><trkpt lat="43.5214442" lon="10.8196822"><ele>126.0</ele><time>2026-04-18T07:03:20.387Z</time></trkpt><trkpt lat="43.5214305" lon="10.8198072"><ele>124.16666666666667</ele><time>2026-04-18T07:03:21.431Z</time></trkpt><trkpt lat="43.5214063" lon="10.8199159"><ele>122.33333333333334</ele><time>2026-04-18T07:03:22.413Z</time></trkpt><trkpt lat="43.521379" lon="10.8200092"><ele>120.5</ele><time>2026-04-18T07:03:23.415Z</time></trkpt><trkpt lat="43.5213444" lon="10.8201192"><ele>118.66666666666667</ele><time>2026-04-18T07:03:24.413Z</time></trkpt><trkpt lat="43.5213131" lon="10.8202321"><ele>116.83333333333334</ele><time>2026-04-18T07:03:25.439Z</time></trkpt><trkpt lat="43.5212955" lon="10.8203564"><ele>115.0</ele><time>2026-04-18T07:03:26.407Z</time></trkpt><trkpt lat="43.5212934" lon="10.8204927"><ele>113.0</ele><time>2026-04-18T07:03:27.442Z</time></trkpt><trkpt lat="43.5213019" lon="10.8206419"><ele>111.0</ele><time>2026-04-18T07:03:28.446Z</time></trkpt><trkpt lat="43.5213097" lon="10.8208023"><ele>109.0</ele><time>2026-04-18T07:03:29.418Z</time></trkpt><trkpt lat="43.5213164" lon="10.8209712"><ele>107.0</ele><time>2026-04-18T07:03:30.439Z</time></trkpt><trkpt lat="43.5213277" lon="10.8211429"><ele>106.33333333333333</ele><time>2026-04-18T07:03:31.425Z</time></trkpt><trkpt lat="43.5213507" lon="10.821495"><ele>105.66666666666666</ele><time>2026-04-18T07:03:33.314Z</time></trkpt><trkpt lat="43.521361" lon="10.8216646"><ele>105.0</ele><time>2026-04-18T07:03:34.317Z</time></trkpt><trkpt lat="43.5213657" lon="10.8218199"><ele>104.8</ele><time>2026-04-18T07:03:35.315Z</time></trkpt><trkpt lat="43.5213692" lon="10.8219635"><ele>104.6</ele><time>2026-04-18T07:03:36.315Z</time></trkpt><trkpt lat="43.5213749" lon="10.8220954"><ele>104.4</ele><time>2026-04-18T07:03:37.322Z</time></trkpt><trkpt lat="43.5213822" lon="10.8222048"><ele>104.2</ele><time>2026-04-18T07:03:38.322Z</time></trkpt><trkpt lat="43.5213917" lon="10.8223057"><ele>104.0</ele><time>2026-04-18T07:03:39.315Z</time></trkpt><trkpt lat="43.5214055" lon="10.8224567"><ele>104.0</ele><time>2026-04-18T07:03:41.389Z</time></trkpt><trkpt lat="43.5214443" lon="10.822568"><ele>104.0</ele><time>2026-04-18T07:03:43.414Z</time></trkpt><trkpt lat="43.521523" lon="10.8226405"><ele>104.0</ele><time>2026-04-18T07:03:45.322Z</time></trkpt><trkpt lat="43.5216274" lon="10.822692"><ele>104.0</ele><time>2026-04-18T07:03:47.425Z</time></trkpt><trkpt lat="43.5217358" lon="10.8227868"><ele>104.0</ele><time>2026-04-18T07:03:49.32Z</time></trkpt><trkpt lat="43.5217787" lon="10.8228566"><ele>103.83333333333333</ele><time>2026-04-18T07:03:50.322Z</time></trkpt><trkpt lat="43.5218189" lon="10.8229389"><ele>103.66666666666666</ele><time>2026-04-18T07:03:51.324Z</time></trkpt><trkpt lat="43.5218524" lon="10.8230331"><ele>103.5</ele><time>2026-04-18T07:03:52.409Z</time></trkpt><trkpt lat="43.5218799" lon="10.8231437"><ele>103.33333333333334</ele><time>2026-04-18T07:03:53.319Z</time></trkpt><trkpt lat="43.5219064" lon="10.8232734"><ele>103.16666666666667</ele><time>2026-04-18T07:03:54.32Z</time></trkpt><trkpt lat="43.5219373" lon="10.8234065"><ele>103.0</ele><time>2026-04-18T07:03:55.435Z</time></trkpt><trkpt lat="43.5219677" lon="10.8235229"><ele>103.0</ele><time>2026-04-18T07:03:56.39Z</time></trkpt><trkpt lat="43.5219886" lon="10.8236341"><ele>103.0</ele><time>2026-04-18T07:03:57.321Z</time></trkpt><trkpt lat="43.5219973" lon="10.8237462"><ele>103.0</ele><time>2026-04-18T07:03:58.425Z</time></trkpt><trkpt lat="43.5219922" lon="10.8238603"><ele>103.0</ele><time>2026-04-18T07:03:59.43Z</time></trkpt><trkpt lat="43.5219699" lon="10.8239866"><ele>103.0</ele><time>2026-04-18T07:04:00.441Z</time></trkpt><trkpt lat="43.5219373" lon="10.8241318"><ele>103.0</ele><time>2026-04-18T07:04:01.425Z</time></trkpt><trkpt lat="43.5219074" lon="10.8242692"><ele>103.0</ele><time>2026-04-18T07:04:02.414Z</time></trkpt><trkpt lat="43.5218867" lon="10.8243957"><ele>103.0</ele><time>2026-04-18T07:04:03.322Z</time></trkpt><trkpt lat="43.5218886" lon="10.8245395"><ele>103.0</ele><time>2026-04-18T07:04:04.409Z</time></trkpt><trkpt lat="43.5219045" lon="10.8246929"><ele>103.0</ele><time>2026-04-18T07:04:05.427Z</time></trkpt><trkpt lat="43.5219159" lon="10.8248388"><ele>102.2</ele><time>2026-04-18T07:04:06.32Z</time></trkpt><trkpt lat="43.5219295" lon="10.8249782"><ele>101.4</ele><time>2026-04-18T07:04:07.318Z</time></trkpt><trkpt lat="43.5219485" lon="10.8251199"><ele>100.60000000000001</ele><time>2026-04-18T07:04:08.316Z</time></trkpt><trkpt lat="43.5219712" lon="10.8252611"><ele>99.80000000000001</ele><time>2026-04-18T07:04:09.322Z</time></trkpt><trkpt lat="43.5219879" lon="10.8253937"><ele>99.0</ele><time>2026-04-18T07:04:10.321Z</time></trkpt><trkpt lat="43.5219994" lon="10.8255382"><ele>98.5</ele><time>2026-04-18T07:04:11.317Z</time></trkpt><trkpt lat="43.5219976" lon="10.825702"><ele>98.0</ele><time>2026-04-18T07:04:12.414Z</time></trkpt><trkpt lat="43.5219794" lon="10.8258884"><ele>97.5</ele><time>2026-04-18T07:04:13.432Z</time></trkpt><trkpt lat="43.5219661" lon="10.8260837"><ele>97.0</ele><time>2026-04-18T07:04:14.405Z</time></trkpt><trkpt lat="43.5219564" lon="10.8262642"><ele>97.0</ele><time>2026-04-18T07:04:15.431Z</time></trkpt><trkpt lat="43.5219692" lon="10.8264363"><ele>97.0</ele><time>2026-04-18T07:04:16.412Z</time></trkpt><trkpt lat="43.5220048" lon="10.8266244"><ele>97.0</ele><time>2026-04-18T07:04:17.43Z</time></trkpt><trkpt lat="43.5220381" lon="10.8268144"><ele>97.0</ele><time>2026-04-18T07:04:18.425Z</time></trkpt><trkpt lat="43.5220765" lon="10.8270097"><ele>97.0</ele><time>2026-04-18T07:04:19.411Z</time></trkpt><trkpt lat="43.5221109" lon="10.8271704"><ele>97.0</ele><time>2026-04-18T07:04:20.416Z</time></trkpt><trkpt lat="43.5221463" lon="10.8273332"><ele>97.0</ele><time>2026-04-18T07:04:21.32Z</time></trkpt><trkpt lat="43.5221826" lon="10.8274818"><ele>97.0</ele><time>2026-04-18T07:04:22.317Z</time></trkpt><trkpt lat="43.5222066" lon="10.8276006"><ele>97.0</ele><time>2026-04-18T07:04:23.322Z</time></trkpt><trkpt lat="43.5222209" lon="10.8277034"><ele>97.00000000000001</ele><time>2026-04-18T07:04:24.431Z</time></trkpt><trkpt lat="43.522179" lon="10.8278948"><ele>97.0</ele><time>2026-04-18T07:04:26.41Z</time></trkpt><trkpt lat="43.5221326" lon="10.827984"><ele>97.0</ele><time>2026-04-18T07:04:27.32Z</time></trkpt><trkpt lat="43.5220807" lon="10.8280481"><ele>97.0</ele><time>2026-04-18T07:04:28.321Z</time></trkpt><trkpt lat="43.5220143" lon="10.8280933"><ele>97.00000000000001</ele><time>2026-04-18T07:04:29.322Z</time></trkpt><trkpt lat="43.5219366" lon="10.8281222"><ele>97.0</ele><time>2026-04-18T07:04:30.324Z</time></trkpt><trkpt lat="43.5218502" lon="10.8281449"><ele>99.6</ele><time>2026-04-18T07:04:31.318Z</time></trkpt><trkpt lat="43.521753" lon="10.8281521"><ele>102.19999999999999</ele><time>2026-04-18T07:04:32.321Z</time></trkpt><trkpt lat="43.521652" lon="10.8281606"><ele>104.8</ele><time>2026-04-18T07:04:33.322Z</time></trkpt><trkpt lat="43.5215444" lon="10.8281737"><ele>107.4</ele><time>2026-04-18T07:04:34.32Z</time></trkpt><trkpt lat="43.5214383" lon="10.8281887"><ele>110.0</ele><time>2026-04-18T07:04:35.319Z</time></trkpt><trkpt lat="43.5213364" lon="10.8281985"><ele>110.0</ele><time>2026-04-18T07:04:36.317Z</time></trkpt><trkpt lat="43.5212361" lon="10.8282049"><ele>110.0</ele><time>2026-04-18T07:04:37.414Z</time></trkpt><trkpt lat="43.5211442" lon="10.8282069"><ele>110.0</ele><time>2026-04-18T07:04:38.316Z</time></trkpt><trkpt lat="43.5210467" lon="10.8282118"><ele>110.0</ele><time>2026-04-18T07:04:39.417Z</time></trkpt><trkpt lat="43.5209521" lon="10.8282243"><ele>110.0</ele><time>2026-04-18T07:04:40.327Z</time></trkpt><trkpt lat="43.5208619" lon="10.8282556"><ele>111.16666666666666</ele><time>2026-04-18T07:04:41.313Z</time></trkpt><trkpt lat="43.5207779" lon="10.8283041"><ele>112.33333333333333</ele><time>2026-04-18T07:04:42.32Z</time></trkpt><trkpt lat="43.5206964" lon="10.8283675"><ele>113.5</ele><time>2026-04-18T07:04:43.31Z</time></trkpt><trkpt lat="43.5206211" lon="10.8284312"><ele>114.66666666666666</ele><time>2026-04-18T07:04:44.427Z</time></trkpt><trkpt lat="43.5205512" lon="10.8284775"><ele>115.83333333333333</ele><time>2026-04-18T07:04:45.41Z</time></trkpt><trkpt lat="43.5204736" lon="10.8285256"><ele>117.0</ele><time>2026-04-18T07:04:46.413Z</time></trkpt><trkpt lat="43.5203979" lon="10.8285805"><ele>119.8</ele><time>2026-04-18T07:04:47.323Z</time></trkpt><trkpt lat="43.5203216" lon="10.828634"><ele>122.6</ele><time>2026-04-18T07:04:48.389Z</time></trkpt><trkpt lat="43.5202553" lon="10.8286807"><ele>125.39999999999999</ele><time>2026-04-18T07:04:49.437Z</time></trkpt><trkpt lat="43.5201322" lon="10.8287632"><ele>128.2</ele><time>2026-04-18T07:04:51.311Z</time></trkpt><trkpt lat="43.5200534" lon="10.8288218"><ele>131.0</ele><time>2026-04-18T07:04:52.308Z</time></trkpt><trkpt lat="43.5199659" lon="10.8288655"><ele>131.0</ele><time>2026-04-18T07:04:53.315Z</time></trkpt><trkpt lat="43.5198578" lon="10.8289052"><ele>131.0</ele><time>2026-04-18T07:04:54.319Z</time></trkpt><trkpt lat="43.5197431" lon="10.8289447"><ele>131.0</ele><time>2026-04-18T07:04:55.322Z</time></trkpt><trkpt lat="43.5196291" lon="10.8289838"><ele>131.0</ele><time>2026-04-18T07:04:56.318Z</time></trkpt><trkpt lat="43.5195204" lon="10.8290178"><ele>132.0</ele><time>2026-04-18T07:04:57.315Z</time></trkpt><trkpt lat="43.5194182" lon="10.8290517"><ele>133.0</ele><time>2026-04-18T07:04:58.449Z</time></trkpt><trkpt lat="43.519315" lon="10.8290846"><ele>134.0</ele><time>2026-04-18T07:04:59.441Z</time></trkpt><trkpt lat="43.5191177" lon="10.8291615"><ele>135.0</ele><time>2026-04-18T07:05:01.431Z</time></trkpt><trkpt lat="43.5190142" lon="10.8292087"><ele>135.0</ele><time>2026-04-18T07:05:02.412Z</time></trkpt><trkpt lat="43.5189171" lon="10.8292561"><ele>135.0</ele><time>2026-04-18T07:05:03.442Z</time></trkpt><trkpt lat="43.5188301" lon="10.8293036"><ele>135.0</ele><time>2026-04-18T07:05:04.457Z</time></trkpt><trkpt lat="43.5187516" lon="10.829348"><ele>135.0</ele><time>2026-04-18T07:05:05.445Z</time></trkpt><trkpt lat="43.5186673" lon="10.8293918"><ele>135.0</ele><time>2026-04-18T07:05:06.421Z</time></trkpt><trkpt lat="43.5185726" lon="10.8294332"><ele>137.0</ele><time>2026-04-18T07:05:07.444Z</time></trkpt><trkpt lat="43.5183716" lon="10.8295147"><ele>139.0</ele><time>2026-04-18T07:05:09.376Z</time></trkpt><trkpt lat="43.5182654" lon="10.8295506"><ele>141.0</ele><time>2026-04-18T07:05:10.341Z</time></trkpt><trkpt lat="43.5181654" lon="10.8295915"><ele>143.0</ele><time>2026-04-18T07:05:11.321Z</time></trkpt><trkpt lat="43.5180734" lon="10.8296284"><ele>143.0</ele><time>2026-04-18T07:05:12.445Z</time></trkpt><trkpt lat="43.5179803" lon="10.8296589"><ele>143.0</ele><time>2026-04-18T07:05:13.445Z</time></trkpt><trkpt lat="43.5178944" lon="10.8296879"><ele>143.0</ele><time>2026-04-18T07:05:14.453Z</time></trkpt><trkpt lat="43.517804" lon="10.8297221"><ele>143.0</ele><time>2026-04-18T07:05:15.45Z</time></trkpt><trkpt lat="43.5177125" lon="10.8297568"><ele>143.0</ele><time>2026-04-18T07:05:16.447Z</time></trkpt><trkpt lat="43.5175503" lon="10.82983"><ele>146.0</ele><time>2026-04-18T07:05:18.438Z</time></trkpt><trkpt lat="43.5174809" lon="10.8298662"><ele>149.0</ele><time>2026-04-18T07:05:19.407Z</time></trkpt><trkpt lat="43.5173989" lon="10.8299476"><ele>152.0</ele><time>2026-04-18T07:05:21.45Z</time></trkpt><trkpt lat="43.5173276" lon="10.8300637"><ele>155.0</ele><time>2026-04-18T07:05:23.454Z</time></trkpt><trkpt lat="43.5172608" lon="10.8302297"><ele>158.0</ele><time>2026-04-18T07:05:25.409Z</time></trkpt><trkpt lat="43.5172164" lon="10.8303403"><ele>158.0</ele><time>2026-04-18T07:05:26.446Z</time></trkpt><trkpt lat="43.5171693" lon="10.8304501"><ele>158.0</ele><time>2026-04-18T07:05:27.456Z</time></trkpt><trkpt lat="43.5171214" lon="10.8305474"><ele>158.0</ele><time>2026-04-18T07:05:28.447Z</time></trkpt><trkpt lat="43.5170721" lon="10.830638"><ele>158.0</ele><time>2026-04-18T07:05:29.451Z</time></trkpt><trkpt lat="43.516973" lon="10.8308095"><ele>158.0</ele><time>2026-04-18T07:05:31.304Z</time></trkpt><trkpt lat="43.5169288" lon="10.8308951"><ele>160.71428571428572</ele><time>2026-04-18T07:05:32.316Z</time></trkpt><trkpt lat="43.5168847" lon="10.8309821"><ele>163.42857142857144</ele><time>2026-04-18T07:05:33.318Z</time></trkpt><trkpt lat="43.5168508" lon="10.8310566"><ele>166.14285714285717</ele><time>2026-04-18T07:05:34.318Z</time></trkpt><trkpt lat="43.5168101" lon="10.8311435"><ele>168.85714285714286</ele><time>2026-04-18T07:05:35.318Z</time></trkpt><trkpt lat="43.5167669" lon="10.831236"><ele>171.57142857142856</ele><time>2026-04-18T07:05:36.318Z</time></trkpt><trkpt lat="43.5167319" lon="10.8313092"><ele>174.2857142857143</ele><time>2026-04-18T07:05:37.316Z</time></trkpt><trkpt lat="43.5166945" lon="10.8313927"><ele>177.0</ele><time>2026-04-18T07:05:38.31Z</time></trkpt><trkpt lat="43.5165851" lon="10.8315901"><ele>177.0</ele><time>2026-04-18T07:05:40.437Z</time></trkpt><trkpt lat="43.5165274" lon="10.8316874"><ele>177.0</ele><time>2026-04-18T07:05:41.395Z</time></trkpt><trkpt lat="43.5164742" lon="10.8317746"><ele>177.0</ele><time>2026-04-18T07:05:42.436Z</time></trkpt><trkpt lat="43.5164262" lon="10.831841"><ele>177.0</ele><time>2026-04-18T07:05:43.432Z</time></trkpt><trkpt lat="43.5163664" lon="10.8318863"><ele>177.0</ele><time>2026-04-18T07:05:44.433Z</time></trkpt><trkpt lat="43.5163024" lon="10.8319097"><ele>177.0</ele><time>2026-04-18T07:05:45.416Z</time></trkpt><trkpt lat="43.5162299" lon="10.8319233"><ele>177.0</ele><time>2026-04-18T07:05:46.416Z</time></trkpt><trkpt lat="43.5161614" lon="10.8319235"><ele>176.16666666666666</ele><time>2026-04-18T07:05:47.421Z</time></trkpt><trkpt lat="43.516094" lon="10.831916"><ele>175.33333333333334</ele><time>2026-04-18T07:05:48.428Z</time></trkpt><trkpt lat="43.5159722" lon="10.8318584"><ele>174.5</ele><time>2026-04-18T07:05:50.32Z</time></trkpt><trkpt lat="43.5159088" lon="10.8318033"><ele>173.66666666666669</ele><time>2026-04-18T07:05:51.409Z</time></trkpt><trkpt lat="43.5158428" lon="10.8317274"><ele>172.83333333333334</ele><time>2026-04-18T07:05:52.39Z</time></trkpt><trkpt lat="43.5157828" lon="10.831646"><ele>172.0</ele><time>2026-04-18T07:05:53.419Z</time></trkpt><trkpt lat="43.5157152" lon="10.8315594"><ele>175.25</ele><time>2026-04-18T07:05:54.322Z</time></trkpt><trkpt lat="43.5156368" lon="10.8314697"><ele>178.5</ele><time>2026-04-18T07:05:55.431Z</time></trkpt><trkpt lat="43.5154706" lon="10.8313254"><ele>181.75</ele><time>2026-04-18T07:05:57.421Z</time></trkpt><trkpt lat="43.5153859" lon="10.8312583"><ele>185.0</ele><time>2026-04-18T07:05:58.417Z</time></trkpt><trkpt lat="43.5152979" lon="10.8311944"><ele>185.0</ele><time>2026-04-18T07:05:59.404Z</time></trkpt><trkpt lat="43.5152115" lon="10.831141"><ele>185.0</ele><time>2026-04-18T07:06:00.41Z</time></trkpt><trkpt lat="43.5151279" lon="10.8310858"><ele>185.0</ele><time>2026-04-18T07:06:01.435Z</time></trkpt><trkpt lat="43.5150358" lon="10.8310363"><ele>185.0</ele><time>2026-04-18T07:06:02.413Z</time></trkpt><trkpt lat="43.5149506" lon="10.8310112"><ele>185.0</ele><time>2026-04-18T07:06:03.324Z</time></trkpt><trkpt lat="43.5148471" lon="10.8309799"><ele>185.8</ele><time>2026-04-18T07:06:04.324Z</time></trkpt><trkpt lat="43.5147496" lon="10.8309639"><ele>186.6</ele><time>2026-04-18T07:06:05.413Z</time></trkpt><trkpt lat="43.5146451" lon="10.8309595"><ele>187.39999999999998</ele><time>2026-04-18T07:06:06.414Z</time></trkpt><trkpt lat="43.5145333" lon="10.830965"><ele>188.2</ele><time>2026-04-18T07:06:07.414Z</time></trkpt><trkpt lat="43.5144157" lon="10.8309809"><ele>189.0</ele><time>2026-04-18T07:06:08.415Z</time></trkpt><trkpt lat="43.5143056" lon="10.831001"><ele>189.0</ele><time>2026-04-18T07:06:09.408Z</time></trkpt><trkpt lat="43.5141952" lon="10.8310224"><ele>189.0</ele><time>2026-04-18T07:06:10.406Z</time></trkpt><trkpt lat="43.5140817" lon="10.8310411"><ele>189.0</ele><time>2026-04-18T07:06:11.373Z</time></trkpt><trkpt lat="43.513971" lon="10.8310525"><ele>189.0</ele><time>2026-04-18T07:06:12.413Z</time></trkpt><trkpt lat="43.5138715" lon="10.8310616"><ele>189.0</ele><time>2026-04-18T07:06:13.43Z</time></trkpt><trkpt lat="43.5137821" lon="10.8310744"><ele>192.75</ele><time>2026-04-18T07:06:14.43Z</time></trkpt><trkpt lat="43.5136083" lon="10.8311502"><ele>196.5</ele><time>2026-04-18T07:06:16.412Z</time></trkpt><trkpt lat="43.5135204" lon="10.8311957"><ele>200.25</ele><time>2026-04-18T07:06:17.323Z</time></trkpt><trkpt lat="43.5134183" lon="10.8312256"><ele>204.0</ele><time>2026-04-18T07:06:18.313Z</time></trkpt><trkpt lat="43.5133195" lon="10.8312645"><ele>204.0</ele><time>2026-04-18T07:06:19.312Z</time></trkpt><trkpt lat="43.513236" lon="10.8313217"><ele>204.0</ele><time>2026-04-18T07:06:20.315Z</time></trkpt><trkpt lat="43.5131567" lon="10.8313979"><ele>204.0</ele><time>2026-04-18T07:06:21.315Z</time></trkpt><trkpt lat="43.5130903" lon="10.8314821"><ele>204.0</ele><time>2026-04-18T07:06:22.315Z</time></trkpt><trkpt lat="43.5130235" lon="10.8315707"><ele>204.0</ele><time>2026-04-18T07:06:23.32Z</time></trkpt><trkpt lat="43.512962" lon="10.8316639"><ele>205.6</ele><time>2026-04-18T07:06:24.315Z</time></trkpt><trkpt lat="43.5128954" lon="10.8317669"><ele>207.2</ele><time>2026-04-18T07:06:25.429Z</time></trkpt><trkpt lat="43.5128172" lon="10.8318677"><ele>208.79999999999998</ele><time>2026-04-18T07:06:26.342Z</time></trkpt><trkpt lat="43.5127263" lon="10.8319583"><ele>210.39999999999998</ele><time>2026-04-18T07:06:27.319Z</time></trkpt><trkpt lat="43.5126113" lon="10.8320383"><ele>212.0</ele><time>2026-04-18T07:06:28.322Z</time></trkpt><trkpt lat="43.5125059" lon="10.8320887"><ele>212.00000000000003</ele><time>2026-04-18T07:06:29.315Z</time></trkpt><trkpt lat="43.5124265" lon="10.8321344"><ele>212.0</ele><time>2026-04-18T07:06:30.323Z</time></trkpt><trkpt lat="43.5123541" lon="10.832174"><ele>212.0</ele><time>2026-04-18T07:06:31.322Z</time></trkpt><trkpt lat="43.5122889" lon="10.8322259"><ele>212.0</ele><time>2026-04-18T07:06:32.325Z</time></trkpt><trkpt lat="43.5122303" lon="10.832282"><ele>212.00000000000003</ele><time>2026-04-18T07:06:33.319Z</time></trkpt><trkpt lat="43.512176" lon="10.8323546"><ele>212.0</ele><time>2026-04-18T07:06:34.318Z</time></trkpt><trkpt lat="43.5121218" lon="10.8324399"><ele>210.2</ele><time>2026-04-18T07:06:35.315Z</time></trkpt><trkpt lat="43.5120643" lon="10.8325496"><ele>208.39999999999998</ele><time>2026-04-18T07:06:36.32Z</time></trkpt><trkpt lat="43.5120148" lon="10.8326592"><ele>206.60000000000002</ele><time>2026-04-18T07:06:37.329Z</time></trkpt><trkpt lat="43.5119585" lon="10.8327849"><ele>204.8</ele><time>2026-04-18T07:06:38.318Z</time></trkpt><trkpt lat="43.5119052" lon="10.8329247"><ele>203.0</ele><time>2026-04-18T07:06:39.398Z</time></trkpt><trkpt lat="43.5118495" lon="10.8330591"><ele>202.2</ele><time>2026-04-18T07:06:40.319Z</time></trkpt><trkpt lat="43.5117886" lon="10.8331838"><ele>201.4</ele><time>2026-04-18T07:06:41.321Z</time></trkpt><trkpt lat="43.5117267" lon="10.8332928"><ele>200.6</ele><time>2026-04-18T07:06:42.32Z</time></trkpt><trkpt lat="43.5116541" lon="10.8333944"><ele>199.79999999999998</ele><time>2026-04-18T07:06:43.319Z</time></trkpt><trkpt lat="43.5115657" lon="10.8334889"><ele>199.0</ele><time>2026-04-18T07:06:44.318Z</time></trkpt><trkpt lat="43.5114802" lon="10.8335611"><ele>199.33333333333331</ele><time>2026-04-18T07:06:45.316Z</time></trkpt><trkpt lat="43.5113991" lon="10.8336268"><ele>199.66666666666666</ele><time>2026-04-18T07:06:46.322Z</time></trkpt><trkpt lat="43.5113276" lon="10.8336862"><ele>200.0</ele><time>2026-04-18T07:06:47.322Z</time></trkpt><trkpt lat="43.5112582" lon="10.8337436"><ele>200.33333333333331</ele><time>2026-04-18T07:06:48.322Z</time></trkpt><trkpt lat="43.5111814" lon="10.8338092"><ele>200.66666666666666</ele><time>2026-04-18T07:06:49.319Z</time></trkpt><trkpt lat="43.5111213" lon="10.8338578"><ele>201.0</ele><time>2026-04-18T07:06:50.323Z</time></trkpt><trkpt lat="43.5110514" lon="10.8339697"><ele>201.0</ele><time>2026-04-18T07:06:52.415Z</time></trkpt><trkpt lat="43.5110506" lon="10.8341433"><ele>201.0</ele><time>2026-04-18T07:06:54.32Z</time></trkpt><trkpt lat="43.5110648" lon="10.8342478"><ele>201.0</ele><time>2026-04-18T07:06:55.319Z</time></trkpt><trkpt lat="43.5110825" lon="10.8343544"><ele>201.0</ele><time>2026-04-18T07:06:56.323Z</time></trkpt><trkpt lat="43.5110977" lon="10.8344617"><ele>201.0</ele><time>2026-04-18T07:06:57.319Z</time></trkpt><trkpt lat="43.5111018" lon="10.834578"><ele>201.0</ele><time>2026-04-18T07:06:58.32Z</time></trkpt><trkpt lat="43.5110882" lon="10.834709"><ele>200.60000000000002</ele><time>2026-04-18T07:06:59.322Z</time></trkpt><trkpt lat="43.511061" lon="10.8348471"><ele>200.2</ele><time>2026-04-18T07:07:00.321Z</time></trkpt><trkpt lat="43.5110228" lon="10.8349797"><ele>199.8</ele><time>2026-04-18T07:07:01.318Z</time></trkpt><trkpt lat="43.5109806" lon="10.8351036"><ele>199.39999999999998</ele><time>2026-04-18T07:07:02.319Z</time></trkpt><trkpt lat="43.510945" lon="10.8352289"><ele>199.0</ele><time>2026-04-18T07:07:03.317Z</time></trkpt><trkpt lat="43.5109161" lon="10.835362"><ele>197.0</ele><time>2026-04-18T07:07:04.321Z</time></trkpt><trkpt lat="43.5108876" lon="10.835506"><ele>195.0</ele><time>2026-04-18T07:07:05.316Z</time></trkpt><trkpt lat="43.5108598" lon="10.8356588"><ele>193.0</ele><time>2026-04-18T07:07:06.318Z</time></trkpt><trkpt lat="43.5108385" lon="10.8358158"><ele>191.0</ele><time>2026-04-18T07:07:07.313Z</time></trkpt><trkpt lat="43.5108344" lon="10.8359816"><ele>190.25</ele><time>2026-04-18T07:07:08.315Z</time></trkpt><trkpt lat="43.5108374" lon="10.8361517"><ele>189.5</ele><time>2026-04-18T07:07:09.325Z</time></trkpt><trkpt lat="43.5108394" lon="10.836329"><ele>188.75</ele><time>2026-04-18T07:07:10.32Z</time></trkpt><trkpt lat="43.5108398" lon="10.8365076"><ele>188.0</ele><time>2026-04-18T07:07:11.32Z</time></trkpt><trkpt lat="43.510838" lon="10.8366832"><ele>188.5</ele><time>2026-04-18T07:07:12.323Z</time></trkpt><trkpt lat="43.5108383" lon="10.8368389"><ele>189.0</ele><time>2026-04-18T07:07:13.315Z</time></trkpt><trkpt lat="43.5108324" lon="10.837004"><ele>189.5</ele><time>2026-04-18T07:07:14.319Z</time></trkpt><trkpt lat="43.5108194" lon="10.837156"><ele>190.0</ele><time>2026-04-18T07:07:15.321Z</time></trkpt><trkpt lat="43.5107882" lon="10.8373044"><ele>190.0</ele><time>2026-04-18T07:07:16.314Z</time></trkpt><trkpt lat="43.5107525" lon="10.8374533"><ele>190.0</ele><time>2026-04-18T07:07:17.314Z</time></trkpt><trkpt lat="43.5107183" lon="10.8375902"><ele>190.0</ele><time>2026-04-18T07:07:18.321Z</time></trkpt><trkpt lat="43.5106888" lon="10.837711"><ele>190.0</ele><time>2026-04-18T07:07:19.321Z</time></trkpt><trkpt lat="43.5106684" lon="10.8378368"><ele>190.0</ele><time>2026-04-18T07:07:20.321Z</time></trkpt><trkpt lat="43.5106593" lon="10.837961"><ele>190.14285714285714</ele><time>2026-04-18T07:07:21.32Z</time></trkpt><trkpt lat="43.5106589" lon="10.8380701"><ele>190.28571428571428</ele><time>2026-04-18T07:07:22.316Z</time></trkpt><trkpt lat="43.5106659" lon="10.8381632"><ele>190.42857142857144</ele><time>2026-04-18T07:07:23.321Z</time></trkpt><trkpt lat="43.5106743" lon="10.8382572"><ele>190.57142857142856</ele><time>2026-04-18T07:07:24.322Z</time></trkpt><trkpt lat="43.5106881" lon="10.8383503"><ele>190.7142857142857</ele><time>2026-04-18T07:07:25.32Z</time></trkpt><trkpt lat="43.5107057" lon="10.8384367"><ele>190.85714285714286</ele><time>2026-04-18T07:07:26.319Z</time></trkpt><trkpt lat="43.5107265" lon="10.8385259"><ele>191.0</ele><time>2026-04-18T07:07:27.318Z</time></trkpt><trkpt lat="43.5107644" lon="10.8386813"><ele>190.20000000000002</ele><time>2026-04-18T07:07:29.321Z</time></trkpt><trkpt lat="43.5107824" lon="10.8388412"><ele>189.4</ele><time>2026-04-18T07:07:31.324Z</time></trkpt><trkpt lat="43.5107653" lon="10.8390288"><ele>188.6</ele><time>2026-04-18T07:07:33.318Z</time></trkpt><trkpt lat="43.5107466" lon="10.8391354"><ele>187.8</ele><time>2026-04-18T07:07:34.314Z</time></trkpt><trkpt lat="43.5107231" lon="10.8392394"><ele>187.0</ele><time>2026-04-18T07:07:35.319Z</time></trkpt><trkpt lat="43.5106931" lon="10.8393436"><ele>186.5</ele><time>2026-04-18T07:07:36.313Z</time></trkpt><trkpt lat="43.5106641" lon="10.8394517"><ele>186.0</ele><time>2026-04-18T07:07:37.316Z</time></trkpt><trkpt lat="43.5106453" lon="10.8395525"><ele>185.5</ele><time>2026-04-18T07:07:38.318Z</time></trkpt><trkpt lat="43.5106345" lon="10.8396419"><ele>185.0</ele><time>2026-04-18T07:07:39.318Z</time></trkpt><trkpt lat="43.5106237" lon="10.8398049"><ele>184.5</ele><time>2026-04-18T07:07:41.321Z</time></trkpt><trkpt lat="43.5106288" lon="10.8398918"><ele>184.0</ele><time>2026-04-18T07:07:42.317Z</time></trkpt><trkpt lat="43.5106468" lon="10.8399824"><ele>184.0</ele><time>2026-04-18T07:07:43.312Z</time></trkpt><trkpt lat="43.5106659" lon="10.8400841"><ele>184.0</ele><time>2026-04-18T07:07:44.312Z</time></trkpt><trkpt lat="43.5106818" lon="10.8401742"><ele>184.0</ele><time>2026-04-18T07:07:45.319Z</time></trkpt><trkpt lat="43.5106905" lon="10.8402706"><ele>184.0</ele><time>2026-04-18T07:07:46.321Z</time></trkpt><trkpt lat="43.5107005" lon="10.8403699"><ele>184.0</ele><time>2026-04-18T07:07:47.315Z</time></trkpt><trkpt lat="43.5107183" lon="10.8404791"><ele>184.0</ele><time>2026-04-18T07:07:48.319Z</time></trkpt><trkpt lat="43.5107393" lon="10.8405942"><ele>183.79999999999998</ele><time>2026-04-18T07:07:49.319Z</time></trkpt><trkpt lat="43.5107559" lon="10.8407134"><ele>183.6</ele><time>2026-04-18T07:07:50.318Z</time></trkpt><trkpt lat="43.5107713" lon="10.8408422"><ele>183.4</ele><time>2026-04-18T07:07:51.317Z</time></trkpt><trkpt lat="43.510784" lon="10.8409795"><ele>183.2</ele><time>2026-04-18T07:07:52.32Z</time></trkpt><trkpt lat="43.5107973" lon="10.8411268"><ele>183.0</ele><time>2026-04-18T07:07:53.318Z</time></trkpt><trkpt lat="43.5108123" lon="10.8412789"><ele>183.0</ele><time>2026-04-18T07:07:54.316Z</time></trkpt><trkpt lat="43.5108243" lon="10.8414343"><ele>183.0</ele><time>2026-04-18T07:07:55.318Z</time></trkpt><trkpt lat="43.5108362" lon="10.84158"><ele>183.0</ele><time>2026-04-18T07:07:56.325Z</time></trkpt><trkpt lat="43.5108541" lon="10.8417221"><ele>183.0</ele><time>2026-04-18T07:07:57.312Z</time></trkpt><trkpt lat="43.5108858" lon="10.8418615"><ele>183.0</ele><time>2026-04-18T07:07:58.319Z</time></trkpt><trkpt lat="43.5109286" lon="10.8419961"><ele>183.4</ele><time>2026-04-18T07:07:59.319Z</time></trkpt><trkpt lat="43.5109735" lon="10.8421236"><ele>183.8</ele><time>2026-04-18T07:08:00.321Z</time></trkpt><trkpt lat="43.5110159" lon="10.8422361"><ele>184.2</ele><time>2026-04-18T07:08:01.326Z</time></trkpt><trkpt lat="43.5110538" lon="10.8423576"><ele>184.6</ele><time>2026-04-18T07:08:02.315Z</time></trkpt><trkpt lat="43.5110787" lon="10.8424809"><ele>185.0</ele><time>2026-04-18T07:08:03.321Z</time></trkpt><trkpt lat="43.5110902" lon="10.8426056"><ele>184.66666666666666</ele><time>2026-04-18T07:08:04.32Z</time></trkpt><trkpt lat="43.5110966" lon="10.8427331"><ele>184.33333333333331</ele><time>2026-04-18T07:08:05.321Z</time></trkpt><trkpt lat="43.5110954" lon="10.8428494"><ele>184.0</ele><time>2026-04-18T07:08:06.32Z</time></trkpt><trkpt lat="43.5110949" lon="10.8429521"><ele>183.66666666666666</ele><time>2026-04-18T07:08:07.316Z</time></trkpt><trkpt lat="43.51109" lon="10.8430506"><ele>183.33333333333334</ele><time>2026-04-18T07:08:08.318Z</time></trkpt><trkpt lat="43.5110843" lon="10.8431375"><ele>183.0</ele><time>2026-04-18T07:08:09.315Z</time></trkpt><trkpt lat="43.511074" lon="10.8432239"><ele>183.0</ele><time>2026-04-18T07:08:10.32Z</time></trkpt><trkpt lat="43.5110616" lon="10.8433144"><ele>183.0</ele><time>2026-04-18T07:08:11.321Z</time></trkpt><trkpt lat="43.5110471" lon="10.8434077"><ele>183.0</ele><time>2026-04-18T07:08:12.319Z</time></trkpt><trkpt lat="43.5110329" lon="10.843496"><ele>183.0</ele><time>2026-04-18T07:08:13.319Z</time></trkpt><trkpt lat="43.5110186" lon="10.8435809"><ele>183.0</ele><time>2026-04-18T07:08:14.317Z</time></trkpt><trkpt lat="43.5109949" lon="10.8437427"><ele>183.0</ele><time>2026-04-18T07:08:16.317Z</time></trkpt><trkpt lat="43.5109834" lon="10.8439112"><ele>182.42857142857144</ele><time>2026-04-18T07:08:18.321Z</time></trkpt><trkpt lat="43.5109885" lon="10.8440039"><ele>181.85714285714286</ele><time>2026-04-18T07:08:19.309Z</time></trkpt><trkpt lat="43.510997" lon="10.8441038"><ele>181.28571428571428</ele><time>2026-04-18T07:08:20.319Z</time></trkpt><trkpt lat="43.5110082" lon="10.844206"><ele>180.71428571428572</ele><time>2026-04-18T07:08:21.318Z</time></trkpt><trkpt lat="43.5110198" lon="10.8443091"><ele>180.14285714285714</ele><time>2026-04-18T07:08:22.313Z</time></trkpt><trkpt lat="43.5110346" lon="10.8444034"><ele>179.57142857142858</ele><time>2026-04-18T07:08:23.315Z</time></trkpt><trkpt lat="43.5110454" lon="10.8444971"><ele>179.0</ele><time>2026-04-18T07:08:24.318Z</time></trkpt><trkpt lat="43.5110618" lon="10.8445837"><ele>178.6</ele><time>2026-04-18T07:08:25.319Z</time></trkpt><trkpt lat="43.5110986" lon="10.8447422"><ele>178.2</ele><time>2026-04-18T07:08:27.319Z</time></trkpt><trkpt lat="43.5111332" lon="10.8448507"><ele>177.79999999999998</ele><time>2026-04-18T07:08:29.319Z</time></trkpt><trkpt lat="43.51117" lon="10.8449379"><ele>177.39999999999998</ele><time>2026-04-18T07:09:02.315Z</time></trkpt><trkpt lat="43.5112528" lon="10.8450978"><ele>177.0</ele><time>2026-04-18T07:09:04.319Z</time></trkpt><trkpt lat="43.5113137" lon="10.8452271"><ele>177.0</ele><time>2026-04-18T07:09:05.322Z</time></trkpt><trkpt lat="43.5113763" lon="10.8453426"><ele>177.0</ele><time>2026-04-18T07:09:06.32Z</time></trkpt><trkpt lat="43.5114476" lon="10.845472"><ele>177.0</ele><time>2026-04-18T07:09:07.324Z</time></trkpt><trkpt lat="43.5115087" lon="10.845579"><ele>177.0</ele><time>2026-04-18T07:09:08.32Z</time></trkpt><trkpt lat="43.5115638" lon="10.845679"><ele>177.0</ele><time>2026-04-18T07:09:09.319Z</time></trkpt><trkpt lat="43.5116112" lon="10.845777"><ele>177.0</ele><time>2026-04-18T07:09:10.319Z</time></trkpt><trkpt lat="43.5116457" lon="10.8458541"><ele>177.0</ele><time>2026-04-18T07:09:11.322Z</time></trkpt><trkpt lat="43.5116916" lon="10.8460049"><ele>177.0</ele><time>2026-04-18T07:09:13.32Z</time></trkpt><trkpt lat="43.5117085" lon="10.8461233"><ele>177.0</ele><time>2026-04-18T07:09:15.32Z</time></trkpt><trkpt lat="43.511727" lon="10.8462176"><ele>177.0</ele><time>2026-04-18T07:09:35.426Z</time></trkpt><trkpt lat="43.5117229" lon="10.846375"><ele>177.33333333333334</ele><time>2026-04-18T07:09:37.422Z</time></trkpt><trkpt lat="43.5117023" lon="10.8465751"><ele>177.66666666666666</ele><time>2026-04-18T07:09:39.315Z</time></trkpt><trkpt lat="43.5116876" lon="10.8466831"><ele>178.0</ele><time>2026-04-18T07:09:40.317Z</time></trkpt><trkpt lat="43.5116741" lon="10.846773"><ele>178.33333333333331</ele><time>2026-04-18T07:09:41.318Z</time></trkpt><trkpt lat="43.5116565" lon="10.8468747"><ele>178.66666666666666</ele><time>2026-04-18T07:09:42.316Z</time></trkpt><trkpt lat="43.5116445" lon="10.8469669"><ele>179.0</ele><time>2026-04-18T07:09:43.322Z</time></trkpt><trkpt lat="43.5116284" lon="10.8470625"><ele>179.0</ele><time>2026-04-18T07:09:44.318Z</time></trkpt><trkpt lat="43.511624" lon="10.8471512"><ele>179.0</ele><time>2026-04-18T07:09:45.416Z</time></trkpt><trkpt lat="43.5116287" lon="10.847274"><ele>179.0</ele><time>2026-04-18T07:09:47.412Z</time></trkpt><trkpt lat="43.5116513" lon="10.847395"><ele>179.0</ele><time>2026-04-18T07:09:49.321Z</time></trkpt><trkpt lat="43.5116737" lon="10.8475655"><ele>179.0</ele><time>2026-04-18T07:09:52.323Z</time></trkpt><trkpt lat="43.5116809" lon="10.8476521"><ele>179.0</ele><time>2026-04-18T07:09:53.305Z</time></trkpt><trkpt lat="43.5116956" lon="10.8477989"><ele>179.0</ele><time>2026-04-18T07:09:55.309Z</time></trkpt><trkpt lat="43.51171" lon="10.8479331"><ele>179.0</ele><time>2026-04-18T07:09:57.314Z</time></trkpt><trkpt lat="43.5117253" lon="10.8480979"><ele>179.0</ele><time>2026-04-18T07:09:59.317Z</time></trkpt><trkpt lat="43.5117427" lon="10.8482443"><ele>179.0</ele><time>2026-04-18T07:10:01.319Z</time></trkpt><trkpt lat="43.5117651" lon="10.8483486"><ele>179.0</ele><time>2026-04-18T07:10:03.408Z</time></trkpt><trkpt lat="43.5117943" lon="10.848456"><ele>177.6</ele><time>2026-04-18T07:10:05.436Z</time></trkpt><trkpt lat="43.5118459" lon="10.8486298"><ele>176.2</ele><time>2026-04-18T07:10:07.413Z</time></trkpt><trkpt lat="43.5118741" lon="10.8487381"><ele>174.79999999999998</ele><time>2026-04-18T07:10:08.328Z</time></trkpt><trkpt lat="43.5119071" lon="10.8488437"><ele>173.39999999999998</ele><time>2026-04-18T07:10:09.324Z</time></trkpt><trkpt lat="43.5119428" lon="10.8489502"><ele>172.0</ele><time>2026-04-18T07:10:10.431Z</time></trkpt><trkpt lat="43.5120382" lon="10.8491319"><ele>172.2</ele><time>2026-04-18T07:10:12.424Z</time></trkpt><trkpt lat="43.512094" lon="10.8492234"><ele>172.39999999999998</ele><time>2026-04-18T07:10:13.408Z</time></trkpt><trkpt lat="43.5121573" lon="10.8493234"><ele>172.60000000000002</ele><time>2026-04-18T07:10:14.436Z</time></trkpt><trkpt lat="43.512219" lon="10.8494195"><ele>172.8</ele><time>2026-04-18T07:10:15.417Z</time></trkpt><trkpt lat="43.5122799" lon="10.8495155"><ele>173.0</ele><time>2026-04-18T07:10:16.41Z</time></trkpt><trkpt lat="43.5123404" lon="10.849603"><ele>173.0</ele><time>2026-04-18T07:10:17.432Z</time></trkpt><trkpt lat="43.5123957" lon="10.8496859"><ele>173.0</ele><time>2026-04-18T07:10:18.44Z</time></trkpt><trkpt lat="43.5124468" lon="10.849762"><ele>173.0</ele><time>2026-04-18T07:10:19.357Z</time></trkpt><trkpt lat="43.512496" lon="10.8498342"><ele>173.0</ele><time>2026-04-18T07:10:20.324Z</time></trkpt><trkpt lat="43.5125528" lon="10.8499108"><ele>173.0</ele><time>2026-04-18T07:10:21.315Z</time></trkpt><trkpt lat="43.5126172" lon="10.849998"><ele>173.0</ele><time>2026-04-18T07:10:22.418Z</time></trkpt><trkpt lat="43.5126829" lon="10.8500795"><ele>172.5</ele><time>2026-04-18T07:10:23.324Z</time></trkpt><trkpt lat="43.5127464" lon="10.8501524"><ele>172.0</ele><time>2026-04-18T07:10:24.411Z</time></trkpt><trkpt lat="43.5128056" lon="10.850223"><ele>171.5</ele><time>2026-04-18T07:10:25.435Z</time></trkpt><trkpt lat="43.5128582" lon="10.8502884"><ele>171.0</ele><time>2026-04-18T07:10:26.417Z</time></trkpt><trkpt lat="43.5129122" lon="10.8503523"><ele>170.5</ele><time>2026-04-18T07:10:27.41Z</time></trkpt><trkpt lat="43.5129937" lon="10.8504576"><ele>170.0</ele><time>2026-04-18T07:10:29.415Z</time></trkpt><trkpt lat="43.5130732" lon="10.850586"><ele>170.0</ele><time>2026-04-18T07:10:31.403Z</time></trkpt><trkpt lat="43.5131181" lon="10.8506551"><ele>170.0</ele><time>2026-04-18T07:10:32.442Z</time></trkpt><trkpt lat="43.5131797" lon="10.8507974"><ele>170.0</ele><time>2026-04-18T07:10:34.416Z</time></trkpt><trkpt lat="43.5131778" lon="10.8509551"><ele>170.0</ele><time>2026-04-18T07:10:36.418Z</time></trkpt><trkpt lat="43.5131184" lon="10.8511248"><ele>170.0</ele><time>2026-04-18T07:10:38.416Z</time></trkpt><trkpt lat="43.5130726" lon="10.851226"><ele>170.4</ele><time>2026-04-18T07:10:39.411Z</time></trkpt><trkpt lat="43.5130412" lon="10.8513495"><ele>170.8</ele><time>2026-04-18T07:10:40.417Z</time></trkpt><trkpt lat="43.5130171" lon="10.8514888"><ele>171.2</ele><time>2026-04-18T07:10:41.317Z</time></trkpt><trkpt lat="43.5129972" lon="10.8516177"><ele>171.6</ele><time>2026-04-18T07:10:42.429Z</time></trkpt><trkpt lat="43.5129787" lon="10.8517591"><ele>172.0</ele><time>2026-04-18T07:10:43.412Z</time></trkpt><trkpt lat="43.5129597" lon="10.8518919"><ele>172.0</ele><time>2026-04-18T07:10:44.32Z</time></trkpt><trkpt lat="43.5129298" lon="10.8520297"><ele>172.0</ele><time>2026-04-18T07:10:45.326Z</time></trkpt><trkpt lat="43.5128918" lon="10.8521733"><ele>172.0</ele><time>2026-04-18T07:10:46.319Z</time></trkpt><trkpt lat="43.5128389" lon="10.8523165"><ele>172.0</ele><time>2026-04-18T07:10:47.321Z</time></trkpt><trkpt lat="43.5127911" lon="10.85244"><ele>172.0</ele><time>2026-04-18T07:10:48.315Z</time></trkpt><trkpt lat="43.5127438" lon="10.8525445"><ele>172.5</ele><time>2026-04-18T07:10:49.322Z</time></trkpt><trkpt lat="43.5126866" lon="10.8526313"><ele>173.0</ele><time>2026-04-18T07:10:50.325Z</time></trkpt><trkpt lat="43.5126064" lon="10.8526999"><ele>173.5</ele><time>2026-04-18T07:10:51.419Z</time></trkpt><trkpt lat="43.5125244" lon="10.8527622"><ele>174.0</ele><time>2026-04-18T07:10:52.379Z</time></trkpt><trkpt lat="43.5124615" lon="10.8528197"><ele>174.5</ele><time>2026-04-18T07:10:53.319Z</time></trkpt><trkpt lat="43.5124075" lon="10.8528762"><ele>175.0</ele><time>2026-04-18T07:10:54.324Z</time></trkpt><trkpt lat="43.5123711" lon="10.8529483"><ele>175.0</ele><time>2026-04-18T07:10:55.314Z</time></trkpt><trkpt lat="43.5123475" lon="10.8530344"><ele>175.0</ele><time>2026-04-18T07:10:56.436Z</time></trkpt><trkpt lat="43.5123301" lon="10.8531402"><ele>175.0</ele><time>2026-04-18T07:10:57.42Z</time></trkpt><trkpt lat="43.5123187" lon="10.8532553"><ele>175.0</ele><time>2026-04-18T07:10:58.433Z</time></trkpt><trkpt lat="43.5123157" lon="10.8533839"><ele>175.0</ele><time>2026-04-18T07:10:59.416Z</time></trkpt><trkpt lat="43.5123187" lon="10.8535039"><ele>175.0</ele><time>2026-04-18T07:11:00.423Z</time></trkpt><trkpt lat="43.5123181" lon="10.8535986"><ele>175.0</ele><time>2026-04-18T07:11:01.41Z</time></trkpt><trkpt lat="43.5123184" lon="10.8537611"><ele>175.0</ele><time>2026-04-18T07:11:03.414Z</time></trkpt><trkpt lat="43.5123032" lon="10.8539201"><ele>175.0</ele><time>2026-04-18T07:11:05.407Z</time></trkpt><trkpt lat="43.5122894" lon="10.8540862"><ele>175.0</ele><time>2026-04-18T07:11:07.434Z</time></trkpt><trkpt lat="43.5122846" lon="10.8541841"><ele>175.0</ele><time>2026-04-18T07:11:08.422Z</time></trkpt><trkpt lat="43.5122775" lon="10.8543001"><ele>175.2</ele><time>2026-04-18T07:11:09.409Z</time></trkpt><trkpt lat="43.5122687" lon="10.8544321"><ele>175.4</ele><time>2026-04-18T07:11:10.323Z</time></trkpt><trkpt lat="43.5122613" lon="10.8545693"><ele>175.60000000000002</ele><time>2026-04-18T07:11:11.42Z</time></trkpt><trkpt lat="43.512254" lon="10.8546973"><ele>175.8</ele><time>2026-04-18T07:11:12.317Z</time></trkpt><trkpt lat="43.5122473" lon="10.8548204"><ele>176.0</ele><time>2026-04-18T07:11:13.323Z</time></trkpt><trkpt lat="43.5122377" lon="10.8549618"><ele>176.25</ele><time>2026-04-18T07:11:14.425Z</time></trkpt><trkpt lat="43.5122153" lon="10.8552501"><ele>176.5</ele><time>2026-04-18T07:11:16.432Z</time></trkpt><trkpt lat="43.5121997" lon="10.8554064"><ele>176.75</ele><time>2026-04-18T07:11:17.419Z</time></trkpt><trkpt lat="43.5121836" lon="10.8555549"><ele>177.0</ele><time>2026-04-18T07:11:18.426Z</time></trkpt><trkpt lat="43.5121725" lon="10.8557053"><ele>177.0</ele><time>2026-04-18T07:11:19.406Z</time></trkpt><trkpt lat="43.5121621" lon="10.8558525"><ele>177.0</ele><time>2026-04-18T07:11:20.414Z</time></trkpt><trkpt lat="43.5121523" lon="10.8559986"><ele>177.0</ele><time>2026-04-18T07:11:21.436Z</time></trkpt><trkpt lat="43.5121369" lon="10.8561493"><ele>177.0</ele><time>2026-04-18T07:11:22.415Z</time></trkpt><trkpt lat="43.512118" lon="10.8562972"><ele>177.0</ele><time>2026-04-18T07:11:23.441Z</time></trkpt><trkpt lat="43.5120956" lon="10.8564368"><ele>177.5</ele><time>2026-04-18T07:11:24.438Z</time></trkpt><trkpt lat="43.5120742" lon="10.8565746"><ele>178.0</ele><time>2026-04-18T07:11:25.411Z</time></trkpt><trkpt lat="43.5120555" lon="10.8567175"><ele>178.5</ele><time>2026-04-18T07:11:26.445Z</time></trkpt><trkpt lat="43.5120329" lon="10.8570074"><ele>179.0</ele><time>2026-04-18T07:11:28.323Z</time></trkpt><trkpt lat="43.5120331" lon="10.8571537"><ele>179.33333333333331</ele><time>2026-04-18T07:11:29.415Z</time></trkpt><trkpt lat="43.5120438" lon="10.857271"><ele>179.66666666666666</ele><time>2026-04-18T07:11:30.408Z</time></trkpt><trkpt lat="43.5120598" lon="10.8573852"><ele>180.0</ele><time>2026-04-18T07:11:31.33Z</time></trkpt><trkpt lat="43.5120811" lon="10.8574879"><ele>180.33333333333334</ele><time>2026-04-18T07:11:32.31Z</time></trkpt><trkpt lat="43.5121043" lon="10.8575914"><ele>180.66666666666669</ele><time>2026-04-18T07:11:33.314Z</time></trkpt><trkpt lat="43.5121272" lon="10.857693"><ele>181.0</ele><time>2026-04-18T07:11:34.321Z</time></trkpt><trkpt lat="43.5121543" lon="10.8577931"><ele>181.4</ele><time>2026-04-18T07:11:35.315Z</time></trkpt><trkpt lat="43.5121789" lon="10.8578798"><ele>181.8</ele><time>2026-04-18T07:11:36.315Z</time></trkpt><trkpt lat="43.5122017" lon="10.8579647"><ele>182.20000000000002</ele><time>2026-04-18T07:11:37.317Z</time></trkpt><trkpt lat="43.5122528" lon="10.8581146"><ele>182.60000000000002</ele><time>2026-04-18T07:11:39.31Z</time></trkpt><trkpt lat="43.5122974" lon="10.8582502"><ele>183.0</ele><time>2026-04-18T07:11:41.309Z</time></trkpt><trkpt lat="43.5123649" lon="10.8584222"><ele>182.4</ele><time>2026-04-18T07:11:43.318Z</time></trkpt><trkpt lat="43.5124143" lon="10.8585554"><ele>181.8</ele><time>2026-04-18T07:11:44.319Z</time></trkpt><trkpt lat="43.5124656" lon="10.8586929"><ele>181.2</ele><time>2026-04-18T07:11:45.322Z</time></trkpt><trkpt lat="43.5125235" lon="10.8588089"><ele>180.6</ele><time>2026-04-18T07:11:46.32Z</time></trkpt><trkpt lat="43.5126005" lon="10.858924"><ele>180.0</ele><time>2026-04-18T07:11:47.322Z</time></trkpt><trkpt lat="43.5126824" lon="10.8590478"><ele>180.0</ele><time>2026-04-18T07:11:48.417Z</time></trkpt><trkpt lat="43.5127626" lon="10.8591824"><ele>180.0</ele><time>2026-04-18T07:11:49.416Z</time></trkpt><trkpt lat="43.5128442" lon="10.859314"><ele>180.0</ele><time>2026-04-18T07:11:50.404Z</time></trkpt><trkpt lat="43.5129291" lon="10.8594276"><ele>180.0</ele><time>2026-04-18T07:11:51.41Z</time></trkpt><trkpt lat="43.5130173" lon="10.8595313"><ele>181.0</ele><time>2026-04-18T07:11:52.319Z</time></trkpt><trkpt lat="43.5130934" lon="10.8596182"><ele>182.0</ele><time>2026-04-18T07:11:53.444Z</time></trkpt><trkpt lat="43.5131745" lon="10.8597068"><ele>183.0</ele><time>2026-04-18T07:11:54.383Z</time></trkpt><trkpt lat="43.5132484" lon="10.8597967"><ele>184.0</ele><time>2026-04-18T07:11:55.368Z</time></trkpt><trkpt lat="43.5133143" lon="10.8598849"><ele>185.0</ele><time>2026-04-18T07:11:56.322Z</time></trkpt><trkpt lat="43.5133796" lon="10.8599809"><ele>185.0</ele><time>2026-04-18T07:11:57.42Z</time></trkpt><trkpt lat="43.5134518" lon="10.8600905"><ele>185.0</ele><time>2026-04-18T07:11:58.411Z</time></trkpt><trkpt lat="43.5135287" lon="10.8601941"><ele>185.0</ele><time>2026-04-18T07:11:59.42Z</time></trkpt><trkpt lat="43.513668" lon="10.860367"><ele>185.0</ele><time>2026-04-18T07:12:01.318Z</time></trkpt><trkpt lat="43.5137325" lon="10.8604319"><ele>186.8</ele><time>2026-04-18T07:12:02.322Z</time></trkpt><trkpt lat="43.5138102" lon="10.860487"><ele>188.6</ele><time>2026-04-18T07:12:03.412Z</time></trkpt><trkpt lat="43.5138933" lon="10.8605365"><ele>190.39999999999998</ele><time>2026-04-18T07:12:04.418Z</time></trkpt><trkpt lat="43.5139783" lon="10.8605822"><ele>192.2</ele><time>2026-04-18T07:12:06.074Z</time></trkpt><trkpt lat="43.5141242" lon="10.8606788"><ele>194.0</ele><time>2026-04-18T07:12:07.421Z</time></trkpt><trkpt lat="43.5141841" lon="10.8607454"><ele>194.00000000000003</ele><time>2026-04-18T07:12:08.411Z</time></trkpt><trkpt lat="43.514242" lon="10.8608335"><ele>194.0</ele><time>2026-04-18T07:12:09.321Z</time></trkpt><trkpt lat="43.5142867" lon="10.8609351"><ele>194.0</ele><time>2026-04-18T07:12:10.415Z</time></trkpt><trkpt lat="43.5143222" lon="10.861046"><ele>194.0</ele><time>2026-04-18T07:12:11.412Z</time></trkpt><trkpt lat="43.5143484" lon="10.8611601"><ele>194.00000000000003</ele><time>2026-04-18T07:12:12.413Z</time></trkpt><trkpt lat="43.5143716" lon="10.8612766"><ele>194.0</ele><time>2026-04-18T07:12:13.435Z</time></trkpt><trkpt lat="43.5143907" lon="10.8613866"><ele>195.14285714285714</ele><time>2026-04-18T07:12:14.444Z</time></trkpt><trkpt lat="43.5144022" lon="10.8614871"><ele>196.2857142857143</ele><time>2026-04-18T07:12:15.421Z</time></trkpt><trkpt lat="43.5143965" lon="10.861579"><ele>197.42857142857144</ele><time>2026-04-18T07:12:16.428Z</time></trkpt><trkpt lat="43.5143711" lon="10.8616689"><ele>198.57142857142856</ele><time>2026-04-18T07:12:17.431Z</time></trkpt><trkpt lat="43.5143284" lon="10.8617476"><ele>199.71428571428572</ele><time>2026-04-18T07:12:18.421Z</time></trkpt><trkpt lat="43.5142688" lon="10.8618102"><ele>200.85714285714286</ele><time>2026-04-18T07:12:19.393Z</time></trkpt><trkpt lat="43.5142082" lon="10.8618595"><ele>202.0</ele><time>2026-04-18T07:12:20.438Z</time></trkpt><trkpt lat="43.5140562" lon="10.8620077"><ele>202.49999999999997</ele><time>2026-04-18T07:12:23.317Z</time></trkpt><trkpt lat="43.5140119" lon="10.8620728"><ele>203.0</ele><time>2026-04-18T07:12:24.424Z</time></trkpt><trkpt lat="43.5139688" lon="10.8621538"><ele>203.5</ele><time>2026-04-18T07:12:25.419Z</time></trkpt><trkpt lat="43.5139289" lon="10.8622488"><ele>204.0</ele><time>2026-04-18T07:12:26.44Z</time></trkpt><trkpt lat="43.5138994" lon="10.8623567"><ele>204.49999999999997</ele><time>2026-04-18T07:12:27.409Z</time></trkpt><trkpt lat="43.5138806" lon="10.8624805"><ele>205.0</ele><time>2026-04-18T07:12:28.428Z</time></trkpt><trkpt lat="43.513876" lon="10.8626214"><ele>206.0</ele><time>2026-04-18T07:12:29.413Z</time></trkpt><trkpt lat="43.5138828" lon="10.8627688"><ele>207.0</ele><time>2026-04-18T07:12:30.411Z</time></trkpt><trkpt lat="43.5139017" lon="10.8629107"><ele>208.0</ele><time>2026-04-18T07:12:31.425Z</time></trkpt><trkpt lat="43.5139338" lon="10.8630422"><ele>209.0</ele><time>2026-04-18T07:12:32.435Z</time></trkpt><trkpt lat="43.513981" lon="10.8631594"><ele>210.0</ele><time>2026-04-18T07:12:33.411Z</time></trkpt><trkpt lat="43.5140368" lon="10.8632719"><ele>210.0</ele><time>2026-04-18T07:12:34.415Z</time></trkpt><trkpt lat="43.5140991" lon="10.8633861"><ele>210.0</ele><time>2026-04-18T07:12:35.322Z</time></trkpt><trkpt lat="43.5141535" lon="10.8635049"><ele>210.0</ele><time>2026-04-18T07:12:36.321Z</time></trkpt><trkpt lat="43.5141933" lon="10.8636283"><ele>210.0</ele><time>2026-04-18T07:12:37.309Z</time></trkpt><trkpt lat="43.5142244" lon="10.8637679"><ele>210.0</ele><time>2026-04-18T07:12:38.32Z</time></trkpt><trkpt lat="43.5142464" lon="10.8639185"><ele>211.5</ele><time>2026-04-18T07:12:39.321Z</time></trkpt><trkpt lat="43.5142623" lon="10.8640725"><ele>213.0</ele><time>2026-04-18T07:12:40.324Z</time></trkpt><trkpt lat="43.514277" lon="10.8642381"><ele>214.5</ele><time>2026-04-18T07:12:41.326Z</time></trkpt><trkpt lat="43.5142874" lon="10.8644347"><ele>216.0</ele><time>2026-04-18T07:12:42.322Z</time></trkpt><trkpt lat="43.5143007" lon="10.8646322"><ele>218.25</ele><time>2026-04-18T07:12:43.321Z</time></trkpt><trkpt lat="43.5143114" lon="10.8648228"><ele>220.5</ele><time>2026-04-18T07:12:44.379Z</time></trkpt><trkpt lat="43.5143315" lon="10.8650214"><ele>222.75</ele><time>2026-04-18T07:12:45.321Z</time></trkpt><trkpt lat="43.5143525" lon="10.8652159"><ele>225.0</ele><time>2026-04-18T07:12:46.322Z</time></trkpt><trkpt lat="43.5143701" lon="10.865412"><ele>227.5</ele><time>2026-04-18T07:12:47.322Z</time></trkpt><trkpt lat="43.5143929" lon="10.8656136"><ele>230.0</ele><time>2026-04-18T07:12:48.315Z</time></trkpt><trkpt lat="43.51441" lon="10.8658091"><ele>232.5</ele><time>2026-04-18T07:12:49.305Z</time></trkpt><trkpt lat="43.5144374" lon="10.8659973"><ele>235.0</ele><time>2026-04-18T07:12:50.324Z</time></trkpt><trkpt lat="43.5144746" lon="10.8661889"><ele>236.5</ele><time>2026-04-18T07:12:51.32Z</time></trkpt><trkpt lat="43.5145069" lon="10.8663798"><ele>238.0</ele><time>2026-04-18T07:12:52.323Z</time></trkpt><trkpt lat="43.5145381" lon="10.8665619"><ele>239.5</ele><time>2026-04-18T07:12:53.32Z</time></trkpt><trkpt lat="43.5145557" lon="10.8667199"><ele>241.0</ele><time>2026-04-18T07:12:54.315Z</time></trkpt><trkpt lat="43.5145596" lon="10.8668821"><ele>241.25</ele><time>2026-04-18T07:12:55.32Z</time></trkpt><trkpt lat="43.5145647" lon="10.8670533"><ele>241.5</ele><time>2026-04-18T07:12:56.411Z</time></trkpt><trkpt lat="43.514594" lon="10.8672079"><ele>241.75</ele><time>2026-04-18T07:12:57.389Z</time></trkpt><trkpt lat="43.5146409" lon="10.8673726"><ele>242.0</ele><time>2026-04-18T07:12:58.318Z</time></trkpt><trkpt lat="43.5146973" lon="10.867551"><ele>241.75</ele><time>2026-04-18T07:12:59.416Z</time></trkpt><trkpt lat="43.5147593" lon="10.8677328"><ele>241.5</ele><time>2026-04-18T07:13:00.417Z</time></trkpt><trkpt lat="43.5148326" lon="10.8679"><ele>241.25</ele><time>2026-04-18T07:13:01.433Z</time></trkpt><trkpt lat="43.5149133" lon="10.8680545"><ele>241.0</ele><time>2026-04-18T07:13:02.436Z</time></trkpt><trkpt lat="43.5150047" lon="10.8682219"><ele>241.0</ele><time>2026-04-18T07:13:03.405Z</time></trkpt><trkpt lat="43.5150923" lon="10.8683734"><ele>241.0</ele><time>2026-04-18T07:13:04.405Z</time></trkpt><trkpt lat="43.5151846" lon="10.8685269"><ele>241.0</ele><time>2026-04-18T07:13:05.312Z</time></trkpt><trkpt lat="43.5152835" lon="10.8686884"><ele>241.0</ele><time>2026-04-18T07:13:06.321Z</time></trkpt><trkpt lat="43.5153884" lon="10.8688488"><ele>243.0</ele><time>2026-04-18T07:13:07.324Z</time></trkpt><trkpt lat="43.5155022" lon="10.869009"><ele>245.0</ele><time>2026-04-18T07:13:08.313Z</time></trkpt><trkpt lat="43.5156137" lon="10.8691611"><ele>247.0</ele><time>2026-04-18T07:13:09.321Z</time></trkpt><trkpt lat="43.5157184" lon="10.8693055"><ele>248.75</ele><time>2026-04-18T07:13:10.313Z</time></trkpt><trkpt lat="43.5158161" lon="10.8694409"><ele>250.5</ele><time>2026-04-18T07:13:11.318Z</time></trkpt><trkpt lat="43.5159002" lon="10.869566"><ele>252.25</ele><time>2026-04-18T07:13:12.32Z</time></trkpt><trkpt lat="43.5159848" lon="10.8696852"><ele>254.0</ele><time>2026-04-18T07:13:13.406Z</time></trkpt><trkpt lat="43.5160636" lon="10.8697976"><ele>254.0</ele><time>2026-04-18T07:13:14.318Z</time></trkpt><trkpt lat="43.5161397" lon="10.8699095"><ele>253.99999999999997</ele><time>2026-04-18T07:13:15.32Z</time></trkpt><trkpt lat="43.5162134" lon="10.8700283"><ele>253.99999999999997</ele><time>2026-04-18T07:13:16.321Z</time></trkpt><trkpt lat="43.5162655" lon="10.8701392"><ele>254.0</ele><time>2026-04-18T07:13:17.319Z</time></trkpt><trkpt lat="43.5162948" lon="10.8702495"><ele>254.0</ele><time>2026-04-18T07:13:18.319Z</time></trkpt><trkpt lat="43.5163018" lon="10.870358"><ele>257.0</ele><time>2026-04-18T07:13:19.313Z</time></trkpt><trkpt lat="43.5162883" lon="10.8704787"><ele>260.0</ele><time>2026-04-18T07:13:20.318Z</time></trkpt><trkpt lat="43.5162735" lon="10.8706181"><ele>263.0</ele><time>2026-04-18T07:13:21.316Z</time></trkpt><trkpt lat="43.5162582" lon="10.8707631"><ele>266.0</ele><time>2026-04-18T07:13:22.319Z</time></trkpt><trkpt lat="43.5162331" lon="10.8708655"><ele>269.0</ele><time>2026-04-18T07:13:23.317Z</time></trkpt><trkpt lat="43.5161532" lon="10.8709408"><ele>273.25</ele><time>2026-04-18T07:13:25.428Z</time></trkpt><trkpt lat="43.5160877" lon="10.8709531"><ele>277.5</ele><time>2026-04-18T07:13:26.41Z</time></trkpt><trkpt lat="43.5159018" lon="10.8709853"><ele>281.75</ele><time>2026-04-18T07:13:28.317Z</time></trkpt><trkpt lat="43.5158104" lon="10.8710369"><ele>286.0</ele><time>2026-04-18T07:13:29.314Z</time></trkpt><trkpt lat="43.5157356" lon="10.8711244"><ele>286.0</ele><time>2026-04-18T07:13:30.319Z</time></trkpt><trkpt lat="43.5156761" lon="10.8712328"><ele>286.0</ele><time>2026-04-18T07:13:31.318Z</time></trkpt><trkpt lat="43.5156315" lon="10.8713581"><ele>286.0</ele><time>2026-04-18T07:13:32.327Z</time></trkpt><trkpt lat="43.5155967" lon="10.8714925"><ele>286.0</ele><time>2026-04-18T07:13:33.324Z</time></trkpt><trkpt lat="43.5155719" lon="10.8716335"><ele>286.0</ele><time>2026-04-18T07:13:34.427Z</time></trkpt><trkpt lat="43.5155437" lon="10.8718816"><ele>288.0</ele><time>2026-04-18T07:13:36.46Z</time></trkpt><trkpt lat="43.5155463" lon="10.8719716"><ele>290.0</ele><time>2026-04-18T07:13:37.46Z</time></trkpt><trkpt lat="43.5155908" lon="10.8720783"><ele>292.0</ele><time>2026-04-18T07:13:39.428Z</time></trkpt><trkpt lat="43.5156536" lon="10.8720923"><ele>294.0</ele><time>2026-04-18T07:13:40.445Z</time></trkpt><trkpt lat="43.515736" lon="10.8720981"><ele>296.0</ele><time>2026-04-18T07:13:41.462Z</time></trkpt><trkpt lat="43.5159098" lon="10.8721202"><ele>296.0</ele><time>2026-04-18T07:13:43.325Z</time></trkpt><trkpt lat="43.5159892" lon="10.8721427"><ele>296.0</ele><time>2026-04-18T07:13:44.428Z</time></trkpt><trkpt lat="43.5160547" lon="10.8721916"><ele>296.0</ele><time>2026-04-18T07:13:45.421Z</time></trkpt><trkpt lat="43.516118" lon="10.8723488"><ele>296.0</ele><time>2026-04-18T07:13:47.454Z</time></trkpt><trkpt lat="43.5161369" lon="10.8724598"><ele>296.0</ele><time>2026-04-18T07:13:48.454Z</time></trkpt><trkpt lat="43.5161546" lon="10.8725723"><ele>296.83333333333337</ele><time>2026-04-18T07:13:49.42Z</time></trkpt><trkpt lat="43.5161879" lon="10.8726752"><ele>297.6666666666667</ele><time>2026-04-18T07:13:50.447Z</time></trkpt><trkpt lat="43.516219" lon="10.8727591"><ele>298.5</ele><time>2026-04-18T07:13:51.446Z</time></trkpt><trkpt lat="43.5162891" lon="10.8728512"><ele>299.3333333333333</ele><time>2026-04-18T07:13:52.45Z</time></trkpt><trkpt lat="43.5163404" lon="10.8729295"><ele>300.16666666666663</ele><time>2026-04-18T07:13:53.452Z</time></trkpt><trkpt lat="43.5163812" lon="10.8730576"><ele>301.0</ele><time>2026-04-18T07:13:55.45Z</time></trkpt><trkpt lat="43.5163614" lon="10.8732586"><ele>304.75</ele><time>2026-04-18T07:13:57.447Z</time></trkpt><trkpt lat="43.5163346" lon="10.8734226"><ele>308.5</ele><time>2026-04-18T07:13:58.423Z</time></trkpt><trkpt lat="43.5163317" lon="10.8735655"><ele>312.25</ele><time>2026-04-18T07:13:59.457Z</time></trkpt><trkpt lat="43.5163149" lon="10.8736876"><ele>316.0</ele><time>2026-04-18T07:14:00.457Z</time></trkpt><trkpt lat="43.516281" lon="10.8739658"><ele>315.75</ele><time>2026-04-18T07:14:02.413Z</time></trkpt><trkpt lat="43.5162249" lon="10.8741011"><ele>315.5</ele><time>2026-04-18T07:14:03.322Z</time></trkpt><trkpt lat="43.516162" lon="10.8742415"><ele>315.25</ele><time>2026-04-18T07:14:04.324Z</time></trkpt><trkpt lat="43.5161025" lon="10.8743741"><ele>315.0</ele><time>2026-04-18T07:14:05.324Z</time></trkpt><trkpt lat="43.5160453" lon="10.8744971"><ele>315.0</ele><time>2026-04-18T07:14:06.438Z</time></trkpt><trkpt lat="43.5159832" lon="10.8746002"><ele>315.0</ele><time>2026-04-18T07:14:07.456Z</time></trkpt><trkpt lat="43.5158895" lon="10.8746963"><ele>315.0</ele><time>2026-04-18T07:14:09.376Z</time></trkpt><trkpt lat="43.5157631" lon="10.8746846"><ele>315.0</ele><time>2026-04-18T07:14:10.458Z</time></trkpt><trkpt lat="43.515622" lon="10.8747278"><ele>315.0</ele><time>2026-04-18T07:14:12.46Z</time></trkpt><trkpt lat="43.5155478" lon="10.8748118"><ele>315.0</ele><time>2026-04-18T07:14:13.427Z</time></trkpt><trkpt lat="43.515407" lon="10.8749189"><ele>315.0</ele><time>2026-04-18T07:14:15.32Z</time></trkpt><trkpt lat="43.5153412" lon="10.8749769"><ele>315.0</ele><time>2026-04-18T07:14:16.428Z</time></trkpt><trkpt lat="43.5152883" lon="10.8750466"><ele>315.0</ele><time>2026-04-18T07:14:17.317Z</time></trkpt><trkpt lat="43.51521" lon="10.8751561"><ele>315.0</ele><time>2026-04-18T07:14:19.315Z</time></trkpt><trkpt lat="43.5151728" lon="10.8753253"><ele>315.0</ele><time>2026-04-18T07:14:21.438Z</time></trkpt><trkpt lat="43.5151726" lon="10.8754598"><ele>315.0</ele><time>2026-04-18T07:14:22.455Z</time></trkpt><trkpt lat="43.5151611" lon="10.8755994"><ele>315.0</ele><time>2026-04-18T07:14:24.384Z</time></trkpt><trkpt lat="43.5151372" lon="10.8757341"><ele>315.0</ele><time>2026-04-18T07:14:26.447Z</time></trkpt><trkpt lat="43.5151235" lon="10.8758348"><ele>317.0</ele><time>2026-04-18T07:14:28.454Z</time></trkpt><trkpt lat="43.5151118" lon="10.875946"><ele>319.0</ele><time>2026-04-18T07:14:36.321Z</time></trkpt><trkpt lat="43.515164" lon="10.8760222"><ele>321.0</ele><time>2026-04-18T07:14:40.319Z</time></trkpt><trkpt lat="43.5152688" lon="10.8760182"><ele>323.0</ele><time>2026-04-18T07:14:42.322Z</time></trkpt><trkpt lat="43.5154388" lon="10.8760306"><ele>325.0</ele><time>2026-04-18T07:14:45.322Z</time></trkpt><trkpt lat="43.5155067" lon="10.8760639"><ele>326.4</ele><time>2026-04-18T07:14:46.32Z</time></trkpt><trkpt lat="43.5155742" lon="10.8761227"><ele>327.8</ele><time>2026-04-18T07:14:47.318Z</time></trkpt><trkpt lat="43.5156402" lon="10.8761945"><ele>329.20000000000005</ele><time>2026-04-18T07:14:48.318Z</time></trkpt><trkpt lat="43.5157111" lon="10.8762653"><ele>330.6</ele><time>2026-04-18T07:14:49.43Z</time></trkpt><trkpt lat="43.5157918" lon="10.8763178"><ele>332.0</ele><time>2026-04-18T07:14:50.455Z</time></trkpt><trkpt lat="43.51597" lon="10.8763232"><ele>332.0</ele><time>2026-04-18T07:14:52.44Z</time></trkpt><trkpt lat="43.516152" lon="10.8762458"><ele>332.0</ele><time>2026-04-18T07:14:54.315Z</time></trkpt><trkpt lat="43.5162472" lon="10.8761965"><ele>332.0</ele><time>2026-04-18T07:14:55.317Z</time></trkpt><trkpt lat="43.5163534" lon="10.8761377"><ele>332.0</ele><time>2026-04-18T07:14:56.322Z</time></trkpt><trkpt lat="43.5164726" lon="10.8760717"><ele>333.0</ele><time>2026-04-18T07:14:57.326Z</time></trkpt><trkpt lat="43.516601" lon="10.875998"><ele>334.0</ele><time>2026-04-18T07:14:58.395Z</time></trkpt><trkpt lat="43.516717" lon="10.8759298"><ele>335.0</ele><time>2026-04-18T07:14:59.436Z</time></trkpt><trkpt lat="43.5168948" lon="10.8757586"><ele>335.0</ele><time>2026-04-18T07:15:01.442Z</time></trkpt><trkpt lat="43.5169478" lon="10.8756172"><ele>335.0</ele><time>2026-04-18T07:15:02.449Z</time></trkpt><trkpt lat="43.516986" lon="10.8754694"><ele>335.0</ele><time>2026-04-18T07:15:03.449Z</time></trkpt><trkpt lat="43.5170317" lon="10.875316"><ele>335.0</ele><time>2026-04-18T07:15:04.44Z</time></trkpt><trkpt lat="43.5170962" lon="10.875173"><ele>337.25</ele><time>2026-04-18T07:15:05.443Z</time></trkpt><trkpt lat="43.5171697" lon="10.8750522"><ele>339.5</ele><time>2026-04-18T07:15:06.449Z</time></trkpt><trkpt lat="43.517254" lon="10.8749303"><ele>341.75</ele><time>2026-04-18T07:15:07.435Z</time></trkpt><trkpt lat="43.5173778" lon="10.8748811"><ele>344.0</ele><time>2026-04-18T07:15:08.46Z</time></trkpt><trkpt lat="43.517505" lon="10.8748362"><ele>344.0</ele><time>2026-04-18T07:15:09.446Z</time></trkpt><trkpt lat="43.5176467" lon="10.8748151"><ele>344.0</ele><time>2026-04-18T07:15:10.454Z</time></trkpt><trkpt lat="43.5177943" lon="10.8748002"><ele>344.0</ele><time>2026-04-18T07:15:11.415Z</time></trkpt><trkpt lat="43.5179519" lon="10.8747858"><ele>344.0</ele><time>2026-04-18T07:15:12.45Z</time></trkpt><trkpt lat="43.5181033" lon="10.8747783"><ele>346.0</ele><time>2026-04-18T07:15:13.432Z</time></trkpt><trkpt lat="43.5182556" lon="10.8747683"><ele>348.0</ele><time>2026-04-18T07:15:14.454Z</time></trkpt><trkpt lat="43.5184001" lon="10.8747682"><ele>350.0</ele><time>2026-04-18T07:15:15.442Z</time></trkpt><trkpt lat="43.5185272" lon="10.8748456"><ele>352.0</ele><time>2026-04-18T07:15:16.467Z</time></trkpt><trkpt lat="43.5186537" lon="10.8748606"><ele>350.25</ele><time>2026-04-18T07:15:17.44Z</time></trkpt><trkpt lat="43.5187778" lon="10.8748769"><ele>348.5</ele><time>2026-04-18T07:15:18.442Z</time></trkpt><trkpt lat="43.5188938" lon="10.8748918"><ele>346.75</ele><time>2026-04-18T07:15:19.447Z</time></trkpt><trkpt lat="43.5190053" lon="10.8749346"><ele>345.0</ele><time>2026-04-18T07:15:20.435Z</time></trkpt><trkpt lat="43.5191144" lon="10.8749812"><ele>347.0</ele><time>2026-04-18T07:15:21.383Z</time></trkpt><trkpt lat="43.519188" lon="10.8751172"><ele>349.0</ele><time>2026-04-18T07:15:22.459Z</time></trkpt><trkpt lat="43.5192559" lon="10.8752505"><ele>351.0</ele><time>2026-04-18T07:15:23.41Z</time></trkpt><trkpt lat="43.5193174" lon="10.8754064"><ele>353.0</ele><time>2026-04-18T07:15:24.469Z</time></trkpt><trkpt lat="43.5193597" lon="10.875565"><ele>353.0</ele><time>2026-04-18T07:15:25.447Z</time></trkpt><trkpt lat="43.5194134" lon="10.8757194"><ele>353.0</ele><time>2026-04-18T07:15:26.46Z</time></trkpt><trkpt lat="43.5194811" lon="10.8758543"><ele>353.0</ele><time>2026-04-18T07:15:27.457Z</time></trkpt><trkpt lat="43.5195668" lon="10.8759659"><ele>353.0</ele><time>2026-04-18T07:15:28.456Z</time></trkpt><trkpt lat="43.5196549" lon="10.8760503"><ele>346.33333333333337</ele><time>2026-04-18T07:15:29.441Z</time></trkpt><trkpt lat="43.5198231" lon="10.8762405"><ele>339.6666666666667</ele><time>2026-04-18T07:15:31.322Z</time></trkpt><trkpt lat="43.519897" lon="10.8763597"><ele>333.0</ele><time>2026-04-18T07:15:32.445Z</time></trkpt><trkpt lat="43.5199299" lon="10.8765692"><ele>333.0</ele><time>2026-04-18T07:15:33.451Z</time></trkpt><trkpt lat="43.5199179" lon="10.87675"><ele>333.0</ele><time>2026-04-18T07:15:34.373Z</time></trkpt><trkpt lat="43.5199421" lon="10.8769391"><ele>333.0</ele><time>2026-04-18T07:15:35.317Z</time></trkpt><trkpt lat="43.5199516" lon="10.8771365"><ele>333.0</ele><time>2026-04-18T07:15:36.429Z</time></trkpt><trkpt lat="43.5199833" lon="10.8775167"><ele>337.6666666666667</ele><time>2026-04-18T07:15:38.32Z</time></trkpt><trkpt lat="43.520028" lon="10.8776933"><ele>342.33333333333337</ele><time>2026-04-18T07:15:39.433Z</time></trkpt><trkpt lat="43.5200737" lon="10.8778576"><ele>347.0</ele><time>2026-04-18T07:15:40.456Z</time></trkpt><trkpt lat="43.5201668" lon="10.878172"><ele>347.0</ele><time>2026-04-18T07:15:42.319Z</time></trkpt><trkpt lat="43.5202128" lon="10.8783094"><ele>347.0</ele><time>2026-04-18T07:15:43.318Z</time></trkpt><trkpt lat="43.5202357" lon="10.8784392"><ele>347.0</ele><time>2026-04-18T07:15:44.319Z</time></trkpt><trkpt lat="43.5202334" lon="10.8785751"><ele>347.0</ele><time>2026-04-18T07:15:45.32Z</time></trkpt><trkpt lat="43.5202276" lon="10.878709"><ele>347.0</ele><time>2026-04-18T07:15:46.317Z</time></trkpt><trkpt lat="43.5201922" lon="10.8788442"><ele>344.8</ele><time>2026-04-18T07:15:47.319Z</time></trkpt><trkpt lat="43.5201352" lon="10.8789656"><ele>342.6</ele><time>2026-04-18T07:15:48.318Z</time></trkpt><trkpt lat="43.5200587" lon="10.8790681"><ele>340.40000000000003</ele><time>2026-04-18T07:15:49.32Z</time></trkpt><trkpt lat="43.5199812" lon="10.8791439"><ele>338.20000000000005</ele><time>2026-04-18T07:15:50.319Z</time></trkpt><trkpt lat="43.5198891" lon="10.8792025"><ele>336.0</ele><time>2026-04-18T07:15:51.319Z</time></trkpt><trkpt lat="43.5197849" lon="10.8792252"><ele>338.3333333333333</ele><time>2026-04-18T07:15:52.465Z</time></trkpt><trkpt lat="43.5195322" lon="10.8791657"><ele>340.66666666666663</ele><time>2026-04-18T07:15:54.319Z</time></trkpt><trkpt lat="43.5194217" lon="10.8791471"><ele>343.0</ele><time>2026-04-18T07:15:55.318Z</time></trkpt><trkpt lat="43.5193209" lon="10.8791193"><ele>343.0</ele><time>2026-04-18T07:15:56.317Z</time></trkpt><trkpt lat="43.5192339" lon="10.8791237"><ele>343.0</ele><time>2026-04-18T07:15:57.32Z</time></trkpt><trkpt lat="43.5191387" lon="10.8791534"><ele>343.0</ele><time>2026-04-18T07:15:58.323Z</time></trkpt><trkpt lat="43.5190551" lon="10.8792049"><ele>343.0</ele><time>2026-04-18T07:15:59.32Z</time></trkpt><trkpt lat="43.5189963" lon="10.8792826"><ele>343.0</ele><time>2026-04-18T07:16:00.319Z</time></trkpt><trkpt lat="43.5189569" lon="10.8793857"><ele>343.0</ele><time>2026-04-18T07:16:01.317Z</time></trkpt><trkpt lat="43.5189546" lon="10.879495"><ele>342.5</ele><time>2026-04-18T07:16:02.318Z</time></trkpt><trkpt lat="43.5189898" lon="10.8795957"><ele>342.0</ele><time>2026-04-18T07:16:03.316Z</time></trkpt><trkpt lat="43.5190541" lon="10.8796635"><ele>341.5</ele><time>2026-04-18T07:16:04.318Z</time></trkpt><trkpt lat="43.5191454" lon="10.8797143"><ele>341.0</ele><time>2026-04-18T07:16:05.319Z</time></trkpt><trkpt lat="43.5193665" lon="10.8797749"><ele>341.0</ele><time>2026-04-18T07:16:07.417Z</time></trkpt><trkpt lat="43.5194727" lon="10.8798304"><ele>341.0</ele><time>2026-04-18T07:16:08.455Z</time></trkpt><trkpt lat="43.5196247" lon="10.8799878"><ele>341.0</ele><time>2026-04-18T07:16:10.455Z</time></trkpt><trkpt lat="43.5196147" lon="10.8802153"><ele>340.8</ele><time>2026-04-18T07:16:12.392Z</time></trkpt><trkpt lat="43.5195987" lon="10.8803482"><ele>340.6</ele><time>2026-04-18T07:16:13.323Z</time></trkpt><trkpt lat="43.5195714" lon="10.8805038"><ele>340.4</ele><time>2026-04-18T07:16:14.317Z</time></trkpt><trkpt lat="43.519565" lon="10.8806533"><ele>340.2</ele><time>2026-04-18T07:16:15.323Z</time></trkpt><trkpt lat="43.5195716" lon="10.8808131"><ele>340.0</ele><time>2026-04-18T07:16:16.324Z</time></trkpt><trkpt lat="43.5195862" lon="10.8809803"><ele>340.0</ele><time>2026-04-18T07:16:17.324Z</time></trkpt><trkpt lat="43.5195685" lon="10.8811308"><ele>340.0</ele><time>2026-04-18T07:16:18.313Z</time></trkpt><trkpt lat="43.5195437" lon="10.8813017"><ele>340.0</ele><time>2026-04-18T07:16:19.441Z</time></trkpt><trkpt lat="43.5195149" lon="10.8814675"><ele>340.0</ele><time>2026-04-18T07:16:20.418Z</time></trkpt><trkpt lat="43.519494" lon="10.8816401"><ele>346.25</ele><time>2026-04-18T07:16:21.324Z</time></trkpt><trkpt lat="43.519475" lon="10.8818155"><ele>352.5</ele><time>2026-04-18T07:16:22.315Z</time></trkpt><trkpt lat="43.5194706" lon="10.8819767"><ele>358.75</ele><time>2026-04-18T07:16:23.319Z</time></trkpt><trkpt lat="43.5195083" lon="10.8821283"><ele>365.0</ele><time>2026-04-18T07:16:24.321Z</time></trkpt><trkpt lat="43.5195502" lon="10.8822859"><ele>364.0</ele><time>2026-04-18T07:16:25.32Z</time></trkpt><trkpt lat="43.5196006" lon="10.8824417"><ele>363.0</ele><time>2026-04-18T07:16:26.321Z</time></trkpt><trkpt lat="43.5196877" lon="10.8825772"><ele>362.0</ele><time>2026-04-18T07:16:27.321Z</time></trkpt><trkpt lat="43.5197726" lon="10.8827332"><ele>361.0</ele><time>2026-04-18T07:16:28.316Z</time></trkpt><trkpt lat="43.5198685" lon="10.8828428"><ele>361.0</ele><time>2026-04-18T07:16:29.319Z</time></trkpt><trkpt lat="43.5199652" lon="10.8829341"><ele>361.0</ele><time>2026-04-18T07:16:30.323Z</time></trkpt><trkpt lat="43.5200835" lon="10.8830131"><ele>361.0</ele><time>2026-04-18T07:16:31.315Z</time></trkpt><trkpt lat="43.5202024" lon="10.8830831"><ele>361.0</ele><time>2026-04-18T07:16:32.314Z</time></trkpt><trkpt lat="43.5203253" lon="10.8831482"><ele>359.75</ele><time>2026-04-18T07:16:33.318Z</time></trkpt><trkpt lat="43.5204272" lon="10.8831744"><ele>358.5</ele><time>2026-04-18T07:16:34.318Z</time></trkpt><trkpt lat="43.5205205" lon="10.883162"><ele>357.25</ele><time>2026-04-18T07:16:35.325Z</time></trkpt><trkpt lat="43.520658" lon="10.8831033"><ele>356.0</ele><time>2026-04-18T07:16:36.317Z</time></trkpt><trkpt lat="43.5207782" lon="10.8830932"><ele>356.0</ele><time>2026-04-18T07:16:37.322Z</time></trkpt><trkpt lat="43.5209079" lon="10.8831351"><ele>356.0</ele><time>2026-04-18T07:16:38.314Z</time></trkpt><trkpt lat="43.5210237" lon="10.8831853"><ele>356.0</ele><time>2026-04-18T07:16:39.317Z</time></trkpt><trkpt lat="43.5211215" lon="10.8832473"><ele>356.0</ele><time>2026-04-18T07:16:40.322Z</time></trkpt><trkpt lat="43.5211998" lon="10.883336"><ele>353.20000000000005</ele><time>2026-04-18T07:16:41.316Z</time></trkpt><trkpt lat="43.5212644" lon="10.8834448"><ele>350.40000000000003</ele><time>2026-04-18T07:16:42.318Z</time></trkpt><trkpt lat="43.5213051" lon="10.883566"><ele>347.6</ele><time>2026-04-18T07:16:43.32Z</time></trkpt><trkpt lat="43.5213254" lon="10.8837078"><ele>344.8</ele><time>2026-04-18T07:16:44.316Z</time></trkpt><trkpt lat="43.5213239" lon="10.8838471"><ele>342.0</ele><time>2026-04-18T07:16:45.32Z</time></trkpt><trkpt lat="43.5213365" lon="10.8839899"><ele>342.0</ele><time>2026-04-18T07:16:46.32Z</time></trkpt><trkpt lat="43.5212884" lon="10.884132"><ele>342.0</ele><time>2026-04-18T07:16:47.325Z</time></trkpt><trkpt lat="43.5212427" lon="10.8842585"><ele>342.0</ele><time>2026-04-18T07:16:48.318Z</time></trkpt><trkpt lat="43.5211866" lon="10.8843816"><ele>342.0</ele><time>2026-04-18T07:16:49.32Z</time></trkpt><trkpt lat="43.521142" lon="10.8844841"><ele>342.0</ele><time>2026-04-18T07:16:50.324Z</time></trkpt><trkpt lat="43.5211668" lon="10.8846441"><ele>345.75</ele><time>2026-04-18T07:16:51.32Z</time></trkpt><trkpt lat="43.5211854" lon="10.8848007"><ele>349.5</ele><time>2026-04-18T07:16:52.32Z</time></trkpt><trkpt lat="43.5212212" lon="10.8849568"><ele>353.25</ele><time>2026-04-18T07:16:53.445Z</time></trkpt><trkpt lat="43.5212595" lon="10.885121"><ele>357.0</ele><time>2026-04-18T07:16:54.45Z</time></trkpt><trkpt lat="43.5212944" lon="10.8853085"><ele>357.0</ele><time>2026-04-18T07:16:55.424Z</time></trkpt><trkpt lat="43.5213803" lon="10.8854985"><ele>357.0</ele><time>2026-04-18T07:16:56.449Z</time></trkpt><trkpt lat="43.5214634" lon="10.8857382"><ele>357.0</ele><time>2026-04-18T07:16:57.451Z</time></trkpt><trkpt lat="43.5215535" lon="10.8859519"><ele>361.3333333333333</ele><time>2026-04-18T07:16:58.449Z</time></trkpt><trkpt lat="43.5216843" lon="10.8861287"><ele>365.66666666666663</ele><time>2026-04-18T07:16:59.439Z</time></trkpt><trkpt lat="43.5217834" lon="10.8863329"><ele>370.0</ele><time>2026-04-18T07:17:00.459Z</time></trkpt><trkpt lat="43.5219295" lon="10.8865308"><ele>370.0</ele><time>2026-04-18T07:17:01.445Z</time></trkpt><trkpt lat="43.521995" lon="10.8867197"><ele>370.0</ele><time>2026-04-18T07:17:02.317Z</time></trkpt><trkpt lat="43.5220617" lon="10.8868922"><ele>370.0</ele><time>2026-04-18T07:17:03.442Z</time></trkpt><trkpt lat="43.5221653" lon="10.8872365"><ele>370.5</ele><time>2026-04-18T07:17:05.453Z</time></trkpt><trkpt lat="43.5222196" lon="10.8874025"><ele>371.0</ele><time>2026-04-18T07:17:06.467Z</time></trkpt><trkpt lat="43.5222727" lon="10.8875578"><ele>371.5</ele><time>2026-04-18T07:17:07.454Z</time></trkpt><trkpt lat="43.5223259" lon="10.8877007"><ele>372.0</ele><time>2026-04-18T07:17:08.45Z</time></trkpt><trkpt lat="43.5223695" lon="10.8878439"><ele>372.0</ele><time>2026-04-18T07:17:09.438Z</time></trkpt><trkpt lat="43.5223514" lon="10.8880236"><ele>372.0</ele><time>2026-04-18T07:17:10.413Z</time></trkpt><trkpt lat="43.5223408" lon="10.8881842"><ele>372.0</ele><time>2026-04-18T07:17:11.321Z</time></trkpt><trkpt lat="43.522338" lon="10.8883353"><ele>372.0</ele><time>2026-04-18T07:17:12.329Z</time></trkpt><trkpt lat="43.5223314" lon="10.8885132"><ele>374.6666666666667</ele><time>2026-04-18T07:17:13.438Z</time></trkpt><trkpt lat="43.5223117" lon="10.8886891"><ele>377.33333333333337</ele><time>2026-04-18T07:17:14.469Z</time></trkpt><trkpt lat="43.522281" lon="10.889033"><ele>380.0</ele><time>2026-04-18T07:17:16.445Z</time></trkpt><trkpt lat="43.5222618" lon="10.8892087"><ele>382.0</ele><time>2026-04-18T07:17:17.383Z</time></trkpt><trkpt lat="43.522247" lon="10.8893986"><ele>384.0</ele><time>2026-04-18T07:17:18.444Z</time></trkpt><trkpt lat="43.5222317" lon="10.8895827"><ele>386.0</ele><time>2026-04-18T07:17:19.45Z</time></trkpt><trkpt lat="43.5222118" lon="10.8897564"><ele>388.0</ele><time>2026-04-18T07:17:20.425Z</time></trkpt><trkpt lat="43.5221964" lon="10.8899391"><ele>389.0</ele><time>2026-04-18T07:17:21.454Z</time></trkpt><trkpt lat="43.5221898" lon="10.8901201"><ele>390.0</ele><time>2026-04-18T07:17:22.445Z</time></trkpt><trkpt lat="43.5222047" lon="10.890311"><ele>391.0</ele><time>2026-04-18T07:17:23.453Z</time></trkpt><trkpt lat="43.5222265" lon="10.8904944"><ele>392.0</ele><time>2026-04-18T07:17:24.437Z</time></trkpt><trkpt lat="43.5222818" lon="10.8907027"><ele>393.3333333333333</ele><time>2026-04-18T07:17:25.344Z</time></trkpt><trkpt lat="43.5223599" lon="10.8909269"><ele>394.66666666666663</ele><time>2026-04-18T07:17:26.321Z</time></trkpt><trkpt lat="43.5224297" lon="10.8911591"><ele>396.0</ele><time>2026-04-18T07:17:27.327Z</time></trkpt><trkpt lat="43.52251" lon="10.8914091"><ele>396.0</ele><time>2026-04-18T07:17:28.42Z</time></trkpt><trkpt lat="43.5225833" lon="10.8916383"><ele>396.0</ele><time>2026-04-18T07:17:29.371Z</time></trkpt><trkpt lat="43.5226461" lon="10.8918316"><ele>396.0</ele><time>2026-04-18T07:17:30.423Z</time></trkpt><trkpt lat="43.5227744" lon="10.8922191"><ele>397.33333333333337</ele><time>2026-04-18T07:17:32.451Z</time></trkpt><trkpt lat="43.5228348" lon="10.8924228"><ele>398.6666666666667</ele><time>2026-04-18T07:17:33.411Z</time></trkpt><trkpt lat="43.5228956" lon="10.8926511"><ele>400.0</ele><time>2026-04-18T07:17:34.44Z</time></trkpt><trkpt lat="43.5229574" lon="10.8928709"><ele>400.0</ele><time>2026-04-18T07:17:35.446Z</time></trkpt><trkpt lat="43.5230731" lon="10.893282"><ele>400.0</ele><time>2026-04-18T07:17:37.442Z</time></trkpt><trkpt lat="43.523172" lon="10.8936084"><ele>402.6666666666667</ele><time>2026-04-18T07:17:39.441Z</time></trkpt><trkpt lat="43.5232217" lon="10.8937595"><ele>405.33333333333337</ele><time>2026-04-18T07:17:40.451Z</time></trkpt><trkpt lat="43.5233296" lon="10.8940576"><ele>408.0</ele><time>2026-04-18T07:17:42.318Z</time></trkpt><trkpt lat="43.5233815" lon="10.8942255"><ele>406.5</ele><time>2026-04-18T07:17:43.403Z</time></trkpt><trkpt lat="43.5234495" lon="10.8943696"><ele>405.0</ele><time>2026-04-18T07:17:44.316Z</time></trkpt><trkpt lat="43.5235074" lon="10.894536"><ele>403.5</ele><time>2026-04-18T07:17:45.309Z</time></trkpt><trkpt lat="43.5235731" lon="10.8946726"><ele>402.0</ele><time>2026-04-18T07:17:46.319Z</time></trkpt><trkpt lat="43.523627" lon="10.8948043"><ele>402.0</ele><time>2026-04-18T07:17:47.372Z</time></trkpt><trkpt lat="43.5236782" lon="10.8949331"><ele>402.0</ele><time>2026-04-18T07:17:48.382Z</time></trkpt><trkpt lat="43.5237264" lon="10.8950612"><ele>402.0</ele><time>2026-04-18T07:17:49.417Z</time></trkpt><trkpt lat="43.5237714" lon="10.8952028"><ele>402.0</ele><time>2026-04-18T07:17:50.317Z</time></trkpt><trkpt lat="43.5238092" lon="10.8953562"><ele>402.0</ele><time>2026-04-18T07:17:51.325Z</time></trkpt><trkpt lat="43.5238485" lon="10.8955037"><ele>403.25</ele><time>2026-04-18T07:17:52.444Z</time></trkpt><trkpt lat="43.5238892" lon="10.8956565"><ele>404.5</ele><time>2026-04-18T07:17:53.454Z</time></trkpt><trkpt lat="43.5239222" lon="10.8958131"><ele>405.75</ele><time>2026-04-18T07:17:54.43Z</time></trkpt><trkpt lat="43.5239584" lon="10.8959736"><ele>407.0</ele><time>2026-04-18T07:17:55.445Z</time></trkpt><trkpt lat="43.5240359" lon="10.8963112"><ele>408.66666666666663</ele><time>2026-04-18T07:17:57.443Z</time></trkpt><trkpt lat="43.5241226" lon="10.8966521"><ele>410.33333333333337</ele><time>2026-04-18T07:17:59.321Z</time></trkpt><trkpt lat="43.524163" lon="10.8968175"><ele>412.0</ele><time>2026-04-18T07:18:00.321Z</time></trkpt><trkpt lat="43.5242099" lon="10.8970006"><ele>412.33333333333337</ele><time>2026-04-18T07:18:01.451Z</time></trkpt><trkpt lat="43.5242406" lon="10.8971719"><ele>412.66666666666663</ele><time>2026-04-18T07:18:03.09Z</time></trkpt><trkpt lat="43.5242858" lon="10.8975038"><ele>413.0</ele><time>2026-04-18T07:18:04.378Z</time></trkpt><trkpt lat="43.5243277" lon="10.897623"><ele>413.8333333333333</ele><time>2026-04-18T07:18:05.457Z</time></trkpt><trkpt lat="43.5243465" lon="10.897741"><ele>414.66666666666663</ele><time>2026-04-18T07:18:06.429Z</time></trkpt><trkpt lat="43.5243783" lon="10.8978336"><ele>415.5</ele><time>2026-04-18T07:18:07.448Z</time></trkpt><trkpt lat="43.5243954" lon="10.8979949"><ele>416.33333333333337</ele><time>2026-04-18T07:18:09.459Z</time></trkpt><trkpt lat="43.5243794" lon="10.898081"><ele>417.1666666666667</ele><time>2026-04-18T07:18:10.449Z</time></trkpt><trkpt lat="43.5243429" lon="10.8981706"><ele>418.0</ele><time>2026-04-18T07:18:11.461Z</time></trkpt><trkpt lat="43.5242855" lon="10.8982647"><ele>420.5</ele><time>2026-04-18T07:18:12.454Z</time></trkpt><trkpt lat="43.5241276" lon="10.8984461"><ele>423.0</ele><time>2026-04-18T07:18:14.422Z</time></trkpt><trkpt lat="43.5240362" lon="10.8985544"><ele>425.5</ele><time>2026-04-18T07:18:15.463Z</time></trkpt><trkpt lat="43.5239444" lon="10.8986664"><ele>428.0</ele><time>2026-04-18T07:18:16.455Z</time></trkpt><trkpt lat="43.5238472" lon="10.8987799"><ele>427.3333333333333</ele><time>2026-04-18T07:18:17.444Z</time></trkpt><trkpt lat="43.5236337" lon="10.8990179"><ele>426.66666666666663</ele><time>2026-04-18T07:18:19.316Z</time></trkpt><trkpt lat="43.52352" lon="10.8991374"><ele>426.0</ele><time>2026-04-18T07:18:20.322Z</time></trkpt><trkpt lat="43.5233849" lon="10.8992626"><ele>426.0</ele><time>2026-04-18T07:18:21.32Z</time></trkpt><trkpt lat="43.523249" lon="10.8993652"><ele>426.0</ele><time>2026-04-18T07:18:22.321Z</time></trkpt><trkpt lat="43.5229623" lon="10.8995556"><ele>427.0</ele><time>2026-04-18T07:18:24.46Z</time></trkpt><trkpt lat="43.5228169" lon="10.8996368"><ele>428.0</ele><time>2026-04-18T07:18:25.471Z</time></trkpt><trkpt lat="43.5225166" lon="10.899768"><ele>428.0</ele><time>2026-04-18T07:18:27.452Z</time></trkpt><trkpt lat="43.5223608" lon="10.8998184"><ele>428.0</ele><time>2026-04-18T07:18:28.394Z</time></trkpt><trkpt lat="43.5222141" lon="10.8998903"><ele>428.0</ele><time>2026-04-18T07:18:29.323Z</time></trkpt><trkpt lat="43.5220572" lon="10.8999713"><ele>429.66666666666663</ele><time>2026-04-18T07:18:30.316Z</time></trkpt><trkpt lat="43.521908" lon="10.9000718"><ele>431.33333333333337</ele><time>2026-04-18T07:18:31.321Z</time></trkpt><trkpt lat="43.5217573" lon="10.9001804"><ele>433.0</ele><time>2026-04-18T07:18:32.321Z</time></trkpt><trkpt lat="43.5214917" lon="10.9004229"><ele>433.0</ele><time>2026-04-18T07:18:34.437Z</time></trkpt><trkpt lat="43.5213581" lon="10.9005466"><ele>433.0</ele><time>2026-04-18T07:18:35.445Z</time></trkpt><trkpt lat="43.5211109" lon="10.9008335"><ele>435.0</ele><time>2026-04-18T07:18:37.452Z</time></trkpt><trkpt lat="43.5209905" lon="10.9009739"><ele>437.0</ele><time>2026-04-18T07:18:38.447Z</time></trkpt><trkpt lat="43.5208736" lon="10.9011205"><ele>439.0</ele><time>2026-04-18T07:18:39.463Z</time></trkpt><trkpt lat="43.5207529" lon="10.9012631"><ele>439.0</ele><time>2026-04-18T07:18:40.391Z</time></trkpt><trkpt lat="43.5206284" lon="10.9013909"><ele>439.0</ele><time>2026-04-18T07:18:41.317Z</time></trkpt><trkpt lat="43.5205" lon="10.9015391"><ele>439.0</ele><time>2026-04-18T07:18:42.46Z</time></trkpt><trkpt lat="43.5203749" lon="10.9016876"><ele>438.0</ele><time>2026-04-18T07:18:43.459Z</time></trkpt><trkpt lat="43.5202475" lon="10.9018362"><ele>437.0</ele><time>2026-04-18T07:18:44.46Z</time></trkpt><trkpt lat="43.5201243" lon="10.901982"><ele>436.0</ele><time>2026-04-18T07:18:45.464Z</time></trkpt><trkpt lat="43.5199991" lon="10.9021144"><ele>436.0</ele><time>2026-04-18T07:18:46.418Z</time></trkpt><trkpt lat="43.5198713" lon="10.9022488"><ele>436.0</ele><time>2026-04-18T07:18:47.455Z</time></trkpt><trkpt lat="43.5197327" lon="10.9023676"><ele>436.0</ele><time>2026-04-18T07:18:48.452Z</time></trkpt><trkpt lat="43.5195844" lon="10.9024618"><ele>437.6666666666667</ele><time>2026-04-18T07:18:49.422Z</time></trkpt><trkpt lat="43.5194257" lon="10.9025386"><ele>439.33333333333337</ele><time>2026-04-18T07:18:50.461Z</time></trkpt><trkpt lat="43.5192556" lon="10.9026"><ele>441.0</ele><time>2026-04-18T07:18:51.451Z</time></trkpt><trkpt lat="43.5190768" lon="10.902647"><ele>441.0</ele><time>2026-04-18T07:18:52.447Z</time></trkpt><trkpt lat="43.5187165" lon="10.9026898"><ele>441.0</ele><time>2026-04-18T07:18:54.319Z</time></trkpt><trkpt lat="43.5185355" lon="10.9026974"><ele>441.0</ele><time>2026-04-18T07:18:55.443Z</time></trkpt><trkpt lat="43.5181957" lon="10.902713"><ele>441.0</ele><time>2026-04-18T07:18:57.451Z</time></trkpt><trkpt lat="43.5180514" lon="10.9027158"><ele>445.5</ele><time>2026-04-18T07:18:58.41Z</time></trkpt><trkpt lat="43.5179015" lon="10.902722"><ele>450.0</ele><time>2026-04-18T07:18:59.447Z</time></trkpt><trkpt lat="43.5175785" lon="10.9027048"><ele>450.0</ele><time>2026-04-18T07:19:01.45Z</time></trkpt><trkpt lat="43.5174131" lon="10.9026638"><ele>450.0</ele><time>2026-04-18T07:19:02.448Z</time></trkpt><trkpt lat="43.5172522" lon="10.9025842"><ele>450.0</ele><time>2026-04-18T07:19:03.427Z</time></trkpt><trkpt lat="43.517102" lon="10.9024633"><ele>453.66666666666663</ele><time>2026-04-18T07:19:04.451Z</time></trkpt><trkpt lat="43.5169594" lon="10.9023174"><ele>457.3333333333333</ele><time>2026-04-18T07:19:05.456Z</time></trkpt><trkpt lat="43.5168264" lon="10.9021654"><ele>461.0</ele><time>2026-04-18T07:19:06.464Z</time></trkpt><trkpt lat="43.5167004" lon="10.9020164"><ele>460.5</ele><time>2026-04-18T07:19:07.456Z</time></trkpt><trkpt lat="43.5164499" lon="10.9017198"><ele>460.0</ele><time>2026-04-18T07:19:09.437Z</time></trkpt><trkpt lat="43.5163197" lon="10.9015748"><ele>462.0</ele><time>2026-04-18T07:19:10.445Z</time></trkpt><trkpt lat="43.5161834" lon="10.9014408"><ele>464.0</ele><time>2026-04-18T07:19:11.456Z</time></trkpt><trkpt lat="43.5158882" lon="10.9012098"><ele>464.0</ele><time>2026-04-18T07:19:13.32Z</time></trkpt><trkpt lat="43.5157435" lon="10.9011109"><ele>464.0</ele><time>2026-04-18T07:19:14.442Z</time></trkpt><trkpt lat="43.5156105" lon="10.9010274"><ele>464.0</ele><time>2026-04-18T07:19:15.441Z</time></trkpt><trkpt lat="43.5154729" lon="10.9009426"><ele>466.25</ele><time>2026-04-18T07:19:16.445Z</time></trkpt><trkpt lat="43.5153389" lon="10.9008586"><ele>468.5</ele><time>2026-04-18T07:19:17.448Z</time></trkpt><trkpt lat="43.5152042" lon="10.9007681"><ele>470.75</ele><time>2026-04-18T07:19:18.45Z</time></trkpt><trkpt lat="43.5150702" lon="10.9006725"><ele>473.0</ele><time>2026-04-18T07:19:19.448Z</time></trkpt><trkpt lat="43.5149326" lon="10.9005772"><ele>473.0</ele><time>2026-04-18T07:19:20.457Z</time></trkpt><trkpt lat="43.5147904" lon="10.9004825"><ele>473.0</ele><time>2026-04-18T07:19:21.439Z</time></trkpt><trkpt lat="43.5146434" lon="10.9003825"><ele>473.0</ele><time>2026-04-18T07:19:22.422Z</time></trkpt><trkpt lat="43.5144925" lon="10.9002754"><ele>474.66666666666663</ele><time>2026-04-18T07:19:23.412Z</time></trkpt><trkpt lat="43.5143416" lon="10.9001571"><ele>476.33333333333337</ele><time>2026-04-18T07:19:24.447Z</time></trkpt><trkpt lat="43.5141957" lon="10.9000203"><ele>478.0</ele><time>2026-04-18T07:19:25.452Z</time></trkpt><trkpt lat="43.514064" lon="10.8998828"><ele>478.0</ele><time>2026-04-18T07:19:26.439Z</time></trkpt><trkpt lat="43.5138095" lon="10.8996092"><ele>478.0</ele><time>2026-04-18T07:19:28.319Z</time></trkpt><trkpt lat="43.5136816" lon="10.8994729"><ele>477.33333333333337</ele><time>2026-04-18T07:19:29.453Z</time></trkpt><trkpt lat="43.5135553" lon="10.899346"><ele>476.66666666666663</ele><time>2026-04-18T07:19:30.446Z</time></trkpt><trkpt lat="43.5134261" lon="10.8992231"><ele>476.0</ele><time>2026-04-18T07:19:31.457Z</time></trkpt><trkpt lat="43.5132985" lon="10.8991185"><ele>476.66666666666663</ele><time>2026-04-18T07:19:32.422Z</time></trkpt><trkpt lat="43.5131634" lon="10.8990376"><ele>477.33333333333337</ele><time>2026-04-18T07:19:33.447Z</time></trkpt><trkpt lat="43.5130198" lon="10.8989756"><ele>478.0</ele><time>2026-04-18T07:19:34.428Z</time></trkpt><trkpt lat="43.5127137" lon="10.8989378"><ele>478.0</ele><time>2026-04-18T07:19:36.426Z</time></trkpt><trkpt lat="43.5125524" lon="10.8989602"><ele>478.0</ele><time>2026-04-18T07:19:37.439Z</time></trkpt><trkpt lat="43.5123961" lon="10.89902"><ele>478.0</ele><time>2026-04-18T07:19:38.41Z</time></trkpt><trkpt lat="43.5122543" lon="10.8991041"><ele>481.5</ele><time>2026-04-18T07:19:39.444Z</time></trkpt><trkpt lat="43.5120114" lon="10.8993605"><ele>485.0</ele><time>2026-04-18T07:19:41.314Z</time></trkpt><trkpt lat="43.5119111" lon="10.8995308"><ele>485.0</ele><time>2026-04-18T07:19:42.313Z</time></trkpt><trkpt lat="43.5118373" lon="10.8997151"><ele>485.0</ele><time>2026-04-18T07:19:43.315Z</time></trkpt><trkpt lat="43.5117931" lon="10.8998996"><ele>485.0</ele><time>2026-04-18T07:19:44.312Z</time></trkpt><trkpt lat="43.5117705" lon="10.9000955"><ele>485.0</ele><time>2026-04-18T07:19:45.318Z</time></trkpt><trkpt lat="43.5117589" lon="10.9003044"><ele>484.66666666666663</ele><time>2026-04-18T07:19:46.313Z</time></trkpt><trkpt lat="43.5117624" lon="10.9005171"><ele>484.33333333333337</ele><time>2026-04-18T07:19:47.323Z</time></trkpt><trkpt lat="43.5117777" lon="10.9007361"><ele>484.0</ele><time>2026-04-18T07:19:48.317Z</time></trkpt><trkpt lat="43.5118074" lon="10.900958"><ele>484.0</ele><time>2026-04-18T07:19:49.312Z</time></trkpt><trkpt lat="43.5118564" lon="10.9011765"><ele>484.0</ele><time>2026-04-18T07:19:50.316Z</time></trkpt><trkpt lat="43.5119211" lon="10.9013902"><ele>484.0</ele><time>2026-04-18T07:19:51.316Z</time></trkpt><trkpt lat="43.5119967" lon="10.9016033"><ele>483.6666666666667</ele><time>2026-04-18T07:19:52.315Z</time></trkpt><trkpt lat="43.5120675" lon="10.9018223"><ele>483.33333333333337</ele><time>2026-04-18T07:19:53.319Z</time></trkpt><trkpt lat="43.5121276" lon="10.9020523"><ele>483.0</ele><time>2026-04-18T07:19:54.319Z</time></trkpt><trkpt lat="43.5121754" lon="10.9022851"><ele>483.0</ele><time>2026-04-18T07:19:55.318Z</time></trkpt><trkpt lat="43.5122038" lon="10.9025314"><ele>483.0</ele><time>2026-04-18T07:19:56.314Z</time></trkpt><trkpt lat="43.5122068" lon="10.9027823"><ele>483.0</ele><time>2026-04-18T07:19:57.317Z</time></trkpt><trkpt lat="43.5121925" lon="10.9030222"><ele>483.33333333333337</ele><time>2026-04-18T07:19:58.317Z</time></trkpt><trkpt lat="43.5121717" lon="10.9032593"><ele>483.6666666666667</ele><time>2026-04-18T07:19:59.32Z</time></trkpt><trkpt lat="43.512154" lon="10.9034947"><ele>484.0</ele><time>2026-04-18T07:20:00.32Z</time></trkpt><trkpt lat="43.5121372" lon="10.9037193"><ele>484.33333333333337</ele><time>2026-04-18T07:20:01.318Z</time></trkpt><trkpt lat="43.5121129" lon="10.9039382"><ele>484.66666666666663</ele><time>2026-04-18T07:20:02.318Z</time></trkpt><trkpt lat="43.5120683" lon="10.9041487"><ele>485.0</ele><time>2026-04-18T07:20:03.316Z</time></trkpt><trkpt lat="43.5119908" lon="10.9043479"><ele>486.66666666666663</ele><time>2026-04-18T07:20:04.316Z</time></trkpt><trkpt lat="43.5118877" lon="10.9045185"><ele>488.33333333333337</ele><time>2026-04-18T07:20:05.318Z</time></trkpt><trkpt lat="43.5117615" lon="10.9046581"><ele>490.0</ele><time>2026-04-18T07:20:06.32Z</time></trkpt><trkpt lat="43.5116144" lon="10.9047579"><ele>490.0</ele><time>2026-04-18T07:20:07.32Z</time></trkpt><trkpt lat="43.5114567" lon="10.9048224"><ele>490.0</ele><time>2026-04-18T07:20:08.317Z</time></trkpt><trkpt lat="43.5112934" lon="10.9048769"><ele>490.0</ele><time>2026-04-18T07:20:09.321Z</time></trkpt><trkpt lat="43.5111268" lon="10.904938"><ele>489.33333333333337</ele><time>2026-04-18T07:20:10.319Z</time></trkpt><trkpt lat="43.5109562" lon="10.9050055"><ele>488.66666666666663</ele><time>2026-04-18T07:20:11.322Z</time></trkpt><trkpt lat="43.510785" lon="10.9050741"><ele>488.0</ele><time>2026-04-18T07:20:12.323Z</time></trkpt><trkpt lat="43.5106089" lon="10.9051377"><ele>487.0</ele><time>2026-04-18T07:20:13.321Z</time></trkpt><trkpt lat="43.5104298" lon="10.9051977"><ele>486.0</ele><time>2026-04-18T07:20:14.318Z</time></trkpt><trkpt lat="43.5102478" lon="10.9052618"><ele>485.0</ele><time>2026-04-18T07:20:15.315Z</time></trkpt><trkpt lat="43.5100638" lon="10.9053247"><ele>487.0</ele><time>2026-04-18T07:20:16.318Z</time></trkpt><trkpt lat="43.5098819" lon="10.9053894"><ele>489.0</ele><time>2026-04-18T07:20:17.314Z</time></trkpt><trkpt lat="43.5097039" lon="10.90545"><ele>491.0</ele><time>2026-04-18T07:20:18.316Z</time></trkpt><trkpt lat="43.5095226" lon="10.9055063"><ele>493.66666666666663</ele><time>2026-04-18T07:20:19.321Z</time></trkpt><trkpt lat="43.5093449" lon="10.9055694"><ele>496.33333333333337</ele><time>2026-04-18T07:20:20.32Z</time></trkpt><trkpt lat="43.5091688" lon="10.9056339"><ele>499.0</ele><time>2026-04-18T07:20:21.313Z</time></trkpt><trkpt lat="43.5089935" lon="10.9056982"><ele>499.0</ele><time>2026-04-18T07:20:22.321Z</time></trkpt><trkpt lat="43.5088192" lon="10.9057591"><ele>499.0</ele><time>2026-04-18T07:20:23.321Z</time></trkpt><trkpt lat="43.5086394" lon="10.90582"><ele>499.0</ele><time>2026-04-18T07:20:24.318Z</time></trkpt><trkpt lat="43.5084582" lon="10.9058836"><ele>501.6666666666667</ele><time>2026-04-18T07:20:25.32Z</time></trkpt><trkpt lat="43.5082793" lon="10.9059511"><ele>504.33333333333337</ele><time>2026-04-18T07:20:26.316Z</time></trkpt><trkpt lat="43.5081013" lon="10.9060152"><ele>507.0</ele><time>2026-04-18T07:20:27.318Z</time></trkpt><trkpt lat="43.5079261" lon="10.9060844"><ele>508.0</ele><time>2026-04-18T07:20:28.315Z</time></trkpt><trkpt lat="43.5077491" lon="10.9061678"><ele>509.0</ele><time>2026-04-18T07:20:29.315Z</time></trkpt><trkpt lat="43.5075821" lon="10.9062734"><ele>510.0</ele><time>2026-04-18T07:20:30.317Z</time></trkpt><trkpt lat="43.5074248" lon="10.9064061"><ele>510.0</ele><time>2026-04-18T07:20:31.32Z</time></trkpt><trkpt lat="43.5072798" lon="10.9065612"><ele>510.0</ele><time>2026-04-18T07:20:32.318Z</time></trkpt><trkpt lat="43.507136" lon="10.9067185"><ele>510.0</ele><time>2026-04-18T07:20:33.319Z</time></trkpt><trkpt lat="43.5069914" lon="10.9068759"><ele>513.3333333333334</ele><time>2026-04-18T07:20:34.315Z</time></trkpt><trkpt lat="43.5068487" lon="10.907033"><ele>516.6666666666667</ele><time>2026-04-18T07:20:35.32Z</time></trkpt><trkpt lat="43.5067068" lon="10.9071891"><ele>520.0</ele><time>2026-04-18T07:20:36.319Z</time></trkpt><trkpt lat="43.5065678" lon="10.9073521"><ele>520.0</ele><time>2026-04-18T07:20:37.311Z</time></trkpt><trkpt lat="43.5064289" lon="10.9075152"><ele>520.0</ele><time>2026-04-18T07:20:38.319Z</time></trkpt><trkpt lat="43.5062866" lon="10.9076727"><ele>520.0</ele><time>2026-04-18T07:20:39.322Z</time></trkpt><trkpt lat="43.5061405" lon="10.907824"><ele>521.3333333333334</ele><time>2026-04-18T07:20:40.395Z</time></trkpt><trkpt lat="43.505989" lon="10.9079598"><ele>522.6666666666666</ele><time>2026-04-18T07:20:41.443Z</time></trkpt><trkpt lat="43.5058266" lon="10.9080645"><ele>524.0</ele><time>2026-04-18T07:20:42.416Z</time></trkpt><trkpt lat="43.5056557" lon="10.9081374"><ele>524.0</ele><time>2026-04-18T07:20:43.395Z</time></trkpt><trkpt lat="43.5054826" lon="10.9081737"><ele>524.0</ele><time>2026-04-18T07:20:44.449Z</time></trkpt><trkpt lat="43.5051309" lon="10.9081612"><ele>525.3333333333333</ele><time>2026-04-18T07:20:46.317Z</time></trkpt><trkpt lat="43.5049518" lon="10.9081286"><ele>526.6666666666666</ele><time>2026-04-18T07:20:47.302Z</time></trkpt><trkpt lat="43.5047751" lon="10.9080978"><ele>528.0</ele><time>2026-04-18T07:20:48.319Z</time></trkpt><trkpt lat="43.5045979" lon="10.9080693"><ele>530.0</ele><time>2026-04-18T07:20:49.319Z</time></trkpt><trkpt lat="43.5044246" lon="10.9080416"><ele>532.0</ele><time>2026-04-18T07:20:50.32Z</time></trkpt><trkpt lat="43.5042527" lon="10.9080124"><ele>534.0</ele><time>2026-04-18T07:20:51.316Z</time></trkpt><trkpt lat="43.5040845" lon="10.9079833"><ele>534.0</ele><time>2026-04-18T07:20:52.319Z</time></trkpt><trkpt lat="43.5039157" lon="10.9079613"><ele>534.0</ele><time>2026-04-18T07:20:53.314Z</time></trkpt><trkpt lat="43.5037431" lon="10.907939"><ele>534.0</ele><time>2026-04-18T07:20:54.314Z</time></trkpt><trkpt lat="43.5035661" lon="10.907909"><ele>534.6666666666666</ele><time>2026-04-18T07:20:55.315Z</time></trkpt><trkpt lat="43.5033994" lon="10.9078795"><ele>535.3333333333333</ele><time>2026-04-18T07:20:56.315Z</time></trkpt><trkpt lat="43.5032304" lon="10.9078528"><ele>536.0</ele><time>2026-04-18T07:20:57.318Z</time></trkpt><trkpt lat="43.5030565" lon="10.9078251"><ele>535.3333333333333</ele><time>2026-04-18T07:20:58.316Z</time></trkpt><trkpt lat="43.5028823" lon="10.9077997"><ele>534.6666666666666</ele><time>2026-04-18T07:20:59.316Z</time></trkpt><trkpt lat="43.5027065" lon="10.9077748"><ele>534.0</ele><time>2026-04-18T07:21:00.316Z</time></trkpt><trkpt lat="43.5025429" lon="10.9077563"><ele>534.0</ele><time>2026-04-18T07:21:01.317Z</time></trkpt><trkpt lat="43.5023908" lon="10.9077394"><ele>534.0</ele><time>2026-04-18T07:21:02.318Z</time></trkpt><trkpt lat="43.5022514" lon="10.9077248"><ele>534.0</ele><time>2026-04-18T07:21:03.315Z</time></trkpt><trkpt lat="43.5021238" lon="10.9077068"><ele>534.0</ele><time>2026-04-18T07:21:04.314Z</time></trkpt><trkpt lat="43.5020061" lon="10.9076928"><ele>534.6</ele><time>2026-04-18T07:21:05.317Z</time></trkpt><trkpt lat="43.5019053" lon="10.9076952"><ele>535.2</ele><time>2026-04-18T07:21:06.315Z</time></trkpt><trkpt lat="43.5018077" lon="10.9077128"><ele>535.8000000000001</ele><time>2026-04-18T07:21:07.313Z</time></trkpt><trkpt lat="43.5017132" lon="10.9077363"><ele>536.4</ele><time>2026-04-18T07:21:08.32Z</time></trkpt><trkpt lat="43.5016307" lon="10.9077705"><ele>537.0</ele><time>2026-04-18T07:21:09.318Z</time></trkpt><trkpt lat="43.5015505" lon="10.9078097"><ele>537.0</ele><time>2026-04-18T07:21:10.323Z</time></trkpt><trkpt lat="43.5014667" lon="10.9078573"><ele>537.0</ele><time>2026-04-18T07:21:11.314Z</time></trkpt><trkpt lat="43.5013683" lon="10.907956"><ele>537.0</ele><time>2026-04-18T07:21:12.315Z</time></trkpt><trkpt lat="43.5012832" lon="10.9080946"><ele>537.0</ele><time>2026-04-18T07:21:13.318Z</time></trkpt><trkpt lat="43.5011953" lon="10.9082277"><ele>538.25</ele><time>2026-04-18T07:21:14.32Z</time></trkpt><trkpt lat="43.5011071" lon="10.9083749"><ele>539.5</ele><time>2026-04-18T07:21:15.327Z</time></trkpt><trkpt lat="43.5010277" lon="10.9085475"><ele>540.75</ele><time>2026-04-18T07:21:16.322Z</time></trkpt><trkpt lat="43.5009512" lon="10.9087146"><ele>542.0</ele><time>2026-04-18T07:21:17.32Z</time></trkpt><trkpt lat="43.5008759" lon="10.9088859"><ele>542.0</ele><time>2026-04-18T07:21:18.323Z</time></trkpt><trkpt lat="43.5008131" lon="10.909069"><ele>542.0</ele><time>2026-04-18T07:21:19.321Z</time></trkpt><trkpt lat="43.5007571" lon="10.9092574"><ele>542.0</ele><time>2026-04-18T07:21:20.316Z</time></trkpt><trkpt lat="43.500705" lon="10.9094469"><ele>542.0</ele><time>2026-04-18T07:21:21.318Z</time></trkpt><trkpt lat="43.5006595" lon="10.9096446"><ele>542.0</ele><time>2026-04-18T07:21:22.316Z</time></trkpt><trkpt lat="43.5006195" lon="10.9098315"><ele>542.0</ele><time>2026-04-18T07:21:23.31Z</time></trkpt><trkpt lat="43.5005858" lon="10.9100234"><ele>542.0</ele><time>2026-04-18T07:21:24.322Z</time></trkpt><trkpt lat="43.5005674" lon="10.9102193"><ele>542.0</ele><time>2026-04-18T07:21:25.442Z</time></trkpt><trkpt lat="43.5005743" lon="10.9104219"><ele>544.0</ele><time>2026-04-18T07:21:26.441Z</time></trkpt><trkpt lat="43.5005999" lon="10.9106267"><ele>546.0</ele><time>2026-04-18T07:21:27.449Z</time></trkpt><trkpt lat="43.5006727" lon="10.9110697"><ele>546.0</ele><time>2026-04-18T07:21:29.446Z</time></trkpt><trkpt lat="43.5007086" lon="10.9112929"><ele>546.0</ele><time>2026-04-18T07:21:30.4Z</time></trkpt><trkpt lat="43.5007377" lon="10.9115076"><ele>546.0</ele><time>2026-04-18T07:21:31.318Z</time></trkpt><trkpt lat="43.5007651" lon="10.9117132"><ele>544.75</ele><time>2026-04-18T07:21:32.321Z</time></trkpt><trkpt lat="43.5007635" lon="10.911915"><ele>543.5</ele><time>2026-04-18T07:21:33.322Z</time></trkpt><trkpt lat="43.5007397" lon="10.9121187"><ele>542.25</ele><time>2026-04-18T07:21:34.454Z</time></trkpt><trkpt lat="43.5006835" lon="10.9123145"><ele>541.0</ele><time>2026-04-18T07:21:35.436Z</time></trkpt><trkpt lat="43.500618" lon="10.9125203"><ele>539.6666666666667</ele><time>2026-04-18T07:21:36.439Z</time></trkpt><trkpt lat="43.5005447" lon="10.9127286"><ele>538.3333333333334</ele><time>2026-04-18T07:21:37.382Z</time></trkpt><trkpt lat="43.5004755" lon="10.9129307"><ele>537.0</ele><time>2026-04-18T07:21:38.32Z</time></trkpt><trkpt lat="43.5004041" lon="10.9131332"><ele>537.0</ele><time>2026-04-18T07:21:39.44Z</time></trkpt><trkpt lat="43.5003315" lon="10.9133155"><ele>537.0</ele><time>2026-04-18T07:21:40.463Z</time></trkpt><trkpt lat="43.5002449" lon="10.9135"><ele>537.0</ele><time>2026-04-18T07:21:41.43Z</time></trkpt><trkpt lat="43.5001507" lon="10.9136806"><ele>537.25</ele><time>2026-04-18T07:21:42.446Z</time></trkpt><trkpt lat="43.500063" lon="10.9138484"><ele>537.5</ele><time>2026-04-18T07:21:43.445Z</time></trkpt><trkpt lat="43.4999847" lon="10.9140125"><ele>537.75</ele><time>2026-04-18T07:21:44.446Z</time></trkpt><trkpt lat="43.4999101" lon="10.9141836"><ele>538.0</ele><time>2026-04-18T07:21:45.456Z</time></trkpt><trkpt lat="43.4998548" lon="10.9143787"><ele>538.0</ele><time>2026-04-18T07:21:46.441Z</time></trkpt><trkpt lat="43.4998338" lon="10.9145891"><ele>538.0</ele><time>2026-04-18T07:21:47.445Z</time></trkpt><trkpt lat="43.4998465" lon="10.9148202"><ele>538.0</ele><time>2026-04-18T07:21:48.461Z</time></trkpt><trkpt lat="43.4998748" lon="10.9150393"><ele>537.6666666666667</ele><time>2026-04-18T07:21:49.449Z</time></trkpt><trkpt lat="43.4999002" lon="10.915264"><ele>537.3333333333334</ele><time>2026-04-18T07:21:50.319Z</time></trkpt><trkpt lat="43.4999239" lon="10.9154863"><ele>537.0</ele><time>2026-04-18T07:21:51.421Z</time></trkpt><trkpt lat="43.4999473" lon="10.9157095"><ele>536.0</ele><time>2026-04-18T07:21:52.44Z</time></trkpt><trkpt lat="43.4999779" lon="10.9161352"><ele>535.0</ele><time>2026-04-18T07:21:54.316Z</time></trkpt><trkpt lat="43.4999517" lon="10.9163389"><ele>535.0</ele><time>2026-04-18T07:21:55.323Z</time></trkpt><trkpt lat="43.4998937" lon="10.9165252"><ele>535.0</ele><time>2026-04-18T07:21:56.406Z</time></trkpt><trkpt lat="43.4998052" lon="10.9166842"><ele>535.0</ele><time>2026-04-18T07:21:57.353Z</time></trkpt><trkpt lat="43.4996936" lon="10.9168158"><ele>535.0</ele><time>2026-04-18T07:21:58.32Z</time></trkpt><trkpt lat="43.4995683" lon="10.9169271"><ele>537.6666666666667</ele><time>2026-04-18T07:21:59.452Z</time></trkpt><trkpt lat="43.4994358" lon="10.9170337"><ele>540.3333333333334</ele><time>2026-04-18T07:22:00.471Z</time></trkpt><trkpt lat="43.4993067" lon="10.9171396"><ele>543.0</ele><time>2026-04-18T07:22:01.45Z</time></trkpt><trkpt lat="43.4991785" lon="10.9172431"><ele>543.0</ele><time>2026-04-18T07:22:02.444Z</time></trkpt><trkpt lat="43.499049" lon="10.9173488"><ele>543.0</ele><time>2026-04-18T07:22:03.448Z</time></trkpt><trkpt lat="43.4989247" lon="10.9174476"><ele>543.0</ele><time>2026-04-18T07:22:04.458Z</time></trkpt><trkpt lat="43.4988019" lon="10.9175383"><ele>543.0</ele><time>2026-04-18T07:22:05.393Z</time></trkpt><trkpt lat="43.4986692" lon="10.9176194"><ele>541.3333333333334</ele><time>2026-04-18T07:22:06.441Z</time></trkpt><trkpt lat="43.4985219" lon="10.9176699"><ele>539.6666666666667</ele><time>2026-04-18T07:22:07.444Z</time></trkpt><trkpt lat="43.498249" lon="10.9177394"><ele>538.0</ele><time>2026-04-18T07:22:09.317Z</time></trkpt><trkpt lat="43.4981405" lon="10.9177843"><ele>538.0</ele><time>2026-04-18T07:22:10.442Z</time></trkpt><trkpt lat="43.4979586" lon="10.9180107"><ele>538.0</ele><time>2026-04-18T07:22:12.447Z</time></trkpt><trkpt lat="43.4979045" lon="10.9181776"><ele>538.0</ele><time>2026-04-18T07:22:13.453Z</time></trkpt><trkpt lat="43.4978529" lon="10.918366"><ele>538.0</ele><time>2026-04-18T07:22:14.453Z</time></trkpt><trkpt lat="43.4977359" lon="10.9187619"><ele>538.0</ele><time>2026-04-18T07:22:16.32Z</time></trkpt><trkpt lat="43.497673" lon="10.9189578"><ele>538.0</ele><time>2026-04-18T07:22:17.444Z</time></trkpt><trkpt lat="43.4976089" lon="10.9191586"><ele>538.0</ele><time>2026-04-18T07:22:18.37Z</time></trkpt><trkpt lat="43.4975426" lon="10.9193486"><ele>538.0</ele><time>2026-04-18T07:22:19.419Z</time></trkpt><trkpt lat="43.49748" lon="10.9195429"><ele>535.0</ele><time>2026-04-18T07:22:20.45Z</time></trkpt><trkpt lat="43.49743" lon="10.9197366"><ele>532.0</ele><time>2026-04-18T07:22:21.458Z</time></trkpt><trkpt lat="43.4974107" lon="10.9201601"><ele>530.75</ele><time>2026-04-18T07:22:23.32Z</time></trkpt><trkpt lat="43.4974163" lon="10.9203354"><ele>529.5</ele><time>2026-04-18T07:22:24.416Z</time></trkpt><trkpt lat="43.4974262" lon="10.9205024"><ele>528.25</ele><time>2026-04-18T07:22:25.32Z</time></trkpt><trkpt lat="43.4974323" lon="10.9206664"><ele>527.0</ele><time>2026-04-18T07:22:26.404Z</time></trkpt><trkpt lat="43.497404" lon="10.9208005"><ele>527.0</ele><time>2026-04-18T07:22:27.338Z</time></trkpt><trkpt lat="43.497302" lon="10.9208914"><ele>527.0</ele><time>2026-04-18T07:22:28.323Z</time></trkpt><trkpt lat="43.4972095" lon="10.9210006"><ele>527.0</ele><time>2026-04-18T07:22:29.318Z</time></trkpt><trkpt lat="43.4970853" lon="10.9210707"><ele>527.0</ele><time>2026-04-18T07:22:30.32Z</time></trkpt><trkpt lat="43.4969424" lon="10.9211456"><ele>524.75</ele><time>2026-04-18T07:22:31.324Z</time></trkpt><trkpt lat="43.4967822" lon="10.9211961"><ele>522.5</ele><time>2026-04-18T07:22:32.319Z</time></trkpt><trkpt lat="43.4966468" lon="10.9212597"><ele>520.25</ele><time>2026-04-18T07:22:33.315Z</time></trkpt><trkpt lat="43.4965206" lon="10.9213472"><ele>518.0</ele><time>2026-04-18T07:22:34.32Z</time></trkpt><trkpt lat="43.4964026" lon="10.9214689"><ele>518.0</ele><time>2026-04-18T07:22:35.32Z</time></trkpt><trkpt lat="43.4963096" lon="10.9216241"><ele>518.0</ele><time>2026-04-18T07:22:36.318Z</time></trkpt><trkpt lat="43.4962189" lon="10.9217797"><ele>518.0</ele><time>2026-04-18T07:22:37.32Z</time></trkpt><trkpt lat="43.4961283" lon="10.9219713"><ele>517.6666666666666</ele><time>2026-04-18T07:22:38.322Z</time></trkpt><trkpt lat="43.4960351" lon="10.9221602"><ele>517.3333333333334</ele><time>2026-04-18T07:22:39.464Z</time></trkpt><trkpt lat="43.495938" lon="10.9223445"><ele>517.0</ele><time>2026-04-18T07:22:40.419Z</time></trkpt><trkpt lat="43.4958409" lon="10.9225268"><ele>517.6666666666667</ele><time>2026-04-18T07:22:41.344Z</time></trkpt><trkpt lat="43.4957444" lon="10.9227116"><ele>518.3333333333334</ele><time>2026-04-18T07:22:42.439Z</time></trkpt><trkpt lat="43.4956414" lon="10.9228849"><ele>519.0</ele><time>2026-04-18T07:22:43.319Z</time></trkpt><trkpt lat="43.4955293" lon="10.9230374"><ele>517.6666666666666</ele><time>2026-04-18T07:22:44.417Z</time></trkpt><trkpt lat="43.4954067" lon="10.9231803"><ele>516.3333333333333</ele><time>2026-04-18T07:22:45.451Z</time></trkpt><trkpt lat="43.4952808" lon="10.9233168"><ele>515.0</ele><time>2026-04-18T07:22:46.445Z</time></trkpt><trkpt lat="43.4950352" lon="10.9236194"><ele>515.0</ele><time>2026-04-18T07:22:48.373Z</time></trkpt><trkpt lat="43.4949142" lon="10.9237691"><ele>515.0</ele><time>2026-04-18T07:22:49.372Z</time></trkpt><trkpt lat="43.4947955" lon="10.9239187"><ele>515.0</ele><time>2026-04-18T07:22:50.405Z</time></trkpt><trkpt lat="43.4946762" lon="10.9240698"><ele>512.3333333333333</ele><time>2026-04-18T07:22:51.313Z</time></trkpt><trkpt lat="43.4945615" lon="10.9242201"><ele>509.66666666666663</ele><time>2026-04-18T07:22:52.321Z</time></trkpt><trkpt lat="43.4944464" lon="10.9243762"><ele>507.0</ele><time>2026-04-18T07:22:53.326Z</time></trkpt><trkpt lat="43.4943298" lon="10.9245288"><ele>507.0</ele><time>2026-04-18T07:22:54.32Z</time></trkpt><trkpt lat="43.4942254" lon="10.9246694"><ele>507.0</ele><time>2026-04-18T07:22:55.317Z</time></trkpt><trkpt lat="43.4941269" lon="10.9248083"><ele>507.0</ele><time>2026-04-18T07:22:56.403Z</time></trkpt><trkpt lat="43.4940376" lon="10.9249521"><ele>507.0</ele><time>2026-04-18T07:22:57.44Z</time></trkpt><trkpt lat="43.4939327" lon="10.9253088"><ele>505.66666666666663</ele><time>2026-04-18T07:22:59.434Z</time></trkpt><trkpt lat="43.4939156" lon="10.9255126"><ele>504.3333333333333</ele><time>2026-04-18T07:23:00.427Z</time></trkpt><trkpt lat="43.4939048" lon="10.9258838"><ele>503.0</ele><time>2026-04-18T07:23:02.322Z</time></trkpt><trkpt lat="43.4938991" lon="10.9260543"><ele>502.0</ele><time>2026-04-18T07:23:03.445Z</time></trkpt><trkpt lat="43.4938939" lon="10.9262119"><ele>500.99999999999994</ele><time>2026-04-18T07:23:04.442Z</time></trkpt><trkpt lat="43.4938891" lon="10.9263563"><ele>499.99999999999994</ele><time>2026-04-18T07:23:05.442Z</time></trkpt><trkpt lat="43.4938836" lon="10.9264782"><ele>499.0</ele><time>2026-04-18T07:23:06.444Z</time></trkpt><trkpt lat="43.4938753" lon="10.9265731"><ele>498.0</ele><time>2026-04-18T07:23:07.45Z</time></trkpt><trkpt lat="43.49383" lon="10.926722"><ele>498.0</ele><time>2026-04-18T07:23:09.454Z</time></trkpt><trkpt lat="43.4937728" lon="10.9267984"><ele>497.99999999999994</ele><time>2026-04-18T07:23:10.44Z</time></trkpt><trkpt lat="43.4936971" lon="10.9268844"><ele>497.99999999999994</ele><time>2026-04-18T07:23:11.449Z</time></trkpt><trkpt lat="43.4936095" lon="10.9269816"><ele>498.0</ele><time>2026-04-18T07:23:12.399Z</time></trkpt><trkpt lat="43.4935205" lon="10.9270955"><ele>498.0</ele><time>2026-04-18T07:23:13.452Z</time></trkpt><trkpt lat="43.4934269" lon="10.9272234"><ele>498.0</ele><time>2026-04-18T07:23:14.444Z</time></trkpt><trkpt lat="43.4933278" lon="10.9273731"><ele>498.0</ele><time>2026-04-18T07:23:15.44Z</time></trkpt><trkpt lat="43.4932263" lon="10.9275182"><ele>498.0</ele><time>2026-04-18T07:23:16.468Z</time></trkpt><trkpt lat="43.4931253" lon="10.9276677"><ele>498.0</ele><time>2026-04-18T07:23:17.461Z</time></trkpt><trkpt lat="43.4930269" lon="10.9278181"><ele>497.0</ele><time>2026-04-18T07:23:18.452Z</time></trkpt><trkpt lat="43.4929361" lon="10.9279677"><ele>496.0</ele><time>2026-04-18T07:23:19.448Z</time></trkpt><trkpt lat="43.4928483" lon="10.9280972"><ele>495.0</ele><time>2026-04-18T07:23:20.408Z</time></trkpt><trkpt lat="43.4927615" lon="10.9282337"><ele>494.0</ele><time>2026-04-18T07:23:21.32Z</time></trkpt><trkpt lat="43.492676" lon="10.9283676"><ele>491.5</ele><time>2026-04-18T07:23:22.312Z</time></trkpt><trkpt lat="43.4925895" lon="10.92849"><ele>489.0</ele><time>2026-04-18T07:23:23.453Z</time></trkpt><trkpt lat="43.4924966" lon="10.9285906"><ele>486.5</ele><time>2026-04-18T07:23:24.411Z</time></trkpt><trkpt lat="43.4923948" lon="10.9286786"><ele>484.0</ele><time>2026-04-18T07:23:25.447Z</time></trkpt><trkpt lat="43.4922808" lon="10.9287434"><ele>484.0</ele><time>2026-04-18T07:23:26.452Z</time></trkpt><trkpt lat="43.4921513" lon="10.9287907"><ele>484.0</ele><time>2026-04-18T07:23:27.388Z</time></trkpt><trkpt lat="43.4920139" lon="10.9288042"><ele>484.0</ele><time>2026-04-18T07:23:28.322Z</time></trkpt><trkpt lat="43.4918768" lon="10.9287727"><ele>484.0</ele><time>2026-04-18T07:23:29.322Z</time></trkpt><trkpt lat="43.4917556" lon="10.9287019"><ele>484.5</ele><time>2026-04-18T07:23:30.413Z</time></trkpt><trkpt lat="43.4916409" lon="10.9286174"><ele>485.0</ele><time>2026-04-18T07:23:31.449Z</time></trkpt><trkpt lat="43.4915281" lon="10.9285478"><ele>485.5</ele><time>2026-04-18T07:23:32.442Z</time></trkpt><trkpt lat="43.4914113" lon="10.9285127"><ele>486.0</ele><time>2026-04-18T07:23:33.454Z</time></trkpt><trkpt lat="43.4912952" lon="10.9285208"><ele>483.25</ele><time>2026-04-18T07:23:34.422Z</time></trkpt><trkpt lat="43.4911837" lon="10.928567"><ele>480.5</ele><time>2026-04-18T07:23:35.327Z</time></trkpt><trkpt lat="43.4910777" lon="10.9286493"><ele>477.75</ele><time>2026-04-18T07:23:36.326Z</time></trkpt><trkpt lat="43.4909867" lon="10.9287721"><ele>475.0</ele><time>2026-04-18T07:23:37.466Z</time></trkpt><trkpt lat="43.4909092" lon="10.9289193"><ele>475.0</ele><time>2026-04-18T07:23:38.455Z</time></trkpt><trkpt lat="43.4908355" lon="10.9290877"><ele>475.0</ele><time>2026-04-18T07:23:39.391Z</time></trkpt><trkpt lat="43.4907537" lon="10.9292651"><ele>475.0</ele><time>2026-04-18T07:23:40.462Z</time></trkpt><trkpt lat="43.4906841" lon="10.9294442"><ele>475.0</ele><time>2026-04-18T07:23:41.453Z</time></trkpt><trkpt lat="43.4906207" lon="10.929652"><ele>476.6666666666667</ele><time>2026-04-18T07:23:42.395Z</time></trkpt><trkpt lat="43.490537" lon="10.9298579"><ele>478.33333333333337</ele><time>2026-04-18T07:23:43.443Z</time></trkpt><trkpt lat="43.4904532" lon="10.9300461"><ele>480.0</ele><time>2026-04-18T07:23:44.444Z</time></trkpt><trkpt lat="43.4903957" lon="10.9302183"><ele>474.0</ele><time>2026-04-18T07:23:45.421Z</time></trkpt><trkpt lat="43.4903175" lon="10.930399"><ele>468.0</ele><time>2026-04-18T07:23:46.408Z</time></trkpt><trkpt lat="43.4902421" lon="10.9305758"><ele>462.0</ele><time>2026-04-18T07:23:47.441Z</time></trkpt><trkpt lat="43.4901302" lon="10.9309297"><ele>461.75</ele><time>2026-04-18T07:23:49.426Z</time></trkpt><trkpt lat="43.4901018" lon="10.9311252"><ele>461.5</ele><time>2026-04-18T07:23:50.444Z</time></trkpt><trkpt lat="43.490087" lon="10.9313051"><ele>461.25</ele><time>2026-04-18T07:23:51.407Z</time></trkpt><trkpt lat="43.4900786" lon="10.9314935"><ele>461.0</ele><time>2026-04-18T07:23:52.462Z</time></trkpt><trkpt lat="43.4900716" lon="10.9316861"><ele>460.4</ele><time>2026-04-18T07:23:53.453Z</time></trkpt><trkpt lat="43.4900682" lon="10.9318578"><ele>459.8</ele><time>2026-04-18T07:23:54.454Z</time></trkpt><trkpt lat="43.4900698" lon="10.9320089"><ele>459.19999999999993</ele><time>2026-04-18T07:23:55.442Z</time></trkpt><trkpt lat="43.4900722" lon="10.9321486"><ele>458.59999999999997</ele><time>2026-04-18T07:23:56.452Z</time></trkpt><trkpt lat="43.4900698" lon="10.9322712"><ele>458.0</ele><time>2026-04-18T07:23:57.401Z</time></trkpt><trkpt lat="43.4900484" lon="10.9323748"><ele>458.0</ele><time>2026-04-18T07:23:58.412Z</time></trkpt><trkpt lat="43.4899979" lon="10.9324524"><ele>457.99999999999994</ele><time>2026-04-18T07:23:59.452Z</time></trkpt><trkpt lat="43.4899291" lon="10.9324819"><ele>457.99999999999994</ele><time>2026-04-18T07:24:00.452Z</time></trkpt><trkpt lat="43.4898524" lon="10.932466"><ele>458.0</ele><time>2026-04-18T07:24:01.459Z</time></trkpt><trkpt lat="43.4897643" lon="10.9322664"><ele>458.0</ele><time>2026-04-18T07:24:03.444Z</time></trkpt><trkpt lat="43.4897499" lon="10.9321113"><ele>458.0</ele><time>2026-04-18T07:24:04.456Z</time></trkpt><trkpt lat="43.4897411" lon="10.9319303"><ele>458.0</ele><time>2026-04-18T07:24:05.447Z</time></trkpt><trkpt lat="43.4897264" lon="10.9317377"><ele>458.0</ele><time>2026-04-18T07:24:06.455Z</time></trkpt><trkpt lat="43.4897053" lon="10.9315341"><ele>458.0</ele><time>2026-04-18T07:24:07.42Z</time></trkpt><trkpt lat="43.4896926" lon="10.9313132"><ele>460.0</ele><time>2026-04-18T07:24:08.445Z</time></trkpt><trkpt lat="43.4896612" lon="10.9308775"><ele>462.0</ele><time>2026-04-18T07:24:10.319Z</time></trkpt><trkpt lat="43.4896425" lon="10.9306603"><ele>462.0</ele><time>2026-04-18T07:24:11.454Z</time></trkpt><trkpt lat="43.4896184" lon="10.9304464"><ele>462.0</ele><time>2026-04-18T07:24:12.448Z</time></trkpt><trkpt lat="43.4895795" lon="10.9302337"><ele>462.0</ele><time>2026-04-18T07:24:13.402Z</time></trkpt><trkpt lat="43.4895289" lon="10.9300185"><ele>453.66666666666663</ele><time>2026-04-18T07:24:14.437Z</time></trkpt><trkpt lat="43.4894682" lon="10.9298136"><ele>445.3333333333333</ele><time>2026-04-18T07:24:15.449Z</time></trkpt><trkpt lat="43.4894099" lon="10.929616"><ele>437.0</ele><time>2026-04-18T07:24:16.419Z</time></trkpt><trkpt lat="43.4893533" lon="10.9294149"><ele>436.66666666666663</ele><time>2026-04-18T07:24:17.32Z</time></trkpt><trkpt lat="43.4892996" lon="10.9292132"><ele>436.33333333333337</ele><time>2026-04-18T07:24:18.458Z</time></trkpt><trkpt lat="43.489261" lon="10.9290009"><ele>436.0</ele><time>2026-04-18T07:24:19.441Z</time></trkpt><trkpt lat="43.4892502" lon="10.9287781"><ele>436.0</ele><time>2026-04-18T07:24:20.427Z</time></trkpt><trkpt lat="43.4892639" lon="10.9285504"><ele>436.0</ele><time>2026-04-18T07:24:21.452Z</time></trkpt><trkpt lat="43.4892898" lon="10.9283211"><ele>436.0</ele><time>2026-04-18T07:24:22.446Z</time></trkpt><trkpt lat="43.4893077" lon="10.9280983"><ele>435.0</ele><time>2026-04-18T07:24:23.418Z</time></trkpt><trkpt lat="43.4893216" lon="10.9278931"><ele>434.0</ele><time>2026-04-18T07:24:24.467Z</time></trkpt><trkpt lat="43.4893497" lon="10.9274593"><ele>433.3333333333333</ele><time>2026-04-18T07:24:26.443Z</time></trkpt><trkpt lat="43.4893674" lon="10.9272419"><ele>432.66666666666663</ele><time>2026-04-18T07:24:27.462Z</time></trkpt><trkpt lat="43.4893865" lon="10.9270406"><ele>432.0</ele><time>2026-04-18T07:24:28.467Z</time></trkpt><trkpt lat="43.4894109" lon="10.9268309"><ele>430.25</ele><time>2026-04-18T07:24:29.449Z</time></trkpt><trkpt lat="43.4894413" lon="10.9266147"><ele>428.5</ele><time>2026-04-18T07:24:30.418Z</time></trkpt><trkpt lat="43.4894708" lon="10.9264193"><ele>426.75</ele><time>2026-04-18T07:24:31.453Z</time></trkpt><trkpt lat="43.4894937" lon="10.9262353"><ele>425.0</ele><time>2026-04-18T07:24:32.437Z</time></trkpt><trkpt lat="43.4895143" lon="10.9260619"><ele>425.0</ele><time>2026-04-18T07:24:33.452Z</time></trkpt><trkpt lat="43.4895364" lon="10.9258953"><ele>425.0</ele><time>2026-04-18T07:24:34.453Z</time></trkpt><trkpt lat="43.4895573" lon="10.9257354"><ele>425.0</ele><time>2026-04-18T07:24:35.451Z</time></trkpt><trkpt lat="43.4895773" lon="10.9255811"><ele>425.0</ele><time>2026-04-18T07:24:36.445Z</time></trkpt><trkpt lat="43.489596" lon="10.9254313"><ele>426.2</ele><time>2026-04-18T07:24:37.45Z</time></trkpt><trkpt lat="43.4896132" lon="10.9252914"><ele>427.4</ele><time>2026-04-18T07:24:38.442Z</time></trkpt><trkpt lat="43.4896237" lon="10.9251718"><ele>428.6</ele><time>2026-04-18T07:24:39.454Z</time></trkpt><trkpt lat="43.4896221" lon="10.9250774"><ele>429.8</ele><time>2026-04-18T07:24:40.449Z</time></trkpt><trkpt lat="43.4895774" lon="10.9249535"><ele>431.0</ele><time>2026-04-18T07:24:42.441Z</time></trkpt><trkpt lat="43.4894661" lon="10.9248961"><ele>429.0</ele><time>2026-04-18T07:24:44.316Z</time></trkpt><trkpt lat="43.4893987" lon="10.9249087"><ele>427.0</ele><time>2026-04-18T07:24:45.433Z</time></trkpt><trkpt lat="43.4893353" lon="10.9249381"><ele>425.0</ele><time>2026-04-18T07:24:46.454Z</time></trkpt><trkpt lat="43.4892746" lon="10.924987"><ele>423.0</ele><time>2026-04-18T07:24:47.421Z</time></trkpt><trkpt lat="43.4892208" lon="10.9250547"><ele>421.0</ele><time>2026-04-18T07:24:48.446Z</time></trkpt><trkpt lat="43.4891788" lon="10.9251347"><ele>419.0</ele><time>2026-04-18T07:24:49.452Z</time></trkpt><trkpt lat="43.4891542" lon="10.9252287"><ele>417.0</ele><time>2026-04-18T07:24:50.44Z</time></trkpt><trkpt lat="43.4891376" lon="10.9253423"><ele>417.0</ele><time>2026-04-18T07:24:51.452Z</time></trkpt><trkpt lat="43.4891292" lon="10.9254627"><ele>417.0</ele><time>2026-04-18T07:24:52.451Z</time></trkpt><trkpt lat="43.4891225" lon="10.9255861"><ele>417.0</ele><time>2026-04-18T07:24:53.415Z</time></trkpt><trkpt lat="43.4891153" lon="10.9257115"><ele>417.0</ele><time>2026-04-18T07:24:54.439Z</time></trkpt><trkpt lat="43.4891025" lon="10.9258362"><ele>417.0</ele><time>2026-04-18T07:24:55.446Z</time></trkpt><trkpt lat="43.489077" lon="10.9259511"><ele>417.0</ele><time>2026-04-18T07:24:56.451Z</time></trkpt><trkpt lat="43.4890376" lon="10.9260631"><ele>418.6</ele><time>2026-04-18T07:24:57.454Z</time></trkpt><trkpt lat="43.4889822" lon="10.9261675"><ele>420.20000000000005</ele><time>2026-04-18T07:24:58.449Z</time></trkpt><trkpt lat="43.4889097" lon="10.9262565"><ele>421.8</ele><time>2026-04-18T07:24:59.453Z</time></trkpt><trkpt lat="43.4888219" lon="10.9263242"><ele>423.4</ele><time>2026-04-18T07:25:00.452Z</time></trkpt><trkpt lat="43.4887286" lon="10.9263793"><ele>425.0</ele><time>2026-04-18T07:25:01.45Z</time></trkpt><trkpt lat="43.4886355" lon="10.9264231"><ele>421.99999999999994</ele><time>2026-04-18T07:25:02.365Z</time></trkpt><trkpt lat="43.4885489" lon="10.9264617"><ele>419.0</ele><time>2026-04-18T07:25:03.434Z</time></trkpt><trkpt lat="43.4884621" lon="10.9264974"><ele>416.0</ele><time>2026-04-18T07:25:04.46Z</time></trkpt><trkpt lat="43.4883773" lon="10.9265293"><ele>413.0</ele><time>2026-04-18T07:25:05.435Z</time></trkpt><trkpt lat="43.4882955" lon="10.926559"><ele>409.99999999999994</ele><time>2026-04-18T07:25:06.454Z</time></trkpt><trkpt lat="43.4882156" lon="10.926599"><ele>407.0</ele><time>2026-04-18T07:25:07.463Z</time></trkpt><trkpt lat="43.4880751" lon="10.9267083"><ele>408.16666666666663</ele><time>2026-04-18T07:25:09.345Z</time></trkpt><trkpt lat="43.4880175" lon="10.9267825"><ele>409.3333333333333</ele><time>2026-04-18T07:25:10.437Z</time></trkpt><trkpt lat="43.4879632" lon="10.9268655"><ele>410.5</ele><time>2026-04-18T07:25:11.455Z</time></trkpt><trkpt lat="43.4879189" lon="10.9269489"><ele>411.66666666666663</ele><time>2026-04-18T07:25:12.45Z</time></trkpt><trkpt lat="43.4878764" lon="10.9270293"><ele>412.8333333333333</ele><time>2026-04-18T07:25:13.437Z</time></trkpt><trkpt lat="43.4878348" lon="10.9271041"><ele>414.0</ele><time>2026-04-18T07:25:14.448Z</time></trkpt><trkpt lat="43.4876533" lon="10.9271468"><ele>411.42857142857144</ele><time>2026-04-18T07:25:17.319Z</time></trkpt><trkpt lat="43.4875921" lon="10.9270984"><ele>408.8571428571429</ele><time>2026-04-18T07:25:18.452Z</time></trkpt><trkpt lat="43.487557" lon="10.9270206"><ele>406.28571428571433</ele><time>2026-04-18T07:25:19.44Z</time></trkpt><trkpt lat="43.487544" lon="10.9269242"><ele>403.7142857142857</ele><time>2026-04-18T07:25:20.447Z</time></trkpt><trkpt lat="43.487547" lon="10.9268139"><ele>401.1428571428571</ele><time>2026-04-18T07:25:21.456Z</time></trkpt><trkpt lat="43.487552" lon="10.9267053"><ele>398.5714285714286</ele><time>2026-04-18T07:25:22.442Z</time></trkpt><trkpt lat="43.487536" lon="10.9266067"><ele>396.0</ele><time>2026-04-18T07:25:23.448Z</time></trkpt><trkpt lat="43.4874972" lon="10.9265263"><ele>395.3333333333333</ele><time>2026-04-18T07:25:24.457Z</time></trkpt><trkpt lat="43.4874423" lon="10.9264634"><ele>394.66666666666663</ele><time>2026-04-18T07:25:25.447Z</time></trkpt><trkpt lat="43.4873763" lon="10.9264206"><ele>394.0</ele><time>2026-04-18T07:25:26.415Z</time></trkpt><trkpt lat="43.4872921" lon="10.9263891"><ele>393.3333333333333</ele><time>2026-04-18T07:25:27.322Z</time></trkpt><trkpt lat="43.4871956" lon="10.9263649"><ele>392.66666666666663</ele><time>2026-04-18T07:25:28.318Z</time></trkpt><trkpt lat="43.4870987" lon="10.9263466"><ele>392.0</ele><time>2026-04-18T07:25:29.418Z</time></trkpt><trkpt lat="43.4870031" lon="10.9263289"><ele>389.20000000000005</ele><time>2026-04-18T07:25:30.392Z</time></trkpt><trkpt lat="43.4869092" lon="10.9263117"><ele>386.4</ele><time>2026-04-18T07:25:31.421Z</time></trkpt><trkpt lat="43.4868127" lon="10.9262925"><ele>383.6</ele><time>2026-04-18T07:25:32.321Z</time></trkpt><trkpt lat="43.4867092" lon="10.9262762"><ele>380.79999999999995</ele><time>2026-04-18T07:25:33.449Z</time></trkpt><trkpt lat="43.486598" lon="10.9262636"><ele>378.0</ele><time>2026-04-18T07:25:34.447Z</time></trkpt><trkpt lat="43.4864808" lon="10.9262526"><ele>378.0</ele><time>2026-04-18T07:25:35.46Z</time></trkpt><trkpt lat="43.486366" lon="10.926244"><ele>378.0</ele><time>2026-04-18T07:25:36.458Z</time></trkpt><trkpt lat="43.486257" lon="10.926239"><ele>378.0</ele><time>2026-04-18T07:25:37.456Z</time></trkpt><trkpt lat="43.486143" lon="10.9262388"><ele>378.0</ele><time>2026-04-18T07:25:38.452Z</time></trkpt><trkpt lat="43.4860242" lon="10.9262442"><ele>377.5</ele><time>2026-04-18T07:25:39.446Z</time></trkpt><trkpt lat="43.4859032" lon="10.9262515"><ele>377.0</ele><time>2026-04-18T07:25:40.461Z</time></trkpt><trkpt lat="43.4857897" lon="10.9262604"><ele>376.5</ele><time>2026-04-18T07:25:41.451Z</time></trkpt><trkpt lat="43.4856837" lon="10.9262696"><ele>376.0</ele><time>2026-04-18T07:25:42.449Z</time></trkpt><trkpt lat="43.4854843" lon="10.9262861"><ele>374.4</ele><time>2026-04-18T07:25:44.437Z</time></trkpt><trkpt lat="43.485391" lon="10.9262913"><ele>372.8</ele><time>2026-04-18T07:25:45.456Z</time></trkpt><trkpt lat="43.4852995" lon="10.9262821"><ele>371.2</ele><time>2026-04-18T07:25:46.452Z</time></trkpt><trkpt lat="43.4852069" lon="10.926261"><ele>369.59999999999997</ele><time>2026-04-18T07:25:47.459Z</time></trkpt><trkpt lat="43.4851173" lon="10.926221"><ele>368.0</ele><time>2026-04-18T07:25:48.45Z</time></trkpt><trkpt lat="43.4850359" lon="10.9261604"><ele>368.0</ele><time>2026-04-18T07:25:49.424Z</time></trkpt><trkpt lat="43.4849507" lon="10.926076"><ele>368.0</ele><time>2026-04-18T07:25:50.459Z</time></trkpt><trkpt lat="43.4847977" lon="10.9258887"><ele>368.0</ele><time>2026-04-18T07:25:52.308Z</time></trkpt><trkpt lat="43.4847255" lon="10.9258003"><ele>368.0</ele><time>2026-04-18T07:25:53.421Z</time></trkpt><trkpt lat="43.4846565" lon="10.9257186"><ele>367.1666666666667</ele><time>2026-04-18T07:25:54.325Z</time></trkpt><trkpt lat="43.4845899" lon="10.9256442"><ele>366.33333333333337</ele><time>2026-04-18T07:25:55.33Z</time></trkpt><trkpt lat="43.4845143" lon="10.9255883"><ele>365.5</ele><time>2026-04-18T07:25:56.322Z</time></trkpt><trkpt lat="43.4844302" lon="10.925553"><ele>364.6666666666667</ele><time>2026-04-18T07:25:57.32Z</time></trkpt><trkpt lat="43.4843446" lon="10.9255364"><ele>363.8333333333333</ele><time>2026-04-18T07:25:58.321Z</time></trkpt><trkpt lat="43.4842578" lon="10.9255371"><ele>363.0</ele><time>2026-04-18T07:25:59.313Z</time></trkpt><trkpt lat="43.4841677" lon="10.9255521"><ele>363.0</ele><time>2026-04-18T07:26:00.321Z</time></trkpt><trkpt lat="43.4840804" lon="10.925579"><ele>363.0</ele><time>2026-04-18T07:26:01.319Z</time></trkpt><trkpt lat="43.4839857" lon="10.9256148"><ele>363.0</ele><time>2026-04-18T07:26:02.32Z</time></trkpt><trkpt lat="43.4838945" lon="10.9256765"><ele>363.0</ele><time>2026-04-18T07:26:03.321Z</time></trkpt><trkpt lat="43.4837963" lon="10.9257559"><ele>363.0</ele><time>2026-04-18T07:26:04.324Z</time></trkpt><trkpt lat="43.4837085" lon="10.925851"><ele>359.6666666666667</ele><time>2026-04-18T07:26:05.319Z</time></trkpt><trkpt lat="43.4836198" lon="10.9259563"><ele>356.33333333333337</ele><time>2026-04-18T07:26:06.443Z</time></trkpt><trkpt lat="43.4834295" lon="10.9261697"><ele>353.0</ele><time>2026-04-18T07:26:08.356Z</time></trkpt><trkpt lat="43.4833025" lon="10.9262676"><ele>353.0</ele><time>2026-04-18T07:26:09.407Z</time></trkpt><trkpt lat="43.4831681" lon="10.9263467"><ele>353.0</ele><time>2026-04-18T07:26:10.46Z</time></trkpt><trkpt lat="43.4830334" lon="10.9264076"><ele>353.0</ele><time>2026-04-18T07:26:11.436Z</time></trkpt><trkpt lat="43.4829032" lon="10.9264594"><ele>353.0</ele><time>2026-04-18T07:26:12.444Z</time></trkpt><trkpt lat="43.4826553" lon="10.9265518"><ele>352.75</ele><time>2026-04-18T07:26:14.318Z</time></trkpt><trkpt lat="43.4825424" lon="10.9266028"><ele>352.5</ele><time>2026-04-18T07:26:15.319Z</time></trkpt><trkpt lat="43.4824312" lon="10.9266609"><ele>352.25</ele><time>2026-04-18T07:26:16.314Z</time></trkpt><trkpt lat="43.4823284" lon="10.9267317"><ele>352.0</ele><time>2026-04-18T07:26:17.317Z</time></trkpt><trkpt lat="43.4822331" lon="10.9268229"><ele>351.66666666666663</ele><time>2026-04-18T07:26:18.319Z</time></trkpt><trkpt lat="43.482141" lon="10.9269347"><ele>351.3333333333333</ele><time>2026-04-18T07:26:19.314Z</time></trkpt><trkpt lat="43.482054" lon="10.92705"><ele>351.0</ele><time>2026-04-18T07:26:20.434Z</time></trkpt><trkpt lat="43.4818883" lon="10.9272492"><ele>350.20000000000005</ele><time>2026-04-18T07:26:22.317Z</time></trkpt><trkpt lat="43.4817935" lon="10.9273256"><ele>349.40000000000003</ele><time>2026-04-18T07:26:23.424Z</time></trkpt><trkpt lat="43.4816923" lon="10.9273696"><ele>348.6</ele><time>2026-04-18T07:26:24.408Z</time></trkpt><trkpt lat="43.4815787" lon="10.9273878"><ele>347.8</ele><time>2026-04-18T07:26:25.32Z</time></trkpt><trkpt lat="43.4814609" lon="10.9273802"><ele>347.0</ele><time>2026-04-18T07:26:26.319Z</time></trkpt><trkpt lat="43.4813323" lon="10.9273581"><ele>346.0</ele><time>2026-04-18T07:26:27.414Z</time></trkpt><trkpt lat="43.4811953" lon="10.9273294"><ele>345.0</ele><time>2026-04-18T07:26:28.319Z</time></trkpt><trkpt lat="43.4808993" lon="10.9272703"><ele>344.0</ele><time>2026-04-18T07:26:30.427Z</time></trkpt><trkpt lat="43.4807429" lon="10.9272438"><ele>344.0</ele><time>2026-04-18T07:26:31.437Z</time></trkpt><trkpt lat="43.4805831" lon="10.9272228"><ele>344.0</ele><time>2026-04-18T07:26:32.317Z</time></trkpt><trkpt lat="43.4804204" lon="10.9272041"><ele>344.0</ele><time>2026-04-18T07:26:33.428Z</time></trkpt><trkpt lat="43.4802544" lon="10.9271916"><ele>343.33333333333337</ele><time>2026-04-18T07:26:34.38Z</time></trkpt><trkpt lat="43.4800932" lon="10.9271797"><ele>342.6666666666667</ele><time>2026-04-18T07:26:35.317Z</time></trkpt><trkpt lat="43.4799321" lon="10.9271773"><ele>342.0</ele><time>2026-04-18T07:26:36.311Z</time></trkpt><trkpt lat="43.4797825" lon="10.9271745"><ele>342.0</ele><time>2026-04-18T07:26:37.435Z</time></trkpt><trkpt lat="43.4796365" lon="10.9271744"><ele>342.0</ele><time>2026-04-18T07:26:38.425Z</time></trkpt><trkpt lat="43.4793629" lon="10.9271825"><ele>342.0</ele><time>2026-04-18T07:26:40.317Z</time></trkpt><trkpt lat="43.479238" lon="10.9271912"><ele>341.25</ele><time>2026-04-18T07:26:41.319Z</time></trkpt><trkpt lat="43.4791201" lon="10.9271995"><ele>340.5</ele><time>2026-04-18T07:26:42.319Z</time></trkpt><trkpt lat="43.4790001" lon="10.9272037"><ele>339.75</ele><time>2026-04-18T07:26:43.324Z</time></trkpt><trkpt lat="43.4788732" lon="10.9271958"><ele>339.0</ele><time>2026-04-18T07:26:44.318Z</time></trkpt><trkpt lat="43.4787419" lon="10.9271671"><ele>337.5</ele><time>2026-04-18T07:26:45.319Z</time></trkpt><trkpt lat="43.4786029" lon="10.9271222"><ele>336.0</ele><time>2026-04-18T07:26:46.319Z</time></trkpt><trkpt lat="43.478462" lon="10.9270607"><ele>334.5</ele><time>2026-04-18T07:26:47.32Z</time></trkpt><trkpt lat="43.4783289" lon="10.9270002"><ele>333.0</ele><time>2026-04-18T07:26:48.32Z</time></trkpt><trkpt lat="43.478191" lon="10.9269398"><ele>333.0</ele><time>2026-04-18T07:26:49.317Z</time></trkpt><trkpt lat="43.4780509" lon="10.9268831"><ele>333.0</ele><time>2026-04-18T07:26:50.317Z</time></trkpt><trkpt lat="43.4779049" lon="10.9268251"><ele>333.0</ele><time>2026-04-18T07:26:51.319Z</time></trkpt><trkpt lat="43.477761" lon="10.9267672"><ele>333.0</ele><time>2026-04-18T07:26:52.319Z</time></trkpt><trkpt lat="43.4776262" lon="10.9267083"><ele>334.0</ele><time>2026-04-18T07:26:53.32Z</time></trkpt><trkpt lat="43.4774908" lon="10.9266362"><ele>335.0</ele><time>2026-04-18T07:26:54.32Z</time></trkpt><trkpt lat="43.4773535" lon="10.9265497"><ele>336.0</ele><time>2026-04-18T07:26:55.319Z</time></trkpt><trkpt lat="43.4772161" lon="10.926463"><ele>337.0</ele><time>2026-04-18T07:26:56.437Z</time></trkpt><trkpt lat="43.4770769" lon="10.926373"><ele>333.0</ele><time>2026-04-18T07:26:57.425Z</time></trkpt><trkpt lat="43.4769374" lon="10.9262799"><ele>329.0</ele><time>2026-04-18T07:26:58.429Z</time></trkpt><trkpt lat="43.4766746" lon="10.9261039"><ele>325.0</ele><time>2026-04-18T07:27:00.314Z</time></trkpt><trkpt lat="43.4765512" lon="10.9260232"><ele>325.0</ele><time>2026-04-18T07:27:01.427Z</time></trkpt><trkpt lat="43.4764344" lon="10.9259496"><ele>325.0</ele><time>2026-04-18T07:27:02.404Z</time></trkpt><trkpt lat="43.4763237" lon="10.9258782"><ele>325.0</ele><time>2026-04-18T07:27:03.422Z</time></trkpt><trkpt lat="43.476217" lon="10.9258219"><ele>325.0</ele><time>2026-04-18T07:27:04.401Z</time></trkpt><trkpt lat="43.4761071" lon="10.9257841"><ele>325.0</ele><time>2026-04-18T07:27:05.413Z</time></trkpt><trkpt lat="43.475994" lon="10.9257609"><ele>325.0</ele><time>2026-04-18T07:27:06.431Z</time></trkpt><trkpt lat="43.4758716" lon="10.9257605"><ele>325.0</ele><time>2026-04-18T07:27:07.411Z</time></trkpt><trkpt lat="43.4757417" lon="10.9257767"><ele>325.0</ele><time>2026-04-18T07:27:08.408Z</time></trkpt><trkpt lat="43.4756016" lon="10.9258048"><ele>325.0</ele><time>2026-04-18T07:27:09.4Z</time></trkpt><trkpt lat="43.4754605" lon="10.9258341"><ele>325.0</ele><time>2026-04-18T07:27:10.436Z</time></trkpt><trkpt lat="43.4753286" lon="10.9258695"><ele>325.0</ele><time>2026-04-18T07:27:11.43Z</time></trkpt><trkpt lat="43.4752" lon="10.9259032"><ele>325.0</ele><time>2026-04-18T07:27:12.41Z</time></trkpt><trkpt lat="43.4750708" lon="10.9259379"><ele>318.75</ele><time>2026-04-18T07:27:13.316Z</time></trkpt><trkpt lat="43.474942" lon="10.9259783"><ele>312.5</ele><time>2026-04-18T07:27:14.439Z</time></trkpt><trkpt lat="43.4748136" lon="10.9260114"><ele>306.25</ele><time>2026-04-18T07:27:15.441Z</time></trkpt><trkpt lat="43.4746896" lon="10.9260336"><ele>300.0</ele><time>2026-04-18T07:27:16.424Z</time></trkpt><trkpt lat="43.4745724" lon="10.9260389"><ele>302.3333333333333</ele><time>2026-04-18T07:27:17.429Z</time></trkpt><trkpt lat="43.474459" lon="10.9260235"><ele>304.66666666666663</ele><time>2026-04-18T07:27:18.312Z</time></trkpt><trkpt lat="43.4742445" lon="10.9259281"><ele>307.0</ele><time>2026-04-18T07:27:20.313Z</time></trkpt><trkpt lat="43.4741425" lon="10.9258417"><ele>307.0</ele><time>2026-04-18T07:27:21.428Z</time></trkpt><trkpt lat="43.4740405" lon="10.9257357"><ele>307.0</ele><time>2026-04-18T07:27:22.42Z</time></trkpt><trkpt lat="43.4739434" lon="10.9256194"><ele>307.0</ele><time>2026-04-18T07:27:23.414Z</time></trkpt><trkpt lat="43.4738574" lon="10.9255048"><ele>307.0</ele><time>2026-04-18T07:27:24.416Z</time></trkpt><trkpt lat="43.4737741" lon="10.9253856"><ele>304.3333333333333</ele><time>2026-04-18T07:27:25.409Z</time></trkpt><trkpt lat="43.4736946" lon="10.9252628"><ele>301.6666666666667</ele><time>2026-04-18T07:27:26.432Z</time></trkpt><trkpt lat="43.4735522" lon="10.9249879"><ele>299.0</ele><time>2026-04-18T07:27:28.405Z</time></trkpt><trkpt lat="43.4734879" lon="10.9248517"><ele>299.0</ele><time>2026-04-18T07:27:29.31Z</time></trkpt><trkpt lat="43.4734291" lon="10.9247251"><ele>299.0</ele><time>2026-04-18T07:27:30.318Z</time></trkpt><trkpt lat="43.4733631" lon="10.9246051"><ele>299.0</ele><time>2026-04-18T07:27:31.318Z</time></trkpt><trkpt lat="43.4732914" lon="10.9244941"><ele>299.0</ele><time>2026-04-18T07:27:32.319Z</time></trkpt><trkpt lat="43.4732064" lon="10.924385"><ele>299.0</ele><time>2026-04-18T07:27:33.314Z</time></trkpt><trkpt lat="43.4730989" lon="10.9242769"><ele>301.0</ele><time>2026-04-18T07:27:34.32Z</time></trkpt><trkpt lat="43.4729767" lon="10.9241708"><ele>303.0</ele><time>2026-04-18T07:27:35.314Z</time></trkpt><trkpt lat="43.4728512" lon="10.9240665"><ele>305.0</ele><time>2026-04-18T07:27:36.305Z</time></trkpt><trkpt lat="43.4727226" lon="10.9239655"><ele>307.0</ele><time>2026-04-18T07:27:37.319Z</time></trkpt><trkpt lat="43.4726041" lon="10.923866"><ele>303.4</ele><time>2026-04-18T07:27:38.311Z</time></trkpt><trkpt lat="43.4724931" lon="10.9237744"><ele>299.79999999999995</ele><time>2026-04-18T07:27:39.316Z</time></trkpt><trkpt lat="43.47239" lon="10.9236924"><ele>296.2</ele><time>2026-04-18T07:27:40.324Z</time></trkpt><trkpt lat="43.4722999" lon="10.9236139"><ele>292.59999999999997</ele><time>2026-04-18T07:27:41.322Z</time></trkpt><trkpt lat="43.4722256" lon="10.9235372"><ele>289.0</ele><time>2026-04-18T07:27:42.316Z</time></trkpt><trkpt lat="43.4721626" lon="10.9234426"><ele>289.8</ele><time>2026-04-18T07:27:43.329Z</time></trkpt><trkpt lat="43.4721243" lon="10.9233353"><ele>290.59999999999997</ele><time>2026-04-18T07:27:44.313Z</time></trkpt><trkpt lat="43.4721116" lon="10.923219"><ele>291.4</ele><time>2026-04-18T07:27:45.316Z</time></trkpt><trkpt lat="43.4721257" lon="10.923093"><ele>292.2</ele><time>2026-04-18T07:27:46.322Z</time></trkpt><trkpt lat="43.4721624" lon="10.9229633"><ele>293.0</ele><time>2026-04-18T07:27:47.319Z</time></trkpt><trkpt lat="43.4722285" lon="10.9228401"><ele>293.0</ele><time>2026-04-18T07:27:48.321Z</time></trkpt><trkpt lat="43.4723146" lon="10.9227228"><ele>293.0</ele><time>2026-04-18T07:27:49.322Z</time></trkpt><trkpt lat="43.4724097" lon="10.9226111"><ele>293.0</ele><time>2026-04-18T07:27:50.433Z</time></trkpt><trkpt lat="43.4725076" lon="10.9225013"><ele>293.0</ele><time>2026-04-18T07:27:51.41Z</time></trkpt><trkpt lat="43.4726006" lon="10.9223983"><ele>290.25</ele><time>2026-04-18T07:27:52.437Z</time></trkpt><trkpt lat="43.4726915" lon="10.9222969"><ele>287.5</ele><time>2026-04-18T07:27:53.438Z</time></trkpt><trkpt lat="43.4727775" lon="10.9221832"><ele>284.75</ele><time>2026-04-18T07:27:54.42Z</time></trkpt><trkpt lat="43.4728583" lon="10.9220658"><ele>282.0</ele><time>2026-04-18T07:27:55.439Z</time></trkpt><trkpt lat="43.4729335" lon="10.9219536"><ele>281.6</ele><time>2026-04-18T07:27:56.436Z</time></trkpt><trkpt lat="43.4730026" lon="10.9218464"><ele>281.2</ele><time>2026-04-18T07:27:57.439Z</time></trkpt><trkpt lat="43.4730762" lon="10.9217441"><ele>280.8</ele><time>2026-04-18T07:27:58.431Z</time></trkpt><trkpt lat="43.4731467" lon="10.9216387"><ele>280.4</ele><time>2026-04-18T07:27:59.42Z</time></trkpt><trkpt lat="43.4732125" lon="10.9215219"><ele>280.0</ele><time>2026-04-18T07:28:00.406Z</time></trkpt><trkpt lat="43.4732686" lon="10.9213903"><ele>280.0</ele><time>2026-04-18T07:28:01.418Z</time></trkpt><trkpt lat="43.4733137" lon="10.9212441"><ele>280.0</ele><time>2026-04-18T07:28:02.417Z</time></trkpt><trkpt lat="43.4733503" lon="10.9210944"><ele>280.0</ele><time>2026-04-18T07:28:03.419Z</time></trkpt><trkpt lat="43.473376" lon="10.9209561"><ele>280.0</ele><time>2026-04-18T07:28:04.413Z</time></trkpt><trkpt lat="43.4733948" lon="10.9208256"><ele>280.0</ele><time>2026-04-18T07:28:05.411Z</time></trkpt><trkpt lat="43.4734105" lon="10.9207121"><ele>278.3333333333333</ele><time>2026-04-18T07:28:06.316Z</time></trkpt><trkpt lat="43.4734244" lon="10.9205977"><ele>276.66666666666663</ele><time>2026-04-18T07:28:07.32Z</time></trkpt><trkpt lat="43.4734319" lon="10.920489"><ele>275.0</ele><time>2026-04-18T07:28:08.373Z</time></trkpt><trkpt lat="43.4734227" lon="10.920375"><ele>273.3333333333333</ele><time>2026-04-18T07:28:09.413Z</time></trkpt><trkpt lat="43.4734041" lon="10.9202661"><ele>271.6666666666667</ele><time>2026-04-18T07:28:10.442Z</time></trkpt><trkpt lat="43.473375" lon="10.920163"><ele>270.0</ele><time>2026-04-18T07:28:11.425Z</time></trkpt><trkpt lat="43.4733336" lon="10.920061"><ele>268.6</ele><time>2026-04-18T07:28:12.409Z</time></trkpt><trkpt lat="43.4732807" lon="10.9199745"><ele>267.2</ele><time>2026-04-18T07:28:13.32Z</time></trkpt><trkpt lat="43.4731644" lon="10.919833"><ele>265.8</ele><time>2026-04-18T07:28:15.418Z</time></trkpt><trkpt lat="43.473106" lon="10.919775"><ele>264.4</ele><time>2026-04-18T07:28:16.432Z</time></trkpt><trkpt lat="43.473047" lon="10.9196857"><ele>263.0</ele><time>2026-04-18T07:28:17.412Z</time></trkpt><trkpt lat="43.472996" lon="10.9195733"><ele>263.0</ele><time>2026-04-18T07:28:18.439Z</time></trkpt><trkpt lat="43.4729589" lon="10.9194499"><ele>263.0</ele><time>2026-04-18T07:28:19.428Z</time></trkpt><trkpt lat="43.4729329" lon="10.9193151"><ele>263.0</ele><time>2026-04-18T07:28:20.437Z</time></trkpt><trkpt lat="43.4729174" lon="10.9191755"><ele>263.0</ele><time>2026-04-18T07:28:21.424Z</time></trkpt><trkpt lat="43.4729099" lon="10.919038"><ele>263.0</ele><time>2026-04-18T07:28:22.416Z</time></trkpt><trkpt lat="43.4728944" lon="10.9189066"><ele>261.2</ele><time>2026-04-18T07:28:23.411Z</time></trkpt><trkpt lat="43.4728663" lon="10.9187747"><ele>259.4</ele><time>2026-04-18T07:28:24.409Z</time></trkpt><trkpt lat="43.4728233" lon="10.9186377"><ele>257.59999999999997</ele><time>2026-04-18T07:28:25.415Z</time></trkpt><trkpt lat="43.4727651" lon="10.918494"><ele>255.79999999999998</ele><time>2026-04-18T07:28:26.41Z</time></trkpt><trkpt lat="43.4726983" lon="10.9183541"><ele>254.0</ele><time>2026-04-18T07:28:27.433Z</time></trkpt><trkpt lat="43.4726263" lon="10.9182135"><ele>252.79999999999998</ele><time>2026-04-18T07:28:28.419Z</time></trkpt><trkpt lat="43.4725572" lon="10.9180809"><ele>251.59999999999997</ele><time>2026-04-18T07:28:29.421Z</time></trkpt><trkpt lat="43.4724892" lon="10.9179543"><ele>250.4</ele><time>2026-04-18T07:28:30.415Z</time></trkpt><trkpt lat="43.4724278" lon="10.917831"><ele>249.2</ele><time>2026-04-18T07:28:31.407Z</time></trkpt><trkpt lat="43.4723722" lon="10.9177152"><ele>248.0</ele><time>2026-04-18T07:28:32.418Z</time></trkpt><trkpt lat="43.47232" lon="10.917609"><ele>247.4</ele><time>2026-04-18T07:28:33.438Z</time></trkpt><trkpt lat="43.4722638" lon="10.9175131"><ele>246.8</ele><time>2026-04-18T07:28:34.412Z</time></trkpt><trkpt lat="43.4721901" lon="10.9174214"><ele>246.2</ele><time>2026-04-18T07:28:35.434Z</time></trkpt><trkpt lat="43.4721037" lon="10.9173428"><ele>245.6</ele><time>2026-04-18T07:28:36.402Z</time></trkpt><trkpt lat="43.4720172" lon="10.9172765"><ele>245.0</ele><time>2026-04-18T07:28:37.413Z</time></trkpt><trkpt lat="43.4719346" lon="10.9172263"><ele>244.0</ele><time>2026-04-18T07:28:38.428Z</time></trkpt><trkpt lat="43.4717738" lon="10.9171679"><ele>243.0</ele><time>2026-04-18T07:28:40.317Z</time></trkpt><trkpt lat="43.4716891" lon="10.9171727"><ele>242.0</ele><time>2026-04-18T07:28:41.314Z</time></trkpt><trkpt lat="43.4716014" lon="10.9171982"><ele>241.0</ele><time>2026-04-18T07:28:42.434Z</time></trkpt><trkpt lat="43.4715142" lon="10.9172385"><ele>240.0</ele><time>2026-04-18T07:28:43.437Z</time></trkpt><trkpt lat="43.4714254" lon="10.917301"><ele>240.0</ele><time>2026-04-18T07:28:44.413Z</time></trkpt><trkpt lat="43.4713268" lon="10.917383"><ele>240.0</ele><time>2026-04-18T07:28:45.432Z</time></trkpt><trkpt lat="43.4712253" lon="10.9174856"><ele>240.0</ele><time>2026-04-18T07:28:46.403Z</time></trkpt><trkpt lat="43.4711137" lon="10.917595"><ele>240.0</ele><time>2026-04-18T07:28:47.323Z</time></trkpt><trkpt lat="43.4710029" lon="10.9177045"><ele>239.5</ele><time>2026-04-18T07:28:48.42Z</time></trkpt><trkpt lat="43.4708983" lon="10.9178107"><ele>239.0</ele><time>2026-04-18T07:28:49.356Z</time></trkpt><trkpt lat="43.4707969" lon="10.9179151"><ele>238.5</ele><time>2026-04-18T07:28:50.433Z</time></trkpt><trkpt lat="43.4707008" lon="10.9180146"><ele>238.0</ele><time>2026-04-18T07:28:51.436Z</time></trkpt><trkpt lat="43.4705272" lon="10.9181958"><ele>238.0</ele><time>2026-04-18T07:28:53.387Z</time></trkpt><trkpt lat="43.4704471" lon="10.9182835"><ele>238.0</ele><time>2026-04-18T07:28:54.432Z</time></trkpt><trkpt lat="43.4703008" lon="10.9184305"><ele>238.0</ele><time>2026-04-18T07:28:56.32Z</time></trkpt><trkpt lat="43.4702297" lon="10.9184811"><ele>238.0</ele><time>2026-04-18T07:28:57.423Z</time></trkpt><trkpt lat="43.4701535" lon="10.9185079"><ele>238.0</ele><time>2026-04-18T07:28:58.413Z</time></trkpt><trkpt lat="43.4700763" lon="10.9185049"><ele>236.99999999999997</ele><time>2026-04-18T07:28:59.432Z</time></trkpt><trkpt lat="43.470003" lon="10.9184716"><ele>236.0</ele><time>2026-04-18T07:29:00.439Z</time></trkpt><trkpt lat="43.4699466" lon="10.9184029"><ele>235.0</ele><time>2026-04-18T07:29:01.435Z</time></trkpt><trkpt lat="43.4699135" lon="10.9183046"><ele>234.0</ele><time>2026-04-18T07:29:02.417Z</time></trkpt><trkpt lat="43.4699036" lon="10.9181832"><ele>232.99999999999997</ele><time>2026-04-18T07:29:03.417Z</time></trkpt><trkpt lat="43.4699107" lon="10.9180555"><ele>232.0</ele><time>2026-04-18T07:29:04.411Z</time></trkpt><trkpt lat="43.469933" lon="10.9179349"><ele>230.99999999999997</ele><time>2026-04-18T07:29:05.431Z</time></trkpt><trkpt lat="43.4699545" lon="10.91782"><ele>230.0</ele><time>2026-04-18T07:29:06.416Z</time></trkpt><trkpt lat="43.4699752" lon="10.9177216"><ele>229.0</ele><time>2026-04-18T07:29:07.321Z</time></trkpt><trkpt lat="43.4699855" lon="10.9176191"><ele>228.0</ele><time>2026-04-18T07:29:08.323Z</time></trkpt><trkpt lat="43.4699761" lon="10.9175162"><ele>226.99999999999997</ele><time>2026-04-18T07:29:09.425Z</time></trkpt><trkpt lat="43.4699195" lon="10.9173506"><ele>226.0</ele><time>2026-04-18T07:29:11.405Z</time></trkpt><trkpt lat="43.469861" lon="10.9172947"><ele>224.8</ele><time>2026-04-18T07:29:12.412Z</time></trkpt><trkpt lat="43.4697831" lon="10.9172525"><ele>223.60000000000002</ele><time>2026-04-18T07:29:13.321Z</time></trkpt><trkpt lat="43.4696858" lon="10.9172275"><ele>222.4</ele><time>2026-04-18T07:29:14.322Z</time></trkpt><trkpt lat="43.4695717" lon="10.9172156"><ele>221.2</ele><time>2026-04-18T07:29:15.317Z</time></trkpt><trkpt lat="43.4694393" lon="10.9172094"><ele>220.0</ele><time>2026-04-18T07:29:16.321Z</time></trkpt><trkpt lat="43.4692955" lon="10.9172084"><ele>217.5</ele><time>2026-04-18T07:29:17.318Z</time></trkpt><trkpt lat="43.4691441" lon="10.9172079"><ele>215.0</ele><time>2026-04-18T07:29:18.373Z</time></trkpt><trkpt lat="43.4689982" lon="10.9172092"><ele>212.5</ele><time>2026-04-18T07:29:19.322Z</time></trkpt><trkpt lat="43.4688601" lon="10.9172116"><ele>210.0</ele><time>2026-04-18T07:29:20.416Z</time></trkpt><trkpt lat="43.4687317" lon="10.917215"><ele>208.25</ele><time>2026-04-18T07:29:21.427Z</time></trkpt><trkpt lat="43.4686079" lon="10.9172148"><ele>206.5</ele><time>2026-04-18T07:29:22.418Z</time></trkpt><trkpt lat="43.4684814" lon="10.9172002"><ele>204.75</ele><time>2026-04-18T07:29:23.447Z</time></trkpt><trkpt lat="43.4683523" lon="10.9171675"><ele>203.0</ele><time>2026-04-18T07:29:24.436Z</time></trkpt><trkpt lat="43.4682258" lon="10.9171184"><ele>203.0</ele><time>2026-04-18T07:29:25.41Z</time></trkpt><trkpt lat="43.4681008" lon="10.9170484"><ele>203.0</ele><time>2026-04-18T07:29:26.327Z</time></trkpt><trkpt lat="43.467992" lon="10.9169715"><ele>203.0</ele><time>2026-04-18T07:29:27.441Z</time></trkpt><trkpt lat="43.4679" lon="10.9168914"><ele>203.0</ele><time>2026-04-18T07:29:28.437Z</time></trkpt><trkpt lat="43.4678227" lon="10.9167979"><ele>201.60000000000002</ele><time>2026-04-18T07:29:29.435Z</time></trkpt><trkpt lat="43.4677571" lon="10.9166862"><ele>200.20000000000002</ele><time>2026-04-18T07:29:30.437Z</time></trkpt><trkpt lat="43.4677148" lon="10.9165576"><ele>198.8</ele><time>2026-04-18T07:29:31.435Z</time></trkpt><trkpt lat="43.4676953" lon="10.9164214"><ele>197.4</ele><time>2026-04-18T07:29:32.412Z</time></trkpt><trkpt lat="43.4677019" lon="10.9162654"><ele>196.0</ele><time>2026-04-18T07:29:33.412Z</time></trkpt><trkpt lat="43.4677297" lon="10.916093"><ele>196.0</ele><time>2026-04-18T07:29:34.43Z</time></trkpt><trkpt lat="43.46776" lon="10.9159277"><ele>196.0</ele><time>2026-04-18T07:29:35.424Z</time></trkpt><trkpt lat="43.467792" lon="10.9157625"><ele>196.0</ele><time>2026-04-18T07:29:36.428Z</time></trkpt><trkpt lat="43.4678189" lon="10.9156064"><ele>196.0</ele><time>2026-04-18T07:29:37.428Z</time></trkpt><trkpt lat="43.4678449" lon="10.9154417"><ele>194.5</ele><time>2026-04-18T07:29:38.414Z</time></trkpt><trkpt lat="43.467858" lon="10.9152771"><ele>193.0</ele><time>2026-04-18T07:29:39.318Z</time></trkpt><trkpt lat="43.4678597" lon="10.9151102"><ele>191.5</ele><time>2026-04-18T07:29:40.427Z</time></trkpt><trkpt lat="43.4678507" lon="10.9149292"><ele>190.0</ele><time>2026-04-18T07:29:41.407Z</time></trkpt><trkpt lat="43.4678348" lon="10.9147418"><ele>189.25</ele><time>2026-04-18T07:29:42.416Z</time></trkpt><trkpt lat="43.4678197" lon="10.9145446"><ele>188.5</ele><time>2026-04-18T07:29:43.324Z</time></trkpt><trkpt lat="43.4678047" lon="10.9143506"><ele>187.75</ele><time>2026-04-18T07:29:44.413Z</time></trkpt><trkpt lat="43.4677874" lon="10.9141758"><ele>187.0</ele><time>2026-04-18T07:29:45.413Z</time></trkpt><trkpt lat="43.4677706" lon="10.9140093"><ele>186.8</ele><time>2026-04-18T07:29:46.414Z</time></trkpt><trkpt lat="43.467754" lon="10.913854"><ele>186.6</ele><time>2026-04-18T07:29:47.321Z</time></trkpt><trkpt lat="43.4677378" lon="10.9137054"><ele>186.4</ele><time>2026-04-18T07:29:48.313Z</time></trkpt><trkpt lat="43.4677274" lon="10.9135768"><ele>186.20000000000002</ele><time>2026-04-18T07:29:49.422Z</time></trkpt><trkpt lat="43.4676999" lon="10.9134413"><ele>186.0</ele><time>2026-04-18T07:29:50.423Z</time></trkpt><trkpt lat="43.467665" lon="10.9133123"><ele>185.60000000000002</ele><time>2026-04-18T07:29:51.402Z</time></trkpt><trkpt lat="43.4676208" lon="10.9132051"><ele>185.2</ele><time>2026-04-18T07:29:52.424Z</time></trkpt><trkpt lat="43.4675682" lon="10.9131301"><ele>184.8</ele><time>2026-04-18T07:29:53.426Z</time></trkpt><trkpt lat="43.4674344" lon="10.9130475"><ele>184.39999999999998</ele><time>2026-04-18T07:29:55.315Z</time></trkpt><trkpt lat="43.4673459" lon="10.913038"><ele>184.0</ele><time>2026-04-18T07:29:56.321Z</time></trkpt><trkpt lat="43.4672537" lon="10.9130527"><ele>184.0</ele><time>2026-04-18T07:29:57.313Z</time></trkpt><trkpt lat="43.4671573" lon="10.9130849"><ele>184.0</ele><time>2026-04-18T07:29:58.315Z</time></trkpt><trkpt lat="43.4670606" lon="10.913125"><ele>184.0</ele><time>2026-04-18T07:29:59.323Z</time></trkpt><trkpt lat="43.4669591" lon="10.913159"><ele>184.0</ele><time>2026-04-18T07:30:00.317Z</time></trkpt><trkpt lat="43.4668526" lon="10.9131781"><ele>184.0</ele><time>2026-04-18T07:30:01.44Z</time></trkpt><trkpt lat="43.4667337" lon="10.9131796"><ele>185.0</ele><time>2026-04-18T07:30:02.418Z</time></trkpt><trkpt lat="43.466602" lon="10.9131682"><ele>186.0</ele><time>2026-04-18T07:30:03.442Z</time></trkpt><trkpt lat="43.4664572" lon="10.9131475"><ele>187.0</ele><time>2026-04-18T07:30:04.446Z</time></trkpt><trkpt lat="43.4663042" lon="10.9131184"><ele>188.0</ele><time>2026-04-18T07:30:05.442Z</time></trkpt><trkpt lat="43.466141" lon="10.9130903"><ele>189.0</ele><time>2026-04-18T07:30:06.416Z</time></trkpt><trkpt lat="43.4659895" lon="10.9130632"><ele>190.0</ele><time>2026-04-18T07:30:07.432Z</time></trkpt><trkpt lat="43.4658559" lon="10.9130451"><ele>191.0</ele><time>2026-04-18T07:30:08.445Z</time></trkpt><trkpt lat="43.4657378" lon="10.9130303"><ele>192.0</ele><time>2026-04-18T07:30:09.352Z</time></trkpt><trkpt lat="43.4656313" lon="10.9130218"><ele>190.33333333333334</ele><time>2026-04-18T07:30:10.443Z</time></trkpt><trkpt lat="43.4654239" lon="10.9130787"><ele>188.66666666666669</ele><time>2026-04-18T07:30:12.44Z</time></trkpt><trkpt lat="43.4653135" lon="10.9131363"><ele>187.0</ele><time>2026-04-18T07:30:13.439Z</time></trkpt><trkpt lat="43.465198" lon="10.9132368"><ele>187.0</ele><time>2026-04-18T07:30:14.441Z</time></trkpt><trkpt lat="43.4650841" lon="10.913339"><ele>187.0</ele><time>2026-04-18T07:30:15.438Z</time></trkpt><trkpt lat="43.4649742" lon="10.9134551"><ele>187.0</ele><time>2026-04-18T07:30:16.437Z</time></trkpt><trkpt lat="43.4648667" lon="10.9135822"><ele>187.0</ele><time>2026-04-18T07:30:17.44Z</time></trkpt><trkpt lat="43.4647581" lon="10.9137009"><ele>188.0</ele><time>2026-04-18T07:30:18.445Z</time></trkpt><trkpt lat="43.4646633" lon="10.9138019"><ele>189.0</ele><time>2026-04-18T07:30:19.45Z</time></trkpt><trkpt lat="43.464573" lon="10.9138853"><ele>190.0</ele><time>2026-04-18T07:30:20.453Z</time></trkpt><trkpt lat="43.4644846" lon="10.9139532"><ele>191.0</ele><time>2026-04-18T07:30:21.443Z</time></trkpt><trkpt lat="43.4642968" lon="10.913982"><ele>191.0</ele><time>2026-04-18T07:30:23.311Z</time></trkpt><trkpt lat="43.4641908" lon="10.9139536"><ele>191.0</ele><time>2026-04-18T07:30:24.43Z</time></trkpt><trkpt lat="43.4640025" lon="10.9138557"><ele>191.0</ele><time>2026-04-18T07:30:26.435Z</time></trkpt><trkpt lat="43.4639136" lon="10.9138276"><ele>191.0</ele><time>2026-04-18T07:30:27.44Z</time></trkpt><trkpt lat="43.4638257" lon="10.9138443"><ele>192.20000000000002</ele><time>2026-04-18T07:30:28.443Z</time></trkpt><trkpt lat="43.4637474" lon="10.9138907"><ele>193.4</ele><time>2026-04-18T07:30:29.389Z</time></trkpt><trkpt lat="43.4636736" lon="10.9139782"><ele>194.6</ele><time>2026-04-18T07:30:30.434Z</time></trkpt><trkpt lat="43.4635987" lon="10.9140849"><ele>195.8</ele><time>2026-04-18T07:30:31.438Z</time></trkpt><trkpt lat="43.4635348" lon="10.9142016"><ele>197.0</ele><time>2026-04-18T07:30:32.447Z</time></trkpt><trkpt lat="43.4634717" lon="10.9143271"><ele>197.0</ele><time>2026-04-18T07:30:33.437Z</time></trkpt><trkpt lat="43.4633999" lon="10.9144649"><ele>197.0</ele><time>2026-04-18T07:30:34.442Z</time></trkpt><trkpt lat="43.4632358" lon="10.9147652"><ele>197.0</ele><time>2026-04-18T07:30:36.321Z</time></trkpt><trkpt lat="43.4631541" lon="10.9149173"><ele>197.0</ele><time>2026-04-18T07:30:37.447Z</time></trkpt><trkpt lat="43.4630699" lon="10.9150634"><ele>197.0</ele><time>2026-04-18T07:30:38.459Z</time></trkpt><trkpt lat="43.4629807" lon="10.915186"><ele>197.0</ele><time>2026-04-18T07:30:39.447Z</time></trkpt><trkpt lat="43.4628794" lon="10.9152879"><ele>197.0</ele><time>2026-04-18T07:30:40.443Z</time></trkpt><trkpt lat="43.4627684" lon="10.9153749"><ele>198.75</ele><time>2026-04-18T07:30:41.445Z</time></trkpt><trkpt lat="43.462648" lon="10.9154528"><ele>200.5</ele><time>2026-04-18T07:30:42.437Z</time></trkpt><trkpt lat="43.4625218" lon="10.9155217"><ele>202.25</ele><time>2026-04-18T07:30:43.448Z</time></trkpt><trkpt lat="43.4623934" lon="10.9155844"><ele>204.0</ele><time>2026-04-18T07:30:44.443Z</time></trkpt><trkpt lat="43.4621301" lon="10.9156688"><ele>207.66666666666669</ele><time>2026-04-18T07:30:46.32Z</time></trkpt><trkpt lat="43.461995" lon="10.9156933"><ele>211.33333333333334</ele><time>2026-04-18T07:30:47.439Z</time></trkpt><trkpt lat="43.4618598" lon="10.9157143"><ele>215.0</ele><time>2026-04-18T07:30:48.44Z</time></trkpt><trkpt lat="43.4616006" lon="10.9157837"><ele>215.0</ele><time>2026-04-18T07:30:50.436Z</time></trkpt><trkpt lat="43.4614784" lon="10.9158159"><ele>215.0</ele><time>2026-04-18T07:30:51.354Z</time></trkpt><trkpt lat="43.4613575" lon="10.91584"><ele>215.0</ele><time>2026-04-18T07:30:52.454Z</time></trkpt><trkpt lat="43.4612459" lon="10.9158552"><ele>215.0</ele><time>2026-04-18T07:30:53.443Z</time></trkpt><trkpt lat="43.4611373" lon="10.9158485"><ele>216.2</ele><time>2026-04-18T07:30:54.441Z</time></trkpt><trkpt lat="43.4610285" lon="10.9158295"><ele>217.4</ele><time>2026-04-18T07:30:55.343Z</time></trkpt><trkpt lat="43.4609328" lon="10.9157615"><ele>218.60000000000002</ele><time>2026-04-18T07:30:56.324Z</time></trkpt><trkpt lat="43.4608453" lon="10.9156898"><ele>219.8</ele><time>2026-04-18T07:30:57.361Z</time></trkpt><trkpt lat="43.4607645" lon="10.9156374"><ele>221.0</ele><time>2026-04-18T07:30:58.45Z</time></trkpt><trkpt lat="43.4606821" lon="10.9156118"><ele>221.0</ele><time>2026-04-18T07:30:59.456Z</time></trkpt><trkpt lat="43.4605927" lon="10.9156415"><ele>221.0</ele><time>2026-04-18T07:31:00.418Z</time></trkpt><trkpt lat="43.4605177" lon="10.9156388"><ele>221.0</ele><time>2026-04-18T07:31:01.448Z</time></trkpt><trkpt lat="43.4604429" lon="10.9156677"><ele>221.0</ele><time>2026-04-18T07:31:02.426Z</time></trkpt><trkpt lat="43.4602704" lon="10.9158853"><ele>222.20000000000002</ele><time>2026-04-18T07:31:04.322Z</time></trkpt><trkpt lat="43.4601675" lon="10.9158865"><ele>223.40000000000003</ele><time>2026-04-18T07:31:05.327Z</time></trkpt><trkpt lat="43.4600514" lon="10.9158907"><ele>224.6</ele><time>2026-04-18T07:31:06.33Z</time></trkpt><trkpt lat="43.4599485" lon="10.9158561"><ele>225.8</ele><time>2026-04-18T07:31:07.323Z</time></trkpt><trkpt lat="43.4598552" lon="10.9157973"><ele>227.0</ele><time>2026-04-18T07:31:08.324Z</time></trkpt><trkpt lat="43.4597672" lon="10.9157178"><ele>227.0</ele><time>2026-04-18T07:31:09.32Z</time></trkpt><trkpt lat="43.459688" lon="10.9156142"><ele>227.0</ele><time>2026-04-18T07:31:10.321Z</time></trkpt><trkpt lat="43.4596133" lon="10.915494"><ele>227.0</ele><time>2026-04-18T07:31:11.32Z</time></trkpt><trkpt lat="43.4595433" lon="10.915387"><ele>227.0</ele><time>2026-04-18T07:31:12.324Z</time></trkpt><trkpt lat="43.4594722" lon="10.9153051"><ele>227.0</ele><time>2026-04-18T07:31:13.316Z</time></trkpt><trkpt lat="43.4593968" lon="10.9152463"><ele>227.50000000000003</ele><time>2026-04-18T07:31:14.318Z</time></trkpt><trkpt lat="43.4593143" lon="10.9152156"><ele>228.0</ele><time>2026-04-18T07:31:15.32Z</time></trkpt><trkpt lat="43.4592353" lon="10.9152173"><ele>228.5</ele><time>2026-04-18T07:31:16.319Z</time></trkpt><trkpt lat="43.459161" lon="10.9152454"><ele>229.0</ele><time>2026-04-18T07:31:17.322Z</time></trkpt><trkpt lat="43.4590846" lon="10.915291"><ele>229.50000000000003</ele><time>2026-04-18T07:31:18.315Z</time></trkpt><trkpt lat="43.4590065" lon="10.9153323"><ele>230.0</ele><time>2026-04-18T07:31:19.32Z</time></trkpt><trkpt lat="43.4588492" lon="10.9153034"><ele>229.0</ele><time>2026-04-18T07:31:21.417Z</time></trkpt><trkpt lat="43.4587678" lon="10.9152495"><ele>228.0</ele><time>2026-04-18T07:31:22.406Z</time></trkpt><trkpt lat="43.458696" lon="10.9151712"><ele>227.0</ele><time>2026-04-18T07:31:23.44Z</time></trkpt><trkpt lat="43.4586348" lon="10.9150697"><ele>226.0</ele><time>2026-04-18T07:31:24.407Z</time></trkpt><trkpt lat="43.4585913" lon="10.9149555"><ele>225.0</ele><time>2026-04-18T07:31:25.429Z</time></trkpt><trkpt lat="43.458568" lon="10.9148272"><ele>228.33333333333331</ele><time>2026-04-18T07:31:26.409Z</time></trkpt><trkpt lat="43.4585597" lon="10.9146843"><ele>231.66666666666666</ele><time>2026-04-18T07:31:27.43Z</time></trkpt><trkpt lat="43.4585583" lon="10.914529"><ele>235.0</ele><time>2026-04-18T07:31:28.424Z</time></trkpt><trkpt lat="43.4585534" lon="10.9141967"><ele>237.0</ele><time>2026-04-18T07:31:30.319Z</time></trkpt><trkpt lat="43.4585514" lon="10.9140122"><ele>239.0</ele><time>2026-04-18T07:31:31.432Z</time></trkpt><trkpt lat="43.458551" lon="10.913822"><ele>241.0</ele><time>2026-04-18T07:31:32.436Z</time></trkpt><trkpt lat="43.4585543" lon="10.913658"><ele>243.0</ele><time>2026-04-18T07:31:33.419Z</time></trkpt><trkpt lat="43.4585587" lon="10.9135069"><ele>244.4</ele><time>2026-04-18T07:31:34.323Z</time></trkpt><trkpt lat="43.4585604" lon="10.9133771"><ele>245.8</ele><time>2026-04-18T07:31:35.43Z</time></trkpt><trkpt lat="43.4585299" lon="10.9131403"><ele>247.2</ele><time>2026-04-18T07:31:37.412Z</time></trkpt><trkpt lat="43.4584935" lon="10.9130367"><ele>248.6</ele><time>2026-04-18T07:31:38.433Z</time></trkpt><trkpt lat="43.458442" lon="10.9129448"><ele>250.0</ele><time>2026-04-18T07:31:39.429Z</time></trkpt><trkpt lat="43.458376" lon="10.9128578"><ele>250.0</ele><time>2026-04-18T07:31:40.412Z</time></trkpt><trkpt lat="43.4582998" lon="10.912786"><ele>250.0</ele><time>2026-04-18T07:31:41.407Z</time></trkpt><trkpt lat="43.4582118" lon="10.9127188"><ele>250.0</ele><time>2026-04-18T07:31:42.441Z</time></trkpt><trkpt lat="43.4581148" lon="10.9126507"><ele>250.0</ele><time>2026-04-18T07:31:43.432Z</time></trkpt><trkpt lat="43.4580105" lon="10.9125804"><ele>250.0</ele><time>2026-04-18T07:31:44.421Z</time></trkpt><trkpt lat="43.4577826" lon="10.912422"><ele>252.25</ele><time>2026-04-18T07:31:46.31Z</time></trkpt><trkpt lat="43.4576579" lon="10.9123377"><ele>254.5</ele><time>2026-04-18T07:31:47.316Z</time></trkpt><trkpt lat="43.457526" lon="10.912248"><ele>256.75</ele><time>2026-04-18T07:31:48.314Z</time></trkpt><trkpt lat="43.4573899" lon="10.9121546"><ele>259.0</ele><time>2026-04-18T07:31:49.319Z</time></trkpt><trkpt lat="43.457248" lon="10.9120561"><ele>260.0</ele><time>2026-04-18T07:31:50.316Z</time></trkpt><trkpt lat="43.4571048" lon="10.9119589"><ele>261.0</ele><time>2026-04-18T07:31:51.314Z</time></trkpt><trkpt lat="43.4569729" lon="10.9118652"><ele>262.0</ele><time>2026-04-18T07:31:52.313Z</time></trkpt><trkpt lat="43.4568557" lon="10.9117855"><ele>263.0</ele><time>2026-04-18T07:31:53.313Z</time></trkpt><trkpt lat="43.4567509" lon="10.9117134"><ele>263.2</ele><time>2026-04-18T07:31:54.315Z</time></trkpt><trkpt lat="43.4566579" lon="10.9116463"><ele>263.4</ele><time>2026-04-18T07:31:55.318Z</time></trkpt><trkpt lat="43.4565707" lon="10.9115904"><ele>263.59999999999997</ele><time>2026-04-18T07:31:56.318Z</time></trkpt><trkpt lat="43.4564877" lon="10.9115517"><ele>263.8</ele><time>2026-04-18T07:31:57.313Z</time></trkpt><trkpt lat="43.4563984" lon="10.9115363"><ele>264.0</ele><time>2026-04-18T07:31:58.316Z</time></trkpt><trkpt lat="43.4563139" lon="10.9115518"><ele>265.59999999999997</ele><time>2026-04-18T07:31:59.317Z</time></trkpt><trkpt lat="43.4562221" lon="10.9115852"><ele>267.2</ele><time>2026-04-18T07:32:00.312Z</time></trkpt><trkpt lat="43.4561255" lon="10.911629"><ele>268.79999999999995</ele><time>2026-04-18T07:32:01.319Z</time></trkpt><trkpt lat="43.4560257" lon="10.9116826"><ele>270.4</ele><time>2026-04-18T07:32:02.317Z</time></trkpt><trkpt lat="43.455919" lon="10.9117341"><ele>272.0</ele><time>2026-04-18T07:32:03.313Z</time></trkpt><trkpt lat="43.4558002" lon="10.9117875"><ele>272.0</ele><time>2026-04-18T07:32:04.314Z</time></trkpt><trkpt lat="43.4556753" lon="10.9118428"><ele>272.0</ele><time>2026-04-18T07:32:05.316Z</time></trkpt><trkpt lat="43.4555391" lon="10.9118913"><ele>272.0</ele><time>2026-04-18T07:32:06.316Z</time></trkpt><trkpt lat="43.4554005" lon="10.9119279"><ele>272.0</ele><time>2026-04-18T07:32:07.313Z</time></trkpt><trkpt lat="43.4552703" lon="10.9119529"><ele>274.0</ele><time>2026-04-18T07:32:08.312Z</time></trkpt><trkpt lat="43.4551543" lon="10.9119731"><ele>276.0</ele><time>2026-04-18T07:32:09.316Z</time></trkpt><trkpt lat="43.4550543" lon="10.9119941"><ele>278.0</ele><time>2026-04-18T07:32:10.315Z</time></trkpt><trkpt lat="43.4549547" lon="10.9120262"><ele>280.0</ele><time>2026-04-18T07:32:11.315Z</time></trkpt><trkpt lat="43.4548562" lon="10.9120743"><ele>282.0</ele><time>2026-04-18T07:32:12.317Z</time></trkpt><trkpt lat="43.4547644" lon="10.9121413"><ele>282.0</ele><time>2026-04-18T07:32:13.303Z</time></trkpt><trkpt lat="43.4546747" lon="10.9122049"><ele>282.0</ele><time>2026-04-18T07:32:14.316Z</time></trkpt><trkpt lat="43.454587" lon="10.9122555"><ele>282.0</ele><time>2026-04-18T07:32:15.314Z</time></trkpt><trkpt lat="43.4545084" lon="10.9122802"><ele>282.0</ele><time>2026-04-18T07:32:16.327Z</time></trkpt><trkpt lat="43.4544317" lon="10.9122956"><ele>282.0</ele><time>2026-04-18T07:32:17.317Z</time></trkpt><trkpt lat="43.454353" lon="10.9123045"><ele>282.0</ele><time>2026-04-18T07:32:18.318Z</time></trkpt><trkpt lat="43.4542841" lon="10.9123087"><ele>283.6666666666667</ele><time>2026-04-18T07:32:19.316Z</time></trkpt><trkpt lat="43.4542136" lon="10.9123053"><ele>285.3333333333333</ele><time>2026-04-18T07:32:20.32Z</time></trkpt><trkpt lat="43.4541355" lon="10.9122943"><ele>287.0</ele><time>2026-04-18T07:32:21.32Z</time></trkpt><trkpt lat="43.4540643" lon="10.9122762"><ele>288.66666666666663</ele><time>2026-04-18T07:32:22.316Z</time></trkpt><trkpt lat="43.4539912" lon="10.9122519"><ele>290.3333333333333</ele><time>2026-04-18T07:32:23.317Z</time></trkpt><trkpt lat="43.4539176" lon="10.9122222"><ele>292.0</ele><time>2026-04-18T07:32:24.316Z</time></trkpt><trkpt lat="43.4538417" lon="10.9121885"><ele>292.4</ele><time>2026-04-18T07:32:25.315Z</time></trkpt><trkpt lat="43.4537627" lon="10.9121585"><ele>292.79999999999995</ele><time>2026-04-18T07:32:26.326Z</time></trkpt><trkpt lat="43.4536774" lon="10.9121481"><ele>293.2</ele><time>2026-04-18T07:32:27.316Z</time></trkpt><trkpt lat="43.4535805" lon="10.912152"><ele>293.59999999999997</ele><time>2026-04-18T07:32:28.316Z</time></trkpt><trkpt lat="43.4534742" lon="10.9121651"><ele>294.0</ele><time>2026-04-18T07:32:29.313Z</time></trkpt><trkpt lat="43.4533582" lon="10.912189"><ele>294.0</ele><time>2026-04-18T07:32:30.313Z</time></trkpt><trkpt lat="43.4532404" lon="10.9122231"><ele>294.0</ele><time>2026-04-18T07:32:31.316Z</time></trkpt><trkpt lat="43.4531214" lon="10.9122626"><ele>294.0</ele><time>2026-04-18T07:32:32.32Z</time></trkpt><trkpt lat="43.4530061" lon="10.9122955"><ele>294.0</ele><time>2026-04-18T07:32:33.316Z</time></trkpt><trkpt lat="43.4528963" lon="10.9123179"><ele>293.5</ele><time>2026-04-18T07:32:34.317Z</time></trkpt><trkpt lat="43.4527854" lon="10.9123314"><ele>293.0</ele><time>2026-04-18T07:32:35.323Z</time></trkpt><trkpt lat="43.4526728" lon="10.9123262"><ele>292.5</ele><time>2026-04-18T07:32:36.319Z</time></trkpt><trkpt lat="43.4525605" lon="10.9122891"><ele>292.0</ele><time>2026-04-18T07:32:37.317Z</time></trkpt><trkpt lat="43.4524509" lon="10.9122315"><ele>292.0</ele><time>2026-04-18T07:32:38.314Z</time></trkpt><trkpt lat="43.452338" lon="10.9121805"><ele>292.0</ele><time>2026-04-18T07:32:39.302Z</time></trkpt><trkpt lat="43.4522208" lon="10.9121378"><ele>292.0</ele><time>2026-04-18T07:32:40.313Z</time></trkpt><trkpt lat="43.4520999" lon="10.9121125"><ele>292.0</ele><time>2026-04-18T07:32:41.313Z</time></trkpt><trkpt lat="43.4519739" lon="10.9121043"><ele>290.75</ele><time>2026-04-18T07:32:42.317Z</time></trkpt><trkpt lat="43.4518465" lon="10.9121038"><ele>289.5</ele><time>2026-04-18T07:32:43.316Z</time></trkpt><trkpt lat="43.4517258" lon="10.9120991"><ele>288.25</ele><time>2026-04-18T07:32:44.314Z</time></trkpt><trkpt lat="43.4516039" lon="10.9120888"><ele>287.0</ele><time>2026-04-18T07:32:45.316Z</time></trkpt><trkpt lat="43.4514802" lon="10.9120633"><ele>287.0</ele><time>2026-04-18T07:32:46.374Z</time></trkpt><trkpt lat="43.4513726" lon="10.912025"><ele>287.0</ele><time>2026-04-18T07:32:47.417Z</time></trkpt><trkpt lat="43.451275" lon="10.9119863"><ele>287.0</ele><time>2026-04-18T07:32:48.42Z</time></trkpt><trkpt lat="43.4511859" lon="10.9119593"><ele>287.0</ele><time>2026-04-18T07:32:49.321Z</time></trkpt><trkpt lat="43.4511015" lon="10.9119466"><ele>287.0</ele><time>2026-04-18T07:32:50.416Z</time></trkpt><trkpt lat="43.4510148" lon="10.9119545"><ele>286.33333333333337</ele><time>2026-04-18T07:32:51.341Z</time></trkpt><trkpt lat="43.4509344" lon="10.9119701"><ele>285.6666666666667</ele><time>2026-04-18T07:32:52.32Z</time></trkpt><trkpt lat="43.450857" lon="10.9119716"><ele>285.0</ele><time>2026-04-18T07:32:53.32Z</time></trkpt><trkpt lat="43.4507838" lon="10.9119473"><ele>284.3333333333333</ele><time>2026-04-18T07:32:54.318Z</time></trkpt><trkpt lat="43.4507141" lon="10.911881"><ele>283.66666666666663</ele><time>2026-04-18T07:32:55.326Z</time></trkpt><trkpt lat="43.4506478" lon="10.9117935"><ele>283.0</ele><time>2026-04-18T07:32:56.322Z</time></trkpt><trkpt lat="43.4505818" lon="10.9117011"><ele>282.25</ele><time>2026-04-18T07:32:57.304Z</time></trkpt><trkpt lat="43.4504948" lon="10.9116154"><ele>281.5</ele><time>2026-04-18T07:32:58.305Z</time></trkpt><trkpt lat="43.4503913" lon="10.9115405"><ele>280.75</ele><time>2026-04-18T07:32:59.321Z</time></trkpt><trkpt lat="43.4502754" lon="10.9114617"><ele>280.0</ele><time>2026-04-18T07:33:00.321Z</time></trkpt><trkpt lat="43.4501505" lon="10.9113791"><ele>279.5</ele><time>2026-04-18T07:33:01.318Z</time></trkpt><trkpt lat="43.4500196" lon="10.9113051"><ele>279.0</ele><time>2026-04-18T07:33:02.316Z</time></trkpt><trkpt lat="43.4498878" lon="10.91123"><ele>278.5</ele><time>2026-04-18T07:33:03.318Z</time></trkpt><trkpt lat="43.4497514" lon="10.9111549"><ele>278.0</ele><time>2026-04-18T07:33:04.323Z</time></trkpt><trkpt lat="43.449617" lon="10.9110812"><ele>276.75</ele><time>2026-04-18T07:33:05.316Z</time></trkpt><trkpt lat="43.4494804" lon="10.9110127"><ele>275.5</ele><time>2026-04-18T07:33:06.321Z</time></trkpt><trkpt lat="43.4493472" lon="10.9109484"><ele>274.25</ele><time>2026-04-18T07:33:07.325Z</time></trkpt><trkpt lat="43.4492165" lon="10.9108875"><ele>273.0</ele><time>2026-04-18T07:33:08.322Z</time></trkpt><trkpt lat="43.4490805" lon="10.9108305"><ele>273.0</ele><time>2026-04-18T07:33:09.313Z</time></trkpt><trkpt lat="43.4489495" lon="10.9107782"><ele>273.0</ele><time>2026-04-18T07:33:10.305Z</time></trkpt><trkpt lat="43.4488231" lon="10.910725"><ele>273.0</ele><time>2026-04-18T07:33:11.436Z</time></trkpt><trkpt lat="43.4485662" lon="10.9105449"><ele>272.75</ele><time>2026-04-18T07:33:13.44Z</time></trkpt><trkpt lat="43.4484492" lon="10.9104546"><ele>272.5</ele><time>2026-04-18T07:33:14.452Z</time></trkpt><trkpt lat="43.4483318" lon="10.9103623"><ele>272.25</ele><time>2026-04-18T07:33:15.413Z</time></trkpt><trkpt lat="43.4482088" lon="10.9102677"><ele>272.0</ele><time>2026-04-18T07:33:16.45Z</time></trkpt><trkpt lat="43.4479381" lon="10.9100939"><ele>270.75</ele><time>2026-04-18T07:33:18.312Z</time></trkpt><trkpt lat="43.4478029" lon="10.9100166"><ele>269.5</ele><time>2026-04-18T07:33:19.321Z</time></trkpt><trkpt lat="43.4476784" lon="10.909943"><ele>268.25</ele><time>2026-04-18T07:33:20.317Z</time></trkpt><trkpt lat="43.4475555" lon="10.9098647"><ele>267.0</ele><time>2026-04-18T07:33:21.442Z</time></trkpt><trkpt lat="43.4474317" lon="10.909791"><ele>267.0</ele><time>2026-04-18T07:33:22.459Z</time></trkpt><trkpt lat="43.4473023" lon="10.9097172"><ele>267.0</ele><time>2026-04-18T07:33:23.455Z</time></trkpt><trkpt lat="43.4471617" lon="10.9096436"><ele>267.0</ele><time>2026-04-18T07:33:24.447Z</time></trkpt><trkpt lat="43.4470252" lon="10.9095773"><ele>267.0</ele><time>2026-04-18T07:33:25.441Z</time></trkpt><trkpt lat="43.4467735" lon="10.909467"><ele>265.0</ele><time>2026-04-18T07:33:27.32Z</time></trkpt><trkpt lat="43.4466682" lon="10.909414"><ele>263.0</ele><time>2026-04-18T07:33:28.322Z</time></trkpt><trkpt lat="43.4464342" lon="10.9091925"><ele>261.0</ele><time>2026-04-18T07:33:31.324Z</time></trkpt><trkpt lat="43.4463644" lon="10.9090585"><ele>260.25</ele><time>2026-04-18T07:33:32.444Z</time></trkpt><trkpt lat="43.4462969" lon="10.9089006"><ele>259.5</ele><time>2026-04-18T07:33:33.414Z</time></trkpt><trkpt lat="43.4462319" lon="10.9087388"><ele>258.75</ele><time>2026-04-18T07:33:34.453Z</time></trkpt><trkpt lat="43.4461792" lon="10.9085783"><ele>258.0</ele><time>2026-04-18T07:33:35.446Z</time></trkpt><trkpt lat="43.4461344" lon="10.9084183"><ele>257.75</ele><time>2026-04-18T07:33:36.44Z</time></trkpt><trkpt lat="43.4460894" lon="10.908259"><ele>257.5</ele><time>2026-04-18T07:33:37.441Z</time></trkpt><trkpt lat="43.4460411" lon="10.9080994"><ele>257.25</ele><time>2026-04-18T07:33:38.354Z</time></trkpt><trkpt lat="43.4459846" lon="10.9079407"><ele>257.0</ele><time>2026-04-18T07:33:39.309Z</time></trkpt><trkpt lat="43.4459163" lon="10.9077786"><ele>257.0</ele><time>2026-04-18T07:33:40.315Z</time></trkpt><trkpt lat="43.4458279" lon="10.9076156"><ele>257.0</ele><time>2026-04-18T07:33:41.323Z</time></trkpt><trkpt lat="43.4457345" lon="10.9074512"><ele>257.0</ele><time>2026-04-18T07:33:42.315Z</time></trkpt><trkpt lat="43.4456411" lon="10.9072896"><ele>257.0</ele><time>2026-04-18T07:33:43.312Z</time></trkpt><trkpt lat="43.4455475" lon="10.9071319"><ele>255.33333333333334</ele><time>2026-04-18T07:33:44.324Z</time></trkpt><trkpt lat="43.4454498" lon="10.9069686"><ele>253.66666666666669</ele><time>2026-04-18T07:33:45.315Z</time></trkpt><trkpt lat="43.4453506" lon="10.906797"><ele>252.0</ele><time>2026-04-18T07:33:46.434Z</time></trkpt><trkpt lat="43.4452467" lon="10.9066309"><ele>252.0</ele><time>2026-04-18T07:33:47.443Z</time></trkpt><trkpt lat="43.4451373" lon="10.9064621"><ele>252.0</ele><time>2026-04-18T07:33:48.426Z</time></trkpt><trkpt lat="43.445021" lon="10.9062979"><ele>252.0</ele><time>2026-04-18T07:33:49.436Z</time></trkpt><trkpt lat="43.4449037" lon="10.906134"><ele>252.0</ele><time>2026-04-18T07:33:50.42Z</time></trkpt><trkpt lat="43.4447974" lon="10.9059896"><ele>252.0</ele><time>2026-04-18T07:33:51.421Z</time></trkpt><trkpt lat="43.4447029" lon="10.9058572"><ele>252.0</ele><time>2026-04-18T07:33:52.439Z</time></trkpt><trkpt lat="43.4446183" lon="10.9057256"><ele>252.0</ele><time>2026-04-18T07:33:53.441Z</time></trkpt><trkpt lat="43.4445371" lon="10.9055706"><ele>251.75</ele><time>2026-04-18T07:33:54.431Z</time></trkpt><trkpt lat="43.4444623" lon="10.9054168"><ele>251.5</ele><time>2026-04-18T07:33:55.412Z</time></trkpt><trkpt lat="43.4443853" lon="10.90527"><ele>251.25</ele><time>2026-04-18T07:33:56.41Z</time></trkpt><trkpt lat="43.4443076" lon="10.9051316"><ele>251.0</ele><time>2026-04-18T07:33:57.319Z</time></trkpt><trkpt lat="43.4441096" lon="10.904871"><ele>251.0</ele><time>2026-04-18T07:33:59.419Z</time></trkpt><trkpt lat="43.4438419" lon="10.9045953"><ele>251.0</ele><time>2026-04-18T07:34:01.317Z</time></trkpt><trkpt lat="43.4436938" lon="10.9044608"><ele>249.0</ele><time>2026-04-18T07:34:02.401Z</time></trkpt><trkpt lat="43.443547" lon="10.904323"><ele>247.0</ele><time>2026-04-18T07:34:03.385Z</time></trkpt><trkpt lat="43.4434033" lon="10.9041879"><ele>245.0</ele><time>2026-04-18T07:34:04.323Z</time></trkpt><trkpt lat="43.4432559" lon="10.9040559"><ele>245.0</ele><time>2026-04-18T07:34:05.318Z</time></trkpt><trkpt lat="43.4431149" lon="10.9039278"><ele>245.0</ele><time>2026-04-18T07:34:06.379Z</time></trkpt><trkpt lat="43.4429735" lon="10.9038039"><ele>245.0</ele><time>2026-04-18T07:34:07.382Z</time></trkpt><trkpt lat="43.442833" lon="10.903682"><ele>245.5</ele><time>2026-04-18T07:34:08.411Z</time></trkpt><trkpt lat="43.4426961" lon="10.903558"><ele>246.0</ele><time>2026-04-18T07:34:09.428Z</time></trkpt><trkpt lat="43.4424069" lon="10.9032846"><ele>246.0</ele><time>2026-04-18T07:34:11.312Z</time></trkpt><trkpt lat="43.4422633" lon="10.9031611"><ele>246.0</ele><time>2026-04-18T07:34:12.319Z</time></trkpt><trkpt lat="43.4421292" lon="10.9030516"><ele>246.0</ele><time>2026-04-18T07:34:13.44Z</time></trkpt><trkpt lat="43.4418603" lon="10.9028478"><ele>245.5</ele><time>2026-04-18T07:34:15.444Z</time></trkpt><trkpt lat="43.4417188" lon="10.9027761"><ele>245.0</ele><time>2026-04-18T07:34:16.435Z</time></trkpt><trkpt lat="43.4415722" lon="10.9027246"><ele>244.5</ele><time>2026-04-18T07:34:17.432Z</time></trkpt><trkpt lat="43.4414327" lon="10.902693"><ele>244.0</ele><time>2026-04-18T07:34:18.439Z</time></trkpt><trkpt lat="43.4412891" lon="10.9026758"><ele>243.33333333333331</ele><time>2026-04-18T07:34:19.438Z</time></trkpt><trkpt lat="43.4410174" lon="10.9026437"><ele>242.66666666666669</ele><time>2026-04-18T07:34:21.444Z</time></trkpt><trkpt lat="43.4408841" lon="10.9026177"><ele>242.0</ele><time>2026-04-18T07:34:22.435Z</time></trkpt><trkpt lat="43.4406127" lon="10.902505"><ele>243.33333333333334</ele><time>2026-04-18T07:34:24.43Z</time></trkpt><trkpt lat="43.4404756" lon="10.9024128"><ele>244.66666666666669</ele><time>2026-04-18T07:34:25.427Z</time></trkpt><trkpt lat="43.4403462" lon="10.9023063"><ele>246.0</ele><time>2026-04-18T07:34:26.406Z</time></trkpt><trkpt lat="43.4402285" lon="10.9021841"><ele>247.0</ele><time>2026-04-18T07:34:27.41Z</time></trkpt><trkpt lat="43.4401163" lon="10.902044"><ele>248.0</ele><time>2026-04-18T07:34:28.425Z</time></trkpt><trkpt lat="43.4400205" lon="10.9018786"><ele>249.0</ele><time>2026-04-18T07:34:29.408Z</time></trkpt><trkpt lat="43.4399357" lon="10.9017177"><ele>250.0</ele><time>2026-04-18T07:34:30.318Z</time></trkpt><trkpt lat="43.439858" lon="10.9015758"><ele>250.0</ele><time>2026-04-18T07:34:31.412Z</time></trkpt><trkpt lat="43.4397835" lon="10.9014322"><ele>250.0</ele><time>2026-04-18T07:34:32.324Z</time></trkpt><trkpt lat="43.4397228" lon="10.9012892"><ele>250.0</ele><time>2026-04-18T07:34:33.326Z</time></trkpt><trkpt lat="43.4396834" lon="10.9011484"><ele>250.0</ele><time>2026-04-18T07:34:34.322Z</time></trkpt><trkpt lat="43.4396623" lon="10.9010116"><ele>249.25</ele><time>2026-04-18T07:34:35.314Z</time></trkpt><trkpt lat="43.4396558" lon="10.9008577"><ele>248.5</ele><time>2026-04-18T07:34:36.324Z</time></trkpt><trkpt lat="43.4396582" lon="10.9006947"><ele>247.75</ele><time>2026-04-18T07:34:37.319Z</time></trkpt><trkpt lat="43.4396681" lon="10.9005267"><ele>247.0</ele><time>2026-04-18T07:34:38.318Z</time></trkpt><trkpt lat="43.4396809" lon="10.9003701"><ele>247.0</ele><time>2026-04-18T07:34:39.407Z</time></trkpt><trkpt lat="43.4396939" lon="10.9002211"><ele>247.0</ele><time>2026-04-18T07:34:40.322Z</time></trkpt><trkpt lat="43.4396992" lon="10.9000877"><ele>247.0</ele><time>2026-04-18T07:34:41.322Z</time></trkpt><trkpt lat="43.4396942" lon="10.8999456"><ele>247.0</ele><time>2026-04-18T07:34:42.316Z</time></trkpt><trkpt lat="43.4396699" lon="10.8998049"><ele>247.0</ele><time>2026-04-18T07:34:43.313Z</time></trkpt><trkpt lat="43.4396334" lon="10.8996696"><ele>247.8</ele><time>2026-04-18T07:34:44.304Z</time></trkpt><trkpt lat="43.4395811" lon="10.8995561"><ele>248.6</ele><time>2026-04-18T07:34:45.32Z</time></trkpt><trkpt lat="43.4395148" lon="10.8994622"><ele>249.40000000000003</ele><time>2026-04-18T07:34:46.319Z</time></trkpt><trkpt lat="43.4394295" lon="10.899368"><ele>250.20000000000002</ele><time>2026-04-18T07:34:47.317Z</time></trkpt><trkpt lat="43.4393323" lon="10.8992665"><ele>251.0</ele><time>2026-04-18T07:34:48.317Z</time></trkpt><trkpt lat="43.4392397" lon="10.8991555"><ele>251.0</ele><time>2026-04-18T07:34:49.32Z</time></trkpt><trkpt lat="43.4391521" lon="10.8990454"><ele>251.0</ele><time>2026-04-18T07:34:50.319Z</time></trkpt><trkpt lat="43.4390682" lon="10.8989402"><ele>251.0</ele><time>2026-04-18T07:34:51.318Z</time></trkpt><trkpt lat="43.4389835" lon="10.8988404"><ele>251.0</ele><time>2026-04-18T07:34:52.318Z</time></trkpt><trkpt lat="43.4389019" lon="10.8987269"><ele>251.0</ele><time>2026-04-18T07:34:53.316Z</time></trkpt><trkpt lat="43.4388346" lon="10.8986045"><ele>251.00000000000003</ele><time>2026-04-18T07:34:54.318Z</time></trkpt><trkpt lat="43.4387854" lon="10.8984701"><ele>251.00000000000003</ele><time>2026-04-18T07:34:55.322Z</time></trkpt><trkpt lat="43.4387428" lon="10.8983282"><ele>251.0</ele><time>2026-04-18T07:34:56.321Z</time></trkpt><trkpt lat="43.438701" lon="10.8981952"><ele>251.0</ele><time>2026-04-18T07:34:57.323Z</time></trkpt><trkpt lat="43.4386503" lon="10.8980702"><ele>249.66666666666669</ele><time>2026-04-18T07:34:58.32Z</time></trkpt><trkpt lat="43.4385847" lon="10.8979429"><ele>248.33333333333331</ele><time>2026-04-18T07:34:59.435Z</time></trkpt><trkpt lat="43.4385145" lon="10.8978113"><ele>247.0</ele><time>2026-04-18T07:35:00.445Z</time></trkpt><trkpt lat="43.4384065" lon="10.897494"><ele>245.0</ele><time>2026-04-18T07:35:02.429Z</time></trkpt><trkpt lat="43.4383774" lon="10.8973012"><ele>243.0</ele><time>2026-04-18T07:35:03.44Z</time></trkpt><trkpt lat="43.4383523" lon="10.8970988"><ele>241.0</ele><time>2026-04-18T07:35:04.414Z</time></trkpt><trkpt lat="43.4383185" lon="10.8969013"><ele>239.0</ele><time>2026-04-18T07:35:05.321Z</time></trkpt><trkpt lat="43.4382793" lon="10.8967104"><ele>237.25</ele><time>2026-04-18T07:35:06.428Z</time></trkpt><trkpt lat="43.4382387" lon="10.8965354"><ele>235.5</ele><time>2026-04-18T07:35:07.43Z</time></trkpt><trkpt lat="43.4382073" lon="10.8963698"><ele>233.75</ele><time>2026-04-18T07:35:08.363Z</time></trkpt><trkpt lat="43.4381992" lon="10.896221"><ele>232.0</ele><time>2026-04-18T07:35:09.318Z</time></trkpt><trkpt lat="43.4382053" lon="10.896089"><ele>231.99999999999997</ele><time>2026-04-18T07:35:10.396Z</time></trkpt><trkpt lat="43.4382061" lon="10.8959742"><ele>232.0</ele><time>2026-04-18T07:35:11.409Z</time></trkpt><trkpt lat="43.4381943" lon="10.8958662"><ele>232.0</ele><time>2026-04-18T07:35:12.318Z</time></trkpt><trkpt lat="43.4381577" lon="10.8957747"><ele>232.0</ele><time>2026-04-18T07:35:13.312Z</time></trkpt><trkpt lat="43.4381003" lon="10.8956887"><ele>231.99999999999997</ele><time>2026-04-18T07:35:14.316Z</time></trkpt><trkpt lat="43.4380299" lon="10.8956077"><ele>232.0</ele><time>2026-04-18T07:35:15.323Z</time></trkpt><trkpt lat="43.4379509" lon="10.8955124"><ele>231.25</ele><time>2026-04-18T07:35:16.321Z</time></trkpt><trkpt lat="43.437877" lon="10.8953942"><ele>230.5</ele><time>2026-04-18T07:35:17.433Z</time></trkpt><trkpt lat="43.4378109" lon="10.8952566"><ele>229.75</ele><time>2026-04-18T07:35:18.407Z</time></trkpt><trkpt lat="43.4377561" lon="10.8951177"><ele>229.0</ele><time>2026-04-18T07:35:19.404Z</time></trkpt><trkpt lat="43.4377078" lon="10.8949769"><ele>228.5</ele><time>2026-04-18T07:35:20.418Z</time></trkpt><trkpt lat="43.4376568" lon="10.8948422"><ele>228.0</ele><time>2026-04-18T07:35:21.418Z</time></trkpt><trkpt lat="43.4375994" lon="10.8947125"><ele>227.5</ele><time>2026-04-18T07:35:22.435Z</time></trkpt><trkpt lat="43.4375319" lon="10.894581"><ele>227.0</ele><time>2026-04-18T07:35:23.428Z</time></trkpt><trkpt lat="43.4374495" lon="10.8944485"><ele>227.0</ele><time>2026-04-18T07:35:24.421Z</time></trkpt><trkpt lat="43.4373477" lon="10.8943204"><ele>227.0</ele><time>2026-04-18T07:35:25.441Z</time></trkpt><trkpt lat="43.4372311" lon="10.894206"><ele>227.0</ele><time>2026-04-18T07:35:26.431Z</time></trkpt><trkpt lat="43.4371075" lon="10.8940976"><ele>227.0</ele><time>2026-04-18T07:35:27.414Z</time></trkpt><trkpt lat="43.4369855" lon="10.8940157"><ele>224.75</ele><time>2026-04-18T07:35:28.441Z</time></trkpt><trkpt lat="43.4368614" lon="10.8939545"><ele>222.5</ele><time>2026-04-18T07:35:29.426Z</time></trkpt><trkpt lat="43.4367261" lon="10.8939073"><ele>220.25</ele><time>2026-04-18T07:35:30.424Z</time></trkpt><trkpt lat="43.4365919" lon="10.893863"><ele>218.0</ele><time>2026-04-18T07:35:31.437Z</time></trkpt><trkpt lat="43.4364707" lon="10.8938225"><ele>218.0</ele><time>2026-04-18T07:35:32.41Z</time></trkpt><trkpt lat="43.4363569" lon="10.8937826"><ele>218.0</ele><time>2026-04-18T07:35:33.438Z</time></trkpt><trkpt lat="43.4361511" lon="10.8936814"><ele>218.0</ele><time>2026-04-18T07:35:35.318Z</time></trkpt><trkpt lat="43.4360538" lon="10.8935985"><ele>218.0</ele><time>2026-04-18T07:35:36.316Z</time></trkpt><trkpt lat="43.4359605" lon="10.8934904"><ele>218.0</ele><time>2026-04-18T07:35:37.318Z</time></trkpt><trkpt lat="43.4358686" lon="10.8933641"><ele>218.0</ele><time>2026-04-18T07:35:38.424Z</time></trkpt><trkpt lat="43.4357768" lon="10.8932287"><ele>218.0</ele><time>2026-04-18T07:35:39.429Z</time></trkpt><trkpt lat="43.4356834" lon="10.8930882"><ele>218.0</ele><time>2026-04-18T07:35:40.439Z</time></trkpt><trkpt lat="43.4354787" lon="10.8928081"><ele>218.0</ele><time>2026-04-18T07:35:42.318Z</time></trkpt><trkpt lat="43.4353813" lon="10.8926727"><ele>218.0</ele><time>2026-04-18T07:35:43.318Z</time></trkpt><trkpt lat="43.4352892" lon="10.8925513"><ele>216.60000000000002</ele><time>2026-04-18T07:35:44.32Z</time></trkpt><trkpt lat="43.4352008" lon="10.8924463"><ele>215.20000000000002</ele><time>2026-04-18T07:35:45.324Z</time></trkpt><trkpt lat="43.4351167" lon="10.8923555"><ele>213.8</ele><time>2026-04-18T07:35:46.441Z</time></trkpt><trkpt lat="43.4350426" lon="10.8922716"><ele>212.4</ele><time>2026-04-18T07:35:47.43Z</time></trkpt><trkpt lat="43.4349727" lon="10.8921754"><ele>211.0</ele><time>2026-04-18T07:35:48.423Z</time></trkpt><trkpt lat="43.4349081" lon="10.892064"><ele>210.99999999999997</ele><time>2026-04-18T07:35:49.432Z</time></trkpt><trkpt lat="43.4348614" lon="10.8919498"><ele>211.0</ele><time>2026-04-18T07:35:50.427Z</time></trkpt><trkpt lat="43.4348306" lon="10.8918444"><ele>211.0</ele><time>2026-04-18T07:35:51.413Z</time></trkpt><trkpt lat="43.4348058" lon="10.8917453"><ele>211.0</ele><time>2026-04-18T07:35:52.399Z</time></trkpt><trkpt lat="43.4347765" lon="10.8916577"><ele>210.99999999999997</ele><time>2026-04-18T07:35:53.401Z</time></trkpt><trkpt lat="43.4347014" lon="10.891561"><ele>211.0</ele><time>2026-04-18T07:35:55.422Z</time></trkpt><trkpt lat="43.4345637" lon="10.8916014"><ele>209.33333333333331</ele><time>2026-04-18T07:35:58.408Z</time></trkpt><trkpt lat="43.434489" lon="10.8917067"><ele>207.66666666666666</ele><time>2026-04-18T07:36:00.435Z</time></trkpt><trkpt lat="43.4344338" lon="10.891868"><ele>206.0</ele><time>2026-04-18T07:36:02.426Z</time></trkpt><trkpt lat="43.4344195" lon="10.8919564"><ele>204.33333333333331</ele><time>2026-04-18T07:36:03.43Z</time></trkpt><trkpt lat="43.4344129" lon="10.8920463"><ele>202.66666666666666</ele><time>2026-04-18T07:36:04.423Z</time></trkpt><trkpt lat="43.4344198" lon="10.8921462"><ele>201.0</ele><time>2026-04-18T07:36:05.406Z</time></trkpt><trkpt lat="43.4344428" lon="10.8922612"><ele>200.0</ele><time>2026-04-18T07:36:06.434Z</time></trkpt><trkpt lat="43.4344794" lon="10.8923807"><ele>199.0</ele><time>2026-04-18T07:36:07.431Z</time></trkpt><trkpt lat="43.434517" lon="10.8925054"><ele>198.0</ele><time>2026-04-18T07:36:08.436Z</time></trkpt><trkpt lat="43.4346042" lon="10.8927388"><ele>197.0</ele><time>2026-04-18T07:36:10.326Z</time></trkpt><trkpt lat="43.4346378" lon="10.8928586"><ele>196.5</ele><time>2026-04-18T07:36:11.32Z</time></trkpt><trkpt lat="43.4346588" lon="10.892998"><ele>196.0</ele><time>2026-04-18T07:36:12.429Z</time></trkpt><trkpt lat="43.4346675" lon="10.8931376"><ele>195.5</ele><time>2026-04-18T07:36:13.421Z</time></trkpt><trkpt lat="43.4346704" lon="10.893269"><ele>195.0</ele><time>2026-04-18T07:36:14.431Z</time></trkpt><trkpt lat="43.4346824" lon="10.8935019"><ele>195.0</ele><time>2026-04-18T07:36:16.314Z</time></trkpt><trkpt lat="43.4346906" lon="10.8936014"><ele>195.0</ele><time>2026-04-18T07:36:17.318Z</time></trkpt><trkpt lat="43.4347046" lon="10.8937612"><ele>195.0</ele><time>2026-04-18T07:36:19.434Z</time></trkpt><trkpt lat="43.4346517" lon="10.893926"><ele>195.0</ele><time>2026-04-18T07:36:22.316Z</time></trkpt><trkpt lat="43.4345553" lon="10.8939048"><ele>195.0</ele><time>2026-04-18T07:36:24.425Z</time></trkpt><trkpt lat="43.4345019" lon="10.8938433"><ele>194.0</ele><time>2026-04-18T07:36:25.429Z</time></trkpt><trkpt lat="43.4344411" lon="10.8937654"><ele>193.0</ele><time>2026-04-18T07:36:26.437Z</time></trkpt><trkpt lat="43.4343753" lon="10.8936764"><ele>192.0</ele><time>2026-04-18T07:36:27.427Z</time></trkpt><trkpt lat="43.4343044" lon="10.8935902"><ele>191.0</ele><time>2026-04-18T07:36:28.406Z</time></trkpt><trkpt lat="43.4342207" lon="10.8935033"><ele>190.0</ele><time>2026-04-18T07:36:29.409Z</time></trkpt><trkpt lat="43.4341283" lon="10.8934218"><ele>190.0</ele><time>2026-04-18T07:36:30.318Z</time></trkpt><trkpt lat="43.4340275" lon="10.8933406"><ele>190.0</ele><time>2026-04-18T07:36:31.409Z</time></trkpt><trkpt lat="43.4339338" lon="10.8932728"><ele>190.0</ele><time>2026-04-18T07:36:32.436Z</time></trkpt><trkpt lat="43.4338386" lon="10.8932029"><ele>190.0</ele><time>2026-04-18T07:36:33.439Z</time></trkpt><trkpt lat="43.4337405" lon="10.8931238"><ele>190.0</ele><time>2026-04-18T07:36:34.43Z</time></trkpt><trkpt lat="43.4336515" lon="10.8930471"><ele>188.0</ele><time>2026-04-18T07:36:35.431Z</time></trkpt><trkpt lat="43.4335673" lon="10.8929714"><ele>186.0</ele><time>2026-04-18T07:36:36.415Z</time></trkpt><trkpt lat="43.4334919" lon="10.8928997"><ele>184.0</ele><time>2026-04-18T07:36:37.409Z</time></trkpt><trkpt lat="43.4334223" lon="10.8928273"><ele>182.0</ele><time>2026-04-18T07:36:38.386Z</time></trkpt><trkpt lat="43.433358" lon="10.8927665"><ele>180.0</ele><time>2026-04-18T07:36:39.418Z</time></trkpt><trkpt lat="43.4332919" lon="10.8927169"><ele>178.0</ele><time>2026-04-18T07:36:40.439Z</time></trkpt><trkpt lat="43.4332141" lon="10.8926842"><ele>178.0</ele><time>2026-04-18T07:36:41.357Z</time></trkpt><trkpt lat="43.4331225" lon="10.892671"><ele>178.0</ele><time>2026-04-18T07:36:42.419Z</time></trkpt><trkpt lat="43.4330133" lon="10.8926764"><ele>178.0</ele><time>2026-04-18T07:36:43.416Z</time></trkpt><trkpt lat="43.4328993" lon="10.8926991"><ele>178.0</ele><time>2026-04-18T07:36:44.39Z</time></trkpt><trkpt lat="43.4327906" lon="10.8927263"><ele>178.0</ele><time>2026-04-18T07:36:45.303Z</time></trkpt><trkpt lat="43.4326783" lon="10.8927635"><ele>177.0</ele><time>2026-04-18T07:36:46.315Z</time></trkpt><trkpt lat="43.4325589" lon="10.8927969"><ele>176.0</ele><time>2026-04-18T07:36:47.314Z</time></trkpt><trkpt lat="43.4324467" lon="10.8928262"><ele>175.0</ele><time>2026-04-18T07:36:48.315Z</time></trkpt><trkpt lat="43.4323441" lon="10.892854"><ele>174.0</ele><time>2026-04-18T07:36:49.315Z</time></trkpt><trkpt lat="43.4322478" lon="10.8928805"><ele>173.0</ele><time>2026-04-18T07:36:50.315Z</time></trkpt><trkpt lat="43.4321569" lon="10.8929056"><ele>173.83333333333331</ele><time>2026-04-18T07:36:51.312Z</time></trkpt><trkpt lat="43.4320823" lon="10.892925"><ele>174.66666666666666</ele><time>2026-04-18T07:36:52.322Z</time></trkpt><trkpt lat="43.4320169" lon="10.8929372"><ele>175.5</ele><time>2026-04-18T07:36:53.429Z</time></trkpt><trkpt lat="43.4319228" lon="10.8929612"><ele>176.33333333333334</ele><time>2026-04-18T07:36:55.429Z</time></trkpt><trkpt lat="43.4318637" lon="10.8930189"><ele>177.16666666666669</ele><time>2026-04-18T07:36:57.426Z</time></trkpt><trkpt lat="43.431855" lon="10.8931395"><ele>178.0</ele><time>2026-04-18T07:36:59.42Z</time></trkpt><trkpt lat="43.4318653" lon="10.8933048"><ele>178.25</ele><time>2026-04-18T07:37:01.405Z</time></trkpt><trkpt lat="43.4318958" lon="10.893447"><ele>178.5</ele><time>2026-04-18T07:37:02.424Z</time></trkpt><trkpt lat="43.4318994" lon="10.8935876"><ele>178.75</ele><time>2026-04-18T07:37:03.421Z</time></trkpt><trkpt lat="43.431887" lon="10.8937999"><ele>179.0</ele><time>2026-04-18T07:37:04.412Z</time></trkpt><trkpt lat="43.4318551" lon="10.8939709"><ele>179.0</ele><time>2026-04-18T07:37:05.429Z</time></trkpt><trkpt lat="43.4318105" lon="10.8941421"><ele>179.0</ele><time>2026-04-18T07:37:06.42Z</time></trkpt><trkpt lat="43.4317638" lon="10.8943208"><ele>179.0</ele><time>2026-04-18T07:37:07.406Z</time></trkpt><trkpt lat="43.4317189" lon="10.894474"><ele>179.0</ele><time>2026-04-18T07:37:08.43Z</time></trkpt><trkpt lat="43.4316238" lon="10.8945685"><ele>178.79999999999998</ele><time>2026-04-18T07:37:09.398Z</time></trkpt><trkpt lat="43.4315513" lon="10.8946785"><ele>178.6</ele><time>2026-04-18T07:37:10.428Z</time></trkpt><trkpt lat="43.4314866" lon="10.8947856"><ele>178.4</ele><time>2026-04-18T07:37:11.427Z</time></trkpt><trkpt lat="43.4314365" lon="10.8948962"><ele>178.2</ele><time>2026-04-18T07:37:12.43Z</time></trkpt><trkpt lat="43.4314368" lon="10.8950225"><ele>178.0</ele><time>2026-04-18T07:37:13.405Z</time></trkpt><trkpt lat="43.4314461" lon="10.8951768"><ele>178.60000000000002</ele><time>2026-04-18T07:37:14.402Z</time></trkpt><trkpt lat="43.4314618" lon="10.8952879"><ele>179.20000000000002</ele><time>2026-04-18T07:37:15.314Z</time></trkpt><trkpt lat="43.4314935" lon="10.8954096"><ele>179.8</ele><time>2026-04-18T07:37:16.407Z</time></trkpt><trkpt lat="43.4315296" lon="10.8955391"><ele>180.4</ele><time>2026-04-18T07:37:17.422Z</time></trkpt><trkpt lat="43.4315685" lon="10.895663"><ele>181.0</ele><time>2026-04-18T07:37:18.411Z</time></trkpt><trkpt lat="43.4316029" lon="10.8958083"><ele>182.0</ele><time>2026-04-18T07:37:19.407Z</time></trkpt><trkpt lat="43.4316288" lon="10.8959466"><ele>183.0</ele><time>2026-04-18T07:37:20.407Z</time></trkpt><trkpt lat="43.4316493" lon="10.8960673"><ele>184.0</ele><time>2026-04-18T07:37:21.413Z</time></trkpt><trkpt lat="43.4316545" lon="10.8961631"><ele>185.0</ele><time>2026-04-18T07:37:22.414Z</time></trkpt><trkpt lat="43.4316036" lon="10.8962907"><ele>186.0</ele><time>2026-04-18T07:37:24.313Z</time></trkpt><trkpt lat="43.4315064" lon="10.896294"><ele>186.0</ele><time>2026-04-18T07:37:26.43Z</time></trkpt><trkpt lat="43.4314022" lon="10.8961858"><ele>186.0</ele><time>2026-04-18T07:37:28.435Z</time></trkpt><trkpt lat="43.4313414" lon="10.8961147"><ele>186.0</ele><time>2026-04-18T07:37:29.435Z</time></trkpt><trkpt lat="43.4311909" lon="10.8960086"><ele>186.0</ele><time>2026-04-18T07:37:31.409Z</time></trkpt><trkpt lat="43.4311028" lon="10.8959678"><ele>186.8</ele><time>2026-04-18T07:37:32.405Z</time></trkpt><trkpt lat="43.4310046" lon="10.8959282"><ele>187.60000000000002</ele><time>2026-04-18T07:37:33.403Z</time></trkpt><trkpt lat="43.4309081" lon="10.8958916"><ele>188.4</ele><time>2026-04-18T07:37:34.406Z</time></trkpt><trkpt lat="43.4308244" lon="10.8958669"><ele>189.2</ele><time>2026-04-18T07:37:35.412Z</time></trkpt><trkpt lat="43.4307528" lon="10.8958509"><ele>190.0</ele><time>2026-04-18T07:37:36.41Z</time></trkpt><trkpt lat="43.4306476" lon="10.8958637"><ele>192.2</ele><time>2026-04-18T07:37:38.434Z</time></trkpt><trkpt lat="43.4305924" lon="10.8959631"><ele>194.4</ele><time>2026-04-18T07:37:40.417Z</time></trkpt><trkpt lat="43.4306366" lon="10.8961388"><ele>196.60000000000002</ele><time>2026-04-18T07:37:43.447Z</time></trkpt><trkpt lat="43.4306795" lon="10.8962083"><ele>198.8</ele><time>2026-04-18T07:37:44.439Z</time></trkpt><trkpt lat="43.4307344" lon="10.896293"><ele>201.0</ele><time>2026-04-18T07:37:45.438Z</time></trkpt><trkpt lat="43.4308021" lon="10.8963862"><ele>201.0</ele><time>2026-04-18T07:37:46.425Z</time></trkpt><trkpt lat="43.4308745" lon="10.8964845"><ele>201.0</ele><time>2026-04-18T07:37:47.432Z</time></trkpt><trkpt lat="43.4309283" lon="10.896563"><ele>201.0</ele><time>2026-04-18T07:37:48.426Z</time></trkpt><trkpt lat="43.4309699" lon="10.8966501"><ele>201.0</ele><time>2026-04-18T07:37:49.429Z</time></trkpt><trkpt lat="43.4310108" lon="10.896843"><ele>201.0</ele><time>2026-04-18T07:37:51.315Z</time></trkpt><trkpt lat="43.4310127" lon="10.8969508"><ele>202.33333333333334</ele><time>2026-04-18T07:37:52.31Z</time></trkpt><trkpt lat="43.4310035" lon="10.8970603"><ele>203.66666666666669</ele><time>2026-04-18T07:37:53.323Z</time></trkpt><trkpt lat="43.4309828" lon="10.8971679"><ele>205.0</ele><time>2026-04-18T07:37:54.432Z</time></trkpt><trkpt lat="43.430952" lon="10.8972716"><ele>206.33333333333334</ele><time>2026-04-18T07:37:55.426Z</time></trkpt><trkpt lat="43.4309124" lon="10.8973454"><ele>207.66666666666669</ele><time>2026-04-18T07:37:56.321Z</time></trkpt><trkpt lat="43.4308084" lon="10.8974"><ele>209.0</ele><time>2026-04-18T07:37:58.409Z</time></trkpt><trkpt lat="43.430708" lon="10.8973226"><ele>209.0</ele><time>2026-04-18T07:38:00.319Z</time></trkpt><trkpt lat="43.4306565" lon="10.897241"><ele>209.0</ele><time>2026-04-18T07:38:01.424Z</time></trkpt><trkpt lat="43.4305926" lon="10.8971803"><ele>209.0</ele><time>2026-04-18T07:38:02.429Z</time></trkpt><trkpt lat="43.4305272" lon="10.8971566"><ele>209.0</ele><time>2026-04-18T07:38:03.451Z</time></trkpt><trkpt lat="43.4303875" lon="10.8971937"><ele>209.0</ele><time>2026-04-18T07:38:05.427Z</time></trkpt><trkpt lat="43.4303117" lon="10.8972427"><ele>210.39999999999998</ele><time>2026-04-18T07:38:06.41Z</time></trkpt><trkpt lat="43.4302283" lon="10.8972955"><ele>211.8</ele><time>2026-04-18T07:38:07.319Z</time></trkpt><trkpt lat="43.4301445" lon="10.8973472"><ele>213.20000000000002</ele><time>2026-04-18T07:38:08.417Z</time></trkpt><trkpt lat="43.430075" lon="10.8974025"><ele>214.60000000000002</ele><time>2026-04-18T07:38:09.4Z</time></trkpt><trkpt lat="43.4300105" lon="10.8974663"><ele>216.0</ele><time>2026-04-18T07:38:10.406Z</time></trkpt><trkpt lat="43.4299424" lon="10.8976026"><ele>217.20000000000002</ele><time>2026-04-18T07:38:12.407Z</time></trkpt><trkpt lat="43.4299308" lon="10.8976904"><ele>218.40000000000003</ele><time>2026-04-18T07:38:13.429Z</time></trkpt><trkpt lat="43.4299237" lon="10.8979083"><ele>219.6</ele><time>2026-04-18T07:38:15.414Z</time></trkpt><trkpt lat="43.4299184" lon="10.8980241"><ele>220.8</ele><time>2026-04-18T07:38:16.439Z</time></trkpt><trkpt lat="43.4299099" lon="10.8981545"><ele>222.0</ele><time>2026-04-18T07:38:17.422Z</time></trkpt><trkpt lat="43.4299105" lon="10.8984264"><ele>223.2</ele><time>2026-04-18T07:38:19.322Z</time></trkpt><trkpt lat="43.4299244" lon="10.8985968"><ele>224.39999999999998</ele><time>2026-04-18T07:38:20.321Z</time></trkpt><trkpt lat="43.4299456" lon="10.8987352"><ele>225.60000000000002</ele><time>2026-04-18T07:38:21.322Z</time></trkpt><trkpt lat="43.4299483" lon="10.8988336"><ele>226.8</ele><time>2026-04-18T07:38:22.42Z</time></trkpt><trkpt lat="43.4299188" lon="10.8990151"><ele>228.0</ele><time>2026-04-18T07:38:24.413Z</time></trkpt><trkpt lat="43.4298166" lon="10.8990815"><ele>228.0</ele><time>2026-04-18T07:38:26.407Z</time></trkpt><trkpt lat="43.429746" lon="10.8990649"><ele>228.0</ele><time>2026-04-18T07:38:27.436Z</time></trkpt><trkpt lat="43.4296635" lon="10.8990468"><ele>228.0</ele><time>2026-04-18T07:38:28.439Z</time></trkpt><trkpt lat="43.429566" lon="10.8990472"><ele>228.0</ele><time>2026-04-18T07:38:29.436Z</time></trkpt><trkpt lat="43.4294597" lon="10.8990485"><ele>228.0</ele><time>2026-04-18T07:38:30.43Z</time></trkpt><trkpt lat="43.429261" lon="10.8991227"><ele>229.33333333333334</ele><time>2026-04-18T07:38:32.318Z</time></trkpt><trkpt lat="43.4291753" lon="10.8991591"><ele>230.66666666666669</ele><time>2026-04-18T07:38:33.447Z</time></trkpt><trkpt lat="43.4291005" lon="10.8991988"><ele>232.0</ele><time>2026-04-18T07:38:34.442Z</time></trkpt><trkpt lat="43.4290349" lon="10.8992535"><ele>233.33333333333334</ele><time>2026-04-18T07:38:35.437Z</time></trkpt><trkpt lat="43.4289883" lon="10.8993827"><ele>234.66666666666669</ele><time>2026-04-18T07:38:37.431Z</time></trkpt><trkpt lat="43.429003" lon="10.8995076"><ele>236.0</ele><time>2026-04-18T07:38:39.424Z</time></trkpt><trkpt lat="43.4290536" lon="10.8996436"><ele>237.33333333333334</ele><time>2026-04-18T07:38:41.438Z</time></trkpt><trkpt lat="43.4290917" lon="10.8997246"><ele>238.66666666666669</ele><time>2026-04-18T07:38:42.412Z</time></trkpt><trkpt lat="43.4291296" lon="10.8998075"><ele>240.0</ele><time>2026-04-18T07:38:43.433Z</time></trkpt><trkpt lat="43.4291611" lon="10.8999015"><ele>241.33333333333331</ele><time>2026-04-18T07:38:44.43Z</time></trkpt><trkpt lat="43.4291786" lon="10.9000159"><ele>242.66666666666666</ele><time>2026-04-18T07:38:45.42Z</time></trkpt><trkpt lat="43.4291747" lon="10.9001292"><ele>244.0</ele><time>2026-04-18T07:38:46.417Z</time></trkpt><trkpt lat="43.4291523" lon="10.9002445"><ele>245.0</ele><time>2026-04-18T07:38:47.318Z</time></trkpt><trkpt lat="43.4290589" lon="10.9004424"><ele>245.99999999999997</ele><time>2026-04-18T07:38:49.432Z</time></trkpt><trkpt lat="43.4289974" lon="10.900507"><ele>246.99999999999997</ele><time>2026-04-18T07:38:50.434Z</time></trkpt><trkpt lat="43.4289241" lon="10.9005433"><ele>248.0</ele><time>2026-04-18T07:38:51.405Z</time></trkpt><trkpt lat="43.4288435" lon="10.900563"><ele>249.0</ele><time>2026-04-18T07:38:52.43Z</time></trkpt><trkpt lat="43.4287759" lon="10.9005974"><ele>250.33333333333334</ele><time>2026-04-18T07:38:53.406Z</time></trkpt><trkpt lat="43.4287125" lon="10.9006515"><ele>251.66666666666669</ele><time>2026-04-18T07:38:54.316Z</time></trkpt><trkpt lat="43.4286684" lon="10.9007321"><ele>253.0</ele><time>2026-04-18T07:38:55.317Z</time></trkpt><trkpt lat="43.4286411" lon="10.90083"><ele>254.33333333333334</ele><time>2026-04-18T07:38:56.318Z</time></trkpt><trkpt lat="43.4286345" lon="10.9009386"><ele>255.66666666666669</ele><time>2026-04-18T07:38:57.322Z</time></trkpt><trkpt lat="43.4286457" lon="10.9010578"><ele>257.0</ele><time>2026-04-18T07:38:58.319Z</time></trkpt><trkpt lat="43.4286739" lon="10.9011864"><ele>256.5</ele><time>2026-04-18T07:38:59.318Z</time></trkpt><trkpt lat="43.4287201" lon="10.9013338"><ele>256.0</ele><time>2026-04-18T07:39:00.317Z</time></trkpt><trkpt lat="43.4287873" lon="10.9014728"><ele>255.5</ele><time>2026-04-18T07:39:01.323Z</time></trkpt><trkpt lat="43.4288847" lon="10.9016155"><ele>255.0</ele><time>2026-04-18T07:39:02.313Z</time></trkpt><trkpt lat="43.4290015" lon="10.9017661"><ele>259.3333333333333</ele><time>2026-04-18T07:39:03.319Z</time></trkpt><trkpt lat="43.4291135" lon="10.9019252"><ele>263.66666666666663</ele><time>2026-04-18T07:39:04.308Z</time></trkpt><trkpt lat="43.4292144" lon="10.9020694"><ele>268.0</ele><time>2026-04-18T07:39:05.317Z</time></trkpt><trkpt lat="43.4293345" lon="10.9021919"><ele>268.0</ele><time>2026-04-18T07:39:06.314Z</time></trkpt><trkpt lat="43.4294386" lon="10.902295"><ele>268.0</ele><time>2026-04-18T07:39:07.316Z</time></trkpt><trkpt lat="43.4295301" lon="10.9023804"><ele>268.0</ele><time>2026-04-18T07:39:08.318Z</time></trkpt><trkpt lat="43.429605" lon="10.9024457"><ele>268.0</ele><time>2026-04-18T07:39:09.317Z</time></trkpt><trkpt lat="43.4296612" lon="10.9025092"><ele>268.0</ele><time>2026-04-18T07:39:10.309Z</time></trkpt><trkpt lat="43.4297042" lon="10.9026503"><ele>268.2</ele><time>2026-04-18T07:39:12.32Z</time></trkpt><trkpt lat="43.4296477" lon="10.9027727"><ele>268.4</ele><time>2026-04-18T07:39:14.321Z</time></trkpt><trkpt lat="43.4295099" lon="10.9028142"><ele>268.59999999999997</ele><time>2026-04-18T07:39:16.323Z</time></trkpt><trkpt lat="43.4294148" lon="10.9028193"><ele>268.8</ele><time>2026-04-18T07:39:17.32Z</time></trkpt><trkpt lat="43.4293138" lon="10.9028121"><ele>269.0</ele><time>2026-04-18T07:39:18.312Z</time></trkpt><trkpt lat="43.4292319" lon="10.9027731"><ele>268.83333333333337</ele><time>2026-04-18T07:39:19.316Z</time></trkpt><trkpt lat="43.4291654" lon="10.9026977"><ele>268.6666666666667</ele><time>2026-04-18T07:39:20.318Z</time></trkpt><trkpt lat="43.4291122" lon="10.9025918"><ele>268.5</ele><time>2026-04-18T07:39:21.318Z</time></trkpt><trkpt lat="43.4290653" lon="10.9024877"><ele>268.3333333333333</ele><time>2026-04-18T07:39:22.315Z</time></trkpt><trkpt lat="43.4290136" lon="10.9024039"><ele>268.16666666666663</ele><time>2026-04-18T07:39:23.322Z</time></trkpt><trkpt lat="43.4289576" lon="10.9023355"><ele>268.0</ele><time>2026-04-18T07:39:24.406Z</time></trkpt><trkpt lat="43.4288991" lon="10.9022805"><ele>268.0</ele><time>2026-04-18T07:39:25.425Z</time></trkpt><trkpt lat="43.4288376" lon="10.9022478"><ele>268.0</ele><time>2026-04-18T07:39:26.442Z</time></trkpt><trkpt lat="43.4287679" lon="10.9022295"><ele>268.0</ele><time>2026-04-18T07:39:27.42Z</time></trkpt><trkpt lat="43.4286912" lon="10.9022279"><ele>268.0</ele><time>2026-04-18T07:39:28.429Z</time></trkpt><trkpt lat="43.4286138" lon="10.9022363"><ele>268.0</ele><time>2026-04-18T07:39:29.404Z</time></trkpt><trkpt lat="43.4285376" lon="10.9022636"><ele>268.0</ele><time>2026-04-18T07:39:30.409Z</time></trkpt><trkpt lat="43.4284538" lon="10.9023035"><ele>270.0</ele><time>2026-04-18T07:39:31.43Z</time></trkpt><trkpt lat="43.4283638" lon="10.9023456"><ele>272.0</ele><time>2026-04-18T07:39:32.436Z</time></trkpt><trkpt lat="43.4282645" lon="10.9023613"><ele>274.0</ele><time>2026-04-18T07:39:33.431Z</time></trkpt><trkpt lat="43.4281586" lon="10.9023452"><ele>276.0</ele><time>2026-04-18T07:39:34.424Z</time></trkpt><trkpt lat="43.4280538" lon="10.9023034"><ele>278.0</ele><time>2026-04-18T07:39:35.422Z</time></trkpt><trkpt lat="43.4279591" lon="10.9022493"><ele>278.5</ele><time>2026-04-18T07:39:36.386Z</time></trkpt><trkpt lat="43.427879" lon="10.9021979"><ele>279.0</ele><time>2026-04-18T07:39:37.316Z</time></trkpt><trkpt lat="43.427806" lon="10.9021569"><ele>279.5</ele><time>2026-04-18T07:39:38.321Z</time></trkpt><trkpt lat="43.4277406" lon="10.9021318"><ele>280.0</ele><time>2026-04-18T07:39:39.316Z</time></trkpt><trkpt lat="43.4276311" lon="10.9021648"><ele>280.5</ele><time>2026-04-18T07:39:41.435Z</time></trkpt><trkpt lat="43.42757" lon="10.9022652"><ele>281.0</ele><time>2026-04-18T07:39:43.415Z</time></trkpt><trkpt lat="43.4275802" lon="10.9023796"><ele>281.0</ele><time>2026-04-18T07:39:45.31Z</time></trkpt><trkpt lat="43.4277275" lon="10.9025621"><ele>281.0</ele><time>2026-04-18T07:39:48.422Z</time></trkpt><trkpt lat="43.4278129" lon="10.9026397"><ele>281.0</ele><time>2026-04-18T07:39:49.419Z</time></trkpt><trkpt lat="43.4279112" lon="10.9027312"><ele>281.0</ele><time>2026-04-18T07:39:50.421Z</time></trkpt><trkpt lat="43.4280213" lon="10.90283"><ele>282.5</ele><time>2026-04-18T07:39:51.401Z</time></trkpt><trkpt lat="43.4281411" lon="10.9029316"><ele>284.0</ele><time>2026-04-18T07:39:52.393Z</time></trkpt><trkpt lat="43.4282481" lon="10.9030164"><ele>285.5</ele><time>2026-04-18T07:39:53.32Z</time></trkpt><trkpt lat="43.4283418" lon="10.9030974"><ele>287.0</ele><time>2026-04-18T07:39:54.317Z</time></trkpt><trkpt lat="43.4284206" lon="10.903197"><ele>287.0</ele><time>2026-04-18T07:39:55.315Z</time></trkpt><trkpt lat="43.4284954" lon="10.9033143"><ele>287.0</ele><time>2026-04-18T07:39:56.315Z</time></trkpt><trkpt lat="43.4285681" lon="10.9034503"><ele>287.0</ele><time>2026-04-18T07:39:57.315Z</time></trkpt><trkpt lat="43.4286373" lon="10.9035978"><ele>287.0</ele><time>2026-04-18T07:39:58.318Z</time></trkpt><trkpt lat="43.4286992" lon="10.9037507"><ele>289.33333333333337</ele><time>2026-04-18T07:39:59.313Z</time></trkpt><trkpt lat="43.4288061" lon="10.9041052"><ele>291.6666666666667</ele><time>2026-04-18T07:40:01.449Z</time></trkpt><trkpt lat="43.428855" lon="10.9042943"><ele>294.0</ele><time>2026-04-18T07:40:02.454Z</time></trkpt><trkpt lat="43.4288949" lon="10.9044744"><ele>294.0</ele><time>2026-04-18T07:40:03.445Z</time></trkpt><trkpt lat="43.4289251" lon="10.9046373"><ele>294.0</ele><time>2026-04-18T07:40:04.426Z</time></trkpt><trkpt lat="43.4289678" lon="10.9047898"><ele>294.0</ele><time>2026-04-18T07:40:05.437Z</time></trkpt><trkpt lat="43.4290432" lon="10.9049261"><ele>294.0</ele><time>2026-04-18T07:40:06.438Z</time></trkpt><trkpt lat="43.4291178" lon="10.9050595"><ele>296.5</ele><time>2026-04-18T07:40:07.454Z</time></trkpt><trkpt lat="43.4292693" lon="10.9053107"><ele>299.0</ele><time>2026-04-18T07:40:09.441Z</time></trkpt><trkpt lat="43.4293082" lon="10.9054461"><ele>301.5</ele><time>2026-04-18T07:40:10.445Z</time></trkpt><trkpt lat="43.4293561" lon="10.9055727"><ele>304.0</ele><time>2026-04-18T07:40:11.448Z</time></trkpt><trkpt lat="43.4293141" lon="10.9057821"><ele>304.0</ele><time>2026-04-18T07:40:13.319Z</time></trkpt><trkpt lat="43.4292716" lon="10.905853"><ele>304.0</ele><time>2026-04-18T07:40:14.315Z</time></trkpt><trkpt lat="43.4291436" lon="10.9058907"><ele>304.0</ele><time>2026-04-18T07:40:16.409Z</time></trkpt><trkpt lat="43.429068" lon="10.9058603"><ele>304.0</ele><time>2026-04-18T07:40:17.449Z</time></trkpt><trkpt lat="43.4289766" lon="10.9058006"><ele>304.0</ele><time>2026-04-18T07:40:18.388Z</time></trkpt><trkpt lat="43.4288682" lon="10.9057287"><ele>308.3333333333333</ele><time>2026-04-18T07:40:19.439Z</time></trkpt><trkpt lat="43.4287416" lon="10.9056443"><ele>312.6666666666667</ele><time>2026-04-18T07:40:20.416Z</time></trkpt><trkpt lat="43.4285994" lon="10.9055533"><ele>317.0</ele><time>2026-04-18T07:40:21.454Z</time></trkpt><trkpt lat="43.4284582" lon="10.9054639"><ele>317.0</ele><time>2026-04-18T07:40:22.438Z</time></trkpt><trkpt lat="43.4283216" lon="10.9053803"><ele>317.0</ele><time>2026-04-18T07:40:23.45Z</time></trkpt><trkpt lat="43.428193" lon="10.9053061"><ele>317.0</ele><time>2026-04-18T07:40:24.44Z</time></trkpt><trkpt lat="43.4279355" lon="10.9051466"><ele>317.25</ele><time>2026-04-18T07:40:26.317Z</time></trkpt><trkpt lat="43.4278159" lon="10.9050673"><ele>317.5</ele><time>2026-04-18T07:40:27.443Z</time></trkpt><trkpt lat="43.4277084" lon="10.9049888"><ele>317.75</ele><time>2026-04-18T07:40:28.449Z</time></trkpt><trkpt lat="43.4276039" lon="10.9049214"><ele>318.0</ele><time>2026-04-18T07:40:29.444Z</time></trkpt><trkpt lat="43.4275061" lon="10.9048717"><ele>318.0</ele><time>2026-04-18T07:40:30.396Z</time></trkpt><trkpt lat="43.4274159" lon="10.9048318"><ele>318.0</ele><time>2026-04-18T07:40:31.438Z</time></trkpt><trkpt lat="43.427343" lon="10.9048116"><ele>318.0</ele><time>2026-04-18T07:40:32.455Z</time></trkpt><trkpt lat="43.4272475" lon="10.9048117"><ele>318.0</ele><time>2026-04-18T07:40:34.445Z</time></trkpt><trkpt lat="43.4271919" lon="10.9048754"><ele>318.0</ele><time>2026-04-18T07:40:37.444Z</time></trkpt><trkpt lat="43.427137" lon="10.904987"><ele>318.0</ele><time>2026-04-18T07:40:39.452Z</time></trkpt><trkpt lat="43.4271056" lon="10.9050681"><ele>320.6</ele><time>2026-04-18T07:40:40.45Z</time></trkpt><trkpt lat="43.4270676" lon="10.9051651"><ele>323.20000000000005</ele><time>2026-04-18T07:40:41.419Z</time></trkpt><trkpt lat="43.4270221" lon="10.9052613"><ele>325.8</ele><time>2026-04-18T07:40:42.448Z</time></trkpt><trkpt lat="43.4268859" lon="10.9054292"><ele>328.40000000000003</ele><time>2026-04-18T07:40:44.317Z</time></trkpt><trkpt lat="43.4268028" lon="10.9054815"><ele>331.0</ele><time>2026-04-18T07:40:45.312Z</time></trkpt><trkpt lat="43.4267319" lon="10.9055099"><ele>331.0</ele><time>2026-04-18T07:40:46.319Z</time></trkpt><trkpt lat="43.426633" lon="10.9055713"><ele>331.0</ele><time>2026-04-18T07:40:48.313Z</time></trkpt><trkpt lat="43.4265993" lon="10.9056769"><ele>331.0</ele><time>2026-04-18T07:40:50.319Z</time></trkpt><trkpt lat="43.4266467" lon="10.9057634"><ele>331.0</ele><time>2026-04-18T07:40:52.317Z</time></trkpt><trkpt lat="43.4267587" lon="10.9058452"><ele>331.0</ele><time>2026-04-18T07:40:54.316Z</time></trkpt><trkpt lat="43.4268313" lon="10.9058976"><ele>333.20000000000005</ele><time>2026-04-18T07:40:55.314Z</time></trkpt><trkpt lat="43.4269159" lon="10.905956"><ele>335.40000000000003</ele><time>2026-04-18T07:40:56.314Z</time></trkpt><trkpt lat="43.4270046" lon="10.9060162"><ele>337.6</ele><time>2026-04-18T07:40:57.308Z</time></trkpt><trkpt lat="43.427099" lon="10.9060874"><ele>339.8</ele><time>2026-04-18T07:40:58.316Z</time></trkpt><trkpt lat="43.4271987" lon="10.906169"><ele>342.0</ele><time>2026-04-18T07:40:59.319Z</time></trkpt><trkpt lat="43.4272869" lon="10.9062429"><ele>342.0</ele><time>2026-04-18T07:41:00.32Z</time></trkpt><trkpt lat="43.4273617" lon="10.9063122"><ele>342.0</ele><time>2026-04-18T07:41:01.311Z</time></trkpt><trkpt lat="43.4274217" lon="10.9063789"><ele>342.0</ele><time>2026-04-18T07:41:02.316Z</time></trkpt><trkpt lat="43.4274711" lon="10.9064562"><ele>342.0</ele><time>2026-04-18T07:41:03.419Z</time></trkpt><trkpt lat="43.427515" lon="10.9065487"><ele>342.0</ele><time>2026-04-18T07:41:04.443Z</time></trkpt><trkpt lat="43.4276108" lon="10.9067821"><ele>344.0</ele><time>2026-04-18T07:41:06.312Z</time></trkpt><trkpt lat="43.4276585" lon="10.906919"><ele>346.0</ele><time>2026-04-18T07:41:07.311Z</time></trkpt><trkpt lat="43.4277063" lon="10.9070652"><ele>348.0</ele><time>2026-04-18T07:41:08.316Z</time></trkpt><trkpt lat="43.4277455" lon="10.907202"><ele>350.0</ele><time>2026-04-18T07:41:09.317Z</time></trkpt><trkpt lat="43.4277703" lon="10.907332"><ele>352.0</ele><time>2026-04-18T07:41:10.315Z</time></trkpt><trkpt lat="43.4277843" lon="10.907462"><ele>352.8</ele><time>2026-04-18T07:41:11.312Z</time></trkpt><trkpt lat="43.4277871" lon="10.9075901"><ele>353.6</ele><time>2026-04-18T07:41:12.311Z</time></trkpt><trkpt lat="43.4277723" lon="10.9077311"><ele>354.40000000000003</ele><time>2026-04-18T07:41:13.311Z</time></trkpt><trkpt lat="43.4277495" lon="10.9078604"><ele>355.20000000000005</ele><time>2026-04-18T07:41:14.316Z</time></trkpt><trkpt lat="43.427697" lon="10.9079837"><ele>356.0</ele><time>2026-04-18T07:41:15.316Z</time></trkpt><trkpt lat="43.4276423" lon="10.9081185"><ele>356.0</ele><time>2026-04-18T07:41:16.317Z</time></trkpt><trkpt lat="43.4275763" lon="10.9082487"><ele>356.0</ele><time>2026-04-18T07:41:17.321Z</time></trkpt><trkpt lat="43.4275169" lon="10.9083914"><ele>356.0</ele><time>2026-04-18T07:41:18.317Z</time></trkpt><trkpt lat="43.4274528" lon="10.9085058"><ele>356.0</ele><time>2026-04-18T07:41:19.438Z</time></trkpt><trkpt lat="43.4273148" lon="10.9086378"><ele>356.6666666666667</ele><time>2026-04-18T07:41:21.305Z</time></trkpt><trkpt lat="43.4272436" lon="10.9086908"><ele>357.33333333333337</ele><time>2026-04-18T07:41:22.308Z</time></trkpt><trkpt lat="43.4271823" lon="10.9087285"><ele>358.0</ele><time>2026-04-18T07:41:23.31Z</time></trkpt><trkpt lat="43.427138" lon="10.9088719"><ele>358.6666666666667</ele><time>2026-04-18T07:41:25.313Z</time></trkpt><trkpt lat="43.4271965" lon="10.9090073"><ele>359.3333333333333</ele><time>2026-04-18T07:41:27.319Z</time></trkpt><trkpt lat="43.4272472" lon="10.9090653"><ele>360.0</ele><time>2026-04-18T07:41:28.314Z</time></trkpt><trkpt lat="43.4273144" lon="10.9091243"><ele>360.0</ele><time>2026-04-18T07:41:29.315Z</time></trkpt><trkpt lat="43.4273988" lon="10.9091895"><ele>360.0</ele><time>2026-04-18T07:41:30.318Z</time></trkpt><trkpt lat="43.4274662" lon="10.9092457"><ele>360.0</ele><time>2026-04-18T07:41:31.318Z</time></trkpt><trkpt lat="43.4275781" lon="10.9093154"><ele>360.0</ele><time>2026-04-18T07:41:32.318Z</time></trkpt><trkpt lat="43.4276644" lon="10.9093977"><ele>360.0</ele><time>2026-04-18T07:41:33.441Z</time></trkpt><trkpt lat="43.4277008" lon="10.9094897"><ele>362.25</ele><time>2026-04-18T07:41:34.409Z</time></trkpt><trkpt lat="43.4277351" lon="10.909595"><ele>364.5</ele><time>2026-04-18T07:41:35.436Z</time></trkpt><trkpt lat="43.427741" lon="10.9097097"><ele>366.75</ele><time>2026-04-18T07:41:36.458Z</time></trkpt><trkpt lat="43.4277559" lon="10.9098221"><ele>369.0</ele><time>2026-04-18T07:41:37.433Z</time></trkpt><trkpt lat="43.4277226" lon="10.9101095"><ele>370.75</ele><time>2026-04-18T07:41:39.321Z</time></trkpt><trkpt lat="43.4277345" lon="10.9102448"><ele>372.5</ele><time>2026-04-18T07:41:40.447Z</time></trkpt><trkpt lat="43.4278126" lon="10.9104946"><ele>374.25</ele><time>2026-04-18T07:41:42.438Z</time></trkpt><trkpt lat="43.4278616" lon="10.9106239"><ele>376.0</ele><time>2026-04-18T07:41:43.452Z</time></trkpt><trkpt lat="43.427893" lon="10.9107523"><ele>376.0</ele><time>2026-04-18T07:41:44.452Z</time></trkpt><trkpt lat="43.4279092" lon="10.9108914"><ele>376.0</ele><time>2026-04-18T07:41:45.45Z</time></trkpt><trkpt lat="43.4279097" lon="10.9110328"><ele>376.0</ele><time>2026-04-18T07:41:46.45Z</time></trkpt><trkpt lat="43.4279006" lon="10.9111958"><ele>376.0</ele><time>2026-04-18T07:41:47.445Z</time></trkpt><trkpt lat="43.4278729" lon="10.9115643"><ele>381.0</ele><time>2026-04-18T07:41:49.456Z</time></trkpt><trkpt lat="43.4278366" lon="10.9119548"><ele>386.0</ele><time>2026-04-18T07:41:51.314Z</time></trkpt><trkpt lat="43.4278184" lon="10.9121111"><ele>391.0</ele><time>2026-04-18T07:41:52.318Z</time></trkpt><trkpt lat="43.4277938" lon="10.9122538"><ele>391.0</ele><time>2026-04-18T07:41:53.314Z</time></trkpt><trkpt lat="43.4277509" lon="10.912406"><ele>391.0</ele><time>2026-04-18T07:41:54.309Z</time></trkpt><trkpt lat="43.4276984" lon="10.9125626"><ele>391.0</ele><time>2026-04-18T07:41:55.318Z</time></trkpt><trkpt lat="43.427633" lon="10.9127196"><ele>391.0</ele><time>2026-04-18T07:41:56.326Z</time></trkpt><trkpt lat="43.427557" lon="10.9128859"><ele>390.0</ele><time>2026-04-18T07:41:57.441Z</time></trkpt><trkpt lat="43.4274862" lon="10.9130385"><ele>389.0</ele><time>2026-04-18T07:41:58.447Z</time></trkpt><trkpt lat="43.4274214" lon="10.9131834"><ele>388.0</ele><time>2026-04-18T07:41:59.436Z</time></trkpt><trkpt lat="43.4273513" lon="10.9134686"><ele>387.79999999999995</ele><time>2026-04-18T07:42:01.322Z</time></trkpt><trkpt lat="43.4273437" lon="10.9135927"><ele>387.6</ele><time>2026-04-18T07:42:02.317Z</time></trkpt><trkpt lat="43.4273629" lon="10.913711"><ele>387.4</ele><time>2026-04-18T07:42:03.315Z</time></trkpt><trkpt lat="43.4274019" lon="10.9138227"><ele>387.20000000000005</ele><time>2026-04-18T07:42:04.319Z</time></trkpt><trkpt lat="43.4274595" lon="10.9139528"><ele>387.0</ele><time>2026-04-18T07:42:05.317Z</time></trkpt><trkpt lat="43.427534" lon="10.9141009"><ele>385.6666666666667</ele><time>2026-04-18T07:42:06.323Z</time></trkpt><trkpt lat="43.4276276" lon="10.9142554"><ele>384.33333333333337</ele><time>2026-04-18T07:42:07.319Z</time></trkpt><trkpt lat="43.4277294" lon="10.9144209"><ele>383.0</ele><time>2026-04-18T07:42:08.329Z</time></trkpt><trkpt lat="43.4278415" lon="10.9145939"><ele>383.0</ele><time>2026-04-18T07:42:09.416Z</time></trkpt><trkpt lat="43.4279558" lon="10.9147682"><ele>383.0</ele><time>2026-04-18T07:42:10.324Z</time></trkpt><trkpt lat="43.4280619" lon="10.9149351"><ele>383.0</ele><time>2026-04-18T07:42:11.32Z</time></trkpt><trkpt lat="43.4281657" lon="10.9150842"><ele>385.25</ele><time>2026-04-18T07:42:12.322Z</time></trkpt><trkpt lat="43.4282685" lon="10.9152066"><ele>387.5</ele><time>2026-04-18T07:42:13.323Z</time></trkpt><trkpt lat="43.4283656" lon="10.915301"><ele>389.75</ele><time>2026-04-18T07:42:14.318Z</time></trkpt><trkpt lat="43.4284766" lon="10.9153628"><ele>392.0</ele><time>2026-04-18T07:42:15.319Z</time></trkpt><trkpt lat="43.4285935" lon="10.9154006"><ele>392.0</ele><time>2026-04-18T07:42:16.324Z</time></trkpt><trkpt lat="43.4287077" lon="10.9154463"><ele>392.0</ele><time>2026-04-18T07:42:17.316Z</time></trkpt><trkpt lat="43.4287998" lon="10.9155174"><ele>392.0</ele><time>2026-04-18T07:42:18.317Z</time></trkpt><trkpt lat="43.4288731" lon="10.9156167"><ele>392.0</ele><time>2026-04-18T07:42:19.314Z</time></trkpt><trkpt lat="43.428922" lon="10.9157381"><ele>392.0</ele><time>2026-04-18T07:42:20.325Z</time></trkpt><trkpt lat="43.4289443" lon="10.9158771"><ele>397.5</ele><time>2026-04-18T07:42:21.328Z</time></trkpt><trkpt lat="43.4289476" lon="10.9160418"><ele>403.0</ele><time>2026-04-18T07:42:22.322Z</time></trkpt><trkpt lat="43.4289444" lon="10.9162192"><ele>408.5</ele><time>2026-04-18T07:42:23.315Z</time></trkpt><trkpt lat="43.4289605" lon="10.9164075"><ele>414.0</ele><time>2026-04-18T07:42:24.317Z</time></trkpt><trkpt lat="43.4289854" lon="10.9165989"><ele>414.66666666666663</ele><time>2026-04-18T07:42:25.321Z</time></trkpt><trkpt lat="43.4290157" lon="10.916805"><ele>415.3333333333333</ele><time>2026-04-18T07:42:26.32Z</time></trkpt><trkpt lat="43.4290487" lon="10.9170186"><ele>416.0</ele><time>2026-04-18T07:42:27.314Z</time></trkpt><trkpt lat="43.4290896" lon="10.9172354"><ele>416.0</ele><time>2026-04-18T07:42:28.32Z</time></trkpt><trkpt lat="43.4291351" lon="10.9174278"><ele>416.0</ele><time>2026-04-18T07:42:29.322Z</time></trkpt><trkpt lat="43.4291841" lon="10.9176217"><ele>416.0</ele><time>2026-04-18T07:42:30.32Z</time></trkpt><trkpt lat="43.4292241" lon="10.9178222"><ele>416.0</ele><time>2026-04-18T07:42:31.316Z</time></trkpt><trkpt lat="43.4292513" lon="10.9180301"><ele>416.0</ele><time>2026-04-18T07:42:32.317Z</time></trkpt><trkpt lat="43.4292638" lon="10.9182447"><ele>416.0</ele><time>2026-04-18T07:42:33.321Z</time></trkpt><trkpt lat="43.4292706" lon="10.9184762"><ele>416.0</ele><time>2026-04-18T07:42:34.324Z</time></trkpt><trkpt lat="43.4292652" lon="10.9186852"><ele>417.66666666666663</ele><time>2026-04-18T07:42:35.322Z</time></trkpt><trkpt lat="43.4292432" lon="10.9188889"><ele>419.33333333333337</ele><time>2026-04-18T07:42:36.313Z</time></trkpt><trkpt lat="43.4291986" lon="10.9190863"><ele>421.0</ele><time>2026-04-18T07:42:37.318Z</time></trkpt><trkpt lat="43.429138" lon="10.9192788"><ele>422.25</ele><time>2026-04-18T07:42:38.316Z</time></trkpt><trkpt lat="43.429073" lon="10.9194626"><ele>423.5</ele><time>2026-04-18T07:42:39.314Z</time></trkpt><trkpt lat="43.4290129" lon="10.9196279"><ele>424.75</ele><time>2026-04-18T07:42:40.315Z</time></trkpt><trkpt lat="43.4289572" lon="10.9197883"><ele>426.0</ele><time>2026-04-18T07:42:41.317Z</time></trkpt><trkpt lat="43.4289148" lon="10.919934"><ele>426.0</ele><time>2026-04-18T07:42:42.319Z</time></trkpt><trkpt lat="43.4288864" lon="10.9200605"><ele>426.0</ele><time>2026-04-18T07:42:43.325Z</time></trkpt><trkpt lat="43.4288781" lon="10.9201755"><ele>426.0</ele><time>2026-04-18T07:42:44.315Z</time></trkpt><trkpt lat="43.4288887" lon="10.920302"><ele>426.0</ele><time>2026-04-18T07:42:45.321Z</time></trkpt><trkpt lat="43.4289115" lon="10.9204404"><ele>426.0</ele><time>2026-04-18T07:42:46.317Z</time></trkpt><trkpt lat="43.4289437" lon="10.9205945"><ele>426.0</ele><time>2026-04-18T07:42:47.32Z</time></trkpt><trkpt lat="43.428977" lon="10.9207403"><ele>426.0</ele><time>2026-04-18T07:42:48.318Z</time></trkpt><trkpt lat="43.4289969" lon="10.920876"><ele>426.0</ele><time>2026-04-18T07:42:49.32Z</time></trkpt><trkpt lat="43.429003" lon="10.9210133"><ele>426.0</ele><time>2026-04-18T07:42:50.315Z</time></trkpt><trkpt lat="43.428992" lon="10.9211514"><ele>426.0</ele><time>2026-04-18T07:42:51.318Z</time></trkpt><trkpt lat="43.4289658" lon="10.9212825"><ele>425.0</ele><time>2026-04-18T07:42:52.321Z</time></trkpt><trkpt lat="43.4289216" lon="10.9214001"><ele>424.0</ele><time>2026-04-18T07:42:53.323Z</time></trkpt><trkpt lat="43.4288524" lon="10.9215095"><ele>423.0</ele><time>2026-04-18T07:42:54.314Z</time></trkpt><trkpt lat="43.4287552" lon="10.9216161"><ele>422.0</ele><time>2026-04-18T07:42:55.433Z</time></trkpt><trkpt lat="43.4286404" lon="10.9217315"><ele>422.0</ele><time>2026-04-18T07:42:56.419Z</time></trkpt><trkpt lat="43.4285201" lon="10.9218582"><ele>422.0</ele><time>2026-04-18T07:42:57.413Z</time></trkpt><trkpt lat="43.4284127" lon="10.9220008"><ele>422.0</ele><time>2026-04-18T07:42:58.427Z</time></trkpt><trkpt lat="43.4283252" lon="10.9221556"><ele>422.0</ele><time>2026-04-18T07:42:59.441Z</time></trkpt><trkpt lat="43.4281924" lon="10.9225089"><ele>422.3333333333333</ele><time>2026-04-18T07:43:01.322Z</time></trkpt><trkpt lat="43.4281369" lon="10.9227029"><ele>422.66666666666663</ele><time>2026-04-18T07:43:02.318Z</time></trkpt><trkpt lat="43.428078" lon="10.9229075"><ele>423.0</ele><time>2026-04-18T07:43:03.411Z</time></trkpt><trkpt lat="43.428022" lon="10.9231141"><ele>430.0</ele><time>2026-04-18T07:43:04.415Z</time></trkpt><trkpt lat="43.4279743" lon="10.9233007"><ele>437.0</ele><time>2026-04-18T07:43:05.317Z</time></trkpt><trkpt lat="43.4279329" lon="10.9234708"><ele>444.0</ele><time>2026-04-18T07:43:06.417Z</time></trkpt><trkpt lat="43.4279008" lon="10.9236202"><ele>451.0</ele><time>2026-04-18T07:43:07.323Z</time></trkpt><trkpt lat="43.4278715" lon="10.9237599"><ele>451.8</ele><time>2026-04-18T07:43:08.417Z</time></trkpt><trkpt lat="43.4278505" lon="10.9239085"><ele>452.6</ele><time>2026-04-18T07:43:09.32Z</time></trkpt><trkpt lat="43.427837" lon="10.9240568"><ele>453.4</ele><time>2026-04-18T07:43:10.32Z</time></trkpt><trkpt lat="43.4278227" lon="10.9242013"><ele>454.2</ele><time>2026-04-18T07:43:11.375Z</time></trkpt><trkpt lat="43.4278133" lon="10.9243517"><ele>455.0</ele><time>2026-04-18T07:43:12.317Z</time></trkpt><trkpt lat="43.4278124" lon="10.9245025"><ele>455.6</ele><time>2026-04-18T07:43:13.316Z</time></trkpt><trkpt lat="43.4278122" lon="10.9246557"><ele>456.2</ele><time>2026-04-18T07:43:14.321Z</time></trkpt><trkpt lat="43.4278136" lon="10.9248078"><ele>456.79999999999995</ele><time>2026-04-18T07:43:15.32Z</time></trkpt><trkpt lat="43.4278212" lon="10.9249569"><ele>457.4</ele><time>2026-04-18T07:43:16.322Z</time></trkpt><trkpt lat="43.4278288" lon="10.925107"><ele>458.0</ele><time>2026-04-18T07:43:17.324Z</time></trkpt><trkpt lat="43.4278269" lon="10.9252541"><ele>458.0</ele><time>2026-04-18T07:43:18.316Z</time></trkpt><trkpt lat="43.4278278" lon="10.9254013"><ele>457.99999999999994</ele><time>2026-04-18T07:43:19.319Z</time></trkpt><trkpt lat="43.427839" lon="10.9255707"><ele>457.99999999999994</ele><time>2026-04-18T07:43:20.418Z</time></trkpt><trkpt lat="43.4278399" lon="10.9257116"><ele>458.0</ele><time>2026-04-18T07:43:21.347Z</time></trkpt><trkpt lat="43.4278253" lon="10.9258462"><ele>458.0</ele><time>2026-04-18T07:43:22.425Z</time></trkpt><trkpt lat="43.4277893" lon="10.9259834"><ele>457.4</ele><time>2026-04-18T07:43:23.411Z</time></trkpt><trkpt lat="43.4277471" lon="10.9261061"><ele>456.79999999999995</ele><time>2026-04-18T07:43:24.422Z</time></trkpt><trkpt lat="43.4276974" lon="10.9262063"><ele>456.2</ele><time>2026-04-18T07:43:25.411Z</time></trkpt><trkpt lat="43.427633" lon="10.9262916"><ele>455.6</ele><time>2026-04-18T07:43:26.417Z</time></trkpt><trkpt lat="43.4275497" lon="10.9263523"><ele>455.0</ele><time>2026-04-18T07:43:27.315Z</time></trkpt><trkpt lat="43.4274476" lon="10.9263927"><ele>455.0</ele><time>2026-04-18T07:43:28.318Z</time></trkpt><trkpt lat="43.4273279" lon="10.9264278"><ele>455.0</ele><time>2026-04-18T07:43:29.318Z</time></trkpt><trkpt lat="43.4272233" lon="10.9264616"><ele>455.0</ele><time>2026-04-18T07:43:30.311Z</time></trkpt><trkpt lat="43.4271304" lon="10.9265074"><ele>455.0</ele><time>2026-04-18T07:43:31.316Z</time></trkpt><trkpt lat="43.4270543" lon="10.9265829"><ele>455.0</ele><time>2026-04-18T07:43:32.317Z</time></trkpt><trkpt lat="43.427001" lon="10.926677"><ele>456.8333333333333</ele><time>2026-04-18T07:43:33.323Z</time></trkpt><trkpt lat="43.4269779" lon="10.9267788"><ele>458.66666666666663</ele><time>2026-04-18T07:43:34.318Z</time></trkpt><trkpt lat="43.4269882" lon="10.9268701"><ele>460.5</ele><time>2026-04-18T07:43:35.313Z</time></trkpt><trkpt lat="43.4270231" lon="10.9269482"><ele>462.33333333333337</ele><time>2026-04-18T07:43:36.315Z</time></trkpt><trkpt lat="43.427068" lon="10.9270212"><ele>464.1666666666667</ele><time>2026-04-18T07:43:37.323Z</time></trkpt><trkpt lat="43.427136" lon="10.927083"><ele>466.0</ele><time>2026-04-18T07:43:38.32Z</time></trkpt><trkpt lat="43.4272333" lon="10.927161"><ele>466.0</ele><time>2026-04-18T07:43:39.317Z</time></trkpt><trkpt lat="43.4273213" lon="10.9272251"><ele>466.0</ele><time>2026-04-18T07:43:40.322Z</time></trkpt><trkpt lat="43.4274502" lon="10.9272955"><ele>466.0</ele><time>2026-04-18T07:43:41.317Z</time></trkpt><trkpt lat="43.4275241" lon="10.9273942"><ele>466.0</ele><time>2026-04-18T07:43:42.32Z</time></trkpt><trkpt lat="43.4275931" lon="10.9275258"><ele>470.0</ele><time>2026-04-18T07:43:43.41Z</time></trkpt><trkpt lat="43.4276638" lon="10.9276848"><ele>474.0</ele><time>2026-04-18T07:43:44.415Z</time></trkpt><trkpt lat="43.4277352" lon="10.9278516"><ele>478.0</ele><time>2026-04-18T07:43:45.418Z</time></trkpt><trkpt lat="43.4277974" lon="10.9279971"><ele>482.0</ele><time>2026-04-18T07:43:46.422Z</time></trkpt><trkpt lat="43.4278495" lon="10.9281287"><ele>482.0</ele><time>2026-04-18T07:43:47.408Z</time></trkpt><trkpt lat="43.4278876" lon="10.9282462"><ele>482.00000000000006</ele><time>2026-04-18T07:43:48.41Z</time></trkpt><trkpt lat="43.4279221" lon="10.9283828"><ele>482.00000000000006</ele><time>2026-04-18T07:43:49.437Z</time></trkpt><trkpt lat="43.4279404" lon="10.9285468"><ele>482.0</ele><time>2026-04-18T07:43:50.43Z</time></trkpt><trkpt lat="43.4279534" lon="10.9287206"><ele>482.0</ele><time>2026-04-18T07:43:51.427Z</time></trkpt><trkpt lat="43.4279671" lon="10.9288892"><ele>482.75</ele><time>2026-04-18T07:43:52.412Z</time></trkpt><trkpt lat="43.427989" lon="10.9290452"><ele>483.5</ele><time>2026-04-18T07:43:53.411Z</time></trkpt><trkpt lat="43.4280362" lon="10.929211"><ele>484.25</ele><time>2026-04-18T07:43:54.421Z</time></trkpt><trkpt lat="43.4280931" lon="10.9293854"><ele>485.0</ele><time>2026-04-18T07:43:55.43Z</time></trkpt><trkpt lat="43.4281363" lon="10.9295327"><ele>485.0</ele><time>2026-04-18T07:43:56.434Z</time></trkpt><trkpt lat="43.4282067" lon="10.92982"><ele>485.0</ele><time>2026-04-18T07:43:58.408Z</time></trkpt><trkpt lat="43.4282094" lon="10.9299403"><ele>485.0</ele><time>2026-04-18T07:43:59.41Z</time></trkpt><trkpt lat="43.4282043" lon="10.9300711"><ele>485.0</ele><time>2026-04-18T07:44:00.32Z</time></trkpt><trkpt lat="43.4281851" lon="10.9302164"><ele>488.0</ele><time>2026-04-18T07:44:01.435Z</time></trkpt><trkpt lat="43.4281547" lon="10.9303817"><ele>491.0</ele><time>2026-04-18T07:44:02.439Z</time></trkpt><trkpt lat="43.4281195" lon="10.9305582"><ele>494.0</ele><time>2026-04-18T07:44:03.413Z</time></trkpt><trkpt lat="43.4280529" lon="10.9309085"><ele>496.75</ele><time>2026-04-18T07:44:05.314Z</time></trkpt><trkpt lat="43.4280238" lon="10.9310892"><ele>499.5</ele><time>2026-04-18T07:44:06.317Z</time></trkpt><trkpt lat="43.428001" lon="10.9312564"><ele>502.25</ele><time>2026-04-18T07:44:07.317Z</time></trkpt><trkpt lat="43.4279928" lon="10.9314186"><ele>505.0</ele><time>2026-04-18T07:44:08.315Z</time></trkpt><trkpt lat="43.4280143" lon="10.9315823"><ele>506.1666666666667</ele><time>2026-04-18T07:44:09.313Z</time></trkpt><trkpt lat="43.4280266" lon="10.9317276"><ele>507.33333333333337</ele><time>2026-04-18T07:44:10.316Z</time></trkpt><trkpt lat="43.4280372" lon="10.9318722"><ele>508.5</ele><time>2026-04-18T07:44:11.313Z</time></trkpt><trkpt lat="43.4280135" lon="10.9319745"><ele>509.66666666666663</ele><time>2026-04-18T07:44:12.32Z</time></trkpt><trkpt lat="43.4280009" lon="10.9320817"><ele>510.8333333333333</ele><time>2026-04-18T07:44:13.316Z</time></trkpt><trkpt lat="43.4279475" lon="10.932143"><ele>512.0</ele><time>2026-04-18T07:44:14.315Z</time></trkpt><trkpt lat="43.4279021" lon="10.9323347"><ele>512.4</ele><time>2026-04-18T07:44:16.315Z</time></trkpt><trkpt lat="43.4277919" lon="10.9324006"><ele>512.8000000000001</ele><time>2026-04-18T07:44:17.314Z</time></trkpt><trkpt lat="43.4277405" lon="10.9324597"><ele>513.2</ele><time>2026-04-18T07:44:18.32Z</time></trkpt><trkpt lat="43.4277019" lon="10.932532"><ele>513.6</ele><time>2026-04-18T07:44:19.318Z</time></trkpt><trkpt lat="43.4276834" lon="10.9326657"><ele>514.0</ele><time>2026-04-18T07:44:21.315Z</time></trkpt><trkpt lat="43.4277493" lon="10.932834"><ele>514.0</ele><time>2026-04-18T07:44:23.323Z</time></trkpt><trkpt lat="43.4277856" lon="10.9329432"><ele>514.0</ele><time>2026-04-18T07:44:24.317Z</time></trkpt><trkpt lat="43.4278483" lon="10.9330938"><ele>514.0</ele><time>2026-04-18T07:44:25.314Z</time></trkpt><trkpt lat="43.4279112" lon="10.933252"><ele>514.0</ele><time>2026-04-18T07:44:26.313Z</time></trkpt><trkpt lat="43.4279541" lon="10.933397"><ele>511.0</ele><time>2026-04-18T07:44:27.314Z</time></trkpt><trkpt lat="43.4280009" lon="10.9335195"><ele>508.0</ele><time>2026-04-18T07:44:28.314Z</time></trkpt><trkpt lat="43.4280517" lon="10.9336323"><ele>505.0</ele><time>2026-04-18T07:44:29.317Z</time></trkpt><trkpt lat="43.4281058" lon="10.9337329"><ele>502.0</ele><time>2026-04-18T07:44:30.314Z</time></trkpt><trkpt lat="43.4281662" lon="10.9338323"><ele>499.0</ele><time>2026-04-18T07:44:31.313Z</time></trkpt><trkpt lat="43.4282351" lon="10.9339219"><ele>499.0</ele><time>2026-04-18T07:44:32.315Z</time></trkpt><trkpt lat="43.4283188" lon="10.9340137"><ele>499.0</ele><time>2026-04-18T07:44:33.315Z</time></trkpt><trkpt lat="43.4284187" lon="10.9341049"><ele>499.0</ele><time>2026-04-18T07:44:34.313Z</time></trkpt><trkpt lat="43.4285268" lon="10.9341944"><ele>499.0</ele><time>2026-04-18T07:44:35.315Z</time></trkpt><trkpt lat="43.4286391" lon="10.9342953"><ele>496.5</ele><time>2026-04-18T07:44:36.314Z</time></trkpt><trkpt lat="43.4287487" lon="10.9344019"><ele>494.0</ele><time>2026-04-18T07:44:37.314Z</time></trkpt><trkpt lat="43.4288509" lon="10.9345063"><ele>491.5</ele><time>2026-04-18T07:44:38.32Z</time></trkpt><trkpt lat="43.4289586" lon="10.9345978"><ele>489.0</ele><time>2026-04-18T07:44:39.314Z</time></trkpt><trkpt lat="43.4290862" lon="10.9346905"><ele>489.0</ele><time>2026-04-18T07:44:40.318Z</time></trkpt><trkpt lat="43.4292196" lon="10.934781"><ele>489.0</ele><time>2026-04-18T07:44:41.317Z</time></trkpt><trkpt lat="43.4293614" lon="10.9348772"><ele>489.0</ele><time>2026-04-18T07:44:42.319Z</time></trkpt><trkpt lat="43.4295095" lon="10.9349772"><ele>489.25</ele><time>2026-04-18T07:44:43.313Z</time></trkpt><trkpt lat="43.4296499" lon="10.9350766"><ele>489.5</ele><time>2026-04-18T07:44:44.313Z</time></trkpt><trkpt lat="43.4297859" lon="10.9351661"><ele>489.75</ele><time>2026-04-18T07:44:45.314Z</time></trkpt><trkpt lat="43.4298968" lon="10.9352633"><ele>490.0</ele><time>2026-04-18T07:44:46.31Z</time></trkpt><trkpt lat="43.4299937" lon="10.9353473"><ele>490.0</ele><time>2026-04-18T07:44:47.306Z</time></trkpt><trkpt lat="43.4300926" lon="10.9354352"><ele>490.0</ele><time>2026-04-18T07:44:48.314Z</time></trkpt><trkpt lat="43.43019" lon="10.9355459"><ele>490.0</ele><time>2026-04-18T07:44:49.309Z</time></trkpt><trkpt lat="43.4302775" lon="10.9356834"><ele>490.0</ele><time>2026-04-18T07:44:50.312Z</time></trkpt><trkpt lat="43.4303632" lon="10.9358244"><ele>492.25</ele><time>2026-04-18T07:44:51.309Z</time></trkpt><trkpt lat="43.4304485" lon="10.9359517"><ele>494.5</ele><time>2026-04-18T07:44:52.312Z</time></trkpt><trkpt lat="43.4305296" lon="10.9360762"><ele>496.75</ele><time>2026-04-18T07:44:53.313Z</time></trkpt><trkpt lat="43.4306001" lon="10.936197"><ele>499.0</ele><time>2026-04-18T07:44:54.315Z</time></trkpt><trkpt lat="43.4306723" lon="10.9363299"><ele>499.0</ele><time>2026-04-18T07:44:55.314Z</time></trkpt><trkpt lat="43.4307404" lon="10.9364721"><ele>499.0</ele><time>2026-04-18T07:44:56.315Z</time></trkpt><trkpt lat="43.4308098" lon="10.9366397"><ele>499.0</ele><time>2026-04-18T07:44:57.322Z</time></trkpt><trkpt lat="43.4308701" lon="10.9368137"><ele>499.0</ele><time>2026-04-18T07:44:58.314Z</time></trkpt><trkpt lat="43.4309149" lon="10.9369809"><ele>497.5</ele><time>2026-04-18T07:44:59.315Z</time></trkpt><trkpt lat="43.430968" lon="10.9371329"><ele>496.0</ele><time>2026-04-18T07:45:00.315Z</time></trkpt><trkpt lat="43.4310181" lon="10.9372745"><ele>494.5</ele><time>2026-04-18T07:45:01.315Z</time></trkpt><trkpt lat="43.4310905" lon="10.9373989"><ele>493.0</ele><time>2026-04-18T07:45:02.315Z</time></trkpt><trkpt lat="43.4311557" lon="10.9375285"><ele>491.25</ele><time>2026-04-18T07:45:03.316Z</time></trkpt><trkpt lat="43.4312563" lon="10.937608"><ele>489.5</ele><time>2026-04-18T07:45:04.317Z</time></trkpt><trkpt lat="43.4313534" lon="10.9376935"><ele>487.75</ele><time>2026-04-18T07:45:05.321Z</time></trkpt><trkpt lat="43.4314562" lon="10.9377783"><ele>486.0</ele><time>2026-04-18T07:45:06.32Z</time></trkpt><trkpt lat="43.4315503" lon="10.9378732"><ele>489.5</ele><time>2026-04-18T07:45:07.317Z</time></trkpt><trkpt lat="43.4316312" lon="10.9379981"><ele>493.0</ele><time>2026-04-18T07:45:08.315Z</time></trkpt><trkpt lat="43.431708" lon="10.9381278"><ele>496.5</ele><time>2026-04-18T07:45:09.316Z</time></trkpt><trkpt lat="43.4317689" lon="10.9382724"><ele>500.0</ele><time>2026-04-18T07:45:10.314Z</time></trkpt><trkpt lat="43.4318335" lon="10.9384181"><ele>500.0</ele><time>2026-04-18T07:45:11.31Z</time></trkpt><trkpt lat="43.4318936" lon="10.9385596"><ele>500.0</ele><time>2026-04-18T07:45:12.318Z</time></trkpt><trkpt lat="43.4319387" lon="10.9387035"><ele>500.0</ele><time>2026-04-18T07:45:13.317Z</time></trkpt><trkpt lat="43.4319636" lon="10.938861"><ele>500.0</ele><time>2026-04-18T07:45:14.318Z</time></trkpt><trkpt lat="43.4319709" lon="10.9390323"><ele>500.0</ele><time>2026-04-18T07:45:15.32Z</time></trkpt><trkpt lat="43.4319585" lon="10.9392056"><ele>500.0</ele><time>2026-04-18T07:45:16.318Z</time></trkpt><trkpt lat="43.431948" lon="10.9393721"><ele>500.0</ele><time>2026-04-18T07:45:17.314Z</time></trkpt><trkpt lat="43.4319354" lon="10.9395146"><ele>500.0</ele><time>2026-04-18T07:45:18.318Z</time></trkpt><trkpt lat="43.4319595" lon="10.9396422"><ele>500.0</ele><time>2026-04-18T07:45:19.319Z</time></trkpt><trkpt lat="43.4320011" lon="10.9397594"><ele>500.66666666666663</ele><time>2026-04-18T07:45:20.318Z</time></trkpt><trkpt lat="43.4320456" lon="10.9398669"><ele>501.3333333333333</ele><time>2026-04-18T07:45:21.321Z</time></trkpt><trkpt lat="43.4320677" lon="10.9399634"><ele>502.0</ele><time>2026-04-18T07:45:22.318Z</time></trkpt><trkpt lat="43.4320649" lon="10.9400719"><ele>502.66666666666663</ele><time>2026-04-18T07:45:23.319Z</time></trkpt><trkpt lat="43.4320649" lon="10.9401831"><ele>503.3333333333333</ele><time>2026-04-18T07:45:24.323Z</time></trkpt><trkpt lat="43.4320304" lon="10.9403154"><ele>504.0</ele><time>2026-04-18T07:45:25.32Z</time></trkpt><trkpt lat="43.4319899" lon="10.9404693"><ele>505.5</ele><time>2026-04-18T07:45:26.317Z</time></trkpt><trkpt lat="43.4319532" lon="10.9406423"><ele>507.0</ele><time>2026-04-18T07:45:27.321Z</time></trkpt><trkpt lat="43.4319193" lon="10.9408377"><ele>508.5</ele><time>2026-04-18T07:45:28.318Z</time></trkpt><trkpt lat="43.4318907" lon="10.9410553"><ele>510.0</ele><time>2026-04-18T07:45:29.32Z</time></trkpt><trkpt lat="43.4318745" lon="10.941286"><ele>511.66666666666663</ele><time>2026-04-18T07:45:30.322Z</time></trkpt><trkpt lat="43.4318659" lon="10.9415096"><ele>513.3333333333333</ele><time>2026-04-18T07:45:31.322Z</time></trkpt><trkpt lat="43.4318628" lon="10.9417361"><ele>515.0</ele><time>2026-04-18T07:45:32.407Z</time></trkpt><trkpt lat="43.4318576" lon="10.9419593"><ele>515.3333333333333</ele><time>2026-04-18T07:45:33.335Z</time></trkpt><trkpt lat="43.4318472" lon="10.9421604"><ele>515.6666666666666</ele><time>2026-04-18T07:45:34.431Z</time></trkpt><trkpt lat="43.4318431" lon="10.9425735"><ele>516.0</ele><time>2026-04-18T07:45:36.318Z</time></trkpt><trkpt lat="43.4318502" lon="10.9427937"><ele>514.3333333333334</ele><time>2026-04-18T07:45:37.314Z</time></trkpt><trkpt lat="43.4318677" lon="10.9430237"><ele>512.6666666666667</ele><time>2026-04-18T07:45:38.31Z</time></trkpt><trkpt lat="43.4318803" lon="10.9432632"><ele>511.0</ele><time>2026-04-18T07:45:39.311Z</time></trkpt><trkpt lat="43.4318845" lon="10.9434911"><ele>510.25</ele><time>2026-04-18T07:45:40.314Z</time></trkpt><trkpt lat="43.4318906" lon="10.9437095"><ele>509.5</ele><time>2026-04-18T07:45:41.315Z</time></trkpt><trkpt lat="43.4319026" lon="10.9438911"><ele>508.75</ele><time>2026-04-18T07:45:42.311Z</time></trkpt><trkpt lat="43.4319231" lon="10.9440603"><ele>508.0</ele><time>2026-04-18T07:45:43.322Z</time></trkpt><trkpt lat="43.4319469" lon="10.9442078"><ele>507.4</ele><time>2026-04-18T07:45:44.318Z</time></trkpt><trkpt lat="43.4319987" lon="10.9443414"><ele>506.79999999999995</ele><time>2026-04-18T07:45:45.315Z</time></trkpt><trkpt lat="43.4320686" lon="10.9444289"><ele>506.2</ele><time>2026-04-18T07:45:46.315Z</time></trkpt><trkpt lat="43.4321535" lon="10.9444945"><ele>505.6</ele><time>2026-04-18T07:45:47.321Z</time></trkpt><trkpt lat="43.4322511" lon="10.9445244"><ele>505.0</ele><time>2026-04-18T07:45:48.32Z</time></trkpt><trkpt lat="43.432366" lon="10.9445301"><ele>506.5</ele><time>2026-04-18T07:45:49.325Z</time></trkpt><trkpt lat="43.432489" lon="10.9445089"><ele>508.0</ele><time>2026-04-18T07:45:50.319Z</time></trkpt><trkpt lat="43.4326295" lon="10.9444809"><ele>509.5</ele><time>2026-04-18T07:45:51.429Z</time></trkpt><trkpt lat="43.4327831" lon="10.9444504"><ele>511.0</ele><time>2026-04-18T07:45:52.409Z</time></trkpt><trkpt lat="43.4329467" lon="10.9444169"><ele>512.5</ele><time>2026-04-18T07:45:53.409Z</time></trkpt><trkpt lat="43.4331101" lon="10.9443842"><ele>514.0</ele><time>2026-04-18T07:45:54.436Z</time></trkpt><trkpt lat="43.4332486" lon="10.9443603"><ele>515.5</ele><time>2026-04-18T07:45:55.437Z</time></trkpt><trkpt lat="43.4333838" lon="10.9443457"><ele>517.0</ele><time>2026-04-18T07:45:56.417Z</time></trkpt><trkpt lat="43.4334948" lon="10.9443688"><ele>517.0</ele><time>2026-04-18T07:45:57.411Z</time></trkpt><trkpt lat="43.4335905" lon="10.9444298"><ele>517.0</ele><time>2026-04-18T07:45:58.417Z</time></trkpt><trkpt lat="43.4336915" lon="10.9445028"><ele>517.0</ele><time>2026-04-18T07:45:59.343Z</time></trkpt><trkpt lat="43.4338002" lon="10.9445864"><ele>517.0</ele><time>2026-04-18T07:46:00.438Z</time></trkpt><trkpt lat="43.4339106" lon="10.9446812"><ele>519.75</ele><time>2026-04-18T07:46:01.407Z</time></trkpt><trkpt lat="43.4340336" lon="10.9447685"><ele>522.5</ele><time>2026-04-18T07:46:02.417Z</time></trkpt><trkpt lat="43.4341587" lon="10.9448347"><ele>525.25</ele><time>2026-04-18T07:46:03.414Z</time></trkpt><trkpt lat="43.434289" lon="10.9448848"><ele>528.0</ele><time>2026-04-18T07:46:04.439Z</time></trkpt><trkpt lat="43.4344283" lon="10.9449212"><ele>528.0</ele><time>2026-04-18T07:46:05.436Z</time></trkpt><trkpt lat="43.4345615" lon="10.9449516"><ele>528.0</ele><time>2026-04-18T07:46:06.428Z</time></trkpt><trkpt lat="43.4346791" lon="10.9449936"><ele>528.0</ele><time>2026-04-18T07:46:07.423Z</time></trkpt><trkpt lat="43.4347552" lon="10.9450406"><ele>528.0</ele><time>2026-04-18T07:46:08.417Z</time></trkpt><trkpt lat="43.4348263" lon="10.9450865"><ele>528.0</ele><time>2026-04-18T07:46:09.42Z</time></trkpt><trkpt lat="43.4348869" lon="10.94535"><ele>531.0</ele><time>2026-04-18T07:46:12.319Z</time></trkpt><trkpt lat="43.4349109" lon="10.9454598"><ele>534.0</ele><time>2026-04-18T07:46:13.314Z</time></trkpt><trkpt lat="43.4349518" lon="10.9455499"><ele>537.0</ele><time>2026-04-18T07:46:14.309Z</time></trkpt><trkpt lat="43.4350145" lon="10.945637"><ele>540.0</ele><time>2026-04-18T07:46:15.313Z</time></trkpt><trkpt lat="43.4350962" lon="10.9457331"><ele>543.0</ele><time>2026-04-18T07:46:16.313Z</time></trkpt><trkpt lat="43.4351754" lon="10.9458115"><ele>545.0</ele><time>2026-04-18T07:46:17.313Z</time></trkpt><trkpt lat="43.4352525" lon="10.9459008"><ele>547.0</ele><time>2026-04-18T07:46:18.314Z</time></trkpt><trkpt lat="43.4353673" lon="10.9460073"><ele>549.0</ele><time>2026-04-18T07:46:19.318Z</time></trkpt><trkpt lat="43.4354549" lon="10.9461121"><ele>551.0</ele><time>2026-04-18T07:46:20.319Z</time></trkpt><trkpt lat="43.4355483" lon="10.9462222"><ele>551.0</ele><time>2026-04-18T07:46:21.318Z</time></trkpt><trkpt lat="43.4356366" lon="10.9463194"><ele>551.0</ele><time>2026-04-18T07:46:22.315Z</time></trkpt><trkpt lat="43.4357569" lon="10.9464079"><ele>551.0</ele><time>2026-04-18T07:46:23.317Z</time></trkpt><trkpt lat="43.4358582" lon="10.9465117"><ele>551.0</ele><time>2026-04-18T07:46:24.411Z</time></trkpt><trkpt lat="43.4359634" lon="10.9466298"><ele>556.3333333333333</ele><time>2026-04-18T07:46:25.431Z</time></trkpt><trkpt lat="43.4361651" lon="10.9469176"><ele>561.6666666666666</ele><time>2026-04-18T07:46:27.43Z</time></trkpt><trkpt lat="43.4362462" lon="10.947055"><ele>567.0</ele><time>2026-04-18T07:46:28.411Z</time></trkpt><trkpt lat="43.4362359" lon="10.9471727"><ele>567.0</ele><time>2026-04-18T07:46:29.312Z</time></trkpt><trkpt lat="43.4362768" lon="10.9472828"><ele>567.0</ele><time>2026-04-18T07:46:30.32Z</time></trkpt><trkpt lat="43.4362976" lon="10.9473885"><ele>567.0</ele><time>2026-04-18T07:46:31.415Z</time></trkpt><trkpt lat="43.4362992" lon="10.9474831"><ele>567.0</ele><time>2026-04-18T07:46:32.427Z</time></trkpt><trkpt lat="43.4362626" lon="10.9476182"><ele>567.0</ele><time>2026-04-18T07:46:33.428Z</time></trkpt><trkpt lat="43.4361746" lon="10.9478073"><ele>566.8000000000001</ele><time>2026-04-18T07:46:35.314Z</time></trkpt><trkpt lat="43.4361416" lon="10.9479049"><ele>566.6</ele><time>2026-04-18T07:46:36.31Z</time></trkpt><trkpt lat="43.4361412" lon="10.9480995"><ele>566.4000000000001</ele><time>2026-04-18T07:46:37.346Z</time></trkpt><trkpt lat="43.436139" lon="10.9482562"><ele>566.2</ele><time>2026-04-18T07:46:38.422Z</time></trkpt><trkpt lat="43.436153" lon="10.9484083"><ele>566.0</ele><time>2026-04-18T07:46:39.321Z</time></trkpt><trkpt lat="43.4362051" lon="10.9485524"><ele>564.75</ele><time>2026-04-18T07:46:40.419Z</time></trkpt><trkpt lat="43.43626" lon="10.948706"><ele>563.5</ele><time>2026-04-18T07:46:41.319Z</time></trkpt><trkpt lat="43.436319" lon="10.9488651"><ele>562.25</ele><time>2026-04-18T07:46:42.317Z</time></trkpt><trkpt lat="43.4363828" lon="10.9490262"><ele>561.0</ele><time>2026-04-18T07:46:43.439Z</time></trkpt><trkpt lat="43.4365761" lon="10.9493173"><ele>560.75</ele><time>2026-04-18T07:46:45.321Z</time></trkpt><trkpt lat="43.4366661" lon="10.9494365"><ele>560.5</ele><time>2026-04-18T07:46:46.416Z</time></trkpt><trkpt lat="43.4367697" lon="10.9495377"><ele>560.25</ele><time>2026-04-18T07:46:47.409Z</time></trkpt><trkpt lat="43.4368838" lon="10.9496049"><ele>560.0</ele><time>2026-04-18T07:46:48.438Z</time></trkpt><trkpt lat="43.43701" lon="10.9496523"><ele>560.0</ele><time>2026-04-18T07:46:49.426Z</time></trkpt><trkpt lat="43.4371337" lon="10.9496919"><ele>560.0</ele><time>2026-04-18T07:46:50.417Z</time></trkpt><trkpt lat="43.4372533" lon="10.9497216"><ele>560.0</ele><time>2026-04-18T07:46:51.419Z</time></trkpt><trkpt lat="43.4373886" lon="10.9497627"><ele>560.0</ele><time>2026-04-18T07:46:52.423Z</time></trkpt><trkpt lat="43.4375275" lon="10.9498024"><ele>560.3333333333333</ele><time>2026-04-18T07:46:53.437Z</time></trkpt><trkpt lat="43.4376585" lon="10.9498606"><ele>560.6666666666666</ele><time>2026-04-18T07:46:54.43Z</time></trkpt><trkpt lat="43.437895" lon="10.9500489"><ele>561.0</ele><time>2026-04-18T07:46:56.439Z</time></trkpt><trkpt lat="43.4380171" lon="10.9501811"><ele>562.3333333333334</ele><time>2026-04-18T07:46:57.405Z</time></trkpt><trkpt lat="43.4381455" lon="10.9503148"><ele>563.6666666666667</ele><time>2026-04-18T07:46:58.41Z</time></trkpt><trkpt lat="43.438282" lon="10.9504496"><ele>565.0</ele><time>2026-04-18T07:46:59.416Z</time></trkpt><trkpt lat="43.4384192" lon="10.9505936"><ele>565.0</ele><time>2026-04-18T07:47:00.32Z</time></trkpt><trkpt lat="43.4385528" lon="10.950739"><ele>565.0</ele><time>2026-04-18T07:47:01.361Z</time></trkpt><trkpt lat="43.4386941" lon="10.950885"><ele>565.0</ele><time>2026-04-18T07:47:02.413Z</time></trkpt><trkpt lat="43.4388327" lon="10.951032"><ele>568.0</ele><time>2026-04-18T07:47:03.401Z</time></trkpt><trkpt lat="43.4389741" lon="10.9511839"><ele>571.0</ele><time>2026-04-18T07:47:04.419Z</time></trkpt><trkpt lat="43.4392626" lon="10.9514829"><ele>571.0</ele><time>2026-04-18T07:47:06.32Z</time></trkpt><trkpt lat="43.4393986" lon="10.9516325"><ele>571.0</ele><time>2026-04-18T07:47:07.323Z</time></trkpt><trkpt lat="43.4395338" lon="10.9517726"><ele>571.0</ele><time>2026-04-18T07:47:08.322Z</time></trkpt><trkpt lat="43.4396762" lon="10.9519289"><ele>574.3333333333334</ele><time>2026-04-18T07:47:09.324Z</time></trkpt><trkpt lat="43.4398243" lon="10.952078"><ele>577.6666666666666</ele><time>2026-04-18T07:47:10.319Z</time></trkpt><trkpt lat="43.4399607" lon="10.9522262"><ele>581.0</ele><time>2026-04-18T07:47:11.444Z</time></trkpt><trkpt lat="43.4402063" lon="10.9524968"><ele>580.75</ele><time>2026-04-18T07:47:13.318Z</time></trkpt><trkpt lat="43.4403112" lon="10.9526225"><ele>580.5</ele><time>2026-04-18T07:47:14.314Z</time></trkpt><trkpt lat="43.440426" lon="10.9527397"><ele>580.25</ele><time>2026-04-18T07:47:15.321Z</time></trkpt><trkpt lat="43.4405256" lon="10.9528383"><ele>580.0</ele><time>2026-04-18T07:47:16.317Z</time></trkpt><trkpt lat="43.4406245" lon="10.9529244"><ele>582.0</ele><time>2026-04-18T07:47:17.319Z</time></trkpt><trkpt lat="43.4407189" lon="10.9529973"><ele>584.0</ele><time>2026-04-18T07:47:18.317Z</time></trkpt><trkpt lat="43.4407965" lon="10.9530571"><ele>586.0</ele><time>2026-04-18T07:47:19.32Z</time></trkpt><trkpt lat="43.4408684" lon="10.9530934"><ele>588.0</ele><time>2026-04-18T07:47:20.319Z</time></trkpt><trkpt lat="43.4409354" lon="10.9531119"><ele>590.0</ele><time>2026-04-18T07:47:21.317Z</time></trkpt><trkpt lat="43.4410096" lon="10.9531084"><ele>592.0</ele><time>2026-04-18T07:47:22.318Z</time></trkpt><trkpt lat="43.4410777" lon="10.9530755"><ele>592.0</ele><time>2026-04-18T07:47:23.314Z</time></trkpt><trkpt lat="43.4411393" lon="10.9530105"><ele>592.0</ele><time>2026-04-18T07:47:24.319Z</time></trkpt><trkpt lat="43.4411845" lon="10.9529158"><ele>592.0</ele><time>2026-04-18T07:47:25.315Z</time></trkpt><trkpt lat="43.4412111" lon="10.9528004"><ele>592.0</ele><time>2026-04-18T07:47:26.319Z</time></trkpt><trkpt lat="43.441227" lon="10.952673"><ele>592.0</ele><time>2026-04-18T07:47:27.318Z</time></trkpt><trkpt lat="43.4412513" lon="10.9525673"><ele>592.0</ele><time>2026-04-18T07:47:28.32Z</time></trkpt><trkpt lat="43.4412939" lon="10.9524898"><ele>593.5</ele><time>2026-04-18T07:47:29.318Z</time></trkpt><trkpt lat="43.4413518" lon="10.9524347"><ele>595.0</ele><time>2026-04-18T07:47:30.315Z</time></trkpt><trkpt lat="43.4414216" lon="10.9524121"><ele>596.5</ele><time>2026-04-18T07:47:31.317Z</time></trkpt><trkpt lat="43.4414964" lon="10.9524065"><ele>598.0</ele><time>2026-04-18T07:47:32.324Z</time></trkpt><trkpt lat="43.4415739" lon="10.9524192"><ele>599.5</ele><time>2026-04-18T07:47:33.316Z</time></trkpt><trkpt lat="43.4416396" lon="10.9524518"><ele>601.0</ele><time>2026-04-18T07:47:34.315Z</time></trkpt><trkpt lat="43.4416983" lon="10.9525521"><ele>601.75</ele><time>2026-04-18T07:47:36.313Z</time></trkpt><trkpt lat="43.4416938" lon="10.9527211"><ele>602.5</ele><time>2026-04-18T07:47:38.325Z</time></trkpt><trkpt lat="43.4416784" lon="10.9528613"><ele>603.25</ele><time>2026-04-18T07:47:39.314Z</time></trkpt><trkpt lat="43.4416726" lon="10.9530455"><ele>604.0</ele><time>2026-04-18T07:47:40.319Z</time></trkpt><trkpt lat="43.4416812" lon="10.9532578"><ele>604.0</ele><time>2026-04-18T07:47:41.32Z</time></trkpt><trkpt lat="43.4416981" lon="10.9534992"><ele>604.0</ele><time>2026-04-18T07:47:42.317Z</time></trkpt><trkpt lat="43.4417167" lon="10.9537501"><ele>604.0</ele><time>2026-04-18T07:47:43.325Z</time></trkpt><trkpt lat="43.4417299" lon="10.9540207"><ele>603.6666666666667</ele><time>2026-04-18T07:47:44.318Z</time></trkpt><trkpt lat="43.4417237" lon="10.9542963"><ele>603.3333333333334</ele><time>2026-04-18T07:47:45.304Z</time></trkpt><trkpt lat="43.4416933" lon="10.9545621"><ele>603.0</ele><time>2026-04-18T07:47:46.322Z</time></trkpt><trkpt lat="43.4416508" lon="10.9547994"><ele>603.0</ele><time>2026-04-18T07:47:47.314Z</time></trkpt><trkpt lat="43.441611" lon="10.9550241"><ele>603.0</ele><time>2026-04-18T07:47:48.316Z</time></trkpt><trkpt lat="43.4415699" lon="10.9552409"><ele>603.0</ele><time>2026-04-18T07:47:49.316Z</time></trkpt><trkpt lat="43.4415226" lon="10.9554508"><ele>602.3333333333334</ele><time>2026-04-18T07:47:50.316Z</time></trkpt><trkpt lat="43.4414637" lon="10.9556637"><ele>601.6666666666667</ele><time>2026-04-18T07:47:51.317Z</time></trkpt><trkpt lat="43.4413821" lon="10.9558909"><ele>601.0</ele><time>2026-04-18T07:47:52.319Z</time></trkpt><trkpt lat="43.44128" lon="10.9561213"><ele>601.3333333333334</ele><time>2026-04-18T07:47:53.316Z</time></trkpt><trkpt lat="43.4411579" lon="10.9563526"><ele>601.6666666666666</ele><time>2026-04-18T07:47:54.32Z</time></trkpt><trkpt lat="43.4410182" lon="10.9565738"><ele>602.0</ele><time>2026-04-18T07:47:55.318Z</time></trkpt><trkpt lat="43.4408791" lon="10.9567871"><ele>602.0</ele><time>2026-04-18T07:47:56.32Z</time></trkpt><trkpt lat="43.4407388" lon="10.9570007"><ele>602.0</ele><time>2026-04-18T07:47:57.431Z</time></trkpt><trkpt lat="43.4406031" lon="10.957214"><ele>602.0</ele><time>2026-04-18T07:47:58.432Z</time></trkpt><trkpt lat="43.4404649" lon="10.9574288"><ele>600.6666666666666</ele><time>2026-04-18T07:47:59.437Z</time></trkpt><trkpt lat="43.4403272" lon="10.9576495"><ele>599.3333333333334</ele><time>2026-04-18T07:48:00.429Z</time></trkpt><trkpt lat="43.4401961" lon="10.9578633"><ele>598.0</ele><time>2026-04-18T07:48:01.424Z</time></trkpt><trkpt lat="43.4400693" lon="10.9580797"><ele>598.0</ele><time>2026-04-18T07:48:02.411Z</time></trkpt><trkpt lat="43.4399413" lon="10.9583024"><ele>598.0</ele><time>2026-04-18T07:48:03.435Z</time></trkpt><trkpt lat="43.4398094" lon="10.958523"><ele>598.0</ele><time>2026-04-18T07:48:04.422Z</time></trkpt><trkpt lat="43.4396775" lon="10.9587401"><ele>595.6666666666667</ele><time>2026-04-18T07:48:05.43Z</time></trkpt><trkpt lat="43.4395508" lon="10.958963"><ele>593.3333333333334</ele><time>2026-04-18T07:48:06.425Z</time></trkpt><trkpt lat="43.4394213" lon="10.959185"><ele>591.0</ele><time>2026-04-18T07:48:07.428Z</time></trkpt><trkpt lat="43.4392982" lon="10.9593905"><ele>590.5</ele><time>2026-04-18T07:48:08.433Z</time></trkpt><trkpt lat="43.439034" lon="10.9597611"><ele>590.0</ele><time>2026-04-18T07:48:10.317Z</time></trkpt><trkpt lat="43.4388792" lon="10.9599311"><ele>590.3333333333333</ele><time>2026-04-18T07:48:11.314Z</time></trkpt><trkpt lat="43.4387068" lon="10.9600798"><ele>590.6666666666666</ele><time>2026-04-18T07:48:12.322Z</time></trkpt><trkpt lat="43.4385214" lon="10.9602344"><ele>591.0</ele><time>2026-04-18T07:48:13.319Z</time></trkpt><trkpt lat="43.4383427" lon="10.960385"><ele>591.0</ele><time>2026-04-18T07:48:14.319Z</time></trkpt><trkpt lat="43.4379941" lon="10.960667"><ele>591.0</ele><time>2026-04-18T07:48:16.433Z</time></trkpt><trkpt lat="43.4378259" lon="10.9607858"><ele>591.6666666666666</ele><time>2026-04-18T07:48:17.41Z</time></trkpt><trkpt lat="43.437668" lon="10.9608877"><ele>592.3333333333333</ele><time>2026-04-18T07:48:18.439Z</time></trkpt><trkpt lat="43.4375119" lon="10.9609762"><ele>593.0</ele><time>2026-04-18T07:48:19.428Z</time></trkpt><trkpt lat="43.4373608" lon="10.9610709"><ele>593.0</ele><time>2026-04-18T07:48:20.443Z</time></trkpt><trkpt lat="43.4372199" lon="10.9611891"><ele>593.0</ele><time>2026-04-18T07:48:21.406Z</time></trkpt><trkpt lat="43.4371038" lon="10.9613307"><ele>593.0</ele><time>2026-04-18T07:48:22.413Z</time></trkpt><trkpt lat="43.4370106" lon="10.9614908"><ele>590.6666666666666</ele><time>2026-04-18T07:48:23.42Z</time></trkpt><trkpt lat="43.4369357" lon="10.9616697"><ele>588.3333333333334</ele><time>2026-04-18T07:48:24.4Z</time></trkpt><trkpt lat="43.4368818" lon="10.9618649"><ele>586.0</ele><time>2026-04-18T07:48:25.423Z</time></trkpt><trkpt lat="43.4368014" lon="10.9622998"><ele>586.0</ele><time>2026-04-18T07:48:27.318Z</time></trkpt><trkpt lat="43.4367523" lon="10.9624985"><ele>586.0</ele><time>2026-04-18T07:48:28.419Z</time></trkpt><trkpt lat="43.4366815" lon="10.9626826"><ele>586.0</ele><time>2026-04-18T07:48:29.82Z</time></trkpt><trkpt lat="43.4364596" lon="10.9629671"><ele>586.3333333333334</ele><time>2026-04-18T07:48:31.422Z</time></trkpt><trkpt lat="43.4363361" lon="10.9630794"><ele>586.6666666666666</ele><time>2026-04-18T07:48:32.43Z</time></trkpt><trkpt lat="43.4362149" lon="10.9632028"><ele>587.0</ele><time>2026-04-18T07:48:33.415Z</time></trkpt><trkpt lat="43.4360947" lon="10.963345"><ele>586.6666666666666</ele><time>2026-04-18T07:48:34.439Z</time></trkpt><trkpt lat="43.4359883" lon="10.9634965"><ele>586.3333333333334</ele><time>2026-04-18T07:48:35.424Z</time></trkpt><trkpt lat="43.4358885" lon="10.9636592"><ele>586.0</ele><time>2026-04-18T07:48:36.435Z</time></trkpt><trkpt lat="43.4357967" lon="10.9638361"><ele>586.0</ele><time>2026-04-18T07:48:37.407Z</time></trkpt><trkpt lat="43.4357304" lon="10.9640424"><ele>586.0</ele><time>2026-04-18T07:48:38.412Z</time></trkpt><trkpt lat="43.4356702" lon="10.9642422"><ele>586.0</ele><time>2026-04-18T07:48:39.431Z</time></trkpt><trkpt lat="43.4355906" lon="10.9644371"><ele>584.6666666666667</ele><time>2026-04-18T07:48:40.428Z</time></trkpt><trkpt lat="43.4354949" lon="10.9646307"><ele>583.3333333333334</ele><time>2026-04-18T07:48:41.425Z</time></trkpt><trkpt lat="43.4353903" lon="10.9648198"><ele>582.0</ele><time>2026-04-18T07:48:42.425Z</time></trkpt><trkpt lat="43.4352883" lon="10.9650071"><ele>580.0</ele><time>2026-04-18T07:48:43.405Z</time></trkpt><trkpt lat="43.435196" lon="10.9651877"><ele>578.0</ele><time>2026-04-18T07:48:44.41Z</time></trkpt><trkpt lat="43.4351181" lon="10.9653766"><ele>576.0</ele><time>2026-04-18T07:48:45.31Z</time></trkpt><trkpt lat="43.4350432" lon="10.9655486"><ele>576.0</ele><time>2026-04-18T07:48:46.319Z</time></trkpt><trkpt lat="43.4349574" lon="10.9657254"><ele>576.0</ele><time>2026-04-18T07:48:47.406Z</time></trkpt><trkpt lat="43.4348519" lon="10.9658697"><ele>576.0</ele><time>2026-04-18T07:48:48.316Z</time></trkpt><trkpt lat="43.4347432" lon="10.9660302"><ele>573.3333333333334</ele><time>2026-04-18T07:48:49.414Z</time></trkpt><trkpt lat="43.4346243" lon="10.9661728"><ele>570.6666666666667</ele><time>2026-04-18T07:48:50.326Z</time></trkpt><trkpt lat="43.4345199" lon="10.9663337"><ele>568.0</ele><time>2026-04-18T07:48:51.409Z</time></trkpt><trkpt lat="43.434417" lon="10.9665082"><ele>568.0</ele><time>2026-04-18T07:48:52.413Z</time></trkpt><trkpt lat="43.4343136" lon="10.9666885"><ele>568.0</ele><time>2026-04-18T07:48:53.413Z</time></trkpt><trkpt lat="43.4342024" lon="10.9668535"><ele>568.0</ele><time>2026-04-18T07:48:54.408Z</time></trkpt><trkpt lat="43.4340775" lon="10.9670049"><ele>566.3333333333334</ele><time>2026-04-18T07:48:55.408Z</time></trkpt><trkpt lat="43.4339408" lon="10.9671405"><ele>564.6666666666666</ele><time>2026-04-18T07:48:56.403Z</time></trkpt><trkpt lat="43.4337976" lon="10.9672559"><ele>563.0</ele><time>2026-04-18T07:48:57.431Z</time></trkpt><trkpt lat="43.4335153" lon="10.96744"><ele>561.75</ele><time>2026-04-18T07:48:59.418Z</time></trkpt><trkpt lat="43.433383" lon="10.9675293"><ele>560.5</ele><time>2026-04-18T07:49:00.318Z</time></trkpt><trkpt lat="43.4332628" lon="10.96761"><ele>559.25</ele><time>2026-04-18T07:49:01.316Z</time></trkpt><trkpt lat="43.433145" lon="10.9676915"><ele>558.0</ele><time>2026-04-18T07:49:02.318Z</time></trkpt><trkpt lat="43.4330315" lon="10.9677658"><ele>558.5</ele><time>2026-04-18T07:49:03.422Z</time></trkpt><trkpt lat="43.4329183" lon="10.9678234"><ele>559.0</ele><time>2026-04-18T07:49:04.41Z</time></trkpt><trkpt lat="43.4327979" lon="10.9678683"><ele>559.5</ele><time>2026-04-18T07:49:05.403Z</time></trkpt><trkpt lat="43.4326833" lon="10.9679111"><ele>560.0</ele><time>2026-04-18T07:49:06.318Z</time></trkpt><trkpt lat="43.4325728" lon="10.9679833"><ele>560.0</ele><time>2026-04-18T07:49:07.325Z</time></trkpt><trkpt lat="43.4324689" lon="10.9680597"><ele>560.0</ele><time>2026-04-18T07:49:08.321Z</time></trkpt><trkpt lat="43.4323808" lon="10.9681828"><ele>560.0</ele><time>2026-04-18T07:49:09.381Z</time></trkpt><trkpt lat="43.4323003" lon="10.9683423"><ele>560.0</ele><time>2026-04-18T07:49:10.425Z</time></trkpt><trkpt lat="43.4321928" lon="10.9684555"><ele>557.5</ele><time>2026-04-18T07:49:11.407Z</time></trkpt><trkpt lat="43.4320742" lon="10.968514"><ele>555.0</ele><time>2026-04-18T07:49:12.421Z</time></trkpt><trkpt lat="43.4319545" lon="10.9685872"><ele>552.5</ele><time>2026-04-18T07:49:13.42Z</time></trkpt><trkpt lat="43.4317847" lon="10.9685549"><ele>550.0</ele><time>2026-04-18T07:49:14.322Z</time></trkpt><trkpt lat="43.4316551" lon="10.9685146"><ele>550.0</ele><time>2026-04-18T07:49:15.306Z</time></trkpt><trkpt lat="43.431503" lon="10.9684279"><ele>550.0</ele><time>2026-04-18T07:49:16.419Z</time></trkpt><trkpt lat="43.4313505" lon="10.9683676"><ele>550.0</ele><time>2026-04-18T07:49:17.318Z</time></trkpt><trkpt lat="43.4312134" lon="10.9682735"><ele>549.3333333333334</ele><time>2026-04-18T07:49:18.404Z</time></trkpt><trkpt lat="43.4310783" lon="10.9682085"><ele>548.6666666666666</ele><time>2026-04-18T07:49:19.411Z</time></trkpt><trkpt lat="43.4308208" lon="10.9681283"><ele>548.0</ele><time>2026-04-18T07:49:21.378Z</time></trkpt><trkpt lat="43.4306973" lon="10.9681109"><ele>548.0</ele><time>2026-04-18T07:49:22.32Z</time></trkpt><trkpt lat="43.4305767" lon="10.9681136"><ele>548.0</ele><time>2026-04-18T07:49:23.321Z</time></trkpt><trkpt lat="43.4304677" lon="10.9681682"><ele>548.0</ele><time>2026-04-18T07:49:24.319Z</time></trkpt><trkpt lat="43.430344" lon="10.9682544"><ele>548.0</ele><time>2026-04-18T07:49:25.317Z</time></trkpt><trkpt lat="43.4302286" lon="10.9683751"><ele>544.6666666666666</ele><time>2026-04-18T07:49:26.319Z</time></trkpt><trkpt lat="43.4301107" lon="10.9684899"><ele>541.3333333333334</ele><time>2026-04-18T07:49:27.316Z</time></trkpt><trkpt lat="43.429992" lon="10.9686218"><ele>538.0</ele><time>2026-04-18T07:49:28.323Z</time></trkpt><trkpt lat="43.4298666" lon="10.9687657"><ele>538.0</ele><time>2026-04-18T07:49:29.316Z</time></trkpt><trkpt lat="43.4297447" lon="10.9689222"><ele>538.0</ele><time>2026-04-18T07:49:30.322Z</time></trkpt><trkpt lat="43.4296322" lon="10.9690968"><ele>538.0</ele><time>2026-04-18T07:49:31.401Z</time></trkpt><trkpt lat="43.4295271" lon="10.9692934"><ele>535.6666666666667</ele><time>2026-04-18T07:49:32.315Z</time></trkpt><trkpt lat="43.4294337" lon="10.9695008"><ele>533.3333333333334</ele><time>2026-04-18T07:49:33.314Z</time></trkpt><trkpt lat="43.4293444" lon="10.9696975"><ele>531.0</ele><time>2026-04-18T07:49:34.311Z</time></trkpt><trkpt lat="43.4292563" lon="10.9698708"><ele>531.3333333333334</ele><time>2026-04-18T07:49:35.318Z</time></trkpt><trkpt lat="43.4291581" lon="10.9700292"><ele>531.6666666666667</ele><time>2026-04-18T07:49:36.319Z</time></trkpt><trkpt lat="43.4290382" lon="10.9701499"><ele>532.0</ele><time>2026-04-18T07:49:37.319Z</time></trkpt><trkpt lat="43.4288904" lon="10.9702367"><ele>530.3333333333334</ele><time>2026-04-18T07:49:38.32Z</time></trkpt><trkpt lat="43.4287319" lon="10.9702895"><ele>528.6666666666666</ele><time>2026-04-18T07:49:39.312Z</time></trkpt><trkpt lat="43.4285794" lon="10.9703166"><ele>527.0</ele><time>2026-04-18T07:49:40.317Z</time></trkpt><trkpt lat="43.4284458" lon="10.970343"><ele>527.0</ele><time>2026-04-18T07:49:41.321Z</time></trkpt><trkpt lat="43.4283326" lon="10.970371"><ele>527.0</ele><time>2026-04-18T07:49:42.319Z</time></trkpt><trkpt lat="43.4282362" lon="10.970407"><ele>527.0</ele><time>2026-04-18T07:49:43.316Z</time></trkpt><trkpt lat="43.4281554" lon="10.9704647"><ele>527.0</ele><time>2026-04-18T07:49:44.419Z</time></trkpt><trkpt lat="43.4280638" lon="10.9706738"><ele>527.0</ele><time>2026-04-18T07:49:46.319Z</time></trkpt><trkpt lat="43.4280561" lon="10.970819"><ele>527.0</ele><time>2026-04-18T07:49:47.319Z</time></trkpt><trkpt lat="43.4280628" lon="10.9709735"><ele>527.0</ele><time>2026-04-18T07:49:48.319Z</time></trkpt><trkpt lat="43.4280733" lon="10.9711361"><ele>527.0</ele><time>2026-04-18T07:49:49.318Z</time></trkpt><trkpt lat="43.4280784" lon="10.9713144"><ele>526.25</ele><time>2026-04-18T07:49:50.315Z</time></trkpt><trkpt lat="43.4280724" lon="10.9715031"><ele>525.5</ele><time>2026-04-18T07:49:51.315Z</time></trkpt><trkpt lat="43.4280356" lon="10.9716916"><ele>524.75</ele><time>2026-04-18T07:49:52.318Z</time></trkpt><trkpt lat="43.4279647" lon="10.9718716"><ele>524.0</ele><time>2026-04-18T07:49:53.321Z</time></trkpt><trkpt lat="43.4278741" lon="10.9720477"><ele>520.3333333333333</ele><time>2026-04-18T07:49:54.317Z</time></trkpt><trkpt lat="43.4277714" lon="10.9722255"><ele>516.6666666666666</ele><time>2026-04-18T07:49:55.321Z</time></trkpt><trkpt lat="43.4276619" lon="10.9724121"><ele>513.0</ele><time>2026-04-18T07:49:56.314Z</time></trkpt><trkpt lat="43.42754" lon="10.9726044"><ele>512.6666666666666</ele><time>2026-04-18T07:49:57.322Z</time></trkpt><trkpt lat="43.4274108" lon="10.9727962"><ele>512.3333333333333</ele><time>2026-04-18T07:49:58.317Z</time></trkpt><trkpt lat="43.4272716" lon="10.9729807"><ele>512.0</ele><time>2026-04-18T07:49:59.322Z</time></trkpt><trkpt lat="43.4271316" lon="10.9731623"><ele>511.66666666666663</ele><time>2026-04-18T07:50:00.319Z</time></trkpt><trkpt lat="43.4269951" lon="10.9733291"><ele>511.33333333333337</ele><time>2026-04-18T07:50:01.321Z</time></trkpt><trkpt lat="43.4268613" lon="10.9734709"><ele>511.0</ele><time>2026-04-18T07:50:02.324Z</time></trkpt><trkpt lat="43.4267211" lon="10.9735818"><ele>510.6666666666667</ele><time>2026-04-18T07:50:03.324Z</time></trkpt><trkpt lat="43.4265709" lon="10.9736667"><ele>510.33333333333337</ele><time>2026-04-18T07:50:04.317Z</time></trkpt><trkpt lat="43.4264116" lon="10.9737238"><ele>510.0</ele><time>2026-04-18T07:50:05.32Z</time></trkpt><trkpt lat="43.42626" lon="10.9737501"><ele>509.5</ele><time>2026-04-18T07:50:06.317Z</time></trkpt><trkpt lat="43.4261219" lon="10.9737494"><ele>509.0</ele><time>2026-04-18T07:50:07.317Z</time></trkpt><trkpt lat="43.426" lon="10.9737091"><ele>508.5</ele><time>2026-04-18T07:50:08.318Z</time></trkpt><trkpt lat="43.4258911" lon="10.9736089"><ele>508.0</ele><time>2026-04-18T07:50:09.322Z</time></trkpt><trkpt lat="43.4257935" lon="10.9734917"><ele>508.0</ele><time>2026-04-18T07:50:10.43Z</time></trkpt><trkpt lat="43.4256982" lon="10.9733903"><ele>508.0</ele><time>2026-04-18T07:50:11.417Z</time></trkpt><trkpt lat="43.4255853" lon="10.9733255"><ele>508.0</ele><time>2026-04-18T07:50:12.419Z</time></trkpt><trkpt lat="43.4254782" lon="10.9732855"><ele>508.0</ele><time>2026-04-18T07:50:13.431Z</time></trkpt><trkpt lat="43.425379" lon="10.9732689"><ele>506.0</ele><time>2026-04-18T07:50:14.419Z</time></trkpt><trkpt lat="43.4252837" lon="10.9732864"><ele>503.99999999999994</ele><time>2026-04-18T07:50:15.41Z</time></trkpt><trkpt lat="43.425194" lon="10.9733428"><ele>501.99999999999994</ele><time>2026-04-18T07:50:16.412Z</time></trkpt><trkpt lat="43.4251206" lon="10.9734351"><ele>500.0</ele><time>2026-04-18T07:50:17.423Z</time></trkpt><trkpt lat="43.4250655" lon="10.9735605"><ele>498.0</ele><time>2026-04-18T07:50:18.437Z</time></trkpt><trkpt lat="43.4250421" lon="10.9737201"><ele>498.0</ele><time>2026-04-18T07:50:19.416Z</time></trkpt><trkpt lat="43.4250311" lon="10.973897"><ele>498.0</ele><time>2026-04-18T07:50:20.316Z</time></trkpt><trkpt lat="43.4250069" lon="10.974088"><ele>498.0</ele><time>2026-04-18T07:50:21.31Z</time></trkpt><trkpt lat="43.4249633" lon="10.9742793"><ele>498.0</ele><time>2026-04-18T07:50:22.348Z</time></trkpt><trkpt lat="43.4249024" lon="10.9744733"><ele>496.66666666666663</ele><time>2026-04-18T07:50:23.43Z</time></trkpt><trkpt lat="43.4248318" lon="10.9746678"><ele>495.3333333333333</ele><time>2026-04-18T07:50:24.43Z</time></trkpt><trkpt lat="43.4247541" lon="10.9748504"><ele>494.0</ele><time>2026-04-18T07:50:25.427Z</time></trkpt><trkpt lat="43.4246716" lon="10.9750137"><ele>493.66666666666663</ele><time>2026-04-18T07:50:26.425Z</time></trkpt><trkpt lat="43.4245647" lon="10.9751586"><ele>493.33333333333337</ele><time>2026-04-18T07:50:27.431Z</time></trkpt><trkpt lat="43.4244219" lon="10.9752647"><ele>493.0</ele><time>2026-04-18T07:50:28.401Z</time></trkpt><trkpt lat="43.4242502" lon="10.9753527"><ele>493.0</ele><time>2026-04-18T07:50:29.405Z</time></trkpt><trkpt lat="43.4240621" lon="10.9754434"><ele>493.0</ele><time>2026-04-18T07:50:30.413Z</time></trkpt><trkpt lat="43.4238828" lon="10.9755352"><ele>493.0</ele><time>2026-04-18T07:50:31.414Z</time></trkpt><trkpt lat="43.4236955" lon="10.9756565"><ele>493.33333333333337</ele><time>2026-04-18T07:50:32.4Z</time></trkpt><trkpt lat="43.4235061" lon="10.9757977"><ele>493.66666666666663</ele><time>2026-04-18T07:50:33.424Z</time></trkpt><trkpt lat="43.4233347" lon="10.9759307"><ele>494.0</ele><time>2026-04-18T07:50:34.414Z</time></trkpt><trkpt lat="43.4231662" lon="10.9760542"><ele>495.0</ele><time>2026-04-18T07:50:35.434Z</time></trkpt><trkpt lat="43.4228233" lon="10.9762308"><ele>496.0</ele><time>2026-04-18T07:50:37.32Z</time></trkpt><trkpt lat="43.4226728" lon="10.9762696"><ele>496.0</ele><time>2026-04-18T07:50:38.323Z</time></trkpt><trkpt lat="43.4225171" lon="10.976263"><ele>496.0</ele><time>2026-04-18T07:50:39.343Z</time></trkpt><trkpt lat="43.4223724" lon="10.9761894"><ele>496.0</ele><time>2026-04-18T07:50:40.318Z</time></trkpt><trkpt lat="43.4222396" lon="10.9760651"><ele>498.75</ele><time>2026-04-18T07:50:41.32Z</time></trkpt><trkpt lat="43.4221299" lon="10.9759306"><ele>501.5</ele><time>2026-04-18T07:50:42.319Z</time></trkpt><trkpt lat="43.4220286" lon="10.975842"><ele>504.25</ele><time>2026-04-18T07:50:43.322Z</time></trkpt><trkpt lat="43.4219233" lon="10.9757872"><ele>507.0</ele><time>2026-04-18T07:50:44.32Z</time></trkpt><trkpt lat="43.421808" lon="10.9757785"><ele>507.0</ele><time>2026-04-18T07:50:45.432Z</time></trkpt><trkpt lat="43.4216826" lon="10.9758087"><ele>507.0</ele><time>2026-04-18T07:50:46.431Z</time></trkpt><trkpt lat="43.4215451" lon="10.9758496"><ele>507.0</ele><time>2026-04-18T07:50:47.434Z</time></trkpt><trkpt lat="43.4213916" lon="10.9758798"><ele>507.0</ele><time>2026-04-18T07:50:48.413Z</time></trkpt><trkpt lat="43.4212255" lon="10.9758903"><ele>508.66666666666663</ele><time>2026-04-18T07:50:49.42Z</time></trkpt><trkpt lat="43.421058" lon="10.9758613"><ele>510.3333333333333</ele><time>2026-04-18T07:50:50.323Z</time></trkpt><trkpt lat="43.4208913" lon="10.9758098"><ele>512.0</ele><time>2026-04-18T07:50:51.321Z</time></trkpt><trkpt lat="43.4207352" lon="10.975763"><ele>512.0</ele><time>2026-04-18T07:50:52.323Z</time></trkpt><trkpt lat="43.4205864" lon="10.975734"><ele>512.0</ele><time>2026-04-18T07:50:53.405Z</time></trkpt><trkpt lat="43.4204366" lon="10.9757245"><ele>512.0</ele><time>2026-04-18T07:50:54.319Z</time></trkpt><trkpt lat="43.420287" lon="10.9757368"><ele>514.5</ele><time>2026-04-18T07:50:55.323Z</time></trkpt><trkpt lat="43.4201381" lon="10.9757583"><ele>517.0</ele><time>2026-04-18T07:50:56.433Z</time></trkpt><trkpt lat="43.4198403" lon="10.9758496"><ele>517.5</ele><time>2026-04-18T07:50:58.417Z</time></trkpt><trkpt lat="43.4196916" lon="10.9759176"><ele>518.0</ele><time>2026-04-18T07:50:59.322Z</time></trkpt><trkpt lat="43.4195608" lon="10.9759841"><ele>518.5</ele><time>2026-04-18T07:51:00.315Z</time></trkpt><trkpt lat="43.4194481" lon="10.9760411"><ele>519.0</ele><time>2026-04-18T07:51:01.417Z</time></trkpt><trkpt lat="43.4193438" lon="10.9760902"><ele>519.0</ele><time>2026-04-18T07:51:02.408Z</time></trkpt><trkpt lat="43.4192449" lon="10.9761384"><ele>519.0</ele><time>2026-04-18T07:51:03.404Z</time></trkpt><trkpt lat="43.4191591" lon="10.9761798"><ele>519.0</ele><time>2026-04-18T07:51:04.441Z</time></trkpt><trkpt lat="43.4190385" lon="10.9762253"><ele>519.0</ele><time>2026-04-18T07:51:06.445Z</time></trkpt><trkpt lat="43.41896" lon="10.9761828"><ele>519.0</ele><time>2026-04-18T07:51:08.418Z</time></trkpt><trkpt lat="43.4188479" lon="10.9760668"><ele>520.0</ele><time>2026-04-18T07:51:10.317Z</time></trkpt><trkpt lat="43.4187748" lon="10.9759801"><ele>521.0</ele><time>2026-04-18T07:51:11.317Z</time></trkpt><trkpt lat="43.4186734" lon="10.9758761"><ele>522.0</ele><time>2026-04-18T07:51:12.309Z</time></trkpt><trkpt lat="43.4185741" lon="10.9758377"><ele>523.0</ele><time>2026-04-18T07:51:13.314Z</time></trkpt><trkpt lat="43.4184816" lon="10.9757755"><ele>524.0</ele><time>2026-04-18T07:51:14.316Z</time></trkpt><trkpt lat="43.4183848" lon="10.9757194"><ele>521.0</ele><time>2026-04-18T07:51:15.321Z</time></trkpt><trkpt lat="43.418321" lon="10.9756571"><ele>518.0</ele><time>2026-04-18T07:51:16.379Z</time></trkpt><trkpt lat="43.4182274" lon="10.9755826"><ele>515.0</ele><time>2026-04-18T07:51:17.421Z</time></trkpt><trkpt lat="43.4181134" lon="10.9755562"><ele>512.0</ele><time>2026-04-18T07:51:18.435Z</time></trkpt><trkpt lat="43.4178858" lon="10.9755032"><ele>512.0</ele><time>2026-04-18T07:51:20.315Z</time></trkpt><trkpt lat="43.4177932" lon="10.9754994"><ele>512.0</ele><time>2026-04-18T07:51:21.32Z</time></trkpt><trkpt lat="43.4177021" lon="10.9754833"><ele>512.0</ele><time>2026-04-18T07:51:22.315Z</time></trkpt><trkpt lat="43.4176068" lon="10.975483"><ele>512.0</ele><time>2026-04-18T07:51:23.32Z</time></trkpt><trkpt lat="43.417513" lon="10.9754782"><ele>512.0</ele><time>2026-04-18T07:51:24.317Z</time></trkpt><trkpt lat="43.4174086" lon="10.9754826"><ele>511.99999999999994</ele><time>2026-04-18T07:51:25.317Z</time></trkpt><trkpt lat="43.4173429" lon="10.9754565"><ele>512.0</ele><time>2026-04-18T07:51:26.316Z</time></trkpt><trkpt lat="43.4172787" lon="10.9754346"><ele>512.0</ele><time>2026-04-18T07:51:28.317Z</time></trkpt><trkpt lat="43.4172808" lon="10.9752873"><ele>512.0</ele><time>2026-04-18T07:51:32.315Z</time></trkpt><trkpt lat="43.4173541" lon="10.9752549"><ele>511.99999999999994</ele><time>2026-04-18T07:51:39.321Z</time></trkpt><trkpt lat="43.4174345" lon="10.9751618"><ele>512.0</ele><time>2026-04-18T07:51:41.432Z</time></trkpt><trkpt lat="43.4175246" lon="10.975106"><ele>509.20000000000005</ele><time>2026-04-18T07:51:42.438Z</time></trkpt><trkpt lat="43.4176296" lon="10.974931"><ele>506.40000000000003</ele><time>2026-04-18T07:51:44.317Z</time></trkpt><trkpt lat="43.4176807" lon="10.9748537"><ele>503.59999999999997</ele><time>2026-04-18T07:51:45.424Z</time></trkpt><trkpt lat="43.4177287" lon="10.9747625"><ele>500.79999999999995</ele><time>2026-04-18T07:51:46.407Z</time></trkpt><trkpt lat="43.4177418" lon="10.9746632"><ele>498.0</ele><time>2026-04-18T07:51:47.409Z</time></trkpt><trkpt lat="43.4177363" lon="10.974467"><ele>498.0</ele><time>2026-04-18T07:51:49.417Z</time></trkpt><trkpt lat="43.4176413" lon="10.9742131"><ele>498.0</ele><time>2026-04-18T07:51:51.315Z</time></trkpt><trkpt lat="43.4175885" lon="10.9740874"><ele>498.0</ele><time>2026-04-18T07:51:52.415Z</time></trkpt><trkpt lat="43.4175307" lon="10.9739726"><ele>498.0</ele><time>2026-04-18T07:51:53.44Z</time></trkpt><trkpt lat="43.4174611" lon="10.9738451"><ele>494.0</ele><time>2026-04-18T07:51:54.427Z</time></trkpt><trkpt lat="43.4173256" lon="10.9735947"><ele>490.0</ele><time>2026-04-18T07:51:56.32Z</time></trkpt><trkpt lat="43.4172593" lon="10.9734639"><ele>486.0</ele><time>2026-04-18T07:51:57.408Z</time></trkpt><trkpt lat="43.417207" lon="10.9733183"><ele>483.5</ele><time>2026-04-18T07:51:58.406Z</time></trkpt><trkpt lat="43.4171321" lon="10.9731625"><ele>481.0</ele><time>2026-04-18T07:51:59.419Z</time></trkpt><trkpt lat="43.4170745" lon="10.9730209"><ele>478.5</ele><time>2026-04-18T07:52:00.437Z</time></trkpt><trkpt lat="43.4170421" lon="10.972857"><ele>476.0</ele><time>2026-04-18T07:52:01.423Z</time></trkpt><trkpt lat="43.4169898" lon="10.9726786"><ele>475.66666666666663</ele><time>2026-04-18T07:52:02.426Z</time></trkpt><trkpt lat="43.4169417" lon="10.9724983"><ele>475.33333333333337</ele><time>2026-04-18T07:52:03.439Z</time></trkpt><trkpt lat="43.4168492" lon="10.9721217"><ele>475.0</ele><time>2026-04-18T07:52:05.314Z</time></trkpt><trkpt lat="43.4167978" lon="10.9719461"><ele>475.0</ele><time>2026-04-18T07:52:06.311Z</time></trkpt><trkpt lat="43.4167424" lon="10.9717751"><ele>475.0</ele><time>2026-04-18T07:52:07.316Z</time></trkpt><trkpt lat="43.4166792" lon="10.9716119"><ele>475.0</ele><time>2026-04-18T07:52:08.319Z</time></trkpt><trkpt lat="43.4166199" lon="10.9714472"><ele>475.0</ele><time>2026-04-18T07:52:09.32Z</time></trkpt><trkpt lat="43.4165559" lon="10.9712761"><ele>475.75</ele><time>2026-04-18T07:52:10.32Z</time></trkpt><trkpt lat="43.4164758" lon="10.97112"><ele>476.5</ele><time>2026-04-18T07:52:11.32Z</time></trkpt><trkpt lat="43.4163779" lon="10.9709904"><ele>477.25</ele><time>2026-04-18T07:52:12.313Z</time></trkpt><trkpt lat="43.4162882" lon="10.9708087"><ele>478.0</ele><time>2026-04-18T07:52:13.318Z</time></trkpt><trkpt lat="43.4162049" lon="10.9706073"><ele>479.33333333333337</ele><time>2026-04-18T07:52:14.318Z</time></trkpt><trkpt lat="43.4161068" lon="10.9704212"><ele>480.66666666666663</ele><time>2026-04-18T07:52:15.308Z</time></trkpt><trkpt lat="43.4159997" lon="10.9702409"><ele>482.0</ele><time>2026-04-18T07:52:16.301Z</time></trkpt><trkpt lat="43.4159107" lon="10.970076"><ele>481.5</ele><time>2026-04-18T07:52:17.312Z</time></trkpt><trkpt lat="43.4158175" lon="10.9699296"><ele>481.0</ele><time>2026-04-18T07:52:18.309Z</time></trkpt><trkpt lat="43.415745" lon="10.9697689"><ele>480.5</ele><time>2026-04-18T07:52:19.309Z</time></trkpt><trkpt lat="43.4156683" lon="10.969615"><ele>480.0</ele><time>2026-04-18T07:52:20.312Z</time></trkpt><trkpt lat="43.4155933" lon="10.9694623"><ele>480.0</ele><time>2026-04-18T07:52:21.317Z</time></trkpt><trkpt lat="43.4155334" lon="10.9693071"><ele>480.0</ele><time>2026-04-18T07:52:22.313Z</time></trkpt><trkpt lat="43.4155006" lon="10.9691504"><ele>480.0</ele><time>2026-04-18T07:52:23.403Z</time></trkpt><trkpt lat="43.4154964" lon="10.968967"><ele>480.0</ele><time>2026-04-18T07:52:24.405Z</time></trkpt><trkpt lat="43.4154913" lon="10.9687805"><ele>478.66666666666663</ele><time>2026-04-18T07:52:25.423Z</time></trkpt><trkpt lat="43.415503" lon="10.9685949"><ele>477.3333333333333</ele><time>2026-04-18T07:52:26.44Z</time></trkpt><trkpt lat="43.4155114" lon="10.9684063"><ele>476.0</ele><time>2026-04-18T07:52:27.416Z</time></trkpt><trkpt lat="43.415528" lon="10.9680961"><ele>476.0</ele><time>2026-04-18T07:52:28.441Z</time></trkpt><trkpt lat="43.4155488" lon="10.967882"><ele>476.0</ele><time>2026-04-18T07:52:29.427Z</time></trkpt><trkpt lat="43.4155673" lon="10.9676627"><ele>476.0</ele><time>2026-04-18T07:52:30.326Z</time></trkpt><trkpt lat="43.4155951" lon="10.9674324"><ele>478.0</ele><time>2026-04-18T07:52:31.32Z</time></trkpt><trkpt lat="43.4156276" lon="10.9672332"><ele>480.0</ele><time>2026-04-18T07:52:32.44Z</time></trkpt><trkpt lat="43.415653" lon="10.9670101"><ele>482.0</ele><time>2026-04-18T07:52:33.414Z</time></trkpt><trkpt lat="43.4156738" lon="10.966864"><ele>484.0</ele><time>2026-04-18T07:52:34.405Z</time></trkpt><trkpt lat="43.4156987" lon="10.9666929"><ele>485.75</ele><time>2026-04-18T07:52:35.316Z</time></trkpt><trkpt lat="43.4157106" lon="10.9665407"><ele>487.5</ele><time>2026-04-18T07:52:36.303Z</time></trkpt><trkpt lat="43.4157287" lon="10.9663826"><ele>489.25</ele><time>2026-04-18T07:52:37.303Z</time></trkpt><trkpt lat="43.4157118" lon="10.966233"><ele>491.0</ele><time>2026-04-18T07:52:38.3Z</time></trkpt><trkpt lat="43.4156941" lon="10.9660574"><ele>491.0</ele><time>2026-04-18T07:52:39.307Z</time></trkpt><trkpt lat="43.4156777" lon="10.9659019"><ele>491.0</ele><time>2026-04-18T07:52:40.313Z</time></trkpt><trkpt lat="43.4156432" lon="10.9657327"><ele>491.0</ele><time>2026-04-18T07:52:41.31Z</time></trkpt><trkpt lat="43.4156181" lon="10.9655789"><ele>491.0</ele><time>2026-04-18T07:52:42.308Z</time></trkpt><trkpt lat="43.4156289" lon="10.9653936"><ele>491.6</ele><time>2026-04-18T07:52:43.318Z</time></trkpt><trkpt lat="43.4156286" lon="10.9652307"><ele>492.20000000000005</ele><time>2026-04-18T07:52:44.3Z</time></trkpt><trkpt lat="43.4156425" lon="10.9650749"><ele>492.79999999999995</ele><time>2026-04-18T07:52:45.312Z</time></trkpt><trkpt lat="43.4156607" lon="10.9649615"><ele>493.4</ele><time>2026-04-18T07:52:46.311Z</time></trkpt><trkpt lat="43.4156815" lon="10.9648475"><ele>494.0</ele><time>2026-04-18T07:52:47.311Z</time></trkpt><trkpt lat="43.4156933" lon="10.9647465"><ele>493.66666666666663</ele><time>2026-04-18T07:52:48.436Z</time></trkpt><trkpt lat="43.4156926" lon="10.9646564"><ele>493.3333333333333</ele><time>2026-04-18T07:52:49.444Z</time></trkpt><trkpt lat="43.4156708" lon="10.9645373"><ele>493.0</ele><time>2026-04-18T07:52:50.45Z</time></trkpt><trkpt lat="43.415631" lon="10.9644302"><ele>492.66666666666663</ele><time>2026-04-18T07:52:51.446Z</time></trkpt><trkpt lat="43.415573" lon="10.9643269"><ele>492.3333333333333</ele><time>2026-04-18T07:52:52.444Z</time></trkpt><trkpt lat="43.4155032" lon="10.9642228"><ele>492.0</ele><time>2026-04-18T07:52:53.447Z</time></trkpt><trkpt lat="43.4153652" lon="10.9640556"><ele>492.0</ele><time>2026-04-18T07:52:55.452Z</time></trkpt><trkpt lat="43.415291" lon="10.9639941"><ele>492.00000000000006</ele><time>2026-04-18T07:52:56.443Z</time></trkpt><trkpt lat="43.4152222" lon="10.9639456"><ele>492.00000000000006</ele><time>2026-04-18T07:52:57.446Z</time></trkpt><trkpt lat="43.4150743" lon="10.9638445"><ele>492.0</ele><time>2026-04-18T07:52:59.317Z</time></trkpt><trkpt lat="43.414997" lon="10.9637735"><ele>492.0</ele><time>2026-04-18T07:53:00.453Z</time></trkpt><trkpt lat="43.4149185" lon="10.9637064"><ele>492.0</ele><time>2026-04-18T07:53:01.355Z</time></trkpt><trkpt lat="43.4148369" lon="10.9636497"><ele>492.00000000000006</ele><time>2026-04-18T07:53:02.319Z</time></trkpt><trkpt lat="43.4147461" lon="10.9636099"><ele>492.00000000000006</ele><time>2026-04-18T07:53:03.449Z</time></trkpt><trkpt lat="43.4146571" lon="10.9635738"><ele>492.0</ele><time>2026-04-18T07:53:04.393Z</time></trkpt><trkpt lat="43.4145661" lon="10.9635446"><ele>492.0</ele><time>2026-04-18T07:53:05.451Z</time></trkpt><trkpt lat="43.4144744" lon="10.9635143"><ele>489.6</ele><time>2026-04-18T07:53:06.447Z</time></trkpt><trkpt lat="43.4143792" lon="10.9634852"><ele>487.20000000000005</ele><time>2026-04-18T07:53:07.443Z</time></trkpt><trkpt lat="43.41429" lon="10.9634558"><ele>484.8</ele><time>2026-04-18T07:53:08.451Z</time></trkpt><trkpt lat="43.4142159" lon="10.963419"><ele>482.4</ele><time>2026-04-18T07:53:09.443Z</time></trkpt><trkpt lat="43.4141495" lon="10.9633773"><ele>480.0</ele><time>2026-04-18T07:53:10.354Z</time></trkpt><trkpt lat="43.4140552" lon="10.9632512"><ele>480.0</ele><time>2026-04-18T07:53:12.381Z</time></trkpt><trkpt lat="43.4140021" lon="10.9630927"><ele>480.0</ele><time>2026-04-18T07:53:14.319Z</time></trkpt><trkpt lat="43.4139575" lon="10.9629401"><ele>480.0</ele><time>2026-04-18T07:53:16.332Z</time></trkpt><trkpt lat="43.4138861" lon="10.9628904"><ele>480.0</ele><time>2026-04-18T07:53:18.377Z</time></trkpt><trkpt lat="43.4137888" lon="10.9629207"><ele>480.0</ele><time>2026-04-18T07:53:20.315Z</time></trkpt><trkpt lat="43.4136833" lon="10.9630058"><ele>478.0</ele><time>2026-04-18T07:53:22.327Z</time></trkpt><trkpt lat="43.4136294" lon="10.9630606"><ele>476.0</ele><time>2026-04-18T07:53:23.324Z</time></trkpt><trkpt lat="43.4135434" lon="10.9631208"><ele>474.0</ele><time>2026-04-18T07:53:24.315Z</time></trkpt><trkpt lat="43.4134608" lon="10.9631514"><ele>472.0</ele><time>2026-04-18T07:53:25.322Z</time></trkpt><trkpt lat="43.4133781" lon="10.9631783"><ele>470.0</ele><time>2026-04-18T07:53:26.323Z</time></trkpt><trkpt lat="43.4132999" lon="10.9631813"><ele>468.0</ele><time>2026-04-18T07:53:27.311Z</time></trkpt><trkpt lat="43.4132365" lon="10.9631507"><ele>468.0</ele><time>2026-04-18T07:53:28.315Z</time></trkpt><trkpt lat="43.4131569" lon="10.9630942"><ele>467.99999999999994</ele><time>2026-04-18T07:53:29.32Z</time></trkpt><trkpt lat="43.4130781" lon="10.9630285"><ele>467.99999999999994</ele><time>2026-04-18T07:53:30.316Z</time></trkpt><trkpt lat="43.412997" lon="10.9629379"><ele>468.0</ele><time>2026-04-18T07:53:31.327Z</time></trkpt><trkpt lat="43.412915" lon="10.9628227"><ele>468.0</ele><time>2026-04-18T07:53:32.323Z</time></trkpt><trkpt lat="43.4128412" lon="10.9627051"><ele>465.3333333333333</ele><time>2026-04-18T07:53:33.315Z</time></trkpt><trkpt lat="43.412769" lon="10.9626221"><ele>462.66666666666663</ele><time>2026-04-18T07:53:34.318Z</time></trkpt><trkpt lat="43.4127237" lon="10.9625457"><ele>460.0</ele><time>2026-04-18T07:53:35.32Z</time></trkpt><trkpt lat="43.4126808" lon="10.9624775"><ele>457.3333333333333</ele><time>2026-04-18T07:53:36.319Z</time></trkpt><trkpt lat="43.4126476" lon="10.9624033"><ele>454.66666666666663</ele><time>2026-04-18T07:53:37.321Z</time></trkpt><trkpt lat="43.412638" lon="10.9622619"><ele>452.0</ele><time>2026-04-18T07:53:39.416Z</time></trkpt><trkpt lat="43.4126443" lon="10.9621739"><ele>451.6</ele><time>2026-04-18T07:53:40.318Z</time></trkpt><trkpt lat="43.4126541" lon="10.9620817"><ele>451.20000000000005</ele><time>2026-04-18T07:53:41.316Z</time></trkpt><trkpt lat="43.4126759" lon="10.9619799"><ele>450.8</ele><time>2026-04-18T07:53:42.317Z</time></trkpt><trkpt lat="43.4127088" lon="10.9618682"><ele>450.4</ele><time>2026-04-18T07:53:43.318Z</time></trkpt><trkpt lat="43.4127652" lon="10.9616521"><ele>450.0</ele><time>2026-04-18T07:53:45.447Z</time></trkpt><trkpt lat="43.4127832" lon="10.9615468"><ele>449.0</ele><time>2026-04-18T07:53:46.455Z</time></trkpt><trkpt lat="43.4128031" lon="10.9614442"><ele>448.0</ele><time>2026-04-18T07:53:47.456Z</time></trkpt><trkpt lat="43.4128194" lon="10.9612221"><ele>447.0</ele><time>2026-04-18T07:53:49.447Z</time></trkpt><trkpt lat="43.4128155" lon="10.9611171"><ele>446.0</ele><time>2026-04-18T07:53:50.447Z</time></trkpt><trkpt lat="43.4127954" lon="10.9610238"><ele>445.0</ele><time>2026-04-18T07:53:51.456Z</time></trkpt><trkpt lat="43.4127769" lon="10.9609312"><ele>442.4</ele><time>2026-04-18T07:53:52.445Z</time></trkpt><trkpt lat="43.4127371" lon="10.9606979"><ele>439.8</ele><time>2026-04-18T07:53:54.452Z</time></trkpt><trkpt lat="43.4127309" lon="10.9605853"><ele>437.20000000000005</ele><time>2026-04-18T07:53:55.418Z</time></trkpt><trkpt lat="43.4127269" lon="10.9604732"><ele>434.6</ele><time>2026-04-18T07:53:56.319Z</time></trkpt><trkpt lat="43.4127274" lon="10.9603474"><ele>432.0</ele><time>2026-04-18T07:53:57.318Z</time></trkpt><trkpt lat="43.4127387" lon="10.9602504"><ele>432.0</ele><time>2026-04-18T07:53:58.319Z</time></trkpt><trkpt lat="43.4127491" lon="10.9601297"><ele>432.00000000000006</ele><time>2026-04-18T07:53:59.318Z</time></trkpt><trkpt lat="43.4127701" lon="10.9599948"><ele>432.00000000000006</ele><time>2026-04-18T07:54:00.319Z</time></trkpt><trkpt lat="43.4127856" lon="10.9598673"><ele>432.0</ele><time>2026-04-18T07:54:01.31Z</time></trkpt><trkpt lat="43.4128145" lon="10.9597414"><ele>432.0</ele><time>2026-04-18T07:54:02.32Z</time></trkpt><trkpt lat="43.4128389" lon="10.9596413"><ele>430.0</ele><time>2026-04-18T07:54:03.464Z</time></trkpt><trkpt lat="43.4128677" lon="10.9595302"><ele>428.00000000000006</ele><time>2026-04-18T07:54:04.427Z</time></trkpt><trkpt lat="43.4128924" lon="10.9594168"><ele>426.0</ele><time>2026-04-18T07:54:05.416Z</time></trkpt><trkpt lat="43.4129119" lon="10.9593191"><ele>424.0</ele><time>2026-04-18T07:54:06.453Z</time></trkpt><trkpt lat="43.4129522" lon="10.9591263"><ele>422.0</ele><time>2026-04-18T07:54:08.411Z</time></trkpt><trkpt lat="43.4129474" lon="10.9589912"><ele>420.3333333333333</ele><time>2026-04-18T07:54:10.317Z</time></trkpt><trkpt lat="43.4129256" lon="10.9588552"><ele>418.66666666666663</ele><time>2026-04-18T07:54:12.318Z</time></trkpt><trkpt lat="43.4129133" lon="10.9587611"><ele>417.0</ele><time>2026-04-18T07:54:13.32Z</time></trkpt><trkpt lat="43.4128887" lon="10.95865"><ele>415.33333333333337</ele><time>2026-04-18T07:54:14.32Z</time></trkpt><trkpt lat="43.4128652" lon="10.9585414"><ele>413.6666666666667</ele><time>2026-04-18T07:54:15.312Z</time></trkpt><trkpt lat="43.4128378" lon="10.958424"><ele>412.0</ele><time>2026-04-18T07:54:16.433Z</time></trkpt><trkpt lat="43.4127781" lon="10.9581862"><ele>410.0</ele><time>2026-04-18T07:54:18.32Z</time></trkpt><trkpt lat="43.4127466" lon="10.9580597"><ele>408.0</ele><time>2026-04-18T07:54:19.323Z</time></trkpt><trkpt lat="43.412712" lon="10.9579335"><ele>406.0</ele><time>2026-04-18T07:54:20.429Z</time></trkpt><trkpt lat="43.4126424" lon="10.9576716"><ele>404.0</ele><time>2026-04-18T07:54:22.431Z</time></trkpt><trkpt lat="43.4126072" lon="10.9575434"><ele>402.3333333333333</ele><time>2026-04-18T07:54:23.412Z</time></trkpt><trkpt lat="43.4125728" lon="10.9574216"><ele>400.66666666666663</ele><time>2026-04-18T07:54:24.437Z</time></trkpt><trkpt lat="43.4125395" lon="10.9573009"><ele>399.0</ele><time>2026-04-18T07:54:25.436Z</time></trkpt><trkpt lat="43.4125086" lon="10.9571817"><ele>397.33333333333337</ele><time>2026-04-18T07:54:26.441Z</time></trkpt><trkpt lat="43.4124801" lon="10.9570768"><ele>395.6666666666667</ele><time>2026-04-18T07:54:27.436Z</time></trkpt><trkpt lat="43.4124509" lon="10.9569783"><ele>394.0</ele><time>2026-04-18T07:54:28.368Z</time></trkpt><trkpt lat="43.4124225" lon="10.9568861"><ele>394.00000000000006</ele><time>2026-04-18T07:54:29.428Z</time></trkpt><trkpt lat="43.4123944" lon="10.9567973"><ele>394.0</ele><time>2026-04-18T07:54:30.429Z</time></trkpt><trkpt lat="43.4123689" lon="10.9566259"><ele>394.0</ele><time>2026-04-18T07:54:32.408Z</time></trkpt><trkpt lat="43.412376" lon="10.9565283"><ele>394.0</ele><time>2026-04-18T07:54:33.422Z</time></trkpt><trkpt lat="43.4123994" lon="10.9564204"><ele>394.00000000000006</ele><time>2026-04-18T07:54:34.432Z</time></trkpt><trkpt lat="43.4124148" lon="10.956294"><ele>394.0</ele><time>2026-04-18T07:54:35.423Z</time></trkpt><trkpt lat="43.4124134" lon="10.9561672"><ele>392.75</ele><time>2026-04-18T07:54:36.431Z</time></trkpt><trkpt lat="43.4123953" lon="10.9560467"><ele>391.5</ele><time>2026-04-18T07:54:37.405Z</time></trkpt><trkpt lat="43.4123349" lon="10.9558628"><ele>390.25</ele><time>2026-04-18T07:54:39.41Z</time></trkpt><trkpt lat="43.4122121" lon="10.9557582"><ele>389.0</ele><time>2026-04-18T07:54:41.314Z</time></trkpt><trkpt lat="43.4121497" lon="10.9556968"><ele>388.99999999999994</ele><time>2026-04-18T07:54:42.411Z</time></trkpt><trkpt lat="43.4120925" lon="10.9556491"><ele>389.0</ele><time>2026-04-18T07:54:43.405Z</time></trkpt><trkpt lat="43.4120448" lon="10.9555415"><ele>389.0</ele><time>2026-04-18T07:54:45.43Z</time></trkpt><trkpt lat="43.4120752" lon="10.9554082"><ele>389.0</ele><time>2026-04-18T07:54:47.419Z</time></trkpt><trkpt lat="43.4120933" lon="10.9553046"><ele>388.99999999999994</ele><time>2026-04-18T07:54:48.407Z</time></trkpt><trkpt lat="43.4121001" lon="10.9552014"><ele>389.0</ele><time>2026-04-18T07:54:49.428Z</time></trkpt><trkpt lat="43.4120997" lon="10.9550872"><ele>390.79999999999995</ele><time>2026-04-18T07:54:50.406Z</time></trkpt><trkpt lat="43.4120968" lon="10.9549732"><ele>392.59999999999997</ele><time>2026-04-18T07:54:51.404Z</time></trkpt><trkpt lat="43.4120785" lon="10.9548545"><ele>394.4</ele><time>2026-04-18T07:54:52.314Z</time></trkpt><trkpt lat="43.4120333" lon="10.9547343"><ele>396.2</ele><time>2026-04-18T07:54:53.319Z</time></trkpt><trkpt lat="43.4119911" lon="10.9546117"><ele>398.0</ele><time>2026-04-18T07:54:54.313Z</time></trkpt><trkpt lat="43.4119578" lon="10.954479"><ele>398.0</ele><time>2026-04-18T07:54:55.406Z</time></trkpt><trkpt lat="43.4119425" lon="10.954359"><ele>398.0</ele><time>2026-04-18T07:54:56.43Z</time></trkpt><trkpt lat="43.4119365" lon="10.9542133"><ele>398.0</ele><time>2026-04-18T07:54:57.422Z</time></trkpt><trkpt lat="43.4119209" lon="10.9540338"><ele>398.0</ele><time>2026-04-18T07:54:58.411Z</time></trkpt><trkpt lat="43.4119122" lon="10.9538433"><ele>398.66666666666663</ele><time>2026-04-18T07:54:59.409Z</time></trkpt><trkpt lat="43.411902" lon="10.953645"><ele>399.33333333333337</ele><time>2026-04-18T07:55:00.409Z</time></trkpt><trkpt lat="43.4118809" lon="10.9534104"><ele>400.0</ele><time>2026-04-18T07:55:01.412Z</time></trkpt><trkpt lat="43.4118615" lon="10.9531645"><ele>402.0</ele><time>2026-04-18T07:55:02.423Z</time></trkpt><trkpt lat="43.4118498" lon="10.9529342"><ele>404.0</ele><time>2026-04-18T07:55:03.43Z</time></trkpt><trkpt lat="43.411832" lon="10.952693"><ele>406.0</ele><time>2026-04-18T07:55:04.412Z</time></trkpt><trkpt lat="43.4118181" lon="10.9524657"><ele>409.0</ele><time>2026-04-18T07:55:05.399Z</time></trkpt><trkpt lat="43.4118038" lon="10.9522393"><ele>412.0</ele><time>2026-04-18T07:55:07.35Z</time></trkpt><trkpt lat="43.4117794" lon="10.9517897"><ele>414.0</ele><time>2026-04-18T07:55:08.439Z</time></trkpt><trkpt lat="43.4117624" lon="10.9515682"><ele>416.0</ele><time>2026-04-18T07:55:09.433Z</time></trkpt><trkpt lat="43.411728" lon="10.9511475"><ele>416.0</ele><time>2026-04-18T07:55:11.319Z</time></trkpt><trkpt lat="43.4117153" lon="10.9509517"><ele>416.0</ele><time>2026-04-18T07:55:12.41Z</time></trkpt><trkpt lat="43.4117026" lon="10.9507697"><ele>416.0</ele><time>2026-04-18T07:55:13.406Z</time></trkpt><trkpt lat="43.4116854" lon="10.9505922"><ele>416.0</ele><time>2026-04-18T07:55:14.408Z</time></trkpt><trkpt lat="43.4116628" lon="10.9504191"><ele>417.3333333333333</ele><time>2026-04-18T07:55:15.429Z</time></trkpt><trkpt lat="43.4116364" lon="10.9502466"><ele>418.66666666666663</ele><time>2026-04-18T07:55:16.41Z</time></trkpt><trkpt lat="43.411576" lon="10.9498981"><ele>420.0</ele><time>2026-04-18T07:55:18.413Z</time></trkpt><trkpt lat="43.4115428" lon="10.9497543"><ele>420.0</ele><time>2026-04-18T07:55:19.428Z</time></trkpt><trkpt lat="43.4115032" lon="10.9496246"><ele>420.0</ele><time>2026-04-18T07:55:20.412Z</time></trkpt><trkpt lat="43.4114563" lon="10.9494908"><ele>420.0</ele><time>2026-04-18T07:55:21.433Z</time></trkpt><trkpt lat="43.4114118" lon="10.9493562"><ele>420.0</ele><time>2026-04-18T07:55:22.426Z</time></trkpt><trkpt lat="43.4113131" lon="10.9491814"><ele>420.0</ele><time>2026-04-18T07:55:24.312Z</time></trkpt><trkpt lat="43.4112456" lon="10.9491173"><ele>420.0</ele><time>2026-04-18T07:55:25.304Z</time></trkpt><trkpt lat="43.4111756" lon="10.949044"><ele>420.0</ele><time>2026-04-18T07:55:26.317Z</time></trkpt><trkpt lat="43.4111122" lon="10.9489709"><ele>420.0</ele><time>2026-04-18T07:55:27.316Z</time></trkpt><trkpt lat="43.411058" lon="10.948884"><ele>420.0</ele><time>2026-04-18T07:55:28.313Z</time></trkpt><trkpt lat="43.4110116" lon="10.9487998"><ele>420.0</ele><time>2026-04-18T07:55:29.319Z</time></trkpt><trkpt lat="43.4109699" lon="10.9486421"><ele>420.0</ele><time>2026-04-18T07:55:30.317Z</time></trkpt><trkpt lat="43.4109464" lon="10.9484851"><ele>420.0</ele><time>2026-04-18T07:55:31.317Z</time></trkpt><trkpt lat="43.4109263" lon="10.9483259"><ele>420.0</ele><time>2026-04-18T07:55:32.316Z</time></trkpt><trkpt lat="43.410905" lon="10.9481486"><ele>420.0</ele><time>2026-04-18T07:55:33.314Z</time></trkpt><trkpt lat="43.410895" lon="10.9479723"><ele>419.5</ele><time>2026-04-18T07:55:34.307Z</time></trkpt><trkpt lat="43.4108935" lon="10.9477877"><ele>419.0</ele><time>2026-04-18T07:55:35.316Z</time></trkpt><trkpt lat="43.4108901" lon="10.947592"><ele>418.5</ele><time>2026-04-18T07:55:36.317Z</time></trkpt><trkpt lat="43.4109142" lon="10.9474175"><ele>418.0</ele><time>2026-04-18T07:55:37.315Z</time></trkpt><trkpt lat="43.4109416" lon="10.9472498"><ele>419.0</ele><time>2026-04-18T07:55:38.316Z</time></trkpt><trkpt lat="43.4109737" lon="10.9470512"><ele>420.0</ele><time>2026-04-18T07:55:39.315Z</time></trkpt><trkpt lat="43.4109868" lon="10.946857"><ele>421.0</ele><time>2026-04-18T07:55:40.317Z</time></trkpt><trkpt lat="43.4110059" lon="10.9466697"><ele>422.0</ele><time>2026-04-18T07:55:41.314Z</time></trkpt><trkpt lat="43.4110135" lon="10.9464833"><ele>423.0</ele><time>2026-04-18T07:55:42.314Z</time></trkpt><trkpt lat="43.4110254" lon="10.9463049"><ele>424.0</ele><time>2026-04-18T07:55:43.315Z</time></trkpt><trkpt lat="43.4110296" lon="10.946127"><ele>425.0</ele><time>2026-04-18T07:55:44.316Z</time></trkpt><trkpt lat="43.4110302" lon="10.9459687"><ele>426.0</ele><time>2026-04-18T07:55:45.375Z</time></trkpt><trkpt lat="43.4110398" lon="10.9457962"><ele>426.0</ele><time>2026-04-18T07:55:46.429Z</time></trkpt><trkpt lat="43.4110236" lon="10.9456289"><ele>426.0</ele><time>2026-04-18T07:55:47.433Z</time></trkpt><trkpt lat="43.410977" lon="10.9452873"><ele>426.0</ele><time>2026-04-18T07:55:49.425Z</time></trkpt><trkpt lat="43.4109352" lon="10.944945"><ele>426.0</ele><time>2026-04-18T07:55:51.316Z</time></trkpt><trkpt lat="43.410908" lon="10.9447774"><ele>426.0</ele><time>2026-04-18T07:55:52.427Z</time></trkpt><trkpt lat="43.4108884" lon="10.9446337"><ele>426.0</ele><time>2026-04-18T07:55:53.416Z</time></trkpt><trkpt lat="43.4108863" lon="10.9445249"><ele>426.0</ele><time>2026-04-18T07:55:54.428Z</time></trkpt><trkpt lat="43.4108841" lon="10.9444053"><ele>426.0</ele><time>2026-04-18T07:55:55.417Z</time></trkpt><trkpt lat="43.4108888" lon="10.9442714"><ele>425.25</ele><time>2026-04-18T07:55:56.413Z</time></trkpt><trkpt lat="43.4108809" lon="10.9441177"><ele>424.5</ele><time>2026-04-18T07:55:57.415Z</time></trkpt><trkpt lat="43.4108723" lon="10.9439836"><ele>423.75</ele><time>2026-04-18T07:55:58.414Z</time></trkpt><trkpt lat="43.410851" lon="10.9438074"><ele>423.0</ele><time>2026-04-18T07:55:59.411Z</time></trkpt><trkpt lat="43.410819" lon="10.9436207"><ele>423.0</ele><time>2026-04-18T07:56:00.415Z</time></trkpt><trkpt lat="43.4108103" lon="10.9434558"><ele>423.0</ele><time>2026-04-18T07:56:01.32Z</time></trkpt><trkpt lat="43.4108156" lon="10.9432989"><ele>423.0</ele><time>2026-04-18T07:56:02.409Z</time></trkpt><trkpt lat="43.41081" lon="10.9431471"><ele>423.0</ele><time>2026-04-18T07:56:03.414Z</time></trkpt><trkpt lat="43.4108001" lon="10.9430052"><ele>423.0</ele><time>2026-04-18T07:56:04.43Z</time></trkpt><trkpt lat="43.4107868" lon="10.942875"><ele>423.0</ele><time>2026-04-18T07:56:05.433Z</time></trkpt><trkpt lat="43.4107714" lon="10.9427315"><ele>423.0</ele><time>2026-04-18T07:56:06.43Z</time></trkpt><trkpt lat="43.4107408" lon="10.942588"><ele>423.0</ele><time>2026-04-18T07:56:07.416Z</time></trkpt><trkpt lat="43.4107042" lon="10.9424387"><ele>423.0</ele><time>2026-04-18T07:56:08.438Z</time></trkpt><trkpt lat="43.4106568" lon="10.9422957"><ele>423.0</ele><time>2026-04-18T07:56:09.431Z</time></trkpt><trkpt lat="43.4106093" lon="10.9421684"><ele>417.0</ele><time>2026-04-18T07:56:10.43Z</time></trkpt><trkpt lat="43.4104725" lon="10.9418137"><ele>411.0</ele><time>2026-04-18T07:56:12.317Z</time></trkpt><trkpt lat="43.4104092" lon="10.9416508"><ele>405.0</ele><time>2026-04-18T07:56:13.315Z</time></trkpt><trkpt lat="43.4103596" lon="10.9415012"><ele>405.0</ele><time>2026-04-18T07:56:14.314Z</time></trkpt><trkpt lat="43.4103317" lon="10.9413503"><ele>405.0</ele><time>2026-04-18T07:56:15.31Z</time></trkpt><trkpt lat="43.4103084" lon="10.9412241"><ele>405.0</ele><time>2026-04-18T07:56:16.317Z</time></trkpt><trkpt lat="43.4102752" lon="10.9411132"><ele>405.0</ele><time>2026-04-18T07:56:17.311Z</time></trkpt><trkpt lat="43.4102551" lon="10.9410145"><ele>405.0</ele><time>2026-04-18T07:56:18.313Z</time></trkpt><trkpt lat="43.4102531" lon="10.9408697"><ele>404.6666666666667</ele><time>2026-04-18T07:56:20.315Z</time></trkpt><trkpt lat="43.4103058" lon="10.9407338"><ele>404.33333333333337</ele><time>2026-04-18T07:56:22.311Z</time></trkpt><trkpt lat="43.4103601" lon="10.9406752"><ele>404.0</ele><time>2026-04-18T07:56:23.317Z</time></trkpt><trkpt lat="43.4104298" lon="10.9406283"><ele>403.6666666666667</ele><time>2026-04-18T07:56:24.316Z</time></trkpt><trkpt lat="43.4104951" lon="10.9406112"><ele>403.33333333333337</ele><time>2026-04-18T07:56:25.309Z</time></trkpt><trkpt lat="43.4106036" lon="10.9405855"><ele>403.0</ele><time>2026-04-18T07:56:27.316Z</time></trkpt><trkpt lat="43.4106805" lon="10.9405073"><ele>403.0</ele><time>2026-04-18T07:56:29.317Z</time></trkpt><trkpt lat="43.4107096" lon="10.9403767"><ele>403.0</ele><time>2026-04-18T07:56:31.314Z</time></trkpt><trkpt lat="43.4107025" lon="10.9402807"><ele>403.0</ele><time>2026-04-18T07:56:32.317Z</time></trkpt><trkpt lat="43.4106846" lon="10.9401699"><ele>403.0</ele><time>2026-04-18T07:56:33.32Z</time></trkpt><trkpt lat="43.4106681" lon="10.9400405"><ele>403.0</ele><time>2026-04-18T07:56:34.318Z</time></trkpt><trkpt lat="43.410656" lon="10.9398926"><ele>401.79999999999995</ele><time>2026-04-18T07:56:35.318Z</time></trkpt><trkpt lat="43.4106464" lon="10.9397404"><ele>400.6</ele><time>2026-04-18T07:56:36.317Z</time></trkpt><trkpt lat="43.4106411" lon="10.9396061"><ele>399.4</ele><time>2026-04-18T07:56:37.324Z</time></trkpt><trkpt lat="43.4106359" lon="10.9394806"><ele>398.20000000000005</ele><time>2026-04-18T07:56:38.316Z</time></trkpt><trkpt lat="43.4106325" lon="10.9393657"><ele>397.0</ele><time>2026-04-18T07:56:39.312Z</time></trkpt><trkpt lat="43.4106359" lon="10.9392532"><ele>396.1666666666667</ele><time>2026-04-18T07:56:40.316Z</time></trkpt><trkpt lat="43.4106399" lon="10.9391453"><ele>395.33333333333337</ele><time>2026-04-18T07:56:41.316Z</time></trkpt><trkpt lat="43.4106457" lon="10.9390431"><ele>394.5</ele><time>2026-04-18T07:56:42.307Z</time></trkpt><trkpt lat="43.4106486" lon="10.9389385"><ele>393.66666666666663</ele><time>2026-04-18T07:56:43.315Z</time></trkpt><trkpt lat="43.4106362" lon="10.9388282"><ele>392.8333333333333</ele><time>2026-04-18T07:56:44.318Z</time></trkpt><trkpt lat="43.410609" lon="10.9387022"><ele>392.0</ele><time>2026-04-18T07:56:45.316Z</time></trkpt><trkpt lat="43.4105703" lon="10.938576"><ele>391.99999999999994</ele><time>2026-04-18T07:56:46.316Z</time></trkpt><trkpt lat="43.4105322" lon="10.9384576"><ele>392.0</ele><time>2026-04-18T07:56:47.316Z</time></trkpt><trkpt lat="43.4104955" lon="10.9383462"><ele>392.0</ele><time>2026-04-18T07:56:48.31Z</time></trkpt><trkpt lat="43.4104566" lon="10.9382544"><ele>392.0</ele><time>2026-04-18T07:56:49.317Z</time></trkpt><trkpt lat="43.410412" lon="10.9381805"><ele>391.99999999999994</ele><time>2026-04-18T07:56:50.313Z</time></trkpt><trkpt lat="43.4103546" lon="10.9381208"><ele>392.0</ele><time>2026-04-18T07:56:51.32Z</time></trkpt><trkpt lat="43.4102885" lon="10.9380833"><ele>391.16666666666663</ele><time>2026-04-18T07:56:52.314Z</time></trkpt><trkpt lat="43.4102108" lon="10.9380561"><ele>390.3333333333333</ele><time>2026-04-18T07:56:53.316Z</time></trkpt><trkpt lat="43.4101401" lon="10.9380264"><ele>389.5</ele><time>2026-04-18T07:56:54.317Z</time></trkpt><trkpt lat="43.4100639" lon="10.9379941"><ele>388.66666666666663</ele><time>2026-04-18T07:56:55.32Z</time></trkpt><trkpt lat="43.4099899" lon="10.9379619"><ele>387.8333333333333</ele><time>2026-04-18T07:56:56.318Z</time></trkpt><trkpt lat="43.40993" lon="10.9379181"><ele>387.0</ele><time>2026-04-18T07:56:57.312Z</time></trkpt><trkpt lat="43.4098425" lon="10.9378356"><ele>387.0</ele><time>2026-04-18T07:56:59.315Z</time></trkpt><trkpt lat="43.4098015" lon="10.9376867"><ele>387.0</ele><time>2026-04-18T07:57:01.309Z</time></trkpt><trkpt lat="43.4098053" lon="10.9375928"><ele>387.0</ele><time>2026-04-18T07:57:02.312Z</time></trkpt><trkpt lat="43.4098034" lon="10.9374873"><ele>387.0</ele><time>2026-04-18T07:57:03.315Z</time></trkpt><trkpt lat="43.4097995" lon="10.9373693"><ele>387.0</ele><time>2026-04-18T07:57:04.305Z</time></trkpt><trkpt lat="43.4097937" lon="10.9372425"><ele>387.0</ele><time>2026-04-18T07:57:05.319Z</time></trkpt><trkpt lat="43.4097906" lon="10.9371253"><ele>386.3333333333333</ele><time>2026-04-18T07:57:06.317Z</time></trkpt><trkpt lat="43.4097922" lon="10.9370188"><ele>385.6666666666667</ele><time>2026-04-18T07:57:07.317Z</time></trkpt><trkpt lat="43.4098003" lon="10.9369201"><ele>385.0</ele><time>2026-04-18T07:57:08.315Z</time></trkpt><trkpt lat="43.4098078" lon="10.9368278"><ele>384.33333333333337</ele><time>2026-04-18T07:57:09.314Z</time></trkpt><trkpt lat="43.4098072" lon="10.9367377"><ele>383.6666666666667</ele><time>2026-04-18T07:57:10.315Z</time></trkpt><trkpt lat="43.4098091" lon="10.9365691"><ele>383.0</ele><time>2026-04-18T07:57:12.321Z</time></trkpt><trkpt lat="43.4098026" lon="10.9364794"><ele>381.59999999999997</ele><time>2026-04-18T07:57:13.319Z</time></trkpt><trkpt lat="43.4097111" lon="10.9363036"><ele>380.2</ele><time>2026-04-18T07:57:15.451Z</time></trkpt><trkpt lat="43.4096622" lon="10.9362168"><ele>378.8</ele><time>2026-04-18T07:57:16.414Z</time></trkpt><trkpt lat="43.409592" lon="10.9361201"><ele>377.4</ele><time>2026-04-18T07:57:17.426Z</time></trkpt><trkpt lat="43.4095102" lon="10.9360219"><ele>376.0</ele><time>2026-04-18T07:57:18.434Z</time></trkpt><trkpt lat="43.4094112" lon="10.9359372"><ele>375.5</ele><time>2026-04-18T07:57:19.433Z</time></trkpt><trkpt lat="43.4093165" lon="10.9358267"><ele>375.0</ele><time>2026-04-18T07:57:20.414Z</time></trkpt><trkpt lat="43.4092187" lon="10.935726"><ele>374.5</ele><time>2026-04-18T07:57:21.43Z</time></trkpt><trkpt lat="43.4091262" lon="10.9356246"><ele>374.0</ele><time>2026-04-18T07:57:22.41Z</time></trkpt><trkpt lat="43.4090375" lon="10.935526"><ele>374.0</ele><time>2026-04-18T07:57:23.429Z</time></trkpt><trkpt lat="43.4089506" lon="10.9354341"><ele>374.0</ele><time>2026-04-18T07:57:24.435Z</time></trkpt><trkpt lat="43.4088752" lon="10.9353373"><ele>374.0</ele><time>2026-04-18T07:57:25.428Z</time></trkpt><trkpt lat="43.4088084" lon="10.9352331"><ele>374.0</ele><time>2026-04-18T07:57:26.432Z</time></trkpt><trkpt lat="43.4087634" lon="10.9351239"><ele>374.0</ele><time>2026-04-18T07:57:27.412Z</time></trkpt><trkpt lat="43.408731" lon="10.9350051"><ele>372.6</ele><time>2026-04-18T07:57:28.426Z</time></trkpt><trkpt lat="43.4087025" lon="10.9348843"><ele>371.2</ele><time>2026-04-18T07:57:29.449Z</time></trkpt><trkpt lat="43.4086758" lon="10.9347553"><ele>369.8</ele><time>2026-04-18T07:57:30.417Z</time></trkpt><trkpt lat="43.4086478" lon="10.9345797"><ele>368.40000000000003</ele><time>2026-04-18T07:57:31.382Z</time></trkpt><trkpt lat="43.408628" lon="10.9344283"><ele>367.0</ele><time>2026-04-18T07:57:32.418Z</time></trkpt><trkpt lat="43.4086118" lon="10.9342712"><ele>367.0</ele><time>2026-04-18T07:57:33.41Z</time></trkpt><trkpt lat="43.4085926" lon="10.9340719"><ele>367.0</ele><time>2026-04-18T07:57:34.436Z</time></trkpt><trkpt lat="43.4085729" lon="10.9338854"><ele>367.0</ele><time>2026-04-18T07:57:35.438Z</time></trkpt><trkpt lat="43.4085541" lon="10.9337065"><ele>367.0</ele><time>2026-04-18T07:57:36.443Z</time></trkpt><trkpt lat="43.4085335" lon="10.9335299"><ele>367.0</ele><time>2026-04-18T07:57:37.417Z</time></trkpt><trkpt lat="43.4085136" lon="10.9333645"><ele>367.0</ele><time>2026-04-18T07:57:38.319Z</time></trkpt><trkpt lat="43.4084899" lon="10.9332081"><ele>367.0</ele><time>2026-04-18T07:57:39.427Z</time></trkpt><trkpt lat="43.4084036" lon="10.93292"><ele>367.0</ele><time>2026-04-18T07:57:41.317Z</time></trkpt><trkpt lat="43.4083444" lon="10.9327658"><ele>367.0</ele><time>2026-04-18T07:57:42.321Z</time></trkpt><trkpt lat="43.4082812" lon="10.9326039"><ele>367.0</ele><time>2026-04-18T07:57:43.318Z</time></trkpt><trkpt lat="43.4082099" lon="10.932448"><ele>367.0</ele><time>2026-04-18T07:57:44.44Z</time></trkpt><trkpt lat="43.4081427" lon="10.9322937"><ele>366.75</ele><time>2026-04-18T07:57:45.403Z</time></trkpt><trkpt lat="43.4080709" lon="10.9321426"><ele>366.5</ele><time>2026-04-18T07:57:46.429Z</time></trkpt><trkpt lat="43.4080351" lon="10.9319891"><ele>366.25</ele><time>2026-04-18T07:57:47.407Z</time></trkpt><trkpt lat="43.4079865" lon="10.9318124"><ele>366.0</ele><time>2026-04-18T07:57:48.43Z</time></trkpt><trkpt lat="43.4079362" lon="10.9316578"><ele>366.0</ele><time>2026-04-18T07:57:49.43Z</time></trkpt><trkpt lat="43.4078818" lon="10.9315242"><ele>366.0</ele><time>2026-04-18T07:57:50.424Z</time></trkpt><trkpt lat="43.407814" lon="10.9313859"><ele>366.0</ele><time>2026-04-18T07:57:51.424Z</time></trkpt><trkpt lat="43.4077382" lon="10.9312458"><ele>366.0</ele><time>2026-04-18T07:57:52.436Z</time></trkpt><trkpt lat="43.4075884" lon="10.9309624"><ele>367.0</ele><time>2026-04-18T07:57:54.306Z</time></trkpt><trkpt lat="43.4075202" lon="10.9308256"><ele>368.0</ele><time>2026-04-18T07:57:55.316Z</time></trkpt><trkpt lat="43.4074589" lon="10.9307058"><ele>369.0</ele><time>2026-04-18T07:57:56.31Z</time></trkpt><trkpt lat="43.4074044" lon="10.9306054"><ele>370.0</ele><time>2026-04-18T07:57:57.314Z</time></trkpt><trkpt lat="43.4073757" lon="10.9305223"><ele>371.0</ele><time>2026-04-18T07:57:58.313Z</time></trkpt><trkpt lat="43.4073515" lon="10.9304056"><ele>371.0</ele><time>2026-04-18T07:57:59.307Z</time></trkpt><trkpt lat="43.4073473" lon="10.9302754"><ele>371.0</ele><time>2026-04-18T07:58:00.407Z</time></trkpt><trkpt lat="43.4073418" lon="10.930145"><ele>371.0</ele><time>2026-04-18T07:58:01.457Z</time></trkpt><trkpt lat="43.4073482" lon="10.9299678"><ele>371.0</ele><time>2026-04-18T07:58:02.439Z</time></trkpt><trkpt lat="43.4073515" lon="10.9297931"><ele>371.0</ele><time>2026-04-18T07:58:03.423Z</time></trkpt><trkpt lat="43.4073543" lon="10.9296164"><ele>371.0</ele><time>2026-04-18T07:58:04.455Z</time></trkpt><trkpt lat="43.4073594" lon="10.9293879"><ele>371.0</ele><time>2026-04-18T07:58:05.451Z</time></trkpt><trkpt lat="43.4073512" lon="10.9291814"><ele>371.0</ele><time>2026-04-18T07:58:06.469Z</time></trkpt><trkpt lat="43.4073424" lon="10.9289878"><ele>370.5</ele><time>2026-04-18T07:58:07.445Z</time></trkpt><trkpt lat="43.4073311" lon="10.9288305"><ele>370.0</ele><time>2026-04-18T07:58:08.454Z</time></trkpt><trkpt lat="43.4073047" lon="10.9286729"><ele>369.5</ele><time>2026-04-18T07:58:09.431Z</time></trkpt><trkpt lat="43.4072715" lon="10.928527"><ele>369.0</ele><time>2026-04-18T07:58:10.456Z</time></trkpt><trkpt lat="43.4072209" lon="10.9283931"><ele>368.4</ele><time>2026-04-18T07:58:11.32Z</time></trkpt><trkpt lat="43.4071593" lon="10.928288"><ele>367.79999999999995</ele><time>2026-04-18T07:58:12.305Z</time></trkpt><trkpt lat="43.4070852" lon="10.9281951"><ele>367.20000000000005</ele><time>2026-04-18T07:58:13.319Z</time></trkpt><trkpt lat="43.4069994" lon="10.9280919"><ele>366.6</ele><time>2026-04-18T07:58:14.321Z</time></trkpt><trkpt lat="43.4069063" lon="10.9279621"><ele>366.0</ele><time>2026-04-18T07:58:15.432Z</time></trkpt><trkpt lat="43.4068187" lon="10.9278594"><ele>366.0</ele><time>2026-04-18T07:58:16.454Z</time></trkpt><trkpt lat="43.4067403" lon="10.9277674"><ele>366.0</ele><time>2026-04-18T07:58:17.455Z</time></trkpt><trkpt lat="43.4066805" lon="10.9276577"><ele>366.0</ele><time>2026-04-18T07:58:18.419Z</time></trkpt><trkpt lat="43.4066302" lon="10.9275465"><ele>366.0</ele><time>2026-04-18T07:58:19.448Z</time></trkpt><trkpt lat="43.4065905" lon="10.9273783"><ele>366.0</ele><time>2026-04-18T07:58:20.395Z</time></trkpt><trkpt lat="43.4065442" lon="10.9272061"><ele>369.3333333333333</ele><time>2026-04-18T07:58:21.448Z</time></trkpt><trkpt lat="43.4064907" lon="10.9270441"><ele>372.66666666666663</ele><time>2026-04-18T07:58:22.442Z</time></trkpt><trkpt lat="43.4064296" lon="10.926888"><ele>376.0</ele><time>2026-04-18T07:58:23.461Z</time></trkpt><trkpt lat="43.4062843" lon="10.9266329"><ele>376.5</ele><time>2026-04-18T07:58:25.31Z</time></trkpt><trkpt lat="43.406196" lon="10.9265219"><ele>377.0</ele><time>2026-04-18T07:58:26.308Z</time></trkpt><trkpt lat="43.4061048" lon="10.9264058"><ele>377.5</ele><time>2026-04-18T07:58:27.347Z</time></trkpt><trkpt lat="43.4060066" lon="10.9262832"><ele>378.0</ele><time>2026-04-18T07:58:28.431Z</time></trkpt><trkpt lat="43.405905" lon="10.9261555"><ele>379.0</ele><time>2026-04-18T07:58:29.455Z</time></trkpt><trkpt lat="43.4056794" lon="10.9258713"><ele>380.0</ele><time>2026-04-18T07:58:31.439Z</time></trkpt><trkpt lat="43.4055619" lon="10.9257182"><ele>378.33333333333337</ele><time>2026-04-18T07:58:32.445Z</time></trkpt><trkpt lat="43.4054398" lon="10.9255527"><ele>376.6666666666667</ele><time>2026-04-18T07:58:33.445Z</time></trkpt><trkpt lat="43.4053106" lon="10.9253824"><ele>375.0</ele><time>2026-04-18T07:58:34.447Z</time></trkpt><trkpt lat="43.4051646" lon="10.9252213"><ele>375.0</ele><time>2026-04-18T07:58:35.412Z</time></trkpt><trkpt lat="43.4050057" lon="10.9250691"><ele>375.0</ele><time>2026-04-18T07:58:36.446Z</time></trkpt><trkpt lat="43.4048399" lon="10.9249224"><ele>375.0</ele><time>2026-04-18T07:58:37.464Z</time></trkpt><trkpt lat="43.4046729" lon="10.9247683"><ele>375.3333333333333</ele><time>2026-04-18T07:58:38.446Z</time></trkpt><trkpt lat="43.4045063" lon="10.9246105"><ele>375.66666666666663</ele><time>2026-04-18T07:58:39.421Z</time></trkpt><trkpt lat="43.4043529" lon="10.9244577"><ele>376.0</ele><time>2026-04-18T07:58:40.453Z</time></trkpt><trkpt lat="43.4040757" lon="10.9241617"><ele>375.0</ele><time>2026-04-18T07:58:42.318Z</time></trkpt><trkpt lat="43.4039579" lon="10.9240182"><ele>374.0</ele><time>2026-04-18T07:58:43.449Z</time></trkpt><trkpt lat="43.4038432" lon="10.9238725"><ele>373.0</ele><time>2026-04-18T07:58:44.448Z</time></trkpt><trkpt lat="43.4037335" lon="10.9237167"><ele>373.0</ele><time>2026-04-18T07:58:45.451Z</time></trkpt><trkpt lat="43.4036397" lon="10.9235558"><ele>373.0</ele><time>2026-04-18T07:58:46.436Z</time></trkpt><trkpt lat="43.4035708" lon="10.9233827"><ele>373.0</ele><time>2026-04-18T07:58:47.407Z</time></trkpt><trkpt lat="43.4035213" lon="10.9231918"><ele>373.0</ele><time>2026-04-18T07:58:48.319Z</time></trkpt><trkpt lat="43.4034793" lon="10.9229848"><ele>374.0</ele><time>2026-04-18T07:58:49.447Z</time></trkpt><trkpt lat="43.403421" lon="10.9227708"><ele>375.0</ele><time>2026-04-18T07:58:50.448Z</time></trkpt><trkpt lat="43.4033645" lon="10.9225696"><ele>376.0</ele><time>2026-04-18T07:58:51.453Z</time></trkpt><trkpt lat="43.4033091" lon="10.9223818"><ele>376.0</ele><time>2026-04-18T07:58:52.467Z</time></trkpt><trkpt lat="43.4032579" lon="10.9222041"><ele>376.0</ele><time>2026-04-18T07:58:53.459Z</time></trkpt><trkpt lat="43.403214" lon="10.9220305"><ele>376.0</ele><time>2026-04-18T07:58:54.437Z</time></trkpt><trkpt lat="43.4031761" lon="10.9218684"><ele>376.0</ele><time>2026-04-18T07:58:55.444Z</time></trkpt><trkpt lat="43.4031436" lon="10.9217139"><ele>375.20000000000005</ele><time>2026-04-18T07:58:56.446Z</time></trkpt><trkpt lat="43.4031143" lon="10.9215676"><ele>374.40000000000003</ele><time>2026-04-18T07:58:57.452Z</time></trkpt><trkpt lat="43.4030915" lon="10.9214234"><ele>373.6</ele><time>2026-04-18T07:58:58.416Z</time></trkpt><trkpt lat="43.403083" lon="10.9212725"><ele>372.8</ele><time>2026-04-18T07:58:59.449Z</time></trkpt><trkpt lat="43.4030938" lon="10.9211206"><ele>372.0</ele><time>2026-04-18T07:59:00.471Z</time></trkpt><trkpt lat="43.4031204" lon="10.9209621"><ele>370.6666666666667</ele><time>2026-04-18T07:59:01.443Z</time></trkpt><trkpt lat="43.4032236" lon="10.9206269"><ele>369.33333333333337</ele><time>2026-04-18T07:59:03.451Z</time></trkpt><trkpt lat="43.4032946" lon="10.9204445"><ele>368.0</ele><time>2026-04-18T07:59:04.451Z</time></trkpt><trkpt lat="43.4033595" lon="10.9202648"><ele>368.0</ele><time>2026-04-18T07:59:05.416Z</time></trkpt><trkpt lat="43.4034233" lon="10.9200798"><ele>368.0</ele><time>2026-04-18T07:59:06.441Z</time></trkpt><trkpt lat="43.4034877" lon="10.9198969"><ele>368.0</ele><time>2026-04-18T07:59:07.301Z</time></trkpt><trkpt lat="43.4035513" lon="10.9197125"><ele>368.0</ele><time>2026-04-18T07:59:08.311Z</time></trkpt><trkpt lat="43.4036078" lon="10.9195284"><ele>367.5</ele><time>2026-04-18T07:59:09.311Z</time></trkpt><trkpt lat="43.4036604" lon="10.9193385"><ele>367.0</ele><time>2026-04-18T07:59:10.315Z</time></trkpt><trkpt lat="43.403706" lon="10.9191453"><ele>366.5</ele><time>2026-04-18T07:59:11.314Z</time></trkpt><trkpt lat="43.4037381" lon="10.9189684"><ele>366.0</ele><time>2026-04-18T07:59:12.311Z</time></trkpt><trkpt lat="43.4037611" lon="10.9188059"><ele>365.20000000000005</ele><time>2026-04-18T07:59:13.311Z</time></trkpt><trkpt lat="43.4037684" lon="10.9186486"><ele>364.40000000000003</ele><time>2026-04-18T07:59:14.42Z</time></trkpt><trkpt lat="43.4037705" lon="10.9185107"><ele>363.6</ele><time>2026-04-18T07:59:15.434Z</time></trkpt><trkpt lat="43.4037578" lon="10.9183875"><ele>362.8</ele><time>2026-04-18T07:59:16.431Z</time></trkpt><trkpt lat="43.4037335" lon="10.9182754"><ele>362.0</ele><time>2026-04-18T07:59:17.41Z</time></trkpt><trkpt lat="43.4036955" lon="10.9181578"><ele>360.8</ele><time>2026-04-18T07:59:18.429Z</time></trkpt><trkpt lat="43.4036401" lon="10.91803"><ele>359.6</ele><time>2026-04-18T07:59:19.406Z</time></trkpt><trkpt lat="43.4035763" lon="10.9179055"><ele>358.40000000000003</ele><time>2026-04-18T07:59:20.409Z</time></trkpt><trkpt lat="43.4035141" lon="10.9177766"><ele>357.20000000000005</ele><time>2026-04-18T07:59:21.437Z</time></trkpt><trkpt lat="43.4034616" lon="10.9176544"><ele>356.0</ele><time>2026-04-18T07:59:22.437Z</time></trkpt><trkpt lat="43.4034218" lon="10.9175235"><ele>354.6</ele><time>2026-04-18T07:59:23.439Z</time></trkpt><trkpt lat="43.403394" lon="10.9173851"><ele>353.20000000000005</ele><time>2026-04-18T07:59:24.417Z</time></trkpt><trkpt lat="43.4033765" lon="10.9172545"><ele>351.79999999999995</ele><time>2026-04-18T07:59:25.439Z</time></trkpt><trkpt lat="43.4033381" lon="10.9170323"><ele>350.4</ele><time>2026-04-18T07:59:27.403Z</time></trkpt><trkpt lat="43.4033057" lon="10.9169306"><ele>349.0</ele><time>2026-04-18T07:59:28.389Z</time></trkpt><trkpt lat="43.4032643" lon="10.9168382"><ele>348.75</ele><time>2026-04-18T07:59:29.429Z</time></trkpt><trkpt lat="43.4031406" lon="10.9166553"><ele>348.5</ele><time>2026-04-18T07:59:31.429Z</time></trkpt><trkpt lat="43.4030571" lon="10.9165547"><ele>348.25</ele><time>2026-04-18T07:59:32.429Z</time></trkpt><trkpt lat="43.4029719" lon="10.9164547"><ele>348.0</ele><time>2026-04-18T07:59:33.408Z</time></trkpt><trkpt lat="43.4028933" lon="10.916361"><ele>348.0</ele><time>2026-04-18T07:59:34.425Z</time></trkpt><trkpt lat="43.4028113" lon="10.9162737"><ele>348.0</ele><time>2026-04-18T07:59:35.315Z</time></trkpt><trkpt lat="43.4027276" lon="10.9161858"><ele>348.0</ele><time>2026-04-18T07:59:36.317Z</time></trkpt><trkpt lat="43.402643" lon="10.9160967"><ele>348.0</ele><time>2026-04-18T07:59:37.373Z</time></trkpt><trkpt lat="43.402559" lon="10.9160128"><ele>348.0</ele><time>2026-04-18T07:59:38.412Z</time></trkpt><trkpt lat="43.402476" lon="10.9159366"><ele>346.0</ele><time>2026-04-18T07:59:39.318Z</time></trkpt><trkpt lat="43.4023985" lon="10.9158655"><ele>344.0</ele><time>2026-04-18T07:59:40.321Z</time></trkpt><trkpt lat="43.4023286" lon="10.9158002"><ele>342.0</ele><time>2026-04-18T07:59:41.438Z</time></trkpt><trkpt lat="43.4022725" lon="10.9157487"><ele>340.0</ele><time>2026-04-18T07:59:42.429Z</time></trkpt><trkpt lat="43.4022052" lon="10.9156059"><ele>338.0</ele><time>2026-04-18T07:59:45.442Z</time></trkpt><trkpt lat="43.4022704" lon="10.9155078"><ele>338.0</ele><time>2026-04-18T07:59:47.441Z</time></trkpt><trkpt lat="43.4023392" lon="10.9154768"><ele>338.0</ele><time>2026-04-18T07:59:48.44Z</time></trkpt><trkpt lat="43.4024193" lon="10.9154479"><ele>338.0</ele><time>2026-04-18T07:59:49.44Z</time></trkpt><trkpt lat="43.402497" lon="10.9154112"><ele>338.0</ele><time>2026-04-18T07:59:50.428Z</time></trkpt><trkpt lat="43.4025691" lon="10.9153592"><ele>338.0</ele><time>2026-04-18T07:59:51.428Z</time></trkpt><trkpt lat="43.402638" lon="10.9152945"><ele>338.0</ele><time>2026-04-18T07:59:52.411Z</time></trkpt><trkpt lat="43.4027035" lon="10.9152009"><ele>338.0</ele><time>2026-04-18T07:59:53.432Z</time></trkpt><trkpt lat="43.4027538" lon="10.9150819"><ele>338.0</ele><time>2026-04-18T07:59:54.411Z</time></trkpt><trkpt lat="43.4027948" lon="10.9149343"><ele>338.0</ele><time>2026-04-18T07:59:55.321Z</time></trkpt><trkpt lat="43.402836" lon="10.9147618"><ele>338.0</ele><time>2026-04-18T07:59:56.439Z</time></trkpt><trkpt lat="43.4029233" lon="10.9143496"><ele>332.6666666666667</ele><time>2026-04-18T07:59:58.319Z</time></trkpt><trkpt lat="43.4029632" lon="10.9141287"><ele>327.3333333333333</ele><time>2026-04-18T07:59:59.417Z</time></trkpt><trkpt lat="43.4029923" lon="10.9139039"><ele>322.0</ele><time>2026-04-18T08:00:00.415Z</time></trkpt><trkpt lat="43.403014" lon="10.9136726"><ele>322.0</ele><time>2026-04-18T08:00:01.423Z</time></trkpt><trkpt lat="43.4030248" lon="10.9134434"><ele>322.0</ele><time>2026-04-18T08:00:02.426Z</time></trkpt><trkpt lat="43.4030211" lon="10.9132187"><ele>322.0</ele><time>2026-04-18T08:00:03.327Z</time></trkpt><trkpt lat="43.4030079" lon="10.9129823"><ele>322.3333333333333</ele><time>2026-04-18T08:00:04.434Z</time></trkpt><trkpt lat="43.4029835" lon="10.9127487"><ele>322.6666666666667</ele><time>2026-04-18T08:00:05.394Z</time></trkpt><trkpt lat="43.4029574" lon="10.91249"><ele>323.0</ele><time>2026-04-18T08:00:06.439Z</time></trkpt><trkpt lat="43.4029288" lon="10.9122153"><ele>323.0</ele><time>2026-04-18T08:00:07.425Z</time></trkpt><trkpt lat="43.4028947" lon="10.9119189"><ele>323.0</ele><time>2026-04-18T08:00:08.411Z</time></trkpt><trkpt lat="43.4028611" lon="10.9116405"><ele>323.0</ele><time>2026-04-18T08:00:09.319Z</time></trkpt><trkpt lat="43.4028294" lon="10.911377"><ele>325.0</ele><time>2026-04-18T08:00:10.321Z</time></trkpt><trkpt lat="43.4028027" lon="10.9111431"><ele>327.0</ele><time>2026-04-18T08:00:11.432Z</time></trkpt><trkpt lat="43.4027735" lon="10.9109354"><ele>329.0</ele><time>2026-04-18T08:00:12.45Z</time></trkpt><trkpt lat="43.402733" lon="10.9107412"><ele>330.5</ele><time>2026-04-18T08:00:13.435Z</time></trkpt><trkpt lat="43.4026791" lon="10.9105464"><ele>332.0</ele><time>2026-04-18T08:00:14.407Z</time></trkpt><trkpt lat="43.4026146" lon="10.9103664"><ele>333.5</ele><time>2026-04-18T08:00:15.403Z</time></trkpt><trkpt lat="43.402543" lon="10.9101864"><ele>335.0</ele><time>2026-04-18T08:00:16.436Z</time></trkpt><trkpt lat="43.4024768" lon="10.910004"><ele>337.6666666666667</ele><time>2026-04-18T08:00:17.439Z</time></trkpt><trkpt lat="43.4024067" lon="10.9098176"><ele>340.3333333333333</ele><time>2026-04-18T08:00:18.436Z</time></trkpt><trkpt lat="43.4023357" lon="10.9096257"><ele>343.0</ele><time>2026-04-18T08:00:19.439Z</time></trkpt><trkpt lat="43.4022615" lon="10.9094276"><ele>343.75</ele><time>2026-04-18T08:00:20.447Z</time></trkpt><trkpt lat="43.4021823" lon="10.9092234"><ele>344.5</ele><time>2026-04-18T08:00:21.412Z</time></trkpt><trkpt lat="43.4021139" lon="10.9090419"><ele>345.25</ele><time>2026-04-18T08:00:22.421Z</time></trkpt><trkpt lat="43.4020577" lon="10.9088845"><ele>346.0</ele><time>2026-04-18T08:00:23.41Z</time></trkpt><trkpt lat="43.4020054" lon="10.9087554"><ele>346.0</ele><time>2026-04-18T08:00:24.434Z</time></trkpt><trkpt lat="43.4019584" lon="10.9086517"><ele>346.0</ele><time>2026-04-18T08:00:25.435Z</time></trkpt><trkpt lat="43.401866" lon="10.9085291"><ele>346.0</ele><time>2026-04-18T08:00:27.415Z</time></trkpt><trkpt lat="43.401806" lon="10.9084973"><ele>346.0</ele><time>2026-04-18T08:00:28.429Z</time></trkpt><trkpt lat="43.4017399" lon="10.9084823"><ele>346.0</ele><time>2026-04-18T08:00:29.433Z</time></trkpt><trkpt lat="43.4016681" lon="10.9084788"><ele>346.0</ele><time>2026-04-18T08:00:30.437Z</time></trkpt><trkpt lat="43.4014689" lon="10.9085077"><ele>346.0</ele><time>2026-04-18T08:00:32.416Z</time></trkpt><trkpt lat="43.4013655" lon="10.908523"><ele>346.0</ele><time>2026-04-18T08:00:33.43Z</time></trkpt><trkpt lat="43.4011267" lon="10.9085536"><ele>346.0</ele><time>2026-04-18T08:00:35.315Z</time></trkpt><trkpt lat="43.4009989" lon="10.9085575"><ele>346.0</ele><time>2026-04-18T08:00:36.316Z</time></trkpt><trkpt lat="43.4008792" lon="10.9085667"><ele>346.0</ele><time>2026-04-18T08:00:37.313Z</time></trkpt><trkpt lat="43.4007502" lon="10.9085794"><ele>346.0</ele><time>2026-04-18T08:00:38.314Z</time></trkpt><trkpt lat="43.4006259" lon="10.9085923"><ele>346.0</ele><time>2026-04-18T08:00:39.315Z</time></trkpt><trkpt lat="43.4005182" lon="10.9086105"><ele>346.4</ele><time>2026-04-18T08:00:40.318Z</time></trkpt><trkpt lat="43.4004148" lon="10.9086287"><ele>346.8</ele><time>2026-04-18T08:00:41.319Z</time></trkpt><trkpt lat="43.4003393" lon="10.9086402"><ele>347.2</ele><time>2026-04-18T08:00:42.321Z</time></trkpt><trkpt lat="43.4002283" lon="10.9085912"><ele>347.59999999999997</ele><time>2026-04-18T08:00:44.439Z</time></trkpt><trkpt lat="43.4001597" lon="10.9084929"><ele>348.0</ele><time>2026-04-18T08:00:46.413Z</time></trkpt><trkpt lat="43.4001175" lon="10.9083298"><ele>348.59999999999997</ele><time>2026-04-18T08:00:48.373Z</time></trkpt><trkpt lat="43.4000876" lon="10.9082445"><ele>349.2</ele><time>2026-04-18T08:00:49.317Z</time></trkpt><trkpt lat="43.4000488" lon="10.908158"><ele>349.8</ele><time>2026-04-18T08:00:50.39Z</time></trkpt><trkpt lat="43.400013" lon="10.9080657"><ele>350.4</ele><time>2026-04-18T08:00:51.434Z</time></trkpt><trkpt lat="43.3999756" lon="10.9078531"><ele>351.0</ele><time>2026-04-18T08:00:53.313Z</time></trkpt><trkpt lat="43.399986" lon="10.9077347"><ele>351.0</ele><time>2026-04-18T08:00:54.315Z</time></trkpt><trkpt lat="43.4000077" lon="10.9076013"><ele>351.0</ele><time>2026-04-18T08:00:55.32Z</time></trkpt><trkpt lat="43.4000375" lon="10.9074566"><ele>351.0</ele><time>2026-04-18T08:00:56.315Z</time></trkpt><trkpt lat="43.4000695" lon="10.9073108"><ele>351.0</ele><time>2026-04-18T08:00:57.318Z</time></trkpt><trkpt lat="43.4001012" lon="10.9071773"><ele>351.0</ele><time>2026-04-18T08:00:58.319Z</time></trkpt><trkpt lat="43.4001304" lon="10.9070538"><ele>349.6</ele><time>2026-04-18T08:00:59.319Z</time></trkpt><trkpt lat="43.4001589" lon="10.9069414"><ele>348.20000000000005</ele><time>2026-04-18T08:01:00.438Z</time></trkpt><trkpt lat="43.4001877" lon="10.9068318"><ele>346.79999999999995</ele><time>2026-04-18T08:01:01.431Z</time></trkpt><trkpt lat="43.4002348" lon="10.9066353"><ele>345.4</ele><time>2026-04-18T08:01:03.329Z</time></trkpt><trkpt lat="43.4002566" lon="10.9065487"><ele>344.0</ele><time>2026-04-18T08:01:04.316Z</time></trkpt><trkpt lat="43.4002702" lon="10.9064567"><ele>343.5</ele><time>2026-04-18T08:01:05.415Z</time></trkpt><trkpt lat="43.4002752" lon="10.9063469"><ele>343.0</ele><time>2026-04-18T08:01:06.392Z</time></trkpt><trkpt lat="43.4002706" lon="10.9062375"><ele>342.5</ele><time>2026-04-18T08:01:07.411Z</time></trkpt><trkpt lat="43.4002532" lon="10.9061178"><ele>342.0</ele><time>2026-04-18T08:01:08.323Z</time></trkpt><trkpt lat="43.4002227" lon="10.9060079"><ele>341.5</ele><time>2026-04-18T08:01:09.404Z</time></trkpt><trkpt lat="43.4001733" lon="10.9058843"><ele>341.0</ele><time>2026-04-18T08:01:10.396Z</time></trkpt><trkpt lat="43.400113" lon="10.9057607"><ele>341.0</ele><time>2026-04-18T08:01:11.319Z</time></trkpt><trkpt lat="43.4000483" lon="10.9056273"><ele>341.0</ele><time>2026-04-18T08:01:12.426Z</time></trkpt><trkpt lat="43.3999908" lon="10.9055054"><ele>341.0</ele><time>2026-04-18T08:01:13.412Z</time></trkpt><trkpt lat="43.3999423" lon="10.905387"><ele>341.0</ele><time>2026-04-18T08:01:14.437Z</time></trkpt><trkpt lat="43.3999058" lon="10.9052798"><ele>341.0</ele><time>2026-04-18T08:01:15.441Z</time></trkpt><trkpt lat="43.3998751" lon="10.9051797"><ele>341.0</ele><time>2026-04-18T08:01:16.427Z</time></trkpt><trkpt lat="43.3998562" lon="10.9050965"><ele>341.0</ele><time>2026-04-18T08:01:17.409Z</time></trkpt><trkpt lat="43.3998216" lon="10.9049693"><ele>341.0</ele><time>2026-04-18T08:01:19.428Z</time></trkpt><trkpt lat="43.3997324" lon="10.904934"><ele>341.0</ele><time>2026-04-18T08:01:22.314Z</time></trkpt><trkpt lat="43.3996757" lon="10.9050122"><ele>341.0</ele><time>2026-04-18T08:01:24.315Z</time></trkpt><trkpt lat="43.3996546" lon="10.9051434"><ele>341.0</ele><time>2026-04-18T08:01:26.388Z</time></trkpt><trkpt lat="43.3996811" lon="10.9052878"><ele>341.0</ele><time>2026-04-18T08:01:28.315Z</time></trkpt><trkpt lat="43.399731" lon="10.9054174"><ele>341.0</ele><time>2026-04-18T08:01:30.403Z</time></trkpt><trkpt lat="43.3997309" lon="10.9055291"><ele>341.0</ele><time>2026-04-18T08:01:32.411Z</time></trkpt><trkpt lat="43.3996841" lon="10.9055956"><ele>341.0</ele><time>2026-04-18T08:01:34.418Z</time></trkpt><trkpt lat="43.3995928" lon="10.9055825"><ele>341.0</ele><time>2026-04-18T08:01:36.32Z</time></trkpt><trkpt lat="43.3994988" lon="10.9054812"><ele>336.0</ele><time>2026-04-18T08:01:38.426Z</time></trkpt><trkpt lat="43.3994251" lon="10.9053156"><ele>331.0</ele><time>2026-04-18T08:01:40.315Z</time></trkpt><trkpt lat="43.3993999" lon="10.9052273"><ele>326.0</ele><time>2026-04-18T08:01:41.3Z</time></trkpt><trkpt lat="43.3993801" lon="10.9051444"><ele>321.0</ele><time>2026-04-18T08:01:42.31Z</time></trkpt><trkpt lat="43.39933" lon="10.904993"><ele>316.0</ele><time>2026-04-18T08:01:44.405Z</time></trkpt><trkpt lat="43.399281" lon="10.9048518"><ele>316.0</ele><time>2026-04-18T08:01:46.315Z</time></trkpt><trkpt lat="43.3992647" lon="10.9046902"><ele>316.0</ele><time>2026-04-18T08:01:48.318Z</time></trkpt><trkpt lat="43.3992879" lon="10.9046024"><ele>316.0</ele><time>2026-04-18T08:01:49.322Z</time></trkpt><trkpt lat="43.3993238" lon="10.9045296"><ele>316.0</ele><time>2026-04-18T08:01:50.316Z</time></trkpt><trkpt lat="43.3993744" lon="10.9044677"><ele>316.0</ele><time>2026-04-18T08:01:51.316Z</time></trkpt><trkpt lat="43.3994231" lon="10.9044084"><ele>316.0</ele><time>2026-04-18T08:01:52.321Z</time></trkpt><trkpt lat="43.3994976" lon="10.9042811"><ele>316.0</ele><time>2026-04-18T08:01:54.43Z</time></trkpt><trkpt lat="43.3995363" lon="10.9041511"><ele>316.0</ele><time>2026-04-18T08:01:56.408Z</time></trkpt><trkpt lat="43.3995231" lon="10.904042"><ele>316.0</ele><time>2026-04-18T08:01:58.426Z</time></trkpt><trkpt lat="43.3994737" lon="10.9039843"><ele>316.0</ele><time>2026-04-18T08:02:00.312Z</time></trkpt><trkpt lat="43.3994015" lon="10.9039991"><ele>316.0</ele><time>2026-04-18T08:02:02.432Z</time></trkpt><trkpt lat="43.3993139" lon="10.9040771"><ele>316.0</ele><time>2026-04-18T08:02:04.412Z</time></trkpt><trkpt lat="43.3991584" lon="10.9042494"><ele>316.0</ele><time>2026-04-18T08:02:07.314Z</time></trkpt><trkpt lat="43.399106" lon="10.9043155"><ele>316.0</ele><time>2026-04-18T08:02:08.413Z</time></trkpt><trkpt lat="43.3990561" lon="10.9043817"><ele>316.0</ele><time>2026-04-18T08:02:09.435Z</time></trkpt><trkpt lat="43.3990135" lon="10.9044574"><ele>316.0</ele><time>2026-04-18T08:02:10.367Z</time></trkpt><trkpt lat="43.3989743" lon="10.9045483"><ele>316.0</ele><time>2026-04-18T08:02:11.317Z</time></trkpt><trkpt lat="43.3989379" lon="10.9046519"><ele>316.0</ele><time>2026-04-18T08:02:12.317Z</time></trkpt><trkpt lat="43.3988992" lon="10.9047765"><ele>316.0</ele><time>2026-04-18T08:02:13.426Z</time></trkpt><trkpt lat="43.3988589" lon="10.904902"><ele>316.0</ele><time>2026-04-18T08:02:14.437Z</time></trkpt><trkpt lat="43.3988161" lon="10.9050174"><ele>316.0</ele><time>2026-04-18T08:02:15.441Z</time></trkpt><trkpt lat="43.3987288" lon="10.9052233"><ele>316.0</ele><time>2026-04-18T08:02:17.311Z</time></trkpt><trkpt lat="43.3986901" lon="10.9053165"><ele>316.0</ele><time>2026-04-18T08:02:18.435Z</time></trkpt><trkpt lat="43.3986535" lon="10.9054042"><ele>312.2</ele><time>2026-04-18T08:02:19.356Z</time></trkpt><trkpt lat="43.3986206" lon="10.9054885"><ele>308.40000000000003</ele><time>2026-04-18T08:02:20.412Z</time></trkpt><trkpt lat="43.3985884" lon="10.9055711"><ele>304.6</ele><time>2026-04-18T08:02:21.432Z</time></trkpt><trkpt lat="43.3984892" lon="10.9056767"><ele>300.8</ele><time>2026-04-18T08:02:23.315Z</time></trkpt><trkpt lat="43.3983725" lon="10.9056636"><ele>297.0</ele><time>2026-04-18T08:02:25.318Z</time></trkpt><trkpt lat="43.3983184" lon="10.9056029"><ele>297.0</ele><time>2026-04-18T08:02:26.319Z</time></trkpt><trkpt lat="43.3982775" lon="10.9055141"><ele>297.0</ele><time>2026-04-18T08:02:27.381Z</time></trkpt><trkpt lat="43.3982531" lon="10.9053963"><ele>297.0</ele><time>2026-04-18T08:02:28.317Z</time></trkpt><trkpt lat="43.3982281" lon="10.9052797"><ele>297.0</ele><time>2026-04-18T08:02:29.32Z</time></trkpt><trkpt lat="43.398206" lon="10.9051663"><ele>297.0</ele><time>2026-04-18T08:02:30.309Z</time></trkpt><trkpt lat="43.3981889" lon="10.9050582"><ele>297.0</ele><time>2026-04-18T08:02:31.424Z</time></trkpt><trkpt lat="43.398159" lon="10.9048621"><ele>296.5</ele><time>2026-04-18T08:02:33.31Z</time></trkpt><trkpt lat="43.3981624" lon="10.9047545"><ele>296.0</ele><time>2026-04-18T08:02:34.426Z</time></trkpt><trkpt lat="43.3981884" lon="10.9046493"><ele>295.5</ele><time>2026-04-18T08:02:35.403Z</time></trkpt><trkpt lat="43.3982158" lon="10.9045499"><ele>295.0</ele><time>2026-04-18T08:02:36.43Z</time></trkpt><trkpt lat="43.3982408" lon="10.9044528"><ele>294.5</ele><time>2026-04-18T08:02:37.428Z</time></trkpt><trkpt lat="43.3982669" lon="10.9043671"><ele>294.0</ele><time>2026-04-18T08:02:38.406Z</time></trkpt><trkpt lat="43.3983105" lon="10.9042363"><ele>294.0</ele><time>2026-04-18T08:02:40.318Z</time></trkpt><trkpt lat="43.3982791" lon="10.9041401"><ele>294.0</ele><time>2026-04-18T08:02:42.312Z</time></trkpt><trkpt lat="43.3981901" lon="10.9041319"><ele>294.0</ele><time>2026-04-18T08:02:44.319Z</time></trkpt><trkpt lat="43.3980931" lon="10.9042007"><ele>294.0</ele><time>2026-04-18T08:02:46.314Z</time></trkpt><trkpt lat="43.3980387" lon="10.9042606"><ele>294.0</ele><time>2026-04-18T08:02:47.42Z</time></trkpt><trkpt lat="43.3979377" lon="10.9043991"><ele>291.1666666666667</ele><time>2026-04-18T08:02:49.316Z</time></trkpt><trkpt lat="43.3978916" lon="10.9044779"><ele>288.3333333333333</ele><time>2026-04-18T08:02:50.315Z</time></trkpt><trkpt lat="43.3978448" lon="10.9045819"><ele>285.5</ele><time>2026-04-18T08:02:51.317Z</time></trkpt><trkpt lat="43.3977999" lon="10.9046895"><ele>282.66666666666663</ele><time>2026-04-18T08:02:52.319Z</time></trkpt><trkpt lat="43.3977546" lon="10.9047958"><ele>279.8333333333333</ele><time>2026-04-18T08:02:53.317Z</time></trkpt><trkpt lat="43.3977165" lon="10.9049057"><ele>277.0</ele><time>2026-04-18T08:02:54.316Z</time></trkpt><trkpt lat="43.3976724" lon="10.9050224"><ele>277.6</ele><time>2026-04-18T08:02:55.316Z</time></trkpt><trkpt lat="43.3976328" lon="10.9051382"><ele>278.2</ele><time>2026-04-18T08:02:56.414Z</time></trkpt><trkpt lat="43.3975506" lon="10.9053646"><ele>278.8</ele><time>2026-04-18T08:02:58.317Z</time></trkpt><trkpt lat="43.3975114" lon="10.9054688"><ele>279.4</ele><time>2026-04-18T08:02:59.317Z</time></trkpt><trkpt lat="43.3974721" lon="10.9055639"><ele>280.0</ele><time>2026-04-18T08:03:00.315Z</time></trkpt><trkpt lat="43.3974406" lon="10.9056563"><ele>280.0</ele><time>2026-04-18T08:03:01.317Z</time></trkpt><trkpt lat="43.397414" lon="10.9057507"><ele>280.0</ele><time>2026-04-18T08:03:02.32Z</time></trkpt><trkpt lat="43.3973624" lon="10.9059008"><ele>280.0</ele><time>2026-04-18T08:03:04.319Z</time></trkpt><trkpt lat="43.3972962" lon="10.9059267"><ele>280.0</ele><time>2026-04-18T08:03:06.314Z</time></trkpt><trkpt lat="43.3972208" lon="10.9058861"><ele>280.0</ele><time>2026-04-18T08:03:08.319Z</time></trkpt><trkpt lat="43.3971891" lon="10.9058082"><ele>280.0</ele><time>2026-04-18T08:03:09.325Z</time></trkpt><trkpt lat="43.3971255" lon="10.9056442"><ele>277.3333333333333</ele><time>2026-04-18T08:03:10.319Z</time></trkpt><trkpt lat="43.3970889" lon="10.9055426"><ele>274.66666666666663</ele><time>2026-04-18T08:03:11.312Z</time></trkpt><trkpt lat="43.3970614" lon="10.9054399"><ele>272.0</ele><time>2026-04-18T08:03:12.316Z</time></trkpt><trkpt lat="43.3970297" lon="10.9053647"><ele>269.3333333333333</ele><time>2026-04-18T08:03:13.317Z</time></trkpt><trkpt lat="43.3969843" lon="10.9052593"><ele>266.6666666666667</ele><time>2026-04-18T08:03:15.317Z</time></trkpt><trkpt lat="43.3969172" lon="10.9052165"><ele>264.0</ele><time>2026-04-18T08:03:17.317Z</time></trkpt><trkpt lat="43.3968346" lon="10.9052886"><ele>264.0</ele><time>2026-04-18T08:03:19.321Z</time></trkpt><trkpt lat="43.39677" lon="10.905445"><ele>264.0</ele><time>2026-04-18T08:03:21.315Z</time></trkpt><trkpt lat="43.3967374" lon="10.9055391"><ele>264.0</ele><time>2026-04-18T08:03:22.317Z</time></trkpt><trkpt lat="43.3966994" lon="10.90562"><ele>264.0</ele><time>2026-04-18T08:03:23.317Z</time></trkpt><trkpt lat="43.3966505" lon="10.9056971"><ele>264.0</ele><time>2026-04-18T08:03:24.321Z</time></trkpt><trkpt lat="43.3965824" lon="10.9057417"><ele>264.0</ele><time>2026-04-18T08:03:25.322Z</time></trkpt><trkpt lat="43.3965154" lon="10.9057523"><ele>264.0</ele><time>2026-04-18T08:03:26.316Z</time></trkpt><trkpt lat="43.3964452" lon="10.9057561"><ele>264.0</ele><time>2026-04-18T08:03:27.318Z</time></trkpt><trkpt lat="43.3964142" lon="10.9056782"><ele>264.0</ele><time>2026-04-18T08:03:28.321Z</time></trkpt><trkpt lat="43.3963823" lon="10.9055984"><ele>264.0</ele><time>2026-04-18T08:03:29.316Z</time></trkpt><trkpt lat="43.3963727" lon="10.9055074"><ele>264.0</ele><time>2026-04-18T08:03:30.315Z</time></trkpt><trkpt lat="43.3963672" lon="10.9054114"><ele>264.0</ele><time>2026-04-18T08:03:31.306Z</time></trkpt><trkpt lat="43.3963779" lon="10.9053067"><ele>264.0</ele><time>2026-04-18T08:03:32.315Z</time></trkpt><trkpt lat="43.3964109" lon="10.9051878"><ele>264.2</ele><time>2026-04-18T08:03:33.315Z</time></trkpt><trkpt lat="43.3964617" lon="10.9050408"><ele>264.4</ele><time>2026-04-18T08:03:34.318Z</time></trkpt><trkpt lat="43.3964909" lon="10.9049121"><ele>264.6</ele><time>2026-04-18T08:03:35.314Z</time></trkpt><trkpt lat="43.396505" lon="10.9048011"><ele>264.8</ele><time>2026-04-18T08:03:36.312Z</time></trkpt><trkpt lat="43.39651" lon="10.9046799"><ele>265.0</ele><time>2026-04-18T08:03:37.315Z</time></trkpt><trkpt lat="43.3965094" lon="10.9045783"><ele>265.0</ele><time>2026-04-18T08:03:38.311Z</time></trkpt><trkpt lat="43.3964966" lon="10.9044607"><ele>265.0</ele><time>2026-04-18T08:03:39.314Z</time></trkpt><trkpt lat="43.3964765" lon="10.9043259"><ele>265.0</ele><time>2026-04-18T08:03:40.316Z</time></trkpt><trkpt lat="43.3964398" lon="10.9042352"><ele>265.0</ele><time>2026-04-18T08:03:41.314Z</time></trkpt><trkpt lat="43.3964163" lon="10.9041102"><ele>265.0</ele><time>2026-04-18T08:03:42.315Z</time></trkpt><trkpt lat="43.396385" lon="10.9039787"><ele>264.2</ele><time>2026-04-18T08:03:43.318Z</time></trkpt><trkpt lat="43.3963503" lon="10.9038647"><ele>263.4</ele><time>2026-04-18T08:03:44.319Z</time></trkpt><trkpt lat="43.3963277" lon="10.9037311"><ele>262.6</ele><time>2026-04-18T08:03:45.315Z</time></trkpt><trkpt lat="43.3963334" lon="10.9035815"><ele>261.8</ele><time>2026-04-18T08:03:46.324Z</time></trkpt><trkpt lat="43.3963395" lon="10.9034066"><ele>261.0</ele><time>2026-04-18T08:03:47.315Z</time></trkpt><trkpt lat="43.3963415" lon="10.9032582"><ele>258.8333333333333</ele><time>2026-04-18T08:03:48.315Z</time></trkpt><trkpt lat="43.3963376" lon="10.9031443"><ele>256.6666666666667</ele><time>2026-04-18T08:03:49.315Z</time></trkpt><trkpt lat="43.3963486" lon="10.9030416"><ele>254.5</ele><time>2026-04-18T08:03:50.315Z</time></trkpt><trkpt lat="43.3963646" lon="10.902933"><ele>252.33333333333334</ele><time>2026-04-18T08:03:51.316Z</time></trkpt><trkpt lat="43.3964718" lon="10.9028724"><ele>250.16666666666669</ele><time>2026-04-18T08:03:53.317Z</time></trkpt><trkpt lat="43.3965287" lon="10.9028321"><ele>248.0</ele><time>2026-04-18T08:03:54.314Z</time></trkpt><trkpt lat="43.3965893" lon="10.9027954"><ele>248.0</ele><time>2026-04-18T08:03:55.319Z</time></trkpt><trkpt lat="43.3966556" lon="10.902685"><ele>248.0</ele><time>2026-04-18T08:03:57.316Z</time></trkpt><trkpt lat="43.3966286" lon="10.9025462"><ele>248.0</ele><time>2026-04-18T08:03:59.312Z</time></trkpt><trkpt lat="43.3965267" lon="10.9024701"><ele>248.0</ele><time>2026-04-18T08:04:01.313Z</time></trkpt><trkpt lat="43.3964582" lon="10.9024509"><ele>248.0</ele><time>2026-04-18T08:04:02.319Z</time></trkpt><trkpt lat="43.3963839" lon="10.9024673"><ele>245.83333333333334</ele><time>2026-04-18T08:04:03.314Z</time></trkpt><trkpt lat="43.3963168" lon="10.9024892"><ele>243.66666666666669</ele><time>2026-04-18T08:04:04.319Z</time></trkpt><trkpt lat="43.396254" lon="10.9025265"><ele>241.5</ele><time>2026-04-18T08:04:05.319Z</time></trkpt><trkpt lat="43.3961884" lon="10.9025812"><ele>239.33333333333331</ele><time>2026-04-18T08:04:06.316Z</time></trkpt><trkpt lat="43.3961261" lon="10.9026527"><ele>237.16666666666666</ele><time>2026-04-18T08:04:07.32Z</time></trkpt><trkpt lat="43.39607" lon="10.9027442"><ele>235.0</ele><time>2026-04-18T08:04:08.319Z</time></trkpt><trkpt lat="43.3960159" lon="10.9028346"><ele>234.99999999999997</ele><time>2026-04-18T08:04:09.316Z</time></trkpt><trkpt lat="43.395963" lon="10.9029238"><ele>235.0</ele><time>2026-04-18T08:04:10.321Z</time></trkpt><trkpt lat="43.3959129" lon="10.9030016"><ele>235.0</ele><time>2026-04-18T08:04:11.306Z</time></trkpt><trkpt lat="43.3958663" lon="10.9030745"><ele>235.0</ele><time>2026-04-18T08:04:12.312Z</time></trkpt><trkpt lat="43.3958255" lon="10.9031597"><ele>234.99999999999997</ele><time>2026-04-18T08:04:13.312Z</time></trkpt><trkpt lat="43.3957902" lon="10.9032564"><ele>235.0</ele><time>2026-04-18T08:04:14.318Z</time></trkpt><trkpt lat="43.3957721" lon="10.9033624"><ele>235.83333333333331</ele><time>2026-04-18T08:04:15.312Z</time></trkpt><trkpt lat="43.3957785" lon="10.9034785"><ele>236.66666666666666</ele><time>2026-04-18T08:04:16.314Z</time></trkpt><trkpt lat="43.3957769" lon="10.9035699"><ele>237.5</ele><time>2026-04-18T08:04:17.316Z</time></trkpt><trkpt lat="43.3957745" lon="10.9036587"><ele>238.33333333333331</ele><time>2026-04-18T08:04:18.311Z</time></trkpt><trkpt lat="43.3957531" lon="10.9037982"><ele>239.16666666666666</ele><time>2026-04-18T08:04:20.318Z</time></trkpt><trkpt lat="43.3956764" lon="10.9038835"><ele>240.0</ele><time>2026-04-18T08:04:22.321Z</time></trkpt><trkpt lat="43.3955974" lon="10.9038475"><ele>240.0</ele><time>2026-04-18T08:04:24.317Z</time></trkpt><trkpt lat="43.3955573" lon="10.9037213"><ele>240.0</ele><time>2026-04-18T08:04:26.324Z</time></trkpt><trkpt lat="43.3955445" lon="10.903623"><ele>240.0</ele><time>2026-04-18T08:04:27.317Z</time></trkpt><trkpt lat="43.3955399" lon="10.9035032"><ele>240.0</ele><time>2026-04-18T08:04:28.316Z</time></trkpt><trkpt lat="43.3955277" lon="10.9033796"><ele>240.0</ele><time>2026-04-18T08:04:29.316Z</time></trkpt><trkpt lat="43.3955159" lon="10.903254"><ele>240.0</ele><time>2026-04-18T08:04:30.316Z</time></trkpt><trkpt lat="43.3955077" lon="10.9031385"><ele>239.16666666666666</ele><time>2026-04-18T08:04:31.316Z</time></trkpt><trkpt lat="43.3955071" lon="10.9030202"><ele>238.33333333333331</ele><time>2026-04-18T08:04:32.319Z</time></trkpt><trkpt lat="43.3955087" lon="10.9029109"><ele>237.5</ele><time>2026-04-18T08:04:33.315Z</time></trkpt><trkpt lat="43.3955114" lon="10.9028144"><ele>236.66666666666666</ele><time>2026-04-18T08:04:34.32Z</time></trkpt><trkpt lat="43.3954969" lon="10.9026589"><ele>235.83333333333331</ele><time>2026-04-18T08:04:36.319Z</time></trkpt><trkpt lat="43.3954213" lon="10.9025725"><ele>235.0</ele><time>2026-04-18T08:04:38.316Z</time></trkpt><trkpt lat="43.3952997" lon="10.9025644"><ele>234.49999999999997</ele><time>2026-04-18T08:04:40.305Z</time></trkpt><trkpt lat="43.3952254" lon="10.9025797"><ele>234.0</ele><time>2026-04-18T08:04:41.312Z</time></trkpt><trkpt lat="43.3951453" lon="10.9025947"><ele>233.5</ele><time>2026-04-18T08:04:42.315Z</time></trkpt><trkpt lat="43.3950635" lon="10.9025988"><ele>233.0</ele><time>2026-04-18T08:04:43.315Z</time></trkpt><trkpt lat="43.3949834" lon="10.9025835"><ele>232.49999999999997</ele><time>2026-04-18T08:04:44.315Z</time></trkpt><trkpt lat="43.394912" lon="10.9025626"><ele>232.0</ele><time>2026-04-18T08:04:45.315Z</time></trkpt><trkpt lat="43.3948518" lon="10.9025315"><ele>231.39999999999998</ele><time>2026-04-18T08:04:46.315Z</time></trkpt><trkpt lat="43.3947863" lon="10.9024251"><ele>230.79999999999998</ele><time>2026-04-18T08:04:48.315Z</time></trkpt><trkpt lat="43.3948181" lon="10.9022833"><ele>230.2</ele><time>2026-04-18T08:04:50.321Z</time></trkpt><trkpt lat="43.3948653" lon="10.902201"><ele>229.6</ele><time>2026-04-18T08:04:51.312Z</time></trkpt><trkpt lat="43.3949264" lon="10.9021018"><ele>229.0</ele><time>2026-04-18T08:04:52.31Z</time></trkpt><trkpt lat="43.394987" lon="10.9019837"><ele>229.0</ele><time>2026-04-18T08:04:53.307Z</time></trkpt><trkpt lat="43.395045" lon="10.9018507"><ele>228.99999999999997</ele><time>2026-04-18T08:04:54.319Z</time></trkpt><trkpt lat="43.3951052" lon="10.901715"><ele>228.99999999999997</ele><time>2026-04-18T08:04:55.31Z</time></trkpt><trkpt lat="43.3951532" lon="10.9015898"><ele>229.0</ele><time>2026-04-18T08:04:56.319Z</time></trkpt><trkpt lat="43.3951922" lon="10.9014816"><ele>229.0</ele><time>2026-04-18T08:04:57.313Z</time></trkpt><trkpt lat="43.3952176" lon="10.9013689"><ele>229.16666666666666</ele><time>2026-04-18T08:04:58.308Z</time></trkpt><trkpt lat="43.3952306" lon="10.9012529"><ele>229.33333333333331</ele><time>2026-04-18T08:04:59.316Z</time></trkpt><trkpt lat="43.3952329" lon="10.9011369"><ele>229.5</ele><time>2026-04-18T08:05:00.316Z</time></trkpt><trkpt lat="43.3952225" lon="10.9010156"><ele>229.66666666666669</ele><time>2026-04-18T08:05:01.312Z</time></trkpt><trkpt lat="43.3952066" lon="10.900891"><ele>229.83333333333334</ele><time>2026-04-18T08:05:02.317Z</time></trkpt><trkpt lat="43.395207" lon="10.9007825"><ele>230.0</ele><time>2026-04-18T08:05:03.309Z</time></trkpt><trkpt lat="43.3952169" lon="10.9006707"><ele>231.75</ele><time>2026-04-18T08:05:04.309Z</time></trkpt><trkpt lat="43.3952397" lon="10.9005338"><ele>233.5</ele><time>2026-04-18T08:05:05.316Z</time></trkpt><trkpt lat="43.395271" lon="10.9003714"><ele>235.25</ele><time>2026-04-18T08:05:06.314Z</time></trkpt><trkpt lat="43.3953062" lon="10.9002059"><ele>237.0</ele><time>2026-04-18T08:05:07.316Z</time></trkpt><trkpt lat="43.3953417" lon="10.9000174"><ele>239.5</ele><time>2026-04-18T08:05:08.311Z</time></trkpt><trkpt lat="43.3953729" lon="10.8998345"><ele>242.0</ele><time>2026-04-18T08:05:09.311Z</time></trkpt><trkpt lat="43.3954048" lon="10.8996604"><ele>244.5</ele><time>2026-04-18T08:05:10.312Z</time></trkpt><trkpt lat="43.3954423" lon="10.8995136"><ele>247.0</ele><time>2026-04-18T08:05:11.312Z</time></trkpt><trkpt lat="43.3954994" lon="10.8993917"><ele>245.5</ele><time>2026-04-18T08:05:12.311Z</time></trkpt><trkpt lat="43.39557" lon="10.8992732"><ele>244.0</ele><time>2026-04-18T08:05:13.315Z</time></trkpt><trkpt lat="43.3956529" lon="10.8991465"><ele>242.5</ele><time>2026-04-18T08:05:14.312Z</time></trkpt><trkpt lat="43.3957324" lon="10.8990203"><ele>241.0</ele><time>2026-04-18T08:05:15.312Z</time></trkpt><trkpt lat="43.3958072" lon="10.8989143"><ele>240.99999999999997</ele><time>2026-04-18T08:05:16.313Z</time></trkpt><trkpt lat="43.3958749" lon="10.8988236"><ele>241.0</ele><time>2026-04-18T08:05:17.311Z</time></trkpt><trkpt lat="43.3959297" lon="10.8987409"><ele>241.0</ele><time>2026-04-18T08:05:18.311Z</time></trkpt><trkpt lat="43.3959719" lon="10.8986625"><ele>241.0</ele><time>2026-04-18T08:05:19.408Z</time></trkpt><trkpt lat="43.3960071" lon="10.8985794"><ele>240.99999999999997</ele><time>2026-04-18T08:05:20.427Z</time></trkpt><trkpt lat="43.3960407" lon="10.8984825"><ele>241.0</ele><time>2026-04-18T08:05:21.43Z</time></trkpt><trkpt lat="43.3960679" lon="10.8983781"><ele>241.16666666666666</ele><time>2026-04-18T08:05:22.431Z</time></trkpt><trkpt lat="43.3960971" lon="10.898283"><ele>241.33333333333331</ele><time>2026-04-18T08:05:23.432Z</time></trkpt><trkpt lat="43.3961404" lon="10.8981903"><ele>241.5</ele><time>2026-04-18T08:05:24.407Z</time></trkpt><trkpt lat="43.3962015" lon="10.8981046"><ele>241.66666666666669</ele><time>2026-04-18T08:05:25.4Z</time></trkpt><trkpt lat="43.3962779" lon="10.898034"><ele>241.83333333333334</ele><time>2026-04-18T08:05:26.428Z</time></trkpt><trkpt lat="43.3963635" lon="10.8979632"><ele>242.0</ele><time>2026-04-18T08:05:27.409Z</time></trkpt><trkpt lat="43.3964514" lon="10.8978874"><ele>242.0</ele><time>2026-04-18T08:05:28.316Z</time></trkpt><trkpt lat="43.3965389" lon="10.8978054"><ele>242.0</ele><time>2026-04-18T08:05:29.417Z</time></trkpt><trkpt lat="43.39661" lon="10.8977291"><ele>242.0</ele><time>2026-04-18T08:05:30.387Z</time></trkpt><trkpt lat="43.3966744" lon="10.8976573"><ele>242.0</ele><time>2026-04-18T08:05:31.405Z</time></trkpt><trkpt lat="43.3967278" lon="10.8975814"><ele>242.0</ele><time>2026-04-18T08:05:32.424Z</time></trkpt><trkpt lat="43.396805" lon="10.897385"><ele>244.8</ele><time>2026-04-18T08:05:34.393Z</time></trkpt><trkpt lat="43.3968289" lon="10.8972621"><ele>247.6</ele><time>2026-04-18T08:05:35.413Z</time></trkpt><trkpt lat="43.3968518" lon="10.8971362"><ele>250.40000000000003</ele><time>2026-04-18T08:05:36.407Z</time></trkpt><trkpt lat="43.3968892" lon="10.8970143"><ele>253.20000000000002</ele><time>2026-04-18T08:05:37.391Z</time></trkpt><trkpt lat="43.3969368" lon="10.8968964"><ele>256.0</ele><time>2026-04-18T08:05:38.409Z</time></trkpt><trkpt lat="43.3969778" lon="10.8967853"><ele>258.75</ele><time>2026-04-18T08:05:39.404Z</time></trkpt><trkpt lat="43.3970184" lon="10.896649"><ele>261.5</ele><time>2026-04-18T08:05:40.411Z</time></trkpt><trkpt lat="43.397057" lon="10.8964971"><ele>264.25</ele><time>2026-04-18T08:05:41.409Z</time></trkpt><trkpt lat="43.3971023" lon="10.8963382"><ele>267.0</ele><time>2026-04-18T08:05:42.431Z</time></trkpt><trkpt lat="43.3971621" lon="10.8961909"><ele>265.8</ele><time>2026-04-18T08:05:43.407Z</time></trkpt><trkpt lat="43.3972154" lon="10.896057"><ele>264.6</ele><time>2026-04-18T08:05:44.4Z</time></trkpt><trkpt lat="43.3972557" lon="10.8959196"><ele>263.40000000000003</ele><time>2026-04-18T08:05:45.361Z</time></trkpt><trkpt lat="43.3972826" lon="10.8957695"><ele>262.2</ele><time>2026-04-18T08:05:46.317Z</time></trkpt><trkpt lat="43.3973073" lon="10.8956175"><ele>261.0</ele><time>2026-04-18T08:05:47.312Z</time></trkpt><trkpt lat="43.3973434" lon="10.8954658"><ele>261.0</ele><time>2026-04-18T08:05:48.384Z</time></trkpt><trkpt lat="43.3973779" lon="10.8953194"><ele>261.0</ele><time>2026-04-18T08:05:49.393Z</time></trkpt><trkpt lat="43.3974634" lon="10.8951935"><ele>261.0</ele><time>2026-04-18T08:05:50.414Z</time></trkpt><trkpt lat="43.3975222" lon="10.8950645"><ele>261.0</ele><time>2026-04-18T08:05:51.421Z</time></trkpt><trkpt lat="43.3975931" lon="10.8949494"><ele>260.25</ele><time>2026-04-18T08:05:52.43Z</time></trkpt><trkpt lat="43.3976826" lon="10.894853"><ele>259.5</ele><time>2026-04-18T08:05:53.404Z</time></trkpt><trkpt lat="43.3977768" lon="10.8947732"><ele>258.75</ele><time>2026-04-18T08:05:54.425Z</time></trkpt><trkpt lat="43.3979577" lon="10.8946221"><ele>258.0</ele><time>2026-04-18T08:05:56.317Z</time></trkpt><trkpt lat="43.398051" lon="10.8945439"><ele>258.0</ele><time>2026-04-18T08:05:57.312Z</time></trkpt><trkpt lat="43.398135" lon="10.8944598"><ele>258.0</ele><time>2026-04-18T08:05:58.309Z</time></trkpt><trkpt lat="43.3982069" lon="10.8943706"><ele>258.0</ele><time>2026-04-18T08:05:59.314Z</time></trkpt><trkpt lat="43.3982735" lon="10.8942533"><ele>258.0</ele><time>2026-04-18T08:06:00.312Z</time></trkpt><trkpt lat="43.3983328" lon="10.8941417"><ele>258.0</ele><time>2026-04-18T08:06:01.312Z</time></trkpt><trkpt lat="43.3983973" lon="10.8940336"><ele>262.0</ele><time>2026-04-18T08:06:02.436Z</time></trkpt><trkpt lat="43.3984738" lon="10.8939255"><ele>266.0</ele><time>2026-04-18T08:06:03.399Z</time></trkpt><trkpt lat="43.3985565" lon="10.8938165"><ele>270.0</ele><time>2026-04-18T08:06:04.311Z</time></trkpt><trkpt lat="43.3986422" lon="10.8937109"><ele>274.0</ele><time>2026-04-18T08:06:05.314Z</time></trkpt><trkpt lat="43.398726" lon="10.8936086"><ele>274.0</ele><time>2026-04-18T08:06:06.316Z</time></trkpt><trkpt lat="43.3988024" lon="10.893507"><ele>274.0</ele><time>2026-04-18T08:06:07.423Z</time></trkpt><trkpt lat="43.3988895" lon="10.893411"><ele>274.0</ele><time>2026-04-18T08:06:08.409Z</time></trkpt><trkpt lat="43.3989767" lon="10.8933361"><ele>274.0</ele><time>2026-04-18T08:06:09.404Z</time></trkpt><trkpt lat="43.3990671" lon="10.8932897"><ele>274.0</ele><time>2026-04-18T08:06:10.409Z</time></trkpt><trkpt lat="43.3991563" lon="10.8932314"><ele>275.0</ele><time>2026-04-18T08:06:11.402Z</time></trkpt><trkpt lat="43.3992404" lon="10.893207"><ele>276.0</ele><time>2026-04-18T08:06:12.411Z</time></trkpt><trkpt lat="43.3993185" lon="10.8931971"><ele>277.0</ele><time>2026-04-18T08:06:13.405Z</time></trkpt><trkpt lat="43.3993845" lon="10.8932047"><ele>278.0</ele><time>2026-04-18T08:06:14.317Z</time></trkpt><trkpt lat="43.3994818" lon="10.893188"><ele>279.0</ele><time>2026-04-18T08:06:16.316Z</time></trkpt><trkpt lat="43.399578" lon="10.893114"><ele>280.0</ele><time>2026-04-18T08:06:18.429Z</time></trkpt><trkpt lat="43.3996215" lon="10.8930507"><ele>280.0</ele><time>2026-04-18T08:06:19.401Z</time></trkpt><trkpt lat="43.3996702" lon="10.8929296"><ele>280.0</ele><time>2026-04-18T08:06:21.406Z</time></trkpt><trkpt lat="43.3997022" lon="10.8928185"><ele>280.0</ele><time>2026-04-18T08:06:23.43Z</time></trkpt><trkpt lat="43.3996871" lon="10.892722"><ele>280.0</ele><time>2026-04-18T08:06:26.427Z</time></trkpt><trkpt lat="43.3996051" lon="10.8927404"><ele>280.0</ele><time>2026-04-18T08:06:29.428Z</time></trkpt><trkpt lat="43.3995037" lon="10.8928898"><ele>280.0</ele><time>2026-04-18T08:06:31.431Z</time></trkpt><trkpt lat="43.3993063" lon="10.8929621"><ele>280.0</ele><time>2026-04-18T08:06:33.312Z</time></trkpt><trkpt lat="43.3991778" lon="10.8929842"><ele>280.0</ele><time>2026-04-18T08:06:34.311Z</time></trkpt><trkpt lat="43.3990142" lon="10.8929948"><ele>280.0</ele><time>2026-04-18T08:06:35.312Z</time></trkpt><trkpt lat="43.3988617" lon="10.8930045"><ele>280.0</ele><time>2026-04-18T08:06:36.301Z</time></trkpt><trkpt lat="43.3987032" lon="10.8930387"><ele>280.0</ele><time>2026-04-18T08:06:37.305Z</time></trkpt><trkpt lat="43.3985583" lon="10.8930868"><ele>283.5</ele><time>2026-04-18T08:06:38.312Z</time></trkpt><trkpt lat="43.3984191" lon="10.8931426"><ele>287.0</ele><time>2026-04-18T08:06:39.309Z</time></trkpt><trkpt lat="43.3982827" lon="10.8931976"><ele>290.5</ele><time>2026-04-18T08:06:40.312Z</time></trkpt><trkpt lat="43.3981415" lon="10.893252"><ele>294.0</ele><time>2026-04-18T08:06:41.317Z</time></trkpt><trkpt lat="43.3979944" lon="10.8932925"><ele>297.0</ele><time>2026-04-18T08:06:42.314Z</time></trkpt><trkpt lat="43.3978345" lon="10.8933155"><ele>300.0</ele><time>2026-04-18T08:06:43.423Z</time></trkpt><trkpt lat="43.3976744" lon="10.8933191"><ele>303.0</ele><time>2026-04-18T08:06:44.432Z</time></trkpt><trkpt lat="43.3973482" lon="10.8933037"><ele>303.0</ele><time>2026-04-18T08:06:46.314Z</time></trkpt><trkpt lat="43.3971761" lon="10.8933167"><ele>303.0</ele><time>2026-04-18T08:06:47.315Z</time></trkpt><trkpt lat="43.3970095" lon="10.8933552"><ele>303.0</ele><time>2026-04-18T08:06:48.314Z</time></trkpt><trkpt lat="43.3968415" lon="10.8934166"><ele>301.0</ele><time>2026-04-18T08:06:49.414Z</time></trkpt><trkpt lat="43.396673" lon="10.8934945"><ele>299.0</ele><time>2026-04-18T08:06:50.408Z</time></trkpt><trkpt lat="43.3965039" lon="10.8935914"><ele>297.0</ele><time>2026-04-18T08:06:51.411Z</time></trkpt><trkpt lat="43.3963353" lon="10.8936939"><ele>301.6666666666667</ele><time>2026-04-18T08:06:52.317Z</time></trkpt><trkpt lat="43.3961653" lon="10.8938006"><ele>306.33333333333337</ele><time>2026-04-18T08:06:53.411Z</time></trkpt><trkpt lat="43.3960015" lon="10.8939075"><ele>311.0</ele><time>2026-04-18T08:06:54.413Z</time></trkpt><trkpt lat="43.3958328" lon="10.8940125"><ele>311.0</ele><time>2026-04-18T08:06:55.326Z</time></trkpt><trkpt lat="43.3956693" lon="10.8941118"><ele>311.0</ele><time>2026-04-18T08:06:56.315Z</time></trkpt><trkpt lat="43.3955079" lon="10.8942134"><ele>311.0</ele><time>2026-04-18T08:06:57.423Z</time></trkpt><trkpt lat="43.39535" lon="10.8943158"><ele>313.5</ele><time>2026-04-18T08:06:58.408Z</time></trkpt><trkpt lat="43.3951863" lon="10.8944312"><ele>316.0</ele><time>2026-04-18T08:06:59.419Z</time></trkpt><trkpt lat="43.3948774" lon="10.8947006"><ele>316.0</ele><time>2026-04-18T08:07:01.427Z</time></trkpt><trkpt lat="43.3947373" lon="10.8948489"><ele>316.0</ele><time>2026-04-18T08:07:02.413Z</time></trkpt><trkpt lat="43.394603" lon="10.8949956"><ele>316.0</ele><time>2026-04-18T08:07:03.43Z</time></trkpt><trkpt lat="43.3944687" lon="10.8951371"><ele>318.66666666666663</ele><time>2026-04-18T08:07:04.409Z</time></trkpt><trkpt lat="43.3943385" lon="10.8952545"><ele>321.3333333333333</ele><time>2026-04-18T08:07:05.431Z</time></trkpt><trkpt lat="43.3942047" lon="10.8953634"><ele>324.0</ele><time>2026-04-18T08:07:06.407Z</time></trkpt><trkpt lat="43.3940663" lon="10.8954702"><ele>324.0</ele><time>2026-04-18T08:07:07.422Z</time></trkpt><trkpt lat="43.3939228" lon="10.8955752"><ele>324.0</ele><time>2026-04-18T08:07:08.432Z</time></trkpt><trkpt lat="43.3937732" lon="10.8956692"><ele>324.0</ele><time>2026-04-18T08:07:09.404Z</time></trkpt><trkpt lat="43.3936213" lon="10.8957458"><ele>327.0</ele><time>2026-04-18T08:07:10.36Z</time></trkpt><trkpt lat="43.393478" lon="10.8958009"><ele>330.0</ele><time>2026-04-18T08:07:11.438Z</time></trkpt><trkpt lat="43.3932212" lon="10.8958706"><ele>333.0</ele><time>2026-04-18T08:07:13.407Z</time></trkpt><trkpt lat="43.392971" lon="10.8958983"><ele>333.0</ele><time>2026-04-18T08:07:15.308Z</time></trkpt><trkpt lat="43.3928503" lon="10.8959001"><ele>333.0</ele><time>2026-04-18T08:07:16.31Z</time></trkpt><trkpt lat="43.3927436" lon="10.8958881"><ele>333.0</ele><time>2026-04-18T08:07:17.311Z</time></trkpt><trkpt lat="43.3926584" lon="10.8958606"><ele>333.0</ele><time>2026-04-18T08:07:18.311Z</time></trkpt><trkpt lat="43.392591" lon="10.8958167"><ele>333.0</ele><time>2026-04-18T08:07:19.31Z</time></trkpt><trkpt lat="43.3925402" lon="10.8957511"><ele>333.0</ele><time>2026-04-18T08:07:20.316Z</time></trkpt><trkpt lat="43.3925045" lon="10.8956508"><ele>333.0</ele><time>2026-04-18T08:07:22.317Z</time></trkpt><trkpt lat="43.3924878" lon="10.8955663"><ele>333.0</ele><time>2026-04-18T08:07:53.314Z</time></trkpt><trkpt lat="43.3924863" lon="10.8954288"><ele>333.0</ele><time>2026-04-18T08:07:55.321Z</time></trkpt><trkpt lat="43.3924876" lon="10.8953313"><ele>333.0</ele><time>2026-04-18T08:07:56.313Z</time></trkpt><trkpt lat="43.3924906" lon="10.8952151"><ele>333.0</ele><time>2026-04-18T08:07:57.316Z</time></trkpt><trkpt lat="43.3924946" lon="10.8950911"><ele>333.79999999999995</ele><time>2026-04-18T08:07:58.317Z</time></trkpt><trkpt lat="43.3925022" lon="10.8949564"><ele>334.6</ele><time>2026-04-18T08:07:59.317Z</time></trkpt><trkpt lat="43.3925151" lon="10.8948184"><ele>335.4</ele><time>2026-04-18T08:08:00.315Z</time></trkpt><trkpt lat="43.3925436" lon="10.8946809"><ele>336.20000000000005</ele><time>2026-04-18T08:08:01.312Z</time></trkpt><trkpt lat="43.3925989" lon="10.894551"><ele>337.0</ele><time>2026-04-18T08:08:02.314Z</time></trkpt><trkpt lat="43.3926754" lon="10.8944411"><ele>337.0</ele><time>2026-04-18T08:08:03.321Z</time></trkpt><trkpt lat="43.3927634" lon="10.8943398"><ele>337.0</ele><time>2026-04-18T08:08:04.321Z</time></trkpt><trkpt lat="43.3928546" lon="10.8942358"><ele>337.0</ele><time>2026-04-18T08:08:05.32Z</time></trkpt><trkpt lat="43.3929472" lon="10.8941285"><ele>337.0</ele><time>2026-04-18T08:08:06.312Z</time></trkpt><trkpt lat="43.3930408" lon="10.8940356"><ele>339.20000000000005</ele><time>2026-04-18T08:08:07.318Z</time></trkpt><trkpt lat="43.3931336" lon="10.8939576"><ele>341.4</ele><time>2026-04-18T08:08:08.322Z</time></trkpt><trkpt lat="43.3932275" lon="10.8938915"><ele>343.6</ele><time>2026-04-18T08:08:09.312Z</time></trkpt><trkpt lat="43.3933247" lon="10.893823"><ele>345.79999999999995</ele><time>2026-04-18T08:08:10.311Z</time></trkpt><trkpt lat="43.3934171" lon="10.8937546"><ele>348.0</ele><time>2026-04-18T08:08:11.311Z</time></trkpt><trkpt lat="43.3935073" lon="10.8936785"><ele>348.0</ele><time>2026-04-18T08:08:12.318Z</time></trkpt><trkpt lat="43.3935888" lon="10.8935841"><ele>348.0</ele><time>2026-04-18T08:08:13.32Z</time></trkpt><trkpt lat="43.3936626" lon="10.8934709"><ele>348.0</ele><time>2026-04-18T08:08:14.318Z</time></trkpt><trkpt lat="43.3937336" lon="10.8933459"><ele>348.0</ele><time>2026-04-18T08:08:15.316Z</time></trkpt><trkpt lat="43.3937972" lon="10.8932157"><ele>348.0</ele><time>2026-04-18T08:08:16.317Z</time></trkpt><trkpt lat="43.3938556" lon="10.8930895"><ele>348.59999999999997</ele><time>2026-04-18T08:08:17.316Z</time></trkpt><trkpt lat="43.3939079" lon="10.8929589"><ele>349.2</ele><time>2026-04-18T08:08:18.414Z</time></trkpt><trkpt lat="43.3939444" lon="10.8928228"><ele>349.8</ele><time>2026-04-18T08:08:19.402Z</time></trkpt><trkpt lat="43.3939601" lon="10.892683"><ele>350.4</ele><time>2026-04-18T08:08:20.434Z</time></trkpt><trkpt lat="43.3939496" lon="10.892535"><ele>351.0</ele><time>2026-04-18T08:08:21.442Z</time></trkpt><trkpt lat="43.3938562" lon="10.8922783"><ele>348.0</ele><time>2026-04-18T08:08:23.419Z</time></trkpt><trkpt lat="43.3937732" lon="10.8921525"><ele>345.0</ele><time>2026-04-18T08:08:24.429Z</time></trkpt><trkpt lat="43.393676" lon="10.8920341"><ele>342.0</ele><time>2026-04-18T08:08:25.432Z</time></trkpt><trkpt lat="43.3935773" lon="10.8919132"><ele>339.0</ele><time>2026-04-18T08:08:26.407Z</time></trkpt><trkpt lat="43.3934801" lon="10.8917767"><ele>342.5</ele><time>2026-04-18T08:08:27.404Z</time></trkpt><trkpt lat="43.3933958" lon="10.8916207"><ele>346.0</ele><time>2026-04-18T08:08:28.41Z</time></trkpt><trkpt lat="43.3933161" lon="10.8914549"><ele>349.5</ele><time>2026-04-18T08:08:29.436Z</time></trkpt><trkpt lat="43.3932441" lon="10.8912857"><ele>353.0</ele><time>2026-04-18T08:08:30.405Z</time></trkpt><trkpt lat="43.3931791" lon="10.89113"><ele>353.0</ele><time>2026-04-18T08:08:31.409Z</time></trkpt><trkpt lat="43.3931228" lon="10.8909914"><ele>353.0</ele><time>2026-04-18T08:08:32.427Z</time></trkpt><trkpt lat="43.3930867" lon="10.8908534"><ele>353.0</ele><time>2026-04-18T08:08:33.424Z</time></trkpt><trkpt lat="43.3931076" lon="10.8905902"><ele>353.0</ele><time>2026-04-18T08:08:35.424Z</time></trkpt><trkpt lat="43.3932009" lon="10.8903226"><ele>356.0</ele><time>2026-04-18T08:08:37.321Z</time></trkpt><trkpt lat="43.3932615" lon="10.8901839"><ele>359.0</ele><time>2026-04-18T08:08:38.425Z</time></trkpt><trkpt lat="43.3933255" lon="10.8900378"><ele>362.0</ele><time>2026-04-18T08:08:39.437Z</time></trkpt><trkpt lat="43.393395" lon="10.8898871"><ele>365.0</ele><time>2026-04-18T08:08:40.431Z</time></trkpt><trkpt lat="43.3935393" lon="10.8895805"><ele>365.0</ele><time>2026-04-18T08:08:42.317Z</time></trkpt><trkpt lat="43.3936193" lon="10.8894344"><ele>365.0</ele><time>2026-04-18T08:08:43.423Z</time></trkpt><trkpt lat="43.3937127" lon="10.8893083"><ele>365.0</ele><time>2026-04-18T08:08:44.439Z</time></trkpt><trkpt lat="43.393824" lon="10.8892061"><ele>365.0</ele><time>2026-04-18T08:08:45.44Z</time></trkpt><trkpt lat="43.3939414" lon="10.8891122"><ele>368.6666666666667</ele><time>2026-04-18T08:08:46.418Z</time></trkpt><trkpt lat="43.3940617" lon="10.8890214"><ele>372.3333333333333</ele><time>2026-04-18T08:08:47.435Z</time></trkpt><trkpt lat="43.394186" lon="10.8889293"><ele>376.0</ele><time>2026-04-18T08:08:48.432Z</time></trkpt><trkpt lat="43.3943994" lon="10.8887193"><ele>376.0</ele><time>2026-04-18T08:08:50.412Z</time></trkpt><trkpt lat="43.3944706" lon="10.8885896"><ele>376.0</ele><time>2026-04-18T08:08:51.426Z</time></trkpt><trkpt lat="43.3945584" lon="10.8883338"><ele>376.0</ele><time>2026-04-18T08:08:53.432Z</time></trkpt><trkpt lat="43.3945995" lon="10.8882284"><ele>376.0</ele><time>2026-04-18T08:08:54.392Z</time></trkpt><trkpt lat="43.3946577" lon="10.8881437"><ele>376.8333333333333</ele><time>2026-04-18T08:08:55.436Z</time></trkpt><trkpt lat="43.3947318" lon="10.8881082"><ele>377.66666666666663</ele><time>2026-04-18T08:08:56.425Z</time></trkpt><trkpt lat="43.3947984" lon="10.8881392"><ele>378.5</ele><time>2026-04-18T08:08:57.412Z</time></trkpt><trkpt lat="43.3948484" lon="10.888216"><ele>379.3333333333333</ele><time>2026-04-18T08:08:58.316Z</time></trkpt><trkpt lat="43.3948716" lon="10.8883201"><ele>380.1666666666667</ele><time>2026-04-18T08:08:59.367Z</time></trkpt><trkpt lat="43.394875" lon="10.8884512"><ele>381.0</ele><time>2026-04-18T08:09:00.319Z</time></trkpt><trkpt lat="43.3948693" lon="10.8885963"><ele>381.75</ele><time>2026-04-18T08:09:01.408Z</time></trkpt><trkpt lat="43.3948514" lon="10.8887487"><ele>382.5</ele><time>2026-04-18T08:09:02.406Z</time></trkpt><trkpt lat="43.3948313" lon="10.8889014"><ele>383.25</ele><time>2026-04-18T08:09:03.442Z</time></trkpt><trkpt lat="43.3948558" lon="10.8891826"><ele>384.0</ele><time>2026-04-18T08:09:05.319Z</time></trkpt><trkpt lat="43.3949069" lon="10.8892891"><ele>384.0</ele><time>2026-04-18T08:09:06.315Z</time></trkpt><trkpt lat="43.3949791" lon="10.8893469"><ele>384.0</ele><time>2026-04-18T08:09:07.318Z</time></trkpt><trkpt lat="43.3950554" lon="10.8893489"><ele>384.0</ele><time>2026-04-18T08:09:08.318Z</time></trkpt><trkpt lat="43.3951272" lon="10.8893012"><ele>384.0</ele><time>2026-04-18T08:09:09.317Z</time></trkpt><trkpt lat="43.3951912" lon="10.8892092"><ele>384.0</ele><time>2026-04-18T08:09:10.317Z</time></trkpt><trkpt lat="43.3952548" lon="10.88909"><ele>384.0</ele><time>2026-04-18T08:09:11.317Z</time></trkpt><trkpt lat="43.3953157" lon="10.8889574"><ele>384.0</ele><time>2026-04-18T08:09:12.318Z</time></trkpt><trkpt lat="43.3953782" lon="10.8888182"><ele>384.0</ele><time>2026-04-18T08:09:13.322Z</time></trkpt><trkpt lat="43.3954437" lon="10.8886684"><ele>384.0</ele><time>2026-04-18T08:09:14.316Z</time></trkpt><trkpt lat="43.3955067" lon="10.8885143"><ele>384.0</ele><time>2026-04-18T08:09:15.316Z</time></trkpt><trkpt lat="43.3955743" lon="10.8883535"><ele>385.75</ele><time>2026-04-18T08:09:16.318Z</time></trkpt><trkpt lat="43.3956532" lon="10.8881913"><ele>387.5</ele><time>2026-04-18T08:09:17.32Z</time></trkpt><trkpt lat="43.3957516" lon="10.8880573"><ele>389.25</ele><time>2026-04-18T08:09:18.432Z</time></trkpt><trkpt lat="43.3958556" lon="10.8879646"><ele>391.0</ele><time>2026-04-18T08:09:19.44Z</time></trkpt><trkpt lat="43.3959573" lon="10.8878881"><ele>391.0</ele><time>2026-04-18T08:09:20.417Z</time></trkpt><trkpt lat="43.3960279" lon="10.8877825"><ele>391.0</ele><time>2026-04-18T08:09:21.428Z</time></trkpt><trkpt lat="43.3960676" lon="10.8876527"><ele>391.0</ele><time>2026-04-18T08:09:22.435Z</time></trkpt><trkpt lat="43.3960739" lon="10.887506"><ele>391.0</ele><time>2026-04-18T08:09:23.415Z</time></trkpt><trkpt lat="43.3960542" lon="10.8873452"><ele>391.0</ele><time>2026-04-18T08:09:24.443Z</time></trkpt><trkpt lat="43.3960126" lon="10.8871713"><ele>392.5</ele><time>2026-04-18T08:09:25.443Z</time></trkpt><trkpt lat="43.3959694" lon="10.8869892"><ele>394.0</ele><time>2026-04-18T08:09:26.436Z</time></trkpt><trkpt lat="43.395948" lon="10.8868034"><ele>395.5</ele><time>2026-04-18T08:09:27.434Z</time></trkpt><trkpt lat="43.3959551" lon="10.8866093"><ele>397.0</ele><time>2026-04-18T08:09:28.411Z</time></trkpt><trkpt lat="43.3959874" lon="10.8864248"><ele>397.5</ele><time>2026-04-18T08:09:29.407Z</time></trkpt><trkpt lat="43.3960483" lon="10.8862552"><ele>398.0</ele><time>2026-04-18T08:09:30.408Z</time></trkpt><trkpt lat="43.3961212" lon="10.8861074"><ele>398.5</ele><time>2026-04-18T08:09:31.407Z</time></trkpt><trkpt lat="43.3962025" lon="10.8859655"><ele>399.0</ele><time>2026-04-18T08:09:32.315Z</time></trkpt><trkpt lat="43.3962866" lon="10.8858226"><ele>401.5</ele><time>2026-04-18T08:09:33.312Z</time></trkpt><trkpt lat="43.3963752" lon="10.8856775"><ele>404.0</ele><time>2026-04-18T08:09:34.313Z</time></trkpt><trkpt lat="43.3964648" lon="10.8855313"><ele>406.5</ele><time>2026-04-18T08:09:35.312Z</time></trkpt><trkpt lat="43.3965579" lon="10.8853786"><ele>409.0</ele><time>2026-04-18T08:09:36.316Z</time></trkpt><trkpt lat="43.3966511" lon="10.8852245"><ele>408.25</ele><time>2026-04-18T08:09:37.316Z</time></trkpt><trkpt lat="43.3967419" lon="10.8850782"><ele>407.5</ele><time>2026-04-18T08:09:38.433Z</time></trkpt><trkpt lat="43.3968321" lon="10.884931"><ele>406.75</ele><time>2026-04-18T08:09:39.413Z</time></trkpt><trkpt lat="43.3969231" lon="10.8847756"><ele>406.0</ele><time>2026-04-18T08:09:40.432Z</time></trkpt><trkpt lat="43.3970924" lon="10.8844836"><ele>406.0</ele><time>2026-04-18T08:09:42.314Z</time></trkpt><trkpt lat="43.3971685" lon="10.8843407"><ele>406.0</ele><time>2026-04-18T08:09:43.434Z</time></trkpt><trkpt lat="43.3972334" lon="10.8841905"><ele>406.0</ele><time>2026-04-18T08:09:44.42Z</time></trkpt><trkpt lat="43.3972654" lon="10.8840295"><ele>406.0</ele><time>2026-04-18T08:09:45.418Z</time></trkpt><trkpt lat="43.3972674" lon="10.8838635"><ele>407.0</ele><time>2026-04-18T08:09:46.428Z</time></trkpt><trkpt lat="43.3972499" lon="10.8836887"><ele>408.0</ele><time>2026-04-18T08:09:47.43Z</time></trkpt><trkpt lat="43.3971898" lon="10.8832947"><ele>409.0</ele><time>2026-04-18T08:09:49.423Z</time></trkpt><trkpt lat="43.3971659" lon="10.8830895"><ele>406.6666666666667</ele><time>2026-04-18T08:09:50.425Z</time></trkpt><trkpt lat="43.3971569" lon="10.8828659"><ele>404.33333333333337</ele><time>2026-04-18T08:09:51.401Z</time></trkpt><trkpt lat="43.3971573" lon="10.882642"><ele>402.0</ele><time>2026-04-18T08:09:52.32Z</time></trkpt><trkpt lat="43.3971304" lon="10.8822008"><ele>402.0</ele><time>2026-04-18T08:09:54.425Z</time></trkpt><trkpt lat="43.3970916" lon="10.8819801"><ele>402.0</ele><time>2026-04-18T08:09:55.441Z</time></trkpt><trkpt lat="43.3970477" lon="10.8817611"><ele>402.0</ele><time>2026-04-18T08:09:56.43Z</time></trkpt><trkpt lat="43.3969639" lon="10.8813481"><ele>406.0</ele><time>2026-04-18T08:09:58.411Z</time></trkpt><trkpt lat="43.3969271" lon="10.8811437"><ele>410.0</ele><time>2026-04-18T08:09:59.437Z</time></trkpt><trkpt lat="43.3968928" lon="10.8809418"><ele>414.0</ele><time>2026-04-18T08:10:00.422Z</time></trkpt><trkpt lat="43.3968597" lon="10.8807395"><ele>416.5</ele><time>2026-04-18T08:10:01.413Z</time></trkpt><trkpt lat="43.3968318" lon="10.8805446"><ele>419.0</ele><time>2026-04-18T08:10:02.408Z</time></trkpt><trkpt lat="43.3968094" lon="10.8803452"><ele>421.5</ele><time>2026-04-18T08:10:03.436Z</time></trkpt><trkpt lat="43.396791" lon="10.8801477"><ele>424.0</ele><time>2026-04-18T08:10:04.432Z</time></trkpt><trkpt lat="43.3967648" lon="10.879948"><ele>426.25</ele><time>2026-04-18T08:10:05.429Z</time></trkpt><trkpt lat="43.3967367" lon="10.8797465"><ele>428.5</ele><time>2026-04-18T08:10:06.4Z</time></trkpt><trkpt lat="43.3967063" lon="10.8795482"><ele>430.75</ele><time>2026-04-18T08:10:07.426Z</time></trkpt><trkpt lat="43.3966866" lon="10.8793484"><ele>433.0</ele><time>2026-04-18T08:10:08.428Z</time></trkpt><trkpt lat="43.3966807" lon="10.8791463"><ele>435.0</ele><time>2026-04-18T08:10:09.421Z</time></trkpt><trkpt lat="43.3966913" lon="10.8789473"><ele>437.0</ele><time>2026-04-18T08:10:10.432Z</time></trkpt><trkpt lat="43.3967581" lon="10.87859"><ele>439.0</ele><time>2026-04-18T08:10:12.313Z</time></trkpt><trkpt lat="43.3968203" lon="10.8784285"><ele>439.0</ele><time>2026-04-18T08:10:13.354Z</time></trkpt><trkpt lat="43.3968878" lon="10.8782733"><ele>439.0</ele><time>2026-04-18T08:10:14.32Z</time></trkpt><trkpt lat="43.3969283" lon="10.8781189"><ele>439.0</ele><time>2026-04-18T08:10:15.315Z</time></trkpt><trkpt lat="43.3969617" lon="10.8779666"><ele>439.0</ele><time>2026-04-18T08:10:16.315Z</time></trkpt><trkpt lat="43.3969922" lon="10.8778119"><ele>439.0</ele><time>2026-04-18T08:10:17.425Z</time></trkpt><trkpt lat="43.3970188" lon="10.8776541"><ele>439.0</ele><time>2026-04-18T08:10:18.431Z</time></trkpt><trkpt lat="43.3970424" lon="10.8774988"><ele>439.0</ele><time>2026-04-18T08:10:19.415Z</time></trkpt><trkpt lat="43.3970626" lon="10.8773432"><ele>439.0</ele><time>2026-04-18T08:10:20.428Z</time></trkpt><trkpt lat="43.3970694" lon="10.8772042"><ele>439.0</ele><time>2026-04-18T08:10:21.427Z</time></trkpt><trkpt lat="43.397066" lon="10.8770856"><ele>439.00000000000006</ele><time>2026-04-18T08:10:22.425Z</time></trkpt><trkpt lat="43.3970571" lon="10.8769829"><ele>439.0</ele><time>2026-04-18T08:10:23.407Z</time></trkpt><trkpt lat="43.3970358" lon="10.8768866"><ele>439.0</ele><time>2026-04-18T08:10:24.318Z</time></trkpt><trkpt lat="43.3970078" lon="10.876777"><ele>439.0</ele><time>2026-04-18T08:10:25.316Z</time></trkpt><trkpt lat="43.3969736" lon="10.8766542"><ele>439.00000000000006</ele><time>2026-04-18T08:10:26.311Z</time></trkpt><trkpt lat="43.3969376" lon="10.8765379"><ele>439.0</ele><time>2026-04-18T08:10:27.315Z</time></trkpt><trkpt lat="43.3968961" lon="10.8764237"><ele>439.83333333333337</ele><time>2026-04-18T08:10:28.315Z</time></trkpt><trkpt lat="43.3968482" lon="10.8763124"><ele>440.6666666666667</ele><time>2026-04-18T08:10:29.416Z</time></trkpt><trkpt lat="43.3967916" lon="10.8762068"><ele>441.5</ele><time>2026-04-18T08:10:30.408Z</time></trkpt><trkpt lat="43.3967335" lon="10.8761163"><ele>442.33333333333337</ele><time>2026-04-18T08:10:31.426Z</time></trkpt><trkpt lat="43.3966777" lon="10.8760421"><ele>443.1666666666667</ele><time>2026-04-18T08:10:32.44Z</time></trkpt><trkpt lat="43.39663" lon="10.8759836"><ele>444.0</ele><time>2026-04-18T08:10:33.415Z</time></trkpt><trkpt lat="43.3965534" lon="10.8758934"><ele>444.0</ele><time>2026-04-18T08:10:35.406Z</time></trkpt><trkpt lat="43.3964685" lon="10.8758933"><ele>444.0</ele><time>2026-04-18T08:10:37.423Z</time></trkpt><trkpt lat="43.3964213" lon="10.876023"><ele>444.0</ele><time>2026-04-18T08:10:39.436Z</time></trkpt><trkpt lat="43.3964336" lon="10.876129"><ele>444.0</ele><time>2026-04-18T08:10:40.433Z</time></trkpt><trkpt lat="43.3964813" lon="10.8763299"><ele>444.0</ele><time>2026-04-18T08:10:42.31Z</time></trkpt><trkpt lat="43.3965069" lon="10.876426"><ele>444.0</ele><time>2026-04-18T08:10:43.433Z</time></trkpt><trkpt lat="43.3965148" lon="10.8765276"><ele>444.0</ele><time>2026-04-18T08:10:44.335Z</time></trkpt><trkpt lat="43.3965097" lon="10.8766336"><ele>444.0</ele><time>2026-04-18T08:10:45.427Z</time></trkpt><trkpt lat="43.3964684" lon="10.8767538"><ele>444.0</ele><time>2026-04-18T08:10:46.41Z</time></trkpt><trkpt lat="43.3964356" lon="10.8768562"><ele>444.0</ele><time>2026-04-18T08:10:47.434Z</time></trkpt><trkpt lat="43.3964338" lon="10.8769731"><ele>444.0</ele><time>2026-04-18T08:10:48.432Z</time></trkpt><trkpt lat="43.3964489" lon="10.8771006"><ele>443.0</ele><time>2026-04-18T08:10:49.411Z</time></trkpt><trkpt lat="43.396471" lon="10.8772059"><ele>442.0</ele><time>2026-04-18T08:10:50.422Z</time></trkpt><trkpt lat="43.3964832" lon="10.8772956"><ele>441.0</ele><time>2026-04-18T08:10:51.431Z</time></trkpt><trkpt lat="43.3964662" lon="10.8774327"><ele>440.0</ele><time>2026-04-18T08:10:53.43Z</time></trkpt><trkpt lat="43.3963759" lon="10.8774731"><ele>439.0</ele><time>2026-04-18T08:10:55.43Z</time></trkpt><trkpt lat="43.3962851" lon="10.877332"><ele>435.2</ele><time>2026-04-18T08:10:57.44Z</time></trkpt><trkpt lat="43.3962371" lon="10.877229"><ele>431.4</ele><time>2026-04-18T08:10:58.427Z</time></trkpt><trkpt lat="43.3961917" lon="10.8771189"><ele>427.6</ele><time>2026-04-18T08:10:59.401Z</time></trkpt><trkpt lat="43.3961565" lon="10.8770057"><ele>423.8</ele><time>2026-04-18T08:11:00.406Z</time></trkpt><trkpt lat="43.3961311" lon="10.8768916"><ele>420.0</ele><time>2026-04-18T08:11:01.431Z</time></trkpt><trkpt lat="43.3961406" lon="10.8767505"><ele>420.0</ele><time>2026-04-18T08:11:02.403Z</time></trkpt><trkpt lat="43.3961454" lon="10.8766274"><ele>420.0</ele><time>2026-04-18T08:11:03.443Z</time></trkpt><trkpt lat="43.3961475" lon="10.876533"><ele>420.0</ele><time>2026-04-18T08:11:04.427Z</time></trkpt><trkpt lat="43.3961471" lon="10.8764411"><ele>420.0</ele><time>2026-04-18T08:11:05.415Z</time></trkpt><trkpt lat="43.3960865" lon="10.8763293"><ele>420.0</ele><time>2026-04-18T08:11:07.424Z</time></trkpt><trkpt lat="43.3960034" lon="10.8763687"><ele>420.0</ele><time>2026-04-18T08:11:09.411Z</time></trkpt><trkpt lat="43.3959296" lon="10.8766719"><ele>418.6</ele><time>2026-04-18T08:11:12.317Z</time></trkpt><trkpt lat="43.3959098" lon="10.8767888"><ele>417.2</ele><time>2026-04-18T08:11:13.421Z</time></trkpt><trkpt lat="43.3958936" lon="10.8768891"><ele>415.79999999999995</ele><time>2026-04-18T08:11:14.409Z</time></trkpt><trkpt lat="43.3958557" lon="10.8770181"><ele>414.4</ele><time>2026-04-18T08:11:16.435Z</time></trkpt><trkpt lat="43.395786" lon="10.8769983"><ele>413.0</ele><time>2026-04-18T08:11:18.427Z</time></trkpt><trkpt lat="43.3957635" lon="10.8768304"><ele>414.4</ele><time>2026-04-18T08:11:20.443Z</time></trkpt><trkpt lat="43.3957707" lon="10.8765985"><ele>415.79999999999995</ele><time>2026-04-18T08:11:22.315Z</time></trkpt><trkpt lat="43.3957668" lon="10.8764958"><ele>417.2</ele><time>2026-04-18T08:11:23.44Z</time></trkpt><trkpt lat="43.3957422" lon="10.8764027"><ele>418.6</ele><time>2026-04-18T08:11:24.437Z</time></trkpt><trkpt lat="43.395694" lon="10.8763299"><ele>420.0</ele><time>2026-04-18T08:11:25.395Z</time></trkpt><trkpt lat="43.395621" lon="10.8762747"><ele>420.0</ele><time>2026-04-18T08:11:26.409Z</time></trkpt><trkpt lat="43.3955283" lon="10.8762229"><ele>420.0</ele><time>2026-04-18T08:11:27.413Z</time></trkpt><trkpt lat="43.3954229" lon="10.876169"><ele>420.0</ele><time>2026-04-18T08:11:28.433Z</time></trkpt><trkpt lat="43.3953184" lon="10.876119"><ele>420.0</ele><time>2026-04-18T08:11:29.415Z</time></trkpt><trkpt lat="43.3952209" lon="10.8760618"><ele>420.0</ele><time>2026-04-18T08:11:30.431Z</time></trkpt><trkpt lat="43.3951347" lon="10.875988"><ele>415.75</ele><time>2026-04-18T08:11:31.427Z</time></trkpt><trkpt lat="43.3950588" lon="10.8758978"><ele>411.5</ele><time>2026-04-18T08:11:32.438Z</time></trkpt><trkpt lat="43.3949795" lon="10.8757866"><ele>407.25</ele><time>2026-04-18T08:11:33.427Z</time></trkpt><trkpt lat="43.3948994" lon="10.8756638"><ele>403.0</ele><time>2026-04-18T08:11:34.408Z</time></trkpt><trkpt lat="43.3948151" lon="10.8755236"><ele>403.0</ele><time>2026-04-18T08:11:35.423Z</time></trkpt><trkpt lat="43.3947341" lon="10.8753726"><ele>403.0</ele><time>2026-04-18T08:11:36.421Z</time></trkpt><trkpt lat="43.3946587" lon="10.8752306"><ele>403.0</ele><time>2026-04-18T08:11:37.442Z</time></trkpt><trkpt lat="43.3945203" lon="10.8749715"><ele>400.25</ele><time>2026-04-18T08:11:39.416Z</time></trkpt><trkpt lat="43.3944028" lon="10.8747246"><ele>397.5</ele><time>2026-04-18T08:11:41.318Z</time></trkpt><trkpt lat="43.3943672" lon="10.8746057"><ele>394.75</ele><time>2026-04-18T08:11:42.317Z</time></trkpt><trkpt lat="43.394355" lon="10.8744976"><ele>392.0</ele><time>2026-04-18T08:11:43.319Z</time></trkpt><trkpt lat="43.3943545" lon="10.8744018"><ele>392.0</ele><time>2026-04-18T08:11:44.312Z</time></trkpt><trkpt lat="43.3943017" lon="10.8742743"><ele>392.0</ele><time>2026-04-18T08:11:46.437Z</time></trkpt><trkpt lat="43.3942126" lon="10.8742989"><ele>392.0</ele><time>2026-04-18T08:11:48.436Z</time></trkpt><trkpt lat="43.3941627" lon="10.8744687"><ele>392.0</ele><time>2026-04-18T08:11:50.43Z</time></trkpt><trkpt lat="43.3941431" lon="10.8745831"><ele>392.0</ele><time>2026-04-18T08:11:51.411Z</time></trkpt><trkpt lat="43.394124" lon="10.8747069"><ele>392.0</ele><time>2026-04-18T08:11:52.409Z</time></trkpt><trkpt lat="43.3941048" lon="10.874839"><ele>392.0</ele><time>2026-04-18T08:11:53.428Z</time></trkpt><trkpt lat="43.3940842" lon="10.8749783"><ele>392.0</ele><time>2026-04-18T08:11:54.403Z</time></trkpt><trkpt lat="43.3940649" lon="10.8751198"><ele>392.0</ele><time>2026-04-18T08:11:55.316Z</time></trkpt><trkpt lat="43.3940456" lon="10.8752576"><ele>392.0</ele><time>2026-04-18T08:11:56.404Z</time></trkpt><trkpt lat="43.3940169" lon="10.8753805"><ele>390.99999999999994</ele><time>2026-04-18T08:11:57.409Z</time></trkpt><trkpt lat="43.3939645" lon="10.8754807"><ele>390.0</ele><time>2026-04-18T08:11:58.313Z</time></trkpt><trkpt lat="43.3938943" lon="10.8755395"><ele>389.0</ele><time>2026-04-18T08:11:59.436Z</time></trkpt><trkpt lat="43.3938195" lon="10.8755541"><ele>388.0</ele><time>2026-04-18T08:12:00.416Z</time></trkpt><trkpt lat="43.3937452" lon="10.875521"><ele>386.99999999999994</ele><time>2026-04-18T08:12:01.412Z</time></trkpt><trkpt lat="43.3936771" lon="10.8754502"><ele>386.0</ele><time>2026-04-18T08:12:02.428Z</time></trkpt><trkpt lat="43.3936121" lon="10.8753624"><ele>384.8333333333333</ele><time>2026-04-18T08:12:03.423Z</time></trkpt><trkpt lat="43.3935542" lon="10.875269"><ele>383.66666666666663</ele><time>2026-04-18T08:12:04.41Z</time></trkpt><trkpt lat="43.3934982" lon="10.8751858"><ele>382.5</ele><time>2026-04-18T08:12:05.416Z</time></trkpt><trkpt lat="43.3934448" lon="10.8751264"><ele>381.3333333333333</ele><time>2026-04-18T08:12:06.4Z</time></trkpt><trkpt lat="43.3933865" lon="10.8750864"><ele>380.16666666666663</ele><time>2026-04-18T08:12:07.417Z</time></trkpt><trkpt lat="43.3932703" lon="10.8750997"><ele>379.0</ele><time>2026-04-18T08:12:09.408Z</time></trkpt><trkpt lat="43.3931826" lon="10.875238"><ele>379.0</ele><time>2026-04-18T08:12:11.311Z</time></trkpt><trkpt lat="43.3931609" lon="10.8753386"><ele>379.0</ele><time>2026-04-18T08:12:12.314Z</time></trkpt><trkpt lat="43.3931493" lon="10.8754545"><ele>379.0</ele><time>2026-04-18T08:12:13.424Z</time></trkpt><trkpt lat="43.3931603" lon="10.875573"><ele>379.0</ele><time>2026-04-18T08:12:14.415Z</time></trkpt><trkpt lat="43.3931928" lon="10.8756936"><ele>379.0</ele><time>2026-04-18T08:12:15.435Z</time></trkpt><trkpt lat="43.3932495" lon="10.8759537"><ele>376.6</ele><time>2026-04-18T08:12:17.316Z</time></trkpt><trkpt lat="43.3932509" lon="10.8760871"><ele>374.2</ele><time>2026-04-18T08:12:18.307Z</time></trkpt><trkpt lat="43.3932354" lon="10.8762212"><ele>371.8</ele><time>2026-04-18T08:12:19.316Z</time></trkpt><trkpt lat="43.3932215" lon="10.8763511"><ele>369.40000000000003</ele><time>2026-04-18T08:12:20.319Z</time></trkpt><trkpt lat="43.3932025" lon="10.8764792"><ele>367.0</ele><time>2026-04-18T08:12:21.317Z</time></trkpt><trkpt lat="43.3931771" lon="10.8765867"><ele>367.0</ele><time>2026-04-18T08:12:22.314Z</time></trkpt><trkpt lat="43.3931106" lon="10.8766251"><ele>367.0</ele><time>2026-04-18T08:12:23.315Z</time></trkpt><trkpt lat="43.3930463" lon="10.876646"><ele>367.0</ele><time>2026-04-18T08:12:24.312Z</time></trkpt><trkpt lat="43.3929815" lon="10.8766459"><ele>367.0</ele><time>2026-04-18T08:12:25.315Z</time></trkpt><trkpt lat="43.3929254" lon="10.876531"><ele>367.0</ele><time>2026-04-18T08:12:26.314Z</time></trkpt><trkpt lat="43.3928951" lon="10.8764223"><ele>367.0</ele><time>2026-04-18T08:12:27.317Z</time></trkpt><trkpt lat="43.392875" lon="10.8762988"><ele>366.0</ele><time>2026-04-18T08:12:28.316Z</time></trkpt><trkpt lat="43.3928761" lon="10.8761708"><ele>365.0</ele><time>2026-04-18T08:12:29.316Z</time></trkpt><trkpt lat="43.3928794" lon="10.8760534"><ele>364.0</ele><time>2026-04-18T08:12:30.314Z</time></trkpt><trkpt lat="43.3928795" lon="10.8759505"><ele>363.0</ele><time>2026-04-18T08:12:31.319Z</time></trkpt><trkpt lat="43.3928802" lon="10.8758606"><ele>362.0</ele><time>2026-04-18T08:12:32.437Z</time></trkpt><trkpt lat="43.3928377" lon="10.8756989"><ele>361.0</ele><time>2026-04-18T08:12:34.43Z</time></trkpt><trkpt lat="43.3927178" lon="10.8756425"><ele>361.0</ele><time>2026-04-18T08:12:36.438Z</time></trkpt><trkpt lat="43.3926432" lon="10.8756739"><ele>361.0</ele><time>2026-04-18T08:12:37.428Z</time></trkpt><trkpt lat="43.3925642" lon="10.8757347"><ele>361.0</ele><time>2026-04-18T08:12:38.427Z</time></trkpt><trkpt lat="43.3924775" lon="10.8758052"><ele>361.0</ele><time>2026-04-18T08:12:39.426Z</time></trkpt><trkpt lat="43.3923849" lon="10.8758787"><ele>361.0</ele><time>2026-04-18T08:12:40.423Z</time></trkpt><trkpt lat="43.3922108" lon="10.8759752"><ele>358.5</ele><time>2026-04-18T08:12:42.317Z</time></trkpt><trkpt lat="43.3921164" lon="10.8759581"><ele>356.0</ele><time>2026-04-18T08:12:43.43Z</time></trkpt><trkpt lat="43.392017" lon="10.8758996"><ele>353.5</ele><time>2026-04-18T08:12:44.425Z</time></trkpt><trkpt lat="43.3919116" lon="10.8758257"><ele>351.0</ele><time>2026-04-18T08:12:45.43Z</time></trkpt><trkpt lat="43.391796" lon="10.8757447"><ele>351.0</ele><time>2026-04-18T08:12:46.408Z</time></trkpt><trkpt lat="43.3916752" lon="10.8756565"><ele>351.0</ele><time>2026-04-18T08:12:47.403Z</time></trkpt><trkpt lat="43.3915559" lon="10.8755682"><ele>351.0</ele><time>2026-04-18T08:12:48.405Z</time></trkpt><trkpt lat="43.3914417" lon="10.8754851"><ele>351.0</ele><time>2026-04-18T08:12:49.434Z</time></trkpt><trkpt lat="43.3913299" lon="10.8754149"><ele>349.0</ele><time>2026-04-18T08:12:50.438Z</time></trkpt><trkpt lat="43.3912159" lon="10.8753742"><ele>347.0</ele><time>2026-04-18T08:12:51.413Z</time></trkpt><trkpt lat="43.3910925" lon="10.8753686"><ele>345.0</ele><time>2026-04-18T08:12:52.408Z</time></trkpt><trkpt lat="43.390963" lon="10.875391"><ele>343.0</ele><time>2026-04-18T08:12:53.441Z</time></trkpt><trkpt lat="43.390836" lon="10.8754181"><ele>343.0</ele><time>2026-04-18T08:12:54.417Z</time></trkpt><trkpt lat="43.3906999" lon="10.8754342"><ele>343.0</ele><time>2026-04-18T08:12:55.41Z</time></trkpt><trkpt lat="43.3905684" lon="10.8754254"><ele>343.0</ele><time>2026-04-18T08:12:56.432Z</time></trkpt><trkpt lat="43.3904349" lon="10.8753953"><ele>343.0</ele><time>2026-04-18T08:12:57.435Z</time></trkpt><trkpt lat="43.3902978" lon="10.8753493"><ele>343.5</ele><time>2026-04-18T08:12:58.425Z</time></trkpt><trkpt lat="43.3901623" lon="10.8752998"><ele>344.0</ele><time>2026-04-18T08:12:59.396Z</time></trkpt><trkpt lat="43.39004" lon="10.8752563"><ele>344.5</ele><time>2026-04-18T08:13:00.319Z</time></trkpt><trkpt lat="43.3899304" lon="10.8752192"><ele>345.0</ele><time>2026-04-18T08:13:01.38Z</time></trkpt><trkpt lat="43.3898255" lon="10.8751903"><ele>345.0</ele><time>2026-04-18T08:13:02.314Z</time></trkpt><trkpt lat="43.3897182" lon="10.875181"><ele>345.0</ele><time>2026-04-18T08:13:03.316Z</time></trkpt><trkpt lat="43.389616" lon="10.8751862"><ele>345.0</ele><time>2026-04-18T08:13:04.318Z</time></trkpt><trkpt lat="43.389505" lon="10.8752191"><ele>345.0</ele><time>2026-04-18T08:13:05.319Z</time></trkpt><trkpt lat="43.3893962" lon="10.8752637"><ele>345.0</ele><time>2026-04-18T08:13:06.409Z</time></trkpt><trkpt lat="43.3892846" lon="10.8753267"><ele>344.5</ele><time>2026-04-18T08:13:07.32Z</time></trkpt><trkpt lat="43.3891807" lon="10.8754112"><ele>344.0</ele><time>2026-04-18T08:13:08.32Z</time></trkpt><trkpt lat="43.3890812" lon="10.8754891"><ele>343.5</ele><time>2026-04-18T08:13:09.32Z</time></trkpt><trkpt lat="43.3889716" lon="10.8755499"><ele>343.0</ele><time>2026-04-18T08:13:10.315Z</time></trkpt><trkpt lat="43.3888567" lon="10.875593"><ele>342.2</ele><time>2026-04-18T08:13:11.321Z</time></trkpt><trkpt lat="43.3887392" lon="10.8756159"><ele>341.4</ele><time>2026-04-18T08:13:12.324Z</time></trkpt><trkpt lat="43.3886299" lon="10.8756298"><ele>340.59999999999997</ele><time>2026-04-18T08:13:13.413Z</time></trkpt><trkpt lat="43.3885269" lon="10.8756421"><ele>339.79999999999995</ele><time>2026-04-18T08:13:14.32Z</time></trkpt><trkpt lat="43.3884301" lon="10.8756539"><ele>339.0</ele><time>2026-04-18T08:13:15.382Z</time></trkpt><trkpt lat="43.388353" lon="10.8756591"><ele>339.0</ele><time>2026-04-18T08:13:16.406Z</time></trkpt><trkpt lat="43.3882834" lon="10.875667"><ele>339.0</ele><time>2026-04-18T08:13:17.316Z</time></trkpt><trkpt lat="43.3882155" lon="10.8756853"><ele>339.0</ele><time>2026-04-18T08:13:18.32Z</time></trkpt><trkpt lat="43.3881545" lon="10.875723"><ele>339.0</ele><time>2026-04-18T08:13:19.319Z</time></trkpt><trkpt lat="43.3881098" lon="10.8757906"><ele>339.0</ele><time>2026-04-18T08:13:20.317Z</time></trkpt><trkpt lat="43.3880787" lon="10.8758906"><ele>339.0</ele><time>2026-04-18T08:13:21.323Z</time></trkpt><trkpt lat="43.3880521" lon="10.8759935"><ele>339.0</ele><time>2026-04-18T08:13:22.314Z</time></trkpt><trkpt lat="43.3880215" lon="10.8760785"><ele>337.4</ele><time>2026-04-18T08:13:23.316Z</time></trkpt><trkpt lat="43.387967" lon="10.8761253"><ele>335.79999999999995</ele><time>2026-04-18T08:13:24.317Z</time></trkpt><trkpt lat="43.387852" lon="10.8760812"><ele>334.20000000000005</ele><time>2026-04-18T08:13:26.317Z</time></trkpt><trkpt lat="43.3877797" lon="10.8759971"><ele>332.6</ele><time>2026-04-18T08:13:27.32Z</time></trkpt><trkpt lat="43.3876952" lon="10.8758943"><ele>331.0</ele><time>2026-04-18T08:13:28.323Z</time></trkpt><trkpt lat="43.3876121" lon="10.8757948"><ele>331.0</ele><time>2026-04-18T08:13:29.318Z</time></trkpt><trkpt lat="43.387533" lon="10.8756927"><ele>331.0</ele><time>2026-04-18T08:13:30.314Z</time></trkpt><trkpt lat="43.387464" lon="10.8756108"><ele>331.0</ele><time>2026-04-18T08:13:31.32Z</time></trkpt><trkpt lat="43.3874044" lon="10.8755439"><ele>331.0</ele><time>2026-04-18T08:13:32.318Z</time></trkpt><trkpt lat="43.3873477" lon="10.8755021"><ele>331.0</ele><time>2026-04-18T08:13:33.311Z</time></trkpt><trkpt lat="43.3872341" lon="10.8755526"><ele>331.0</ele><time>2026-04-18T08:13:35.321Z</time></trkpt><trkpt lat="43.3871917" lon="10.8756369"><ele>331.0</ele><time>2026-04-18T08:13:36.312Z</time></trkpt><trkpt lat="43.3871593" lon="10.8757462"><ele>331.0</ele><time>2026-04-18T08:13:37.317Z</time></trkpt><trkpt lat="43.3871361" lon="10.8758662"><ele>331.0</ele><time>2026-04-18T08:13:38.317Z</time></trkpt><trkpt lat="43.3871121" lon="10.8759732"><ele>331.0</ele><time>2026-04-18T08:13:39.314Z</time></trkpt><trkpt lat="43.3870702" lon="10.8760556"><ele>331.0</ele><time>2026-04-18T08:13:40.314Z</time></trkpt><trkpt lat="43.3870156" lon="10.8761059"><ele>328.66666666666663</ele><time>2026-04-18T08:13:41.348Z</time></trkpt><trkpt lat="43.3869425" lon="10.8761061"><ele>326.3333333333333</ele><time>2026-04-18T08:13:42.315Z</time></trkpt><trkpt lat="43.3868632" lon="10.876051"><ele>324.0</ele><time>2026-04-18T08:13:43.316Z</time></trkpt><trkpt lat="43.3867901" lon="10.8759679"><ele>321.6666666666667</ele><time>2026-04-18T08:13:44.308Z</time></trkpt><trkpt lat="43.3867402" lon="10.8758693"><ele>319.33333333333337</ele><time>2026-04-18T08:13:45.312Z</time></trkpt><trkpt lat="43.3867206" lon="10.8757513"><ele>317.0</ele><time>2026-04-18T08:13:46.316Z</time></trkpt><trkpt lat="43.3867217" lon="10.8756245"><ele>317.0</ele><time>2026-04-18T08:13:47.313Z</time></trkpt><trkpt lat="43.3867138" lon="10.8755146"><ele>317.0</ele><time>2026-04-18T08:13:48.315Z</time></trkpt><trkpt lat="43.3866813" lon="10.8754253"><ele>317.0</ele><time>2026-04-18T08:13:49.326Z</time></trkpt><trkpt lat="43.3866287" lon="10.8753746"><ele>317.0</ele><time>2026-04-18T08:13:50.322Z</time></trkpt><trkpt lat="43.3865129" lon="10.8754121"><ele>317.0</ele><time>2026-04-18T08:13:52.312Z</time></trkpt><trkpt lat="43.3864675" lon="10.8754877"><ele>317.0</ele><time>2026-04-18T08:13:53.313Z</time></trkpt><trkpt lat="43.3864401" lon="10.8755961"><ele>317.0</ele><time>2026-04-18T08:13:54.315Z</time></trkpt><trkpt lat="43.3864261" lon="10.875726"><ele>317.0</ele><time>2026-04-18T08:13:55.318Z</time></trkpt><trkpt lat="43.3864086" lon="10.8758561"><ele>317.0</ele><time>2026-04-18T08:13:56.313Z</time></trkpt><trkpt lat="43.3863611" lon="10.8759749"><ele>317.0</ele><time>2026-04-18T08:13:57.319Z</time></trkpt><trkpt lat="43.3862896" lon="10.8760699"><ele>317.0</ele><time>2026-04-18T08:13:58.313Z</time></trkpt><trkpt lat="43.3861893" lon="10.8761348"><ele>314.4</ele><time>2026-04-18T08:13:59.311Z</time></trkpt><trkpt lat="43.3860778" lon="10.8761903"><ele>311.79999999999995</ele><time>2026-04-18T08:14:00.317Z</time></trkpt><trkpt lat="43.3859748" lon="10.8762362"><ele>309.2</ele><time>2026-04-18T08:14:01.317Z</time></trkpt><trkpt lat="43.3858849" lon="10.8762785"><ele>306.59999999999997</ele><time>2026-04-18T08:14:02.317Z</time></trkpt><trkpt lat="43.385808" lon="10.8763199"><ele>304.0</ele><time>2026-04-18T08:14:03.318Z</time></trkpt><trkpt lat="43.3857366" lon="10.8763845"><ele>304.0</ele><time>2026-04-18T08:14:04.316Z</time></trkpt><trkpt lat="43.3856934" lon="10.876478"><ele>304.0</ele><time>2026-04-18T08:14:05.323Z</time></trkpt><trkpt lat="43.3856698" lon="10.8765754"><ele>304.0</ele><time>2026-04-18T08:14:06.317Z</time></trkpt><trkpt lat="43.3856282" lon="10.8766549"><ele>304.0</ele><time>2026-04-18T08:14:07.315Z</time></trkpt><trkpt lat="43.3855632" lon="10.8766861"><ele>304.0</ele><time>2026-04-18T08:14:08.315Z</time></trkpt><trkpt lat="43.3854722" lon="10.8766045"><ele>304.0</ele><time>2026-04-18T08:14:10.316Z</time></trkpt><trkpt lat="43.3854458" lon="10.8765212"><ele>304.0</ele><time>2026-04-18T08:14:11.32Z</time></trkpt><trkpt lat="43.3854678" lon="10.8763477"><ele>304.0</ele><time>2026-04-18T08:14:13.316Z</time></trkpt><trkpt lat="43.3855199" lon="10.8762663"><ele>304.0</ele><time>2026-04-18T08:14:14.316Z</time></trkpt><trkpt lat="43.3855918" lon="10.8761901"><ele>304.0</ele><time>2026-04-18T08:14:15.317Z</time></trkpt><trkpt lat="43.3856705" lon="10.8761004"><ele>304.0</ele><time>2026-04-18T08:14:16.321Z</time></trkpt><trkpt lat="43.3857478" lon="10.8759883"><ele>303.2</ele><time>2026-04-18T08:14:17.319Z</time></trkpt><trkpt lat="43.3858077" lon="10.8758707"><ele>302.4</ele><time>2026-04-18T08:14:18.315Z</time></trkpt><trkpt lat="43.3858492" lon="10.8757398"><ele>301.6</ele><time>2026-04-18T08:14:19.318Z</time></trkpt><trkpt lat="43.3858731" lon="10.8755986"><ele>300.8</ele><time>2026-04-18T08:14:20.322Z</time></trkpt><trkpt lat="43.3858756" lon="10.8754626"><ele>300.0</ele><time>2026-04-18T08:14:21.314Z</time></trkpt><trkpt lat="43.3858564" lon="10.8753391"><ele>300.0</ele><time>2026-04-18T08:14:22.314Z</time></trkpt><trkpt lat="43.3858259" lon="10.8752537"><ele>300.0</ele><time>2026-04-18T08:14:23.318Z</time></trkpt><trkpt lat="43.3857549" lon="10.8751492"><ele>300.0</ele><time>2026-04-18T08:14:25.32Z</time></trkpt><trkpt lat="43.3856671" lon="10.8751769"><ele>300.0</ele><time>2026-04-18T08:14:27.319Z</time></trkpt><trkpt lat="43.3856268" lon="10.8752491"><ele>300.0</ele><time>2026-04-18T08:14:28.315Z</time></trkpt><trkpt lat="43.3855829" lon="10.875355"><ele>300.0</ele><time>2026-04-18T08:14:29.317Z</time></trkpt><trkpt lat="43.3855342" lon="10.8754767"><ele>296.25</ele><time>2026-04-18T08:14:30.319Z</time></trkpt><trkpt lat="43.3854708" lon="10.8755924"><ele>292.5</ele><time>2026-04-18T08:14:31.313Z</time></trkpt><trkpt lat="43.3853856" lon="10.8756896"><ele>288.75</ele><time>2026-04-18T08:14:32.32Z</time></trkpt><trkpt lat="43.3852816" lon="10.8757755"><ele>285.0</ele><time>2026-04-18T08:14:33.316Z</time></trkpt><trkpt lat="43.385168" lon="10.8758654"><ele>286.75</ele><time>2026-04-18T08:14:34.318Z</time></trkpt><trkpt lat="43.3850626" lon="10.875958"><ele>288.5</ele><time>2026-04-18T08:14:35.315Z</time></trkpt><trkpt lat="43.3849577" lon="10.8760476"><ele>290.25</ele><time>2026-04-18T08:14:36.32Z</time></trkpt><trkpt lat="43.3848508" lon="10.8761211"><ele>292.0</ele><time>2026-04-18T08:14:37.32Z</time></trkpt><trkpt lat="43.3847423" lon="10.8761781"><ele>289.6</ele><time>2026-04-18T08:14:38.313Z</time></trkpt><trkpt lat="43.3846366" lon="10.8762207"><ele>287.2</ele><time>2026-04-18T08:14:39.313Z</time></trkpt><trkpt lat="43.3845322" lon="10.8762685"><ele>284.8</ele><time>2026-04-18T08:14:40.318Z</time></trkpt><trkpt lat="43.3844302" lon="10.8763022"><ele>282.4</ele><time>2026-04-18T08:14:41.315Z</time></trkpt><trkpt lat="43.3843276" lon="10.8763073"><ele>280.0</ele><time>2026-04-18T08:14:42.316Z</time></trkpt><trkpt lat="43.3842289" lon="10.8762842"><ele>280.0</ele><time>2026-04-18T08:14:43.311Z</time></trkpt><trkpt lat="43.3841456" lon="10.8762362"><ele>280.0</ele><time>2026-04-18T08:14:44.318Z</time></trkpt><trkpt lat="43.3840641" lon="10.8762044"><ele>280.0</ele><time>2026-04-18T08:14:45.315Z</time></trkpt><trkpt lat="43.3839704" lon="10.8761957"><ele>280.0</ele><time>2026-04-18T08:14:46.321Z</time></trkpt><trkpt lat="43.3838694" lon="10.8762146"><ele>280.0</ele><time>2026-04-18T08:14:47.312Z</time></trkpt><trkpt lat="43.3837587" lon="10.8762402"><ele>276.5</ele><time>2026-04-18T08:14:48.319Z</time></trkpt><trkpt lat="43.3836388" lon="10.8762648"><ele>273.0</ele><time>2026-04-18T08:14:49.319Z</time></trkpt><trkpt lat="43.3835198" lon="10.8762956"><ele>269.5</ele><time>2026-04-18T08:14:50.314Z</time></trkpt><trkpt lat="43.383406" lon="10.876322"><ele>266.0</ele><time>2026-04-18T08:14:51.318Z</time></trkpt><trkpt lat="43.3832955" lon="10.8763455"><ele>266.0</ele><time>2026-04-18T08:14:52.32Z</time></trkpt><trkpt lat="43.3831862" lon="10.8763593"><ele>266.0</ele><time>2026-04-18T08:14:53.316Z</time></trkpt><trkpt lat="43.3830714" lon="10.8763458"><ele>266.0</ele><time>2026-04-18T08:14:54.32Z</time></trkpt><trkpt lat="43.3829553" lon="10.8762992"><ele>266.0</ele><time>2026-04-18T08:14:55.318Z</time></trkpt><trkpt lat="43.3828374" lon="10.8762289"><ele>264.25</ele><time>2026-04-18T08:14:56.319Z</time></trkpt><trkpt lat="43.3827135" lon="10.876141"><ele>262.5</ele><time>2026-04-18T08:14:57.323Z</time></trkpt><trkpt lat="43.3825856" lon="10.8760435"><ele>260.75</ele><time>2026-04-18T08:14:58.319Z</time></trkpt><trkpt lat="43.3824534" lon="10.8759514"><ele>259.0</ele><time>2026-04-18T08:14:59.313Z</time></trkpt><trkpt lat="43.3823268" lon="10.8758608"><ele>259.0</ele><time>2026-04-18T08:15:00.317Z</time></trkpt><trkpt lat="43.3821993" lon="10.8757734"><ele>259.0</ele><time>2026-04-18T08:15:01.418Z</time></trkpt><trkpt lat="43.3820708" lon="10.8756778"><ele>259.0</ele><time>2026-04-18T08:15:02.432Z</time></trkpt><trkpt lat="43.3819493" lon="10.8755866"><ele>259.0</ele><time>2026-04-18T08:15:03.41Z</time></trkpt><trkpt lat="43.3818327" lon="10.8755005"><ele>257.5</ele><time>2026-04-18T08:15:04.407Z</time></trkpt><trkpt lat="43.381725" lon="10.875419"><ele>256.0</ele><time>2026-04-18T08:15:05.437Z</time></trkpt><trkpt lat="43.3815398" lon="10.8752979"><ele>254.5</ele><time>2026-04-18T08:15:07.42Z</time></trkpt><trkpt lat="43.3814393" lon="10.8752543"><ele>253.0</ele><time>2026-04-18T08:15:08.363Z</time></trkpt><trkpt lat="43.3813278" lon="10.8752298"><ele>250.0</ele><time>2026-04-18T08:15:09.32Z</time></trkpt><trkpt lat="43.3812069" lon="10.8752138"><ele>247.0</ele><time>2026-04-18T08:15:10.441Z</time></trkpt><trkpt lat="43.3810763" lon="10.8752059"><ele>244.0</ele><time>2026-04-18T08:15:11.438Z</time></trkpt><trkpt lat="43.380782" lon="10.8752544"><ele>244.0</ele><time>2026-04-18T08:15:13.32Z</time></trkpt><trkpt lat="43.3806181" lon="10.8752904"><ele>244.0</ele><time>2026-04-18T08:15:14.426Z</time></trkpt><trkpt lat="43.3804389" lon="10.8753205"><ele>244.0</ele><time>2026-04-18T08:15:15.43Z</time></trkpt><trkpt lat="43.3802679" lon="10.8753363"><ele>242.5</ele><time>2026-04-18T08:15:16.432Z</time></trkpt><trkpt lat="43.3801122" lon="10.875348"><ele>241.0</ele><time>2026-04-18T08:15:17.418Z</time></trkpt><trkpt lat="43.3799619" lon="10.8753627"><ele>239.5</ele><time>2026-04-18T08:15:18.41Z</time></trkpt><trkpt lat="43.3798295" lon="10.8753665"><ele>238.0</ele><time>2026-04-18T08:15:19.419Z</time></trkpt><trkpt lat="43.3797003" lon="10.8753758"><ele>237.75</ele><time>2026-04-18T08:15:20.405Z</time></trkpt><trkpt lat="43.3795783" lon="10.8753873"><ele>237.5</ele><time>2026-04-18T08:15:21.409Z</time></trkpt><trkpt lat="43.3794636" lon="10.8753946"><ele>237.25</ele><time>2026-04-18T08:15:22.427Z</time></trkpt><trkpt lat="43.3793493" lon="10.8754018"><ele>237.0</ele><time>2026-04-18T08:15:23.414Z</time></trkpt><trkpt lat="43.3792423" lon="10.8754059"><ele>237.0</ele><time>2026-04-18T08:15:24.427Z</time></trkpt><trkpt lat="43.3790463" lon="10.8754062"><ele>237.0</ele><time>2026-04-18T08:15:26.418Z</time></trkpt><trkpt lat="43.3789575" lon="10.8753991"><ele>237.0</ele><time>2026-04-18T08:15:27.425Z</time></trkpt><trkpt lat="43.3788742" lon="10.8753818"><ele>237.0</ele><time>2026-04-18T08:15:28.434Z</time></trkpt><trkpt lat="43.3787982" lon="10.8753545"><ele>237.0</ele><time>2026-04-18T08:15:29.432Z</time></trkpt><trkpt lat="43.3787247" lon="10.8753171"><ele>237.0</ele><time>2026-04-18T08:15:30.424Z</time></trkpt><trkpt lat="43.3786551" lon="10.8752637"><ele>237.0</ele><time>2026-04-18T08:15:31.414Z</time></trkpt><trkpt lat="43.3785862" lon="10.8752004"><ele>237.0</ele><time>2026-04-18T08:15:32.438Z</time></trkpt><trkpt lat="43.3785214" lon="10.8751338"><ele>237.0</ele><time>2026-04-18T08:15:33.414Z</time></trkpt><trkpt lat="43.3784551" lon="10.8750594"><ele>237.0</ele><time>2026-04-18T08:15:34.431Z</time></trkpt><trkpt lat="43.3783888" lon="10.8749787"><ele>237.0</ele><time>2026-04-18T08:15:35.433Z</time></trkpt><trkpt lat="43.3783233" lon="10.8749027"><ele>237.6</ele><time>2026-04-18T08:15:36.43Z</time></trkpt><trkpt lat="43.3782597" lon="10.8748207"><ele>238.2</ele><time>2026-04-18T08:15:37.408Z</time></trkpt><trkpt lat="43.3781939" lon="10.8747273"><ele>238.8</ele><time>2026-04-18T08:15:38.432Z</time></trkpt><trkpt lat="43.3781362" lon="10.8746253"><ele>239.4</ele><time>2026-04-18T08:15:39.43Z</time></trkpt><trkpt lat="43.3780884" lon="10.8745175"><ele>240.0</ele><time>2026-04-18T08:15:40.434Z</time></trkpt><trkpt lat="43.378003" lon="10.8742827"><ele>239.25</ele><time>2026-04-18T08:15:42.306Z</time></trkpt><trkpt lat="43.3779527" lon="10.8741607"><ele>238.5</ele><time>2026-04-18T08:15:43.315Z</time></trkpt><trkpt lat="43.3778931" lon="10.8740338"><ele>237.75</ele><time>2026-04-18T08:15:44.314Z</time></trkpt><trkpt lat="43.3778166" lon="10.8739092"><ele>237.0</ele><time>2026-04-18T08:15:45.316Z</time></trkpt><trkpt lat="43.3777309" lon="10.8737781"><ele>237.0</ele><time>2026-04-18T08:15:46.313Z</time></trkpt><trkpt lat="43.3776401" lon="10.8736456"><ele>237.0</ele><time>2026-04-18T08:15:47.316Z</time></trkpt><trkpt lat="43.3775423" lon="10.8735065"><ele>237.0</ele><time>2026-04-18T08:15:48.316Z</time></trkpt><trkpt lat="43.377443" lon="10.8733628"><ele>237.0</ele><time>2026-04-18T08:15:49.314Z</time></trkpt><trkpt lat="43.3773398" lon="10.873215"><ele>235.0</ele><time>2026-04-18T08:15:50.315Z</time></trkpt><trkpt lat="43.3772357" lon="10.873065"><ele>233.0</ele><time>2026-04-18T08:15:51.426Z</time></trkpt><trkpt lat="43.3771261" lon="10.8729137"><ele>231.0</ele><time>2026-04-18T08:15:52.404Z</time></trkpt><trkpt lat="43.3770169" lon="10.8727621"><ele>229.0</ele><time>2026-04-18T08:15:53.41Z</time></trkpt><trkpt lat="43.3769062" lon="10.8726058"><ele>227.0</ele><time>2026-04-18T08:15:54.44Z</time></trkpt><trkpt lat="43.3767953" lon="10.8724402"><ele>225.0</ele><time>2026-04-18T08:15:55.433Z</time></trkpt><trkpt lat="43.3765754" lon="10.8721178"><ele>225.0</ele><time>2026-04-18T08:15:57.321Z</time></trkpt><trkpt lat="43.3764743" lon="10.8719656"><ele>225.0</ele><time>2026-04-18T08:15:58.317Z</time></trkpt><trkpt lat="43.3763744" lon="10.8718257"><ele>225.0</ele><time>2026-04-18T08:15:59.432Z</time></trkpt><trkpt lat="43.3762714" lon="10.8716836"><ele>225.0</ele><time>2026-04-18T08:16:00.414Z</time></trkpt><trkpt lat="43.3761708" lon="10.8715446"><ele>225.0</ele><time>2026-04-18T08:16:01.435Z</time></trkpt><trkpt lat="43.3760715" lon="10.8714016"><ele>225.0</ele><time>2026-04-18T08:16:02.421Z</time></trkpt><trkpt lat="43.3759713" lon="10.8712581"><ele>225.0</ele><time>2026-04-18T08:16:03.426Z</time></trkpt><trkpt lat="43.3758707" lon="10.8711166"><ele>225.0</ele><time>2026-04-18T08:16:04.416Z</time></trkpt><trkpt lat="43.3757696" lon="10.8709734"><ele>224.25</ele><time>2026-04-18T08:16:05.406Z</time></trkpt><trkpt lat="43.3756672" lon="10.8708271"><ele>223.5</ele><time>2026-04-18T08:16:06.41Z</time></trkpt><trkpt lat="43.375565" lon="10.8706879"><ele>222.75</ele><time>2026-04-18T08:16:07.434Z</time></trkpt><trkpt lat="43.375465" lon="10.8705462"><ele>222.0</ele><time>2026-04-18T08:16:08.418Z</time></trkpt><trkpt lat="43.3752787" lon="10.8702942"><ele>222.0</ele><time>2026-04-18T08:16:10.314Z</time></trkpt><trkpt lat="43.3751956" lon="10.8701754"><ele>222.0</ele><time>2026-04-18T08:16:11.427Z</time></trkpt><trkpt lat="43.3751208" lon="10.8700664"><ele>222.0</ele><time>2026-04-18T08:16:12.433Z</time></trkpt><trkpt lat="43.3750458" lon="10.869965"><ele>222.0</ele><time>2026-04-18T08:16:13.436Z</time></trkpt><trkpt lat="43.3749708" lon="10.8698697"><ele>222.0</ele><time>2026-04-18T08:16:14.419Z</time></trkpt><trkpt lat="43.3748853" lon="10.8697811"><ele>220.5</ele><time>2026-04-18T08:16:15.442Z</time></trkpt><trkpt lat="43.3746948" lon="10.8696264"><ele>219.0</ele><time>2026-04-18T08:16:17.409Z</time></trkpt><trkpt lat="43.3745934" lon="10.8695486"><ele>217.5</ele><time>2026-04-18T08:16:18.309Z</time></trkpt><trkpt lat="43.3744965" lon="10.8694721"><ele>216.0</ele><time>2026-04-18T08:16:19.31Z</time></trkpt><trkpt lat="43.3744051" lon="10.8694005"><ele>215.25</ele><time>2026-04-18T08:16:20.423Z</time></trkpt><trkpt lat="43.3742325" lon="10.869265"><ele>214.5</ele><time>2026-04-18T08:16:22.315Z</time></trkpt><trkpt lat="43.3741607" lon="10.8691933"><ele>213.75</ele><time>2026-04-18T08:16:23.406Z</time></trkpt><trkpt lat="43.374097" lon="10.8691127"><ele>213.0</ele><time>2026-04-18T08:16:24.439Z</time></trkpt><trkpt lat="43.3740455" lon="10.8690073"><ele>213.0</ele><time>2026-04-18T08:16:25.43Z</time></trkpt><trkpt lat="43.373998" lon="10.8688999"><ele>213.0</ele><time>2026-04-18T08:16:26.432Z</time></trkpt><trkpt lat="43.3739405" lon="10.8687949"><ele>213.0</ele><time>2026-04-18T08:16:27.409Z</time></trkpt><trkpt lat="43.3738707" lon="10.8687034"><ele>213.0</ele><time>2026-04-18T08:16:28.433Z</time></trkpt><trkpt lat="43.3737947" lon="10.8686395"><ele>213.0</ele><time>2026-04-18T08:16:29.427Z</time></trkpt><trkpt lat="43.373661" lon="10.8685738"><ele>212.4</ele><time>2026-04-18T08:16:31.431Z</time></trkpt><trkpt lat="43.3735527" lon="10.8685294"><ele>211.8</ele><time>2026-04-18T08:16:33.414Z</time></trkpt><trkpt lat="43.3734672" lon="10.8685006"><ele>211.2</ele><time>2026-04-18T08:16:35.409Z</time></trkpt><trkpt lat="43.3733881" lon="10.868465"><ele>210.6</ele><time>2026-04-18T08:16:37.439Z</time></trkpt><trkpt lat="43.3733063" lon="10.8684188"><ele>210.0</ele><time>2026-04-18T08:16:40.315Z</time></trkpt><trkpt lat="43.3731862" lon="10.8683418"><ele>210.0</ele><time>2026-04-18T08:17:00.425Z</time></trkpt><trkpt lat="43.3731172" lon="10.8681968"><ele>210.0</ele><time>2026-04-18T08:17:02.41Z</time></trkpt><trkpt lat="43.3730699" lon="10.8680906"><ele>210.0</ele><time>2026-04-18T08:17:03.312Z</time></trkpt><trkpt lat="43.3730243" lon="10.8679764"><ele>210.0</ele><time>2026-04-18T08:17:04.321Z</time></trkpt><trkpt lat="43.3729905" lon="10.8678575"><ele>210.0</ele><time>2026-04-18T08:17:05.44Z</time></trkpt><trkpt lat="43.3729615" lon="10.8677178"><ele>207.6</ele><time>2026-04-18T08:17:06.409Z</time></trkpt><trkpt lat="43.3729383" lon="10.867578"><ele>205.2</ele><time>2026-04-18T08:17:07.442Z</time></trkpt><trkpt lat="43.3729138" lon="10.8674531"><ele>202.8</ele><time>2026-04-18T08:17:08.44Z</time></trkpt><trkpt lat="43.3728765" lon="10.8673212"><ele>200.4</ele><time>2026-04-18T08:17:09.428Z</time></trkpt><trkpt lat="43.3728226" lon="10.8671983"><ele>198.0</ele><time>2026-04-18T08:17:10.432Z</time></trkpt><trkpt lat="43.3727549" lon="10.867082"><ele>198.0</ele><time>2026-04-18T08:17:11.434Z</time></trkpt><trkpt lat="43.3726864" lon="10.8669779"><ele>198.0</ele><time>2026-04-18T08:17:12.411Z</time></trkpt><trkpt lat="43.3726225" lon="10.866877"><ele>198.0</ele><time>2026-04-18T08:17:13.442Z</time></trkpt><trkpt lat="43.3725096" lon="10.8666448"><ele>198.0</ele><time>2026-04-18T08:17:15.318Z</time></trkpt><trkpt lat="43.3724671" lon="10.866501"><ele>198.60000000000002</ele><time>2026-04-18T08:17:16.317Z</time></trkpt><trkpt lat="43.3724255" lon="10.8663519"><ele>199.20000000000002</ele><time>2026-04-18T08:17:17.308Z</time></trkpt><trkpt lat="43.3723871" lon="10.8662067"><ele>199.8</ele><time>2026-04-18T08:17:18.311Z</time></trkpt><trkpt lat="43.3723501" lon="10.866068"><ele>200.4</ele><time>2026-04-18T08:17:19.311Z</time></trkpt><trkpt lat="43.3723152" lon="10.8659407"><ele>201.0</ele><time>2026-04-18T08:17:20.313Z</time></trkpt><trkpt lat="43.3722798" lon="10.8658227"><ele>201.0</ele><time>2026-04-18T08:17:21.314Z</time></trkpt><trkpt lat="43.3722398" lon="10.8657162"><ele>201.0</ele><time>2026-04-18T08:17:22.427Z</time></trkpt><trkpt lat="43.3721908" lon="10.8656273"><ele>201.0</ele><time>2026-04-18T08:17:23.413Z</time></trkpt><trkpt lat="43.3721333" lon="10.8655645"><ele>201.0</ele><time>2026-04-18T08:17:24.436Z</time></trkpt><trkpt lat="43.3720694" lon="10.8655356"><ele>201.0</ele><time>2026-04-18T08:17:25.416Z</time></trkpt><trkpt lat="43.3719386" lon="10.8655637"><ele>201.0</ele><time>2026-04-18T08:17:27.317Z</time></trkpt><trkpt lat="43.3718653" lon="10.865606"><ele>200.4</ele><time>2026-04-18T08:17:28.404Z</time></trkpt><trkpt lat="43.3717878" lon="10.8656662"><ele>199.8</ele><time>2026-04-18T08:17:29.421Z</time></trkpt><trkpt lat="43.3717079" lon="10.8657468"><ele>199.20000000000002</ele><time>2026-04-18T08:17:30.435Z</time></trkpt><trkpt lat="43.3716252" lon="10.8658343"><ele>198.60000000000002</ele><time>2026-04-18T08:17:31.437Z</time></trkpt><trkpt lat="43.3715454" lon="10.865933"><ele>198.0</ele><time>2026-04-18T08:17:32.425Z</time></trkpt><trkpt lat="43.3713682" lon="10.8661506"><ele>197.25</ele><time>2026-04-18T08:17:34.316Z</time></trkpt><trkpt lat="43.3712739" lon="10.8662659"><ele>196.5</ele><time>2026-04-18T08:17:35.425Z</time></trkpt><trkpt lat="43.3711011" lon="10.8664526"><ele>195.75</ele><time>2026-04-18T08:17:37.422Z</time></trkpt><trkpt lat="43.3710166" lon="10.8665108"><ele>195.0</ele><time>2026-04-18T08:17:38.437Z</time></trkpt><trkpt lat="43.3709216" lon="10.8665599"><ele>195.0</ele><time>2026-04-18T08:17:39.442Z</time></trkpt><trkpt lat="43.3708207" lon="10.8665852"><ele>195.0</ele><time>2026-04-18T08:17:40.414Z</time></trkpt><trkpt lat="43.3707155" lon="10.8665967"><ele>195.0</ele><time>2026-04-18T08:17:41.409Z</time></trkpt><trkpt lat="43.3706127" lon="10.8665894"><ele>195.0</ele><time>2026-04-18T08:17:42.429Z</time></trkpt><trkpt lat="43.3705043" lon="10.8665649"><ele>195.0</ele><time>2026-04-18T08:17:43.405Z</time></trkpt><trkpt lat="43.3703997" lon="10.8665299"><ele>196.0</ele><time>2026-04-18T08:17:44.439Z</time></trkpt><trkpt lat="43.3702983" lon="10.8664936"><ele>197.0</ele><time>2026-04-18T08:17:45.445Z</time></trkpt><trkpt lat="43.370195" lon="10.8664616"><ele>198.0</ele><time>2026-04-18T08:17:46.427Z</time></trkpt><trkpt lat="43.3699719" lon="10.8664191"><ele>199.0</ele><time>2026-04-18T08:17:48.316Z</time></trkpt><trkpt lat="43.3698467" lon="10.8664183"><ele>199.0</ele><time>2026-04-18T08:17:49.416Z</time></trkpt><trkpt lat="43.3697162" lon="10.8664286"><ele>199.0</ele><time>2026-04-18T08:17:50.426Z</time></trkpt><trkpt lat="43.3695865" lon="10.8664427"><ele>199.0</ele><time>2026-04-18T08:17:51.433Z</time></trkpt><trkpt lat="43.369467" lon="10.8664643"><ele>199.0</ele><time>2026-04-18T08:17:52.443Z</time></trkpt><trkpt lat="43.3693438" lon="10.866468"><ele>197.66666666666666</ele><time>2026-04-18T08:17:53.38Z</time></trkpt><trkpt lat="43.3692092" lon="10.8664469"><ele>196.33333333333331</ele><time>2026-04-18T08:17:54.413Z</time></trkpt><trkpt lat="43.3690691" lon="10.8664133"><ele>195.0</ele><time>2026-04-18T08:17:55.437Z</time></trkpt><trkpt lat="43.3687786" lon="10.8663712"><ele>193.66666666666666</ele><time>2026-04-18T08:17:57.442Z</time></trkpt><trkpt lat="43.3686375" lon="10.8663489"><ele>192.33333333333331</ele><time>2026-04-18T08:17:58.427Z</time></trkpt><trkpt lat="43.3684988" lon="10.8663288"><ele>191.0</ele><time>2026-04-18T08:17:59.429Z</time></trkpt><trkpt lat="43.3682117" lon="10.8663024"><ele>191.0</ele><time>2026-04-18T08:18:01.408Z</time></trkpt><trkpt lat="43.3680663" lon="10.8662907"><ele>191.0</ele><time>2026-04-18T08:18:02.408Z</time></trkpt><trkpt lat="43.3679356" lon="10.8662834"><ele>191.0</ele><time>2026-04-18T08:18:03.317Z</time></trkpt><trkpt lat="43.3678094" lon="10.8662757"><ele>191.0</ele><time>2026-04-18T08:18:04.315Z</time></trkpt><trkpt lat="43.367681" lon="10.8662709"><ele>190.5</ele><time>2026-04-18T08:18:05.317Z</time></trkpt><trkpt lat="43.3675531" lon="10.8662786"><ele>190.0</ele><time>2026-04-18T08:18:06.315Z</time></trkpt><trkpt lat="43.3674262" lon="10.8662988"><ele>189.5</ele><time>2026-04-18T08:18:07.431Z</time></trkpt><trkpt lat="43.3672951" lon="10.8663261"><ele>189.0</ele><time>2026-04-18T08:18:08.431Z</time></trkpt><trkpt lat="43.3671708" lon="10.8663572"><ele>188.33333333333334</ele><time>2026-04-18T08:18:09.431Z</time></trkpt><trkpt lat="43.3670472" lon="10.8663855"><ele>187.66666666666669</ele><time>2026-04-18T08:18:10.423Z</time></trkpt><trkpt lat="43.3669245" lon="10.8664045"><ele>187.0</ele><time>2026-04-18T08:18:11.424Z</time></trkpt><trkpt lat="43.3666798" lon="10.8663675"><ele>187.0</ele><time>2026-04-18T08:18:13.419Z</time></trkpt><trkpt lat="43.3665542" lon="10.8663114"><ele>187.0</ele><time>2026-04-18T08:18:14.41Z</time></trkpt><trkpt lat="43.3664265" lon="10.8662391"><ele>187.0</ele><time>2026-04-18T08:18:15.427Z</time></trkpt><trkpt lat="43.3662932" lon="10.8661662"><ele>187.0</ele><time>2026-04-18T08:18:16.418Z</time></trkpt><trkpt lat="43.3661564" lon="10.8660939"><ele>186.0</ele><time>2026-04-18T08:18:17.424Z</time></trkpt><trkpt lat="43.3660112" lon="10.8660204"><ele>185.0</ele><time>2026-04-18T08:18:18.41Z</time></trkpt><trkpt lat="43.3658662" lon="10.8659452"><ele>184.0</ele><time>2026-04-18T08:18:19.427Z</time></trkpt><trkpt lat="43.3657152" lon="10.865864"><ele>183.0</ele><time>2026-04-18T08:18:20.42Z</time></trkpt><trkpt lat="43.3654119" lon="10.8656973"><ele>182.0</ele><time>2026-04-18T08:18:22.443Z</time></trkpt><trkpt lat="43.3652613" lon="10.8656099"><ele>182.0</ele><time>2026-04-18T08:18:23.441Z</time></trkpt><trkpt lat="43.3651149" lon="10.8655113"><ele>182.0</ele><time>2026-04-18T08:18:24.439Z</time></trkpt><trkpt lat="43.3649703" lon="10.8654111"><ele>182.0</ele><time>2026-04-18T08:18:25.432Z</time></trkpt><trkpt lat="43.3648272" lon="10.8653145"><ele>181.0</ele><time>2026-04-18T08:18:26.409Z</time></trkpt><trkpt lat="43.3646844" lon="10.8652106"><ele>180.0</ele><time>2026-04-18T08:18:27.438Z</time></trkpt><trkpt lat="43.364542" lon="10.8651156"><ele>179.0</ele><time>2026-04-18T08:18:28.414Z</time></trkpt><trkpt lat="43.3644114" lon="10.8650283"><ele>181.0</ele><time>2026-04-18T08:18:29.397Z</time></trkpt><trkpt lat="43.3642917" lon="10.8649488"><ele>183.0</ele><time>2026-04-18T08:18:30.428Z</time></trkpt><trkpt lat="43.3641825" lon="10.8648792"><ele>185.0</ele><time>2026-04-18T08:18:31.404Z</time></trkpt><trkpt lat="43.3640881" lon="10.8648026"><ele>187.0</ele><time>2026-04-18T08:18:32.319Z</time></trkpt><trkpt lat="43.36401" lon="10.8647098"><ele>187.0</ele><time>2026-04-18T08:18:33.369Z</time></trkpt><trkpt lat="43.363945" lon="10.8646057"><ele>187.0</ele><time>2026-04-18T08:18:34.319Z</time></trkpt><trkpt lat="43.3638876" lon="10.8644812"><ele>187.0</ele><time>2026-04-18T08:18:35.414Z</time></trkpt><trkpt lat="43.3638329" lon="10.8643313"><ele>187.0</ele><time>2026-04-18T08:18:36.323Z</time></trkpt><trkpt lat="43.3637816" lon="10.8641651"><ele>187.5</ele><time>2026-04-18T08:18:37.418Z</time></trkpt><trkpt lat="43.3636558" lon="10.8637974"><ele>188.0</ele><time>2026-04-18T08:18:39.414Z</time></trkpt><trkpt lat="43.363591" lon="10.8636029"><ele>187.5</ele><time>2026-04-18T08:18:40.418Z</time></trkpt><trkpt lat="43.363526" lon="10.8634109"><ele>187.0</ele><time>2026-04-18T08:18:41.433Z</time></trkpt><trkpt lat="43.3634617" lon="10.863244"><ele>186.5</ele><time>2026-04-18T08:18:42.409Z</time></trkpt><trkpt lat="43.3633991" lon="10.8630858"><ele>186.0</ele><time>2026-04-18T08:18:43.434Z</time></trkpt><trkpt lat="43.3633352" lon="10.8629201"><ele>186.0</ele><time>2026-04-18T08:18:44.439Z</time></trkpt><trkpt lat="43.3632646" lon="10.862759"><ele>186.0</ele><time>2026-04-18T08:18:45.41Z</time></trkpt><trkpt lat="43.3631941" lon="10.8626032"><ele>186.0</ele><time>2026-04-18T08:18:46.403Z</time></trkpt><trkpt lat="43.3631248" lon="10.8624508"><ele>186.0</ele><time>2026-04-18T08:18:47.425Z</time></trkpt><trkpt lat="43.3630524" lon="10.8622971"><ele>184.5</ele><time>2026-04-18T08:18:48.401Z</time></trkpt><trkpt lat="43.3629802" lon="10.8621441"><ele>183.0</ele><time>2026-04-18T08:18:49.441Z</time></trkpt><trkpt lat="43.3629048" lon="10.8619834"><ele>181.5</ele><time>2026-04-18T08:18:50.419Z</time></trkpt><trkpt lat="43.3628303" lon="10.8618189"><ele>180.0</ele><time>2026-04-18T08:18:51.429Z</time></trkpt><trkpt lat="43.3627612" lon="10.8616463"><ele>179.75</ele><time>2026-04-18T08:18:52.407Z</time></trkpt><trkpt lat="43.3627079" lon="10.8614749"><ele>179.5</ele><time>2026-04-18T08:18:53.404Z</time></trkpt><trkpt lat="43.362661" lon="10.8613134"><ele>179.25</ele><time>2026-04-18T08:18:54.435Z</time></trkpt><trkpt lat="43.3626207" lon="10.8611636"><ele>179.0</ele><time>2026-04-18T08:18:55.439Z</time></trkpt><trkpt lat="43.3625837" lon="10.8610218"><ele>178.66666666666666</ele><time>2026-04-18T08:18:56.434Z</time></trkpt><trkpt lat="43.3625467" lon="10.8608926"><ele>178.33333333333331</ele><time>2026-04-18T08:18:57.436Z</time></trkpt><trkpt lat="43.3625128" lon="10.860783"><ele>178.0</ele><time>2026-04-18T08:18:58.416Z</time></trkpt><trkpt lat="43.3624728" lon="10.860688"><ele>177.66666666666666</ele><time>2026-04-18T08:18:59.413Z</time></trkpt><trkpt lat="43.3624154" lon="10.8605973"><ele>177.33333333333334</ele><time>2026-04-18T08:19:00.426Z</time></trkpt><trkpt lat="43.3623442" lon="10.8605226"><ele>177.0</ele><time>2026-04-18T08:19:01.435Z</time></trkpt><trkpt lat="43.362261" lon="10.8604547"><ele>177.5</ele><time>2026-04-18T08:19:02.426Z</time></trkpt><trkpt lat="43.3620652" lon="10.8603448"><ele>178.0</ele><time>2026-04-18T08:19:04.316Z</time></trkpt><trkpt lat="43.3619547" lon="10.8603045"><ele>178.5</ele><time>2026-04-18T08:19:05.434Z</time></trkpt><trkpt lat="43.3618376" lon="10.860276"><ele>179.0</ele><time>2026-04-18T08:19:06.43Z</time></trkpt><trkpt lat="43.3617164" lon="10.8602567"><ele>179.0</ele><time>2026-04-18T08:19:07.437Z</time></trkpt><trkpt lat="43.3615927" lon="10.8602464"><ele>179.0</ele><time>2026-04-18T08:19:08.416Z</time></trkpt><trkpt lat="43.3613327" lon="10.8602224"><ele>179.0</ele><time>2026-04-18T08:19:10.411Z</time></trkpt><trkpt lat="43.3612031" lon="10.8602013"><ele>179.25</ele><time>2026-04-18T08:19:11.415Z</time></trkpt><trkpt lat="43.3610753" lon="10.8601854"><ele>179.5</ele><time>2026-04-18T08:19:12.432Z</time></trkpt><trkpt lat="43.3608524" lon="10.8601511"><ele>179.75</ele><time>2026-04-18T08:19:14.418Z</time></trkpt><trkpt lat="43.360757" lon="10.8601512"><ele>180.0</ele><time>2026-04-18T08:19:15.399Z</time></trkpt><trkpt lat="43.3606756" lon="10.860144"><ele>180.0</ele><time>2026-04-18T08:19:16.434Z</time></trkpt><trkpt lat="43.3606076" lon="10.860122"><ele>180.0</ele><time>2026-04-18T08:19:17.44Z</time></trkpt><trkpt lat="43.3605492" lon="10.8599867"><ele>180.0</ele><time>2026-04-18T08:19:19.416Z</time></trkpt><trkpt lat="43.3605276" lon="10.8598051"><ele>180.0</ele><time>2026-04-18T08:19:21.392Z</time></trkpt><trkpt lat="43.3605038" lon="10.8596822"><ele>180.0</ele><time>2026-04-18T08:19:22.431Z</time></trkpt><trkpt lat="43.3604646" lon="10.8595293"><ele>184.0</ele><time>2026-04-18T08:19:23.421Z</time></trkpt><trkpt lat="43.3604275" lon="10.8594051"><ele>188.0</ele><time>2026-04-18T08:19:24.437Z</time></trkpt><trkpt lat="43.3603969" lon="10.8593114"><ele>192.0</ele><time>2026-04-18T08:19:25.427Z</time></trkpt><trkpt lat="43.3603166" lon="10.8592488"><ele>196.0</ele><time>2026-04-18T08:19:27.422Z</time></trkpt><trkpt lat="43.3602472" lon="10.8593426"><ele>200.0</ele><time>2026-04-18T08:19:30.314Z</time></trkpt><trkpt lat="43.3602553" lon="10.8594644"><ele>200.0</ele><time>2026-04-18T08:19:32.326Z</time></trkpt><trkpt lat="43.3602292" lon="10.8595997"><ele>200.0</ele><time>2026-04-18T08:19:34.314Z</time></trkpt><trkpt lat="43.3601121" lon="10.8597169"><ele>200.0</ele><time>2026-04-18T08:19:36.321Z</time></trkpt><trkpt lat="43.360051" lon="10.8597843"><ele>200.0</ele><time>2026-04-18T08:19:37.319Z</time></trkpt><trkpt lat="43.3599805" lon="10.8598666"><ele>200.0</ele><time>2026-04-18T08:19:38.318Z</time></trkpt><trkpt lat="43.3599162" lon="10.8599341"><ele>200.0</ele><time>2026-04-18T08:19:39.328Z</time></trkpt><trkpt lat="43.3598291" lon="10.8599686"><ele>200.0</ele><time>2026-04-18T08:19:41.425Z</time></trkpt><trkpt lat="43.3597972" lon="10.8598516"><ele>200.0</ele><time>2026-04-18T08:19:44.442Z</time></trkpt><trkpt lat="43.3598144" lon="10.859766"><ele>200.0</ele><time>2026-04-18T08:19:45.445Z</time></trkpt><trkpt lat="43.359841" lon="10.8595543"><ele>200.0</ele><time>2026-04-18T08:19:47.317Z</time></trkpt><trkpt lat="43.3598315" lon="10.8594277"><ele>201.5</ele><time>2026-04-18T08:19:48.308Z</time></trkpt><trkpt lat="43.3598101" lon="10.859266"><ele>203.0</ele><time>2026-04-18T08:19:49.316Z</time></trkpt><trkpt lat="43.3597871" lon="10.8590964"><ele>204.5</ele><time>2026-04-18T08:19:50.31Z</time></trkpt><trkpt lat="43.3597652" lon="10.8589439"><ele>206.0</ele><time>2026-04-18T08:19:51.322Z</time></trkpt><trkpt lat="43.3597459" lon="10.8588166"><ele>206.0</ele><time>2026-04-18T08:19:52.315Z</time></trkpt><trkpt lat="43.3597488" lon="10.858696"><ele>206.0</ele><time>2026-04-18T08:19:53.451Z</time></trkpt><trkpt lat="43.3597567" lon="10.8585878"><ele>206.0</ele><time>2026-04-18T08:19:54.447Z</time></trkpt><trkpt lat="43.3597611" lon="10.8584801"><ele>206.0</ele><time>2026-04-18T08:19:55.447Z</time></trkpt><trkpt lat="43.359713" lon="10.858299"><ele>206.0</ele><time>2026-04-18T08:19:58.447Z</time></trkpt><trkpt lat="43.3596064" lon="10.8582148"><ele>208.60000000000002</ele><time>2026-04-18T08:20:00.445Z</time></trkpt><trkpt lat="43.3594814" lon="10.85818"><ele>211.2</ele><time>2026-04-18T08:20:02.318Z</time></trkpt><trkpt lat="43.3594118" lon="10.8582204"><ele>213.79999999999998</ele><time>2026-04-18T08:20:03.322Z</time></trkpt><trkpt lat="43.359327" lon="10.8583113"><ele>216.39999999999998</ele><time>2026-04-18T08:20:05.319Z</time></trkpt><trkpt lat="43.3592778" lon="10.8584286"><ele>219.0</ele><time>2026-04-18T08:20:07.452Z</time></trkpt><trkpt lat="43.3592953" lon="10.8585255"><ele>219.0</ele><time>2026-04-18T08:20:09.454Z</time></trkpt><trkpt lat="43.3593376" lon="10.8586382"><ele>218.99999999999997</ele><time>2026-04-18T08:20:11.319Z</time></trkpt><trkpt lat="43.3593084" lon="10.8587347"><ele>218.99999999999997</ele><time>2026-04-18T08:20:14.311Z</time></trkpt><trkpt lat="43.3592441" lon="10.8586751"><ele>219.0</ele><time>2026-04-18T08:20:16.308Z</time></trkpt><trkpt lat="43.3591639" lon="10.858541"><ele>219.0</ele><time>2026-04-18T08:20:18.412Z</time></trkpt><trkpt lat="43.3590947" lon="10.858406"><ele>220.5</ele><time>2026-04-18T08:20:19.41Z</time></trkpt><trkpt lat="43.359033" lon="10.8582587"><ele>222.0</ele><time>2026-04-18T08:20:20.413Z</time></trkpt><trkpt lat="43.3589608" lon="10.8581028"><ele>223.5</ele><time>2026-04-18T08:20:21.43Z</time></trkpt><trkpt lat="43.3588928" lon="10.8579758"><ele>225.0</ele><time>2026-04-18T08:20:22.429Z</time></trkpt><trkpt lat="43.3588402" lon="10.8578664"><ele>227.0</ele><time>2026-04-18T08:20:23.442Z</time></trkpt><trkpt lat="43.358767" lon="10.8577648"><ele>229.0</ele><time>2026-04-18T08:20:24.417Z</time></trkpt><trkpt lat="43.3586808" lon="10.8576671"><ele>231.0</ele><time>2026-04-18T08:20:25.439Z</time></trkpt><trkpt lat="43.3586" lon="10.8575756"><ele>233.0</ele><time>2026-04-18T08:20:26.417Z</time></trkpt><trkpt lat="43.3585396" lon="10.8574799"><ele>235.0</ele><time>2026-04-18T08:20:27.412Z</time></trkpt><trkpt lat="43.3584955" lon="10.857337"><ele>235.0</ele><time>2026-04-18T08:20:28.416Z</time></trkpt><trkpt lat="43.3584057" lon="10.8570215"><ele>235.0</ele><time>2026-04-18T08:20:30.315Z</time></trkpt><trkpt lat="43.3583691" lon="10.856843"><ele>235.0</ele><time>2026-04-18T08:20:31.422Z</time></trkpt><trkpt lat="43.3583313" lon="10.8566491"><ele>235.0</ele><time>2026-04-18T08:20:32.41Z</time></trkpt><trkpt lat="43.358292" lon="10.8564466"><ele>235.0</ele><time>2026-04-18T08:20:33.431Z</time></trkpt><trkpt lat="43.3582081" lon="10.8560564"><ele>235.0</ele><time>2026-04-18T08:20:35.31Z</time></trkpt><trkpt lat="43.3581742" lon="10.8559026"><ele>235.2</ele><time>2026-04-18T08:20:36.315Z</time></trkpt><trkpt lat="43.3581407" lon="10.8557308"><ele>235.4</ele><time>2026-04-18T08:20:37.414Z</time></trkpt><trkpt lat="43.3581153" lon="10.8555795"><ele>235.60000000000002</ele><time>2026-04-18T08:20:38.401Z</time></trkpt><trkpt lat="43.3580968" lon="10.855448"><ele>235.8</ele><time>2026-04-18T08:20:39.419Z</time></trkpt><trkpt lat="43.358092" lon="10.8553029"><ele>236.0</ele><time>2026-04-18T08:20:40.403Z</time></trkpt><trkpt lat="43.3580808" lon="10.8551257"><ele>235.33333333333334</ele><time>2026-04-18T08:20:41.436Z</time></trkpt><trkpt lat="43.3580508" lon="10.8547378"><ele>234.66666666666669</ele><time>2026-04-18T08:20:43.317Z</time></trkpt><trkpt lat="43.3580425" lon="10.8545386"><ele>234.0</ele><time>2026-04-18T08:20:44.305Z</time></trkpt><trkpt lat="43.3580407" lon="10.8543455"><ele>234.0</ele><time>2026-04-18T08:20:45.312Z</time></trkpt><trkpt lat="43.3580388" lon="10.8541327"><ele>234.0</ele><time>2026-04-18T08:20:46.311Z</time></trkpt><trkpt lat="43.3580378" lon="10.8539178"><ele>234.0</ele><time>2026-04-18T08:20:47.315Z</time></trkpt><trkpt lat="43.3580339" lon="10.8537235"><ele>237.5</ele><time>2026-04-18T08:20:48.31Z</time></trkpt><trkpt lat="43.3580323" lon="10.853531"><ele>241.0</ele><time>2026-04-18T08:20:49.41Z</time></trkpt><trkpt lat="43.3580189" lon="10.8533313"><ele>244.5</ele><time>2026-04-18T08:20:50.362Z</time></trkpt><trkpt lat="43.3580094" lon="10.8531528"><ele>248.0</ele><time>2026-04-18T08:20:51.303Z</time></trkpt><trkpt lat="43.3579985" lon="10.8529629"><ele>248.0</ele><time>2026-04-18T08:20:52.315Z</time></trkpt><trkpt lat="43.3579998" lon="10.8528088"><ele>248.0</ele><time>2026-04-18T08:20:53.318Z</time></trkpt><trkpt lat="43.3579931" lon="10.8526614"><ele>248.0</ele><time>2026-04-18T08:20:54.316Z</time></trkpt><trkpt lat="43.3579895" lon="10.8525296"><ele>248.0</ele><time>2026-04-18T08:20:55.314Z</time></trkpt><trkpt lat="43.3580005" lon="10.8524119"><ele>248.0</ele><time>2026-04-18T08:20:56.312Z</time></trkpt><trkpt lat="43.3580048" lon="10.8523242"><ele>247.60000000000002</ele><time>2026-04-18T08:20:57.423Z</time></trkpt><trkpt lat="43.3579981" lon="10.8522224"><ele>247.20000000000002</ele><time>2026-04-18T08:20:58.437Z</time></trkpt><trkpt lat="43.3579856" lon="10.8521245"><ele>246.8</ele><time>2026-04-18T08:20:59.416Z</time></trkpt><trkpt lat="43.3579565" lon="10.8520087"><ele>246.4</ele><time>2026-04-18T08:21:00.436Z</time></trkpt><trkpt lat="43.3578695" lon="10.8517795"><ele>246.0</ele><time>2026-04-18T08:21:02.313Z</time></trkpt><trkpt lat="43.3578168" lon="10.8516491"><ele>246.0</ele><time>2026-04-18T08:21:03.408Z</time></trkpt><trkpt lat="43.3577598" lon="10.8515133"><ele>246.00000000000003</ele><time>2026-04-18T08:21:04.398Z</time></trkpt><trkpt lat="43.3576923" lon="10.8513891"><ele>246.00000000000003</ele><time>2026-04-18T08:21:05.317Z</time></trkpt><trkpt lat="43.3576341" lon="10.8512714"><ele>246.0</ele><time>2026-04-18T08:21:06.316Z</time></trkpt><trkpt lat="43.3575918" lon="10.8511704"><ele>246.0</ele><time>2026-04-18T08:21:07.318Z</time></trkpt><trkpt lat="43.3575278" lon="10.8510244"><ele>244.83333333333334</ele><time>2026-04-18T08:21:09.318Z</time></trkpt><trkpt lat="43.3574621" lon="10.8509267"><ele>243.66666666666669</ele><time>2026-04-18T08:21:11.424Z</time></trkpt><trkpt lat="43.3573853" lon="10.8508437"><ele>242.5</ele><time>2026-04-18T08:21:13.308Z</time></trkpt><trkpt lat="43.3573094" lon="10.8508555"><ele>241.33333333333334</ele><time>2026-04-18T08:21:15.316Z</time></trkpt><trkpt lat="43.3572437" lon="10.8508963"><ele>240.16666666666669</ele><time>2026-04-18T08:21:18.316Z</time></trkpt><trkpt lat="43.3573093" lon="10.8508715"><ele>239.0</ele><time>2026-04-18T08:21:30.312Z</time></trkpt><trkpt lat="43.3573956" lon="10.8508727"><ele>239.00000000000003</ele><time>2026-04-18T08:21:32.449Z</time></trkpt><trkpt lat="43.3574583" lon="10.8509437"><ele>239.0</ele><time>2026-04-18T08:21:34.317Z</time></trkpt><trkpt lat="43.3575232" lon="10.8510686"><ele>239.0</ele><time>2026-04-18T08:21:36.311Z</time></trkpt><trkpt lat="43.3575627" lon="10.8511402"><ele>239.0</ele><time>2026-04-18T08:21:37.311Z</time></trkpt><trkpt lat="43.3575886" lon="10.851241"><ele>239.00000000000003</ele><time>2026-04-18T08:21:38.43Z</time></trkpt><trkpt lat="43.3576302" lon="10.8513191"><ele>239.0</ele><time>2026-04-18T08:21:39.414Z</time></trkpt><trkpt lat="43.3576784" lon="10.8514029"><ele>240.39999999999998</ele><time>2026-04-18T08:21:40.427Z</time></trkpt><trkpt lat="43.3577724" lon="10.8515937"><ele>241.79999999999998</ele><time>2026-04-18T08:21:42.314Z</time></trkpt><trkpt lat="43.3578134" lon="10.8516854"><ele>243.20000000000002</ele><time>2026-04-18T08:21:43.315Z</time></trkpt><trkpt lat="43.3578552" lon="10.8517731"><ele>244.60000000000002</ele><time>2026-04-18T08:21:44.317Z</time></trkpt><trkpt lat="43.3578864" lon="10.8518629"><ele>246.0</ele><time>2026-04-18T08:21:45.311Z</time></trkpt><trkpt lat="43.3579259" lon="10.8519374"><ele>246.0</ele><time>2026-04-18T08:21:46.422Z</time></trkpt><trkpt lat="43.357975" lon="10.8520705"><ele>246.00000000000003</ele><time>2026-04-18T08:21:48.431Z</time></trkpt><trkpt lat="43.3580331" lon="10.8521094"><ele>246.00000000000003</ele><time>2026-04-18T08:21:50.403Z</time></trkpt><trkpt lat="43.3581141" lon="10.8520568"><ele>246.0</ele><time>2026-04-18T08:21:53.414Z</time></trkpt><trkpt lat="43.3581624" lon="10.8519399"><ele>246.0</ele><time>2026-04-18T08:21:55.425Z</time></trkpt><trkpt lat="43.3582098" lon="10.8517174"><ele>243.20000000000002</ele><time>2026-04-18T08:21:57.322Z</time></trkpt><trkpt lat="43.3582428" lon="10.8515625"><ele>240.40000000000003</ele><time>2026-04-18T08:21:58.319Z</time></trkpt><trkpt lat="43.3582708" lon="10.8514123"><ele>237.6</ele><time>2026-04-18T08:21:59.317Z</time></trkpt><trkpt lat="43.3582968" lon="10.8512951"><ele>234.8</ele><time>2026-04-18T08:22:00.318Z</time></trkpt><trkpt lat="43.3583194" lon="10.8511626"><ele>232.0</ele><time>2026-04-18T08:22:01.317Z</time></trkpt><trkpt lat="43.3583314" lon="10.8510514"><ele>232.0</ele><time>2026-04-18T08:22:02.316Z</time></trkpt><trkpt lat="43.358356" lon="10.8509627"><ele>232.0</ele><time>2026-04-18T08:22:03.313Z</time></trkpt><trkpt lat="43.358371" lon="10.8508633"><ele>232.0</ele><time>2026-04-18T08:22:04.315Z</time></trkpt><trkpt lat="43.3583917" lon="10.8507744"><ele>232.0</ele><time>2026-04-18T08:22:05.318Z</time></trkpt><trkpt lat="43.3584345" lon="10.8505985"><ele>232.0</ele><time>2026-04-18T08:22:07.313Z</time></trkpt><trkpt lat="43.3584492" lon="10.850419"><ele>231.49999999999997</ele><time>2026-04-18T08:22:09.312Z</time></trkpt><trkpt lat="43.3584348" lon="10.8502467"><ele>231.0</ele><time>2026-04-18T08:22:12.318Z</time></trkpt><trkpt lat="43.3584003" lon="10.8501652"><ele>230.5</ele><time>2026-04-18T08:22:13.444Z</time></trkpt><trkpt lat="43.358353" lon="10.8500762"><ele>230.0</ele><time>2026-04-18T08:22:14.448Z</time></trkpt><trkpt lat="43.3582917" lon="10.8500123"><ele>229.49999999999997</ele><time>2026-04-18T08:22:15.45Z</time></trkpt><trkpt lat="43.3582227" lon="10.8499577"><ele>229.0</ele><time>2026-04-18T08:22:16.45Z</time></trkpt><trkpt lat="43.3581259" lon="10.8499178"><ele>228.49999999999997</ele><time>2026-04-18T08:22:17.455Z</time></trkpt><trkpt lat="43.3580525" lon="10.8498544"><ele>228.0</ele><time>2026-04-18T08:22:18.446Z</time></trkpt><trkpt lat="43.3579789" lon="10.8497933"><ele>227.5</ele><time>2026-04-18T08:22:19.445Z</time></trkpt><trkpt lat="43.357912" lon="10.8497395"><ele>227.0</ele><time>2026-04-18T08:22:20.456Z</time></trkpt><trkpt lat="43.357847" lon="10.8496913"><ele>226.49999999999997</ele><time>2026-04-18T08:22:21.451Z</time></trkpt><trkpt lat="43.3577797" lon="10.8496317"><ele>226.0</ele><time>2026-04-18T08:22:22.448Z</time></trkpt><trkpt lat="43.3577139" lon="10.8495745"><ele>225.99999999999997</ele><time>2026-04-18T08:22:23.45Z</time></trkpt><trkpt lat="43.3576465" lon="10.8495244"><ele>226.0</ele><time>2026-04-18T08:22:24.448Z</time></trkpt><trkpt lat="43.3575773" lon="10.8494794"><ele>226.0</ele><time>2026-04-18T08:22:25.448Z</time></trkpt><trkpt lat="43.3575261" lon="10.849429"><ele>226.0</ele><time>2026-04-18T08:22:26.437Z</time></trkpt><trkpt lat="43.3574657" lon="10.8493919"><ele>225.99999999999997</ele><time>2026-04-18T08:22:27.443Z</time></trkpt><trkpt lat="43.3573548" lon="10.8493288"><ele>226.0</ele><time>2026-04-18T08:22:29.317Z</time></trkpt><trkpt lat="43.3572925" lon="10.8493093"><ele>226.0</ele><time>2026-04-18T08:22:30.32Z</time></trkpt><trkpt lat="43.3572101" lon="10.8493249"><ele>226.0</ele><time>2026-04-18T08:22:31.313Z</time></trkpt><trkpt lat="43.3570738" lon="10.8493041"><ele>226.0</ele><time>2026-04-18T08:22:33.314Z</time></trkpt><trkpt lat="43.3569057" lon="10.8493064"><ele>226.0</ele><time>2026-04-18T08:22:35.365Z</time></trkpt><trkpt lat="43.3568362" lon="10.8492993"><ele>225.33333333333331</ele><time>2026-04-18T08:22:36.308Z</time></trkpt><trkpt lat="43.356763" lon="10.8493076"><ele>224.66666666666666</ele><time>2026-04-18T08:22:37.319Z</time></trkpt><trkpt lat="43.3566981" lon="10.8493154"><ele>224.0</ele><time>2026-04-18T08:22:38.442Z</time></trkpt><trkpt lat="43.3566126" lon="10.8493004"><ele>223.33333333333331</ele><time>2026-04-18T08:22:39.446Z</time></trkpt><trkpt lat="43.3565343" lon="10.849285"><ele>222.66666666666666</ele><time>2026-04-18T08:22:40.446Z</time></trkpt><trkpt lat="43.3564595" lon="10.8492698"><ele>222.0</ele><time>2026-04-18T08:22:41.407Z</time></trkpt><trkpt lat="43.3563873" lon="10.8492528"><ele>220.5</ele><time>2026-04-18T08:22:42.449Z</time></trkpt><trkpt lat="43.3563194" lon="10.8492461"><ele>219.0</ele><time>2026-04-18T08:22:43.445Z</time></trkpt><trkpt lat="43.3562551" lon="10.8492359"><ele>217.5</ele><time>2026-04-18T08:22:44.417Z</time></trkpt><trkpt lat="43.3561899" lon="10.8492353"><ele>216.0</ele><time>2026-04-18T08:22:45.438Z</time></trkpt><trkpt lat="43.3560652" lon="10.849261"><ele>214.5</ele><time>2026-04-18T08:22:47.453Z</time></trkpt><trkpt lat="43.3559898" lon="10.8492904"><ele>213.0</ele><time>2026-04-18T08:22:48.447Z</time></trkpt><trkpt lat="43.3559091" lon="10.8493272"><ele>213.0</ele><time>2026-04-18T08:22:49.444Z</time></trkpt><trkpt lat="43.3557491" lon="10.8493803"><ele>213.0</ele><time>2026-04-18T08:22:51.449Z</time></trkpt><trkpt lat="43.3556691" lon="10.8493839"><ele>213.0</ele><time>2026-04-18T08:22:52.455Z</time></trkpt><trkpt lat="43.3555955" lon="10.8493828"><ele>213.0</ele><time>2026-04-18T08:22:53.452Z</time></trkpt><trkpt lat="43.3555271" lon="10.8493825"><ele>213.0</ele><time>2026-04-18T08:22:54.436Z</time></trkpt><trkpt lat="43.3554498" lon="10.8493905"><ele>212.0</ele><time>2026-04-18T08:22:55.456Z</time></trkpt><trkpt lat="43.3552984" lon="10.8494245"><ele>211.0</ele><time>2026-04-18T08:22:57.44Z</time></trkpt><trkpt lat="43.3552183" lon="10.8494631"><ele>210.0</ele><time>2026-04-18T08:22:58.457Z</time></trkpt><trkpt lat="43.3551482" lon="10.8495081"><ele>209.0</ele><time>2026-04-18T08:22:59.45Z</time></trkpt><trkpt lat="43.3550792" lon="10.84956"><ele>208.0</ele><time>2026-04-18T08:23:00.443Z</time></trkpt><trkpt lat="43.3550072" lon="10.8496127"><ele>207.99999999999997</ele><time>2026-04-18T08:23:01.42Z</time></trkpt><trkpt lat="43.354941" lon="10.8496575"><ele>208.0</ele><time>2026-04-18T08:23:02.441Z</time></trkpt><trkpt lat="43.354882" lon="10.8497091"><ele>208.0</ele><time>2026-04-18T08:23:03.452Z</time></trkpt><trkpt lat="43.3548209" lon="10.8497533"><ele>208.0</ele><time>2026-04-18T08:23:04.449Z</time></trkpt><trkpt lat="43.3547034" lon="10.8498563"><ele>207.99999999999997</ele><time>2026-04-18T08:23:06.308Z</time></trkpt><trkpt lat="43.3546083" lon="10.8498844"><ele>208.0</ele><time>2026-04-18T08:23:08.44Z</time></trkpt><trkpt lat="43.3545044" lon="10.8497895"><ele>206.99999999999997</ele><time>2026-04-18T08:23:10.321Z</time></trkpt><trkpt lat="43.3544373" lon="10.8497094"><ele>206.0</ele><time>2026-04-18T08:23:11.448Z</time></trkpt><trkpt lat="43.3543741" lon="10.8496053"><ele>205.0</ele><time>2026-04-18T08:23:12.458Z</time></trkpt><trkpt lat="43.3543261" lon="10.849504"><ele>204.0</ele><time>2026-04-18T08:23:13.42Z</time></trkpt><trkpt lat="43.3542794" lon="10.8494214"><ele>202.99999999999997</ele><time>2026-04-18T08:23:14.447Z</time></trkpt><trkpt lat="43.3542319" lon="10.8493437"><ele>202.0</ele><time>2026-04-18T08:23:15.421Z</time></trkpt><trkpt lat="43.3541786" lon="10.8492635"><ele>202.0</ele><time>2026-04-18T08:23:16.445Z</time></trkpt><trkpt lat="43.3541019" lon="10.8491685"><ele>202.0</ele><time>2026-04-18T08:23:17.462Z</time></trkpt><trkpt lat="43.3540207" lon="10.8490666"><ele>202.0</ele><time>2026-04-18T08:23:18.413Z</time></trkpt><trkpt lat="43.3539342" lon="10.8489592"><ele>202.0</ele><time>2026-04-18T08:23:19.447Z</time></trkpt><trkpt lat="43.3538579" lon="10.8488604"><ele>202.0</ele><time>2026-04-18T08:23:20.443Z</time></trkpt><trkpt lat="43.3537847" lon="10.8487719"><ele>202.33333333333331</ele><time>2026-04-18T08:23:21.455Z</time></trkpt><trkpt lat="43.3537181" lon="10.8486861"><ele>202.66666666666666</ele><time>2026-04-18T08:23:22.46Z</time></trkpt><trkpt lat="43.353651" lon="10.8486038"><ele>203.0</ele><time>2026-04-18T08:23:23.452Z</time></trkpt><trkpt lat="43.353584" lon="10.8485302"><ele>203.33333333333331</ele><time>2026-04-18T08:23:24.445Z</time></trkpt><trkpt lat="43.3535209" lon="10.8484442"><ele>203.66666666666666</ele><time>2026-04-18T08:23:25.45Z</time></trkpt><trkpt lat="43.3534947" lon="10.8483489"><ele>204.0</ele><time>2026-04-18T08:23:26.441Z</time></trkpt><trkpt lat="43.3534591" lon="10.8482585"><ele>204.0</ele><time>2026-04-18T08:23:27.448Z</time></trkpt><trkpt lat="43.353424" lon="10.8481751"><ele>204.0</ele><time>2026-04-18T08:23:28.451Z</time></trkpt><trkpt lat="43.3534014" lon="10.8480864"><ele>204.0</ele><time>2026-04-18T08:23:29.447Z</time></trkpt><trkpt lat="43.3533864" lon="10.8479924"><ele>204.0</ele><time>2026-04-18T08:23:30.448Z</time></trkpt><trkpt lat="43.3533797" lon="10.8478981"><ele>204.0</ele><time>2026-04-18T08:23:31.443Z</time></trkpt><trkpt lat="43.3533854" lon="10.8477434"><ele>204.0</ele><time>2026-04-18T08:23:33.433Z</time></trkpt><trkpt lat="43.3534184" lon="10.8475246"><ele>202.16666666666666</ele><time>2026-04-18T08:23:36.322Z</time></trkpt><trkpt lat="43.353429" lon="10.8474362"><ele>200.33333333333331</ele><time>2026-04-18T08:23:37.306Z</time></trkpt><trkpt lat="43.3534397" lon="10.847333"><ele>198.5</ele><time>2026-04-18T08:23:38.31Z</time></trkpt><trkpt lat="43.3534568" lon="10.8472254"><ele>196.66666666666666</ele><time>2026-04-18T08:23:39.307Z</time></trkpt><trkpt lat="43.3534773" lon="10.8471231"><ele>194.83333333333331</ele><time>2026-04-18T08:23:40.309Z</time></trkpt><trkpt lat="43.3534934" lon="10.8470228"><ele>193.0</ele><time>2026-04-18T08:23:41.313Z</time></trkpt><trkpt lat="43.353513" lon="10.8469146"><ele>193.00000000000003</ele><time>2026-04-18T08:23:42.312Z</time></trkpt><trkpt lat="43.3535285" lon="10.8468164"><ele>193.0</ele><time>2026-04-18T08:23:43.313Z</time></trkpt><trkpt lat="43.3535459" lon="10.84672"><ele>193.0</ele><time>2026-04-18T08:23:44.411Z</time></trkpt><trkpt lat="43.3535676" lon="10.8466155"><ele>193.0</ele><time>2026-04-18T08:23:45.398Z</time></trkpt><trkpt lat="43.3535894" lon="10.8465172"><ele>193.0</ele><time>2026-04-18T08:23:46.415Z</time></trkpt><trkpt lat="43.3536108" lon="10.8464185"><ele>193.00000000000003</ele><time>2026-04-18T08:23:47.418Z</time></trkpt><trkpt lat="43.3536264" lon="10.8463178"><ele>193.0</ele><time>2026-04-18T08:23:48.431Z</time></trkpt><trkpt lat="43.3536364" lon="10.8462112"><ele>191.60000000000002</ele><time>2026-04-18T08:23:49.43Z</time></trkpt><trkpt lat="43.3536447" lon="10.8460996"><ele>190.20000000000002</ele><time>2026-04-18T08:23:50.418Z</time></trkpt><trkpt lat="43.3536443" lon="10.845853"><ele>188.8</ele><time>2026-04-18T08:23:52.424Z</time></trkpt><trkpt lat="43.3536386" lon="10.8457287"><ele>187.4</ele><time>2026-04-18T08:23:53.407Z</time></trkpt><trkpt lat="43.353635" lon="10.8456134"><ele>186.0</ele><time>2026-04-18T08:23:54.405Z</time></trkpt><trkpt lat="43.3536356" lon="10.8454985"><ele>183.8</ele><time>2026-04-18T08:23:55.422Z</time></trkpt><trkpt lat="43.3536442" lon="10.8453899"><ele>181.60000000000002</ele><time>2026-04-18T08:23:56.441Z</time></trkpt><trkpt lat="43.3536559" lon="10.8452836"><ele>179.4</ele><time>2026-04-18T08:23:57.421Z</time></trkpt><trkpt lat="43.3536893" lon="10.8450544"><ele>177.2</ele><time>2026-04-18T08:23:59.413Z</time></trkpt><trkpt lat="43.3536924" lon="10.8449316"><ele>175.0</ele><time>2026-04-18T08:24:00.436Z</time></trkpt><trkpt lat="43.353669" lon="10.8446567"><ele>173.6</ele><time>2026-04-18T08:24:02.422Z</time></trkpt><trkpt lat="43.3536498" lon="10.8445188"><ele>172.2</ele><time>2026-04-18T08:24:03.436Z</time></trkpt><trkpt lat="43.3536271" lon="10.8443785"><ele>170.8</ele><time>2026-04-18T08:24:04.428Z</time></trkpt><trkpt lat="43.3536042" lon="10.8442301"><ele>169.4</ele><time>2026-04-18T08:24:05.343Z</time></trkpt><trkpt lat="43.3535797" lon="10.844082"><ele>168.0</ele><time>2026-04-18T08:24:06.319Z</time></trkpt><trkpt lat="43.3535616" lon="10.8439434"><ele>167.4</ele><time>2026-04-18T08:24:07.389Z</time></trkpt><trkpt lat="43.353557" lon="10.8437917"><ele>166.8</ele><time>2026-04-18T08:24:08.407Z</time></trkpt><trkpt lat="43.3535551" lon="10.8436322"><ele>166.2</ele><time>2026-04-18T08:24:09.313Z</time></trkpt><trkpt lat="43.3535583" lon="10.8434826"><ele>165.6</ele><time>2026-04-18T08:24:10.414Z</time></trkpt><trkpt lat="43.3535653" lon="10.8433294"><ele>165.0</ele><time>2026-04-18T08:24:11.428Z</time></trkpt><trkpt lat="43.3535706" lon="10.8431508"><ele>165.0</ele><time>2026-04-18T08:24:12.431Z</time></trkpt><trkpt lat="43.3535713" lon="10.8429633"><ele>165.0</ele><time>2026-04-18T08:24:13.41Z</time></trkpt><trkpt lat="43.3535704" lon="10.8427766"><ele>165.0</ele><time>2026-04-18T08:24:14.432Z</time></trkpt><trkpt lat="43.3535735" lon="10.8423984"><ele>164.75</ele><time>2026-04-18T08:24:16.395Z</time></trkpt><trkpt lat="43.3535745" lon="10.8422329"><ele>164.5</ele><time>2026-04-18T08:24:17.434Z</time></trkpt><trkpt lat="43.3535748" lon="10.8420769"><ele>164.25</ele><time>2026-04-18T08:24:18.427Z</time></trkpt><trkpt lat="43.3535716" lon="10.8419293"><ele>164.0</ele><time>2026-04-18T08:24:19.429Z</time></trkpt><trkpt lat="43.3535685" lon="10.8416434"><ele>163.2</ele><time>2026-04-18T08:24:21.315Z</time></trkpt><trkpt lat="43.3535726" lon="10.8415069"><ele>162.39999999999998</ele><time>2026-04-18T08:24:22.313Z</time></trkpt><trkpt lat="43.353582" lon="10.841363"><ele>161.6</ele><time>2026-04-18T08:24:23.316Z</time></trkpt><trkpt lat="43.3535924" lon="10.8412004"><ele>160.8</ele><time>2026-04-18T08:24:24.311Z</time></trkpt><trkpt lat="43.3536061" lon="10.8410462"><ele>160.0</ele><time>2026-04-18T08:24:25.309Z</time></trkpt><trkpt lat="43.3536165" lon="10.8408899"><ele>159.0</ele><time>2026-04-18T08:24:26.311Z</time></trkpt><trkpt lat="43.3536288" lon="10.8407104"><ele>158.0</ele><time>2026-04-18T08:24:27.43Z</time></trkpt><trkpt lat="43.3536368" lon="10.8405369"><ele>157.0</ele><time>2026-04-18T08:24:28.407Z</time></trkpt><trkpt lat="43.3536427" lon="10.8403823"><ele>156.0</ele><time>2026-04-18T08:24:29.416Z</time></trkpt><trkpt lat="43.3536458" lon="10.8402254"><ele>157.0</ele><time>2026-04-18T08:24:30.435Z</time></trkpt><trkpt lat="43.3536426" lon="10.8400932"><ele>158.0</ele><time>2026-04-18T08:24:31.415Z</time></trkpt><trkpt lat="43.3536354" lon="10.8399628"><ele>159.0</ele><time>2026-04-18T08:24:32.405Z</time></trkpt><trkpt lat="43.3536276" lon="10.8398581"><ele>160.0</ele><time>2026-04-18T08:24:33.404Z</time></trkpt><trkpt lat="43.3536838" lon="10.8396057"><ele>160.0</ele><time>2026-04-18T08:24:36.317Z</time></trkpt><trkpt lat="43.3537092" lon="10.8394725"><ele>160.0</ele><time>2026-04-18T08:24:37.429Z</time></trkpt><trkpt lat="43.3537354" lon="10.8393242"><ele>160.0</ele><time>2026-04-18T08:24:38.426Z</time></trkpt><trkpt lat="43.35375" lon="10.8392015"><ele>160.0</ele><time>2026-04-18T08:24:39.408Z</time></trkpt><trkpt lat="43.3537567" lon="10.83908"><ele>160.0</ele><time>2026-04-18T08:24:40.415Z</time></trkpt><trkpt lat="43.3537589" lon="10.8389546"><ele>160.16666666666669</ele><time>2026-04-18T08:24:41.432Z</time></trkpt><trkpt lat="43.3537592" lon="10.8388361"><ele>160.33333333333334</ele><time>2026-04-18T08:24:42.425Z</time></trkpt><trkpt lat="43.3537564" lon="10.8387151"><ele>160.5</ele><time>2026-04-18T08:24:43.411Z</time></trkpt><trkpt lat="43.3537521" lon="10.8386097"><ele>160.66666666666666</ele><time>2026-04-18T08:24:44.448Z</time></trkpt><trkpt lat="43.3537469" lon="10.8385112"><ele>160.83333333333331</ele><time>2026-04-18T08:24:45.426Z</time></trkpt><trkpt lat="43.3537246" lon="10.8383641"><ele>161.0</ele><time>2026-04-18T08:24:47.424Z</time></trkpt><trkpt lat="43.3536877" lon="10.8381788"><ele>161.0</ele><time>2026-04-18T08:24:50.315Z</time></trkpt><trkpt lat="43.3536578" lon="10.8379943"><ele>161.0</ele><time>2026-04-18T08:24:52.312Z</time></trkpt><trkpt lat="43.3536194" lon="10.8378528"><ele>161.0</ele><time>2026-04-18T08:24:53.312Z</time></trkpt><trkpt lat="43.3535755" lon="10.8376991"><ele>161.0</ele><time>2026-04-18T08:24:54.312Z</time></trkpt><trkpt lat="43.3535408" lon="10.8375547"><ele>161.4</ele><time>2026-04-18T08:24:55.312Z</time></trkpt><trkpt lat="43.3535083" lon="10.8374195"><ele>161.8</ele><time>2026-04-18T08:24:56.313Z</time></trkpt><trkpt lat="43.353468" lon="10.8372873"><ele>162.20000000000002</ele><time>2026-04-18T08:24:57.311Z</time></trkpt><trkpt lat="43.3534239" lon="10.8371629"><ele>162.60000000000002</ele><time>2026-04-18T08:24:58.415Z</time></trkpt><trkpt lat="43.3533649" lon="10.837035"><ele>163.0</ele><time>2026-04-18T08:24:59.434Z</time></trkpt><trkpt lat="43.3533102" lon="10.8369087"><ele>162.25</ele><time>2026-04-18T08:25:00.436Z</time></trkpt><trkpt lat="43.353258" lon="10.8367869"><ele>161.5</ele><time>2026-04-18T08:25:01.434Z</time></trkpt><trkpt lat="43.3532037" lon="10.8366553"><ele>160.75</ele><time>2026-04-18T08:25:02.437Z</time></trkpt><trkpt lat="43.3531211" lon="10.8363803"><ele>160.0</ele><time>2026-04-18T08:25:04.446Z</time></trkpt><trkpt lat="43.3529983" lon="10.8361044"><ele>162.0</ele><time>2026-04-18T08:25:06.313Z</time></trkpt><trkpt lat="43.3529166" lon="10.8359627"><ele>164.0</ele><time>2026-04-18T08:25:07.377Z</time></trkpt><trkpt lat="43.3528325" lon="10.8358241"><ele>166.0</ele><time>2026-04-18T08:25:08.41Z</time></trkpt><trkpt lat="43.3527579" lon="10.8356904"><ele>168.0</ele><time>2026-04-18T08:25:09.406Z</time></trkpt><trkpt lat="43.3526947" lon="10.8355605"><ele>168.0</ele><time>2026-04-18T08:25:10.436Z</time></trkpt><trkpt lat="43.3526407" lon="10.8354393"><ele>168.0</ele><time>2026-04-18T08:25:11.408Z</time></trkpt><trkpt lat="43.3525829" lon="10.8353174"><ele>168.0</ele><time>2026-04-18T08:25:12.436Z</time></trkpt><trkpt lat="43.3525298" lon="10.8351812"><ele>168.0</ele><time>2026-04-18T08:25:13.414Z</time></trkpt><trkpt lat="43.3524792" lon="10.8350474"><ele>168.0</ele><time>2026-04-18T08:25:14.404Z</time></trkpt><trkpt lat="43.3524296" lon="10.8349211"><ele>168.4</ele><time>2026-04-18T08:25:15.319Z</time></trkpt><trkpt lat="43.3523821" lon="10.8347951"><ele>168.8</ele><time>2026-04-18T08:25:16.419Z</time></trkpt><trkpt lat="43.3523373" lon="10.834657"><ele>169.2</ele><time>2026-04-18T08:25:17.417Z</time></trkpt><trkpt lat="43.3523012" lon="10.8345154"><ele>169.6</ele><time>2026-04-18T08:25:18.417Z</time></trkpt><trkpt lat="43.3522751" lon="10.8343841"><ele>170.0</ele><time>2026-04-18T08:25:19.411Z</time></trkpt><trkpt lat="43.3522499" lon="10.8342471"><ele>170.4</ele><time>2026-04-18T08:25:20.316Z</time></trkpt><trkpt lat="43.3522263" lon="10.834117"><ele>170.8</ele><time>2026-04-18T08:25:21.299Z</time></trkpt><trkpt lat="43.3521989" lon="10.8339834"><ele>171.2</ele><time>2026-04-18T08:25:22.302Z</time></trkpt><trkpt lat="43.3521563" lon="10.8338444"><ele>171.6</ele><time>2026-04-18T08:25:23.31Z</time></trkpt><trkpt lat="43.3521061" lon="10.8336951"><ele>172.0</ele><time>2026-04-18T08:25:24.314Z</time></trkpt><trkpt lat="43.3520628" lon="10.8335499"><ele>170.8</ele><time>2026-04-18T08:25:25.315Z</time></trkpt><trkpt lat="43.3520179" lon="10.8334134"><ele>169.6</ele><time>2026-04-18T08:25:26.313Z</time></trkpt><trkpt lat="43.3519823" lon="10.8332805"><ele>168.4</ele><time>2026-04-18T08:25:27.312Z</time></trkpt><trkpt lat="43.3519575" lon="10.8331359"><ele>167.20000000000002</ele><time>2026-04-18T08:25:28.45Z</time></trkpt><trkpt lat="43.3519434" lon="10.8329967"><ele>166.0</ele><time>2026-04-18T08:25:29.451Z</time></trkpt><trkpt lat="43.3519345" lon="10.8328703"><ele>166.0</ele><time>2026-04-18T08:25:30.448Z</time></trkpt><trkpt lat="43.3519124" lon="10.8327472"><ele>166.0</ele><time>2026-04-18T08:25:31.45Z</time></trkpt><trkpt lat="43.3518969" lon="10.8326322"><ele>166.0</ele><time>2026-04-18T08:25:32.451Z</time></trkpt><trkpt lat="43.3518739" lon="10.8325196"><ele>166.0</ele><time>2026-04-18T08:25:33.449Z</time></trkpt><trkpt lat="43.3518407" lon="10.832409"><ele>166.0</ele><time>2026-04-18T08:25:34.406Z</time></trkpt><trkpt lat="43.3518026" lon="10.8323006"><ele>166.0</ele><time>2026-04-18T08:25:35.318Z</time></trkpt><trkpt lat="43.3517715" lon="10.8321939"><ele>164.5</ele><time>2026-04-18T08:25:36.315Z</time></trkpt><trkpt lat="43.3517452" lon="10.8320717"><ele>163.0</ele><time>2026-04-18T08:25:37.459Z</time></trkpt><trkpt lat="43.3516857" lon="10.8318019"><ele>161.5</ele><time>2026-04-18T08:25:39.44Z</time></trkpt><trkpt lat="43.3516531" lon="10.8316715"><ele>160.0</ele><time>2026-04-18T08:25:40.447Z</time></trkpt><trkpt lat="43.3516165" lon="10.8315421"><ele>158.4</ele><time>2026-04-18T08:25:41.441Z</time></trkpt><trkpt lat="43.3515833" lon="10.8314066"><ele>156.8</ele><time>2026-04-18T08:25:42.454Z</time></trkpt><trkpt lat="43.3515577" lon="10.8312756"><ele>155.2</ele><time>2026-04-18T08:25:43.446Z</time></trkpt><trkpt lat="43.3515422" lon="10.8311524"><ele>153.6</ele><time>2026-04-18T08:25:44.446Z</time></trkpt><trkpt lat="43.3515304" lon="10.8310367"><ele>152.0</ele><time>2026-04-18T08:25:45.436Z</time></trkpt><trkpt lat="43.351526" lon="10.8309282"><ele>151.57142857142856</ele><time>2026-04-18T08:25:46.451Z</time></trkpt><trkpt lat="43.3515224" lon="10.8308218"><ele>151.14285714285717</ele><time>2026-04-18T08:25:47.415Z</time></trkpt><trkpt lat="43.3515176" lon="10.8307237"><ele>150.71428571428572</ele><time>2026-04-18T08:25:48.455Z</time></trkpt><trkpt lat="43.3515119" lon="10.8306279"><ele>150.28571428571428</ele><time>2026-04-18T08:25:49.445Z</time></trkpt><trkpt lat="43.3515105" lon="10.8305351"><ele>149.85714285714283</ele><time>2026-04-18T08:25:50.456Z</time></trkpt><trkpt lat="43.3515148" lon="10.8304394"><ele>149.42857142857142</ele><time>2026-04-18T08:25:51.457Z</time></trkpt><trkpt lat="43.3515179" lon="10.8303427"><ele>149.0</ele><time>2026-04-18T08:25:52.441Z</time></trkpt><trkpt lat="43.3515129" lon="10.8302493"><ele>149.0</ele><time>2026-04-18T08:25:53.445Z</time></trkpt><trkpt lat="43.3515071" lon="10.8301561"><ele>149.0</ele><time>2026-04-18T08:25:54.458Z</time></trkpt><trkpt lat="43.351499" lon="10.8299775"><ele>149.0</ele><time>2026-04-18T08:25:56.447Z</time></trkpt><trkpt lat="43.3514904" lon="10.8298827"><ele>149.0</ele><time>2026-04-18T08:25:57.448Z</time></trkpt><trkpt lat="43.351483" lon="10.829796"><ele>149.0</ele><time>2026-04-18T08:25:58.443Z</time></trkpt><trkpt lat="43.3514878" lon="10.8297049"><ele>149.0</ele><time>2026-04-18T08:25:59.409Z</time></trkpt><trkpt lat="43.3515162" lon="10.8296125"><ele>148.5</ele><time>2026-04-18T08:26:00.453Z</time></trkpt><trkpt lat="43.3515614" lon="10.8295436"><ele>148.0</ele><time>2026-04-18T08:26:01.444Z</time></trkpt><trkpt lat="43.3516199" lon="10.8294923"><ele>147.5</ele><time>2026-04-18T08:26:02.414Z</time></trkpt><trkpt lat="43.3516929" lon="10.8294512"><ele>147.0</ele><time>2026-04-18T08:26:03.451Z</time></trkpt><trkpt lat="43.3517511" lon="10.8294142"><ele>146.5</ele><time>2026-04-18T08:26:04.453Z</time></trkpt><trkpt lat="43.3518365" lon="10.829326"><ele>146.0</ele><time>2026-04-18T08:26:06.325Z</time></trkpt><trkpt lat="43.3518782" lon="10.8291643"><ele>144.2</ele><time>2026-04-18T08:26:08.401Z</time></trkpt><trkpt lat="43.3518745" lon="10.8290551"><ele>142.39999999999998</ele><time>2026-04-18T08:26:09.319Z</time></trkpt><trkpt lat="43.3518632" lon="10.8289194"><ele>140.6</ele><time>2026-04-18T08:26:10.445Z</time></trkpt><trkpt lat="43.3518661" lon="10.8287816"><ele>138.79999999999998</ele><time>2026-04-18T08:26:11.445Z</time></trkpt><trkpt lat="43.3518792" lon="10.8286368"><ele>137.0</ele><time>2026-04-18T08:26:12.454Z</time></trkpt><trkpt lat="43.3518848" lon="10.828504"><ele>136.5</ele><time>2026-04-18T08:26:13.439Z</time></trkpt><trkpt lat="43.3518442" lon="10.8282229"><ele>136.0</ele><time>2026-04-18T08:26:15.31Z</time></trkpt><trkpt lat="43.3518131" lon="10.8280909"><ele>135.5</ele><time>2026-04-18T08:26:16.31Z</time></trkpt><trkpt lat="43.3517925" lon="10.8279749"><ele>135.0</ele><time>2026-04-18T08:26:17.315Z</time></trkpt><trkpt lat="43.3517941" lon="10.8278666"><ele>135.0</ele><time>2026-04-18T08:26:18.312Z</time></trkpt><trkpt lat="43.3518142" lon="10.8277809"><ele>135.0</ele><time>2026-04-18T08:26:19.318Z</time></trkpt><trkpt lat="43.3518598" lon="10.8277018"><ele>135.0</ele><time>2026-04-18T08:26:20.306Z</time></trkpt><trkpt lat="43.3519235" lon="10.8276252"><ele>135.0</ele><time>2026-04-18T08:26:21.312Z</time></trkpt><trkpt lat="43.3520123" lon="10.827543"><ele>135.0</ele><time>2026-04-18T08:26:22.311Z</time></trkpt><trkpt lat="43.3521116" lon="10.8274501"><ele>135.75</ele><time>2026-04-18T08:26:23.319Z</time></trkpt><trkpt lat="43.3522042" lon="10.8273608"><ele>136.5</ele><time>2026-04-18T08:26:24.31Z</time></trkpt><trkpt lat="43.3523003" lon="10.8272677"><ele>137.25</ele><time>2026-04-18T08:26:25.411Z</time></trkpt><trkpt lat="43.3523977" lon="10.8271652"><ele>138.0</ele><time>2026-04-18T08:26:26.316Z</time></trkpt><trkpt lat="43.3524882" lon="10.8270625"><ele>139.4</ele><time>2026-04-18T08:26:27.317Z</time></trkpt><trkpt lat="43.3525709" lon="10.8269673"><ele>140.8</ele><time>2026-04-18T08:26:28.439Z</time></trkpt><trkpt lat="43.3526495" lon="10.8268823"><ele>142.2</ele><time>2026-04-18T08:26:29.423Z</time></trkpt><trkpt lat="43.3527159" lon="10.8268044"><ele>143.6</ele><time>2026-04-18T08:26:30.429Z</time></trkpt><trkpt lat="43.3527736" lon="10.8267161"><ele>145.0</ele><time>2026-04-18T08:26:31.42Z</time></trkpt><trkpt lat="43.3528276" lon="10.8266179"><ele>145.0</ele><time>2026-04-18T08:26:32.404Z</time></trkpt><trkpt lat="43.35289" lon="10.8265325"><ele>145.0</ele><time>2026-04-18T08:26:33.428Z</time></trkpt><trkpt lat="43.352959" lon="10.8264762"><ele>145.0</ele><time>2026-04-18T08:26:34.432Z</time></trkpt><trkpt lat="43.353095" lon="10.8264103"><ele>145.0</ele><time>2026-04-18T08:26:36.319Z</time></trkpt><trkpt lat="43.3532018" lon="10.8263049"><ele>145.0</ele><time>2026-04-18T08:26:38.41Z</time></trkpt><trkpt lat="43.353252" lon="10.8262258"><ele>144.83333333333334</ele><time>2026-04-18T08:26:39.411Z</time></trkpt><trkpt lat="43.3532859" lon="10.826125"><ele>144.66666666666669</ele><time>2026-04-18T08:26:40.398Z</time></trkpt><trkpt lat="43.353327" lon="10.826029"><ele>144.5</ele><time>2026-04-18T08:26:41.415Z</time></trkpt><trkpt lat="43.3533143" lon="10.8259368"><ele>144.33333333333334</ele><time>2026-04-18T08:26:42.316Z</time></trkpt><trkpt lat="43.3533223" lon="10.8258181"><ele>144.16666666666666</ele><time>2026-04-18T08:26:43.436Z</time></trkpt><trkpt lat="43.3533195" lon="10.8256976"><ele>144.0</ele><time>2026-04-18T08:26:44.432Z</time></trkpt><trkpt lat="43.3533104" lon="10.8255834"><ele>144.0</ele><time>2026-04-18T08:26:45.439Z</time></trkpt><trkpt lat="43.3532991" lon="10.8254743"><ele>144.0</ele><time>2026-04-18T08:26:46.429Z</time></trkpt><trkpt lat="43.3532967" lon="10.8253527"><ele>144.0</ele><time>2026-04-18T08:26:47.416Z</time></trkpt><trkpt lat="43.3532964" lon="10.8252324"><ele>144.0</ele><time>2026-04-18T08:26:48.411Z</time></trkpt><trkpt lat="43.3532961" lon="10.8251082"><ele>144.0</ele><time>2026-04-18T08:26:49.408Z</time></trkpt><trkpt lat="43.3533134" lon="10.8249886"><ele>144.0</ele><time>2026-04-18T08:26:50.414Z</time></trkpt><trkpt lat="43.353314" lon="10.8248678"><ele>143.16666666666666</ele><time>2026-04-18T08:26:51.407Z</time></trkpt><trkpt lat="43.3533161" lon="10.8247475"><ele>142.33333333333334</ele><time>2026-04-18T08:26:52.429Z</time></trkpt><trkpt lat="43.353318" lon="10.8246339"><ele>141.5</ele><time>2026-04-18T08:26:53.414Z</time></trkpt><trkpt lat="43.3533159" lon="10.8245317"><ele>140.66666666666669</ele><time>2026-04-18T08:26:54.434Z</time></trkpt><trkpt lat="43.3533157" lon="10.8244152"><ele>139.83333333333334</ele><time>2026-04-18T08:26:55.427Z</time></trkpt><trkpt lat="43.3533021" lon="10.824285"><ele>139.0</ele><time>2026-04-18T08:26:56.402Z</time></trkpt><trkpt lat="43.3533112" lon="10.8241627"><ele>138.25</ele><time>2026-04-18T08:26:57.439Z</time></trkpt><trkpt lat="43.3533183" lon="10.8240495"><ele>137.5</ele><time>2026-04-18T08:26:58.44Z</time></trkpt><trkpt lat="43.3532674" lon="10.8238957"><ele>136.75</ele><time>2026-04-18T08:27:00.427Z</time></trkpt><trkpt lat="43.3531961" lon="10.8237895"><ele>136.0</ele><time>2026-04-18T08:27:03.412Z</time></trkpt><trkpt lat="43.353144" lon="10.8235403"><ele>135.25</ele><time>2026-04-18T08:27:10.316Z</time></trkpt><trkpt lat="43.3531368" lon="10.8234039"><ele>134.5</ele><time>2026-04-18T08:27:11.316Z</time></trkpt><trkpt lat="43.3531351" lon="10.8232423"><ele>133.75</ele><time>2026-04-18T08:27:12.312Z</time></trkpt><trkpt lat="43.3531465" lon="10.8230712"><ele>133.0</ele><time>2026-04-18T08:27:13.434Z</time></trkpt><trkpt lat="43.3532208" lon="10.8226891"><ele>132.33333333333334</ele><time>2026-04-18T08:27:15.408Z</time></trkpt><trkpt lat="43.3532927" lon="10.8224788"><ele>131.66666666666666</ele><time>2026-04-18T08:27:16.426Z</time></trkpt><trkpt lat="43.3533669" lon="10.8222804"><ele>131.0</ele><time>2026-04-18T08:27:17.437Z</time></trkpt><trkpt lat="43.3534979" lon="10.8219216"><ele>130.5</ele><time>2026-04-18T08:27:19.316Z</time></trkpt><trkpt lat="43.3535464" lon="10.8217542"><ele>130.0</ele><time>2026-04-18T08:27:20.316Z</time></trkpt><trkpt lat="43.3535828" lon="10.821578"><ele>129.5</ele><time>2026-04-18T08:27:21.396Z</time></trkpt><trkpt lat="43.3535977" lon="10.8214008"><ele>129.0</ele><time>2026-04-18T08:27:22.422Z</time></trkpt><trkpt lat="43.353596" lon="10.8212173"><ele>129.0</ele><time>2026-04-18T08:27:23.411Z</time></trkpt><trkpt lat="43.3535779" lon="10.821034"><ele>129.0</ele><time>2026-04-18T08:27:24.406Z</time></trkpt><trkpt lat="43.3535469" lon="10.8208441"><ele>129.0</ele><time>2026-04-18T08:27:25.436Z</time></trkpt><trkpt lat="43.3535149" lon="10.8206466"><ele>129.0</ele><time>2026-04-18T08:27:26.41Z</time></trkpt><trkpt lat="43.3534819" lon="10.8204596"><ele>128.75</ele><time>2026-04-18T08:27:27.312Z</time></trkpt><trkpt lat="43.3534518" lon="10.8202727"><ele>128.5</ele><time>2026-04-18T08:27:28.43Z</time></trkpt><trkpt lat="43.3534214" lon="10.8200916"><ele>128.25</ele><time>2026-04-18T08:27:29.413Z</time></trkpt><trkpt lat="43.3534" lon="10.8199179"><ele>128.0</ele><time>2026-04-18T08:27:30.43Z</time></trkpt><trkpt lat="43.3533982" lon="10.8197401"><ele>128.25</ele><time>2026-04-18T08:27:31.416Z</time></trkpt><trkpt lat="43.3534161" lon="10.819556"><ele>128.5</ele><time>2026-04-18T08:27:32.411Z</time></trkpt><trkpt lat="43.3534512" lon="10.819365"><ele>128.75</ele><time>2026-04-18T08:27:33.433Z</time></trkpt><trkpt lat="43.3535001" lon="10.8191766"><ele>129.0</ele><time>2026-04-18T08:27:34.431Z</time></trkpt><trkpt lat="43.35356" lon="10.818986"><ele>129.0</ele><time>2026-04-18T08:27:35.431Z</time></trkpt><trkpt lat="43.353622" lon="10.8188129"><ele>129.0</ele><time>2026-04-18T08:27:36.403Z</time></trkpt><trkpt lat="43.3536807" lon="10.8186487"><ele>129.0</ele><time>2026-04-18T08:27:37.432Z</time></trkpt><trkpt lat="43.3537424" lon="10.8184863"><ele>129.0</ele><time>2026-04-18T08:27:38.43Z</time></trkpt><trkpt lat="43.3538141" lon="10.8183356"><ele>128.0</ele><time>2026-04-18T08:27:39.383Z</time></trkpt><trkpt lat="43.3539049" lon="10.8182062"><ele>127.0</ele><time>2026-04-18T08:27:40.321Z</time></trkpt><trkpt lat="43.3540172" lon="10.8181063"><ele>126.0</ele><time>2026-04-18T08:27:41.319Z</time></trkpt><trkpt lat="43.3541419" lon="10.8180389"><ele>125.0</ele><time>2026-04-18T08:27:42.318Z</time></trkpt><trkpt lat="43.3542675" lon="10.8179747"><ele>125.0</ele><time>2026-04-18T08:27:43.315Z</time></trkpt><trkpt lat="43.3543971" lon="10.8179148"><ele>125.0</ele><time>2026-04-18T08:27:44.309Z</time></trkpt><trkpt lat="43.3545253" lon="10.8178343"><ele>125.0</ele><time>2026-04-18T08:27:45.317Z</time></trkpt><trkpt lat="43.3546446" lon="10.817725"><ele>125.0</ele><time>2026-04-18T08:27:46.315Z</time></trkpt><trkpt lat="43.3547548" lon="10.8175879"><ele>124.5</ele><time>2026-04-18T08:27:47.423Z</time></trkpt><trkpt lat="43.3548512" lon="10.8174375"><ele>124.0</ele><time>2026-04-18T08:27:48.435Z</time></trkpt><trkpt lat="43.3549331" lon="10.8172657"><ele>123.5</ele><time>2026-04-18T08:27:49.428Z</time></trkpt><trkpt lat="43.3550002" lon="10.8170755"><ele>123.0</ele><time>2026-04-18T08:27:50.432Z</time></trkpt><trkpt lat="43.3550573" lon="10.8168814"><ele>124.33333333333334</ele><time>2026-04-18T08:27:51.431Z</time></trkpt><trkpt lat="43.3551163" lon="10.8166845"><ele>125.66666666666667</ele><time>2026-04-18T08:27:52.394Z</time></trkpt><trkpt lat="43.355173" lon="10.8164842"><ele>127.0</ele><time>2026-04-18T08:27:53.389Z</time></trkpt><trkpt lat="43.3552261" lon="10.8162785"><ele>127.0</ele><time>2026-04-18T08:27:54.417Z</time></trkpt><trkpt lat="43.3552752" lon="10.8160774"><ele>127.0</ele><time>2026-04-18T08:27:55.434Z</time></trkpt><trkpt lat="43.3553198" lon="10.8158929"><ele>127.0</ele><time>2026-04-18T08:27:56.41Z</time></trkpt><trkpt lat="43.3553616" lon="10.8157207"><ele>127.0</ele><time>2026-04-18T08:27:57.43Z</time></trkpt><trkpt lat="43.3554415" lon="10.8154022"><ele>127.8</ele><time>2026-04-18T08:27:59.422Z</time></trkpt><trkpt lat="43.3554768" lon="10.8152558"><ele>128.6</ele><time>2026-04-18T08:28:00.324Z</time></trkpt><trkpt lat="43.3555114" lon="10.8151146"><ele>129.39999999999998</ele><time>2026-04-18T08:28:01.408Z</time></trkpt><trkpt lat="43.3555493" lon="10.8149738"><ele>130.2</ele><time>2026-04-18T08:28:02.431Z</time></trkpt><trkpt lat="43.3555906" lon="10.8148321"><ele>131.0</ele><time>2026-04-18T08:28:03.439Z</time></trkpt><trkpt lat="43.3556394" lon="10.8146889"><ele>128.75</ele><time>2026-04-18T08:28:04.426Z</time></trkpt><trkpt lat="43.3557078" lon="10.8145554"><ele>126.5</ele><time>2026-04-18T08:28:05.426Z</time></trkpt><trkpt lat="43.3557999" lon="10.8144404"><ele>124.25</ele><time>2026-04-18T08:28:06.402Z</time></trkpt><trkpt lat="43.3559118" lon="10.8143547"><ele>122.0</ele><time>2026-04-18T08:28:07.427Z</time></trkpt><trkpt lat="43.3560359" lon="10.8142804"><ele>122.0</ele><time>2026-04-18T08:28:08.434Z</time></trkpt><trkpt lat="43.3561578" lon="10.814217"><ele>122.0</ele><time>2026-04-18T08:28:09.413Z</time></trkpt><trkpt lat="43.3562784" lon="10.8141494"><ele>122.0</ele><time>2026-04-18T08:28:10.315Z</time></trkpt><trkpt lat="43.3563995" lon="10.8140701"><ele>122.0</ele><time>2026-04-18T08:28:11.314Z</time></trkpt><trkpt lat="43.3565157" lon="10.8139721"><ele>119.75</ele><time>2026-04-18T08:28:12.315Z</time></trkpt><trkpt lat="43.3566277" lon="10.8138562"><ele>117.5</ele><time>2026-04-18T08:28:13.315Z</time></trkpt><trkpt lat="43.3567335" lon="10.8137218"><ele>115.25</ele><time>2026-04-18T08:28:14.413Z</time></trkpt><trkpt lat="43.3568329" lon="10.813573"><ele>113.0</ele><time>2026-04-18T08:28:15.434Z</time></trkpt><trkpt lat="43.3569341" lon="10.813421"><ele>113.0</ele><time>2026-04-18T08:28:16.439Z</time></trkpt><trkpt lat="43.357033" lon="10.8132731"><ele>113.0</ele><time>2026-04-18T08:28:17.436Z</time></trkpt><trkpt lat="43.3571254" lon="10.813133"><ele>113.0</ele><time>2026-04-18T08:28:18.436Z</time></trkpt><trkpt lat="43.3572117" lon="10.8129966"><ele>113.0</ele><time>2026-04-18T08:28:19.433Z</time></trkpt><trkpt lat="43.3572902" lon="10.8128774"><ele>112.0</ele><time>2026-04-18T08:28:20.425Z</time></trkpt><trkpt lat="43.3573723" lon="10.8127727"><ele>111.00000000000001</ele><time>2026-04-18T08:28:21.44Z</time></trkpt><trkpt lat="43.3574645" lon="10.8126874"><ele>110.00000000000001</ele><time>2026-04-18T08:28:22.4Z</time></trkpt><trkpt lat="43.3575682" lon="10.812639"><ele>109.0</ele><time>2026-04-18T08:28:23.302Z</time></trkpt><trkpt lat="43.3576844" lon="10.812625"><ele>108.0</ele><time>2026-04-18T08:28:24.428Z</time></trkpt><trkpt lat="43.3578038" lon="10.8126278"><ele>108.0</ele><time>2026-04-18T08:28:25.43Z</time></trkpt><trkpt lat="43.3579212" lon="10.8126305"><ele>108.00000000000001</ele><time>2026-04-18T08:28:26.418Z</time></trkpt><trkpt lat="43.3580305" lon="10.8126481"><ele>108.00000000000001</ele><time>2026-04-18T08:28:27.427Z</time></trkpt><trkpt lat="43.3581266" lon="10.8126841"><ele>108.0</ele><time>2026-04-18T08:28:28.431Z</time></trkpt><trkpt lat="43.3582068" lon="10.8127379"><ele>108.0</ele><time>2026-04-18T08:28:29.427Z</time></trkpt><trkpt lat="43.3582608" lon="10.8128291"><ele>104.25</ele><time>2026-04-18T08:28:30.429Z</time></trkpt><trkpt lat="43.358277" lon="10.8129415"><ele>100.5</ele><time>2026-04-18T08:28:31.431Z</time></trkpt><trkpt lat="43.3582133" lon="10.8131943"><ele>96.75</ele><time>2026-04-18T08:28:33.402Z</time></trkpt><trkpt lat="43.3581444" lon="10.8133203"><ele>93.0</ele><time>2026-04-18T08:28:34.421Z</time></trkpt><trkpt lat="43.3580611" lon="10.8134466"><ele>93.25</ele><time>2026-04-18T08:28:35.43Z</time></trkpt><trkpt lat="43.3579694" lon="10.8135759"><ele>93.5</ele><time>2026-04-18T08:28:36.428Z</time></trkpt><trkpt lat="43.357876" lon="10.8137078"><ele>93.75</ele><time>2026-04-18T08:28:37.427Z</time></trkpt><trkpt lat="43.357786" lon="10.8138425"><ele>94.0</ele><time>2026-04-18T08:28:38.405Z</time></trkpt><trkpt lat="43.3576978" lon="10.8139686"><ele>94.0</ele><time>2026-04-18T08:28:39.427Z</time></trkpt><trkpt lat="43.3575457" lon="10.8141839"><ele>94.0</ele><time>2026-04-18T08:28:41.312Z</time></trkpt><trkpt lat="43.357477" lon="10.81428"><ele>94.0</ele><time>2026-04-18T08:28:42.438Z</time></trkpt><trkpt lat="43.3574185" lon="10.8143683"><ele>94.0</ele><time>2026-04-18T08:28:43.441Z</time></trkpt><trkpt lat="43.3573799" lon="10.814461"><ele>92.83333333333333</ele><time>2026-04-18T08:28:44.421Z</time></trkpt><trkpt lat="43.357381" lon="10.8145652"><ele>91.66666666666666</ele><time>2026-04-18T08:28:45.427Z</time></trkpt><trkpt lat="43.3574193" lon="10.8146464"><ele>90.5</ele><time>2026-04-18T08:28:46.427Z</time></trkpt><trkpt lat="43.3574835" lon="10.8146904"><ele>89.33333333333333</ele><time>2026-04-18T08:28:47.43Z</time></trkpt><trkpt lat="43.3575708" lon="10.8146975"><ele>88.16666666666667</ele><time>2026-04-18T08:28:48.432Z</time></trkpt><trkpt lat="43.357674" lon="10.8146674"><ele>87.0</ele><time>2026-04-18T08:28:49.425Z</time></trkpt><trkpt lat="43.3577847" lon="10.8146191"><ele>87.0</ele><time>2026-04-18T08:28:50.415Z</time></trkpt><trkpt lat="43.3579082" lon="10.814566"><ele>87.0</ele><time>2026-04-18T08:28:51.403Z</time></trkpt><trkpt lat="43.3580404" lon="10.8145081"><ele>87.0</ele><time>2026-04-18T08:28:52.437Z</time></trkpt><trkpt lat="43.3581781" lon="10.814454"><ele>87.0</ele><time>2026-04-18T08:28:53.427Z</time></trkpt><trkpt lat="43.358313" lon="10.8143996"><ele>86.75</ele><time>2026-04-18T08:28:54.423Z</time></trkpt><trkpt lat="43.3584426" lon="10.8143492"><ele>86.5</ele><time>2026-04-18T08:28:55.428Z</time></trkpt><trkpt lat="43.3585675" lon="10.8143048"><ele>86.25</ele><time>2026-04-18T08:28:56.409Z</time></trkpt><trkpt lat="43.3586867" lon="10.8142542"><ele>86.0</ele><time>2026-04-18T08:28:57.313Z</time></trkpt><trkpt lat="43.3587973" lon="10.8141825"><ele>82.66666666666667</ele><time>2026-04-18T08:28:58.427Z</time></trkpt><trkpt lat="43.3590019" lon="10.8139662"><ele>79.33333333333333</ele><time>2026-04-18T08:29:00.318Z</time></trkpt><trkpt lat="43.3591011" lon="10.8138386"><ele>76.0</ele><time>2026-04-18T08:29:01.431Z</time></trkpt><trkpt lat="43.3591984" lon="10.8137101"><ele>76.0</ele><time>2026-04-18T08:29:02.424Z</time></trkpt><trkpt lat="43.3592879" lon="10.8135895"><ele>76.0</ele><time>2026-04-18T08:29:03.406Z</time></trkpt><trkpt lat="43.3593736" lon="10.8134747"><ele>76.0</ele><time>2026-04-18T08:29:04.41Z</time></trkpt><trkpt lat="43.359455" lon="10.8133674"><ele>76.0</ele><time>2026-04-18T08:29:05.318Z</time></trkpt><trkpt lat="43.3595298" lon="10.8132683"><ele>75.66666666666666</ele><time>2026-04-18T08:29:06.435Z</time></trkpt><trkpt lat="43.3595962" lon="10.8131785"><ele>75.33333333333333</ele><time>2026-04-18T08:29:07.427Z</time></trkpt><trkpt lat="43.3596555" lon="10.8130996"><ele>75.0</ele><time>2026-04-18T08:29:08.448Z</time></trkpt><trkpt lat="43.3597033" lon="10.8130284"><ele>74.66666666666667</ele><time>2026-04-18T08:29:09.427Z</time></trkpt><trkpt lat="43.3597797" lon="10.8129185"><ele>74.33333333333334</ele><time>2026-04-18T08:29:11.314Z</time></trkpt><trkpt lat="43.359825" lon="10.8128438"><ele>74.0</ele><time>2026-04-18T08:29:13.418Z</time></trkpt><trkpt lat="43.3598761" lon="10.8127645"><ele>74.0</ele><time>2026-04-18T08:29:34.307Z</time></trkpt><trkpt lat="43.3599397" lon="10.8126757"><ele>74.0</ele><time>2026-04-18T08:29:40.31Z</time></trkpt><trkpt lat="43.3600096" lon="10.8125906"><ele>74.0</ele><time>2026-04-18T08:29:42.436Z</time></trkpt><trkpt lat="43.3600997" lon="10.8125104"><ele>74.0</ele><time>2026-04-18T08:29:46.314Z</time></trkpt><trkpt lat="43.3601644" lon="10.8124783"><ele>74.0</ele><time>2026-04-18T08:29:48.42Z</time></trkpt><trkpt lat="43.3602253" lon="10.8124268"><ele>74.0</ele><time>2026-04-18T08:29:50.385Z</time></trkpt><trkpt lat="43.3602849" lon="10.812352"><ele>73.75</ele><time>2026-04-18T08:29:52.314Z</time></trkpt><trkpt lat="43.3603455" lon="10.8122838"><ele>73.5</ele><time>2026-04-18T08:29:54.429Z</time></trkpt><trkpt lat="43.3604187" lon="10.8122464"><ele>73.25</ele><time>2026-04-18T08:29:56.317Z</time></trkpt><trkpt lat="43.360616" lon="10.8123086"><ele>73.0</ele><time>2026-04-18T08:29:59.427Z</time></trkpt><trkpt lat="43.360775" lon="10.8123498"><ele>73.0</ele><time>2026-04-18T08:30:01.315Z</time></trkpt><trkpt lat="43.3608629" lon="10.8123592"><ele>73.0</ele><time>2026-04-18T08:30:02.315Z</time></trkpt><trkpt lat="43.360951" lon="10.8123511"><ele>73.0</ele><time>2026-04-18T08:30:03.315Z</time></trkpt><trkpt lat="43.3610336" lon="10.8123288"><ele>73.0</ele><time>2026-04-18T08:30:04.317Z</time></trkpt><trkpt lat="43.361105" lon="10.8122958"><ele>73.0</ele><time>2026-04-18T08:30:05.432Z</time></trkpt><trkpt lat="43.3612096" lon="10.8122384"><ele>73.0</ele><time>2026-04-18T08:30:07.433Z</time></trkpt><trkpt lat="43.3613145" lon="10.8122162"><ele>73.6</ele><time>2026-04-18T08:30:09.427Z</time></trkpt><trkpt lat="43.3614259" lon="10.8122832"><ele>74.19999999999999</ele><time>2026-04-18T08:30:11.404Z</time></trkpt><trkpt lat="43.3614907" lon="10.8123398"><ele>74.8</ele><time>2026-04-18T08:30:12.318Z</time></trkpt><trkpt lat="43.3615641" lon="10.8123946"><ele>75.39999999999999</ele><time>2026-04-18T08:30:13.418Z</time></trkpt><trkpt lat="43.3616453" lon="10.8124433"><ele>76.0</ele><time>2026-04-18T08:30:14.429Z</time></trkpt><trkpt lat="43.3617282" lon="10.8124879"><ele>76.0</ele><time>2026-04-18T08:30:15.429Z</time></trkpt><trkpt lat="43.3618842" lon="10.8125457"><ele>76.0</ele><time>2026-04-18T08:30:17.313Z</time></trkpt><trkpt lat="43.3619614" lon="10.8125666"><ele>76.0</ele><time>2026-04-18T08:30:18.437Z</time></trkpt><trkpt lat="43.3621228" lon="10.8126089"><ele>76.0</ele><time>2026-04-18T08:30:20.315Z</time></trkpt><trkpt lat="43.3621981" lon="10.8126316"><ele>76.42857142857143</ele><time>2026-04-18T08:30:21.314Z</time></trkpt><trkpt lat="43.3622664" lon="10.8126554"><ele>76.85714285714286</ele><time>2026-04-18T08:30:22.353Z</time></trkpt><trkpt lat="43.3623257" lon="10.8126919"><ele>77.28571428571429</ele><time>2026-04-18T08:30:23.409Z</time></trkpt><trkpt lat="43.3623981" lon="10.8127711"><ele>77.71428571428572</ele><time>2026-04-18T08:30:25.423Z</time></trkpt><trkpt lat="43.3624542" lon="10.8128526"><ele>78.14285714285714</ele><time>2026-04-18T08:30:28.431Z</time></trkpt><trkpt lat="43.3625189" lon="10.8128866"><ele>78.57142857142858</ele><time>2026-04-18T08:33:21.314Z</time></trkpt><trkpt lat="43.3625561" lon="10.8128125"><ele>79.0</ele><time>2026-04-18T08:33:25.448Z</time></trkpt><trkpt lat="43.3626031" lon="10.8127137"><ele>78.14285714285715</ele><time>2026-04-18T08:33:28.313Z</time></trkpt><trkpt lat="43.3626661" lon="10.8126755"><ele>77.28571428571429</ele><time>2026-04-18T08:33:31.301Z</time></trkpt><trkpt lat="43.3627423" lon="10.8126828"><ele>76.42857142857143</ele><time>2026-04-18T08:33:34.312Z</time></trkpt><trkpt lat="43.3627785" lon="10.8127669"><ele>75.57142857142858</ele><time>2026-04-18T08:36:26.314Z</time></trkpt><trkpt lat="43.3627953" lon="10.8128544"><ele>74.71428571428572</ele><time>2026-04-18T08:36:32.313Z</time></trkpt><trkpt lat="43.3627533" lon="10.8127792"><ele>73.85714285714286</ele><time>2026-04-18T08:37:27.302Z</time></trkpt><trkpt lat="43.3627293" lon="10.8126966"><ele>73.0</ele><time>2026-04-18T08:43:40.304Z</time></trkpt><trkpt lat="43.3627976" lon="10.8126598"><ele>73.0</ele><time>2026-04-18T08:46:17.307Z</time></trkpt><trkpt lat="43.3629906" lon="10.8126691"><ele>73.0</ele><time>2026-04-18T08:46:19.302Z</time></trkpt><trkpt lat="43.3630974" lon="10.8126663"><ele>73.0</ele><time>2026-04-18T08:46:20.301Z</time></trkpt><trkpt lat="43.3631854" lon="10.8126631"><ele>73.0</ele><time>2026-04-18T08:46:21.305Z</time></trkpt><trkpt lat="43.3632714" lon="10.8126613"><ele>73.16666666666666</ele><time>2026-04-18T08:46:22.296Z</time></trkpt><trkpt lat="43.3633508" lon="10.8126606"><ele>73.33333333333333</ele><time>2026-04-18T08:46:23.305Z</time></trkpt><trkpt lat="43.3634217" lon="10.8126628"><ele>73.5</ele><time>2026-04-18T08:46:24.307Z</time></trkpt><trkpt lat="43.3634849" lon="10.812667"><ele>73.66666666666667</ele><time>2026-04-18T08:46:25.306Z</time></trkpt><trkpt lat="43.3635933" lon="10.8126797"><ele>73.83333333333334</ele><time>2026-04-18T08:46:27.303Z</time></trkpt><trkpt lat="43.3636879" lon="10.8126997"><ele>74.0</ele><time>2026-04-18T08:46:29.303Z</time></trkpt><trkpt lat="43.3637652" lon="10.8127701"><ele>74.0</ele><time>2026-04-18T08:47:07.306Z</time></trkpt><trkpt lat="43.3638323" lon="10.8127515"><ele>74.0</ele><time>2026-04-18T08:47:09.426Z</time></trkpt><trkpt lat="43.3638405" lon="10.8126422"><ele>74.0</ele><time>2026-04-18T08:47:12.307Z</time></trkpt><trkpt lat="43.3637472" lon="10.8126217"><ele>74.0</ele><time>2026-04-18T08:47:14.397Z</time></trkpt><trkpt lat="43.3636666" lon="10.8126292"><ele>74.0</ele><time>2026-04-18T08:47:15.402Z</time></trkpt><trkpt lat="43.3635805" lon="10.8126378"><ele>74.0</ele><time>2026-04-18T08:47:16.308Z</time></trkpt><trkpt lat="43.3634862" lon="10.8126429"><ele>75.0</ele><time>2026-04-18T08:47:17.305Z</time></trkpt><trkpt lat="43.3633865" lon="10.8126431"><ele>76.0</ele><time>2026-04-18T08:47:18.3Z</time></trkpt><trkpt lat="43.3632925" lon="10.8126443"><ele>77.0</ele><time>2026-04-18T08:47:19.412Z</time></trkpt><trkpt lat="43.3632014" lon="10.8126436"><ele>78.0</ele><time>2026-04-18T08:47:20.403Z</time></trkpt><trkpt lat="43.3631072" lon="10.8126437"><ele>79.0</ele><time>2026-04-18T08:47:21.411Z</time></trkpt><trkpt lat="43.363014" lon="10.8126395"><ele>79.0</ele><time>2026-04-18T08:47:22.4Z</time></trkpt><trkpt lat="43.3629213" lon="10.8126366"><ele>79.0</ele><time>2026-04-18T08:47:23.391Z</time></trkpt><trkpt lat="43.3628242" lon="10.8126397"><ele>79.0</ele><time>2026-04-18T08:47:24.402Z</time></trkpt><trkpt lat="43.3627354" lon="10.8126411"><ele>79.0</ele><time>2026-04-18T08:47:25.402Z</time></trkpt><trkpt lat="43.3626499" lon="10.8126384"><ele>79.0</ele><time>2026-04-18T08:47:26.419Z</time></trkpt><trkpt lat="43.3625646" lon="10.812636"><ele>79.0</ele><time>2026-04-18T08:47:27.421Z</time></trkpt><trkpt lat="43.3624833" lon="10.8126361"><ele>79.0</ele><time>2026-04-18T08:47:28.428Z</time></trkpt><trkpt lat="43.3624026" lon="10.8126316"><ele>79.0</ele><time>2026-04-18T08:47:29.421Z</time></trkpt><trkpt lat="43.3623213" lon="10.8126259"><ele>79.0</ele><time>2026-04-18T08:47:30.401Z</time></trkpt><trkpt lat="43.3622416" lon="10.8126192"><ele>79.0</ele><time>2026-04-18T08:47:31.428Z</time></trkpt><trkpt lat="43.362162" lon="10.8126108"><ele>79.0</ele><time>2026-04-18T08:47:32.424Z</time></trkpt><trkpt lat="43.3620894" lon="10.8126018"><ele>79.0</ele><time>2026-04-18T08:47:33.402Z</time></trkpt><trkpt lat="43.3620216" lon="10.8125892"><ele>78.25</ele><time>2026-04-18T08:47:34.401Z</time></trkpt><trkpt lat="43.3619013" lon="10.8125561"><ele>77.5</ele><time>2026-04-18T08:47:36.398Z</time></trkpt><trkpt lat="43.3617956" lon="10.812513"><ele>76.75</ele><time>2026-04-18T08:47:38.411Z</time></trkpt><trkpt lat="43.3616809" lon="10.8124616"><ele>76.0</ele><time>2026-04-18T08:47:40.426Z</time></trkpt><trkpt lat="43.3615586" lon="10.8123841"><ele>76.0</ele><time>2026-04-18T08:47:42.3Z</time></trkpt><trkpt lat="43.3614991" lon="10.8123346"><ele>76.0</ele><time>2026-04-18T08:47:43.305Z</time></trkpt><trkpt lat="43.3614471" lon="10.8122827"><ele>76.0</ele><time>2026-04-18T08:47:44.401Z</time></trkpt><trkpt lat="43.3612842" lon="10.8121025"><ele>76.0</ele><time>2026-04-18T08:47:47.306Z</time></trkpt><trkpt lat="43.3612241" lon="10.8120254"><ele>76.0</ele><time>2026-04-18T08:47:48.408Z</time></trkpt><trkpt lat="43.3611563" lon="10.8119424"><ele>75.8</ele><time>2026-04-18T08:47:49.399Z</time></trkpt><trkpt lat="43.3610895" lon="10.8118496"><ele>75.6</ele><time>2026-04-18T08:47:50.41Z</time></trkpt><trkpt lat="43.361024" lon="10.811743"><ele>75.4</ele><time>2026-04-18T08:47:51.408Z</time></trkpt><trkpt lat="43.3609592" lon="10.8116332"><ele>75.2</ele><time>2026-04-18T08:47:52.399Z</time></trkpt><trkpt lat="43.3608972" lon="10.811521"><ele>75.0</ele><time>2026-04-18T08:47:53.426Z</time></trkpt><trkpt lat="43.3608335" lon="10.8114043"><ele>75.0</ele><time>2026-04-18T08:47:54.413Z</time></trkpt><trkpt lat="43.3607676" lon="10.8112822"><ele>75.0</ele><time>2026-04-18T08:47:55.43Z</time></trkpt><trkpt lat="43.3607027" lon="10.8111484"><ele>75.0</ele><time>2026-04-18T08:47:56.421Z</time></trkpt><trkpt lat="43.3606374" lon="10.8109942"><ele>75.0</ele><time>2026-04-18T08:47:57.297Z</time></trkpt><trkpt lat="43.3605774" lon="10.8108206"><ele>74.25</ele><time>2026-04-18T08:47:58.397Z</time></trkpt><trkpt lat="43.3605219" lon="10.8106443"><ele>73.5</ele><time>2026-04-18T08:47:59.387Z</time></trkpt><trkpt lat="43.3604623" lon="10.8104721"><ele>72.75</ele><time>2026-04-18T08:48:00.406Z</time></trkpt><trkpt lat="43.3604035" lon="10.8102937"><ele>72.0</ele><time>2026-04-18T08:48:01.414Z</time></trkpt><trkpt lat="43.3603515" lon="10.8101065"><ele>72.0</ele><time>2026-04-18T08:48:02.398Z</time></trkpt><trkpt lat="43.3602917" lon="10.8099205"><ele>72.0</ele><time>2026-04-18T08:48:03.426Z</time></trkpt><trkpt lat="43.3601694" lon="10.8095578"><ele>72.0</ele><time>2026-04-18T08:48:05.404Z</time></trkpt><trkpt lat="43.3601094" lon="10.8093735"><ele>72.5</ele><time>2026-04-18T08:48:06.424Z</time></trkpt><trkpt lat="43.3600535" lon="10.8092038"><ele>73.0</ele><time>2026-04-18T08:48:07.415Z</time></trkpt><trkpt lat="43.3599993" lon="10.8090379"><ele>73.5</ele><time>2026-04-18T08:48:08.409Z</time></trkpt><trkpt lat="43.3599464" lon="10.8088729"><ele>74.0</ele><time>2026-04-18T08:48:09.427Z</time></trkpt><trkpt lat="43.3598964" lon="10.8087118"><ele>74.0</ele><time>2026-04-18T08:48:10.427Z</time></trkpt><trkpt lat="43.3598471" lon="10.8085537"><ele>74.0</ele><time>2026-04-18T08:48:11.422Z</time></trkpt><trkpt lat="43.3598033" lon="10.8084001"><ele>74.0</ele><time>2026-04-18T08:48:12.421Z</time></trkpt><trkpt lat="43.3597577" lon="10.8082485"><ele>74.0</ele><time>2026-04-18T08:48:13.406Z</time></trkpt><trkpt lat="43.3597089" lon="10.8080904"><ele>73.0</ele><time>2026-04-18T08:48:14.4Z</time></trkpt><trkpt lat="43.3596605" lon="10.807929"><ele>72.0</ele><time>2026-04-18T08:48:15.398Z</time></trkpt><trkpt lat="43.3596088" lon="10.8077586"><ele>71.0</ele><time>2026-04-18T08:48:16.307Z</time></trkpt><trkpt lat="43.3595582" lon="10.8075841"><ele>70.0</ele><time>2026-04-18T08:48:17.298Z</time></trkpt><trkpt lat="43.359502" lon="10.8073978"><ele>70.0</ele><time>2026-04-18T08:48:18.304Z</time></trkpt><trkpt lat="43.3594431" lon="10.8072123"><ele>70.0</ele><time>2026-04-18T08:48:19.417Z</time></trkpt><trkpt lat="43.3593871" lon="10.8070191"><ele>70.0</ele><time>2026-04-18T08:48:20.4Z</time></trkpt><trkpt lat="43.359331" lon="10.8068367"><ele>70.0</ele><time>2026-04-18T08:48:21.401Z</time></trkpt><trkpt lat="43.3592785" lon="10.8066725"><ele>69.75</ele><time>2026-04-18T08:48:22.405Z</time></trkpt><trkpt lat="43.3592367" lon="10.8065069"><ele>69.5</ele><time>2026-04-18T08:48:23.388Z</time></trkpt><trkpt lat="43.3592151" lon="10.8063347"><ele>69.25</ele><time>2026-04-18T08:48:24.424Z</time></trkpt><trkpt lat="43.3592246" lon="10.8061581"><ele>69.0</ele><time>2026-04-18T08:48:25.417Z</time></trkpt><trkpt lat="43.3592464" lon="10.8059748"><ele>69.0</ele><time>2026-04-18T08:48:26.397Z</time></trkpt><trkpt lat="43.3592731" lon="10.8057836"><ele>69.0</ele><time>2026-04-18T08:48:27.425Z</time></trkpt><trkpt lat="43.3592988" lon="10.8055831"><ele>69.0</ele><time>2026-04-18T08:48:28.406Z</time></trkpt><trkpt lat="43.3593232" lon="10.8053734"><ele>69.0</ele><time>2026-04-18T08:48:29.398Z</time></trkpt><trkpt lat="43.3593475" lon="10.8051611"><ele>68.33333333333333</ele><time>2026-04-18T08:48:30.396Z</time></trkpt><trkpt lat="43.3593717" lon="10.8049504"><ele>67.66666666666666</ele><time>2026-04-18T08:48:31.419Z</time></trkpt><trkpt lat="43.3593959" lon="10.8047308"><ele>67.0</ele><time>2026-04-18T08:48:32.421Z</time></trkpt><trkpt lat="43.3594227" lon="10.8045018"><ele>66.33333333333333</ele><time>2026-04-18T08:48:33.419Z</time></trkpt><trkpt lat="43.3594453" lon="10.8042819"><ele>65.66666666666667</ele><time>2026-04-18T08:48:34.427Z</time></trkpt><trkpt lat="43.359462" lon="10.8040795"><ele>65.0</ele><time>2026-04-18T08:48:35.403Z</time></trkpt><trkpt lat="43.3594691" lon="10.8038788"><ele>65.0</ele><time>2026-04-18T08:48:36.305Z</time></trkpt><trkpt lat="43.3594533" lon="10.8036808"><ele>65.0</ele><time>2026-04-18T08:48:37.305Z</time></trkpt><trkpt lat="43.3594288" lon="10.8034821"><ele>65.0</ele><time>2026-04-18T08:48:38.394Z</time></trkpt><trkpt lat="43.3593987" lon="10.8032803"><ele>65.0</ele><time>2026-04-18T08:48:39.41Z</time></trkpt><trkpt lat="43.3593598" lon="10.8030773"><ele>65.33333333333334</ele><time>2026-04-18T08:48:40.416Z</time></trkpt><trkpt lat="43.3593033" lon="10.8028817"><ele>65.66666666666667</ele><time>2026-04-18T08:48:41.389Z</time></trkpt><trkpt lat="43.3592288" lon="10.8026956"><ele>66.0</ele><time>2026-04-18T08:48:42.338Z</time></trkpt><trkpt lat="43.3591369" lon="10.8025225"><ele>65.75</ele><time>2026-04-18T08:48:43.427Z</time></trkpt><trkpt lat="43.3590409" lon="10.8023535"><ele>65.5</ele><time>2026-04-18T08:48:44.422Z</time></trkpt><trkpt lat="43.3589427" lon="10.8021997"><ele>65.25</ele><time>2026-04-18T08:48:45.399Z</time></trkpt><trkpt lat="43.3588463" lon="10.8020526"><ele>65.0</ele><time>2026-04-18T08:48:46.302Z</time></trkpt><trkpt lat="43.3587492" lon="10.8019"><ele>65.5</ele><time>2026-04-18T08:48:47.303Z</time></trkpt><trkpt lat="43.3586542" lon="10.8017445"><ele>66.0</ele><time>2026-04-18T08:48:48.422Z</time></trkpt><trkpt lat="43.3585607" lon="10.8015907"><ele>66.5</ele><time>2026-04-18T08:48:49.411Z</time></trkpt><trkpt lat="43.3584684" lon="10.8014349"><ele>67.0</ele><time>2026-04-18T08:48:50.395Z</time></trkpt><trkpt lat="43.3583789" lon="10.8012765"><ele>67.0</ele><time>2026-04-18T08:48:51.39Z</time></trkpt><trkpt lat="43.3582983" lon="10.8011013"><ele>67.0</ele><time>2026-04-18T08:48:52.419Z</time></trkpt><trkpt lat="43.3582287" lon="10.8009137"><ele>67.0</ele><time>2026-04-18T08:48:53.401Z</time></trkpt><trkpt lat="43.3581628" lon="10.800719"><ele>66.33333333333333</ele><time>2026-04-18T08:48:54.4Z</time></trkpt><trkpt lat="43.3580946" lon="10.8005207"><ele>65.66666666666667</ele><time>2026-04-18T08:48:55.408Z</time></trkpt><trkpt lat="43.3580278" lon="10.800321"><ele>65.0</ele><time>2026-04-18T08:48:56.415Z</time></trkpt><trkpt lat="43.3579597" lon="10.8001192"><ele>65.0</ele><time>2026-04-18T08:48:57.42Z</time></trkpt><trkpt lat="43.3578944" lon="10.7999162"><ele>65.0</ele><time>2026-04-18T08:48:58.4Z</time></trkpt><trkpt lat="43.3578273" lon="10.7997105"><ele>65.0</ele><time>2026-04-18T08:48:59.423Z</time></trkpt><trkpt lat="43.3577524" lon="10.7995101"><ele>65.66666666666667</ele><time>2026-04-18T08:49:00.416Z</time></trkpt><trkpt lat="43.3576638" lon="10.7993198"><ele>66.33333333333333</ele><time>2026-04-18T08:49:01.399Z</time></trkpt><trkpt lat="43.3575623" lon="10.7991371"><ele>67.0</ele><time>2026-04-18T08:49:02.411Z</time></trkpt><trkpt lat="43.3574516" lon="10.7989564"><ele>67.0</ele><time>2026-04-18T08:49:03.402Z</time></trkpt><trkpt lat="43.3573334" lon="10.7987847"><ele>67.0</ele><time>2026-04-18T08:49:04.301Z</time></trkpt><trkpt lat="43.3572197" lon="10.7986026"><ele>67.0</ele><time>2026-04-18T08:49:05.394Z</time></trkpt><trkpt lat="43.3571084" lon="10.7984192"><ele>66.0</ele><time>2026-04-18T08:49:06.402Z</time></trkpt><trkpt lat="43.3570045" lon="10.7982344"><ele>65.0</ele><time>2026-04-18T08:49:08.417Z</time></trkpt><trkpt lat="43.3568136" lon="10.7978469"><ele>66.66666666666667</ele><time>2026-04-18T08:49:09.397Z</time></trkpt><trkpt lat="43.3567295" lon="10.7976452"><ele>68.33333333333333</ele><time>2026-04-18T08:49:10.389Z</time></trkpt><trkpt lat="43.3566525" lon="10.7974406"><ele>70.0</ele><time>2026-04-18T08:49:11.398Z</time></trkpt><trkpt lat="43.356584" lon="10.7972318"><ele>70.0</ele><time>2026-04-18T08:49:12.411Z</time></trkpt><trkpt lat="43.3565228" lon="10.7970168"><ele>70.0</ele><time>2026-04-18T08:49:13.418Z</time></trkpt><trkpt lat="43.3564254" lon="10.7965654"><ele>72.0</ele><time>2026-04-18T08:49:15.413Z</time></trkpt><trkpt lat="43.3563914" lon="10.7963299"><ele>74.0</ele><time>2026-04-18T08:49:16.427Z</time></trkpt><trkpt lat="43.3563585" lon="10.7958414"><ele>70.33333333333334</ele><time>2026-04-18T08:49:18.302Z</time></trkpt><trkpt lat="43.3563569" lon="10.7955921"><ele>66.66666666666667</ele><time>2026-04-18T08:49:19.403Z</time></trkpt><trkpt lat="43.3563618" lon="10.7953479"><ele>63.0</ele><time>2026-04-18T08:49:20.406Z</time></trkpt><trkpt lat="43.3563759" lon="10.7950988"><ele>63.0</ele><time>2026-04-18T08:49:21.411Z</time></trkpt><trkpt lat="43.356401" lon="10.7948463"><ele>63.0</ele><time>2026-04-18T08:49:22.401Z</time></trkpt><trkpt lat="43.3564371" lon="10.7945927"><ele>63.0</ele><time>2026-04-18T08:49:23.431Z</time></trkpt><trkpt lat="43.3564823" lon="10.7943403"><ele>62.33333333333333</ele><time>2026-04-18T08:49:24.406Z</time></trkpt><trkpt lat="43.3565335" lon="10.7940832"><ele>61.666666666666664</ele><time>2026-04-18T08:49:25.412Z</time></trkpt><trkpt lat="43.3565861" lon="10.7938251"><ele>61.0</ele><time>2026-04-18T08:49:26.396Z</time></trkpt><trkpt lat="43.3566419" lon="10.7935654"><ele>60.666666666666664</ele><time>2026-04-18T08:49:27.4Z</time></trkpt><trkpt lat="43.3567008" lon="10.7933044"><ele>60.33333333333333</ele><time>2026-04-18T08:49:28.422Z</time></trkpt><trkpt lat="43.3567576" lon="10.7930427"><ele>60.0</ele><time>2026-04-18T08:49:29.404Z</time></trkpt><trkpt lat="43.3568174" lon="10.7927787"><ele>59.33333333333333</ele><time>2026-04-18T08:49:30.39Z</time></trkpt><trkpt lat="43.3568792" lon="10.7924985"><ele>58.666666666666664</ele><time>2026-04-18T08:49:31.424Z</time></trkpt><trkpt lat="43.3569413" lon="10.7922146"><ele>58.0</ele><time>2026-04-18T08:49:32.426Z</time></trkpt><trkpt lat="43.3569969" lon="10.791938"><ele>58.666666666666664</ele><time>2026-04-18T08:49:33.419Z</time></trkpt><trkpt lat="43.3570468" lon="10.7916634"><ele>59.33333333333333</ele><time>2026-04-18T08:49:34.396Z</time></trkpt><trkpt lat="43.3570937" lon="10.7913928"><ele>60.0</ele><time>2026-04-18T08:49:35.398Z</time></trkpt><trkpt lat="43.3571373" lon="10.7911237"><ele>59.66666666666667</ele><time>2026-04-18T08:49:36.42Z</time></trkpt><trkpt lat="43.357177" lon="10.7908495"><ele>59.333333333333336</ele><time>2026-04-18T08:49:37.4Z</time></trkpt><trkpt lat="43.3572121" lon="10.790578"><ele>59.0</ele><time>2026-04-18T08:49:38.4Z</time></trkpt><trkpt lat="43.3572437" lon="10.790305"><ele>60.333333333333336</ele><time>2026-04-18T08:49:39.401Z</time></trkpt><trkpt lat="43.3572668" lon="10.790043"><ele>61.66666666666667</ele><time>2026-04-18T08:49:40.424Z</time></trkpt><trkpt lat="43.3572834" lon="10.7897844"><ele>63.0</ele><time>2026-04-18T08:49:41.43Z</time></trkpt><trkpt lat="43.3572941" lon="10.7895229"><ele>65.0</ele><time>2026-04-18T08:49:42.397Z</time></trkpt><trkpt lat="43.3573003" lon="10.7892577"><ele>67.0</ele><time>2026-04-18T08:49:43.411Z</time></trkpt><trkpt lat="43.3573033" lon="10.7889886"><ele>69.0</ele><time>2026-04-18T08:49:44.418Z</time></trkpt><trkpt lat="43.3573036" lon="10.7887178"><ele>68.0</ele><time>2026-04-18T08:49:45.413Z</time></trkpt><trkpt lat="43.3572971" lon="10.7884515"><ele>67.0</ele><time>2026-04-18T08:49:46.407Z</time></trkpt><trkpt lat="43.3572882" lon="10.7881866"><ele>66.0</ele><time>2026-04-18T08:49:47.308Z</time></trkpt><trkpt lat="43.3572748" lon="10.7879307"><ele>66.0</ele><time>2026-04-18T08:49:48.305Z</time></trkpt><trkpt lat="43.3572576" lon="10.7876795"><ele>66.0</ele><time>2026-04-18T08:49:49.41Z</time></trkpt><trkpt lat="43.3572376" lon="10.7874397"><ele>66.0</ele><time>2026-04-18T08:49:50.433Z</time></trkpt><trkpt lat="43.3572119" lon="10.787203"><ele>64.0</ele><time>2026-04-18T08:49:51.423Z</time></trkpt><trkpt lat="43.3571831" lon="10.7869651"><ele>62.0</ele><time>2026-04-18T08:49:52.421Z</time></trkpt><trkpt lat="43.3571539" lon="10.7867329"><ele>60.0</ele><time>2026-04-18T08:49:53.425Z</time></trkpt><trkpt lat="43.3571228" lon="10.7865002"><ele>60.0</ele><time>2026-04-18T08:49:54.424Z</time></trkpt><trkpt lat="43.3570557" lon="10.7860317"><ele>60.0</ele><time>2026-04-18T08:49:56.303Z</time></trkpt><trkpt lat="43.3570206" lon="10.7857959"><ele>60.0</ele><time>2026-04-18T08:49:57.313Z</time></trkpt><trkpt lat="43.3569492" lon="10.7853255"><ele>60.0</ele><time>2026-04-18T08:49:59.411Z</time></trkpt><trkpt lat="43.3569129" lon="10.7850925"><ele>60.0</ele><time>2026-04-18T08:50:00.414Z</time></trkpt><trkpt lat="43.3568763" lon="10.7848558"><ele>60.0</ele><time>2026-04-18T08:50:01.406Z</time></trkpt><trkpt lat="43.3568388" lon="10.7846192"><ele>60.0</ele><time>2026-04-18T08:50:02.418Z</time></trkpt><trkpt lat="43.3568007" lon="10.7843853"><ele>60.0</ele><time>2026-04-18T08:50:03.413Z</time></trkpt><trkpt lat="43.3567641" lon="10.784146"><ele>60.0</ele><time>2026-04-18T08:50:04.397Z</time></trkpt><trkpt lat="43.3567296" lon="10.7839108"><ele>60.0</ele><time>2026-04-18T08:50:05.406Z</time></trkpt><trkpt lat="43.3566934" lon="10.7836765"><ele>59.66666666666667</ele><time>2026-04-18T08:50:06.396Z</time></trkpt><trkpt lat="43.3566553" lon="10.783445"><ele>59.333333333333336</ele><time>2026-04-18T08:50:07.399Z</time></trkpt><trkpt lat="43.3566185" lon="10.7832134"><ele>59.0</ele><time>2026-04-18T08:50:08.424Z</time></trkpt><trkpt lat="43.3565854" lon="10.782983"><ele>59.0</ele><time>2026-04-18T08:50:09.43Z</time></trkpt><trkpt lat="43.3565573" lon="10.7827592"><ele>59.0</ele><time>2026-04-18T08:50:10.397Z</time></trkpt><trkpt lat="43.3565352" lon="10.7825436"><ele>59.0</ele><time>2026-04-18T08:50:11.42Z</time></trkpt><trkpt lat="43.3565156" lon="10.782341"><ele>59.0</ele><time>2026-04-18T08:50:12.404Z</time></trkpt><trkpt lat="43.3565061" lon="10.7821409"><ele>59.0</ele><time>2026-04-18T08:50:13.397Z</time></trkpt><trkpt lat="43.3565007" lon="10.7819455"><ele>59.0</ele><time>2026-04-18T08:50:14.429Z</time></trkpt><trkpt lat="43.3564972" lon="10.7817596"><ele>59.0</ele><time>2026-04-18T08:50:15.414Z</time></trkpt><trkpt lat="43.3564934" lon="10.7815739"><ele>59.0</ele><time>2026-04-18T08:50:16.401Z</time></trkpt><trkpt lat="43.3564892" lon="10.7813905"><ele>59.0</ele><time>2026-04-18T08:50:17.307Z</time></trkpt><trkpt lat="43.3564834" lon="10.7812075"><ele>59.0</ele><time>2026-04-18T08:50:18.307Z</time></trkpt><trkpt lat="43.3564774" lon="10.7810214"><ele>59.0</ele><time>2026-04-18T08:50:19.428Z</time></trkpt><trkpt lat="43.3564707" lon="10.780834"><ele>59.25</ele><time>2026-04-18T08:50:20.397Z</time></trkpt><trkpt lat="43.3564668" lon="10.7806429"><ele>59.5</ele><time>2026-04-18T08:50:21.401Z</time></trkpt><trkpt lat="43.3564635" lon="10.7804469"><ele>59.75</ele><time>2026-04-18T08:50:22.418Z</time></trkpt><trkpt lat="43.3564581" lon="10.7802465"><ele>60.0</ele><time>2026-04-18T08:50:23.402Z</time></trkpt><trkpt lat="43.3564498" lon="10.7800394"><ele>60.0</ele><time>2026-04-18T08:50:24.402Z</time></trkpt><trkpt lat="43.3564425" lon="10.7798262"><ele>60.0</ele><time>2026-04-18T08:50:25.394Z</time></trkpt><trkpt lat="43.3564338" lon="10.7796068"><ele>60.0</ele><time>2026-04-18T08:50:26.416Z</time></trkpt><trkpt lat="43.3564222" lon="10.7793867"><ele>59.0</ele><time>2026-04-18T08:50:27.428Z</time></trkpt><trkpt lat="43.3564071" lon="10.7791649"><ele>58.0</ele><time>2026-04-18T08:50:28.43Z</time></trkpt><trkpt lat="43.3563843" lon="10.7789397"><ele>57.0</ele><time>2026-04-18T08:50:29.403Z</time></trkpt><trkpt lat="43.3563527" lon="10.7787125"><ele>57.33333333333333</ele><time>2026-04-18T08:50:30.413Z</time></trkpt><trkpt lat="43.3563101" lon="10.7784841"><ele>57.666666666666664</ele><time>2026-04-18T08:50:31.397Z</time></trkpt><trkpt lat="43.3562548" lon="10.7782566"><ele>58.0</ele><time>2026-04-18T08:50:32.426Z</time></trkpt><trkpt lat="43.3561875" lon="10.7780274"><ele>58.0</ele><time>2026-04-18T08:50:33.43Z</time></trkpt><trkpt lat="43.3561057" lon="10.777807"><ele>58.0</ele><time>2026-04-18T08:50:34.401Z</time></trkpt><trkpt lat="43.3560109" lon="10.7776015"><ele>58.0</ele><time>2026-04-18T08:50:35.396Z</time></trkpt><trkpt lat="43.3559106" lon="10.7774066"><ele>59.33333333333333</ele><time>2026-04-18T08:50:36.304Z</time></trkpt><trkpt lat="43.3558027" lon="10.7772295"><ele>60.66666666666667</ele><time>2026-04-18T08:50:37.413Z</time></trkpt><trkpt lat="43.3556871" lon="10.7770686"><ele>62.0</ele><time>2026-04-18T08:50:38.395Z</time></trkpt><trkpt lat="43.3555629" lon="10.7769191"><ele>61.0</ele><time>2026-04-18T08:50:39.302Z</time></trkpt><trkpt lat="43.3554333" lon="10.7767898"><ele>60.0</ele><time>2026-04-18T08:50:40.305Z</time></trkpt><trkpt lat="43.3553" lon="10.7766867"><ele>59.0</ele><time>2026-04-18T08:50:41.416Z</time></trkpt><trkpt lat="43.3551705" lon="10.7766016"><ele>59.0</ele><time>2026-04-18T08:50:42.399Z</time></trkpt><trkpt lat="43.3550387" lon="10.7765203"><ele>59.0</ele><time>2026-04-18T08:50:43.43Z</time></trkpt><trkpt lat="43.3549077" lon="10.7764394"><ele>59.0</ele><time>2026-04-18T08:50:44.408Z</time></trkpt><trkpt lat="43.3547785" lon="10.7763592"><ele>59.0</ele><time>2026-04-18T08:50:45.4Z</time></trkpt><trkpt lat="43.3546497" lon="10.7762846"><ele>59.25</ele><time>2026-04-18T08:50:46.392Z</time></trkpt><trkpt lat="43.3545265" lon="10.7762094"><ele>59.5</ele><time>2026-04-18T08:50:47.305Z</time></trkpt><trkpt lat="43.3544038" lon="10.7761368"><ele>59.75</ele><time>2026-04-18T08:50:48.305Z</time></trkpt><trkpt lat="43.3542773" lon="10.7760542"><ele>60.0</ele><time>2026-04-18T08:50:49.305Z</time></trkpt><trkpt lat="43.3541425" lon="10.7759672"><ele>60.0</ele><time>2026-04-18T08:50:50.423Z</time></trkpt><trkpt lat="43.3540034" lon="10.775868"><ele>60.0</ele><time>2026-04-18T08:50:51.423Z</time></trkpt><trkpt lat="43.3538685" lon="10.7757503"><ele>60.0</ele><time>2026-04-18T08:50:52.429Z</time></trkpt><trkpt lat="43.353736" lon="10.7756164"><ele>59.0</ele><time>2026-04-18T08:50:53.425Z</time></trkpt><trkpt lat="43.3536173" lon="10.7754702"><ele>58.0</ele><time>2026-04-18T08:50:54.398Z</time></trkpt><trkpt lat="43.3535162" lon="10.7753151"><ele>57.0</ele><time>2026-04-18T08:50:55.414Z</time></trkpt><trkpt lat="43.3534253" lon="10.7751569"><ele>57.0</ele><time>2026-04-18T08:50:56.412Z</time></trkpt><trkpt lat="43.3533358" lon="10.7750051"><ele>57.0</ele><time>2026-04-18T08:50:57.429Z</time></trkpt><trkpt lat="43.3532485" lon="10.7748533"><ele>57.0</ele><time>2026-04-18T08:50:58.428Z</time></trkpt><trkpt lat="43.3531637" lon="10.7747069"><ele>57.0</ele><time>2026-04-18T08:50:59.429Z</time></trkpt><trkpt lat="43.3530798" lon="10.7745617"><ele>57.0</ele><time>2026-04-18T08:51:00.396Z</time></trkpt><trkpt lat="43.3529939" lon="10.7744122"><ele>57.0</ele><time>2026-04-18T08:51:01.416Z</time></trkpt><trkpt lat="43.3529064" lon="10.7742602"><ele>57.0</ele><time>2026-04-18T08:51:02.406Z</time></trkpt><trkpt lat="43.3528141" lon="10.7741049"><ele>57.0</ele><time>2026-04-18T08:51:03.402Z</time></trkpt><trkpt lat="43.3527236" lon="10.7739465"><ele>57.0</ele><time>2026-04-18T08:51:04.413Z</time></trkpt><trkpt lat="43.3526318" lon="10.7737923"><ele>57.0</ele><time>2026-04-18T08:51:05.421Z</time></trkpt><trkpt lat="43.3525394" lon="10.7736293"><ele>57.0</ele><time>2026-04-18T08:51:06.409Z</time></trkpt><trkpt lat="43.352445" lon="10.7734654"><ele>57.0</ele><time>2026-04-18T08:51:07.396Z</time></trkpt><trkpt lat="43.3523536" lon="10.7733098"><ele>57.0</ele><time>2026-04-18T08:51:08.4Z</time></trkpt><trkpt lat="43.3522626" lon="10.7731487"><ele>57.0</ele><time>2026-04-18T08:51:09.402Z</time></trkpt><trkpt lat="43.3521719" lon="10.7729927"><ele>57.0</ele><time>2026-04-18T08:51:10.421Z</time></trkpt><trkpt lat="43.3520798" lon="10.7728364"><ele>57.0</ele><time>2026-04-18T08:51:11.42Z</time></trkpt><trkpt lat="43.3519878" lon="10.7726755"><ele>56.5</ele><time>2026-04-18T08:51:12.401Z</time></trkpt><trkpt lat="43.3519007" lon="10.7725246"><ele>56.0</ele><time>2026-04-18T08:51:13.422Z</time></trkpt><trkpt lat="43.3518152" lon="10.7723832"><ele>55.5</ele><time>2026-04-18T08:51:14.422Z</time></trkpt><trkpt lat="43.3517299" lon="10.7722352"><ele>55.0</ele><time>2026-04-18T08:51:15.411Z</time></trkpt><trkpt lat="43.3516414" lon="10.7720865"><ele>55.0</ele><time>2026-04-18T08:51:16.402Z</time></trkpt><trkpt lat="43.3515547" lon="10.7719372"><ele>55.0</ele><time>2026-04-18T08:51:17.308Z</time></trkpt><trkpt lat="43.3514724" lon="10.7717905"><ele>55.0</ele><time>2026-04-18T08:51:18.309Z</time></trkpt><trkpt lat="43.3513946" lon="10.7716582"><ele>55.0</ele><time>2026-04-18T08:51:19.43Z</time></trkpt><trkpt lat="43.351249" lon="10.7714044"><ele>54.75</ele><time>2026-04-18T08:51:21.305Z</time></trkpt><trkpt lat="43.3511713" lon="10.7712728"><ele>54.5</ele><time>2026-04-18T08:51:22.299Z</time></trkpt><trkpt lat="43.3510914" lon="10.7711347"><ele>54.25</ele><time>2026-04-18T08:51:23.415Z</time></trkpt><trkpt lat="43.3510091" lon="10.7709891"><ele>54.0</ele><time>2026-04-18T08:51:24.43Z</time></trkpt><trkpt lat="43.350843" lon="10.7706937"><ele>54.5</ele><time>2026-04-18T08:51:26.413Z</time></trkpt><trkpt lat="43.3507657" lon="10.7705548"><ele>55.0</ele><time>2026-04-18T08:51:27.41Z</time></trkpt><trkpt lat="43.3506875" lon="10.7704091"><ele>55.5</ele><time>2026-04-18T08:51:28.422Z</time></trkpt><trkpt lat="43.3506084" lon="10.7702542"><ele>56.0</ele><time>2026-04-18T08:51:29.413Z</time></trkpt><trkpt lat="43.3505281" lon="10.770092"><ele>56.0</ele><time>2026-04-18T08:51:30.409Z</time></trkpt><trkpt lat="43.3504442" lon="10.7699254"><ele>56.0</ele><time>2026-04-18T08:51:31.416Z</time></trkpt><trkpt lat="43.3503587" lon="10.7697561"><ele>56.0</ele><time>2026-04-18T08:51:32.402Z</time></trkpt><trkpt lat="43.3502683" lon="10.7695765"><ele>56.0</ele><time>2026-04-18T08:51:33.42Z</time></trkpt><trkpt lat="43.3501843" lon="10.769402"><ele>56.0</ele><time>2026-04-18T08:51:34.421Z</time></trkpt><trkpt lat="43.3501041" lon="10.7692436"><ele>56.0</ele><time>2026-04-18T08:51:35.423Z</time></trkpt><trkpt lat="43.3500296" lon="10.7690868"><ele>56.0</ele><time>2026-04-18T08:51:36.425Z</time></trkpt><trkpt lat="43.3499555" lon="10.7689319"><ele>56.0</ele><time>2026-04-18T08:51:37.423Z</time></trkpt><trkpt lat="43.3498785" lon="10.7687725"><ele>56.0</ele><time>2026-04-18T08:51:38.419Z</time></trkpt><trkpt lat="43.3498023" lon="10.7686143"><ele>56.0</ele><time>2026-04-18T08:51:39.4Z</time></trkpt><trkpt lat="43.3497341" lon="10.7684582"><ele>56.0</ele><time>2026-04-18T08:51:40.415Z</time></trkpt><trkpt lat="43.3496799" lon="10.7683051"><ele>55.66666666666667</ele><time>2026-04-18T08:51:41.424Z</time></trkpt><trkpt lat="43.3495987" lon="10.7679935"><ele>55.33333333333333</ele><time>2026-04-18T08:51:43.395Z</time></trkpt><trkpt lat="43.3495694" lon="10.76783"><ele>55.0</ele><time>2026-04-18T08:51:44.425Z</time></trkpt><trkpt lat="43.3495422" lon="10.7676664"><ele>55.0</ele><time>2026-04-18T08:51:45.408Z</time></trkpt><trkpt lat="43.3495211" lon="10.7675063"><ele>55.0</ele><time>2026-04-18T08:51:46.41Z</time></trkpt><trkpt lat="43.3495092" lon="10.7673555"><ele>55.0</ele><time>2026-04-18T08:51:47.396Z</time></trkpt><trkpt lat="43.3495027" lon="10.7672112"><ele>55.0</ele><time>2026-04-18T08:51:48.309Z</time></trkpt><trkpt lat="43.3495046" lon="10.767063"><ele>55.0</ele><time>2026-04-18T08:51:49.308Z</time></trkpt><trkpt lat="43.3495168" lon="10.7669106"><ele>55.2</ele><time>2026-04-18T08:51:50.304Z</time></trkpt><trkpt lat="43.3495276" lon="10.76677"><ele>55.4</ele><time>2026-04-18T08:51:51.296Z</time></trkpt><trkpt lat="43.3495203" lon="10.7666244"><ele>55.599999999999994</ele><time>2026-04-18T08:51:52.429Z</time></trkpt><trkpt lat="43.3494925" lon="10.7664793"><ele>55.8</ele><time>2026-04-18T08:51:53.417Z</time></trkpt><trkpt lat="43.3494394" lon="10.7663294"><ele>56.0</ele><time>2026-04-18T08:51:54.418Z</time></trkpt><trkpt lat="43.3493654" lon="10.7661754"><ele>56.0</ele><time>2026-04-18T08:51:55.421Z</time></trkpt><trkpt lat="43.34928" lon="10.7660292"><ele>56.0</ele><time>2026-04-18T08:51:56.428Z</time></trkpt><trkpt lat="43.3491863" lon="10.765894"><ele>56.0</ele><time>2026-04-18T08:51:57.43Z</time></trkpt><trkpt lat="43.3490903" lon="10.7657527"><ele>56.0</ele><time>2026-04-18T08:51:58.401Z</time></trkpt><trkpt lat="43.3489984" lon="10.7656062"><ele>56.0</ele><time>2026-04-18T08:51:59.416Z</time></trkpt><trkpt lat="43.3489093" lon="10.765457"><ele>56.0</ele><time>2026-04-18T08:52:00.411Z</time></trkpt><trkpt lat="43.3488232" lon="10.7653089"><ele>56.0</ele><time>2026-04-18T08:52:01.426Z</time></trkpt><trkpt lat="43.3487429" lon="10.7651556"><ele>56.0</ele><time>2026-04-18T08:52:02.397Z</time></trkpt><trkpt lat="43.348667" lon="10.7649986"><ele>57.333333333333336</ele><time>2026-04-18T08:52:03.427Z</time></trkpt><trkpt lat="43.3486002" lon="10.7648348"><ele>58.66666666666667</ele><time>2026-04-18T08:52:04.396Z</time></trkpt><trkpt lat="43.3485446" lon="10.7646691"><ele>60.0</ele><time>2026-04-18T08:52:05.421Z</time></trkpt><trkpt lat="43.3484372" lon="10.7643379"><ele>61.25</ele><time>2026-04-18T08:52:07.407Z</time></trkpt><trkpt lat="43.3483793" lon="10.764166"><ele>62.5</ele><time>2026-04-18T08:52:08.417Z</time></trkpt><trkpt lat="43.3483219" lon="10.7639861"><ele>63.75</ele><time>2026-04-18T08:52:09.417Z</time></trkpt><trkpt lat="43.3482669" lon="10.7638064"><ele>65.0</ele><time>2026-04-18T08:52:10.416Z</time></trkpt><trkpt lat="43.3482113" lon="10.763632"><ele>65.5</ele><time>2026-04-18T08:52:11.393Z</time></trkpt><trkpt lat="43.3481545" lon="10.7634579"><ele>66.0</ele><time>2026-04-18T08:52:12.307Z</time></trkpt><trkpt lat="43.348095" lon="10.7632838"><ele>66.5</ele><time>2026-04-18T08:52:13.411Z</time></trkpt><trkpt lat="43.3480343" lon="10.7630979"><ele>67.0</ele><time>2026-04-18T08:52:14.4Z</time></trkpt><trkpt lat="43.3479765" lon="10.7629117"><ele>64.33333333333333</ele><time>2026-04-18T08:52:15.396Z</time></trkpt><trkpt lat="43.3479218" lon="10.7627267"><ele>61.66666666666667</ele><time>2026-04-18T08:52:16.393Z</time></trkpt><trkpt lat="43.3478721" lon="10.7625394"><ele>59.0</ele><time>2026-04-18T08:52:17.405Z</time></trkpt><trkpt lat="43.3477835" lon="10.7621572"><ele>59.0</ele><time>2026-04-18T08:52:19.305Z</time></trkpt><trkpt lat="43.3477467" lon="10.7619572"><ele>59.0</ele><time>2026-04-18T08:52:20.408Z</time></trkpt><trkpt lat="43.3477169" lon="10.7617519"><ele>59.0</ele><time>2026-04-18T08:52:21.423Z</time></trkpt><trkpt lat="43.3476919" lon="10.7615353"><ele>59.0</ele><time>2026-04-18T08:52:22.424Z</time></trkpt><trkpt lat="43.3476715" lon="10.7613184"><ele>59.0</ele><time>2026-04-18T08:52:23.403Z</time></trkpt><trkpt lat="43.3476492" lon="10.7610979"><ele>59.0</ele><time>2026-04-18T08:52:24.397Z</time></trkpt><trkpt lat="43.3476285" lon="10.7608772"><ele>58.66666666666667</ele><time>2026-04-18T08:52:25.405Z</time></trkpt><trkpt lat="43.347605" lon="10.7606634"><ele>58.33333333333333</ele><time>2026-04-18T08:52:26.402Z</time></trkpt><trkpt lat="43.3475795" lon="10.7604525"><ele>58.0</ele><time>2026-04-18T08:52:27.39Z</time></trkpt><trkpt lat="43.3475489" lon="10.760237"><ele>57.33333333333333</ele><time>2026-04-18T08:52:28.4Z</time></trkpt><trkpt lat="43.3475072" lon="10.7600245"><ele>56.66666666666667</ele><time>2026-04-18T08:52:29.416Z</time></trkpt><trkpt lat="43.3474536" lon="10.7598146"><ele>56.0</ele><time>2026-04-18T08:52:31.357Z</time></trkpt><trkpt lat="43.3473116" lon="10.7594065"><ele>56.333333333333336</ele><time>2026-04-18T08:52:32.398Z</time></trkpt><trkpt lat="43.3472307" lon="10.7592081"><ele>56.66666666666667</ele><time>2026-04-18T08:52:33.404Z</time></trkpt><trkpt lat="43.3471451" lon="10.759014"><ele>57.0</ele><time>2026-04-18T08:52:34.393Z</time></trkpt><trkpt lat="43.3470556" lon="10.7588331"><ele>57.0</ele><time>2026-04-18T08:52:35.401Z</time></trkpt><trkpt lat="43.3469642" lon="10.7586549"><ele>57.0</ele><time>2026-04-18T08:52:36.426Z</time></trkpt><trkpt lat="43.3468776" lon="10.7584932"><ele>57.0</ele><time>2026-04-18T08:52:37.424Z</time></trkpt><trkpt lat="43.3467895" lon="10.7583353"><ele>57.0</ele><time>2026-04-18T08:52:38.43Z</time></trkpt><trkpt lat="43.3467052" lon="10.7581737"><ele>57.0</ele><time>2026-04-18T08:52:39.42Z</time></trkpt><trkpt lat="43.3466241" lon="10.7580206"><ele>57.0</ele><time>2026-04-18T08:52:40.404Z</time></trkpt><trkpt lat="43.3465434" lon="10.7578713"><ele>57.0</ele><time>2026-04-18T08:52:41.402Z</time></trkpt><trkpt lat="43.3464603" lon="10.7577189"><ele>57.0</ele><time>2026-04-18T08:52:42.399Z</time></trkpt><trkpt lat="43.3463744" lon="10.7575674"><ele>57.0</ele><time>2026-04-18T08:52:43.42Z</time></trkpt><trkpt lat="43.3462085" lon="10.757266"><ele>57.0</ele><time>2026-04-18T08:52:45.408Z</time></trkpt><trkpt lat="43.3460341" lon="10.7569681"><ele>57.0</ele><time>2026-04-18T08:52:47.301Z</time></trkpt><trkpt lat="43.3459399" lon="10.7568279"><ele>57.0</ele><time>2026-04-18T08:52:48.302Z</time></trkpt><trkpt lat="43.345847" lon="10.7567017"><ele>57.0</ele><time>2026-04-18T08:52:49.304Z</time></trkpt><trkpt lat="43.3457597" lon="10.756584"><ele>57.0</ele><time>2026-04-18T08:52:50.303Z</time></trkpt><trkpt lat="43.3456736" lon="10.7564819"><ele>57.0</ele><time>2026-04-18T08:52:51.305Z</time></trkpt><trkpt lat="43.3455917" lon="10.7563837"><ele>57.0</ele><time>2026-04-18T08:52:52.304Z</time></trkpt><trkpt lat="43.3455196" lon="10.7562968"><ele>57.0</ele><time>2026-04-18T08:52:53.394Z</time></trkpt><trkpt lat="43.3454525" lon="10.7562088"><ele>57.0</ele><time>2026-04-18T08:52:54.381Z</time></trkpt><trkpt lat="43.3453884" lon="10.7561282"><ele>57.0</ele><time>2026-04-18T08:52:55.39Z</time></trkpt><trkpt lat="43.3453279" lon="10.7560561"><ele>56.8</ele><time>2026-04-18T08:52:56.423Z</time></trkpt><trkpt lat="43.3452727" lon="10.7559856"><ele>56.6</ele><time>2026-04-18T08:52:57.429Z</time></trkpt><trkpt lat="43.3452225" lon="10.7558349"><ele>56.39999999999999</ele><time>2026-04-18T08:52:59.43Z</time></trkpt><trkpt lat="43.3452625" lon="10.7556516"><ele>56.199999999999996</ele><time>2026-04-18T08:53:01.301Z</time></trkpt><trkpt lat="43.3452944" lon="10.7555431"><ele>56.0</ele><time>2026-04-18T08:53:02.413Z</time></trkpt><trkpt lat="43.3452919" lon="10.7554371"><ele>56.00000000000001</ele><time>2026-04-18T08:53:03.426Z</time></trkpt><trkpt lat="43.3452686" lon="10.7553445"><ele>56.0</ele><time>2026-04-18T08:53:04.404Z</time></trkpt><trkpt lat="43.345221" lon="10.7552554"><ele>56.0</ele><time>2026-04-18T08:53:05.415Z</time></trkpt><trkpt lat="43.3451532" lon="10.7551765"><ele>56.0</ele><time>2026-04-18T08:53:06.43Z</time></trkpt><trkpt lat="43.345072" lon="10.7551028"><ele>56.00000000000001</ele><time>2026-04-18T08:53:07.389Z</time></trkpt><trkpt lat="43.3449908" lon="10.7550032"><ele>56.0</ele><time>2026-04-18T08:53:08.401Z</time></trkpt><trkpt lat="43.3449317" lon="10.7548735"><ele>56.0</ele><time>2026-04-18T08:53:09.405Z</time></trkpt><trkpt lat="43.3448829" lon="10.7547278"><ele>56.0</ele><time>2026-04-18T08:53:10.405Z</time></trkpt><trkpt lat="43.3448404" lon="10.7545651"><ele>56.0</ele><time>2026-04-18T08:53:11.4Z</time></trkpt><trkpt lat="43.3447973" lon="10.7543892"><ele>56.0</ele><time>2026-04-18T08:53:12.425Z</time></trkpt><trkpt lat="43.3447555" lon="10.7542308"><ele>56.199999999999996</ele><time>2026-04-18T08:53:13.394Z</time></trkpt><trkpt lat="43.3447152" lon="10.7540978"><ele>56.39999999999999</ele><time>2026-04-18T08:53:14.413Z</time></trkpt><trkpt lat="43.3446769" lon="10.7539856"><ele>56.6</ele><time>2026-04-18T08:53:15.397Z</time></trkpt><trkpt lat="43.3446384" lon="10.753879"><ele>56.8</ele><time>2026-04-18T08:53:16.399Z</time></trkpt><trkpt lat="43.3446041" lon="10.75378"><ele>57.0</ele><time>2026-04-18T08:53:17.412Z</time></trkpt><trkpt lat="43.3445641" lon="10.7536438"><ele>57.0</ele><time>2026-04-18T08:53:19.306Z</time></trkpt><trkpt lat="43.3445454" lon="10.7535367"><ele>57.0</ele><time>2026-04-18T08:53:22.426Z</time></trkpt><trkpt lat="43.3445431" lon="10.753429"><ele>57.0</ele><time>2026-04-18T08:53:25.424Z</time></trkpt><trkpt lat="43.3445024" lon="10.7533423"><ele>57.0</ele><time>2026-04-18T08:53:28.433Z</time></trkpt><trkpt lat="43.3444528" lon="10.753247"><ele>57.0</ele><time>2026-04-18T08:53:31.415Z</time></trkpt><trkpt lat="43.3444307" lon="10.7531463"><ele>57.0</ele><time>2026-04-18T08:53:34.421Z</time></trkpt><trkpt lat="43.3444046" lon="10.753226"><ele>57.0</ele><time>2026-04-18T08:53:41.399Z</time></trkpt><trkpt lat="43.3444577" lon="10.753306"><ele>57.0</ele><time>2026-04-18T08:53:43.42Z</time></trkpt><trkpt lat="43.3444912" lon="10.7533973"><ele>57.0</ele><time>2026-04-18T08:53:46.425Z</time></trkpt><trkpt lat="43.3445329" lon="10.753476"><ele>57.0</ele><time>2026-04-18T08:55:42.298Z</time></trkpt><trkpt lat="43.3444774" lon="10.753534"><ele>57.0</ele><time>2026-04-18T08:55:48.294Z</time></trkpt><trkpt lat="43.3443963" lon="10.7534102"><ele>57.0</ele><time>2026-04-18T08:55:50.3Z</time></trkpt><trkpt lat="43.3443479" lon="10.7533412"><ele>57.0</ele><time>2026-04-18T08:55:51.301Z</time></trkpt><trkpt lat="43.3442887" lon="10.7532524"><ele>57.0</ele><time>2026-04-18T08:55:52.322Z</time></trkpt><trkpt lat="43.3442268" lon="10.7531617"><ele>57.0</ele><time>2026-04-18T08:55:53.416Z</time></trkpt><trkpt lat="43.3441564" lon="10.7530582"><ele>57.0</ele><time>2026-04-18T08:55:54.402Z</time></trkpt><trkpt lat="43.3440766" lon="10.7529424"><ele>57.0</ele><time>2026-04-18T08:55:55.304Z</time></trkpt><trkpt lat="43.3439881" lon="10.7528188"><ele>56.75</ele><time>2026-04-18T08:55:56.305Z</time></trkpt><trkpt lat="43.3438998" lon="10.7526933"><ele>56.5</ele><time>2026-04-18T08:55:57.304Z</time></trkpt><trkpt lat="43.3438072" lon="10.7525613"><ele>56.25</ele><time>2026-04-18T08:55:58.406Z</time></trkpt><trkpt lat="43.3437076" lon="10.7524169"><ele>56.0</ele><time>2026-04-18T08:55:59.391Z</time></trkpt><trkpt lat="43.3436059" lon="10.7522717"><ele>56.0</ele><time>2026-04-18T08:56:00.306Z</time></trkpt><trkpt lat="43.3435009" lon="10.7521194"><ele>56.0</ele><time>2026-04-18T08:56:01.4Z</time></trkpt><trkpt lat="43.3433897" lon="10.751962"><ele>56.0</ele><time>2026-04-18T08:56:02.394Z</time></trkpt><trkpt lat="43.3432765" lon="10.7518018"><ele>56.333333333333336</ele><time>2026-04-18T08:56:03.431Z</time></trkpt><trkpt lat="43.3431651" lon="10.7516394"><ele>56.66666666666667</ele><time>2026-04-18T08:56:04.43Z</time></trkpt><trkpt lat="43.3430538" lon="10.7514716"><ele>57.0</ele><time>2026-04-18T08:56:05.433Z</time></trkpt><trkpt lat="43.3429397" lon="10.7513103"><ele>56.66666666666667</ele><time>2026-04-18T08:56:06.394Z</time></trkpt><trkpt lat="43.3428247" lon="10.7511417"><ele>56.333333333333336</ele><time>2026-04-18T08:56:07.402Z</time></trkpt><trkpt lat="43.342709" lon="10.7509755"><ele>56.0</ele><time>2026-04-18T08:56:08.396Z</time></trkpt><trkpt lat="43.3425936" lon="10.7508052"><ele>56.0</ele><time>2026-04-18T08:56:09.304Z</time></trkpt><trkpt lat="43.3424752" lon="10.7506348"><ele>56.0</ele><time>2026-04-18T08:56:10.412Z</time></trkpt><trkpt lat="43.3423558" lon="10.7504649"><ele>56.0</ele><time>2026-04-18T08:56:11.396Z</time></trkpt><trkpt lat="43.3422371" lon="10.7502908"><ele>55.66666666666667</ele><time>2026-04-18T08:56:12.308Z</time></trkpt><trkpt lat="43.3421165" lon="10.7501164"><ele>55.33333333333333</ele><time>2026-04-18T08:56:13.396Z</time></trkpt><trkpt lat="43.3419946" lon="10.7499438"><ele>55.0</ele><time>2026-04-18T08:56:14.416Z</time></trkpt><trkpt lat="43.3418741" lon="10.7497669"><ele>55.0</ele><time>2026-04-18T08:56:15.422Z</time></trkpt><trkpt lat="43.3417545" lon="10.7495922"><ele>55.0</ele><time>2026-04-18T08:56:16.417Z</time></trkpt><trkpt lat="43.341641" lon="10.7494287"><ele>55.0</ele><time>2026-04-18T08:56:17.408Z</time></trkpt><trkpt lat="43.341526" lon="10.7492786"><ele>54.666666666666664</ele><time>2026-04-18T08:56:18.406Z</time></trkpt><trkpt lat="43.3413977" lon="10.7491411"><ele>54.33333333333333</ele><time>2026-04-18T08:56:19.417Z</time></trkpt><trkpt lat="43.3412614" lon="10.7490155"><ele>54.0</ele><time>2026-04-18T08:56:20.43Z</time></trkpt><trkpt lat="43.340967" lon="10.748769"><ele>54.0</ele><time>2026-04-18T08:56:22.297Z</time></trkpt><trkpt lat="43.3408177" lon="10.7486531"><ele>54.0</ele><time>2026-04-18T08:56:23.302Z</time></trkpt><trkpt lat="43.3406643" lon="10.7485461"><ele>54.0</ele><time>2026-04-18T08:56:24.307Z</time></trkpt><trkpt lat="43.3405071" lon="10.7484424"><ele>54.33333333333333</ele><time>2026-04-18T08:56:25.304Z</time></trkpt><trkpt lat="43.340345" lon="10.7483476"><ele>54.666666666666664</ele><time>2026-04-18T08:56:26.307Z</time></trkpt><trkpt lat="43.3401778" lon="10.7482598"><ele>55.0</ele><time>2026-04-18T08:56:27.305Z</time></trkpt><trkpt lat="43.3400084" lon="10.7481773"><ele>55.0</ele><time>2026-04-18T08:56:28.308Z</time></trkpt><trkpt lat="43.3398364" lon="10.7480957"><ele>55.0</ele><time>2026-04-18T08:56:29.304Z</time></trkpt><trkpt lat="43.3396633" lon="10.7480209"><ele>55.0</ele><time>2026-04-18T08:56:30.418Z</time></trkpt><trkpt lat="43.3394957" lon="10.7479559"><ele>55.0</ele><time>2026-04-18T08:56:31.427Z</time></trkpt><trkpt lat="43.3391554" lon="10.7478345"><ele>55.0</ele><time>2026-04-18T08:56:33.304Z</time></trkpt><trkpt lat="43.3389854" lon="10.7477907"><ele>54.0</ele><time>2026-04-18T08:56:34.307Z</time></trkpt><trkpt lat="43.3388088" lon="10.747779"><ele>53.0</ele><time>2026-04-18T08:56:35.429Z</time></trkpt><trkpt lat="43.3386331" lon="10.7477788"><ele>52.0</ele><time>2026-04-18T08:56:36.405Z</time></trkpt><trkpt lat="43.3384553" lon="10.747788"><ele>52.0</ele><time>2026-04-18T08:56:37.42Z</time></trkpt><trkpt lat="43.3382829" lon="10.7478023"><ele>52.0</ele><time>2026-04-18T08:56:38.414Z</time></trkpt><trkpt lat="43.3381133" lon="10.7478127"><ele>52.0</ele><time>2026-04-18T08:56:39.419Z</time></trkpt><trkpt lat="43.3377779" lon="10.7477992"><ele>52.33333333333333</ele><time>2026-04-18T08:56:41.419Z</time></trkpt><trkpt lat="43.3376204" lon="10.7477757"><ele>52.66666666666667</ele><time>2026-04-18T08:56:42.421Z</time></trkpt><trkpt lat="43.3374632" lon="10.7477264"><ele>53.0</ele><time>2026-04-18T08:56:43.414Z</time></trkpt><trkpt lat="43.3373168" lon="10.7476502"><ele>54.0</ele><time>2026-04-18T08:56:44.397Z</time></trkpt><trkpt lat="43.3371865" lon="10.7475476"><ele>55.0</ele><time>2026-04-18T08:56:45.396Z</time></trkpt><trkpt lat="43.3370655" lon="10.7474197"><ele>56.0</ele><time>2026-04-18T08:56:46.386Z</time></trkpt><trkpt lat="43.336948" lon="10.7472739"><ele>56.0</ele><time>2026-04-18T08:56:47.401Z</time></trkpt><trkpt lat="43.3367223" lon="10.7469837"><ele>56.0</ele><time>2026-04-18T08:56:49.301Z</time></trkpt><trkpt lat="43.3366092" lon="10.7468362"><ele>55.333333333333336</ele><time>2026-04-18T08:56:50.378Z</time></trkpt><trkpt lat="43.3365007" lon="10.7466883"><ele>54.66666666666667</ele><time>2026-04-18T08:56:51.39Z</time></trkpt><trkpt lat="43.336398" lon="10.7465292"><ele>54.0</ele><time>2026-04-18T08:56:52.306Z</time></trkpt><trkpt lat="43.3363084" lon="10.746355"><ele>54.0</ele><time>2026-04-18T08:56:53.413Z</time></trkpt><trkpt lat="43.3362349" lon="10.7461671"><ele>54.0</ele><time>2026-04-18T08:56:54.404Z</time></trkpt><trkpt lat="43.3361814" lon="10.7459753"><ele>54.0</ele><time>2026-04-18T08:56:55.4Z</time></trkpt><trkpt lat="43.3361297" lon="10.7457882"><ele>54.25</ele><time>2026-04-18T08:56:56.306Z</time></trkpt><trkpt lat="43.3360803" lon="10.7456149"><ele>54.5</ele><time>2026-04-18T08:56:57.307Z</time></trkpt><trkpt lat="43.3360315" lon="10.7454492"><ele>54.75</ele><time>2026-04-18T08:56:58.302Z</time></trkpt><trkpt lat="43.3359855" lon="10.7452919"><ele>55.0</ele><time>2026-04-18T08:56:59.303Z</time></trkpt><trkpt lat="43.3359405" lon="10.7451422"><ele>55.75</ele><time>2026-04-18T08:57:00.302Z</time></trkpt><trkpt lat="43.3358928" lon="10.7449892"><ele>56.5</ele><time>2026-04-18T08:57:01.404Z</time></trkpt><trkpt lat="43.335843" lon="10.7448331"><ele>57.25</ele><time>2026-04-18T08:57:02.401Z</time></trkpt><trkpt lat="43.3357943" lon="10.744674"><ele>58.0</ele><time>2026-04-18T08:57:03.415Z</time></trkpt><trkpt lat="43.3357439" lon="10.7445076"><ele>59.5</ele><time>2026-04-18T08:57:04.404Z</time></trkpt><trkpt lat="43.3356964" lon="10.7443465"><ele>61.0</ele><time>2026-04-18T08:57:05.399Z</time></trkpt><trkpt lat="43.3356532" lon="10.7441984"><ele>62.5</ele><time>2026-04-18T08:57:06.307Z</time></trkpt><trkpt lat="43.335613" lon="10.7440598"><ele>64.0</ele><time>2026-04-18T08:57:07.402Z</time></trkpt><trkpt lat="43.3355745" lon="10.7439305"><ele>62.33333333333333</ele><time>2026-04-18T08:57:08.409Z</time></trkpt><trkpt lat="43.3355416" lon="10.7438168"><ele>60.666666666666664</ele><time>2026-04-18T08:57:09.41Z</time></trkpt><trkpt lat="43.3355065" lon="10.7436951"><ele>59.0</ele><time>2026-04-18T08:57:11.419Z</time></trkpt><trkpt lat="43.3354749" lon="10.7435812"><ele>57.33333333333333</ele><time>2026-04-18T08:57:13.412Z</time></trkpt><trkpt lat="43.3354522" lon="10.7434918"><ele>55.666666666666664</ele><time>2026-04-18T08:57:14.418Z</time></trkpt><trkpt lat="43.3354262" lon="10.7433874"><ele>54.0</ele><time>2026-04-18T08:57:15.427Z</time></trkpt><trkpt lat="43.3353989" lon="10.7431271"><ele>54.0</ele><time>2026-04-18T08:57:17.304Z</time></trkpt><trkpt lat="43.3354015" lon="10.7429935"><ele>54.0</ele><time>2026-04-18T08:57:18.414Z</time></trkpt><trkpt lat="43.3354152" lon="10.7428789"><ele>54.0</ele><time>2026-04-18T08:57:19.428Z</time></trkpt><trkpt lat="43.3354316" lon="10.7427706"><ele>54.0</ele><time>2026-04-18T08:57:20.405Z</time></trkpt><trkpt lat="43.3354349" lon="10.7426728"><ele>54.0</ele><time>2026-04-18T08:57:21.392Z</time></trkpt><trkpt lat="43.3354106" lon="10.7425798"><ele>54.0</ele><time>2026-04-18T08:57:22.396Z</time></trkpt><trkpt lat="43.3353698" lon="10.7424999"><ele>54.0</ele><time>2026-04-18T08:57:23.421Z</time></trkpt><trkpt lat="43.3353191" lon="10.742424"><ele>54.0</ele><time>2026-04-18T08:57:24.418Z</time></trkpt><trkpt lat="43.335277" lon="10.7423584"><ele>54.0</ele><time>2026-04-18T08:57:25.411Z</time></trkpt><trkpt lat="43.3351925" lon="10.7422152"><ele>54.0</ele><time>2026-04-18T08:57:27.303Z</time></trkpt><trkpt lat="43.3351428" lon="10.7421372"><ele>54.0</ele><time>2026-04-18T08:57:28.406Z</time></trkpt><trkpt lat="43.3350889" lon="10.7420522"><ele>54.0</ele><time>2026-04-18T08:57:29.403Z</time></trkpt><trkpt lat="43.3350385" lon="10.741971"><ele>54.0</ele><time>2026-04-18T08:57:30.423Z</time></trkpt><trkpt lat="43.3349812" lon="10.7418833"><ele>54.0</ele><time>2026-04-18T08:57:31.407Z</time></trkpt><trkpt lat="43.3349226" lon="10.7417919"><ele>54.0</ele><time>2026-04-18T08:57:32.421Z</time></trkpt><trkpt lat="43.3348615" lon="10.7416996"><ele>54.0</ele><time>2026-04-18T08:57:33.4Z</time></trkpt><trkpt lat="43.334799" lon="10.7416121"><ele>54.0</ele><time>2026-04-18T08:57:34.4Z</time></trkpt><trkpt lat="43.3347417" lon="10.7415108"><ele>54.0</ele><time>2026-04-18T08:57:35.321Z</time></trkpt><trkpt lat="43.3346895" lon="10.7414079"><ele>53.6</ele><time>2026-04-18T08:57:36.399Z</time></trkpt><trkpt lat="43.3346378" lon="10.7413061"><ele>53.2</ele><time>2026-04-18T08:57:37.394Z</time></trkpt><trkpt lat="43.3345771" lon="10.7412022"><ele>52.800000000000004</ele><time>2026-04-18T08:57:38.407Z</time></trkpt><trkpt lat="43.3345139" lon="10.7410937"><ele>52.400000000000006</ele><time>2026-04-18T08:57:39.393Z</time></trkpt><trkpt lat="43.3344448" lon="10.7409834"><ele>52.0</ele><time>2026-04-18T08:57:40.422Z</time></trkpt><trkpt lat="43.3343761" lon="10.7408695"><ele>51.75</ele><time>2026-04-18T08:57:41.398Z</time></trkpt><trkpt lat="43.3343105" lon="10.7407543"><ele>51.5</ele><time>2026-04-18T08:57:42.396Z</time></trkpt><trkpt lat="43.3342363" lon="10.7406234"><ele>51.25</ele><time>2026-04-18T08:57:43.393Z</time></trkpt><trkpt lat="43.3341572" lon="10.7404911"><ele>51.0</ele><time>2026-04-18T08:57:44.42Z</time></trkpt><trkpt lat="43.3339849" lon="10.7401978"><ele>51.25</ele><time>2026-04-18T08:57:46.409Z</time></trkpt><trkpt lat="43.333897" lon="10.7400428"><ele>51.5</ele><time>2026-04-18T08:57:47.416Z</time></trkpt><trkpt lat="43.3338053" lon="10.7398882"><ele>51.75</ele><time>2026-04-18T08:57:48.306Z</time></trkpt><trkpt lat="43.3337171" lon="10.7397328"><ele>52.0</ele><time>2026-04-18T08:57:49.307Z</time></trkpt><trkpt lat="43.333633" lon="10.7395908"><ele>52.0</ele><time>2026-04-18T08:57:50.416Z</time></trkpt><trkpt lat="43.3335497" lon="10.7394515"><ele>52.0</ele><time>2026-04-18T08:57:51.397Z</time></trkpt><trkpt lat="43.3334731" lon="10.7393161"><ele>52.0</ele><time>2026-04-18T08:57:52.401Z</time></trkpt><trkpt lat="43.3333943" lon="10.739183"><ele>52.0</ele><time>2026-04-18T08:57:53.401Z</time></trkpt><trkpt lat="43.3333124" lon="10.7390452"><ele>52.0</ele><time>2026-04-18T08:57:54.4Z</time></trkpt><trkpt lat="43.3332258" lon="10.7389167"><ele>52.0</ele><time>2026-04-18T08:57:55.401Z</time></trkpt><trkpt lat="43.3331232" lon="10.7387947"><ele>52.0</ele><time>2026-04-18T08:57:56.386Z</time></trkpt><trkpt lat="43.3330035" lon="10.7386943"><ele>52.0</ele><time>2026-04-18T08:57:57.336Z</time></trkpt><trkpt lat="43.3328654" lon="10.7386105"><ele>52.666666666666664</ele><time>2026-04-18T08:57:58.298Z</time></trkpt><trkpt lat="43.3327196" lon="10.7385306"><ele>53.33333333333333</ele><time>2026-04-18T08:57:59.302Z</time></trkpt><trkpt lat="43.3325788" lon="10.7384511"><ele>54.0</ele><time>2026-04-18T08:58:00.305Z</time></trkpt><trkpt lat="43.332445" lon="10.7383745"><ele>54.0</ele><time>2026-04-18T08:58:01.308Z</time></trkpt><trkpt lat="43.3323186" lon="10.7383014"><ele>54.0</ele><time>2026-04-18T08:58:02.303Z</time></trkpt><trkpt lat="43.3321898" lon="10.7382267"><ele>54.0</ele><time>2026-04-18T08:58:03.313Z</time></trkpt><trkpt lat="43.3320616" lon="10.7381484"><ele>54.0</ele><time>2026-04-18T08:58:04.41Z</time></trkpt><trkpt lat="43.3319322" lon="10.7380704"><ele>53.5</ele><time>2026-04-18T08:58:05.401Z</time></trkpt><trkpt lat="43.3317995" lon="10.7379961"><ele>53.0</ele><time>2026-04-18T08:58:06.415Z</time></trkpt><trkpt lat="43.3316631" lon="10.7379205"><ele>52.5</ele><time>2026-04-18T08:58:07.39Z</time></trkpt><trkpt lat="43.3315281" lon="10.7378425"><ele>52.0</ele><time>2026-04-18T08:58:08.396Z</time></trkpt><trkpt lat="43.3313974" lon="10.7377613"><ele>55.33333333333333</ele><time>2026-04-18T08:58:09.415Z</time></trkpt><trkpt lat="43.3311654" lon="10.7375605"><ele>58.66666666666667</ele><time>2026-04-18T08:58:11.418Z</time></trkpt><trkpt lat="43.3310664" lon="10.737433"><ele>62.0</ele><time>2026-04-18T08:58:12.412Z</time></trkpt><trkpt lat="43.3309849" lon="10.737277"><ele>62.0</ele><time>2026-04-18T08:58:13.404Z</time></trkpt><trkpt lat="43.3309162" lon="10.7371031"><ele>62.0</ele><time>2026-04-18T08:58:14.412Z</time></trkpt><trkpt lat="43.3308659" lon="10.7369298"><ele>62.0</ele><time>2026-04-18T08:58:15.399Z</time></trkpt><trkpt lat="43.3308257" lon="10.7367651"><ele>62.0</ele><time>2026-04-18T08:58:16.302Z</time></trkpt><trkpt lat="43.3307595" lon="10.7364973"><ele>62.400000000000006</ele><time>2026-04-18T08:58:18.397Z</time></trkpt><trkpt lat="43.3307282" lon="10.7363871"><ele>62.800000000000004</ele><time>2026-04-18T08:58:19.393Z</time></trkpt><trkpt lat="43.3306943" lon="10.7362973"><ele>63.2</ele><time>2026-04-18T08:58:20.416Z</time></trkpt><trkpt lat="43.330593" lon="10.7361744"><ele>63.6</ele><time>2026-04-18T08:58:22.306Z</time></trkpt><trkpt lat="43.3305066" lon="10.7361793"><ele>64.0</ele><time>2026-04-18T08:58:23.307Z</time></trkpt><trkpt lat="43.330432" lon="10.7361918"><ele>66.0</ele><time>2026-04-18T08:58:24.304Z</time></trkpt><trkpt lat="43.3303427" lon="10.7362323"><ele>68.0</ele><time>2026-04-18T08:58:25.402Z</time></trkpt><trkpt lat="43.3302028" lon="10.7363072"><ele>70.0</ele><time>2026-04-18T08:58:26.306Z</time></trkpt><trkpt lat="43.3300861" lon="10.7363621"><ele>72.0</ele><time>2026-04-18T08:58:27.304Z</time></trkpt><trkpt lat="43.329967" lon="10.7364223"><ele>72.33333333333333</ele><time>2026-04-18T08:58:28.412Z</time></trkpt><trkpt lat="43.3297002" lon="10.7365639"><ele>72.66666666666666</ele><time>2026-04-18T08:58:30.306Z</time></trkpt><trkpt lat="43.3295613" lon="10.7366422"><ele>73.0</ele><time>2026-04-18T08:58:31.373Z</time></trkpt><trkpt lat="43.3294205" lon="10.7367263"><ele>73.0</ele><time>2026-04-18T08:58:32.306Z</time></trkpt><trkpt lat="43.3292781" lon="10.7368062"><ele>73.0</ele><time>2026-04-18T08:58:33.301Z</time></trkpt><trkpt lat="43.3291304" lon="10.7368885"><ele>73.0</ele><time>2026-04-18T08:58:34.3Z</time></trkpt><trkpt lat="43.3289703" lon="10.7369738"><ele>74.0</ele><time>2026-04-18T08:58:35.298Z</time></trkpt><trkpt lat="43.3288052" lon="10.7370642"><ele>75.0</ele><time>2026-04-18T08:58:36.411Z</time></trkpt><trkpt lat="43.3286442" lon="10.7371527"><ele>76.0</ele><time>2026-04-18T08:58:37.411Z</time></trkpt><trkpt lat="43.3284797" lon="10.7372454"><ele>76.0</ele><time>2026-04-18T08:58:38.416Z</time></trkpt><trkpt lat="43.3283166" lon="10.7373309"><ele>76.0</ele><time>2026-04-18T08:58:39.392Z</time></trkpt><trkpt lat="43.328153" lon="10.7374187"><ele>76.0</ele><time>2026-04-18T08:58:40.395Z</time></trkpt><trkpt lat="43.3279961" lon="10.737505"><ele>76.33333333333333</ele><time>2026-04-18T08:58:41.403Z</time></trkpt><trkpt lat="43.3278421" lon="10.7375878"><ele>76.66666666666667</ele><time>2026-04-18T08:58:42.398Z</time></trkpt><trkpt lat="43.3276966" lon="10.7376701"><ele>77.0</ele><time>2026-04-18T08:58:43.394Z</time></trkpt><trkpt lat="43.3275626" lon="10.7377505"><ele>77.0</ele><time>2026-04-18T08:58:44.399Z</time></trkpt><trkpt lat="43.327436" lon="10.7378415"><ele>77.0</ele><time>2026-04-18T08:58:45.389Z</time></trkpt><trkpt lat="43.3273252" lon="10.7379467"><ele>77.0</ele><time>2026-04-18T08:58:46.414Z</time></trkpt><trkpt lat="43.3272133" lon="10.7380622"><ele>77.0</ele><time>2026-04-18T08:58:47.415Z</time></trkpt><trkpt lat="43.3270872" lon="10.7381701"><ele>77.25</ele><time>2026-04-18T08:58:48.412Z</time></trkpt><trkpt lat="43.3269521" lon="10.7382609"><ele>77.5</ele><time>2026-04-18T08:58:49.423Z</time></trkpt><trkpt lat="43.3268238" lon="10.7383459"><ele>77.75</ele><time>2026-04-18T08:58:50.399Z</time></trkpt><trkpt lat="43.3267094" lon="10.7384483"><ele>78.0</ele><time>2026-04-18T08:58:51.335Z</time></trkpt><trkpt lat="43.3266051" lon="10.7385721"><ele>78.25</ele><time>2026-04-18T08:58:52.396Z</time></trkpt><trkpt lat="43.326522" lon="10.7386923"><ele>78.5</ele><time>2026-04-18T08:58:53.396Z</time></trkpt><trkpt lat="43.3264493" lon="10.738812"><ele>78.75</ele><time>2026-04-18T08:58:54.406Z</time></trkpt><trkpt lat="43.3263882" lon="10.7389462"><ele>79.0</ele><time>2026-04-18T08:58:55.388Z</time></trkpt><trkpt lat="43.3263505" lon="10.7390981"><ele>79.0</ele><time>2026-04-18T08:58:56.299Z</time></trkpt><trkpt lat="43.3263434" lon="10.7392763"><ele>79.0</ele><time>2026-04-18T08:58:57.303Z</time></trkpt><trkpt lat="43.3263525" lon="10.739444"><ele>79.0</ele><time>2026-04-18T08:58:58.432Z</time></trkpt><trkpt lat="43.3263629" lon="10.7397413"><ele>76.5</ele><time>2026-04-18T08:59:00.303Z</time></trkpt><trkpt lat="43.326344" lon="10.7398893"><ele>74.0</ele><time>2026-04-18T08:59:01.3Z</time></trkpt><trkpt lat="43.3262845" lon="10.7400165"><ele>71.5</ele><time>2026-04-18T08:59:02.302Z</time></trkpt><trkpt lat="43.3261849" lon="10.7401216"><ele>69.0</ele><time>2026-04-18T08:59:03.298Z</time></trkpt><trkpt lat="43.3260526" lon="10.7402104"><ele>67.0</ele><time>2026-04-18T08:59:04.299Z</time></trkpt><trkpt lat="43.3259001" lon="10.7403026"><ele>65.0</ele><time>2026-04-18T08:59:05.303Z</time></trkpt><trkpt lat="43.3257332" lon="10.7404028"><ele>63.0</ele><time>2026-04-18T08:59:06.427Z</time></trkpt><trkpt lat="43.3255652" lon="10.7405104"><ele>63.66666666666667</ele><time>2026-04-18T08:59:07.426Z</time></trkpt><trkpt lat="43.3254031" lon="10.7406184"><ele>64.33333333333334</ele><time>2026-04-18T08:59:08.446Z</time></trkpt><trkpt lat="43.325244" lon="10.7407313"><ele>65.0</ele><time>2026-04-18T08:59:09.399Z</time></trkpt><trkpt lat="43.3250935" lon="10.7408643"><ele>65.0</ele><time>2026-04-18T08:59:10.434Z</time></trkpt><trkpt lat="43.3249512" lon="10.7410237"><ele>65.0</ele><time>2026-04-18T08:59:11.44Z</time></trkpt><trkpt lat="43.324816" lon="10.7411975"><ele>65.0</ele><time>2026-04-18T08:59:12.428Z</time></trkpt><trkpt lat="43.3246803" lon="10.7413774"><ele>64.0</ele><time>2026-04-18T08:59:13.425Z</time></trkpt><trkpt lat="43.3245476" lon="10.7415615"><ele>63.0</ele><time>2026-04-18T08:59:14.436Z</time></trkpt><trkpt lat="43.3244233" lon="10.7417456"><ele>62.0</ele><time>2026-04-18T08:59:15.4Z</time></trkpt><trkpt lat="43.3243013" lon="10.7419291"><ele>60.333333333333336</ele><time>2026-04-18T08:59:16.429Z</time></trkpt><trkpt lat="43.3241804" lon="10.7421178"><ele>58.66666666666667</ele><time>2026-04-18T08:59:17.433Z</time></trkpt><trkpt lat="43.324059" lon="10.742307"><ele>57.0</ele><time>2026-04-18T08:59:18.425Z</time></trkpt><trkpt lat="43.3239391" lon="10.7424985"><ele>57.33333333333333</ele><time>2026-04-18T08:59:19.43Z</time></trkpt><trkpt lat="43.3238191" lon="10.7426926"><ele>57.666666666666664</ele><time>2026-04-18T08:59:20.431Z</time></trkpt><trkpt lat="43.3236988" lon="10.7428913"><ele>58.0</ele><time>2026-04-18T08:59:21.426Z</time></trkpt><trkpt lat="43.3235733" lon="10.7430918"><ele>58.0</ele><time>2026-04-18T08:59:22.435Z</time></trkpt><trkpt lat="43.3234517" lon="10.7432907"><ele>58.0</ele><time>2026-04-18T08:59:23.437Z</time></trkpt><trkpt lat="43.3233273" lon="10.7434914"><ele>58.0</ele><time>2026-04-18T08:59:24.449Z</time></trkpt><trkpt lat="43.3232044" lon="10.7436985"><ele>61.0</ele><time>2026-04-18T08:59:25.441Z</time></trkpt><trkpt lat="43.322955" lon="10.7441122"><ele>64.0</ele><time>2026-04-18T08:59:27.303Z</time></trkpt><trkpt lat="43.3228302" lon="10.7443192"><ele>61.666666666666664</ele><time>2026-04-18T08:59:28.432Z</time></trkpt><trkpt lat="43.3227044" lon="10.7445277"><ele>59.33333333333333</ele><time>2026-04-18T08:59:29.432Z</time></trkpt><trkpt lat="43.3225791" lon="10.7447397"><ele>57.0</ele><time>2026-04-18T08:59:30.431Z</time></trkpt><trkpt lat="43.3224527" lon="10.7449489"><ele>57.0</ele><time>2026-04-18T08:59:31.388Z</time></trkpt><trkpt lat="43.3223216" lon="10.7451596"><ele>57.0</ele><time>2026-04-18T08:59:32.438Z</time></trkpt><trkpt lat="43.3221905" lon="10.7453689"><ele>57.0</ele><time>2026-04-18T08:59:33.401Z</time></trkpt><trkpt lat="43.322063" lon="10.7455823"><ele>56.66666666666667</ele><time>2026-04-18T08:59:34.303Z</time></trkpt><trkpt lat="43.3219491" lon="10.7458057"><ele>56.333333333333336</ele><time>2026-04-18T08:59:35.306Z</time></trkpt><trkpt lat="43.3218406" lon="10.7460287"><ele>56.0</ele><time>2026-04-18T08:59:36.308Z</time></trkpt><trkpt lat="43.3217391" lon="10.7462582"><ele>56.0</ele><time>2026-04-18T08:59:37.303Z</time></trkpt><trkpt lat="43.3216427" lon="10.7464892"><ele>56.0</ele><time>2026-04-18T08:59:38.307Z</time></trkpt><trkpt lat="43.3215465" lon="10.7467178"><ele>56.0</ele><time>2026-04-18T08:59:39.308Z</time></trkpt><trkpt lat="43.3214521" lon="10.746951"><ele>59.66666666666667</ele><time>2026-04-18T08:59:40.439Z</time></trkpt><trkpt lat="43.321357" lon="10.7471836"><ele>63.33333333333333</ele><time>2026-04-18T08:59:41.429Z</time></trkpt><trkpt lat="43.3212652" lon="10.747413"><ele>67.0</ele><time>2026-04-18T08:59:42.426Z</time></trkpt><trkpt lat="43.3211728" lon="10.7476449"><ele>64.0</ele><time>2026-04-18T08:59:43.434Z</time></trkpt><trkpt lat="43.3209837" lon="10.7481157"><ele>61.0</ele><time>2026-04-18T08:59:45.41Z</time></trkpt><trkpt lat="43.3208859" lon="10.7483542"><ele>59.666666666666664</ele><time>2026-04-18T08:59:46.42Z</time></trkpt><trkpt lat="43.3207889" lon="10.7485872"><ele>58.33333333333333</ele><time>2026-04-18T08:59:47.442Z</time></trkpt><trkpt lat="43.3206983" lon="10.7488072"><ele>57.0</ele><time>2026-04-18T08:59:48.439Z</time></trkpt><trkpt lat="43.3206074" lon="10.749032"><ele>58.66666666666667</ele><time>2026-04-18T08:59:49.427Z</time></trkpt><trkpt lat="43.3205187" lon="10.749256"><ele>60.333333333333336</ele><time>2026-04-18T08:59:50.438Z</time></trkpt><trkpt lat="43.3204275" lon="10.7494786"><ele>62.0</ele><time>2026-04-18T08:59:51.431Z</time></trkpt><trkpt lat="43.3203358" lon="10.7497023"><ele>62.0</ele><time>2026-04-18T08:59:52.425Z</time></trkpt><trkpt lat="43.3202447" lon="10.7499154"><ele>62.0</ele><time>2026-04-18T08:59:53.432Z</time></trkpt><trkpt lat="43.320141" lon="10.7501134"><ele>62.0</ele><time>2026-04-18T08:59:54.44Z</time></trkpt><trkpt lat="43.3200189" lon="10.7502921"><ele>63.5</ele><time>2026-04-18T08:59:55.441Z</time></trkpt><trkpt lat="43.3197489" lon="10.7505963"><ele>65.0</ele><time>2026-04-18T08:59:57.299Z</time></trkpt><trkpt lat="43.3196104" lon="10.7507423"><ele>65.0</ele><time>2026-04-18T08:59:58.433Z</time></trkpt><trkpt lat="43.3194748" lon="10.7508909"><ele>65.0</ele><time>2026-04-18T08:59:59.434Z</time></trkpt><trkpt lat="43.3193469" lon="10.7510399"><ele>65.0</ele><time>2026-04-18T09:00:00.428Z</time></trkpt><trkpt lat="43.3192196" lon="10.7511946"><ele>64.0</ele><time>2026-04-18T09:00:01.406Z</time></trkpt><trkpt lat="43.3191033" lon="10.751371"><ele>63.0</ele><time>2026-04-18T09:00:02.441Z</time></trkpt><trkpt lat="43.3190012" lon="10.7515801"><ele>62.0</ele><time>2026-04-18T09:00:03.44Z</time></trkpt><trkpt lat="43.31891" lon="10.7518072"><ele>65.0</ele><time>2026-04-18T09:00:04.421Z</time></trkpt><trkpt lat="43.3188225" lon="10.7520417"><ele>68.0</ele><time>2026-04-18T09:00:05.437Z</time></trkpt><trkpt lat="43.3187355" lon="10.7522758"><ele>71.0</ele><time>2026-04-18T09:00:06.352Z</time></trkpt><trkpt lat="43.3186501" lon="10.7525046"><ele>70.5</ele><time>2026-04-18T09:00:07.427Z</time></trkpt><trkpt lat="43.3185655" lon="10.7527283"><ele>70.0</ele><time>2026-04-18T09:00:09.326Z</time></trkpt><trkpt lat="43.3184016" lon="10.7531908"><ele>70.0</ele><time>2026-04-18T09:00:10.381Z</time></trkpt><trkpt lat="43.3183147" lon="10.7534261"><ele>70.0</ele><time>2026-04-18T09:00:11.304Z</time></trkpt><trkpt lat="43.3182287" lon="10.7536628"><ele>70.0</ele><time>2026-04-18T09:00:12.304Z</time></trkpt><trkpt lat="43.3181409" lon="10.7539006"><ele>69.0</ele><time>2026-04-18T09:00:13.451Z</time></trkpt><trkpt lat="43.3180491" lon="10.75414"><ele>68.0</ele><time>2026-04-18T09:00:14.432Z</time></trkpt><trkpt lat="43.3179611" lon="10.7543753"><ele>67.0</ele><time>2026-04-18T09:00:15.396Z</time></trkpt><trkpt lat="43.3178738" lon="10.7546118"><ele>67.0</ele><time>2026-04-18T09:00:16.431Z</time></trkpt><trkpt lat="43.3177861" lon="10.754852"><ele>67.0</ele><time>2026-04-18T09:00:17.416Z</time></trkpt><trkpt lat="43.3177078" lon="10.7550963"><ele>67.0</ele><time>2026-04-18T09:00:18.405Z</time></trkpt><trkpt lat="43.3176345" lon="10.7553346"><ele>66.5</ele><time>2026-04-18T09:00:19.437Z</time></trkpt><trkpt lat="43.3174998" lon="10.7557997"><ele>66.0</ele><time>2026-04-18T09:00:21.306Z</time></trkpt><trkpt lat="43.3174306" lon="10.7560323"><ele>65.66666666666667</ele><time>2026-04-18T09:00:22.303Z</time></trkpt><trkpt lat="43.3173595" lon="10.7562625"><ele>65.33333333333334</ele><time>2026-04-18T09:00:23.31Z</time></trkpt><trkpt lat="43.3172848" lon="10.7564914"><ele>65.0</ele><time>2026-04-18T09:00:24.304Z</time></trkpt><trkpt lat="43.3172058" lon="10.7567219"><ele>70.66666666666667</ele><time>2026-04-18T09:00:25.427Z</time></trkpt><trkpt lat="43.3171298" lon="10.7569574"><ele>76.33333333333333</ele><time>2026-04-18T09:00:26.393Z</time></trkpt><trkpt lat="43.3170558" lon="10.7572016"><ele>82.0</ele><time>2026-04-18T09:00:27.311Z</time></trkpt><trkpt lat="43.3169921" lon="10.7574501"><ele>82.0</ele><time>2026-04-18T09:00:28.305Z</time></trkpt><trkpt lat="43.316939" lon="10.757698"><ele>82.0</ele><time>2026-04-18T09:00:29.433Z</time></trkpt><trkpt lat="43.3168929" lon="10.7579385"><ele>82.0</ele><time>2026-04-18T09:00:30.433Z</time></trkpt><trkpt lat="43.3168486" lon="10.7581696"><ele>79.33333333333333</ele><time>2026-04-18T09:00:31.436Z</time></trkpt><trkpt lat="43.316805" lon="10.7584025"><ele>76.66666666666667</ele><time>2026-04-18T09:00:32.423Z</time></trkpt><trkpt lat="43.3167595" lon="10.7586304"><ele>74.0</ele><time>2026-04-18T09:00:33.426Z</time></trkpt><trkpt lat="43.316669" lon="10.7590828"><ele>72.0</ele><time>2026-04-18T09:00:35.439Z</time></trkpt><trkpt lat="43.3166209" lon="10.7593145"><ele>70.0</ele><time>2026-04-18T09:00:36.406Z</time></trkpt><trkpt lat="43.3165761" lon="10.7595297"><ele>68.0</ele><time>2026-04-18T09:00:37.422Z</time></trkpt><trkpt lat="43.3165367" lon="10.7597381"><ele>67.0</ele><time>2026-04-18T09:00:38.37Z</time></trkpt><trkpt lat="43.3164958" lon="10.7599447"><ele>66.0</ele><time>2026-04-18T09:00:39.413Z</time></trkpt><trkpt lat="43.3164177" lon="10.7603379"><ele>67.39999999999999</ele><time>2026-04-18T09:00:41.305Z</time></trkpt><trkpt lat="43.3163844" lon="10.7605046"><ele>68.8</ele><time>2026-04-18T09:00:42.305Z</time></trkpt><trkpt lat="43.3163549" lon="10.7606598"><ele>70.19999999999999</ele><time>2026-04-18T09:00:43.305Z</time></trkpt><trkpt lat="43.3163202" lon="10.7607942"><ele>71.6</ele><time>2026-04-18T09:00:44.305Z</time></trkpt><trkpt lat="43.3162586" lon="10.7608977"><ele>73.0</ele><time>2026-04-18T09:00:45.433Z</time></trkpt><trkpt lat="43.3161945" lon="10.7609928"><ele>73.0</ele><time>2026-04-18T09:00:46.435Z</time></trkpt><trkpt lat="43.3160765" lon="10.7610036"><ele>73.0</ele><time>2026-04-18T09:00:47.434Z</time></trkpt><trkpt lat="43.3159602" lon="10.7610471"><ele>73.0</ele><time>2026-04-18T09:00:48.433Z</time></trkpt><trkpt lat="43.3156837" lon="10.7611567"><ele>70.0</ele><time>2026-04-18T09:00:50.298Z</time></trkpt><trkpt lat="43.3155399" lon="10.7612303"><ele>67.0</ele><time>2026-04-18T09:00:51.441Z</time></trkpt><trkpt lat="43.3152715" lon="10.761465"><ele>67.0</ele><time>2026-04-18T09:00:53.301Z</time></trkpt><trkpt lat="43.3151472" lon="10.7616124"><ele>67.0</ele><time>2026-04-18T09:00:54.297Z</time></trkpt><trkpt lat="43.3150275" lon="10.7617666"><ele>67.0</ele><time>2026-04-18T09:00:55.297Z</time></trkpt><trkpt lat="43.3149206" lon="10.7619216"><ele>66.75</ele><time>2026-04-18T09:00:56.298Z</time></trkpt><trkpt lat="43.3148166" lon="10.7620589"><ele>66.5</ele><time>2026-04-18T09:00:57.302Z</time></trkpt><trkpt lat="43.3147031" lon="10.7621744"><ele>66.25</ele><time>2026-04-18T09:00:58.299Z</time></trkpt><trkpt lat="43.314578" lon="10.7622757"><ele>66.0</ele><time>2026-04-18T09:00:59.404Z</time></trkpt><trkpt lat="43.3144472" lon="10.7623814"><ele>67.0</ele><time>2026-04-18T09:01:00.42Z</time></trkpt><trkpt lat="43.3143184" lon="10.762502"><ele>68.0</ele><time>2026-04-18T09:01:01.4Z</time></trkpt><trkpt lat="43.3141954" lon="10.7626493"><ele>69.0</ele><time>2026-04-18T09:01:02.406Z</time></trkpt><trkpt lat="43.3140821" lon="10.7628085"><ele>69.0</ele><time>2026-04-18T09:01:03.4Z</time></trkpt><trkpt lat="43.3139715" lon="10.7629777"><ele>69.0</ele><time>2026-04-18T09:01:04.39Z</time></trkpt><trkpt lat="43.313866" lon="10.7631491"><ele>69.0</ele><time>2026-04-18T09:01:05.428Z</time></trkpt><trkpt lat="43.3137625" lon="10.7633162"><ele>70.5</ele><time>2026-04-18T09:01:06.418Z</time></trkpt><trkpt lat="43.313664" lon="10.7634765"><ele>72.0</ele><time>2026-04-18T09:01:07.405Z</time></trkpt><trkpt lat="43.3135687" lon="10.7636285"><ele>73.5</ele><time>2026-04-18T09:01:08.423Z</time></trkpt><trkpt lat="43.3134693" lon="10.7637717"><ele>75.0</ele><time>2026-04-18T09:01:09.419Z</time></trkpt><trkpt lat="43.3133603" lon="10.7638964"><ele>75.0</ele><time>2026-04-18T09:01:10.398Z</time></trkpt><trkpt lat="43.3132383" lon="10.7639999"><ele>75.0</ele><time>2026-04-18T09:01:11.417Z</time></trkpt><trkpt lat="43.3131118" lon="10.7640853"><ele>75.0</ele><time>2026-04-18T09:01:12.397Z</time></trkpt><trkpt lat="43.3129811" lon="10.764165"><ele>75.0</ele><time>2026-04-18T09:01:13.384Z</time></trkpt><trkpt lat="43.3128457" lon="10.7642554"><ele>79.0</ele><time>2026-04-18T09:01:14.405Z</time></trkpt><trkpt lat="43.3127116" lon="10.7643578"><ele>83.0</ele><time>2026-04-18T09:01:15.401Z</time></trkpt><trkpt lat="43.3125776" lon="10.7644697"><ele>87.0</ele><time>2026-04-18T09:01:16.398Z</time></trkpt><trkpt lat="43.3124472" lon="10.7645893"><ele>87.0</ele><time>2026-04-18T09:01:17.403Z</time></trkpt><trkpt lat="43.3123198" lon="10.7647112"><ele>87.0</ele><time>2026-04-18T09:01:18.304Z</time></trkpt><trkpt lat="43.312198" lon="10.764833"><ele>87.0</ele><time>2026-04-18T09:01:19.394Z</time></trkpt><trkpt lat="43.3120835" lon="10.7649586"><ele>90.5</ele><time>2026-04-18T09:01:20.41Z</time></trkpt><trkpt lat="43.3119818" lon="10.7650968"><ele>94.0</ele><time>2026-04-18T09:01:21.33Z</time></trkpt><trkpt lat="43.3118925" lon="10.7652519"><ele>97.5</ele><time>2026-04-18T09:01:22.303Z</time></trkpt><trkpt lat="43.3118138" lon="10.7654222"><ele>101.0</ele><time>2026-04-18T09:01:23.31Z</time></trkpt><trkpt lat="43.3117434" lon="10.765602"><ele>102.0</ele><time>2026-04-18T09:01:24.398Z</time></trkpt><trkpt lat="43.31168" lon="10.7657644"><ele>103.0</ele><time>2026-04-18T09:01:25.418Z</time></trkpt><trkpt lat="43.3115112" lon="10.7660236"><ele>104.0</ele><time>2026-04-18T09:01:27.297Z</time></trkpt><trkpt lat="43.3114112" lon="10.7660945"><ele>106.25</ele><time>2026-04-18T09:01:28.295Z</time></trkpt><trkpt lat="43.3113021" lon="10.7661078"><ele>108.5</ele><time>2026-04-18T09:01:29.294Z</time></trkpt><trkpt lat="43.3111837" lon="10.7660884"><ele>110.75</ele><time>2026-04-18T09:01:30.293Z</time></trkpt><trkpt lat="43.3110569" lon="10.7660468"><ele>113.0</ele><time>2026-04-18T09:01:31.3Z</time></trkpt><trkpt lat="43.3109199" lon="10.7660023"><ele>113.0</ele><time>2026-04-18T09:01:32.297Z</time></trkpt><trkpt lat="43.310787" lon="10.7659643"><ele>113.0</ele><time>2026-04-18T09:01:33.304Z</time></trkpt><trkpt lat="43.3106535" lon="10.765912"><ele>113.0</ele><time>2026-04-18T09:01:34.298Z</time></trkpt><trkpt lat="43.3105231" lon="10.7658339"><ele>113.0</ele><time>2026-04-18T09:01:35.398Z</time></trkpt><trkpt lat="43.3103994" lon="10.7657353"><ele>116.25</ele><time>2026-04-18T09:01:36.392Z</time></trkpt><trkpt lat="43.3102898" lon="10.765633"><ele>119.5</ele><time>2026-04-18T09:01:37.403Z</time></trkpt><trkpt lat="43.3101848" lon="10.7655222"><ele>122.75</ele><time>2026-04-18T09:01:38.389Z</time></trkpt><trkpt lat="43.3100882" lon="10.7653874"><ele>126.0</ele><time>2026-04-18T09:01:39.4Z</time></trkpt><trkpt lat="43.3100044" lon="10.7652278"><ele>126.33333333333334</ele><time>2026-04-18T09:01:40.4Z</time></trkpt><trkpt lat="43.3099339" lon="10.7650513"><ele>126.66666666666667</ele><time>2026-04-18T09:01:41.424Z</time></trkpt><trkpt lat="43.3098315" lon="10.7646832"><ele>127.0</ele><time>2026-04-18T09:01:43.41Z</time></trkpt><trkpt lat="43.3097837" lon="10.7645133"><ele>128.6</ele><time>2026-04-18T09:01:44.399Z</time></trkpt><trkpt lat="43.3097283" lon="10.7643684"><ele>130.2</ele><time>2026-04-18T09:01:45.4Z</time></trkpt><trkpt lat="43.3096709" lon="10.7642474"><ele>131.8</ele><time>2026-04-18T09:01:46.391Z</time></trkpt><trkpt lat="43.309611" lon="10.7641516"><ele>133.4</ele><time>2026-04-18T09:01:47.41Z</time></trkpt><trkpt lat="43.3095483" lon="10.7640892"><ele>135.0</ele><time>2026-04-18T09:01:48.4Z</time></trkpt><trkpt lat="43.3094818" lon="10.7640727"><ele>135.0</ele><time>2026-04-18T09:01:49.399Z</time></trkpt><trkpt lat="43.3094149" lon="10.7641059"><ele>135.0</ele><time>2026-04-18T09:01:50.405Z</time></trkpt><trkpt lat="43.3092767" lon="10.7642854"><ele>135.0</ele><time>2026-04-18T09:01:52.417Z</time></trkpt><trkpt lat="43.3091999" lon="10.7643986"><ele>135.0</ele><time>2026-04-18T09:01:53.414Z</time></trkpt><trkpt lat="43.3091116" lon="10.7645104"><ele>136.75</ele><time>2026-04-18T09:01:54.419Z</time></trkpt><trkpt lat="43.3090073" lon="10.764614"><ele>138.5</ele><time>2026-04-18T09:01:55.397Z</time></trkpt><trkpt lat="43.3088948" lon="10.7647028"><ele>140.25</ele><time>2026-04-18T09:01:56.316Z</time></trkpt><trkpt lat="43.3087739" lon="10.7647866"><ele>142.0</ele><time>2026-04-18T09:01:57.304Z</time></trkpt><trkpt lat="43.3086528" lon="10.7648748"><ele>142.0</ele><time>2026-04-18T09:01:58.304Z</time></trkpt><trkpt lat="43.3085303" lon="10.7649763"><ele>142.0</ele><time>2026-04-18T09:01:59.302Z</time></trkpt><trkpt lat="43.308404" lon="10.7650768"><ele>142.0</ele><time>2026-04-18T09:02:00.306Z</time></trkpt><trkpt lat="43.3082711" lon="10.765171"><ele>142.0</ele><time>2026-04-18T09:02:01.421Z</time></trkpt><trkpt lat="43.3081529" lon="10.7652596"><ele>142.75</ele><time>2026-04-18T09:02:02.417Z</time></trkpt><trkpt lat="43.3080338" lon="10.7653498"><ele>143.5</ele><time>2026-04-18T09:02:03.429Z</time></trkpt><trkpt lat="43.3079215" lon="10.7654361"><ele>144.25</ele><time>2026-04-18T09:02:04.405Z</time></trkpt><trkpt lat="43.3078172" lon="10.76551"><ele>145.0</ele><time>2026-04-18T09:02:05.417Z</time></trkpt><trkpt lat="43.3077157" lon="10.7655945"><ele>145.0</ele><time>2026-04-18T09:02:06.419Z</time></trkpt><trkpt lat="43.3076179" lon="10.7656888"><ele>145.0</ele><time>2026-04-18T09:02:07.408Z</time></trkpt><trkpt lat="43.3075241" lon="10.7658034"><ele>145.0</ele><time>2026-04-18T09:02:08.423Z</time></trkpt><trkpt lat="43.3074277" lon="10.765927"><ele>145.0</ele><time>2026-04-18T09:02:09.403Z</time></trkpt><trkpt lat="43.3073349" lon="10.7660644"><ele>144.0</ele><time>2026-04-18T09:02:10.395Z</time></trkpt><trkpt lat="43.3072456" lon="10.7662186"><ele>143.0</ele><time>2026-04-18T09:02:11.304Z</time></trkpt><trkpt lat="43.3071658" lon="10.7663837"><ele>142.0</ele><time>2026-04-18T09:02:12.406Z</time></trkpt><trkpt lat="43.3070922" lon="10.7665425"><ele>141.0</ele><time>2026-04-18T09:02:13.408Z</time></trkpt><trkpt lat="43.3070077" lon="10.7666905"><ele>141.0</ele><time>2026-04-18T09:02:14.395Z</time></trkpt><trkpt lat="43.3069006" lon="10.7668029"><ele>141.0</ele><time>2026-04-18T09:02:15.398Z</time></trkpt><trkpt lat="43.306771" lon="10.7668879"><ele>141.0</ele><time>2026-04-18T09:02:16.421Z</time></trkpt><trkpt lat="43.3066257" lon="10.7669454"><ele>141.0</ele><time>2026-04-18T09:02:17.417Z</time></trkpt><trkpt lat="43.3064798" lon="10.7670076"><ele>142.0</ele><time>2026-04-18T09:02:18.425Z</time></trkpt><trkpt lat="43.3063347" lon="10.7670924"><ele>143.0</ele><time>2026-04-18T09:02:19.415Z</time></trkpt><trkpt lat="43.3061879" lon="10.767188"><ele>144.0</ele><time>2026-04-18T09:02:20.424Z</time></trkpt><trkpt lat="43.3060422" lon="10.7672804"><ele>144.0</ele><time>2026-04-18T09:02:21.416Z</time></trkpt><trkpt lat="43.3058973" lon="10.7673384"><ele>144.0</ele><time>2026-04-18T09:02:22.414Z</time></trkpt><trkpt lat="43.3057454" lon="10.7673593"><ele>144.0</ele><time>2026-04-18T09:02:23.401Z</time></trkpt><trkpt lat="43.3055889" lon="10.7673628"><ele>146.0</ele><time>2026-04-18T09:02:24.403Z</time></trkpt><trkpt lat="43.3054332" lon="10.7673643"><ele>148.0</ele><time>2026-04-18T09:02:25.42Z</time></trkpt><trkpt lat="43.3051166" lon="10.7673756"><ele>148.0</ele><time>2026-04-18T09:02:27.304Z</time></trkpt><trkpt lat="43.3049607" lon="10.7673713"><ele>148.0</ele><time>2026-04-18T09:02:28.427Z</time></trkpt><trkpt lat="43.304805" lon="10.7673371"><ele>148.0</ele><time>2026-04-18T09:02:29.412Z</time></trkpt><trkpt lat="43.3046475" lon="10.7672891"><ele>149.0</ele><time>2026-04-18T09:02:30.421Z</time></trkpt><trkpt lat="43.3044928" lon="10.7672303"><ele>150.0</ele><time>2026-04-18T09:02:31.395Z</time></trkpt><trkpt lat="43.304351" lon="10.7671765"><ele>151.0</ele><time>2026-04-18T09:02:32.39Z</time></trkpt><trkpt lat="43.3042076" lon="10.7671255"><ele>151.0</ele><time>2026-04-18T09:02:33.395Z</time></trkpt><trkpt lat="43.3040623" lon="10.7670904"><ele>151.0</ele><time>2026-04-18T09:02:34.402Z</time></trkpt><trkpt lat="43.3039119" lon="10.7670772"><ele>151.0</ele><time>2026-04-18T09:02:35.42Z</time></trkpt><trkpt lat="43.3037576" lon="10.7670883"><ele>152.0</ele><time>2026-04-18T09:02:36.428Z</time></trkpt><trkpt lat="43.3036017" lon="10.7671231"><ele>153.0</ele><time>2026-04-18T09:02:37.418Z</time></trkpt><trkpt lat="43.3034425" lon="10.7671724"><ele>154.0</ele><time>2026-04-18T09:02:38.423Z</time></trkpt><trkpt lat="43.3032785" lon="10.7672241"><ele>154.0</ele><time>2026-04-18T09:02:39.426Z</time></trkpt><trkpt lat="43.3031122" lon="10.7672782"><ele>154.0</ele><time>2026-04-18T09:02:40.425Z</time></trkpt><trkpt lat="43.302949" lon="10.767337"><ele>154.0</ele><time>2026-04-18T09:02:41.419Z</time></trkpt><trkpt lat="43.3027794" lon="10.7673954"><ele>154.33333333333334</ele><time>2026-04-18T09:02:42.339Z</time></trkpt><trkpt lat="43.3026083" lon="10.7674574"><ele>154.66666666666666</ele><time>2026-04-18T09:02:43.41Z</time></trkpt><trkpt lat="43.3024358" lon="10.7675192"><ele>155.0</ele><time>2026-04-18T09:02:44.421Z</time></trkpt><trkpt lat="43.3022617" lon="10.7675816"><ele>155.33333333333331</ele><time>2026-04-18T09:02:45.405Z</time></trkpt><trkpt lat="43.302087" lon="10.7676482"><ele>155.66666666666666</ele><time>2026-04-18T09:02:46.393Z</time></trkpt><trkpt lat="43.3019143" lon="10.7677156"><ele>156.0</ele><time>2026-04-18T09:02:47.42Z</time></trkpt><trkpt lat="43.3017382" lon="10.7677802"><ele>156.33333333333334</ele><time>2026-04-18T09:02:48.42Z</time></trkpt><trkpt lat="43.3015649" lon="10.767845"><ele>156.66666666666669</ele><time>2026-04-18T09:02:49.402Z</time></trkpt><trkpt lat="43.3013911" lon="10.7679106"><ele>157.0</ele><time>2026-04-18T09:02:50.4Z</time></trkpt><trkpt lat="43.3012193" lon="10.7679776"><ele>157.0</ele><time>2026-04-18T09:02:51.397Z</time></trkpt><trkpt lat="43.3010517" lon="10.7680416"><ele>157.0</ele><time>2026-04-18T09:02:52.413Z</time></trkpt><trkpt lat="43.300885" lon="10.7681003"><ele>157.0</ele><time>2026-04-18T09:02:53.399Z</time></trkpt><trkpt lat="43.3007205" lon="10.7681561"><ele>160.5</ele><time>2026-04-18T09:02:54.388Z</time></trkpt><trkpt lat="43.3005543" lon="10.7681996"><ele>164.0</ele><time>2026-04-18T09:02:55.419Z</time></trkpt><trkpt lat="43.3002268" lon="10.7682438"><ele>164.0</ele><time>2026-04-18T09:02:57.302Z</time></trkpt><trkpt lat="43.3000625" lon="10.7682581"><ele>164.0</ele><time>2026-04-18T09:02:58.398Z</time></trkpt><trkpt lat="43.2998947" lon="10.7682535"><ele>164.0</ele><time>2026-04-18T09:02:59.422Z</time></trkpt><trkpt lat="43.2995566" lon="10.7681828"><ele>166.0</ele><time>2026-04-18T09:03:01.304Z</time></trkpt><trkpt lat="43.2993837" lon="10.7681245"><ele>168.0</ele><time>2026-04-18T09:03:02.301Z</time></trkpt><trkpt lat="43.2992146" lon="10.7680601"><ele>170.0</ele><time>2026-04-18T09:03:03.306Z</time></trkpt><trkpt lat="43.2990482" lon="10.7679943"><ele>173.33333333333331</ele><time>2026-04-18T09:03:04.402Z</time></trkpt><trkpt lat="43.2988847" lon="10.7679315"><ele>176.66666666666666</ele><time>2026-04-18T09:03:05.406Z</time></trkpt><trkpt lat="43.2987254" lon="10.7678659"><ele>180.0</ele><time>2026-04-18T09:03:06.412Z</time></trkpt><trkpt lat="43.298569" lon="10.7677979"><ele>180.0</ele><time>2026-04-18T09:03:07.425Z</time></trkpt><trkpt lat="43.2984181" lon="10.7677342"><ele>180.0</ele><time>2026-04-18T09:03:08.418Z</time></trkpt><trkpt lat="43.2982839" lon="10.7676754"><ele>180.0</ele><time>2026-04-18T09:03:09.398Z</time></trkpt><trkpt lat="43.2981519" lon="10.7676378"><ele>180.0</ele><time>2026-04-18T09:03:10.398Z</time></trkpt><trkpt lat="43.2980169" lon="10.7676382"><ele>182.0</ele><time>2026-04-18T09:03:11.302Z</time></trkpt><trkpt lat="43.297875" lon="10.7676655"><ele>184.0</ele><time>2026-04-18T09:03:12.303Z</time></trkpt><trkpt lat="43.2977297" lon="10.7677088"><ele>186.0</ele><time>2026-04-18T09:03:13.411Z</time></trkpt><trkpt lat="43.2975867" lon="10.7677615"><ele>188.0</ele><time>2026-04-18T09:03:14.411Z</time></trkpt><trkpt lat="43.2973351" lon="10.7679331"><ele>191.0</ele><time>2026-04-18T09:03:16.301Z</time></trkpt><trkpt lat="43.2972277" lon="10.7680383"><ele>194.0</ele><time>2026-04-18T09:03:17.304Z</time></trkpt><trkpt lat="43.2971252" lon="10.7681418"><ele>197.0</ele><time>2026-04-18T09:03:18.301Z</time></trkpt><trkpt lat="43.2970181" lon="10.7682366"><ele>200.0</ele><time>2026-04-18T09:03:19.299Z</time></trkpt><trkpt lat="43.2968991" lon="10.7683184"><ele>200.0</ele><time>2026-04-18T09:03:20.293Z</time></trkpt><trkpt lat="43.2967769" lon="10.7683723"><ele>200.0</ele><time>2026-04-18T09:03:21.298Z</time></trkpt><trkpt lat="43.2966367" lon="10.7683988"><ele>200.0</ele><time>2026-04-18T09:03:22.432Z</time></trkpt><trkpt lat="43.2964951" lon="10.7684094"><ele>200.0</ele><time>2026-04-18T09:03:23.431Z</time></trkpt><trkpt lat="43.2961963" lon="10.7683922"><ele>202.0</ele><time>2026-04-18T09:03:25.422Z</time></trkpt><trkpt lat="43.2958992" lon="10.7683681"><ele>204.0</ele><time>2026-04-18T09:03:27.303Z</time></trkpt><trkpt lat="43.2957402" lon="10.7683669"><ele>205.25</ele><time>2026-04-18T09:03:28.292Z</time></trkpt><trkpt lat="43.2955791" lon="10.7683803"><ele>206.5</ele><time>2026-04-18T09:03:29.299Z</time></trkpt><trkpt lat="43.2954361" lon="10.7684091"><ele>207.75</ele><time>2026-04-18T09:03:30.298Z</time></trkpt><trkpt lat="43.2952966" lon="10.7684376"><ele>209.0</ele><time>2026-04-18T09:03:31.302Z</time></trkpt><trkpt lat="43.2951571" lon="10.768465"><ele>209.0</ele><time>2026-04-18T09:03:32.302Z</time></trkpt><trkpt lat="43.2950205" lon="10.7684894"><ele>209.0</ele><time>2026-04-18T09:03:33.302Z</time></trkpt><trkpt lat="43.2948792" lon="10.7685039"><ele>209.0</ele><time>2026-04-18T09:03:34.3Z</time></trkpt><trkpt lat="43.2947313" lon="10.7684997"><ele>209.0</ele><time>2026-04-18T09:03:35.421Z</time></trkpt><trkpt lat="43.2945785" lon="10.7684752"><ele>210.66666666666669</ele><time>2026-04-18T09:03:36.414Z</time></trkpt><trkpt lat="43.2944249" lon="10.7684482"><ele>212.33333333333331</ele><time>2026-04-18T09:03:37.391Z</time></trkpt><trkpt lat="43.294263" lon="10.7684661"><ele>214.0</ele><time>2026-04-18T09:03:38.417Z</time></trkpt><trkpt lat="43.2940985" lon="10.7685044"><ele>208.0</ele><time>2026-04-18T09:03:39.427Z</time></trkpt><trkpt lat="43.2939346" lon="10.768544"><ele>202.0</ele><time>2026-04-18T09:03:40.34Z</time></trkpt><trkpt lat="43.2937694" lon="10.7685791"><ele>196.0</ele><time>2026-04-18T09:03:41.391Z</time></trkpt><trkpt lat="43.2936104" lon="10.768598"><ele>196.0</ele><time>2026-04-18T09:03:42.398Z</time></trkpt><trkpt lat="43.2934512" lon="10.7686165"><ele>196.0</ele><time>2026-04-18T09:03:43.389Z</time></trkpt><trkpt lat="43.2933267" lon="10.7686295"><ele>196.0</ele><time>2026-04-18T09:03:44.302Z</time></trkpt><trkpt lat="43.2931758" lon="10.7686334"><ele>196.0</ele><time>2026-04-18T09:03:45.301Z</time></trkpt><trkpt lat="43.2930256" lon="10.768596"><ele>196.33333333333331</ele><time>2026-04-18T09:03:46.305Z</time></trkpt><trkpt lat="43.2928698" lon="10.7685494"><ele>196.66666666666669</ele><time>2026-04-18T09:03:47.416Z</time></trkpt><trkpt lat="43.2927039" lon="10.768492"><ele>197.0</ele><time>2026-04-18T09:03:48.401Z</time></trkpt><trkpt lat="43.2925416" lon="10.7684304"><ele>200.33333333333334</ele><time>2026-04-18T09:03:49.4Z</time></trkpt><trkpt lat="43.292379" lon="10.7683669"><ele>203.66666666666669</ele><time>2026-04-18T09:03:50.414Z</time></trkpt><trkpt lat="43.2922194" lon="10.7682989"><ele>207.0</ele><time>2026-04-18T09:03:51.418Z</time></trkpt><trkpt lat="43.2920523" lon="10.7682375"><ele>207.0</ele><time>2026-04-18T09:03:52.391Z</time></trkpt><trkpt lat="43.2918894" lon="10.7681779"><ele>207.0</ele><time>2026-04-18T09:03:53.408Z</time></trkpt><trkpt lat="43.2917129" lon="10.7681451"><ele>207.0</ele><time>2026-04-18T09:03:54.406Z</time></trkpt><trkpt lat="43.2915379" lon="10.7681231"><ele>208.33333333333331</ele><time>2026-04-18T09:03:55.418Z</time></trkpt><trkpt lat="43.2913688" lon="10.7681111"><ele>209.66666666666666</ele><time>2026-04-18T09:03:56.396Z</time></trkpt><trkpt lat="43.2911971" lon="10.7681034"><ele>211.0</ele><time>2026-04-18T09:03:57.303Z</time></trkpt><trkpt lat="43.2910292" lon="10.7681003"><ele>211.0</ele><time>2026-04-18T09:03:58.301Z</time></trkpt><trkpt lat="43.2908568" lon="10.7680962"><ele>211.0</ele><time>2026-04-18T09:03:59.406Z</time></trkpt><trkpt lat="43.2906905" lon="10.7680906"><ele>211.0</ele><time>2026-04-18T09:04:00.42Z</time></trkpt><trkpt lat="43.2905217" lon="10.7680893"><ele>214.33333333333331</ele><time>2026-04-18T09:04:01.425Z</time></trkpt><trkpt lat="43.2903577" lon="10.7680868"><ele>217.66666666666669</ele><time>2026-04-18T09:04:02.386Z</time></trkpt><trkpt lat="43.2901984" lon="10.7680813"><ele>221.0</ele><time>2026-04-18T09:04:03.403Z</time></trkpt><trkpt lat="43.2900413" lon="10.7680789"><ele>221.0</ele><time>2026-04-18T09:04:04.419Z</time></trkpt><trkpt lat="43.2898846" lon="10.7680758"><ele>221.0</ele><time>2026-04-18T09:04:05.401Z</time></trkpt><trkpt lat="43.2897282" lon="10.7680685"><ele>221.0</ele><time>2026-04-18T09:04:06.378Z</time></trkpt><trkpt lat="43.2895654" lon="10.7680603"><ele>224.33333333333334</ele><time>2026-04-18T09:04:07.415Z</time></trkpt><trkpt lat="43.2893983" lon="10.7680554"><ele>227.66666666666669</ele><time>2026-04-18T09:04:08.404Z</time></trkpt><trkpt lat="43.289243" lon="10.7680542"><ele>231.0</ele><time>2026-04-18T09:04:09.415Z</time></trkpt><trkpt lat="43.2890974" lon="10.7680546"><ele>231.0</ele><time>2026-04-18T09:04:10.403Z</time></trkpt><trkpt lat="43.2889592" lon="10.7680589"><ele>231.0</ele><time>2026-04-18T09:04:11.423Z</time></trkpt><trkpt lat="43.2886775" lon="10.768009"><ele>231.0</ele><time>2026-04-18T09:04:13.298Z</time></trkpt><trkpt lat="43.2885514" lon="10.7679281"><ele>232.5</ele><time>2026-04-18T09:04:14.299Z</time></trkpt><trkpt lat="43.2884397" lon="10.767809"><ele>234.0</ele><time>2026-04-18T09:04:15.302Z</time></trkpt><trkpt lat="43.2883303" lon="10.7676665"><ele>235.5</ele><time>2026-04-18T09:04:16.3Z</time></trkpt><trkpt lat="43.2882299" lon="10.7675011"><ele>237.0</ele><time>2026-04-18T09:04:17.298Z</time></trkpt><trkpt lat="43.2881485" lon="10.7673294"><ele>240.25</ele><time>2026-04-18T09:04:18.299Z</time></trkpt><trkpt lat="43.2880938" lon="10.767158"><ele>243.5</ele><time>2026-04-18T09:04:19.307Z</time></trkpt><trkpt lat="43.2880565" lon="10.7669681"><ele>246.75</ele><time>2026-04-18T09:04:20.425Z</time></trkpt><trkpt lat="43.288017" lon="10.7667907"><ele>250.0</ele><time>2026-04-18T09:04:21.435Z</time></trkpt><trkpt lat="43.287949" lon="10.7666171"><ele>255.0</ele><time>2026-04-18T09:04:22.422Z</time></trkpt><trkpt lat="43.2878614" lon="10.7664548"><ele>260.0</ele><time>2026-04-18T09:04:23.45Z</time></trkpt><trkpt lat="43.287754" lon="10.7663044"><ele>265.0</ele><time>2026-04-18T09:04:24.444Z</time></trkpt><trkpt lat="43.2876256" lon="10.7661665"><ele>265.0</ele><time>2026-04-18T09:04:25.35Z</time></trkpt><trkpt lat="43.2874758" lon="10.766035"><ele>265.0</ele><time>2026-04-18T09:04:26.302Z</time></trkpt><trkpt lat="43.2873313" lon="10.7659183"><ele>265.0</ele><time>2026-04-18T09:04:27.303Z</time></trkpt><trkpt lat="43.2871968" lon="10.7658164"><ele>269.66666666666663</ele><time>2026-04-18T09:04:28.304Z</time></trkpt><trkpt lat="43.2870593" lon="10.76573"><ele>274.3333333333333</ele><time>2026-04-18T09:04:29.306Z</time></trkpt><trkpt lat="43.2869144" lon="10.7656697"><ele>279.0</ele><time>2026-04-18T09:04:30.301Z</time></trkpt><trkpt lat="43.2867534" lon="10.765629"><ele>279.0</ele><time>2026-04-18T09:04:31.3Z</time></trkpt><trkpt lat="43.286579" lon="10.7655906"><ele>279.0</ele><time>2026-04-18T09:04:32.439Z</time></trkpt><trkpt lat="43.2862802" lon="10.7655494"><ele>279.75</ele><time>2026-04-18T09:04:34.366Z</time></trkpt><trkpt lat="43.286144" lon="10.765553"><ele>280.5</ele><time>2026-04-18T09:04:35.434Z</time></trkpt><trkpt lat="43.2860035" lon="10.7655623"><ele>281.25</ele><time>2026-04-18T09:04:36.433Z</time></trkpt><trkpt lat="43.285854" lon="10.7655683"><ele>282.0</ele><time>2026-04-18T09:04:37.434Z</time></trkpt><trkpt lat="43.2856991" lon="10.7655596"><ele>282.3333333333333</ele><time>2026-04-18T09:04:38.391Z</time></trkpt><trkpt lat="43.2855376" lon="10.7655274"><ele>282.66666666666663</ele><time>2026-04-18T09:04:39.426Z</time></trkpt><trkpt lat="43.2853755" lon="10.7654901"><ele>283.0</ele><time>2026-04-18T09:04:40.435Z</time></trkpt><trkpt lat="43.2852137" lon="10.7654458"><ele>283.0</ele><time>2026-04-18T09:04:41.437Z</time></trkpt><trkpt lat="43.2850568" lon="10.7654026"><ele>283.0</ele><time>2026-04-18T09:04:42.445Z</time></trkpt><trkpt lat="43.2849007" lon="10.7653591"><ele>283.0</ele><time>2026-04-18T09:04:43.411Z</time></trkpt><trkpt lat="43.2847461" lon="10.7653096"><ele>286.3333333333333</ele><time>2026-04-18T09:04:44.44Z</time></trkpt><trkpt lat="43.2845855" lon="10.7652561"><ele>289.6666666666667</ele><time>2026-04-18T09:04:45.428Z</time></trkpt><trkpt lat="43.2844382" lon="10.765202"><ele>293.0</ele><time>2026-04-18T09:04:46.409Z</time></trkpt><trkpt lat="43.284291" lon="10.7651469"><ele>297.0</ele><time>2026-04-18T09:04:47.39Z</time></trkpt><trkpt lat="43.284144" lon="10.765114"><ele>301.0</ele><time>2026-04-18T09:04:48.411Z</time></trkpt><trkpt lat="43.2838709" lon="10.7651086"><ele>305.0</ele><time>2026-04-18T09:04:50.297Z</time></trkpt><trkpt lat="43.2837356" lon="10.7651037"><ele>305.6</ele><time>2026-04-18T09:04:51.299Z</time></trkpt><trkpt lat="43.283625" lon="10.7650941"><ele>306.2</ele><time>2026-04-18T09:04:52.3Z</time></trkpt><trkpt lat="43.2835569" lon="10.7651279"><ele>306.8</ele><time>2026-04-18T09:04:53.294Z</time></trkpt><trkpt lat="43.283476" lon="10.7651491"><ele>307.4</ele><time>2026-04-18T09:04:54.298Z</time></trkpt><trkpt lat="43.2833903" lon="10.765165"><ele>308.0</ele><time>2026-04-18T09:04:55.301Z</time></trkpt><trkpt lat="43.2833098" lon="10.7652453"><ele>308.0</ele><time>2026-04-18T09:04:56.3Z</time></trkpt><trkpt lat="43.2832777" lon="10.765344"><ele>308.0</ele><time>2026-04-18T09:04:57.308Z</time></trkpt><trkpt lat="43.2832631" lon="10.7654523"><ele>308.0</ele><time>2026-04-18T09:04:58.394Z</time></trkpt><trkpt lat="43.2832613" lon="10.7655713"><ele>308.0</ele><time>2026-04-18T09:04:59.415Z</time></trkpt><trkpt lat="43.2832725" lon="10.7658725"><ele>310.25</ele><time>2026-04-18T09:05:01.398Z</time></trkpt><trkpt lat="43.2832962" lon="10.7660499"><ele>312.5</ele><time>2026-04-18T09:05:02.411Z</time></trkpt><trkpt lat="43.2833467" lon="10.7662401"><ele>314.75</ele><time>2026-04-18T09:05:03.418Z</time></trkpt><trkpt lat="43.2834206" lon="10.7664294"><ele>317.0</ele><time>2026-04-18T09:05:04.421Z</time></trkpt><trkpt lat="43.2834914" lon="10.7666056"><ele>317.0</ele><time>2026-04-18T09:05:05.421Z</time></trkpt><trkpt lat="43.283536" lon="10.7667711"><ele>317.0</ele><time>2026-04-18T09:05:06.411Z</time></trkpt><trkpt lat="43.2835536" lon="10.7669584"><ele>317.0</ele><time>2026-04-18T09:05:07.392Z</time></trkpt><trkpt lat="43.2835347" lon="10.7671523"><ele>317.0</ele><time>2026-04-18T09:05:08.303Z</time></trkpt><trkpt lat="43.2835135" lon="10.7673522"><ele>317.0</ele><time>2026-04-18T09:05:09.396Z</time></trkpt><trkpt lat="43.2835015" lon="10.7675576"><ele>317.0</ele><time>2026-04-18T09:05:10.422Z</time></trkpt><trkpt lat="43.2834888" lon="10.7677352"><ele>317.0</ele><time>2026-04-18T09:05:11.39Z</time></trkpt><trkpt lat="43.2834597" lon="10.7679042"><ele>317.0</ele><time>2026-04-18T09:05:12.392Z</time></trkpt><trkpt lat="43.2834155" lon="10.7680627"><ele>316.0</ele><time>2026-04-18T09:05:13.398Z</time></trkpt><trkpt lat="43.2833344" lon="10.7682113"><ele>315.0</ele><time>2026-04-18T09:05:14.396Z</time></trkpt><trkpt lat="43.2832423" lon="10.7683233"><ele>314.0</ele><time>2026-04-18T09:05:15.424Z</time></trkpt><trkpt lat="43.28314" lon="10.7684144"><ele>313.0</ele><time>2026-04-18T09:05:16.39Z</time></trkpt><trkpt lat="43.2830286" lon="10.7684803"><ele>314.0</ele><time>2026-04-18T09:05:17.413Z</time></trkpt><trkpt lat="43.2829114" lon="10.7685203"><ele>315.0</ele><time>2026-04-18T09:05:18.388Z</time></trkpt><trkpt lat="43.2827924" lon="10.7685536"><ele>316.0</ele><time>2026-04-18T09:05:19.299Z</time></trkpt><trkpt lat="43.2826717" lon="10.7685857"><ele>317.0</ele><time>2026-04-18T09:05:20.302Z</time></trkpt><trkpt lat="43.2825494" lon="10.7686208"><ele>317.0</ele><time>2026-04-18T09:05:21.413Z</time></trkpt><trkpt lat="43.2824351" lon="10.768672"><ele>317.0</ele><time>2026-04-18T09:05:22.41Z</time></trkpt><trkpt lat="43.2823197" lon="10.7687556"><ele>317.0</ele><time>2026-04-18T09:05:23.419Z</time></trkpt><trkpt lat="43.282211" lon="10.7688687"><ele>317.0</ele><time>2026-04-18T09:05:24.42Z</time></trkpt><trkpt lat="43.282114" lon="10.768995"><ele>318.0</ele><time>2026-04-18T09:05:25.4Z</time></trkpt><trkpt lat="43.282023" lon="10.7691173"><ele>319.0</ele><time>2026-04-18T09:05:26.411Z</time></trkpt><trkpt lat="43.2819286" lon="10.7692326"><ele>320.0</ele><time>2026-04-18T09:05:27.41Z</time></trkpt><trkpt lat="43.2818365" lon="10.7693402"><ele>321.0</ele><time>2026-04-18T09:05:28.4Z</time></trkpt><trkpt lat="43.2817334" lon="10.7694273"><ele>321.0</ele><time>2026-04-18T09:05:29.396Z</time></trkpt><trkpt lat="43.2816065" lon="10.7694859"><ele>321.0</ele><time>2026-04-18T09:05:30.311Z</time></trkpt><trkpt lat="43.2814648" lon="10.7695256"><ele>321.0</ele><time>2026-04-18T09:05:31.402Z</time></trkpt><trkpt lat="43.2813239" lon="10.7695602"><ele>321.0</ele><time>2026-04-18T09:05:32.405Z</time></trkpt><trkpt lat="43.2811805" lon="10.7696048"><ele>325.0</ele><time>2026-04-18T09:05:33.415Z</time></trkpt><trkpt lat="43.281045" lon="10.7696687"><ele>329.0</ele><time>2026-04-18T09:05:34.42Z</time></trkpt><trkpt lat="43.28093" lon="10.7697557"><ele>333.0</ele><time>2026-04-18T09:05:35.41Z</time></trkpt><trkpt lat="43.2808352" lon="10.7698755"><ele>337.0</ele><time>2026-04-18T09:05:36.394Z</time></trkpt><trkpt lat="43.2807645" lon="10.7700177"><ele>337.0</ele><time>2026-04-18T09:05:37.396Z</time></trkpt><trkpt lat="43.2807193" lon="10.7701636"><ele>337.0</ele><time>2026-04-18T09:05:38.395Z</time></trkpt><trkpt lat="43.2806914" lon="10.7703159"><ele>337.0</ele><time>2026-04-18T09:05:39.396Z</time></trkpt><trkpt lat="43.2806869" lon="10.7704728"><ele>337.0</ele><time>2026-04-18T09:05:40.382Z</time></trkpt><trkpt lat="43.2807059" lon="10.7706511"><ele>336.25</ele><time>2026-04-18T09:05:41.4Z</time></trkpt><trkpt lat="43.2807205" lon="10.7708435"><ele>335.5</ele><time>2026-04-18T09:05:42.416Z</time></trkpt><trkpt lat="43.2807275" lon="10.7710452"><ele>334.75</ele><time>2026-04-18T09:05:43.397Z</time></trkpt><trkpt lat="43.280731" lon="10.7712411"><ele>334.0</ele><time>2026-04-18T09:05:44.407Z</time></trkpt><trkpt lat="43.28074" lon="10.7714205"><ele>334.0</ele><time>2026-04-18T09:05:45.423Z</time></trkpt><trkpt lat="43.2807692" lon="10.7715765"><ele>334.0</ele><time>2026-04-18T09:05:46.395Z</time></trkpt><trkpt lat="43.280825" lon="10.7717121"><ele>334.0</ele><time>2026-04-18T09:05:47.408Z</time></trkpt><trkpt lat="43.2809069" lon="10.7718384"><ele>334.0</ele><time>2026-04-18T09:05:48.399Z</time></trkpt><trkpt lat="43.2810077" lon="10.7719586"><ele>337.75</ele><time>2026-04-18T09:05:49.301Z</time></trkpt><trkpt lat="43.281111" lon="10.7720702"><ele>341.5</ele><time>2026-04-18T09:05:50.305Z</time></trkpt><trkpt lat="43.2812069" lon="10.7721818"><ele>345.25</ele><time>2026-04-18T09:05:51.414Z</time></trkpt><trkpt lat="43.2812872" lon="10.7723014"><ele>349.0</ele><time>2026-04-18T09:05:52.421Z</time></trkpt><trkpt lat="43.2813466" lon="10.7724414"><ele>349.0</ele><time>2026-04-18T09:05:53.397Z</time></trkpt><trkpt lat="43.2813761" lon="10.7725973"><ele>349.0</ele><time>2026-04-18T09:05:54.417Z</time></trkpt><trkpt lat="43.2814016" lon="10.7727632"><ele>349.0</ele><time>2026-04-18T09:05:55.406Z</time></trkpt><trkpt lat="43.2813862" lon="10.7730708"><ele>352.75</ele><time>2026-04-18T09:05:57.298Z</time></trkpt><trkpt lat="43.2813588" lon="10.7732335"><ele>356.5</ele><time>2026-04-18T09:05:58.389Z</time></trkpt><trkpt lat="43.2813557" lon="10.7734023"><ele>360.25</ele><time>2026-04-18T09:05:59.404Z</time></trkpt><trkpt lat="43.2813875" lon="10.7735538"><ele>364.0</ele><time>2026-04-18T09:06:00.419Z</time></trkpt><trkpt lat="43.2814223" lon="10.7737017"><ele>359.0</ele><time>2026-04-18T09:06:01.396Z</time></trkpt><trkpt lat="43.2814733" lon="10.773839"><ele>354.0</ele><time>2026-04-18T09:06:02.401Z</time></trkpt><trkpt lat="43.2814858" lon="10.7740024"><ele>349.0</ele><time>2026-04-18T09:06:03.401Z</time></trkpt><trkpt lat="43.2814663" lon="10.7741615"><ele>344.0</ele><time>2026-04-18T09:06:04.42Z</time></trkpt><trkpt lat="43.2814332" lon="10.7743291"><ele>350.5</ele><time>2026-04-18T09:06:05.425Z</time></trkpt><trkpt lat="43.2813947" lon="10.774521"><ele>357.0</ele><time>2026-04-18T09:06:06.404Z</time></trkpt><trkpt lat="43.2813519" lon="10.7747131"><ele>363.5</ele><time>2026-04-18T09:06:07.394Z</time></trkpt><trkpt lat="43.2813155" lon="10.7748874"><ele>370.0</ele><time>2026-04-18T09:06:08.395Z</time></trkpt><trkpt lat="43.2812782" lon="10.775063"><ele>370.0</ele><time>2026-04-18T09:06:09.405Z</time></trkpt><trkpt lat="43.2812415" lon="10.7752402"><ele>370.0</ele><time>2026-04-18T09:06:10.406Z</time></trkpt><trkpt lat="43.2812051" lon="10.7753988"><ele>370.0</ele><time>2026-04-18T09:06:11.39Z</time></trkpt><trkpt lat="43.2811648" lon="10.7755626"><ele>370.0</ele><time>2026-04-18T09:06:12.407Z</time></trkpt><trkpt lat="43.2811271" lon="10.775735"><ele>371.66666666666663</ele><time>2026-04-18T09:06:13.413Z</time></trkpt><trkpt lat="43.2810961" lon="10.776113"><ele>373.3333333333333</ele><time>2026-04-18T09:06:15.301Z</time></trkpt><trkpt lat="43.2810834" lon="10.7763141"><ele>375.0</ele><time>2026-04-18T09:06:16.302Z</time></trkpt><trkpt lat="43.2810636" lon="10.7765146"><ele>375.0</ele><time>2026-04-18T09:06:17.299Z</time></trkpt><trkpt lat="43.2810421" lon="10.7767058"><ele>375.0</ele><time>2026-04-18T09:06:18.3Z</time></trkpt><trkpt lat="43.2810286" lon="10.7768928"><ele>375.0</ele><time>2026-04-18T09:06:19.3Z</time></trkpt><trkpt lat="43.2810233" lon="10.7770827"><ele>375.0</ele><time>2026-04-18T09:06:20.388Z</time></trkpt><trkpt lat="43.2810229" lon="10.7772625"><ele>377.25</ele><time>2026-04-18T09:06:21.303Z</time></trkpt><trkpt lat="43.2810262" lon="10.7774442"><ele>379.5</ele><time>2026-04-18T09:06:22.291Z</time></trkpt><trkpt lat="43.2810603" lon="10.7776275"><ele>381.75</ele><time>2026-04-18T09:06:23.297Z</time></trkpt><trkpt lat="43.2810915" lon="10.7778077"><ele>384.0</ele><time>2026-04-18T09:06:24.291Z</time></trkpt><trkpt lat="43.2811245" lon="10.7779875"><ele>386.25</ele><time>2026-04-18T09:06:25.297Z</time></trkpt><trkpt lat="43.2811606" lon="10.778158"><ele>388.5</ele><time>2026-04-18T09:06:26.3Z</time></trkpt><trkpt lat="43.2811921" lon="10.7783309"><ele>390.75</ele><time>2026-04-18T09:06:27.296Z</time></trkpt><trkpt lat="43.2812238" lon="10.7785062"><ele>393.0</ele><time>2026-04-18T09:06:28.304Z</time></trkpt><trkpt lat="43.2812531" lon="10.7786805"><ele>392.5</ele><time>2026-04-18T09:06:29.302Z</time></trkpt><trkpt lat="43.2812715" lon="10.7788665"><ele>392.0</ele><time>2026-04-18T09:06:30.302Z</time></trkpt><trkpt lat="43.2812828" lon="10.7790549"><ele>391.5</ele><time>2026-04-18T09:06:31.298Z</time></trkpt><trkpt lat="43.2812837" lon="10.7792337"><ele>391.0</ele><time>2026-04-18T09:06:32.348Z</time></trkpt><trkpt lat="43.281295" lon="10.7794119"><ele>391.0</ele><time>2026-04-18T09:06:33.412Z</time></trkpt><trkpt lat="43.2813442" lon="10.7797451"><ele>391.0</ele><time>2026-04-18T09:06:35.306Z</time></trkpt><trkpt lat="43.2813894" lon="10.7799049"><ele>391.0</ele><time>2026-04-18T09:06:36.306Z</time></trkpt><trkpt lat="43.2814259" lon="10.7800572"><ele>390.33333333333337</ele><time>2026-04-18T09:06:37.421Z</time></trkpt><trkpt lat="43.2814818" lon="10.7801785"><ele>389.6666666666667</ele><time>2026-04-18T09:06:38.421Z</time></trkpt><trkpt lat="43.2815325" lon="10.7802728"><ele>389.0</ele><time>2026-04-18T09:06:39.415Z</time></trkpt><trkpt lat="43.2815761" lon="10.7803362"><ele>388.33333333333337</ele><time>2026-04-18T09:06:40.399Z</time></trkpt><trkpt lat="43.2816501" lon="10.780457"><ele>387.6666666666667</ele><time>2026-04-18T09:06:42.396Z</time></trkpt><trkpt lat="43.2816932" lon="10.7805341"><ele>387.0</ele><time>2026-04-18T09:06:43.429Z</time></trkpt><trkpt lat="43.2817262" lon="10.7806379"><ele>388.0</ele><time>2026-04-18T09:06:44.421Z</time></trkpt><trkpt lat="43.2817527" lon="10.7807531"><ele>389.0</ele><time>2026-04-18T09:06:45.412Z</time></trkpt><trkpt lat="43.2817888" lon="10.7808622"><ele>390.0</ele><time>2026-04-18T09:06:46.423Z</time></trkpt><trkpt lat="43.2818259" lon="10.7809556"><ele>391.0</ele><time>2026-04-18T09:06:47.42Z</time></trkpt><trkpt lat="43.2818651" lon="10.7810304"><ele>392.0</ele><time>2026-04-18T09:06:48.407Z</time></trkpt><trkpt lat="43.2819128" lon="10.7810924"><ele>393.0</ele><time>2026-04-18T09:06:49.427Z</time></trkpt><trkpt lat="43.2820042" lon="10.7811978"><ele>393.0</ele><time>2026-04-18T09:06:51.409Z</time></trkpt><trkpt lat="43.2820451" lon="10.7812673"><ele>393.0</ele><time>2026-04-18T09:06:52.416Z</time></trkpt><trkpt lat="43.2820903" lon="10.7813282"><ele>393.0</ele><time>2026-04-18T09:06:53.422Z</time></trkpt><trkpt lat="43.2821976" lon="10.7814139"><ele>393.0</ele><time>2026-04-18T09:06:55.294Z</time></trkpt><trkpt lat="43.2822838" lon="10.7814456"><ele>393.0</ele><time>2026-04-18T09:06:57.389Z</time></trkpt><trkpt lat="43.2823748" lon="10.7813633"><ele>393.8333333333333</ele><time>2026-04-18T09:07:00.42Z</time></trkpt><trkpt lat="43.2823886" lon="10.7812678"><ele>394.66666666666663</ele><time>2026-04-18T09:07:01.412Z</time></trkpt><trkpt lat="43.2824084" lon="10.7811805"><ele>395.5</ele><time>2026-04-18T09:07:02.402Z</time></trkpt><trkpt lat="43.2824587" lon="10.7810148"><ele>396.3333333333333</ele><time>2026-04-18T09:07:04.309Z</time></trkpt><trkpt lat="43.2825" lon="10.7809326"><ele>397.16666666666663</ele><time>2026-04-18T09:07:05.397Z</time></trkpt><trkpt lat="43.2825542" lon="10.7808551"><ele>398.0</ele><time>2026-04-18T09:07:06.417Z</time></trkpt><trkpt lat="43.2826224" lon="10.7808145"><ele>396.3333333333333</ele><time>2026-04-18T09:07:07.399Z</time></trkpt><trkpt lat="43.2826915" lon="10.7807839"><ele>394.66666666666663</ele><time>2026-04-18T09:07:08.4Z</time></trkpt><trkpt lat="43.2827618" lon="10.7807524"><ele>393.0</ele><time>2026-04-18T09:07:09.407Z</time></trkpt><trkpt lat="43.2828389" lon="10.7807367"><ele>391.33333333333337</ele><time>2026-04-18T09:07:10.419Z</time></trkpt><trkpt lat="43.2829063" lon="10.7807381"><ele>389.6666666666667</ele><time>2026-04-18T09:07:11.419Z</time></trkpt><trkpt lat="43.2829888" lon="10.7807283"><ele>388.0</ele><time>2026-04-18T09:07:12.421Z</time></trkpt><trkpt lat="43.2830753" lon="10.7807189"><ele>386.00000000000006</ele><time>2026-04-18T09:07:13.419Z</time></trkpt><trkpt lat="43.283161" lon="10.7807245"><ele>384.0</ele><time>2026-04-18T09:07:14.396Z</time></trkpt><trkpt lat="43.2832543" lon="10.7807304"><ele>382.0</ele><time>2026-04-18T09:07:15.396Z</time></trkpt><trkpt lat="43.2833403" lon="10.7807218"><ele>380.0</ele><time>2026-04-18T09:07:16.415Z</time></trkpt><trkpt lat="43.2834257" lon="10.7807117"><ele>378.0</ele><time>2026-04-18T09:07:17.407Z</time></trkpt><trkpt lat="43.2835069" lon="10.7807019"><ele>376.0</ele><time>2026-04-18T09:07:18.389Z</time></trkpt><trkpt lat="43.2835874" lon="10.7806982"><ele>376.0</ele><time>2026-04-18T09:07:19.424Z</time></trkpt><trkpt lat="43.2837354" lon="10.7807237"><ele>376.0</ele><time>2026-04-18T09:07:21.295Z</time></trkpt><trkpt lat="43.2838057" lon="10.780734"><ele>376.0</ele><time>2026-04-18T09:07:22.291Z</time></trkpt><trkpt lat="43.2838782" lon="10.7807422"><ele>376.0</ele><time>2026-04-18T09:07:23.302Z</time></trkpt><trkpt lat="43.2839479" lon="10.7807455"><ele>376.0</ele><time>2026-04-18T09:07:24.289Z</time></trkpt><trkpt lat="43.284031" lon="10.7807446"><ele>376.0</ele><time>2026-04-18T09:07:25.379Z</time></trkpt><trkpt lat="43.2840968" lon="10.7807067"><ele>374.5</ele><time>2026-04-18T09:07:26.387Z</time></trkpt><trkpt lat="43.2841648" lon="10.7806498"><ele>373.0</ele><time>2026-04-18T09:07:27.3Z</time></trkpt><trkpt lat="43.2842351" lon="10.7806047"><ele>371.5</ele><time>2026-04-18T09:07:28.413Z</time></trkpt><trkpt lat="43.2842983" lon="10.7805218"><ele>370.0</ele><time>2026-04-18T09:07:29.389Z</time></trkpt><trkpt lat="43.284367" lon="10.7804552"><ele>368.5</ele><time>2026-04-18T09:07:30.42Z</time></trkpt><trkpt lat="43.2844449" lon="10.7803982"><ele>367.0</ele><time>2026-04-18T09:07:31.402Z</time></trkpt><trkpt lat="43.2845166" lon="10.7803747"><ele>367.0</ele><time>2026-04-18T09:07:32.412Z</time></trkpt><trkpt lat="43.2846081" lon="10.7804119"><ele>367.0</ele><time>2026-04-18T09:07:33.429Z</time></trkpt><trkpt lat="43.2846924" lon="10.780474"><ele>367.0</ele><time>2026-04-18T09:07:34.42Z</time></trkpt><trkpt lat="43.2847607" lon="10.7805443"><ele>367.0</ele><time>2026-04-18T09:07:35.408Z</time></trkpt><trkpt lat="43.2848046" lon="10.7806306"><ele>367.0</ele><time>2026-04-18T09:07:36.408Z</time></trkpt><trkpt lat="43.2848456" lon="10.7807256"><ele>367.0</ele><time>2026-04-18T09:07:37.424Z</time></trkpt><trkpt lat="43.2848816" lon="10.7808202"><ele>367.20000000000005</ele><time>2026-04-18T09:07:38.411Z</time></trkpt><trkpt lat="43.2849158" lon="10.7809284"><ele>367.4</ele><time>2026-04-18T09:07:39.422Z</time></trkpt><trkpt lat="43.284969" lon="10.7811041"><ele>367.6</ele><time>2026-04-18T09:07:41.299Z</time></trkpt><trkpt lat="43.2850031" lon="10.781193"><ele>367.79999999999995</ele><time>2026-04-18T09:07:42.3Z</time></trkpt><trkpt lat="43.2850185" lon="10.7812777"><ele>368.0</ele><time>2026-04-18T09:07:43.304Z</time></trkpt><trkpt lat="43.2850752" lon="10.7814032"><ele>368.0</ele><time>2026-04-18T09:07:45.294Z</time></trkpt><trkpt lat="43.2851669" lon="10.7814102"><ele>368.0</ele><time>2026-04-18T09:07:47.416Z</time></trkpt><trkpt lat="43.2852744" lon="10.7813304"><ele>368.0</ele><time>2026-04-18T09:07:49.418Z</time></trkpt><trkpt lat="43.2854019" lon="10.7811881"><ele>368.0</ele><time>2026-04-18T09:07:51.296Z</time></trkpt><trkpt lat="43.2854669" lon="10.7811243"><ele>368.0</ele><time>2026-04-18T09:07:52.304Z</time></trkpt><trkpt lat="43.2855329" lon="10.7810549"><ele>368.0</ele><time>2026-04-18T09:07:53.399Z</time></trkpt><trkpt lat="43.2855953" lon="10.7809771"><ele>368.0</ele><time>2026-04-18T09:07:54.42Z</time></trkpt><trkpt lat="43.2857234" lon="10.7808313"><ele>368.0</ele><time>2026-04-18T09:07:56.299Z</time></trkpt><trkpt lat="43.2858032" lon="10.7807548"><ele>368.0</ele><time>2026-04-18T09:07:57.302Z</time></trkpt><trkpt lat="43.2858955" lon="10.780692"><ele>365.59999999999997</ele><time>2026-04-18T09:07:58.303Z</time></trkpt><trkpt lat="43.2859796" lon="10.7806383"><ele>363.2</ele><time>2026-04-18T09:07:59.3Z</time></trkpt><trkpt lat="43.2860618" lon="10.7805838"><ele>360.8</ele><time>2026-04-18T09:08:00.299Z</time></trkpt><trkpt lat="43.2861445" lon="10.7805317"><ele>358.4</ele><time>2026-04-18T09:08:01.298Z</time></trkpt><trkpt lat="43.2862253" lon="10.7804733"><ele>356.0</ele><time>2026-04-18T09:08:02.41Z</time></trkpt><trkpt lat="43.2863056" lon="10.780409"><ele>356.0</ele><time>2026-04-18T09:08:03.414Z</time></trkpt><trkpt lat="43.2863823" lon="10.7803367"><ele>356.0</ele><time>2026-04-18T09:08:04.398Z</time></trkpt><trkpt lat="43.2864478" lon="10.7802485"><ele>356.0</ele><time>2026-04-18T09:08:05.397Z</time></trkpt><trkpt lat="43.2865068" lon="10.7801486"><ele>356.0</ele><time>2026-04-18T09:08:06.418Z</time></trkpt><trkpt lat="43.2865576" lon="10.7800367"><ele>356.0</ele><time>2026-04-18T09:08:07.414Z</time></trkpt><trkpt lat="43.2866085" lon="10.7799315"><ele>352.6</ele><time>2026-04-18T09:08:08.415Z</time></trkpt><trkpt lat="43.2866597" lon="10.7798137"><ele>349.20000000000005</ele><time>2026-04-18T09:08:09.41Z</time></trkpt><trkpt lat="43.28671" lon="10.7796897"><ele>345.79999999999995</ele><time>2026-04-18T09:08:10.382Z</time></trkpt><trkpt lat="43.2867582" lon="10.7795633"><ele>342.4</ele><time>2026-04-18T09:08:11.398Z</time></trkpt><trkpt lat="43.2868073" lon="10.7794426"><ele>339.0</ele><time>2026-04-18T09:08:12.391Z</time></trkpt><trkpt lat="43.2868573" lon="10.7793311"><ele>337.0</ele><time>2026-04-18T09:08:13.385Z</time></trkpt><trkpt lat="43.2869045" lon="10.7792226"><ele>335.0</ele><time>2026-04-18T09:08:14.416Z</time></trkpt><trkpt lat="43.286953" lon="10.779114"><ele>333.0</ele><time>2026-04-18T09:08:15.398Z</time></trkpt><trkpt lat="43.2869999" lon="10.7790075"><ele>331.0</ele><time>2026-04-18T09:08:16.387Z</time></trkpt><trkpt lat="43.2870463" lon="10.7788995"><ele>329.0</ele><time>2026-04-18T09:08:17.392Z</time></trkpt><trkpt lat="43.2870833" lon="10.7787967"><ele>329.0</ele><time>2026-04-18T09:08:18.304Z</time></trkpt><trkpt lat="43.2871209" lon="10.7786878"><ele>329.0</ele><time>2026-04-18T09:08:19.394Z</time></trkpt><trkpt lat="43.2871404" lon="10.7785788"><ele>329.0</ele><time>2026-04-18T09:08:20.305Z</time></trkpt><trkpt lat="43.2871623" lon="10.7784644"><ele>329.0</ele><time>2026-04-18T09:08:21.296Z</time></trkpt><trkpt lat="43.2871844" lon="10.7783496"><ele>329.0</ele><time>2026-04-18T09:08:22.403Z</time></trkpt><trkpt lat="43.2872067" lon="10.7782442"><ele>329.0</ele><time>2026-04-18T09:08:23.423Z</time></trkpt><trkpt lat="43.2872157" lon="10.7781347"><ele>327.1666666666667</ele><time>2026-04-18T09:08:24.417Z</time></trkpt><trkpt lat="43.287225" lon="10.778021"><ele>325.33333333333337</ele><time>2026-04-18T09:08:25.4Z</time></trkpt><trkpt lat="43.2872395" lon="10.77791"><ele>323.5</ele><time>2026-04-18T09:08:26.392Z</time></trkpt><trkpt lat="43.2872544" lon="10.7778071"><ele>321.6666666666667</ele><time>2026-04-18T09:08:27.302Z</time></trkpt><trkpt lat="43.2872693" lon="10.7777103"><ele>319.8333333333333</ele><time>2026-04-18T09:08:28.409Z</time></trkpt><trkpt lat="43.2873224" lon="10.7775682"><ele>318.0</ele><time>2026-04-18T09:08:30.402Z</time></trkpt><trkpt lat="43.2873781" lon="10.7774964"><ele>316.3333333333333</ele><time>2026-04-18T09:08:31.395Z</time></trkpt><trkpt lat="43.2874371" lon="10.777454"><ele>314.6666666666667</ele><time>2026-04-18T09:08:32.412Z</time></trkpt><trkpt lat="43.2875237" lon="10.7774378"><ele>313.0</ele><time>2026-04-18T09:08:33.423Z</time></trkpt><trkpt lat="43.2875974" lon="10.777443"><ele>311.33333333333337</ele><time>2026-04-18T09:08:34.418Z</time></trkpt><trkpt lat="43.2876757" lon="10.7774565"><ele>309.6666666666667</ele><time>2026-04-18T09:08:35.416Z</time></trkpt><trkpt lat="43.2877279" lon="10.777505"><ele>308.0</ele><time>2026-04-18T09:08:36.386Z</time></trkpt><trkpt lat="43.2878145" lon="10.7775819"><ele>308.0</ele><time>2026-04-18T09:08:37.412Z</time></trkpt><trkpt lat="43.2878792" lon="10.7776755"><ele>308.0</ele><time>2026-04-18T09:08:38.395Z</time></trkpt><trkpt lat="43.2879337" lon="10.7777379"><ele>308.0</ele><time>2026-04-18T09:08:39.394Z</time></trkpt><trkpt lat="43.2879939" lon="10.7777975"><ele>308.0</ele><time>2026-04-18T09:08:40.421Z</time></trkpt><trkpt lat="43.2881029" lon="10.7778544"><ele>308.0</ele><time>2026-04-18T09:08:42.425Z</time></trkpt><trkpt lat="43.2882193" lon="10.7778865"><ele>307.4</ele><time>2026-04-18T09:08:44.389Z</time></trkpt><trkpt lat="43.2883127" lon="10.777916"><ele>306.8</ele><time>2026-04-18T09:08:46.415Z</time></trkpt><trkpt lat="43.2883833" lon="10.7779504"><ele>306.2</ele><time>2026-04-18T09:08:47.403Z</time></trkpt><trkpt lat="43.2884843" lon="10.77801"><ele>305.6</ele><time>2026-04-18T09:08:48.435Z</time></trkpt><trkpt lat="43.2885837" lon="10.778053"><ele>305.0</ele><time>2026-04-18T09:08:49.415Z</time></trkpt><trkpt lat="43.288833" lon="10.7781762"><ele>302.4</ele><time>2026-04-18T09:08:51.301Z</time></trkpt><trkpt lat="43.2889473" lon="10.7782384"><ele>299.8</ele><time>2026-04-18T09:08:52.396Z</time></trkpt><trkpt lat="43.2890534" lon="10.7782965"><ele>297.2</ele><time>2026-04-18T09:08:53.398Z</time></trkpt><trkpt lat="43.2891491" lon="10.7783489"><ele>294.6</ele><time>2026-04-18T09:08:54.423Z</time></trkpt><trkpt lat="43.2892407" lon="10.7783996"><ele>292.0</ele><time>2026-04-18T09:08:55.418Z</time></trkpt><trkpt lat="43.2893049" lon="10.7784735"><ele>295.3333333333333</ele><time>2026-04-18T09:08:56.386Z</time></trkpt><trkpt lat="43.28937" lon="10.7785592"><ele>298.66666666666663</ele><time>2026-04-18T09:08:57.421Z</time></trkpt><trkpt lat="43.2894348" lon="10.7786451"><ele>302.0</ele><time>2026-04-18T09:08:58.402Z</time></trkpt><trkpt lat="43.2895" lon="10.7787162"><ele>305.3333333333333</ele><time>2026-04-18T09:08:59.361Z</time></trkpt><trkpt lat="43.2895807" lon="10.7787689"><ele>308.6666666666667</ele><time>2026-04-18T09:09:00.299Z</time></trkpt><trkpt lat="43.2896422" lon="10.7787986"><ele>312.0</ele><time>2026-04-18T09:09:01.397Z</time></trkpt><trkpt lat="43.2897459" lon="10.7787866"><ele>311.0</ele><time>2026-04-18T09:09:02.413Z</time></trkpt><trkpt lat="43.2898472" lon="10.7787967"><ele>310.0</ele><time>2026-04-18T09:09:03.409Z</time></trkpt><trkpt lat="43.2899525" lon="10.7788042"><ele>309.0</ele><time>2026-04-18T09:09:04.409Z</time></trkpt><trkpt lat="43.2900491" lon="10.7788053"><ele>308.0</ele><time>2026-04-18T09:09:05.418Z</time></trkpt><trkpt lat="43.2902301" lon="10.7789206"><ele>308.0</ele><time>2026-04-18T09:09:07.421Z</time></trkpt><trkpt lat="43.290306" lon="10.7789851"><ele>308.0</ele><time>2026-04-18T09:09:08.416Z</time></trkpt><trkpt lat="43.2903756" lon="10.7790907"><ele>308.0</ele><time>2026-04-18T09:09:09.419Z</time></trkpt><trkpt lat="43.2904441" lon="10.7792456"><ele>308.0</ele><time>2026-04-18T09:09:10.419Z</time></trkpt><trkpt lat="43.2905395" lon="10.7793836"><ele>307.75</ele><time>2026-04-18T09:09:11.409Z</time></trkpt><trkpt lat="43.2906164" lon="10.7794827"><ele>307.5</ele><time>2026-04-18T09:09:12.412Z</time></trkpt><trkpt lat="43.2907187" lon="10.7795962"><ele>307.25</ele><time>2026-04-18T09:09:13.414Z</time></trkpt><trkpt lat="43.2908231" lon="10.7797022"><ele>307.0</ele><time>2026-04-18T09:09:14.397Z</time></trkpt><trkpt lat="43.2909025" lon="10.7798073"><ele>307.0</ele><time>2026-04-18T09:09:15.401Z</time></trkpt><trkpt lat="43.2909821" lon="10.7798986"><ele>307.0</ele><time>2026-04-18T09:09:16.394Z</time></trkpt><trkpt lat="43.2910651" lon="10.7799786"><ele>307.0</ele><time>2026-04-18T09:09:17.415Z</time></trkpt><trkpt lat="43.2911424" lon="10.7800567"><ele>307.0</ele><time>2026-04-18T09:09:18.393Z</time></trkpt><trkpt lat="43.2912216" lon="10.7801277"><ele>307.0</ele><time>2026-04-18T09:09:19.414Z</time></trkpt><trkpt lat="43.2912918" lon="10.7801822"><ele>304.4</ele><time>2026-04-18T09:09:20.299Z</time></trkpt><trkpt lat="43.2913506" lon="10.7802407"><ele>301.79999999999995</ele><time>2026-04-18T09:09:21.297Z</time></trkpt><trkpt lat="43.2914529" lon="10.7803023"><ele>299.2</ele><time>2026-04-18T09:09:23.427Z</time></trkpt><trkpt lat="43.291519" lon="10.7803074"><ele>296.59999999999997</ele><time>2026-04-18T09:09:24.396Z</time></trkpt><trkpt lat="43.291593" lon="10.7802839"><ele>294.0</ele><time>2026-04-18T09:09:25.406Z</time></trkpt><trkpt lat="43.2917166" lon="10.7802628"><ele>294.0</ele><time>2026-04-18T09:09:27.411Z</time></trkpt><trkpt lat="43.2918134" lon="10.7803223"><ele>294.0</ele><time>2026-04-18T09:09:29.293Z</time></trkpt><trkpt lat="43.2918604" lon="10.780407"><ele>294.0</ele><time>2026-04-18T09:09:30.412Z</time></trkpt><trkpt lat="43.2919027" lon="10.7805176"><ele>294.0</ele><time>2026-04-18T09:09:31.406Z</time></trkpt><trkpt lat="43.2919365" lon="10.7806394"><ele>294.0</ele><time>2026-04-18T09:09:32.429Z</time></trkpt><trkpt lat="43.2919634" lon="10.7807662"><ele>294.0</ele><time>2026-04-18T09:09:33.417Z</time></trkpt><trkpt lat="43.2919806" lon="10.7809126"><ele>294.0</ele><time>2026-04-18T09:09:34.402Z</time></trkpt><trkpt lat="43.2919904" lon="10.7810697"><ele>294.0</ele><time>2026-04-18T09:09:35.423Z</time></trkpt><trkpt lat="43.2920019" lon="10.7812123"><ele>294.0</ele><time>2026-04-18T09:09:36.42Z</time></trkpt><trkpt lat="43.2920055" lon="10.7813504"><ele>294.0</ele><time>2026-04-18T09:09:37.425Z</time></trkpt><trkpt lat="43.2920447" lon="10.7814615"><ele>294.8</ele><time>2026-04-18T09:09:38.405Z</time></trkpt><trkpt lat="43.2920708" lon="10.7816115"><ele>295.59999999999997</ele><time>2026-04-18T09:09:39.414Z</time></trkpt><trkpt lat="43.292126" lon="10.7817362"><ele>296.4</ele><time>2026-04-18T09:09:40.429Z</time></trkpt><trkpt lat="43.2921715" lon="10.7818671"><ele>297.2</ele><time>2026-04-18T09:09:41.398Z</time></trkpt><trkpt lat="43.2921992" lon="10.7819898"><ele>298.0</ele><time>2026-04-18T09:09:42.35Z</time></trkpt><trkpt lat="43.2922227" lon="10.7821134"><ele>298.6</ele><time>2026-04-18T09:09:43.297Z</time></trkpt><trkpt lat="43.2922035" lon="10.7822426"><ele>299.20000000000005</ele><time>2026-04-18T09:09:44.303Z</time></trkpt><trkpt lat="43.2921691" lon="10.7823662"><ele>299.8</ele><time>2026-04-18T09:09:45.298Z</time></trkpt><trkpt lat="43.292127" lon="10.7825069"><ele>300.40000000000003</ele><time>2026-04-18T09:09:46.3Z</time></trkpt><trkpt lat="43.2920844" lon="10.7826575"><ele>301.0</ele><time>2026-04-18T09:09:47.337Z</time></trkpt><trkpt lat="43.2920328" lon="10.7828086"><ele>300.8</ele><time>2026-04-18T09:09:48.414Z</time></trkpt><trkpt lat="43.291981" lon="10.7829331"><ele>300.6</ele><time>2026-04-18T09:09:49.425Z</time></trkpt><trkpt lat="43.2919376" lon="10.7831554"><ele>300.4</ele><time>2026-04-18T09:09:51.306Z</time></trkpt><trkpt lat="43.2919425" lon="10.7832707"><ele>300.2</ele><time>2026-04-18T09:09:52.395Z</time></trkpt><trkpt lat="43.2919585" lon="10.7833905"><ele>300.0</ele><time>2026-04-18T09:09:53.394Z</time></trkpt><trkpt lat="43.2919804" lon="10.7835243"><ele>300.0</ele><time>2026-04-18T09:09:54.419Z</time></trkpt><trkpt lat="43.2920001" lon="10.783649"><ele>300.0</ele><time>2026-04-18T09:09:55.392Z</time></trkpt><trkpt lat="43.2920162" lon="10.7837663"><ele>300.0</ele><time>2026-04-18T09:09:56.419Z</time></trkpt><trkpt lat="43.2920191" lon="10.7838738"><ele>300.0</ele><time>2026-04-18T09:09:57.421Z</time></trkpt><trkpt lat="43.2920238" lon="10.7839814"><ele>300.0</ele><time>2026-04-18T09:09:58.414Z</time></trkpt><trkpt lat="43.292052" lon="10.7841033"><ele>300.0</ele><time>2026-04-18T09:09:59.412Z</time></trkpt><trkpt lat="43.292026" lon="10.7842174"><ele>300.0</ele><time>2026-04-18T09:10:00.408Z</time></trkpt><trkpt lat="43.2919913" lon="10.7843171"><ele>300.0</ele><time>2026-04-18T09:10:01.425Z</time></trkpt><trkpt lat="43.2919868" lon="10.7844118"><ele>300.0</ele><time>2026-04-18T09:10:02.418Z</time></trkpt><trkpt lat="43.2919761" lon="10.7845115"><ele>300.0</ele><time>2026-04-18T09:10:03.397Z</time></trkpt><trkpt lat="43.2920741" lon="10.7846217"><ele>300.0</ele><time>2026-04-18T09:10:05.303Z</time></trkpt><trkpt lat="43.2921457" lon="10.7846688"><ele>300.0</ele><time>2026-04-18T09:10:06.379Z</time></trkpt><trkpt lat="43.2922342" lon="10.7847192"><ele>296.2</ele><time>2026-04-18T09:10:07.379Z</time></trkpt><trkpt lat="43.2923253" lon="10.7847645"><ele>292.4</ele><time>2026-04-18T09:10:08.395Z</time></trkpt><trkpt lat="43.2924283" lon="10.7847957"><ele>288.6</ele><time>2026-04-18T09:10:09.298Z</time></trkpt><trkpt lat="43.2925268" lon="10.7848214"><ele>284.8</ele><time>2026-04-18T09:10:10.422Z</time></trkpt><trkpt lat="43.2926136" lon="10.7848371"><ele>281.0</ele><time>2026-04-18T09:10:11.411Z</time></trkpt><trkpt lat="43.2927632" lon="10.7848769"><ele>281.0</ele><time>2026-04-18T09:10:13.407Z</time></trkpt><trkpt lat="43.2928376" lon="10.7849064"><ele>281.0</ele><time>2026-04-18T09:10:14.389Z</time></trkpt><trkpt lat="43.2929043" lon="10.7849461"><ele>281.0</ele><time>2026-04-18T09:10:15.386Z</time></trkpt><trkpt lat="43.292973" lon="10.7849869"><ele>281.0</ele><time>2026-04-18T09:10:16.398Z</time></trkpt><trkpt lat="43.2930241" lon="10.7850506"><ele>281.0</ele><time>2026-04-18T09:10:17.413Z</time></trkpt><trkpt lat="43.293048" lon="10.785134"><ele>281.0</ele><time>2026-04-18T09:10:18.402Z</time></trkpt><trkpt lat="43.2930563" lon="10.7853724"><ele>280.0</ele><time>2026-04-18T09:10:20.302Z</time></trkpt><trkpt lat="43.2930672" lon="10.7855141"><ele>279.0</ele><time>2026-04-18T09:10:21.305Z</time></trkpt><trkpt lat="43.2930764" lon="10.785646"><ele>278.0</ele><time>2026-04-18T09:10:22.302Z</time></trkpt><trkpt lat="43.2930816" lon="10.7857729"><ele>277.0</ele><time>2026-04-18T09:10:23.3Z</time></trkpt><trkpt lat="43.2930928" lon="10.7858858"><ele>276.0</ele><time>2026-04-18T09:10:24.302Z</time></trkpt><trkpt lat="43.2931134" lon="10.7859903"><ele>272.8333333333333</ele><time>2026-04-18T09:10:25.296Z</time></trkpt><trkpt lat="43.2931364" lon="10.7860869"><ele>269.6666666666667</ele><time>2026-04-18T09:10:26.302Z</time></trkpt><trkpt lat="43.2931717" lon="10.7861835"><ele>266.5</ele><time>2026-04-18T09:10:27.405Z</time></trkpt><trkpt lat="43.2932155" lon="10.78627"><ele>263.33333333333337</ele><time>2026-04-18T09:10:28.425Z</time></trkpt><trkpt lat="43.2932672" lon="10.7863476"><ele>260.1666666666667</ele><time>2026-04-18T09:10:29.42Z</time></trkpt><trkpt lat="43.2933196" lon="10.7864308"><ele>257.0</ele><time>2026-04-18T09:10:30.418Z</time></trkpt><trkpt lat="43.29338" lon="10.7865151"><ele>257.0</ele><time>2026-04-18T09:10:31.385Z</time></trkpt><trkpt lat="43.2934479" lon="10.7866016"><ele>257.0</ele><time>2026-04-18T09:10:32.302Z</time></trkpt><trkpt lat="43.2935284" lon="10.786692"><ele>257.0</ele><time>2026-04-18T09:10:33.423Z</time></trkpt><trkpt lat="43.2936104" lon="10.7867762"><ele>257.0</ele><time>2026-04-18T09:10:34.395Z</time></trkpt><trkpt lat="43.2936938" lon="10.7868558"><ele>257.0</ele><time>2026-04-18T09:10:35.404Z</time></trkpt><trkpt lat="43.2937738" lon="10.7869213"><ele>256.0</ele><time>2026-04-18T09:10:36.425Z</time></trkpt><trkpt lat="43.2938489" lon="10.786984"><ele>255.0</ele><time>2026-04-18T09:10:37.417Z</time></trkpt><trkpt lat="43.2939714" lon="10.7871034"><ele>254.0</ele><time>2026-04-18T09:10:39.299Z</time></trkpt><trkpt lat="43.2940552" lon="10.7872074"><ele>253.0</ele><time>2026-04-18T09:10:41.425Z</time></trkpt><trkpt lat="43.2940529" lon="10.7873276"><ele>252.0</ele><time>2026-04-18T09:10:43.396Z</time></trkpt><trkpt lat="43.2939638" lon="10.787457"><ele>252.0</ele><time>2026-04-18T09:10:45.396Z</time></trkpt><trkpt lat="43.2938941" lon="10.7875332"><ele>252.0</ele><time>2026-04-18T09:10:46.393Z</time></trkpt><trkpt lat="43.2938202" lon="10.7876227"><ele>252.0</ele><time>2026-04-18T09:10:47.297Z</time></trkpt><trkpt lat="43.293742" lon="10.7877218"><ele>252.0</ele><time>2026-04-18T09:10:48.3Z</time></trkpt><trkpt lat="43.2936579" lon="10.7878277"><ele>252.0</ele><time>2026-04-18T09:10:49.395Z</time></trkpt><trkpt lat="43.2935846" lon="10.7879362"><ele>251.39999999999998</ele><time>2026-04-18T09:10:50.298Z</time></trkpt><trkpt lat="43.2935219" lon="10.788047"><ele>250.79999999999998</ele><time>2026-04-18T09:10:51.296Z</time></trkpt><trkpt lat="43.2934704" lon="10.78816"><ele>250.2</ele><time>2026-04-18T09:10:52.406Z</time></trkpt><trkpt lat="43.2934223" lon="10.7882882"><ele>249.6</ele><time>2026-04-18T09:10:53.418Z</time></trkpt><trkpt lat="43.2933728" lon="10.788419"><ele>249.0</ele><time>2026-04-18T09:10:54.402Z</time></trkpt><trkpt lat="43.2933207" lon="10.7885471"><ele>248.25</ele><time>2026-04-18T09:10:55.389Z</time></trkpt><trkpt lat="43.2932702" lon="10.7886768"><ele>247.5</ele><time>2026-04-18T09:10:56.394Z</time></trkpt><trkpt lat="43.2932183" lon="10.7888127"><ele>246.75</ele><time>2026-04-18T09:10:57.417Z</time></trkpt><trkpt lat="43.2931696" lon="10.7889546"><ele>246.0</ele><time>2026-04-18T09:10:58.393Z</time></trkpt><trkpt lat="43.2931205" lon="10.7891073"><ele>249.4</ele><time>2026-04-18T09:10:59.418Z</time></trkpt><trkpt lat="43.2930779" lon="10.7892681"><ele>252.8</ele><time>2026-04-18T09:11:00.426Z</time></trkpt><trkpt lat="43.2930406" lon="10.7894138"><ele>256.20000000000005</ele><time>2026-04-18T09:11:01.39Z</time></trkpt><trkpt lat="43.2930072" lon="10.7895493"><ele>259.6</ele><time>2026-04-18T09:11:02.298Z</time></trkpt><trkpt lat="43.2929691" lon="10.7896679"><ele>263.0</ele><time>2026-04-18T09:11:03.396Z</time></trkpt><trkpt lat="43.2929145" lon="10.7897728"><ele>263.0</ele><time>2026-04-18T09:11:04.392Z</time></trkpt><trkpt lat="43.2928448" lon="10.7898634"><ele>263.0</ele><time>2026-04-18T09:11:05.418Z</time></trkpt><trkpt lat="43.2926821" lon="10.7900288"><ele>263.0</ele><time>2026-04-18T09:11:07.391Z</time></trkpt><trkpt lat="43.2926049" lon="10.7901209"><ele>263.0</ele><time>2026-04-18T09:11:08.399Z</time></trkpt><trkpt lat="43.2925288" lon="10.7902194"><ele>261.6</ele><time>2026-04-18T09:11:09.405Z</time></trkpt><trkpt lat="43.2924498" lon="10.7903193"><ele>260.20000000000005</ele><time>2026-04-18T09:11:10.401Z</time></trkpt><trkpt lat="43.2923757" lon="10.7904193"><ele>258.8</ele><time>2026-04-18T09:11:11.414Z</time></trkpt><trkpt lat="43.2923151" lon="10.790514"><ele>257.40000000000003</ele><time>2026-04-18T09:11:12.407Z</time></trkpt><trkpt lat="43.2922568" lon="10.7906132"><ele>256.0</ele><time>2026-04-18T09:11:13.393Z</time></trkpt><trkpt lat="43.2922019" lon="10.7907119"><ele>255.33333333333331</ele><time>2026-04-18T09:11:14.396Z</time></trkpt><trkpt lat="43.2922318" lon="10.7908201"><ele>254.66666666666666</ele><time>2026-04-18T09:11:15.417Z</time></trkpt><trkpt lat="43.2922319" lon="10.7909342"><ele>254.0</ele><time>2026-04-18T09:11:16.419Z</time></trkpt><trkpt lat="43.2922454" lon="10.791065"><ele>253.33333333333331</ele><time>2026-04-18T09:11:17.41Z</time></trkpt><trkpt lat="43.292268" lon="10.7911828"><ele>252.66666666666666</ele><time>2026-04-18T09:11:18.354Z</time></trkpt><trkpt lat="43.2922891" lon="10.7913008"><ele>252.0</ele><time>2026-04-18T09:11:19.403Z</time></trkpt><trkpt lat="43.2923071" lon="10.7914154"><ele>252.0</ele><time>2026-04-18T09:11:20.303Z</time></trkpt><trkpt lat="43.2923143" lon="10.7915371"><ele>252.0</ele><time>2026-04-18T09:11:21.303Z</time></trkpt><trkpt lat="43.2923025" lon="10.7916638"><ele>252.0</ele><time>2026-04-18T09:11:22.296Z</time></trkpt><trkpt lat="43.2922717" lon="10.7917871"><ele>252.0</ele><time>2026-04-18T09:11:23.311Z</time></trkpt><trkpt lat="43.2922306" lon="10.7919095"><ele>252.0</ele><time>2026-04-18T09:11:24.301Z</time></trkpt><trkpt lat="43.2921758" lon="10.7920369"><ele>253.6</ele><time>2026-04-18T09:11:25.395Z</time></trkpt><trkpt lat="43.2921173" lon="10.7921678"><ele>255.2</ele><time>2026-04-18T09:11:26.401Z</time></trkpt><trkpt lat="43.2920713" lon="10.7923108"><ele>256.8</ele><time>2026-04-18T09:11:27.415Z</time></trkpt><trkpt lat="43.2920334" lon="10.7924511"><ele>258.4</ele><time>2026-04-18T09:11:28.409Z</time></trkpt><trkpt lat="43.2920087" lon="10.7925643"><ele>260.0</ele><time>2026-04-18T09:11:29.412Z</time></trkpt><trkpt lat="43.2919875" lon="10.792646"><ele>256.25</ele><time>2026-04-18T09:11:30.393Z</time></trkpt><trkpt lat="43.2919854" lon="10.7927525"><ele>252.5</ele><time>2026-04-18T09:11:32.407Z</time></trkpt><trkpt lat="43.2920527" lon="10.7928935"><ele>248.75</ele><time>2026-04-18T09:11:34.417Z</time></trkpt><trkpt lat="43.2921035" lon="10.792964"><ele>245.0</ele><time>2026-04-18T09:11:35.418Z</time></trkpt><trkpt lat="43.2922501" lon="10.7932047"><ele>245.5</ele><time>2026-04-18T09:11:37.308Z</time></trkpt><trkpt lat="43.2923335" lon="10.7933393"><ele>246.0</ele><time>2026-04-18T09:11:38.383Z</time></trkpt><trkpt lat="43.292413" lon="10.7934793"><ele>246.5</ele><time>2026-04-18T09:11:39.397Z</time></trkpt><trkpt lat="43.2924767" lon="10.7936132"><ele>247.0</ele><time>2026-04-18T09:11:40.416Z</time></trkpt><trkpt lat="43.2925376" lon="10.793733"><ele>246.0</ele><time>2026-04-18T09:11:41.396Z</time></trkpt><trkpt lat="43.292603" lon="10.7938224"><ele>245.0</ele><time>2026-04-18T09:11:42.409Z</time></trkpt><trkpt lat="43.2926748" lon="10.7938786"><ele>244.0</ele><time>2026-04-18T09:11:43.397Z</time></trkpt><trkpt lat="43.2927349" lon="10.7939342"><ele>243.0</ele><time>2026-04-18T09:11:44.419Z</time></trkpt><trkpt lat="43.2927507" lon="10.7940728"><ele>242.0</ele><time>2026-04-18T09:11:46.305Z</time></trkpt><trkpt lat="43.2926318" lon="10.7941427"><ele>242.0</ele><time>2026-04-18T09:11:48.305Z</time></trkpt><trkpt lat="43.2925338" lon="10.7941455"><ele>242.0</ele><time>2026-04-18T09:11:49.399Z</time></trkpt><trkpt lat="43.2924202" lon="10.7941313"><ele>242.0</ele><time>2026-04-18T09:11:50.408Z</time></trkpt><trkpt lat="43.2921686" lon="10.7940774"><ele>240.25</ele><time>2026-04-18T09:11:52.3Z</time></trkpt><trkpt lat="43.292047" lon="10.7940091"><ele>238.5</ele><time>2026-04-18T09:11:53.393Z</time></trkpt><trkpt lat="43.2919307" lon="10.7939319"><ele>236.75</ele><time>2026-04-18T09:11:54.41Z</time></trkpt><trkpt lat="43.2918175" lon="10.7938693"><ele>235.0</ele><time>2026-04-18T09:11:55.422Z</time></trkpt><trkpt lat="43.2917052" lon="10.793832"><ele>234.99999999999997</ele><time>2026-04-18T09:11:56.417Z</time></trkpt><trkpt lat="43.2916092" lon="10.7938092"><ele>235.0</ele><time>2026-04-18T09:11:57.416Z</time></trkpt><trkpt lat="43.2915324" lon="10.7937965"><ele>235.0</ele><time>2026-04-18T09:11:58.415Z</time></trkpt><trkpt lat="43.291448" lon="10.7938528"><ele>235.0</ele><time>2026-04-18T09:12:00.416Z</time></trkpt><trkpt lat="43.2914757" lon="10.793981"><ele>234.99999999999997</ele><time>2026-04-18T09:12:02.399Z</time></trkpt><trkpt lat="43.2915308" lon="10.7940342"><ele>235.0</ele><time>2026-04-18T09:12:03.428Z</time></trkpt><trkpt lat="43.2916822" lon="10.7941861"><ele>235.0</ele><time>2026-04-18T09:12:05.401Z</time></trkpt><trkpt lat="43.2917495" lon="10.7943112"><ele>235.0</ele><time>2026-04-18T09:12:06.411Z</time></trkpt><trkpt lat="43.2918088" lon="10.7944561"><ele>235.0</ele><time>2026-04-18T09:12:07.388Z</time></trkpt><trkpt lat="43.2918695" lon="10.794592"><ele>235.0</ele><time>2026-04-18T09:12:08.394Z</time></trkpt><trkpt lat="43.2919399" lon="10.7947084"><ele>232.5</ele><time>2026-04-18T09:12:09.383Z</time></trkpt><trkpt lat="43.2920298" lon="10.7948203"><ele>230.0</ele><time>2026-04-18T09:12:10.299Z</time></trkpt><trkpt lat="43.2921372" lon="10.7949166"><ele>227.5</ele><time>2026-04-18T09:12:11.382Z</time></trkpt><trkpt lat="43.2922545" lon="10.7950008"><ele>225.0</ele><time>2026-04-18T09:12:12.42Z</time></trkpt><trkpt lat="43.2923797" lon="10.7950849"><ele>221.25</ele><time>2026-04-18T09:12:13.418Z</time></trkpt><trkpt lat="43.2924977" lon="10.7951718"><ele>217.5</ele><time>2026-04-18T09:12:14.395Z</time></trkpt><trkpt lat="43.2926082" lon="10.7952671"><ele>213.75</ele><time>2026-04-18T09:12:15.395Z</time></trkpt><trkpt lat="43.2927015" lon="10.795381"><ele>210.0</ele><time>2026-04-18T09:12:16.416Z</time></trkpt><trkpt lat="43.2927817" lon="10.795515"><ele>210.0</ele><time>2026-04-18T09:12:17.413Z</time></trkpt><trkpt lat="43.2928566" lon="10.7956424"><ele>210.0</ele><time>2026-04-18T09:12:18.419Z</time></trkpt><trkpt lat="43.2929274" lon="10.7957592"><ele>210.0</ele><time>2026-04-18T09:12:19.399Z</time></trkpt><trkpt lat="43.2929969" lon="10.7958669"><ele>210.0</ele><time>2026-04-18T09:12:20.414Z</time></trkpt><trkpt lat="43.2931562" lon="10.7959963"><ele>210.5</ele><time>2026-04-18T09:12:22.402Z</time></trkpt><trkpt lat="43.2932519" lon="10.7960116"><ele>211.0</ele><time>2026-04-18T09:12:23.409Z</time></trkpt><trkpt lat="43.2934373" lon="10.7959531"><ele>211.5</ele><time>2026-04-18T09:12:25.42Z</time></trkpt><trkpt lat="43.2935243" lon="10.7958652"><ele>212.0</ele><time>2026-04-18T09:12:26.411Z</time></trkpt><trkpt lat="43.2936" lon="10.795795"><ele>212.0</ele><time>2026-04-18T09:12:27.409Z</time></trkpt><trkpt lat="43.2936856" lon="10.7957548"><ele>212.0</ele><time>2026-04-18T09:12:28.423Z</time></trkpt><trkpt lat="43.2937709" lon="10.7957641"><ele>212.0</ele><time>2026-04-18T09:12:29.421Z</time></trkpt><trkpt lat="43.2939172" lon="10.7959302"><ele>212.0</ele><time>2026-04-18T09:12:31.421Z</time></trkpt><trkpt lat="43.2940377" lon="10.7961914"><ele>209.6</ele><time>2026-04-18T09:12:33.299Z</time></trkpt><trkpt lat="43.2941074" lon="10.7963152"><ele>207.2</ele><time>2026-04-18T09:12:34.297Z</time></trkpt><trkpt lat="43.2941868" lon="10.7964196"><ele>204.8</ele><time>2026-04-18T09:12:35.393Z</time></trkpt><trkpt lat="43.2942763" lon="10.7965127"><ele>202.4</ele><time>2026-04-18T09:12:36.419Z</time></trkpt><trkpt lat="43.2943728" lon="10.7965859"><ele>200.0</ele><time>2026-04-18T09:12:37.394Z</time></trkpt><trkpt lat="43.29448" lon="10.7966316"><ele>200.0</ele><time>2026-04-18T09:12:38.416Z</time></trkpt><trkpt lat="43.2945992" lon="10.7966502"><ele>200.0</ele><time>2026-04-18T09:12:39.413Z</time></trkpt><trkpt lat="43.2947258" lon="10.7966489"><ele>200.0</ele><time>2026-04-18T09:12:40.419Z</time></trkpt><trkpt lat="43.2948519" lon="10.7966475"><ele>200.0</ele><time>2026-04-18T09:12:41.429Z</time></trkpt><trkpt lat="43.2949652" lon="10.7966814"><ele>198.6</ele><time>2026-04-18T09:12:42.418Z</time></trkpt><trkpt lat="43.295061" lon="10.7967118"><ele>197.2</ele><time>2026-04-18T09:12:43.43Z</time></trkpt><trkpt lat="43.2951617" lon="10.7967133"><ele>195.8</ele><time>2026-04-18T09:12:44.414Z</time></trkpt><trkpt lat="43.2952624" lon="10.7966717"><ele>194.4</ele><time>2026-04-18T09:12:45.423Z</time></trkpt><trkpt lat="43.2953568" lon="10.796589"><ele>193.0</ele><time>2026-04-18T09:12:46.397Z</time></trkpt><trkpt lat="43.2954394" lon="10.796477"><ele>193.0</ele><time>2026-04-18T09:12:47.407Z</time></trkpt><trkpt lat="43.2954966" lon="10.7963581"><ele>193.0</ele><time>2026-04-18T09:12:48.396Z</time></trkpt><trkpt lat="43.2955408" lon="10.7962369"><ele>193.0</ele><time>2026-04-18T09:12:49.409Z</time></trkpt><trkpt lat="43.2955711" lon="10.7961223"><ele>193.0</ele><time>2026-04-18T09:12:50.394Z</time></trkpt><trkpt lat="43.295631" lon="10.7960387"><ele>193.0</ele><time>2026-04-18T09:12:51.428Z</time></trkpt><trkpt lat="43.2957292" lon="10.7960217"><ele>190.33333333333331</ele><time>2026-04-18T09:12:52.42Z</time></trkpt><trkpt lat="43.2959559" lon="10.7960119"><ele>187.66666666666666</ele><time>2026-04-18T09:12:54.408Z</time></trkpt><trkpt lat="43.2960732" lon="10.7959672"><ele>185.0</ele><time>2026-04-18T09:12:55.408Z</time></trkpt><trkpt lat="43.2961935" lon="10.7959324"><ele>185.0</ele><time>2026-04-18T09:12:56.42Z</time></trkpt><trkpt lat="43.2963128" lon="10.7959034"><ele>185.0</ele><time>2026-04-18T09:12:57.412Z</time></trkpt><trkpt lat="43.2964201" lon="10.7958854"><ele>185.0</ele><time>2026-04-18T09:12:58.42Z</time></trkpt><trkpt lat="43.2965234" lon="10.7958667"><ele>185.0</ele><time>2026-04-18T09:12:59.42Z</time></trkpt><trkpt lat="43.2966201" lon="10.7958143"><ele>185.0</ele><time>2026-04-18T09:13:00.422Z</time></trkpt><trkpt lat="43.2967047" lon="10.795724"><ele>181.75</ele><time>2026-04-18T09:13:01.42Z</time></trkpt><trkpt lat="43.2967735" lon="10.7955955"><ele>178.5</ele><time>2026-04-18T09:13:02.412Z</time></trkpt><trkpt lat="43.2968785" lon="10.79535"><ele>175.25</ele><time>2026-04-18T09:13:04.299Z</time></trkpt><trkpt lat="43.2969537" lon="10.7952676"><ele>172.0</ele><time>2026-04-18T09:13:05.414Z</time></trkpt><trkpt lat="43.2970573" lon="10.795226"><ele>172.0</ele><time>2026-04-18T09:13:06.398Z</time></trkpt><trkpt lat="43.2971777" lon="10.7952155"><ele>172.0</ele><time>2026-04-18T09:13:07.402Z</time></trkpt><trkpt lat="43.2973049" lon="10.7952372"><ele>172.0</ele><time>2026-04-18T09:13:08.424Z</time></trkpt><trkpt lat="43.2974456" lon="10.7952572"><ele>172.0</ele><time>2026-04-18T09:13:09.408Z</time></trkpt><trkpt lat="43.2975958" lon="10.7952644"><ele>168.66666666666669</ele><time>2026-04-18T09:13:10.419Z</time></trkpt><trkpt lat="43.2977461" lon="10.7952599"><ele>165.33333333333334</ele><time>2026-04-18T09:13:11.426Z</time></trkpt><trkpt lat="43.2980097" lon="10.7952693"><ele>162.0</ele><time>2026-04-18T09:13:13.389Z</time></trkpt><trkpt lat="43.2981353" lon="10.7953295"><ele>162.0</ele><time>2026-04-18T09:13:14.394Z</time></trkpt><trkpt lat="43.2982415" lon="10.7954417"><ele>162.0</ele><time>2026-04-18T09:13:15.398Z</time></trkpt><trkpt lat="43.2983298" lon="10.7955879"><ele>162.0</ele><time>2026-04-18T09:13:16.418Z</time></trkpt><trkpt lat="43.2983977" lon="10.7957434"><ele>162.0</ele><time>2026-04-18T09:13:17.414Z</time></trkpt><trkpt lat="43.2984316" lon="10.7959015"><ele>160.79999999999998</ele><time>2026-04-18T09:13:18.392Z</time></trkpt><trkpt lat="43.2984394" lon="10.796056"><ele>159.6</ele><time>2026-04-18T09:13:19.293Z</time></trkpt><trkpt lat="43.2984272" lon="10.7962134"><ele>158.39999999999998</ele><time>2026-04-18T09:13:20.297Z</time></trkpt><trkpt lat="43.2984176" lon="10.7963657"><ele>157.2</ele><time>2026-04-18T09:13:21.298Z</time></trkpt><trkpt lat="43.2984113" lon="10.796512"><ele>156.0</ele><time>2026-04-18T09:13:22.299Z</time></trkpt><trkpt lat="43.2984096" lon="10.7966476"><ele>156.0</ele><time>2026-04-18T09:13:23.303Z</time></trkpt><trkpt lat="43.2984153" lon="10.796774"><ele>156.0</ele><time>2026-04-18T09:13:24.298Z</time></trkpt><trkpt lat="43.2984327" lon="10.7968972"><ele>156.0</ele><time>2026-04-18T09:13:25.302Z</time></trkpt><trkpt lat="43.2984721" lon="10.797017"><ele>156.0</ele><time>2026-04-18T09:13:26.412Z</time></trkpt><trkpt lat="43.2985328" lon="10.7971366"><ele>156.0</ele><time>2026-04-18T09:13:27.404Z</time></trkpt><trkpt lat="43.298687" lon="10.7973845"><ele>153.5</ele><time>2026-04-18T09:13:29.404Z</time></trkpt><trkpt lat="43.2987667" lon="10.7975103"><ele>151.0</ele><time>2026-04-18T09:13:30.407Z</time></trkpt><trkpt lat="43.2988288" lon="10.7976399"><ele>148.5</ele><time>2026-04-18T09:13:31.396Z</time></trkpt><trkpt lat="43.2988685" lon="10.7977913"><ele>146.0</ele><time>2026-04-18T09:13:32.391Z</time></trkpt><trkpt lat="43.2988988" lon="10.7979556"><ele>146.0</ele><time>2026-04-18T09:13:33.304Z</time></trkpt><trkpt lat="43.2989293" lon="10.7981124"><ele>146.0</ele><time>2026-04-18T09:13:34.298Z</time></trkpt><trkpt lat="43.2989859" lon="10.7982701"><ele>146.0</ele><time>2026-04-18T09:13:35.42Z</time></trkpt><trkpt lat="43.2990635" lon="10.7984303"><ele>146.0</ele><time>2026-04-18T09:13:36.403Z</time></trkpt><trkpt lat="43.2991479" lon="10.798589"><ele>146.0</ele><time>2026-04-18T09:13:37.419Z</time></trkpt><trkpt lat="43.2992301" lon="10.798746"><ele>146.0</ele><time>2026-04-18T09:13:38.396Z</time></trkpt><trkpt lat="43.2993004" lon="10.7988997"><ele>146.0</ele><time>2026-04-18T09:13:39.4Z</time></trkpt><trkpt lat="43.2993581" lon="10.7990528"><ele>146.0</ele><time>2026-04-18T09:13:40.397Z</time></trkpt><trkpt lat="43.2994045" lon="10.7992065"><ele>144.5</ele><time>2026-04-18T09:13:41.417Z</time></trkpt><trkpt lat="43.2994301" lon="10.7993792"><ele>143.0</ele><time>2026-04-18T09:13:42.417Z</time></trkpt><trkpt lat="43.2994337" lon="10.7995534"><ele>141.5</ele><time>2026-04-18T09:13:43.421Z</time></trkpt><trkpt lat="43.2994395" lon="10.7997281"><ele>140.0</ele><time>2026-04-18T09:13:44.416Z</time></trkpt><trkpt lat="43.2994536" lon="10.7999016"><ele>140.0</ele><time>2026-04-18T09:13:45.415Z</time></trkpt><trkpt lat="43.2994663" lon="10.800057"><ele>140.0</ele><time>2026-04-18T09:13:46.399Z</time></trkpt><trkpt lat="43.2994624" lon="10.8002005"><ele>140.0</ele><time>2026-04-18T09:13:47.41Z</time></trkpt><trkpt lat="43.2994298" lon="10.8003404"><ele>140.0</ele><time>2026-04-18T09:13:48.398Z</time></trkpt><trkpt lat="43.2993756" lon="10.8004605"><ele>140.0</ele><time>2026-04-18T09:13:49.398Z</time></trkpt><trkpt lat="43.2993294" lon="10.8005763"><ele>139.5</ele><time>2026-04-18T09:13:50.399Z</time></trkpt><trkpt lat="43.299336" lon="10.8008264"><ele>139.0</ele><time>2026-04-18T09:13:52.302Z</time></trkpt><trkpt lat="43.2993872" lon="10.8009417"><ele>138.5</ele><time>2026-04-18T09:13:53.297Z</time></trkpt><trkpt lat="43.2994592" lon="10.8010403"><ele>138.0</ele><time>2026-04-18T09:13:54.3Z</time></trkpt><trkpt lat="43.2995567" lon="10.8011168"><ele>137.5</ele><time>2026-04-18T09:13:55.301Z</time></trkpt><trkpt lat="43.2996749" lon="10.8011829"><ele>137.0</ele><time>2026-04-18T09:13:56.297Z</time></trkpt><trkpt lat="43.299811" lon="10.8012357"><ele>136.5</ele><time>2026-04-18T09:13:57.296Z</time></trkpt><trkpt lat="43.2999564" lon="10.8012862"><ele>136.0</ele><time>2026-04-18T09:13:58.423Z</time></trkpt><trkpt lat="43.3002655" lon="10.8013275"><ele>137.75</ele><time>2026-04-18T09:14:00.429Z</time></trkpt><trkpt lat="43.3004111" lon="10.8013165"><ele>139.5</ele><time>2026-04-18T09:14:01.402Z</time></trkpt><trkpt lat="43.3005408" lon="10.8013122"><ele>141.25</ele><time>2026-04-18T09:14:02.393Z</time></trkpt><trkpt lat="43.3006653" lon="10.8013362"><ele>143.0</ele><time>2026-04-18T09:14:03.298Z</time></trkpt><trkpt lat="43.3007862" lon="10.8013992"><ele>143.0</ele><time>2026-04-18T09:14:04.303Z</time></trkpt><trkpt lat="43.3008953" lon="10.801492"><ele>143.0</ele><time>2026-04-18T09:14:05.435Z</time></trkpt><trkpt lat="43.3010021" lon="10.8016017"><ele>143.0</ele><time>2026-04-18T09:14:06.443Z</time></trkpt><trkpt lat="43.3011072" lon="10.8017158"><ele>143.0</ele><time>2026-04-18T09:14:07.426Z</time></trkpt><trkpt lat="43.3012126" lon="10.8018349"><ele>142.5</ele><time>2026-04-18T09:14:08.421Z</time></trkpt><trkpt lat="43.3013221" lon="10.8019472"><ele>142.0</ele><time>2026-04-18T09:14:09.427Z</time></trkpt><trkpt lat="43.3014348" lon="10.8020618"><ele>141.5</ele><time>2026-04-18T09:14:10.428Z</time></trkpt><trkpt lat="43.3015475" lon="10.8021721"><ele>141.0</ele><time>2026-04-18T09:14:11.444Z</time></trkpt><trkpt lat="43.3016582" lon="10.8022771"><ele>140.75</ele><time>2026-04-18T09:14:12.439Z</time></trkpt><trkpt lat="43.3017685" lon="10.8023763"><ele>140.5</ele><time>2026-04-18T09:14:13.407Z</time></trkpt><trkpt lat="43.3018692" lon="10.8024653"><ele>140.25</ele><time>2026-04-18T09:14:14.433Z</time></trkpt><trkpt lat="43.3019636" lon="10.8025495"><ele>140.0</ele><time>2026-04-18T09:14:15.423Z</time></trkpt><trkpt lat="43.3021542" lon="10.8027281"><ele>138.5</ele><time>2026-04-18T09:14:17.304Z</time></trkpt><trkpt lat="43.302254" lon="10.8028153"><ele>137.0</ele><time>2026-04-18T09:14:18.432Z</time></trkpt><trkpt lat="43.3023601" lon="10.8028919"><ele>135.5</ele><time>2026-04-18T09:14:19.408Z</time></trkpt><trkpt lat="43.3024749" lon="10.8029454"><ele>134.0</ele><time>2026-04-18T09:14:20.443Z</time></trkpt><trkpt lat="43.3027206" lon="10.8029477"><ele>134.0</ele><time>2026-04-18T09:14:22.43Z</time></trkpt><trkpt lat="43.3028361" lon="10.8028916"><ele>134.0</ele><time>2026-04-18T09:14:23.43Z</time></trkpt><trkpt lat="43.3029364" lon="10.8028177"><ele>134.0</ele><time>2026-04-18T09:14:24.43Z</time></trkpt><trkpt lat="43.3030276" lon="10.8027387"><ele>134.0</ele><time>2026-04-18T09:14:25.425Z</time></trkpt><trkpt lat="43.3031218" lon="10.8026804"><ele>134.0</ele><time>2026-04-18T09:14:26.418Z</time></trkpt><trkpt lat="43.3032288" lon="10.8026465"><ele>133.6</ele><time>2026-04-18T09:14:27.426Z</time></trkpt><trkpt lat="43.3033362" lon="10.8026419"><ele>133.2</ele><time>2026-04-18T09:14:28.426Z</time></trkpt><trkpt lat="43.3034418" lon="10.8026619"><ele>132.79999999999998</ele><time>2026-04-18T09:14:29.44Z</time></trkpt><trkpt lat="43.3035389" lon="10.8027135"><ele>132.4</ele><time>2026-04-18T09:14:30.437Z</time></trkpt><trkpt lat="43.3036171" lon="10.8028062"><ele>132.0</ele><time>2026-04-18T09:14:31.436Z</time></trkpt><trkpt lat="43.303674" lon="10.8029294"><ele>131.33333333333334</ele><time>2026-04-18T09:14:32.434Z</time></trkpt><trkpt lat="43.3037443" lon="10.803231"><ele>130.66666666666669</ele><time>2026-04-18T09:14:34.304Z</time></trkpt><trkpt lat="43.3037694" lon="10.8033923"><ele>130.0</ele><time>2026-04-18T09:14:35.432Z</time></trkpt><trkpt lat="43.3038298" lon="10.803723"><ele>127.66666666666667</ele><time>2026-04-18T09:14:37.301Z</time></trkpt><trkpt lat="43.3038611" lon="10.8038911"><ele>125.33333333333334</ele><time>2026-04-18T09:14:38.428Z</time></trkpt><trkpt lat="43.3038969" lon="10.8040613"><ele>123.0</ele><time>2026-04-18T09:14:39.437Z</time></trkpt><trkpt lat="43.3039612" lon="10.804405"><ele>118.0</ele><time>2026-04-18T09:14:41.44Z</time></trkpt><trkpt lat="43.3039904" lon="10.8045783"><ele>113.0</ele><time>2026-04-18T09:14:42.433Z</time></trkpt><trkpt lat="43.3040221" lon="10.804754"><ele>108.0</ele><time>2026-04-18T09:14:43.434Z</time></trkpt><trkpt lat="43.3040591" lon="10.8049237"><ele>103.0</ele><time>2026-04-18T09:14:44.399Z</time></trkpt><trkpt lat="43.304087" lon="10.805097"><ele>102.25</ele><time>2026-04-18T09:14:45.433Z</time></trkpt><trkpt lat="43.3041076" lon="10.8052748"><ele>101.5</ele><time>2026-04-18T09:14:46.439Z</time></trkpt><trkpt lat="43.3041165" lon="10.8054691"><ele>100.75</ele><time>2026-04-18T09:14:47.431Z</time></trkpt><trkpt lat="43.3041071" lon="10.8056639"><ele>100.0</ele><time>2026-04-18T09:14:48.427Z</time></trkpt><trkpt lat="43.3040157" lon="10.8060169"><ele>100.0</ele><time>2026-04-18T09:14:50.299Z</time></trkpt><trkpt lat="43.3039302" lon="10.8061695"><ele>100.0</ele><time>2026-04-18T09:14:51.301Z</time></trkpt><trkpt lat="43.3038308" lon="10.8063122"><ele>100.0</ele><time>2026-04-18T09:14:52.3Z</time></trkpt><trkpt lat="43.3037296" lon="10.8064538"><ele>100.0</ele><time>2026-04-18T09:14:53.305Z</time></trkpt><trkpt lat="43.3036344" lon="10.8065885"><ele>100.0</ele><time>2026-04-18T09:14:54.307Z</time></trkpt><trkpt lat="43.3035391" lon="10.8067208"><ele>100.0</ele><time>2026-04-18T09:14:55.3Z</time></trkpt><trkpt lat="43.3034469" lon="10.8068487"><ele>100.0</ele><time>2026-04-18T09:14:56.437Z</time></trkpt><trkpt lat="43.3033556" lon="10.8069702"><ele>100.0</ele><time>2026-04-18T09:14:57.405Z</time></trkpt><trkpt lat="43.3032682" lon="10.8070874"><ele>99.75</ele><time>2026-04-18T09:14:58.435Z</time></trkpt><trkpt lat="43.303182" lon="10.8072032"><ele>99.5</ele><time>2026-04-18T09:14:59.369Z</time></trkpt><trkpt lat="43.3030988" lon="10.8073165"><ele>99.25</ele><time>2026-04-18T09:15:00.301Z</time></trkpt><trkpt lat="43.3030201" lon="10.8074251"><ele>99.0</ele><time>2026-04-18T09:15:01.304Z</time></trkpt><trkpt lat="43.3029469" lon="10.8075334"><ele>99.5</ele><time>2026-04-18T09:15:02.306Z</time></trkpt><trkpt lat="43.3028775" lon="10.8076467"><ele>100.0</ele><time>2026-04-18T09:15:03.304Z</time></trkpt><trkpt lat="43.3028215" lon="10.8077509"><ele>100.5</ele><time>2026-04-18T09:15:04.302Z</time></trkpt><trkpt lat="43.302778" lon="10.8078438"><ele>101.0</ele><time>2026-04-18T09:15:05.3Z</time></trkpt><trkpt lat="43.3027426" lon="10.8079376"><ele>101.5</ele><time>2026-04-18T09:15:06.306Z</time></trkpt><trkpt lat="43.3027102" lon="10.8080314"><ele>102.0</ele><time>2026-04-18T09:15:07.435Z</time></trkpt><trkpt lat="43.3026808" lon="10.8081232"><ele>102.0</ele><time>2026-04-18T09:15:08.439Z</time></trkpt><trkpt lat="43.3026459" lon="10.8082193"><ele>102.0</ele><time>2026-04-18T09:15:09.438Z</time></trkpt><trkpt lat="43.3026155" lon="10.8083182"><ele>102.0</ele><time>2026-04-18T09:15:10.431Z</time></trkpt><trkpt lat="43.3025852" lon="10.8084125"><ele>102.0</ele><time>2026-04-18T09:15:11.43Z</time></trkpt><trkpt lat="43.3025538" lon="10.8085037"><ele>102.0</ele><time>2026-04-18T09:15:12.438Z</time></trkpt><trkpt lat="43.302523" lon="10.8085909"><ele>102.0</ele><time>2026-04-18T09:15:13.396Z</time></trkpt><trkpt lat="43.3024933" lon="10.8086731"><ele>102.0</ele><time>2026-04-18T09:15:14.435Z</time></trkpt><trkpt lat="43.3024623" lon="10.8087489"><ele>102.0</ele><time>2026-04-18T09:15:15.419Z</time></trkpt><trkpt lat="43.3024316" lon="10.8088271"><ele>102.0</ele><time>2026-04-18T09:15:16.442Z</time></trkpt><trkpt lat="43.3023985" lon="10.8089177"><ele>102.0</ele><time>2026-04-18T09:15:17.436Z</time></trkpt><trkpt lat="43.3023605" lon="10.8090122"><ele>102.0</ele><time>2026-04-18T09:15:18.415Z</time></trkpt><trkpt lat="43.3023176" lon="10.8091034"><ele>102.0</ele><time>2026-04-18T09:15:19.421Z</time></trkpt><trkpt lat="43.3022682" lon="10.8091756"><ele>102.0</ele><time>2026-04-18T09:15:20.388Z</time></trkpt><trkpt lat="43.3022078" lon="10.8092062"><ele>102.0</ele><time>2026-04-18T09:15:21.301Z</time></trkpt><trkpt lat="43.3021431" lon="10.8091972"><ele>104.33333333333334</ele><time>2026-04-18T09:15:22.403Z</time></trkpt><trkpt lat="43.3020781" lon="10.8091371"><ele>106.66666666666667</ele><time>2026-04-18T09:15:23.423Z</time></trkpt><trkpt lat="43.3019306" lon="10.8089376"><ele>109.0</ele><time>2026-04-18T09:15:25.428Z</time></trkpt><trkpt lat="43.3017451" lon="10.8087034"><ele>109.0</ele><time>2026-04-18T09:15:27.43Z</time></trkpt><trkpt lat="43.3016476" lon="10.8085942"><ele>109.0</ele><time>2026-04-18T09:15:28.447Z</time></trkpt><trkpt lat="43.3015564" lon="10.8084943"><ele>109.0</ele><time>2026-04-18T09:15:29.369Z</time></trkpt><trkpt lat="43.3014688" lon="10.8084044"><ele>109.0</ele><time>2026-04-18T09:15:30.427Z</time></trkpt><trkpt lat="43.301316" lon="10.8082753"><ele>109.80000000000001</ele><time>2026-04-18T09:15:32.356Z</time></trkpt><trkpt lat="43.3012477" lon="10.8082579"><ele>110.60000000000001</ele><time>2026-04-18T09:15:33.297Z</time></trkpt><trkpt lat="43.3011637" lon="10.8083409"><ele>111.4</ele><time>2026-04-18T09:15:35.296Z</time></trkpt><trkpt lat="43.3011784" lon="10.8085134"><ele>112.2</ele><time>2026-04-18T09:15:37.429Z</time></trkpt><trkpt lat="43.3012094" lon="10.8086248"><ele>113.0</ele><time>2026-04-18T09:15:38.426Z</time></trkpt><trkpt lat="43.3012218" lon="10.8088829"><ele>113.80000000000001</ele><time>2026-04-18T09:15:40.423Z</time></trkpt><trkpt lat="43.3011823" lon="10.8090041"><ele>114.60000000000001</ele><time>2026-04-18T09:15:41.426Z</time></trkpt><trkpt lat="43.3011095" lon="10.8091045"><ele>115.39999999999999</ele><time>2026-04-18T09:15:42.441Z</time></trkpt><trkpt lat="43.3010214" lon="10.80919"><ele>116.19999999999999</ele><time>2026-04-18T09:15:43.424Z</time></trkpt><trkpt lat="43.300925" lon="10.8092798"><ele>117.0</ele><time>2026-04-18T09:15:44.43Z</time></trkpt><trkpt lat="43.3008259" lon="10.8093826"><ele>117.0</ele><time>2026-04-18T09:15:45.426Z</time></trkpt><trkpt lat="43.3007337" lon="10.8094961"><ele>117.0</ele><time>2026-04-18T09:15:46.412Z</time></trkpt><trkpt lat="43.300643" lon="10.8096192"><ele>117.0</ele><time>2026-04-18T09:15:47.436Z</time></trkpt><trkpt lat="43.300565" lon="10.8097492"><ele>117.0</ele><time>2026-04-18T09:15:48.444Z</time></trkpt><trkpt lat="43.3004697" lon="10.8100514"><ele>121.5</ele><time>2026-04-18T09:15:50.298Z</time></trkpt><trkpt lat="43.3004526" lon="10.8102154"><ele>126.0</ele><time>2026-04-18T09:15:51.293Z</time></trkpt><trkpt lat="43.3004502" lon="10.8103835"><ele>130.5</ele><time>2026-04-18T09:15:52.299Z</time></trkpt><trkpt lat="43.3004491" lon="10.8105362"><ele>135.0</ele><time>2026-04-18T09:15:53.29Z</time></trkpt><trkpt lat="43.3004386" lon="10.8106818"><ele>135.0</ele><time>2026-04-18T09:15:54.299Z</time></trkpt><trkpt lat="43.3003602" lon="10.8107987"><ele>135.0</ele><time>2026-04-18T09:15:56.299Z</time></trkpt><trkpt lat="43.3002815" lon="10.8107228"><ele>135.0</ele><time>2026-04-18T09:15:57.299Z</time></trkpt><trkpt lat="43.300219" lon="10.8106478"><ele>135.0</ele><time>2026-04-18T09:15:58.296Z</time></trkpt><trkpt lat="43.3001556" lon="10.8105469"><ele>135.0</ele><time>2026-04-18T09:15:59.297Z</time></trkpt><trkpt lat="43.300092" lon="10.8104108"><ele>135.0</ele><time>2026-04-18T09:16:00.303Z</time></trkpt><trkpt lat="43.300035" lon="10.810254"><ele>135.0</ele><time>2026-04-18T09:16:01.298Z</time></trkpt><trkpt lat="43.2999667" lon="10.8101036"><ele>135.0</ele><time>2026-04-18T09:16:02.297Z</time></trkpt><trkpt lat="43.2998905" lon="10.8099632"><ele>135.0</ele><time>2026-04-18T09:16:03.295Z</time></trkpt><trkpt lat="43.2998249" lon="10.80981"><ele>135.2</ele><time>2026-04-18T09:16:04.296Z</time></trkpt><trkpt lat="43.2997705" lon="10.8096652"><ele>135.4</ele><time>2026-04-18T09:16:05.291Z</time></trkpt><trkpt lat="43.2997291" lon="10.8095447"><ele>135.6</ele><time>2026-04-18T09:16:06.301Z</time></trkpt><trkpt lat="43.2996771" lon="10.8094278"><ele>135.8</ele><time>2026-04-18T09:16:07.299Z</time></trkpt><trkpt lat="43.2996012" lon="10.8093427"><ele>136.0</ele><time>2026-04-18T09:16:08.391Z</time></trkpt><trkpt lat="43.2995077" lon="10.8092971"><ele>136.0</ele><time>2026-04-18T09:16:09.414Z</time></trkpt><trkpt lat="43.2993963" lon="10.8092931"><ele>136.0</ele><time>2026-04-18T09:16:10.418Z</time></trkpt><trkpt lat="43.2992773" lon="10.809327"><ele>136.0</ele><time>2026-04-18T09:16:11.388Z</time></trkpt><trkpt lat="43.2991467" lon="10.8093725"><ele>136.0</ele><time>2026-04-18T09:16:12.407Z</time></trkpt><trkpt lat="43.2990177" lon="10.8094143"><ele>137.75</ele><time>2026-04-18T09:16:13.421Z</time></trkpt><trkpt lat="43.2988785" lon="10.8094618"><ele>139.5</ele><time>2026-04-18T09:16:14.335Z</time></trkpt><trkpt lat="43.2987395" lon="10.8095076"><ele>141.25</ele><time>2026-04-18T09:16:15.41Z</time></trkpt><trkpt lat="43.2986066" lon="10.809557"><ele>143.0</ele><time>2026-04-18T09:16:16.419Z</time></trkpt><trkpt lat="43.2984736" lon="10.8096131"><ele>143.0</ele><time>2026-04-18T09:16:17.415Z</time></trkpt><trkpt lat="43.2983369" lon="10.8096747"><ele>143.0</ele><time>2026-04-18T09:16:18.412Z</time></trkpt><trkpt lat="43.2981959" lon="10.8097497"><ele>143.0</ele><time>2026-04-18T09:16:19.424Z</time></trkpt><trkpt lat="43.2980539" lon="10.8098263"><ele>143.0</ele><time>2026-04-18T09:16:20.403Z</time></trkpt><trkpt lat="43.2977639" lon="10.8099849"><ele>142.66666666666666</ele><time>2026-04-18T09:16:22.4Z</time></trkpt><trkpt lat="43.2976172" lon="10.8100664"><ele>142.33333333333334</ele><time>2026-04-18T09:16:23.335Z</time></trkpt><trkpt lat="43.2974704" lon="10.8101391"><ele>142.0</ele><time>2026-04-18T09:16:24.29Z</time></trkpt><trkpt lat="43.2973189" lon="10.8102121"><ele>144.33333333333334</ele><time>2026-04-18T09:16:25.295Z</time></trkpt><trkpt lat="43.2971669" lon="10.8102878"><ele>146.66666666666666</ele><time>2026-04-18T09:16:26.297Z</time></trkpt><trkpt lat="43.2970205" lon="10.8103655"><ele>149.0</ele><time>2026-04-18T09:16:27.297Z</time></trkpt><trkpt lat="43.2968718" lon="10.8104441"><ele>149.0</ele><time>2026-04-18T09:16:28.299Z</time></trkpt><trkpt lat="43.296724" lon="10.8105255"><ele>149.0</ele><time>2026-04-18T09:16:29.299Z</time></trkpt><trkpt lat="43.2965751" lon="10.8106092"><ele>149.0</ele><time>2026-04-18T09:16:30.293Z</time></trkpt><trkpt lat="43.2964234" lon="10.8106939"><ele>149.0</ele><time>2026-04-18T09:16:31.296Z</time></trkpt><trkpt lat="43.2962686" lon="10.8107751"><ele>149.0</ele><time>2026-04-18T09:16:32.297Z</time></trkpt><trkpt lat="43.2961103" lon="10.8108549"><ele>149.0</ele><time>2026-04-18T09:16:33.296Z</time></trkpt><trkpt lat="43.2959514" lon="10.8109167"><ele>149.0</ele><time>2026-04-18T09:16:34.292Z</time></trkpt><trkpt lat="43.2957807" lon="10.8109592"><ele>149.0</ele><time>2026-04-18T09:16:35.301Z</time></trkpt><trkpt lat="43.2956038" lon="10.8109711"><ele>149.0</ele><time>2026-04-18T09:16:36.414Z</time></trkpt><trkpt lat="43.2954264" lon="10.8109646"><ele>149.66666666666666</ele><time>2026-04-18T09:16:37.412Z</time></trkpt><trkpt lat="43.2952468" lon="10.8109458"><ele>150.33333333333334</ele><time>2026-04-18T09:16:38.386Z</time></trkpt><trkpt lat="43.2950669" lon="10.810929"><ele>151.0</ele><time>2026-04-18T09:16:39.421Z</time></trkpt><trkpt lat="43.2948942" lon="10.8109099"><ele>151.0</ele><time>2026-04-18T09:16:40.419Z</time></trkpt><trkpt lat="43.2947265" lon="10.8108945"><ele>151.0</ele><time>2026-04-18T09:16:41.402Z</time></trkpt><trkpt lat="43.2945791" lon="10.8108821"><ele>151.0</ele><time>2026-04-18T09:16:42.412Z</time></trkpt><trkpt lat="43.294437" lon="10.8108757"><ele>151.0</ele><time>2026-04-18T09:16:43.394Z</time></trkpt><trkpt lat="43.294298" lon="10.8108949"><ele>151.0</ele><time>2026-04-18T09:16:44.396Z</time></trkpt><trkpt lat="43.2941654" lon="10.8109471"><ele>151.0</ele><time>2026-04-18T09:16:45.375Z</time></trkpt><trkpt lat="43.2940451" lon="10.8110424"><ele>151.0</ele><time>2026-04-18T09:16:46.301Z</time></trkpt><trkpt lat="43.293939" lon="10.8111537"><ele>153.0</ele><time>2026-04-18T09:16:47.299Z</time></trkpt><trkpt lat="43.2938272" lon="10.8112349"><ele>155.0</ele><time>2026-04-18T09:16:48.302Z</time></trkpt><trkpt lat="43.2937095" lon="10.8112504"><ele>157.0</ele><time>2026-04-18T09:16:49.416Z</time></trkpt><trkpt lat="43.2935997" lon="10.8112205"><ele>159.0</ele><time>2026-04-18T09:16:50.422Z</time></trkpt><trkpt lat="43.2934957" lon="10.8111553"><ele>159.0</ele><time>2026-04-18T09:16:51.399Z</time></trkpt><trkpt lat="43.2933827" lon="10.8110789"><ele>159.0</ele><time>2026-04-18T09:16:52.394Z</time></trkpt><trkpt lat="43.2932621" lon="10.8110098"><ele>159.0</ele><time>2026-04-18T09:16:53.417Z</time></trkpt><trkpt lat="43.2931333" lon="10.810953"><ele>159.0</ele><time>2026-04-18T09:16:54.388Z</time></trkpt><trkpt lat="43.2930045" lon="10.8109036"><ele>161.2</ele><time>2026-04-18T09:16:55.411Z</time></trkpt><trkpt lat="43.2928949" lon="10.8108637"><ele>163.4</ele><time>2026-04-18T09:16:56.421Z</time></trkpt><trkpt lat="43.2927934" lon="10.8108282"><ele>165.6</ele><time>2026-04-18T09:16:57.424Z</time></trkpt><trkpt lat="43.2926991" lon="10.8107899"><ele>167.8</ele><time>2026-04-18T09:16:58.406Z</time></trkpt><trkpt lat="43.2925951" lon="10.810757"><ele>170.0</ele><time>2026-04-18T09:16:59.411Z</time></trkpt><trkpt lat="43.2924857" lon="10.8107316"><ele>173.33333333333331</ele><time>2026-04-18T09:17:00.416Z</time></trkpt><trkpt lat="43.2922311" lon="10.8107202"><ele>176.66666666666666</ele><time>2026-04-18T09:17:02.302Z</time></trkpt><trkpt lat="43.2921095" lon="10.8107202"><ele>180.0</ele><time>2026-04-18T09:17:03.377Z</time></trkpt><trkpt lat="43.2920025" lon="10.810725"><ele>180.0</ele><time>2026-04-18T09:17:04.394Z</time></trkpt><trkpt lat="43.2919033" lon="10.8107123"><ele>180.0</ele><time>2026-04-18T09:17:05.3Z</time></trkpt><trkpt lat="43.291807" lon="10.8106818"><ele>180.0</ele><time>2026-04-18T09:17:06.401Z</time></trkpt><trkpt lat="43.2917148" lon="10.8106363"><ele>180.0</ele><time>2026-04-18T09:17:07.398Z</time></trkpt><trkpt lat="43.2916335" lon="10.8105637"><ele>180.0</ele><time>2026-04-18T09:17:08.397Z</time></trkpt><trkpt lat="43.2915564" lon="10.8104595"><ele>180.0</ele><time>2026-04-18T09:17:09.302Z</time></trkpt><trkpt lat="43.2914822" lon="10.810328"><ele>180.0</ele><time>2026-04-18T09:17:10.407Z</time></trkpt><trkpt lat="43.2914011" lon="10.8101786"><ele>180.0</ele><time>2026-04-18T09:17:11.405Z</time></trkpt><trkpt lat="43.2913103" lon="10.8100243"><ele>180.0</ele><time>2026-04-18T09:17:12.417Z</time></trkpt><trkpt lat="43.2911623" lon="10.809766"><ele>182.0</ele><time>2026-04-18T09:17:14.294Z</time></trkpt><trkpt lat="43.2911212" lon="10.8096299"><ele>184.0</ele><time>2026-04-18T09:17:15.299Z</time></trkpt><trkpt lat="43.2910977" lon="10.8094849"><ele>186.0</ele><time>2026-04-18T09:17:16.298Z</time></trkpt><trkpt lat="43.2910805" lon="10.8093307"><ele>188.0</ele><time>2026-04-18T09:17:17.297Z</time></trkpt><trkpt lat="43.2910764" lon="10.8091768"><ele>190.0</ele><time>2026-04-18T09:17:18.297Z</time></trkpt><trkpt lat="43.2910905" lon="10.8090287"><ele>190.2</ele><time>2026-04-18T09:17:19.302Z</time></trkpt><trkpt lat="43.291116" lon="10.8088941"><ele>190.4</ele><time>2026-04-18T09:17:20.395Z</time></trkpt><trkpt lat="43.2911576" lon="10.8087578"><ele>190.60000000000002</ele><time>2026-04-18T09:17:21.422Z</time></trkpt><trkpt lat="43.2912129" lon="10.8086184"><ele>190.8</ele><time>2026-04-18T09:17:22.395Z</time></trkpt><trkpt lat="43.2912809" lon="10.8085019"><ele>191.0</ele><time>2026-04-18T09:17:23.396Z</time></trkpt><trkpt lat="43.2913404" lon="10.8083951"><ele>192.0</ele><time>2026-04-18T09:17:24.403Z</time></trkpt><trkpt lat="43.2913617" lon="10.8082814"><ele>193.0</ele><time>2026-04-18T09:17:25.418Z</time></trkpt><trkpt lat="43.2913529" lon="10.8081492"><ele>194.0</ele><time>2026-04-18T09:17:26.392Z</time></trkpt><trkpt lat="43.2913214" lon="10.8080068"><ele>195.0</ele><time>2026-04-18T09:17:27.303Z</time></trkpt><trkpt lat="43.2912806" lon="10.8078438"><ele>196.0</ele><time>2026-04-18T09:17:28.404Z</time></trkpt><trkpt lat="43.2912453" lon="10.8076632"><ele>197.0</ele><time>2026-04-18T09:17:29.415Z</time></trkpt><trkpt lat="43.2912141" lon="10.8074822"><ele>198.0</ele><time>2026-04-18T09:17:30.395Z</time></trkpt><trkpt lat="43.2911857" lon="10.8073032"><ele>199.0</ele><time>2026-04-18T09:17:31.394Z</time></trkpt><trkpt lat="43.2911584" lon="10.8071377"><ele>200.0</ele><time>2026-04-18T09:17:32.416Z</time></trkpt><trkpt lat="43.2911307" lon="10.8069787"><ele>199.5</ele><time>2026-04-18T09:17:33.419Z</time></trkpt><trkpt lat="43.2910416" lon="10.8067044"><ele>199.0</ele><time>2026-04-18T09:17:35.298Z</time></trkpt><trkpt lat="43.2909749" lon="10.8065949"><ele>198.5</ele><time>2026-04-18T09:17:36.396Z</time></trkpt><trkpt lat="43.2909111" lon="10.8065183"><ele>198.0</ele><time>2026-04-18T09:17:37.398Z</time></trkpt><trkpt lat="43.2908537" lon="10.8064644"><ele>198.0</ele><time>2026-04-18T09:17:38.393Z</time></trkpt><trkpt lat="43.290746" lon="10.8064566"><ele>198.0</ele><time>2026-04-18T09:17:40.426Z</time></trkpt><trkpt lat="43.2906786" lon="10.8066002"><ele>198.0</ele><time>2026-04-18T09:17:42.425Z</time></trkpt><trkpt lat="43.2906745" lon="10.8067221"><ele>198.0</ele><time>2026-04-18T09:17:43.397Z</time></trkpt><trkpt lat="43.2906799" lon="10.8068807"><ele>198.0</ele><time>2026-04-18T09:17:44.4Z</time></trkpt><trkpt lat="43.29069" lon="10.8070688"><ele>198.5</ele><time>2026-04-18T09:17:45.306Z</time></trkpt><trkpt lat="43.2906728" lon="10.8072607"><ele>199.0</ele><time>2026-04-18T09:17:46.413Z</time></trkpt><trkpt lat="43.2906441" lon="10.8074552"><ele>199.5</ele><time>2026-04-18T09:17:47.395Z</time></trkpt><trkpt lat="43.2906136" lon="10.807654"><ele>200.0</ele><time>2026-04-18T09:17:48.412Z</time></trkpt><trkpt lat="43.2905752" lon="10.8078305"><ele>203.5</ele><time>2026-04-18T09:17:49.415Z</time></trkpt><trkpt lat="43.2905237" lon="10.807987"><ele>207.0</ele><time>2026-04-18T09:17:50.407Z</time></trkpt><trkpt lat="43.2904518" lon="10.8081319"><ele>210.5</ele><time>2026-04-18T09:17:51.393Z</time></trkpt><trkpt lat="43.2903611" lon="10.8082652"><ele>214.0</ele><time>2026-04-18T09:17:52.423Z</time></trkpt><trkpt lat="43.2902621" lon="10.8083934"><ele>213.75</ele><time>2026-04-18T09:17:53.416Z</time></trkpt><trkpt lat="43.2901771" lon="10.8085306"><ele>213.5</ele><time>2026-04-18T09:17:54.417Z</time></trkpt><trkpt lat="43.2901145" lon="10.8086827"><ele>213.25</ele><time>2026-04-18T09:17:55.397Z</time></trkpt><trkpt lat="43.2900698" lon="10.8088488"><ele>213.0</ele><time>2026-04-18T09:17:56.304Z</time></trkpt><trkpt lat="43.2900394" lon="10.8090043"><ele>213.0</ele><time>2026-04-18T09:17:57.302Z</time></trkpt><trkpt lat="43.2900199" lon="10.8091557"><ele>213.0</ele><time>2026-04-18T09:17:58.299Z</time></trkpt><trkpt lat="43.289993" lon="10.8092908"><ele>213.0</ele><time>2026-04-18T09:17:59.301Z</time></trkpt><trkpt lat="43.2899395" lon="10.8094126"><ele>213.0</ele><time>2026-04-18T09:18:00.398Z</time></trkpt><trkpt lat="43.2898589" lon="10.8095031"><ele>213.0</ele><time>2026-04-18T09:18:01.401Z</time></trkpt><trkpt lat="43.2897591" lon="10.8095654"><ele>217.66666666666669</ele><time>2026-04-18T09:18:02.406Z</time></trkpt><trkpt lat="43.2895703" lon="10.8097478"><ele>222.33333333333334</ele><time>2026-04-18T09:18:04.301Z</time></trkpt><trkpt lat="43.2894851" lon="10.8098825"><ele>227.0</ele><time>2026-04-18T09:18:05.374Z</time></trkpt><trkpt lat="43.2894106" lon="10.8100156"><ele>227.0</ele><time>2026-04-18T09:18:06.41Z</time></trkpt><trkpt lat="43.2893607" lon="10.8101491"><ele>227.0</ele><time>2026-04-18T09:18:07.388Z</time></trkpt><trkpt lat="43.2893454" lon="10.8102949"><ele>227.0</ele><time>2026-04-18T09:18:08.388Z</time></trkpt><trkpt lat="43.2893644" lon="10.8104451"><ele>227.0</ele><time>2026-04-18T09:18:09.301Z</time></trkpt><trkpt lat="43.2893954" lon="10.8105951"><ele>227.0</ele><time>2026-04-18T09:18:10.421Z</time></trkpt><trkpt lat="43.2893863" lon="10.8107404"><ele>227.0</ele><time>2026-04-18T09:18:11.356Z</time></trkpt><trkpt lat="43.2893524" lon="10.8108984"><ele>227.0</ele><time>2026-04-18T09:18:12.411Z</time></trkpt><trkpt lat="43.2892977" lon="10.811064"><ele>227.0</ele><time>2026-04-18T09:18:13.411Z</time></trkpt><trkpt lat="43.2892353" lon="10.8112323"><ele>227.0</ele><time>2026-04-18T09:18:14.385Z</time></trkpt><trkpt lat="43.289173" lon="10.8113961"><ele>226.8</ele><time>2026-04-18T09:18:15.396Z</time></trkpt><trkpt lat="43.2891215" lon="10.8115325"><ele>226.6</ele><time>2026-04-18T09:18:16.397Z</time></trkpt><trkpt lat="43.2890766" lon="10.8116336"><ele>226.40000000000003</ele><time>2026-04-18T09:18:17.421Z</time></trkpt><trkpt lat="43.2890167" lon="10.8117061"><ele>226.20000000000002</ele><time>2026-04-18T09:18:18.405Z</time></trkpt><trkpt lat="43.2889122" lon="10.8117032"><ele>226.0</ele><time>2026-04-18T09:18:20.414Z</time></trkpt><trkpt lat="43.2888879" lon="10.8115445"><ele>226.0</ele><time>2026-04-18T09:18:22.395Z</time></trkpt><trkpt lat="43.2889114" lon="10.8114246"><ele>226.00000000000003</ele><time>2026-04-18T09:18:23.398Z</time></trkpt><trkpt lat="43.2889308" lon="10.8112983"><ele>226.00000000000003</ele><time>2026-04-18T09:18:24.417Z</time></trkpt><trkpt lat="43.2889363" lon="10.811169"><ele>226.0</ele><time>2026-04-18T09:18:25.416Z</time></trkpt><trkpt lat="43.2889286" lon="10.8110318"><ele>226.0</ele><time>2026-04-18T09:18:26.408Z</time></trkpt><trkpt lat="43.2888985" lon="10.8108861"><ele>230.0</ele><time>2026-04-18T09:18:27.411Z</time></trkpt><trkpt lat="43.2888658" lon="10.8107282"><ele>234.0</ele><time>2026-04-18T09:18:28.391Z</time></trkpt><trkpt lat="43.2888238" lon="10.8105751"><ele>238.0</ele><time>2026-04-18T09:18:29.427Z</time></trkpt><trkpt lat="43.2887852" lon="10.8104231"><ele>242.0</ele><time>2026-04-18T09:18:30.409Z</time></trkpt><trkpt lat="43.2887468" lon="10.8102639"><ele>243.66666666666669</ele><time>2026-04-18T09:18:31.401Z</time></trkpt><trkpt lat="43.288727" lon="10.8101101"><ele>245.33333333333331</ele><time>2026-04-18T09:18:32.416Z</time></trkpt><trkpt lat="43.2887307" lon="10.8099432"><ele>247.0</ele><time>2026-04-18T09:18:33.409Z</time></trkpt><trkpt lat="43.2887761" lon="10.8096195"><ele>247.0</ele><time>2026-04-18T09:18:35.294Z</time></trkpt><trkpt lat="43.2887942" lon="10.8094587"><ele>247.0</ele><time>2026-04-18T09:18:36.415Z</time></trkpt><trkpt lat="43.2888015" lon="10.8093131"><ele>247.0</ele><time>2026-04-18T09:18:37.427Z</time></trkpt><trkpt lat="43.2887986" lon="10.8091848"><ele>247.0</ele><time>2026-04-18T09:18:38.402Z</time></trkpt><trkpt lat="43.288781" lon="10.8090788"><ele>247.0</ele><time>2026-04-18T09:18:39.39Z</time></trkpt><trkpt lat="43.288745" lon="10.8090053"><ele>247.0</ele><time>2026-04-18T09:18:40.395Z</time></trkpt><trkpt lat="43.2886436" lon="10.8089578"><ele>247.0</ele><time>2026-04-18T09:18:42.392Z</time></trkpt><trkpt lat="43.288568" lon="10.8090354"><ele>247.0</ele><time>2026-04-18T09:18:44.425Z</time></trkpt><trkpt lat="43.2885365" lon="10.8091833"><ele>247.0</ele><time>2026-04-18T09:18:45.402Z</time></trkpt><trkpt lat="43.288503" lon="10.8093114"><ele>247.0</ele><time>2026-04-18T09:18:46.396Z</time></trkpt><trkpt lat="43.28847" lon="10.8094526"><ele>247.0</ele><time>2026-04-18T09:18:47.415Z</time></trkpt><trkpt lat="43.2883931" lon="10.8097631"><ele>247.0</ele><time>2026-04-18T09:18:49.413Z</time></trkpt><trkpt lat="43.2883549" lon="10.8099494"><ele>247.0</ele><time>2026-04-18T09:18:50.419Z</time></trkpt><trkpt lat="43.2883376" lon="10.8101539"><ele>245.75</ele><time>2026-04-18T09:18:51.376Z</time></trkpt><trkpt lat="43.2883231" lon="10.8103452"><ele>244.5</ele><time>2026-04-18T09:18:52.301Z</time></trkpt><trkpt lat="43.2883173" lon="10.810522"><ele>243.25</ele><time>2026-04-18T09:18:53.401Z</time></trkpt><trkpt lat="43.2883098" lon="10.8106825"><ele>242.0</ele><time>2026-04-18T09:18:54.406Z</time></trkpt><trkpt lat="43.2882899" lon="10.8108439"><ele>240.75</ele><time>2026-04-18T09:18:55.396Z</time></trkpt><trkpt lat="43.2882452" lon="10.8109955"><ele>239.5</ele><time>2026-04-18T09:18:56.385Z</time></trkpt><trkpt lat="43.2881839" lon="10.8111376"><ele>238.25</ele><time>2026-04-18T09:18:57.413Z</time></trkpt><trkpt lat="43.2880986" lon="10.8112682"><ele>237.0</ele><time>2026-04-18T09:18:58.41Z</time></trkpt><trkpt lat="43.2879933" lon="10.811381"><ele>240.25</ele><time>2026-04-18T09:18:59.418Z</time></trkpt><trkpt lat="43.2878823" lon="10.8114841"><ele>243.5</ele><time>2026-04-18T09:19:00.418Z</time></trkpt><trkpt lat="43.2877781" lon="10.8115742"><ele>246.75</ele><time>2026-04-18T09:19:01.41Z</time></trkpt><trkpt lat="43.2876731" lon="10.8116477"><ele>250.0</ele><time>2026-04-18T09:19:02.4Z</time></trkpt><trkpt lat="43.2875541" lon="10.8117006"><ele>250.0</ele><time>2026-04-18T09:19:03.398Z</time></trkpt><trkpt lat="43.2874243" lon="10.8117436"><ele>250.0</ele><time>2026-04-18T09:19:04.3Z</time></trkpt><trkpt lat="43.2873007" lon="10.8118099"><ele>250.0</ele><time>2026-04-18T09:19:05.295Z</time></trkpt><trkpt lat="43.2871831" lon="10.8118878"><ele>250.0</ele><time>2026-04-18T09:19:06.421Z</time></trkpt><trkpt lat="43.2869961" lon="10.812063"><ele>252.75</ele><time>2026-04-18T09:19:08.303Z</time></trkpt><trkpt lat="43.286947" lon="10.8121671"><ele>255.5</ele><time>2026-04-18T09:19:09.427Z</time></trkpt><trkpt lat="43.2868782" lon="10.8124341"><ele>258.25</ele><time>2026-04-18T09:19:11.3Z</time></trkpt><trkpt lat="43.2869046" lon="10.8125904"><ele>261.0</ele><time>2026-04-18T09:19:12.412Z</time></trkpt><trkpt lat="43.2869375" lon="10.812746"><ele>261.0</ele><time>2026-04-18T09:19:13.425Z</time></trkpt><trkpt lat="43.2869741" lon="10.8129022"><ele>261.0</ele><time>2026-04-18T09:19:14.403Z</time></trkpt><trkpt lat="43.2870306" lon="10.8131482"><ele>261.0</ele><time>2026-04-18T09:19:16.299Z</time></trkpt><trkpt lat="43.2870222" lon="10.8132681"><ele>261.0</ele><time>2026-04-18T09:19:17.298Z</time></trkpt><trkpt lat="43.2869728" lon="10.8133822"><ele>261.0</ele><time>2026-04-18T09:19:18.301Z</time></trkpt><trkpt lat="43.2869015" lon="10.8134867"><ele>261.0</ele><time>2026-04-18T09:19:19.297Z</time></trkpt><trkpt lat="43.2868142" lon="10.8135949"><ele>261.0</ele><time>2026-04-18T09:19:20.296Z</time></trkpt><trkpt lat="43.286711" lon="10.8137016"><ele>261.0</ele><time>2026-04-18T09:19:21.291Z</time></trkpt><trkpt lat="43.2866005" lon="10.8138054"><ele>264.3333333333333</ele><time>2026-04-18T09:19:22.41Z</time></trkpt><trkpt lat="43.2863971" lon="10.8140039"><ele>267.66666666666663</ele><time>2026-04-18T09:19:24.415Z</time></trkpt><trkpt lat="43.2863216" lon="10.8141372"><ele>271.0</ele><time>2026-04-18T09:19:25.411Z</time></trkpt><trkpt lat="43.286268" lon="10.8142913"><ele>270.0</ele><time>2026-04-18T09:19:26.409Z</time></trkpt><trkpt lat="43.2862255" lon="10.8144373"><ele>269.0</ele><time>2026-04-18T09:19:27.409Z</time></trkpt><trkpt lat="43.2861694" lon="10.8145542"><ele>268.0</ele><time>2026-04-18T09:19:28.414Z</time></trkpt><trkpt lat="43.2860957" lon="10.8146399"><ele>267.0</ele><time>2026-04-18T09:19:29.416Z</time></trkpt><trkpt lat="43.2859976" lon="10.8147034"><ele>266.0</ele><time>2026-04-18T09:19:30.411Z</time></trkpt><trkpt lat="43.2858811" lon="10.8147591"><ele>266.0</ele><time>2026-04-18T09:19:31.329Z</time></trkpt><trkpt lat="43.2857488" lon="10.8148045"><ele>266.0</ele><time>2026-04-18T09:19:32.398Z</time></trkpt><trkpt lat="43.2856121" lon="10.8148528"><ele>266.0</ele><time>2026-04-18T09:19:33.297Z</time></trkpt><trkpt lat="43.2854811" lon="10.8149222"><ele>266.0</ele><time>2026-04-18T09:19:34.292Z</time></trkpt><trkpt lat="43.2853564" lon="10.8150259"><ele>267.5</ele><time>2026-04-18T09:19:35.3Z</time></trkpt><trkpt lat="43.2852419" lon="10.8151508"><ele>269.0</ele><time>2026-04-18T09:19:36.417Z</time></trkpt><trkpt lat="43.2851241" lon="10.8152874"><ele>270.5</ele><time>2026-04-18T09:19:37.377Z</time></trkpt><trkpt lat="43.2850148" lon="10.8154079"><ele>272.0</ele><time>2026-04-18T09:19:38.418Z</time></trkpt><trkpt lat="43.2849166" lon="10.8155273"><ele>272.0</ele><time>2026-04-18T09:19:39.416Z</time></trkpt><trkpt lat="43.2848296" lon="10.8156353"><ele>272.0</ele><time>2026-04-18T09:19:40.418Z</time></trkpt><trkpt lat="43.2847418" lon="10.8157304"><ele>272.0</ele><time>2026-04-18T09:19:41.406Z</time></trkpt><trkpt lat="43.2846615" lon="10.8158062"><ele>272.0</ele><time>2026-04-18T09:19:42.385Z</time></trkpt><trkpt lat="43.2845884" lon="10.8158652"><ele>272.0</ele><time>2026-04-18T09:19:43.418Z</time></trkpt><trkpt lat="43.2844479" lon="10.8159168"><ele>274.25</ele><time>2026-04-18T09:19:45.401Z</time></trkpt><trkpt lat="43.2843129" lon="10.815798"><ele>276.5</ele><time>2026-04-18T09:19:47.297Z</time></trkpt><trkpt lat="43.2842423" lon="10.8156899"><ele>278.75</ele><time>2026-04-18T09:19:48.3Z</time></trkpt><trkpt lat="43.2841569" lon="10.8155634"><ele>281.0</ele><time>2026-04-18T09:19:49.301Z</time></trkpt><trkpt lat="43.2840643" lon="10.8154264"><ele>281.0</ele><time>2026-04-18T09:19:50.399Z</time></trkpt><trkpt lat="43.2839714" lon="10.8153038"><ele>281.0</ele><time>2026-04-18T09:19:51.42Z</time></trkpt><trkpt lat="43.2838608" lon="10.8152139"><ele>281.0</ele><time>2026-04-18T09:19:52.42Z</time></trkpt><trkpt lat="43.2837461" lon="10.8151771"><ele>281.0</ele><time>2026-04-18T09:19:53.371Z</time></trkpt><trkpt lat="43.2836303" lon="10.8151838"><ele>280.6</ele><time>2026-04-18T09:19:54.419Z</time></trkpt><trkpt lat="43.2835144" lon="10.8152221"><ele>280.20000000000005</ele><time>2026-04-18T09:19:55.399Z</time></trkpt><trkpt lat="43.2834073" lon="10.815269"><ele>279.79999999999995</ele><time>2026-04-18T09:19:56.398Z</time></trkpt><trkpt lat="43.2833083" lon="10.8152889"><ele>279.4</ele><time>2026-04-18T09:19:57.418Z</time></trkpt><trkpt lat="43.2832328" lon="10.815268"><ele>279.0</ele><time>2026-04-18T09:19:58.412Z</time></trkpt><trkpt lat="43.2831694" lon="10.8151441"><ele>282.25</ele><time>2026-04-18T09:20:00.418Z</time></trkpt><trkpt lat="43.2832543" lon="10.8149948"><ele>285.5</ele><time>2026-04-18T09:20:02.428Z</time></trkpt><trkpt lat="43.2833373" lon="10.814921"><ele>288.75</ele><time>2026-04-18T09:20:03.394Z</time></trkpt><trkpt lat="43.2834362" lon="10.814839"><ele>292.0</ele><time>2026-04-18T09:20:04.302Z</time></trkpt><trkpt lat="43.2835404" lon="10.8147411"><ele>292.0</ele><time>2026-04-18T09:20:05.301Z</time></trkpt><trkpt lat="43.2836458" lon="10.8146326"><ele>292.0</ele><time>2026-04-18T09:20:06.413Z</time></trkpt><trkpt lat="43.2837569" lon="10.814522"><ele>292.0</ele><time>2026-04-18T09:20:07.41Z</time></trkpt><trkpt lat="43.2838784" lon="10.8144217"><ele>292.0</ele><time>2026-04-18T09:20:08.418Z</time></trkpt><trkpt lat="43.2839951" lon="10.814343"><ele>293.66666666666663</ele><time>2026-04-18T09:20:09.413Z</time></trkpt><trkpt lat="43.2841737" lon="10.8141762"><ele>295.3333333333333</ele><time>2026-04-18T09:20:11.298Z</time></trkpt><trkpt lat="43.284251" lon="10.8140578"><ele>297.0</ele><time>2026-04-18T09:20:12.3Z</time></trkpt><trkpt lat="43.2843166" lon="10.8139183"><ele>297.0</ele><time>2026-04-18T09:20:13.299Z</time></trkpt><trkpt lat="43.2843708" lon="10.8137793"><ele>297.0</ele><time>2026-04-18T09:20:14.298Z</time></trkpt><trkpt lat="43.2844098" lon="10.8136313"><ele>297.0</ele><time>2026-04-18T09:20:15.296Z</time></trkpt><trkpt lat="43.2844278" lon="10.8134647"><ele>297.0</ele><time>2026-04-18T09:20:16.296Z</time></trkpt><trkpt lat="43.2844279" lon="10.8132841"><ele>299.5</ele><time>2026-04-18T09:20:17.396Z</time></trkpt><trkpt lat="43.2844179" lon="10.8131031"><ele>302.0</ele><time>2026-04-18T09:20:18.386Z</time></trkpt><trkpt lat="43.284412" lon="10.8129394"><ele>304.5</ele><time>2026-04-18T09:20:19.418Z</time></trkpt><trkpt lat="43.284424" lon="10.8127802"><ele>307.0</ele><time>2026-04-18T09:20:20.391Z</time></trkpt><trkpt lat="43.2844553" lon="10.8126157"><ele>311.5</ele><time>2026-04-18T09:20:21.292Z</time></trkpt><trkpt lat="43.2845024" lon="10.8124573"><ele>316.0</ele><time>2026-04-18T09:20:22.386Z</time></trkpt><trkpt lat="43.2845512" lon="10.8123161"><ele>320.5</ele><time>2026-04-18T09:20:23.413Z</time></trkpt><trkpt lat="43.2845948" lon="10.8121833"><ele>325.0</ele><time>2026-04-18T09:20:24.39Z</time></trkpt><trkpt lat="43.2845927" lon="10.8120137"><ele>325.0</ele><time>2026-04-18T09:20:25.417Z</time></trkpt><trkpt lat="43.2846057" lon="10.8118532"><ele>325.0</ele><time>2026-04-18T09:20:26.419Z</time></trkpt><trkpt lat="43.2846245" lon="10.8116952"><ele>325.0</ele><time>2026-04-18T09:20:27.423Z</time></trkpt><trkpt lat="43.2846599" lon="10.8115446"><ele>325.0</ele><time>2026-04-18T09:20:28.39Z</time></trkpt><trkpt lat="43.2847" lon="10.811396"><ele>323.0</ele><time>2026-04-18T09:20:29.421Z</time></trkpt><trkpt lat="43.2847396" lon="10.8112426"><ele>321.0</ele><time>2026-04-18T09:20:30.387Z</time></trkpt><trkpt lat="43.2847721" lon="10.8110803"><ele>319.0</ele><time>2026-04-18T09:20:31.412Z</time></trkpt><trkpt lat="43.2848163" lon="10.8109151"><ele>317.0</ele><time>2026-04-18T09:20:32.4Z</time></trkpt><trkpt lat="43.284872" lon="10.810754"><ele>317.0</ele><time>2026-04-18T09:20:33.392Z</time></trkpt><trkpt lat="43.2849488" lon="10.8106067"><ele>317.0</ele><time>2026-04-18T09:20:34.305Z</time></trkpt><trkpt lat="43.2850216" lon="10.8104768"><ele>317.0</ele><time>2026-04-18T09:20:35.301Z</time></trkpt><trkpt lat="43.285077" lon="10.8103576"><ele>317.0</ele><time>2026-04-18T09:20:36.395Z</time></trkpt><trkpt lat="43.2851251" lon="10.8102102"><ele>322.33333333333337</ele><time>2026-04-18T09:20:37.424Z</time></trkpt><trkpt lat="43.285161" lon="10.8100556"><ele>327.6666666666667</ele><time>2026-04-18T09:20:38.419Z</time></trkpt><trkpt lat="43.2851881" lon="10.8097235"><ele>333.0</ele><time>2026-04-18T09:20:40.305Z</time></trkpt><trkpt lat="43.2851819" lon="10.8095617"><ele>333.0</ele><time>2026-04-18T09:20:41.303Z</time></trkpt><trkpt lat="43.2851497" lon="10.8093785"><ele>333.0</ele><time>2026-04-18T09:20:42.397Z</time></trkpt><trkpt lat="43.2850991" lon="10.8091861"><ele>333.0</ele><time>2026-04-18T09:20:43.425Z</time></trkpt><trkpt lat="43.2850481" lon="10.8090085"><ele>333.0</ele><time>2026-04-18T09:20:44.399Z</time></trkpt><trkpt lat="43.2849856" lon="10.8088467"><ele>332.79999999999995</ele><time>2026-04-18T09:20:45.389Z</time></trkpt><trkpt lat="43.2849209" lon="10.8087046"><ele>332.6</ele><time>2026-04-18T09:20:46.421Z</time></trkpt><trkpt lat="43.2848623" lon="10.8085842"><ele>332.4</ele><time>2026-04-18T09:20:47.412Z</time></trkpt><trkpt lat="43.2848068" lon="10.808473"><ele>332.20000000000005</ele><time>2026-04-18T09:20:48.428Z</time></trkpt><trkpt lat="43.2847631" lon="10.80835"><ele>332.0</ele><time>2026-04-18T09:20:49.385Z</time></trkpt><trkpt lat="43.2847438" lon="10.8082186"><ele>330.5</ele><time>2026-04-18T09:20:50.404Z</time></trkpt><trkpt lat="43.2847523" lon="10.8080782"><ele>329.0</ele><time>2026-04-18T09:20:51.4Z</time></trkpt><trkpt lat="43.284785" lon="10.8079241"><ele>327.5</ele><time>2026-04-18T09:20:52.383Z</time></trkpt><trkpt lat="43.2848228" lon="10.8077635"><ele>326.0</ele><time>2026-04-18T09:20:53.393Z</time></trkpt><trkpt lat="43.2848598" lon="10.807607"><ele>326.0</ele><time>2026-04-18T09:20:54.393Z</time></trkpt><trkpt lat="43.2848817" lon="10.8074582"><ele>326.0</ele><time>2026-04-18T09:20:55.377Z</time></trkpt><trkpt lat="43.2848867" lon="10.8073019"><ele>326.0</ele><time>2026-04-18T09:20:56.407Z</time></trkpt><trkpt lat="43.2848732" lon="10.8071558"><ele>326.0</ele><time>2026-04-18T09:20:57.41Z</time></trkpt><trkpt lat="43.2848156" lon="10.8069805"><ele>326.0</ele><time>2026-04-18T09:20:58.418Z</time></trkpt><trkpt lat="43.284775" lon="10.8068154"><ele>326.0</ele><time>2026-04-18T09:20:59.392Z</time></trkpt><trkpt lat="43.2847391" lon="10.8066666"><ele>326.0</ele><time>2026-04-18T09:21:00.418Z</time></trkpt><trkpt lat="43.2847116" lon="10.8065212"><ele>326.0</ele><time>2026-04-18T09:21:01.409Z</time></trkpt><trkpt lat="43.2847407" lon="10.8063765"><ele>326.0</ele><time>2026-04-18T09:21:02.387Z</time></trkpt><trkpt lat="43.2847643" lon="10.8062247"><ele>326.0</ele><time>2026-04-18T09:21:03.391Z</time></trkpt><trkpt lat="43.2848191" lon="10.8060914"><ele>326.0</ele><time>2026-04-18T09:21:04.301Z</time></trkpt><trkpt lat="43.2848487" lon="10.8059369"><ele>326.0</ele><time>2026-04-18T09:21:05.3Z</time></trkpt><trkpt lat="43.2848663" lon="10.8057771"><ele>327.5</ele><time>2026-04-18T09:21:06.367Z</time></trkpt><trkpt lat="43.2848549" lon="10.8056035"><ele>329.0</ele><time>2026-04-18T09:21:07.405Z</time></trkpt><trkpt lat="43.2848594" lon="10.8054334"><ele>330.5</ele><time>2026-04-18T09:21:08.393Z</time></trkpt><trkpt lat="43.2848502" lon="10.8052625"><ele>332.0</ele><time>2026-04-18T09:21:09.39Z</time></trkpt><trkpt lat="43.2848489" lon="10.8050965"><ele>333.5</ele><time>2026-04-18T09:21:10.403Z</time></trkpt><trkpt lat="43.2848715" lon="10.804921"><ele>335.0</ele><time>2026-04-18T09:21:11.391Z</time></trkpt><trkpt lat="43.2848794" lon="10.8047602"><ele>336.5</ele><time>2026-04-18T09:21:12.427Z</time></trkpt><trkpt lat="43.2848761" lon="10.8046023"><ele>338.0</ele><time>2026-04-18T09:21:13.408Z</time></trkpt><trkpt lat="43.2849037" lon="10.8044454"><ele>339.2</ele><time>2026-04-18T09:21:14.403Z</time></trkpt><trkpt lat="43.2849513" lon="10.8043104"><ele>340.4</ele><time>2026-04-18T09:21:15.393Z</time></trkpt><trkpt lat="43.2850108" lon="10.8042013"><ele>341.59999999999997</ele><time>2026-04-18T09:21:16.425Z</time></trkpt><trkpt lat="43.2850606" lon="10.8040805"><ele>342.79999999999995</ele><time>2026-04-18T09:21:17.412Z</time></trkpt><trkpt lat="43.285087" lon="10.8039755"><ele>344.0</ele><time>2026-04-18T09:21:18.391Z</time></trkpt><trkpt lat="43.2850764" lon="10.803866"><ele>344.0</ele><time>2026-04-18T09:21:19.395Z</time></trkpt><trkpt lat="43.2850316" lon="10.8037719"><ele>344.0</ele><time>2026-04-18T09:21:20.295Z</time></trkpt><trkpt lat="43.2849749" lon="10.8036651"><ele>344.0</ele><time>2026-04-18T09:21:21.297Z</time></trkpt><trkpt lat="43.2848976" lon="10.8035781"><ele>344.0</ele><time>2026-04-18T09:21:22.3Z</time></trkpt><trkpt lat="43.2848288" lon="10.8034806"><ele>344.0</ele><time>2026-04-18T09:21:23.395Z</time></trkpt><trkpt lat="43.2847695" lon="10.8033961"><ele>346.5</ele><time>2026-04-18T09:21:24.408Z</time></trkpt><trkpt lat="43.2847015" lon="10.8033353"><ele>349.0</ele><time>2026-04-18T09:21:25.406Z</time></trkpt><trkpt lat="43.2846341" lon="10.8033209"><ele>351.5</ele><time>2026-04-18T09:21:26.381Z</time></trkpt><trkpt lat="43.2845599" lon="10.8034039"><ele>354.0</ele><time>2026-04-18T09:21:28.39Z</time></trkpt><trkpt lat="43.2846104" lon="10.8035275"><ele>356.5</ele><time>2026-04-18T09:21:30.4Z</time></trkpt><trkpt lat="43.2846794" lon="10.803579"><ele>359.0</ele><time>2026-04-18T09:21:31.416Z</time></trkpt><trkpt lat="43.2847413" lon="10.803673"><ele>362.0</ele><time>2026-04-18T09:21:32.415Z</time></trkpt><trkpt lat="43.2847605" lon="10.8037747"><ele>365.0</ele><time>2026-04-18T09:21:33.399Z</time></trkpt><trkpt lat="43.2847448" lon="10.8039284"><ele>368.0</ele><time>2026-04-18T09:21:35.299Z</time></trkpt><trkpt lat="43.2846948" lon="10.8040728"><ele>371.0</ele><time>2026-04-18T09:21:37.299Z</time></trkpt><trkpt lat="43.2846534" lon="10.8041742"><ele>374.0</ele><time>2026-04-18T09:21:38.333Z</time></trkpt><trkpt lat="43.2846077" lon="10.8042871"><ele>373.0</ele><time>2026-04-18T09:21:39.394Z</time></trkpt><trkpt lat="43.2845612" lon="10.8044193"><ele>372.0</ele><time>2026-04-18T09:21:40.418Z</time></trkpt><trkpt lat="43.2844964" lon="10.8045718"><ele>371.0</ele><time>2026-04-18T09:21:41.407Z</time></trkpt><trkpt lat="43.2844563" lon="10.8047076"><ele>370.0</ele><time>2026-04-18T09:21:42.397Z</time></trkpt><trkpt lat="43.2844076" lon="10.804824"><ele>369.0</ele><time>2026-04-18T09:21:43.299Z</time></trkpt><trkpt lat="43.2843511" lon="10.8049244"><ele>369.0</ele><time>2026-04-18T09:21:44.299Z</time></trkpt><trkpt lat="43.2842709" lon="10.8050174"><ele>369.0</ele><time>2026-04-18T09:21:45.291Z</time></trkpt><trkpt lat="43.2841675" lon="10.8050455"><ele>369.0</ele><time>2026-04-18T09:21:46.299Z</time></trkpt><trkpt lat="43.2841002" lon="10.8051605"><ele>369.0</ele><time>2026-04-18T09:21:47.299Z</time></trkpt><trkpt lat="43.284035" lon="10.8052686"><ele>369.0</ele><time>2026-04-18T09:21:48.301Z</time></trkpt><trkpt lat="43.2839662" lon="10.8054259"><ele>373.0</ele><time>2026-04-18T09:21:49.286Z</time></trkpt><trkpt lat="43.2839016" lon="10.8055476"><ele>377.0</ele><time>2026-04-18T09:21:50.293Z</time></trkpt><trkpt lat="43.2837803" lon="10.8056587"><ele>381.0</ele><time>2026-04-18T09:21:51.297Z</time></trkpt><trkpt lat="43.2836938" lon="10.8057673"><ele>385.0</ele><time>2026-04-18T09:21:52.301Z</time></trkpt><trkpt lat="43.2836367" lon="10.8058862"><ele>387.0</ele><time>2026-04-18T09:21:53.3Z</time></trkpt><trkpt lat="43.2835882" lon="10.806007"><ele>389.0</ele><time>2026-04-18T09:21:54.298Z</time></trkpt><trkpt lat="43.2835659" lon="10.8061374"><ele>391.0</ele><time>2026-04-18T09:21:55.299Z</time></trkpt><trkpt lat="43.2835737" lon="10.8062544"><ele>393.0</ele><time>2026-04-18T09:21:56.394Z</time></trkpt><trkpt lat="43.2836644" lon="10.8065231"><ele>393.0</ele><time>2026-04-18T09:21:58.411Z</time></trkpt><trkpt lat="43.2837486" lon="10.8066586"><ele>393.0</ele><time>2026-04-18T09:21:59.417Z</time></trkpt><trkpt lat="43.2838366" lon="10.8068056"><ele>393.0</ele><time>2026-04-18T09:22:00.41Z</time></trkpt><trkpt lat="43.2839" lon="10.8069391"><ele>393.0</ele><time>2026-04-18T09:22:01.383Z</time></trkpt><trkpt lat="43.2839626" lon="10.8070554"><ele>394.0</ele><time>2026-04-18T09:22:02.393Z</time></trkpt><trkpt lat="43.2840209" lon="10.807167"><ele>395.0</ele><time>2026-04-18T09:22:03.419Z</time></trkpt><trkpt lat="43.2840804" lon="10.8073624"><ele>396.0</ele><time>2026-04-18T09:22:05.3Z</time></trkpt><trkpt lat="43.2839861" lon="10.8074707"><ele>397.0</ele><time>2026-04-18T09:22:06.407Z</time></trkpt><trkpt lat="43.2839559" lon="10.8075584"><ele>398.0</ele><time>2026-04-18T09:22:07.39Z</time></trkpt><trkpt lat="43.2838924" lon="10.8076065"><ele>398.0</ele><time>2026-04-18T09:22:08.389Z</time></trkpt><trkpt lat="43.2837137" lon="10.807472"><ele>398.0</ele><time>2026-04-18T09:22:09.412Z</time></trkpt><trkpt lat="43.2836134" lon="10.8074389"><ele>398.0</ele><time>2026-04-18T09:22:10.4Z</time></trkpt><trkpt lat="43.2835365" lon="10.8074203"><ele>398.0</ele><time>2026-04-18T09:22:11.411Z</time></trkpt><trkpt lat="43.2834701" lon="10.8074423"><ele>397.99999999999994</ele><time>2026-04-18T09:22:12.412Z</time></trkpt><trkpt lat="43.283412" lon="10.8074828"><ele>398.0</ele><time>2026-04-18T09:22:13.413Z</time></trkpt><trkpt lat="43.2833827" lon="10.8075823"><ele>398.0</ele><time>2026-04-18T09:22:14.417Z</time></trkpt><trkpt lat="43.2834285" lon="10.8076848"><ele>398.0</ele><time>2026-04-18T09:22:15.388Z</time></trkpt><trkpt lat="43.2834712" lon="10.8077913"><ele>397.99999999999994</ele><time>2026-04-18T09:22:16.293Z</time></trkpt><trkpt lat="43.2835338" lon="10.8079072"><ele>398.0</ele><time>2026-04-18T09:22:17.408Z</time></trkpt><trkpt lat="43.2836595" lon="10.8081786"><ele>400.5</ele><time>2026-04-18T09:22:19.391Z</time></trkpt><trkpt lat="43.283714" lon="10.8083213"><ele>403.0</ele><time>2026-04-18T09:22:20.415Z</time></trkpt><trkpt lat="43.2837695" lon="10.8086005"><ele>405.5</ele><time>2026-04-18T09:22:22.414Z</time></trkpt><trkpt lat="43.2837724" lon="10.8087278"><ele>408.0</ele><time>2026-04-18T09:22:23.415Z</time></trkpt><trkpt lat="43.2837388" lon="10.8088704"><ele>408.59999999999997</ele><time>2026-04-18T09:22:24.402Z</time></trkpt><trkpt lat="43.283711" lon="10.8090121"><ele>409.2</ele><time>2026-04-18T09:22:25.389Z</time></trkpt><trkpt lat="43.2837183" lon="10.8091624"><ele>409.8</ele><time>2026-04-18T09:22:26.42Z</time></trkpt><trkpt lat="43.2837717" lon="10.8093093"><ele>410.4</ele><time>2026-04-18T09:22:27.427Z</time></trkpt><trkpt lat="43.2838187" lon="10.8094494"><ele>411.0</ele><time>2026-04-18T09:22:28.412Z</time></trkpt><trkpt lat="43.2838967" lon="10.8095343"><ele>408.20000000000005</ele><time>2026-04-18T09:22:29.391Z</time></trkpt><trkpt lat="43.2839428" lon="10.8096518"><ele>405.40000000000003</ele><time>2026-04-18T09:22:30.423Z</time></trkpt><trkpt lat="43.2839668" lon="10.8097744"><ele>402.6</ele><time>2026-04-18T09:22:31.406Z</time></trkpt><trkpt lat="43.2839718" lon="10.8098985"><ele>399.8</ele><time>2026-04-18T09:22:32.422Z</time></trkpt><trkpt lat="43.2839653" lon="10.8100268"><ele>397.0</ele><time>2026-04-18T09:22:33.358Z</time></trkpt><trkpt lat="43.2839268" lon="10.8101653"><ele>397.0</ele><time>2026-04-18T09:22:34.3Z</time></trkpt><trkpt lat="43.283871" lon="10.8102975"><ele>397.0</ele><time>2026-04-18T09:22:35.298Z</time></trkpt><trkpt lat="43.2837812" lon="10.8103193"><ele>397.0</ele><time>2026-04-18T09:22:36.299Z</time></trkpt><trkpt lat="43.2836087" lon="10.8102752"><ele>397.0</ele><time>2026-04-18T09:22:37.373Z</time></trkpt><trkpt lat="43.2835041" lon="10.8103118"><ele>397.0</ele><time>2026-04-18T09:22:38.408Z</time></trkpt><trkpt lat="43.2833974" lon="10.8103311"><ele>397.0</ele><time>2026-04-18T09:22:39.39Z</time></trkpt><trkpt lat="43.283278" lon="10.8103268"><ele>397.0</ele><time>2026-04-18T09:22:40.422Z</time></trkpt><trkpt lat="43.283173" lon="10.8103179"><ele>397.0</ele><time>2026-04-18T09:22:41.416Z</time></trkpt><trkpt lat="43.2830971" lon="10.810217"><ele>397.0</ele><time>2026-04-18T09:22:42.407Z</time></trkpt><trkpt lat="43.2829319" lon="10.8100291"><ele>399.40000000000003</ele><time>2026-04-18T09:22:44.307Z</time></trkpt><trkpt lat="43.2828698" lon="10.8099093"><ele>401.8</ele><time>2026-04-18T09:22:45.419Z</time></trkpt><trkpt lat="43.282799" lon="10.8097804"><ele>404.2</ele><time>2026-04-18T09:22:46.42Z</time></trkpt><trkpt lat="43.2827271" lon="10.8096794"><ele>406.6</ele><time>2026-04-18T09:22:47.396Z</time></trkpt><trkpt lat="43.2826243" lon="10.8096459"><ele>409.0</ele><time>2026-04-18T09:22:48.307Z</time></trkpt><trkpt lat="43.2825197" lon="10.8096239"><ele>409.0</ele><time>2026-04-18T09:22:49.4Z</time></trkpt><trkpt lat="43.2824192" lon="10.8096396"><ele>409.0</ele><time>2026-04-18T09:22:50.393Z</time></trkpt><trkpt lat="43.2823319" lon="10.80969"><ele>409.0</ele><time>2026-04-18T09:22:51.418Z</time></trkpt><trkpt lat="43.2822604" lon="10.8097232"><ele>409.0</ele><time>2026-04-18T09:22:52.423Z</time></trkpt><trkpt lat="43.2821683" lon="10.8097089"><ele>409.0</ele><time>2026-04-18T09:22:54.405Z</time></trkpt><trkpt lat="43.2822004" lon="10.8095832"><ele>409.0</ele><time>2026-04-18T09:22:56.395Z</time></trkpt><trkpt lat="43.2823313" lon="10.8094834"><ele>409.0</ele><time>2026-04-18T09:22:58.401Z</time></trkpt><trkpt lat="43.2824082" lon="10.8094351"><ele>409.0</ele><time>2026-04-18T09:22:59.398Z</time></trkpt><trkpt lat="43.2824928" lon="10.8094044"><ele>409.0</ele><time>2026-04-18T09:23:00.299Z</time></trkpt><trkpt lat="43.282604" lon="10.8094116"><ele>409.0</ele><time>2026-04-18T09:23:01.383Z</time></trkpt><trkpt lat="43.2827164" lon="10.8094785"><ele>409.0</ele><time>2026-04-18T09:23:02.298Z</time></trkpt><trkpt lat="43.282831" lon="10.8095102"><ele>409.0</ele><time>2026-04-18T09:23:03.407Z</time></trkpt><trkpt lat="43.2829276" lon="10.8095368"><ele>409.0</ele><time>2026-04-18T09:23:04.409Z</time></trkpt><trkpt lat="43.2830774" lon="10.8095761"><ele>409.0</ele><time>2026-04-18T09:23:06.299Z</time></trkpt><trkpt lat="43.2831771" lon="10.8094957"><ele>410.2</ele><time>2026-04-18T09:23:08.392Z</time></trkpt><trkpt lat="43.2831543" lon="10.8093021"><ele>411.4</ele><time>2026-04-18T09:23:10.297Z</time></trkpt><trkpt lat="43.2831152" lon="10.80919"><ele>412.6</ele><time>2026-04-18T09:23:11.396Z</time></trkpt><trkpt lat="43.2830798" lon="10.8090708"><ele>413.8</ele><time>2026-04-18T09:23:12.41Z</time></trkpt><trkpt lat="43.2830417" lon="10.808963"><ele>415.0</ele><time>2026-04-18T09:23:13.413Z</time></trkpt><trkpt lat="43.2829417" lon="10.8087734"><ele>417.8</ele><time>2026-04-18T09:23:15.3Z</time></trkpt><trkpt lat="43.2828925" lon="10.8087071"><ele>420.6</ele><time>2026-04-18T09:23:16.392Z</time></trkpt><trkpt lat="43.2827756" lon="10.8087599"><ele>423.4</ele><time>2026-04-18T09:23:17.407Z</time></trkpt><trkpt lat="43.2826939" lon="10.8087758"><ele>426.2</ele><time>2026-04-18T09:23:18.389Z</time></trkpt><trkpt lat="43.2825868" lon="10.808813"><ele>429.0</ele><time>2026-04-18T09:23:19.296Z</time></trkpt><trkpt lat="43.2824832" lon="10.8088369"><ele>429.0</ele><time>2026-04-18T09:23:20.396Z</time></trkpt><trkpt lat="43.2823721" lon="10.8088414"><ele>429.0</ele><time>2026-04-18T09:23:21.391Z</time></trkpt><trkpt lat="43.2822608" lon="10.8088305"><ele>429.0</ele><time>2026-04-18T09:23:22.425Z</time></trkpt><trkpt lat="43.2821596" lon="10.8088043"><ele>429.0</ele><time>2026-04-18T09:23:23.415Z</time></trkpt><trkpt lat="43.2819764" lon="10.808759"><ele>428.8333333333333</ele><time>2026-04-18T09:23:25.304Z</time></trkpt><trkpt lat="43.2819008" lon="10.8087395"><ele>428.66666666666663</ele><time>2026-04-18T09:23:26.299Z</time></trkpt><trkpt lat="43.2818366" lon="10.8087122"><ele>428.5</ele><time>2026-04-18T09:23:27.295Z</time></trkpt><trkpt lat="43.2817267" lon="10.8086313"><ele>428.3333333333333</ele><time>2026-04-18T09:23:29.299Z</time></trkpt><trkpt lat="43.2816829" lon="10.8085567"><ele>428.16666666666663</ele><time>2026-04-18T09:23:30.295Z</time></trkpt><trkpt lat="43.2816623" lon="10.8084723"><ele>428.0</ele><time>2026-04-18T09:23:31.304Z</time></trkpt><trkpt lat="43.281691" lon="10.8083467"><ele>429.16666666666663</ele><time>2026-04-18T09:23:33.399Z</time></trkpt><trkpt lat="43.2817345" lon="10.8082343"><ele>430.3333333333333</ele><time>2026-04-18T09:23:36.295Z</time></trkpt><trkpt lat="43.2816921" lon="10.8081698"><ele>431.5</ele><time>2026-04-18T09:23:38.392Z</time></trkpt><trkpt lat="43.2815944" lon="10.8081249"><ele>432.66666666666663</ele><time>2026-04-18T09:23:40.303Z</time></trkpt><trkpt lat="43.281498" lon="10.8080571"><ele>433.8333333333333</ele><time>2026-04-18T09:23:42.306Z</time></trkpt><trkpt lat="43.2814317" lon="10.808004"><ele>435.0</ele><time>2026-04-18T09:23:44.303Z</time></trkpt><trkpt lat="43.281393" lon="10.8079309"><ele>435.0</ele><time>2026-04-18T09:23:46.3Z</time></trkpt><trkpt lat="43.281469" lon="10.8079219"><ele>435.0</ele><time>2026-04-18T09:23:51.415Z</time></trkpt><trkpt lat="43.2815243" lon="10.8079888"><ele>435.0</ele><time>2026-04-18T09:23:53.3Z</time></trkpt><trkpt lat="43.2815852" lon="10.8079454"><ele>435.0</ele><time>2026-04-18T09:23:56.396Z</time></trkpt><trkpt lat="43.2815107" lon="10.8078775"><ele>435.0</ele><time>2026-04-18T09:23:59.302Z</time></trkpt><trkpt lat="43.2814294" lon="10.8078849"><ele>435.0</ele><time>2026-04-18T09:24:01.399Z</time></trkpt><trkpt lat="43.2814043" lon="10.807985"><ele>436.8333333333333</ele><time>2026-04-18T09:24:04.305Z</time></trkpt><trkpt lat="43.2814616" lon="10.8080425"><ele>438.66666666666663</ele><time>2026-04-18T09:24:06.404Z</time></trkpt><trkpt lat="43.2815645" lon="10.8081206"><ele>440.5</ele><time>2026-04-18T09:24:09.304Z</time></trkpt><trkpt lat="43.28165" lon="10.808165"><ele>442.3333333333333</ele><time>2026-04-18T09:24:11.4Z</time></trkpt><trkpt lat="43.2817009" lon="10.8082355"><ele>444.16666666666663</ele><time>2026-04-18T09:24:13.305Z</time></trkpt><trkpt lat="43.2816882" lon="10.8083414"><ele>446.0</ele><time>2026-04-18T09:24:15.298Z</time></trkpt><trkpt lat="43.2816427" lon="10.8084417"><ele>442.4</ele><time>2026-04-18T09:24:17.294Z</time></trkpt><trkpt lat="43.281711" lon="10.8086068"><ele>438.8</ele><time>2026-04-18T09:24:20.292Z</time></trkpt><trkpt lat="43.2817784" lon="10.8086552"><ele>435.19999999999993</ele><time>2026-04-18T09:24:22.295Z</time></trkpt><trkpt lat="43.2818178" lon="10.8087267"><ele>431.59999999999997</ele><time>2026-04-18T09:24:25.4Z</time></trkpt><trkpt lat="43.281716" lon="10.8087139"><ele>428.0</ele><time>2026-04-18T09:24:29.299Z</time></trkpt><trkpt lat="43.2816329" lon="10.8085933"><ele>428.0</ele><time>2026-04-18T09:24:31.298Z</time></trkpt><trkpt lat="43.2815855" lon="10.8085298"><ele>427.99999999999994</ele><time>2026-04-18T09:24:32.301Z</time></trkpt><trkpt lat="43.281527" lon="10.8084671"><ele>427.99999999999994</ele><time>2026-04-18T09:24:33.42Z</time></trkpt><trkpt lat="43.2814575" lon="10.8084018"><ele>428.0</ele><time>2026-04-18T09:24:34.405Z</time></trkpt><trkpt lat="43.2813911" lon="10.8083468"><ele>428.0</ele><time>2026-04-18T09:24:35.415Z</time></trkpt><trkpt lat="43.2812487" lon="10.8082747"><ele>429.16666666666663</ele><time>2026-04-18T09:24:37.297Z</time></trkpt><trkpt lat="43.2811848" lon="10.8082571"><ele>430.3333333333333</ele><time>2026-04-18T09:24:38.299Z</time></trkpt><trkpt lat="43.2811072" lon="10.8082479"><ele>431.5</ele><time>2026-04-18T09:24:39.296Z</time></trkpt><trkpt lat="43.2810221" lon="10.8082509"><ele>432.66666666666663</ele><time>2026-04-18T09:24:40.297Z</time></trkpt><trkpt lat="43.280945" lon="10.8082514"><ele>433.8333333333333</ele><time>2026-04-18T09:24:41.296Z</time></trkpt><trkpt lat="43.2808632" lon="10.8082467"><ele>435.0</ele><time>2026-04-18T09:24:42.413Z</time></trkpt><trkpt lat="43.2807804" lon="10.8082392"><ele>435.0</ele><time>2026-04-18T09:24:43.426Z</time></trkpt><trkpt lat="43.2806942" lon="10.8082186"><ele>435.0</ele><time>2026-04-18T09:24:44.426Z</time></trkpt><trkpt lat="43.2806158" lon="10.8082297"><ele>435.0</ele><time>2026-04-18T09:24:45.417Z</time></trkpt><trkpt lat="43.2804445" lon="10.8083098"><ele>435.0</ele><time>2026-04-18T09:24:47.301Z</time></trkpt><trkpt lat="43.2803596" lon="10.8083825"><ele>435.0</ele><time>2026-04-18T09:24:48.413Z</time></trkpt><trkpt lat="43.2802691" lon="10.8084332"><ele>435.6</ele><time>2026-04-18T09:24:49.415Z</time></trkpt><trkpt lat="43.2801632" lon="10.8084628"><ele>436.2</ele><time>2026-04-18T09:24:50.405Z</time></trkpt><trkpt lat="43.2800612" lon="10.8084773"><ele>436.79999999999995</ele><time>2026-04-18T09:24:51.346Z</time></trkpt><trkpt lat="43.2799719" lon="10.8084949"><ele>437.4</ele><time>2026-04-18T09:24:52.401Z</time></trkpt><trkpt lat="43.2798811" lon="10.8085213"><ele>438.0</ele><time>2026-04-18T09:24:53.394Z</time></trkpt><trkpt lat="43.2798001" lon="10.8085757"><ele>440.0</ele><time>2026-04-18T09:24:54.424Z</time></trkpt><trkpt lat="43.2797318" lon="10.8086504"><ele>441.99999999999994</ele><time>2026-04-18T09:24:55.411Z</time></trkpt><trkpt lat="43.2796546" lon="10.8087487"><ele>443.99999999999994</ele><time>2026-04-18T09:24:56.397Z</time></trkpt><trkpt lat="43.2795696" lon="10.8088444"><ele>446.0</ele><time>2026-04-18T09:24:57.422Z</time></trkpt><trkpt lat="43.2794927" lon="10.8089284"><ele>448.0</ele><time>2026-04-18T09:24:58.394Z</time></trkpt><trkpt lat="43.2794273" lon="10.808997"><ele>448.0</ele><time>2026-04-18T09:24:59.394Z</time></trkpt><trkpt lat="43.2793635" lon="10.8090356"><ele>448.0</ele><time>2026-04-18T09:25:00.423Z</time></trkpt><trkpt lat="43.2792966" lon="10.8090485"><ele>448.0</ele><time>2026-04-18T09:25:01.402Z</time></trkpt><trkpt lat="43.2792301" lon="10.8090325"><ele>448.0</ele><time>2026-04-18T09:25:02.385Z</time></trkpt><trkpt lat="43.2791644" lon="10.8089776"><ele>448.0</ele><time>2026-04-18T09:25:03.404Z</time></trkpt><trkpt lat="43.2791116" lon="10.8088961"><ele>448.0</ele><time>2026-04-18T09:25:04.412Z</time></trkpt><trkpt lat="43.2790657" lon="10.8087969"><ele>448.0</ele><time>2026-04-18T09:25:05.415Z</time></trkpt><trkpt lat="43.2790305" lon="10.8086737"><ele>451.25</ele><time>2026-04-18T09:25:06.409Z</time></trkpt><trkpt lat="43.2790174" lon="10.8084317"><ele>454.5</ele><time>2026-04-18T09:25:08.389Z</time></trkpt><trkpt lat="43.2790196" lon="10.8083043"><ele>457.75</ele><time>2026-04-18T09:25:09.406Z</time></trkpt><trkpt lat="43.2790033" lon="10.808182"><ele>461.0</ele><time>2026-04-18T09:25:10.416Z</time></trkpt><trkpt lat="43.2789844" lon="10.8080558"><ele>461.0</ele><time>2026-04-18T09:25:11.407Z</time></trkpt><trkpt lat="43.2789518" lon="10.8079543"><ele>461.0</ele><time>2026-04-18T09:25:12.41Z</time></trkpt><trkpt lat="43.2788673" lon="10.8078918"><ele>461.0</ele><time>2026-04-18T09:25:13.396Z</time></trkpt><trkpt lat="43.2787611" lon="10.8078037"><ele>461.0</ele><time>2026-04-18T09:25:14.302Z</time></trkpt><trkpt lat="43.2786667" lon="10.8077425"><ele>461.0</ele><time>2026-04-18T09:25:15.301Z</time></trkpt><trkpt lat="43.27858" lon="10.8076866"><ele>461.20000000000005</ele><time>2026-04-18T09:25:16.298Z</time></trkpt><trkpt lat="43.2784925" lon="10.807624"><ele>461.40000000000003</ele><time>2026-04-18T09:25:17.298Z</time></trkpt><trkpt lat="43.2784331" lon="10.8075475"><ele>461.6</ele><time>2026-04-18T09:25:18.296Z</time></trkpt><trkpt lat="43.2783832" lon="10.8074581"><ele>461.8</ele><time>2026-04-18T09:25:19.403Z</time></trkpt><trkpt lat="43.2783363" lon="10.8073334"><ele>462.0</ele><time>2026-04-18T09:25:20.398Z</time></trkpt><trkpt lat="43.2782528" lon="10.8070804"><ele>462.0</ele><time>2026-04-18T09:25:22.427Z</time></trkpt><trkpt lat="43.2782066" lon="10.8069699"><ele>462.0</ele><time>2026-04-18T09:25:23.395Z</time></trkpt><trkpt lat="43.2781496" lon="10.8068857"><ele>462.0</ele><time>2026-04-18T09:25:24.418Z</time></trkpt><trkpt lat="43.2780808" lon="10.8068361"><ele>462.0</ele><time>2026-04-18T09:25:25.415Z</time></trkpt><trkpt lat="43.2780149" lon="10.806805"><ele>462.0</ele><time>2026-04-18T09:25:26.4Z</time></trkpt><trkpt lat="43.2779392" lon="10.8067867"><ele>462.0</ele><time>2026-04-18T09:25:27.386Z</time></trkpt><trkpt lat="43.277857" lon="10.8067773"><ele>463.0</ele><time>2026-04-18T09:25:28.401Z</time></trkpt><trkpt lat="43.2777769" lon="10.8067663"><ele>464.00000000000006</ele><time>2026-04-18T09:25:29.399Z</time></trkpt><trkpt lat="43.277704" lon="10.8067333"><ele>465.00000000000006</ele><time>2026-04-18T09:25:30.391Z</time></trkpt><trkpt lat="43.2776426" lon="10.8066785"><ele>466.0</ele><time>2026-04-18T09:25:31.39Z</time></trkpt><trkpt lat="43.2775885" lon="10.8066133"><ele>467.0</ele><time>2026-04-18T09:25:32.408Z</time></trkpt><trkpt lat="43.2774645" lon="10.8064404"><ele>467.0</ele><time>2026-04-18T09:25:34.293Z</time></trkpt><trkpt lat="43.2773796" lon="10.8063307"><ele>467.0</ele><time>2026-04-18T09:25:35.298Z</time></trkpt><trkpt lat="43.2773134" lon="10.8062012"><ele>467.0</ele><time>2026-04-18T09:25:36.298Z</time></trkpt><trkpt lat="43.2772547" lon="10.8060575"><ele>467.0</ele><time>2026-04-18T09:25:37.298Z</time></trkpt><trkpt lat="43.2771975" lon="10.8059202"><ele>467.6</ele><time>2026-04-18T09:25:38.297Z</time></trkpt><trkpt lat="43.2771396" lon="10.8057967"><ele>468.20000000000005</ele><time>2026-04-18T09:25:39.295Z</time></trkpt><trkpt lat="43.2770785" lon="10.8056853"><ele>468.8</ele><time>2026-04-18T09:25:40.294Z</time></trkpt><trkpt lat="43.2770035" lon="10.8055815"><ele>469.4</ele><time>2026-04-18T09:25:41.296Z</time></trkpt><trkpt lat="43.2769388" lon="10.8054999"><ele>470.0</ele><time>2026-04-18T09:25:42.387Z</time></trkpt><trkpt lat="43.2768593" lon="10.8054848"><ele>470.0</ele><time>2026-04-18T09:25:43.393Z</time></trkpt><trkpt lat="43.2767953" lon="10.8054705"><ele>470.0</ele><time>2026-04-18T09:25:44.303Z</time></trkpt><trkpt lat="43.2767217" lon="10.8054775"><ele>470.0</ele><time>2026-04-18T09:25:45.301Z</time></trkpt><trkpt lat="43.2766273" lon="10.8054985"><ele>470.0</ele><time>2026-04-18T09:25:46.3Z</time></trkpt><trkpt lat="43.2765177" lon="10.8055463"><ele>470.0</ele><time>2026-04-18T09:25:47.303Z</time></trkpt><trkpt lat="43.2764014" lon="10.8055842"><ele>469.16666666666663</ele><time>2026-04-18T09:25:48.296Z</time></trkpt><trkpt lat="43.2763051" lon="10.8055861"><ele>468.3333333333333</ele><time>2026-04-18T09:25:49.415Z</time></trkpt><trkpt lat="43.2762276" lon="10.8055747"><ele>467.5</ele><time>2026-04-18T09:25:50.398Z</time></trkpt><trkpt lat="43.2761463" lon="10.8055379"><ele>466.66666666666663</ele><time>2026-04-18T09:25:51.415Z</time></trkpt><trkpt lat="43.276064" lon="10.8054952"><ele>465.8333333333333</ele><time>2026-04-18T09:25:52.411Z</time></trkpt><trkpt lat="43.2759888" lon="10.8054414"><ele>465.0</ele><time>2026-04-18T09:25:53.417Z</time></trkpt><trkpt lat="43.2759229" lon="10.8053811"><ele>465.0</ele><time>2026-04-18T09:25:54.416Z</time></trkpt><trkpt lat="43.2758797" lon="10.8052956"><ele>465.0</ele><time>2026-04-18T09:25:55.396Z</time></trkpt><trkpt lat="43.2758367" lon="10.8052123"><ele>465.0</ele><time>2026-04-18T09:25:56.395Z</time></trkpt><trkpt lat="43.2757934" lon="10.8051279"><ele>465.0</ele><time>2026-04-18T09:25:57.41Z</time></trkpt><trkpt lat="43.2757311" lon="10.8050509"><ele>465.0</ele><time>2026-04-18T09:25:58.415Z</time></trkpt><trkpt lat="43.2756653" lon="10.805"><ele>465.0</ele><time>2026-04-18T09:25:59.422Z</time></trkpt><trkpt lat="43.2755963" lon="10.8049418"><ele>465.0</ele><time>2026-04-18T09:26:00.423Z</time></trkpt><trkpt lat="43.2754344" lon="10.8048828"><ele>465.0</ele><time>2026-04-18T09:26:02.416Z</time></trkpt><trkpt lat="43.2753527" lon="10.8048533"><ele>465.0</ele><time>2026-04-18T09:26:03.418Z</time></trkpt><trkpt lat="43.2752675" lon="10.8048393"><ele>465.0</ele><time>2026-04-18T09:26:04.394Z</time></trkpt><trkpt lat="43.2751791" lon="10.8048636"><ele>465.0</ele><time>2026-04-18T09:26:05.398Z</time></trkpt><trkpt lat="43.2750811" lon="10.8049174"><ele>465.0</ele><time>2026-04-18T09:26:06.414Z</time></trkpt><trkpt lat="43.2749745" lon="10.8049509"><ele>465.0</ele><time>2026-04-18T09:26:07.353Z</time></trkpt><trkpt lat="43.2748696" lon="10.8049875"><ele>465.0</ele><time>2026-04-18T09:26:08.3Z</time></trkpt><trkpt lat="43.2747619" lon="10.8050171"><ele>465.0</ele><time>2026-04-18T09:26:09.301Z</time></trkpt><trkpt lat="43.2746554" lon="10.8050561"><ele>465.0</ele><time>2026-04-18T09:26:10.301Z</time></trkpt><trkpt lat="43.2745351" lon="10.8050941"><ele>463.0</ele><time>2026-04-18T09:26:11.417Z</time></trkpt><trkpt lat="43.2744136" lon="10.8051347"><ele>461.0</ele><time>2026-04-18T09:26:12.405Z</time></trkpt><trkpt lat="43.2742789" lon="10.8051724"><ele>459.0</ele><time>2026-04-18T09:26:13.42Z</time></trkpt><trkpt lat="43.274132" lon="10.8051977"><ele>457.0</ele><time>2026-04-18T09:26:14.423Z</time></trkpt><trkpt lat="43.2739723" lon="10.8052181"><ele>455.0</ele><time>2026-04-18T09:26:15.393Z</time></trkpt><trkpt lat="43.2738062" lon="10.805236"><ele>453.0</ele><time>2026-04-18T09:26:16.298Z</time></trkpt><trkpt lat="43.2736396" lon="10.8052516"><ele>451.0</ele><time>2026-04-18T09:26:17.299Z</time></trkpt><trkpt lat="43.2734665" lon="10.8052699"><ele>451.0</ele><time>2026-04-18T09:26:18.303Z</time></trkpt><trkpt lat="43.2732977" lon="10.8052909"><ele>451.0</ele><time>2026-04-18T09:26:19.39Z</time></trkpt><trkpt lat="43.2731442" lon="10.8053087"><ele>451.0</ele><time>2026-04-18T09:26:20.299Z</time></trkpt><trkpt lat="43.2730016" lon="10.8053235"><ele>450.75</ele><time>2026-04-18T09:26:21.302Z</time></trkpt><trkpt lat="43.2728556" lon="10.8053429"><ele>450.5</ele><time>2026-04-18T09:26:22.295Z</time></trkpt><trkpt lat="43.2727126" lon="10.8053648"><ele>450.25</ele><time>2026-04-18T09:26:23.3Z</time></trkpt><trkpt lat="43.2725681" lon="10.8054015"><ele>450.0</ele><time>2026-04-18T09:26:24.415Z</time></trkpt><trkpt lat="43.2724294" lon="10.8054462"><ele>450.0</ele><time>2026-04-18T09:26:25.394Z</time></trkpt><trkpt lat="43.2722901" lon="10.8055081"><ele>450.0</ele><time>2026-04-18T09:26:26.399Z</time></trkpt><trkpt lat="43.2721517" lon="10.8055688"><ele>450.0</ele><time>2026-04-18T09:26:27.418Z</time></trkpt><trkpt lat="43.2720156" lon="10.8056301"><ele>450.0</ele><time>2026-04-18T09:26:28.414Z</time></trkpt><trkpt lat="43.2718729" lon="10.8056918"><ele>450.0</ele><time>2026-04-18T09:26:29.396Z</time></trkpt><trkpt lat="43.2717239" lon="10.8057398"><ele>450.0</ele><time>2026-04-18T09:26:30.297Z</time></trkpt><trkpt lat="43.2715724" lon="10.8057724"><ele>450.0</ele><time>2026-04-18T09:26:31.297Z</time></trkpt><trkpt lat="43.2714215" lon="10.8057865"><ele>450.33333333333337</ele><time>2026-04-18T09:26:32.409Z</time></trkpt><trkpt lat="43.271267" lon="10.8057947"><ele>450.6666666666667</ele><time>2026-04-18T09:26:33.404Z</time></trkpt><trkpt lat="43.2711156" lon="10.805806"><ele>451.0</ele><time>2026-04-18T09:26:34.386Z</time></trkpt><trkpt lat="43.270965" lon="10.8058219"><ele>451.0</ele><time>2026-04-18T09:26:35.299Z</time></trkpt><trkpt lat="43.2708098" lon="10.8058396"><ele>451.0</ele><time>2026-04-18T09:26:36.298Z</time></trkpt><trkpt lat="43.2706516" lon="10.8058538"><ele>451.0</ele><time>2026-04-18T09:26:37.413Z</time></trkpt><trkpt lat="43.27049" lon="10.8058693"><ele>451.33333333333337</ele><time>2026-04-18T09:26:38.419Z</time></trkpt><trkpt lat="43.2703319" lon="10.8058866"><ele>451.66666666666663</ele><time>2026-04-18T09:26:39.422Z</time></trkpt><trkpt lat="43.2701756" lon="10.8059033"><ele>452.0</ele><time>2026-04-18T09:26:40.421Z</time></trkpt><trkpt lat="43.2700261" lon="10.8059244"><ele>452.0</ele><time>2026-04-18T09:26:41.418Z</time></trkpt><trkpt lat="43.2698839" lon="10.8059389"><ele>452.0</ele><time>2026-04-18T09:26:42.325Z</time></trkpt><trkpt lat="43.2697568" lon="10.8059474"><ele>452.0</ele><time>2026-04-18T09:26:43.418Z</time></trkpt><trkpt lat="43.2696362" lon="10.8059431"><ele>452.0</ele><time>2026-04-18T09:26:44.412Z</time></trkpt><trkpt lat="43.2695225" lon="10.8059264"><ele>453.25</ele><time>2026-04-18T09:26:45.395Z</time></trkpt><trkpt lat="43.2694172" lon="10.8058767"><ele>454.5</ele><time>2026-04-18T09:26:46.405Z</time></trkpt><trkpt lat="43.2692137" lon="10.8057211"><ele>455.75</ele><time>2026-04-18T09:26:48.3Z</time></trkpt><trkpt lat="43.2691276" lon="10.8056638"><ele>457.0</ele><time>2026-04-18T09:26:49.301Z</time></trkpt><trkpt lat="43.2690575" lon="10.8056248"><ele>457.0</ele><time>2026-04-18T09:26:50.3Z</time></trkpt><trkpt lat="43.2689857" lon="10.8055939"><ele>457.00000000000006</ele><time>2026-04-18T09:26:51.398Z</time></trkpt><trkpt lat="43.2689138" lon="10.8055772"><ele>457.00000000000006</ele><time>2026-04-18T09:26:52.392Z</time></trkpt><trkpt lat="43.2688324" lon="10.8055776"><ele>457.0</ele><time>2026-04-18T09:26:53.402Z</time></trkpt><trkpt lat="43.2686475" lon="10.805602"><ele>457.0</ele><time>2026-04-18T09:26:55.408Z</time></trkpt><trkpt lat="43.2685457" lon="10.8056219"><ele>457.0</ele><time>2026-04-18T09:26:56.395Z</time></trkpt><trkpt lat="43.2684377" lon="10.8056382"><ele>457.0</ele><time>2026-04-18T09:26:57.394Z</time></trkpt><trkpt lat="43.2683244" lon="10.80565"><ele>457.0</ele><time>2026-04-18T09:26:58.421Z</time></trkpt><trkpt lat="43.2682057" lon="10.8056473"><ele>457.0</ele><time>2026-04-18T09:26:59.411Z</time></trkpt><trkpt lat="43.2680819" lon="10.8056317"><ele>457.25</ele><time>2026-04-18T09:27:00.424Z</time></trkpt><trkpt lat="43.2679563" lon="10.8056038"><ele>457.5</ele><time>2026-04-18T09:27:01.423Z</time></trkpt><trkpt lat="43.2678318" lon="10.8055629"><ele>457.75</ele><time>2026-04-18T09:27:02.416Z</time></trkpt><trkpt lat="43.2677166" lon="10.8055117"><ele>458.0</ele><time>2026-04-18T09:27:03.391Z</time></trkpt><trkpt lat="43.2676048" lon="10.8054623"><ele>458.0</ele><time>2026-04-18T09:27:04.398Z</time></trkpt><trkpt lat="43.2674938" lon="10.8054111"><ele>458.0</ele><time>2026-04-18T09:27:05.4Z</time></trkpt><trkpt lat="43.267377" lon="10.8053589"><ele>458.0</ele><time>2026-04-18T09:27:06.306Z</time></trkpt><trkpt lat="43.2672621" lon="10.8053097"><ele>458.0</ele><time>2026-04-18T09:27:07.398Z</time></trkpt><trkpt lat="43.2671478" lon="10.8052706"><ele>457.25</ele><time>2026-04-18T09:27:08.392Z</time></trkpt><trkpt lat="43.2670261" lon="10.8052344"><ele>456.5</ele><time>2026-04-18T09:27:09.418Z</time></trkpt><trkpt lat="43.2669081" lon="10.8051889"><ele>455.75</ele><time>2026-04-18T09:27:10.396Z</time></trkpt><trkpt lat="43.2667843" lon="10.8051221"><ele>455.0</ele><time>2026-04-18T09:27:11.421Z</time></trkpt><trkpt lat="43.266534" lon="10.8049496"><ele>460.0</ele><time>2026-04-18T09:27:13.298Z</time></trkpt><trkpt lat="43.2664072" lon="10.8048487"><ele>465.0</ele><time>2026-04-18T09:27:14.403Z</time></trkpt><trkpt lat="43.2661635" lon="10.8046162"><ele>470.0</ele><time>2026-04-18T09:27:16.3Z</time></trkpt><trkpt lat="43.2660542" lon="10.8045028"><ele>470.0</ele><time>2026-04-18T09:27:17.3Z</time></trkpt><trkpt lat="43.2659624" lon="10.8044108"><ele>470.0</ele><time>2026-04-18T09:27:18.297Z</time></trkpt><trkpt lat="43.2658738" lon="10.8043258"><ele>470.0</ele><time>2026-04-18T09:27:19.302Z</time></trkpt><trkpt lat="43.265779" lon="10.8042515"><ele>470.0</ele><time>2026-04-18T09:27:20.295Z</time></trkpt><trkpt lat="43.2656807" lon="10.8041786"><ele>470.0</ele><time>2026-04-18T09:27:21.3Z</time></trkpt><trkpt lat="43.2655907" lon="10.8041005"><ele>470.6</ele><time>2026-04-18T09:27:22.299Z</time></trkpt><trkpt lat="43.2655165" lon="10.8039999"><ele>471.2</ele><time>2026-04-18T09:27:23.302Z</time></trkpt><trkpt lat="43.2654558" lon="10.8038912"><ele>471.79999999999995</ele><time>2026-04-18T09:27:24.305Z</time></trkpt><trkpt lat="43.2654135" lon="10.8037683"><ele>472.4</ele><time>2026-04-18T09:27:25.307Z</time></trkpt><trkpt lat="43.2653758" lon="10.8036602"><ele>473.0</ele><time>2026-04-18T09:27:26.298Z</time></trkpt><trkpt lat="43.265326" lon="10.8035891"><ele>472.99999999999994</ele><time>2026-04-18T09:27:27.299Z</time></trkpt><trkpt lat="43.2652644" lon="10.8035429"><ele>473.0</ele><time>2026-04-18T09:27:28.299Z</time></trkpt><trkpt lat="43.2651904" lon="10.8035124"><ele>473.0</ele><time>2026-04-18T09:27:29.405Z</time></trkpt><trkpt lat="43.2651058" lon="10.8034923"><ele>473.0</ele><time>2026-04-18T09:27:30.42Z</time></trkpt><trkpt lat="43.2650198" lon="10.8034766"><ele>472.99999999999994</ele><time>2026-04-18T09:27:31.386Z</time></trkpt><trkpt lat="43.2649219" lon="10.8034813"><ele>473.0</ele><time>2026-04-18T09:27:32.391Z</time></trkpt><trkpt lat="43.2647966" lon="10.8034796"><ele>474.25</ele><time>2026-04-18T09:27:33.417Z</time></trkpt><trkpt lat="43.2646682" lon="10.8034712"><ele>475.5</ele><time>2026-04-18T09:27:34.393Z</time></trkpt><trkpt lat="43.2645455" lon="10.8034768"><ele>476.75</ele><time>2026-04-18T09:27:35.4Z</time></trkpt><trkpt lat="43.2644286" lon="10.8034993"><ele>478.0</ele><time>2026-04-18T09:27:36.412Z</time></trkpt><trkpt lat="43.2643125" lon="10.8035152"><ele>474.75</ele><time>2026-04-18T09:27:37.406Z</time></trkpt><trkpt lat="43.2641111" lon="10.8034438"><ele>471.5</ele><time>2026-04-18T09:27:39.367Z</time></trkpt><trkpt lat="43.2640221" lon="10.8033686"><ele>468.25</ele><time>2026-04-18T09:27:40.3Z</time></trkpt><trkpt lat="43.2639323" lon="10.8032766"><ele>465.0</ele><time>2026-04-18T09:27:41.3Z</time></trkpt><trkpt lat="43.2638509" lon="10.8031785"><ele>465.0</ele><time>2026-04-18T09:27:42.325Z</time></trkpt><trkpt lat="43.2637728" lon="10.8030858"><ele>465.0</ele><time>2026-04-18T09:27:43.363Z</time></trkpt><trkpt lat="43.2637027" lon="10.8029935"><ele>465.0</ele><time>2026-04-18T09:27:44.299Z</time></trkpt><trkpt lat="43.2636368" lon="10.8028687"><ele>465.0</ele><time>2026-04-18T09:27:45.362Z</time></trkpt><trkpt lat="43.2635899" lon="10.8027252"><ele>465.0</ele><time>2026-04-18T09:27:46.3Z</time></trkpt><trkpt lat="43.2635678" lon="10.8025712"><ele>465.25</ele><time>2026-04-18T09:27:47.297Z</time></trkpt><trkpt lat="43.2635674" lon="10.8024053"><ele>465.5</ele><time>2026-04-18T09:27:48.289Z</time></trkpt><trkpt lat="43.2635898" lon="10.8022433"><ele>465.75</ele><time>2026-04-18T09:27:49.294Z</time></trkpt><trkpt lat="43.2636189" lon="10.8020766"><ele>466.0</ele><time>2026-04-18T09:27:50.296Z</time></trkpt><trkpt lat="43.2636494" lon="10.8018963"><ele>466.0</ele><time>2026-04-18T09:27:51.291Z</time></trkpt><trkpt lat="43.2636752" lon="10.8017525"><ele>466.0</ele><time>2026-04-18T09:27:52.296Z</time></trkpt><trkpt lat="43.2637087" lon="10.801606"><ele>466.0</ele><time>2026-04-18T09:27:53.296Z</time></trkpt><trkpt lat="43.2637544" lon="10.8014638"><ele>466.0</ele><time>2026-04-18T09:27:54.397Z</time></trkpt><trkpt lat="43.2637965" lon="10.8013383"><ele>466.0</ele><time>2026-04-18T09:27:55.304Z</time></trkpt><trkpt lat="43.2638363" lon="10.8012218"><ele>466.00000000000006</ele><time>2026-04-18T09:27:56.407Z</time></trkpt><trkpt lat="43.2638666" lon="10.8011042"><ele>466.0</ele><time>2026-04-18T09:27:57.315Z</time></trkpt><trkpt lat="43.2638842" lon="10.8009839"><ele>466.0</ele><time>2026-04-18T09:27:58.392Z</time></trkpt><trkpt lat="43.2638618" lon="10.8008776"><ele>466.0</ele><time>2026-04-18T09:27:59.399Z</time></trkpt><trkpt lat="43.2638183" lon="10.8007792"><ele>466.00000000000006</ele><time>2026-04-18T09:28:00.394Z</time></trkpt><trkpt lat="43.263763" lon="10.8006956"><ele>466.0</ele><time>2026-04-18T09:28:01.394Z</time></trkpt><trkpt lat="43.263683" lon="10.800607"><ele>465.25</ele><time>2026-04-18T09:28:02.403Z</time></trkpt><trkpt lat="43.2635971" lon="10.8005141"><ele>464.5</ele><time>2026-04-18T09:28:03.417Z</time></trkpt><trkpt lat="43.2635069" lon="10.8004229"><ele>463.75</ele><time>2026-04-18T09:28:04.399Z</time></trkpt><trkpt lat="43.2634146" lon="10.8003288"><ele>463.0</ele><time>2026-04-18T09:28:05.392Z</time></trkpt><trkpt lat="43.263313" lon="10.8002234"><ele>464.25</ele><time>2026-04-18T09:28:06.412Z</time></trkpt><trkpt lat="43.2632122" lon="10.8001179"><ele>465.5</ele><time>2026-04-18T09:28:07.389Z</time></trkpt><trkpt lat="43.2631056" lon="10.8000063"><ele>466.75</ele><time>2026-04-18T09:28:08.41Z</time></trkpt><trkpt lat="43.2629943" lon="10.7998967"><ele>468.0</ele><time>2026-04-18T09:28:09.397Z</time></trkpt><trkpt lat="43.2628918" lon="10.7997925"><ele>468.2</ele><time>2026-04-18T09:28:10.319Z</time></trkpt><trkpt lat="43.2627964" lon="10.7996945"><ele>468.4</ele><time>2026-04-18T09:28:11.301Z</time></trkpt><trkpt lat="43.2627051" lon="10.7996127"><ele>468.59999999999997</ele><time>2026-04-18T09:28:12.3Z</time></trkpt><trkpt lat="43.2626178" lon="10.7995345"><ele>468.79999999999995</ele><time>2026-04-18T09:28:13.396Z</time></trkpt><trkpt lat="43.2625302" lon="10.7994527"><ele>469.0</ele><time>2026-04-18T09:28:14.419Z</time></trkpt><trkpt lat="43.2624497" lon="10.799359"><ele>471.0</ele><time>2026-04-18T09:28:15.402Z</time></trkpt><trkpt lat="43.2623763" lon="10.7992476"><ele>473.0</ele><time>2026-04-18T09:28:16.414Z</time></trkpt><trkpt lat="43.2622614" lon="10.7989376"><ele>475.0</ele><time>2026-04-18T09:28:18.293Z</time></trkpt><trkpt lat="43.2622213" lon="10.7987589"><ele>477.6666666666667</ele><time>2026-04-18T09:28:19.349Z</time></trkpt><trkpt lat="43.2621835" lon="10.7985803"><ele>480.33333333333337</ele><time>2026-04-18T09:28:20.404Z</time></trkpt><trkpt lat="43.2621059" lon="10.7982367"><ele>483.0</ele><time>2026-04-18T09:28:22.419Z</time></trkpt><trkpt lat="43.2620315" lon="10.7979191"><ele>484.0</ele><time>2026-04-18T09:28:24.407Z</time></trkpt><trkpt lat="43.2619986" lon="10.7977657"><ele>485.0</ele><time>2026-04-18T09:28:25.392Z</time></trkpt><trkpt lat="43.2619602" lon="10.7976112"><ele>486.0</ele><time>2026-04-18T09:28:26.414Z</time></trkpt><trkpt lat="43.2619161" lon="10.797454"><ele>487.0</ele><time>2026-04-18T09:28:27.397Z</time></trkpt><trkpt lat="43.2618709" lon="10.7972989"><ele>487.0</ele><time>2026-04-18T09:28:28.401Z</time></trkpt><trkpt lat="43.2618248" lon="10.7971556"><ele>487.0</ele><time>2026-04-18T09:28:29.392Z</time></trkpt><trkpt lat="43.261793" lon="10.7970137"><ele>487.0</ele><time>2026-04-18T09:28:30.297Z</time></trkpt><trkpt lat="43.261667" lon="10.7965706"><ele>485.25</ele><time>2026-04-18T09:28:33.295Z</time></trkpt><trkpt lat="43.2616072" lon="10.7964126"><ele>483.5</ele><time>2026-04-18T09:28:34.301Z</time></trkpt><trkpt lat="43.261547" lon="10.7962494"><ele>481.75</ele><time>2026-04-18T09:28:35.389Z</time></trkpt><trkpt lat="43.2614963" lon="10.7960771"><ele>480.0</ele><time>2026-04-18T09:28:36.411Z</time></trkpt><trkpt lat="43.26145" lon="10.7959164"><ele>479.25</ele><time>2026-04-18T09:28:37.414Z</time></trkpt><trkpt lat="43.2614027" lon="10.795755"><ele>478.5</ele><time>2026-04-18T09:28:38.396Z</time></trkpt><trkpt lat="43.2613452" lon="10.7955965"><ele>477.75</ele><time>2026-04-18T09:28:39.393Z</time></trkpt><trkpt lat="43.2612816" lon="10.7954354"><ele>477.0</ele><time>2026-04-18T09:28:40.302Z</time></trkpt><trkpt lat="43.2612086" lon="10.7952737"><ele>475.0</ele><time>2026-04-18T09:28:41.297Z</time></trkpt><trkpt lat="43.2611268" lon="10.7951096"><ele>473.0</ele><time>2026-04-18T09:28:42.298Z</time></trkpt><trkpt lat="43.26104" lon="10.7949454"><ele>471.0</ele><time>2026-04-18T09:28:43.297Z</time></trkpt><trkpt lat="43.2609511" lon="10.7947801"><ele>469.0</ele><time>2026-04-18T09:28:44.411Z</time></trkpt><trkpt lat="43.2608643" lon="10.7946128"><ele>467.0</ele><time>2026-04-18T09:28:45.413Z</time></trkpt><trkpt lat="43.2606975" lon="10.7942943"><ele>465.0</ele><time>2026-04-18T09:28:47.301Z</time></trkpt><trkpt lat="43.2606175" lon="10.7941388"><ele>463.0</ele><time>2026-04-18T09:28:48.294Z</time></trkpt><trkpt lat="43.2605515" lon="10.7939891"><ele>462.0</ele><time>2026-04-18T09:28:49.399Z</time></trkpt><trkpt lat="43.2604971" lon="10.7938328"><ele>461.0</ele><time>2026-04-18T09:28:50.392Z</time></trkpt><trkpt lat="43.2604523" lon="10.7936569"><ele>460.0</ele><time>2026-04-18T09:28:51.386Z</time></trkpt><trkpt lat="43.2604133" lon="10.7934851"><ele>459.0</ele><time>2026-04-18T09:28:52.392Z</time></trkpt><trkpt lat="43.2603658" lon="10.7933085"><ele>459.0</ele><time>2026-04-18T09:28:53.4Z</time></trkpt><trkpt lat="43.2603038" lon="10.7931403"><ele>459.0</ele><time>2026-04-18T09:28:54.412Z</time></trkpt><trkpt lat="43.2602359" lon="10.7929689"><ele>459.0</ele><time>2026-04-18T09:28:55.411Z</time></trkpt><trkpt lat="43.2601683" lon="10.7928089"><ele>459.0</ele><time>2026-04-18T09:28:56.396Z</time></trkpt><trkpt lat="43.2600169" lon="10.7924979"><ele>460.0</ele><time>2026-04-18T09:28:58.293Z</time></trkpt><trkpt lat="43.2599288" lon="10.7923328"><ele>461.0</ele><time>2026-04-18T09:28:59.296Z</time></trkpt><trkpt lat="43.2598354" lon="10.7921653"><ele>462.0</ele><time>2026-04-18T09:29:00.41Z</time></trkpt><trkpt lat="43.2597371" lon="10.7919928"><ele>460.66666666666663</ele><time>2026-04-18T09:29:01.392Z</time></trkpt><trkpt lat="43.2596307" lon="10.7918241"><ele>459.3333333333333</ele><time>2026-04-18T09:29:02.41Z</time></trkpt><trkpt lat="43.2595161" lon="10.7916549"><ele>458.0</ele><time>2026-04-18T09:29:03.423Z</time></trkpt><trkpt lat="43.2594075" lon="10.7914822"><ele>458.0</ele><time>2026-04-18T09:29:04.405Z</time></trkpt><trkpt lat="43.259302" lon="10.7912968"><ele>458.0</ele><time>2026-04-18T09:29:05.418Z</time></trkpt><trkpt lat="43.2592046" lon="10.7911073"><ele>458.0</ele><time>2026-04-18T09:29:06.423Z</time></trkpt><trkpt lat="43.2591174" lon="10.7909314"><ele>458.0</ele><time>2026-04-18T09:29:07.408Z</time></trkpt><trkpt lat="43.2590446" lon="10.7907667"><ele>458.0</ele><time>2026-04-18T09:29:08.398Z</time></trkpt><trkpt lat="43.2589763" lon="10.7906047"><ele>458.0</ele><time>2026-04-18T09:29:09.396Z</time></trkpt><trkpt lat="43.2589047" lon="10.7904386"><ele>458.0</ele><time>2026-04-18T09:29:10.302Z</time></trkpt><trkpt lat="43.2588329" lon="10.7902709"><ele>457.66666666666663</ele><time>2026-04-18T09:29:11.297Z</time></trkpt><trkpt lat="43.2587626" lon="10.7901"><ele>457.33333333333337</ele><time>2026-04-18T09:29:12.392Z</time></trkpt><trkpt lat="43.2586976" lon="10.7899317"><ele>457.0</ele><time>2026-04-18T09:29:13.413Z</time></trkpt><trkpt lat="43.2585917" lon="10.7895594"><ele>457.0</ele><time>2026-04-18T09:29:15.294Z</time></trkpt><trkpt lat="43.2585449" lon="10.789358"><ele>457.0</ele><time>2026-04-18T09:29:16.294Z</time></trkpt><trkpt lat="43.2585" lon="10.7891596"><ele>457.0</ele><time>2026-04-18T09:29:17.296Z</time></trkpt><trkpt lat="43.2584677" lon="10.7889689"><ele>457.0</ele><time>2026-04-18T09:29:18.296Z</time></trkpt><trkpt lat="43.2584455" lon="10.788783"><ele>456.5</ele><time>2026-04-18T09:29:19.296Z</time></trkpt><trkpt lat="43.2584277" lon="10.7885854"><ele>456.0</ele><time>2026-04-18T09:29:20.298Z</time></trkpt><trkpt lat="43.2584165" lon="10.7884029"><ele>455.5</ele><time>2026-04-18T09:29:21.356Z</time></trkpt><trkpt lat="43.2584129" lon="10.7882167"><ele>455.0</ele><time>2026-04-18T09:29:22.29Z</time></trkpt><trkpt lat="43.2584115" lon="10.788045"><ele>455.0</ele><time>2026-04-18T09:29:23.288Z</time></trkpt><trkpt lat="43.2584116" lon="10.7878905"><ele>455.0</ele><time>2026-04-18T09:29:24.293Z</time></trkpt><trkpt lat="43.2584069" lon="10.7877432"><ele>455.0</ele><time>2026-04-18T09:29:25.291Z</time></trkpt><trkpt lat="43.2583979" lon="10.7876012"><ele>455.0</ele><time>2026-04-18T09:29:26.299Z</time></trkpt><trkpt lat="43.2583811" lon="10.7874714"><ele>455.0</ele><time>2026-04-18T09:29:27.291Z</time></trkpt><trkpt lat="43.2583492" lon="10.7873663"><ele>455.5</ele><time>2026-04-18T09:29:28.3Z</time></trkpt><trkpt lat="43.258303" lon="10.7872773"><ele>456.0</ele><time>2026-04-18T09:29:29.411Z</time></trkpt><trkpt lat="43.2582321" lon="10.7871926"><ele>456.5</ele><time>2026-04-18T09:29:30.396Z</time></trkpt><trkpt lat="43.2581458" lon="10.7871189"><ele>457.0</ele><time>2026-04-18T09:29:31.406Z</time></trkpt><trkpt lat="43.2579586" lon="10.7869556"><ele>454.0</ele><time>2026-04-18T09:29:33.421Z</time></trkpt><trkpt lat="43.2578569" lon="10.7868627"><ele>451.0</ele><time>2026-04-18T09:29:34.412Z</time></trkpt><trkpt lat="43.2577535" lon="10.7867597"><ele>448.0</ele><time>2026-04-18T09:29:35.404Z</time></trkpt><trkpt lat="43.2575604" lon="10.7865568"><ele>448.0</ele><time>2026-04-18T09:29:37.3Z</time></trkpt><trkpt lat="43.2574727" lon="10.7864467"><ele>448.0</ele><time>2026-04-18T09:29:38.395Z</time></trkpt><trkpt lat="43.2573847" lon="10.7863322"><ele>448.0</ele><time>2026-04-18T09:29:39.42Z</time></trkpt><trkpt lat="43.257239" lon="10.7861212"><ele>445.0</ele><time>2026-04-18T09:29:41.419Z</time></trkpt><trkpt lat="43.2571668" lon="10.7858943"><ele>442.0</ele><time>2026-04-18T09:29:43.406Z</time></trkpt><trkpt lat="43.2571615" lon="10.7857698"><ele>439.0</ele><time>2026-04-18T09:29:44.414Z</time></trkpt><trkpt lat="43.2571729" lon="10.7856416"><ele>436.0</ele><time>2026-04-18T09:29:45.411Z</time></trkpt><trkpt lat="43.2571873" lon="10.7855181"><ele>436.0</ele><time>2026-04-18T09:29:46.423Z</time></trkpt><trkpt lat="43.2571687" lon="10.7852718"><ele>436.0</ele><time>2026-04-18T09:29:48.299Z</time></trkpt><trkpt lat="43.25713" lon="10.7851569"><ele>436.0</ele><time>2026-04-18T09:29:49.304Z</time></trkpt><trkpt lat="43.2570712" lon="10.7850379"><ele>436.0</ele><time>2026-04-18T09:29:50.414Z</time></trkpt><trkpt lat="43.2570049" lon="10.7849183"><ele>437.33333333333337</ele><time>2026-04-18T09:29:51.41Z</time></trkpt><trkpt lat="43.2569019" lon="10.7846422"><ele>438.66666666666663</ele><time>2026-04-18T09:29:53.392Z</time></trkpt><trkpt lat="43.2568608" lon="10.7844713"><ele>440.0</ele><time>2026-04-18T09:29:54.3Z</time></trkpt><trkpt lat="43.2568326" lon="10.7842828"><ele>441.0</ele><time>2026-04-18T09:29:55.422Z</time></trkpt><trkpt lat="43.2568024" lon="10.7841129"><ele>442.0</ele><time>2026-04-18T09:29:56.413Z</time></trkpt><trkpt lat="43.2567749" lon="10.7839547"><ele>443.0</ele><time>2026-04-18T09:29:57.415Z</time></trkpt><trkpt lat="43.256752" lon="10.7838099"><ele>444.0</ele><time>2026-04-18T09:29:58.413Z</time></trkpt><trkpt lat="43.2567377" lon="10.7835424"><ele>444.8333333333333</ele><time>2026-04-18T09:30:00.415Z</time></trkpt><trkpt lat="43.2567266" lon="10.7834231"><ele>445.66666666666663</ele><time>2026-04-18T09:30:01.372Z</time></trkpt><trkpt lat="43.2567058" lon="10.7833135"><ele>446.5</ele><time>2026-04-18T09:30:02.299Z</time></trkpt><trkpt lat="43.2566678" lon="10.7832102"><ele>447.3333333333333</ele><time>2026-04-18T09:30:03.397Z</time></trkpt><trkpt lat="43.2566154" lon="10.7831375"><ele>448.16666666666663</ele><time>2026-04-18T09:30:04.397Z</time></trkpt><trkpt lat="43.2565426" lon="10.7830951"><ele>449.0</ele><time>2026-04-18T09:30:05.299Z</time></trkpt><trkpt lat="43.2564566" lon="10.7830697"><ele>449.4</ele><time>2026-04-18T09:30:06.291Z</time></trkpt><trkpt lat="43.2563587" lon="10.7830581"><ele>449.79999999999995</ele><time>2026-04-18T09:30:07.292Z</time></trkpt><trkpt lat="43.2562541" lon="10.7830574"><ele>450.20000000000005</ele><time>2026-04-18T09:30:08.3Z</time></trkpt><trkpt lat="43.2561314" lon="10.7830651"><ele>450.6</ele><time>2026-04-18T09:30:09.298Z</time></trkpt><trkpt lat="43.2560102" lon="10.7830659"><ele>451.0</ele><time>2026-04-18T09:30:10.407Z</time></trkpt><trkpt lat="43.2559051" lon="10.7830416"><ele>451.0</ele><time>2026-04-18T09:30:11.424Z</time></trkpt><trkpt lat="43.2557231" lon="10.7829048"><ele>451.0</ele><time>2026-04-18T09:30:13.368Z</time></trkpt><trkpt lat="43.2556415" lon="10.7827932"><ele>451.0</ele><time>2026-04-18T09:30:14.423Z</time></trkpt><trkpt lat="43.2555568" lon="10.7826654"><ele>451.0</ele><time>2026-04-18T09:30:15.413Z</time></trkpt><trkpt lat="43.2554803" lon="10.7825663"><ele>451.0</ele><time>2026-04-18T09:30:16.393Z</time></trkpt><trkpt lat="43.2554138" lon="10.7824644"><ele>451.0</ele><time>2026-04-18T09:30:17.391Z</time></trkpt><trkpt lat="43.2553655" lon="10.7823524"><ele>451.0</ele><time>2026-04-18T09:30:18.382Z</time></trkpt><trkpt lat="43.2553428" lon="10.7822423"><ele>451.0</ele><time>2026-04-18T09:30:19.304Z</time></trkpt><trkpt lat="43.2553313" lon="10.7821181"><ele>451.0</ele><time>2026-04-18T09:30:20.422Z</time></trkpt><trkpt lat="43.2553165" lon="10.7819629"><ele>453.4</ele><time>2026-04-18T09:30:21.395Z</time></trkpt><trkpt lat="43.2552833" lon="10.7818182"><ele>455.8</ele><time>2026-04-18T09:30:22.398Z</time></trkpt><trkpt lat="43.2552336" lon="10.781682"><ele>458.19999999999993</ele><time>2026-04-18T09:30:23.39Z</time></trkpt><trkpt lat="43.2551814" lon="10.7815585"><ele>460.59999999999997</ele><time>2026-04-18T09:30:24.392Z</time></trkpt><trkpt lat="43.2551218" lon="10.7814507"><ele>463.0</ele><time>2026-04-18T09:30:25.411Z</time></trkpt><trkpt lat="43.2550518" lon="10.781353"><ele>463.0</ele><time>2026-04-18T09:30:26.419Z</time></trkpt><trkpt lat="43.2548924" lon="10.7811789"><ele>463.0</ele><time>2026-04-18T09:30:28.414Z</time></trkpt><trkpt lat="43.2548071" lon="10.7811184"><ele>463.0</ele><time>2026-04-18T09:30:29.369Z</time></trkpt><trkpt lat="43.2547251" lon="10.7810931"><ele>463.0</ele><time>2026-04-18T09:30:30.39Z</time></trkpt><trkpt lat="43.2546408" lon="10.7810951"><ele>462.0</ele><time>2026-04-18T09:30:31.396Z</time></trkpt><trkpt lat="43.2545616" lon="10.7811199"><ele>460.99999999999994</ele><time>2026-04-18T09:30:32.298Z</time></trkpt><trkpt lat="43.2544742" lon="10.7811764"><ele>459.99999999999994</ele><time>2026-04-18T09:30:33.303Z</time></trkpt><trkpt lat="43.2543761" lon="10.7812247"><ele>459.0</ele><time>2026-04-18T09:30:34.319Z</time></trkpt><trkpt lat="43.2542719" lon="10.781235"><ele>458.0</ele><time>2026-04-18T09:30:35.394Z</time></trkpt><trkpt lat="43.2541726" lon="10.7812111"><ele>458.0</ele><time>2026-04-18T09:30:36.424Z</time></trkpt><trkpt lat="43.2540786" lon="10.7811543"><ele>458.0</ele><time>2026-04-18T09:30:37.401Z</time></trkpt><trkpt lat="43.2539826" lon="10.7810743"><ele>458.0</ele><time>2026-04-18T09:30:38.419Z</time></trkpt><trkpt lat="43.2538812" lon="10.7809772"><ele>458.0</ele><time>2026-04-18T09:30:39.419Z</time></trkpt><trkpt lat="43.253782" lon="10.7808769"><ele>459.3333333333333</ele><time>2026-04-18T09:30:40.427Z</time></trkpt><trkpt lat="43.2537" lon="10.7807691"><ele>460.66666666666663</ele><time>2026-04-18T09:30:41.415Z</time></trkpt><trkpt lat="43.2535784" lon="10.7804955"><ele>462.0</ele><time>2026-04-18T09:30:43.409Z</time></trkpt><trkpt lat="43.2535239" lon="10.7803417"><ele>462.0</ele><time>2026-04-18T09:30:44.389Z</time></trkpt><trkpt lat="43.2534571" lon="10.7801971"><ele>462.0</ele><time>2026-04-18T09:30:45.395Z</time></trkpt><trkpt lat="43.2533737" lon="10.780051"><ele>462.0</ele><time>2026-04-18T09:30:46.297Z</time></trkpt><trkpt lat="43.253276" lon="10.7799107"><ele>462.0</ele><time>2026-04-18T09:30:47.301Z</time></trkpt><trkpt lat="43.2531751" lon="10.779783"><ele>461.5</ele><time>2026-04-18T09:30:48.301Z</time></trkpt><trkpt lat="43.2530778" lon="10.7796621"><ele>461.0</ele><time>2026-04-18T09:30:49.303Z</time></trkpt><trkpt lat="43.2529739" lon="10.7795426"><ele>460.5</ele><time>2026-04-18T09:30:50.301Z</time></trkpt><trkpt lat="43.2528662" lon="10.7794317"><ele>460.0</ele><time>2026-04-18T09:30:51.419Z</time></trkpt><trkpt lat="43.252755" lon="10.7793342"><ele>463.75</ele><time>2026-04-18T09:30:52.421Z</time></trkpt><trkpt lat="43.2526464" lon="10.7792386"><ele>467.5</ele><time>2026-04-18T09:30:53.409Z</time></trkpt><trkpt lat="43.2525381" lon="10.7791451"><ele>471.25</ele><time>2026-04-18T09:30:54.42Z</time></trkpt><trkpt lat="43.2524287" lon="10.7790522"><ele>475.0</ele><time>2026-04-18T09:30:55.409Z</time></trkpt><trkpt lat="43.2523177" lon="10.7789531"><ele>472.75</ele><time>2026-04-18T09:30:56.427Z</time></trkpt><trkpt lat="43.2522047" lon="10.7788529"><ele>470.5</ele><time>2026-04-18T09:30:57.391Z</time></trkpt><trkpt lat="43.2520851" lon="10.7787533"><ele>468.25</ele><time>2026-04-18T09:30:58.393Z</time></trkpt><trkpt lat="43.2519576" lon="10.778657"><ele>466.0</ele><time>2026-04-18T09:30:59.421Z</time></trkpt><trkpt lat="43.251827" lon="10.7785645"><ele>467.33333333333337</ele><time>2026-04-18T09:31:00.423Z</time></trkpt><trkpt lat="43.2516957" lon="10.7784719"><ele>468.66666666666663</ele><time>2026-04-18T09:31:01.413Z</time></trkpt><trkpt lat="43.2514548" lon="10.7782983"><ele>470.0</ele><time>2026-04-18T09:31:03.407Z</time></trkpt><trkpt lat="43.2513398" lon="10.77822"><ele>470.4</ele><time>2026-04-18T09:31:04.392Z</time></trkpt><trkpt lat="43.2512298" lon="10.7781502"><ele>470.8</ele><time>2026-04-18T09:31:05.413Z</time></trkpt><trkpt lat="43.2511268" lon="10.778091"><ele>471.20000000000005</ele><time>2026-04-18T09:31:06.403Z</time></trkpt><trkpt lat="43.2510399" lon="10.7780417"><ele>471.6</ele><time>2026-04-18T09:31:07.302Z</time></trkpt><trkpt lat="43.2509626" lon="10.778004"><ele>472.0</ele><time>2026-04-18T09:31:08.393Z</time></trkpt><trkpt lat="43.2508745" lon="10.777987"><ele>472.0</ele><time>2026-04-18T09:31:09.426Z</time></trkpt><trkpt lat="43.2507807" lon="10.7779904"><ele>472.00000000000006</ele><time>2026-04-18T09:31:10.41Z</time></trkpt><trkpt lat="43.2506723" lon="10.7780008"><ele>472.00000000000006</ele><time>2026-04-18T09:31:11.327Z</time></trkpt><trkpt lat="43.2505624" lon="10.7780235"><ele>472.0</ele><time>2026-04-18T09:31:12.338Z</time></trkpt><trkpt lat="43.2504413" lon="10.7780625"><ele>472.0</ele><time>2026-04-18T09:31:13.405Z</time></trkpt><trkpt lat="43.2503175" lon="10.778072"><ele>473.0</ele><time>2026-04-18T09:31:14.416Z</time></trkpt><trkpt lat="43.2501905" lon="10.778075"><ele>474.0</ele><time>2026-04-18T09:31:15.408Z</time></trkpt><trkpt lat="43.2500807" lon="10.7780761"><ele>475.0</ele><time>2026-04-18T09:31:16.417Z</time></trkpt><trkpt lat="43.2498903" lon="10.7780395"><ele>476.0</ele><time>2026-04-18T09:31:18.303Z</time></trkpt><trkpt lat="43.2498209" lon="10.7779926"><ele>481.5</ele><time>2026-04-18T09:31:19.416Z</time></trkpt><trkpt lat="43.2497569" lon="10.7779183"><ele>487.0</ele><time>2026-04-18T09:31:20.413Z</time></trkpt><trkpt lat="43.2496122" lon="10.7777335"><ele>492.5</ele><time>2026-04-18T09:31:22.293Z</time></trkpt><trkpt lat="43.2495194" lon="10.7776205"><ele>498.0</ele><time>2026-04-18T09:31:23.294Z</time></trkpt><trkpt lat="43.2494269" lon="10.7775041"><ele>498.0</ele><time>2026-04-18T09:31:24.303Z</time></trkpt><trkpt lat="43.2493349" lon="10.77738"><ele>498.0</ele><time>2026-04-18T09:31:25.3Z</time></trkpt><trkpt lat="43.249257" lon="10.7772583"><ele>498.0</ele><time>2026-04-18T09:31:26.417Z</time></trkpt><trkpt lat="43.2492045" lon="10.7771453"><ele>498.0</ele><time>2026-04-18T09:31:27.413Z</time></trkpt><trkpt lat="43.249157" lon="10.7769036"><ele>497.0</ele><time>2026-04-18T09:31:29.304Z</time></trkpt><trkpt lat="43.2491403" lon="10.7767872"><ele>495.99999999999994</ele><time>2026-04-18T09:31:30.406Z</time></trkpt><trkpt lat="43.2491098" lon="10.7766724"><ele>494.99999999999994</ele><time>2026-04-18T09:31:31.392Z</time></trkpt><trkpt lat="43.2490611" lon="10.7765655"><ele>494.0</ele><time>2026-04-18T09:31:32.401Z</time></trkpt><trkpt lat="43.2489942" lon="10.7764737"><ele>493.0</ele><time>2026-04-18T09:31:33.388Z</time></trkpt><trkpt lat="43.2489139" lon="10.776389"><ele>495.0</ele><time>2026-04-18T09:31:34.391Z</time></trkpt><trkpt lat="43.2488341" lon="10.7762888"><ele>496.99999999999994</ele><time>2026-04-18T09:31:35.299Z</time></trkpt><trkpt lat="43.2487576" lon="10.7761725"><ele>498.99999999999994</ele><time>2026-04-18T09:31:36.298Z</time></trkpt><trkpt lat="43.2486963" lon="10.7760573"><ele>501.0</ele><time>2026-04-18T09:31:37.404Z</time></trkpt><trkpt lat="43.2486577" lon="10.7759515"><ele>503.0</ele><time>2026-04-18T09:31:38.411Z</time></trkpt><trkpt lat="43.24861" lon="10.7758554"><ele>503.0</ele><time>2026-04-18T09:31:39.394Z</time></trkpt><trkpt lat="43.2485574" lon="10.7757943"><ele>503.00000000000006</ele><time>2026-04-18T09:31:40.389Z</time></trkpt><trkpt lat="43.2484963" lon="10.775755"><ele>503.0</ele><time>2026-04-18T09:31:41.299Z</time></trkpt><trkpt lat="43.2484304" lon="10.775747"><ele>503.0</ele><time>2026-04-18T09:31:42.297Z</time></trkpt><trkpt lat="43.2483577" lon="10.7757722"><ele>503.00000000000006</ele><time>2026-04-18T09:31:43.302Z</time></trkpt><trkpt lat="43.2482906" lon="10.7758194"><ele>503.0</ele><time>2026-04-18T09:31:44.302Z</time></trkpt><trkpt lat="43.2482091" lon="10.7758772"><ele>503.0</ele><time>2026-04-18T09:31:45.304Z</time></trkpt><trkpt lat="43.2481354" lon="10.7759283"><ele>503.4</ele><time>2026-04-18T09:31:46.292Z</time></trkpt><trkpt lat="43.2480479" lon="10.7759354"><ele>503.79999999999995</ele><time>2026-04-18T09:31:47.302Z</time></trkpt><trkpt lat="43.2479603" lon="10.7759452"><ele>504.2</ele><time>2026-04-18T09:31:48.301Z</time></trkpt><trkpt lat="43.2478617" lon="10.7759208"><ele>504.6</ele><time>2026-04-18T09:31:49.302Z</time></trkpt><trkpt lat="43.2477736" lon="10.7758972"><ele>505.0</ele><time>2026-04-18T09:31:50.297Z</time></trkpt><trkpt lat="43.2476891" lon="10.7758753"><ele>505.0</ele><time>2026-04-18T09:31:51.303Z</time></trkpt><trkpt lat="43.247597" lon="10.775883"><ele>505.0</ele><time>2026-04-18T09:31:52.302Z</time></trkpt><trkpt lat="43.2474953" lon="10.7759058"><ele>505.0</ele><time>2026-04-18T09:31:53.304Z</time></trkpt><trkpt lat="43.2473899" lon="10.7759445"><ele>505.0</ele><time>2026-04-18T09:31:54.301Z</time></trkpt><trkpt lat="43.2472863" lon="10.775989"><ele>505.0</ele><time>2026-04-18T09:31:55.395Z</time></trkpt><trkpt lat="43.2471751" lon="10.7760369"><ele>506.25</ele><time>2026-04-18T09:31:56.42Z</time></trkpt><trkpt lat="43.2470647" lon="10.7761062"><ele>507.5</ele><time>2026-04-18T09:31:57.416Z</time></trkpt><trkpt lat="43.2468757" lon="10.7761484"><ele>508.75</ele><time>2026-04-18T09:31:59.423Z</time></trkpt><trkpt lat="43.2468055" lon="10.7760759"><ele>510.0</ele><time>2026-04-18T09:32:00.41Z</time></trkpt><trkpt lat="43.2467182" lon="10.7759986"><ele>510.0</ele><time>2026-04-18T09:32:01.401Z</time></trkpt><trkpt lat="43.2466355" lon="10.7759026"><ele>510.0</ele><time>2026-04-18T09:32:02.39Z</time></trkpt><trkpt lat="43.2465518" lon="10.7757908"><ele>510.0</ele><time>2026-04-18T09:32:03.4Z</time></trkpt><trkpt lat="43.246454" lon="10.7756863"><ele>510.0</ele><time>2026-04-18T09:32:04.301Z</time></trkpt><trkpt lat="43.246361" lon="10.7755778"><ele>511.0</ele><time>2026-04-18T09:32:05.411Z</time></trkpt><trkpt lat="43.2462076" lon="10.7753342"><ele>512.0</ele><time>2026-04-18T09:32:07.297Z</time></trkpt><trkpt lat="43.2461535" lon="10.775207"><ele>513.0</ele><time>2026-04-18T09:32:08.298Z</time></trkpt><trkpt lat="43.246106" lon="10.7751033"><ele>514.0</ele><time>2026-04-18T09:32:09.298Z</time></trkpt><trkpt lat="43.2460581" lon="10.775016"><ele>512.5</ele><time>2026-04-18T09:32:10.296Z</time></trkpt><trkpt lat="43.2460098" lon="10.7749542"><ele>511.0</ele><time>2026-04-18T09:32:11.294Z</time></trkpt><trkpt lat="43.2459469" lon="10.7749219"><ele>509.5</ele><time>2026-04-18T09:32:12.294Z</time></trkpt><trkpt lat="43.2458655" lon="10.7749125"><ele>508.0</ele><time>2026-04-18T09:32:13.399Z</time></trkpt><trkpt lat="43.2457925" lon="10.7749326"><ele>506.50000000000006</ele><time>2026-04-18T09:32:14.416Z</time></trkpt><trkpt lat="43.2457137" lon="10.7749817"><ele>505.0</ele><time>2026-04-18T09:32:15.411Z</time></trkpt><trkpt lat="43.2456398" lon="10.7750419"><ele>504.6</ele><time>2026-04-18T09:32:16.413Z</time></trkpt><trkpt lat="43.245562" lon="10.7750832"><ele>504.2</ele><time>2026-04-18T09:32:17.407Z</time></trkpt><trkpt lat="43.2454057" lon="10.7750732"><ele>503.79999999999995</ele><time>2026-04-18T09:32:19.295Z</time></trkpt><trkpt lat="43.2453225" lon="10.7750224"><ele>503.4</ele><time>2026-04-18T09:32:20.401Z</time></trkpt><trkpt lat="43.2452375" lon="10.7749695"><ele>503.0</ele><time>2026-04-18T09:32:21.39Z</time></trkpt><trkpt lat="43.2451273" lon="10.7748876"><ele>503.0</ele><time>2026-04-18T09:32:22.414Z</time></trkpt><trkpt lat="43.2450162" lon="10.7748087"><ele>503.0</ele><time>2026-04-18T09:32:23.415Z</time></trkpt><trkpt lat="43.2447846" lon="10.7746335"><ele>503.0</ele><time>2026-04-18T09:32:25.414Z</time></trkpt><trkpt lat="43.2446739" lon="10.774549"><ele>502.5</ele><time>2026-04-18T09:32:26.413Z</time></trkpt><trkpt lat="43.2445693" lon="10.7744613"><ele>502.0</ele><time>2026-04-18T09:32:27.394Z</time></trkpt><trkpt lat="43.2444589" lon="10.7743829"><ele>501.5</ele><time>2026-04-18T09:32:28.395Z</time></trkpt><trkpt lat="43.2443516" lon="10.7743073"><ele>501.0</ele><time>2026-04-18T09:32:29.322Z</time></trkpt><trkpt lat="43.2442546" lon="10.7742277"><ele>501.0</ele><time>2026-04-18T09:32:30.331Z</time></trkpt><trkpt lat="43.2441718" lon="10.7741265"><ele>501.0</ele><time>2026-04-18T09:32:31.411Z</time></trkpt><trkpt lat="43.2440374" lon="10.7738916"><ele>501.0</ele><time>2026-04-18T09:32:33.413Z</time></trkpt><trkpt lat="43.2440192" lon="10.7737617"><ele>501.0</ele><time>2026-04-18T09:32:34.409Z</time></trkpt><trkpt lat="43.2440059" lon="10.773636"><ele>500.6</ele><time>2026-04-18T09:32:35.417Z</time></trkpt><trkpt lat="43.2439893" lon="10.7735187"><ele>500.20000000000005</ele><time>2026-04-18T09:32:36.409Z</time></trkpt><trkpt lat="43.2439522" lon="10.7733964"><ele>499.79999999999995</ele><time>2026-04-18T09:32:37.416Z</time></trkpt><trkpt lat="43.2439004" lon="10.773285"><ele>499.4</ele><time>2026-04-18T09:32:38.388Z</time></trkpt><trkpt lat="43.24383" lon="10.7731873"><ele>499.0</ele><time>2026-04-18T09:32:39.405Z</time></trkpt><trkpt lat="43.2437513" lon="10.7730967"><ele>499.79999999999995</ele><time>2026-04-18T09:32:40.397Z</time></trkpt><trkpt lat="43.2436885" lon="10.7729919"><ele>500.59999999999997</ele><time>2026-04-18T09:32:41.392Z</time></trkpt><trkpt lat="43.2436475" lon="10.7728602"><ele>501.4</ele><time>2026-04-18T09:32:42.419Z</time></trkpt><trkpt lat="43.2436197" lon="10.7727007"><ele>502.2</ele><time>2026-04-18T09:32:43.405Z</time></trkpt><trkpt lat="43.2436158" lon="10.772527"><ele>503.0</ele><time>2026-04-18T09:32:44.411Z</time></trkpt><trkpt lat="43.2436205" lon="10.7723432"><ele>503.0</ele><time>2026-04-18T09:32:45.382Z</time></trkpt><trkpt lat="43.2436317" lon="10.7721634"><ele>502.99999999999994</ele><time>2026-04-18T09:32:46.405Z</time></trkpt><trkpt lat="43.2436366" lon="10.7720068"><ele>502.99999999999994</ele><time>2026-04-18T09:32:47.395Z</time></trkpt><trkpt lat="43.2436412" lon="10.7718754"><ele>503.0</ele><time>2026-04-18T09:32:48.296Z</time></trkpt><trkpt lat="43.2436417" lon="10.7717602"><ele>503.0</ele><time>2026-04-18T09:32:49.297Z</time></trkpt><trkpt lat="43.2436276" lon="10.7716613"><ele>502.99999999999994</ele><time>2026-04-18T09:32:50.392Z</time></trkpt><trkpt lat="43.2435903" lon="10.7715703"><ele>503.0</ele><time>2026-04-18T09:32:51.361Z</time></trkpt><trkpt lat="43.243533" lon="10.7715088"><ele>503.0</ele><time>2026-04-18T09:32:52.303Z</time></trkpt><trkpt lat="43.2434656" lon="10.7714682"><ele>503.0</ele><time>2026-04-18T09:32:53.414Z</time></trkpt><trkpt lat="43.243385" lon="10.7714472"><ele>502.99999999999994</ele><time>2026-04-18T09:32:54.396Z</time></trkpt><trkpt lat="43.2432953" lon="10.7714384"><ele>503.0</ele><time>2026-04-18T09:32:55.398Z</time></trkpt><trkpt lat="43.2432112" lon="10.7714215"><ele>503.0</ele><time>2026-04-18T09:32:56.408Z</time></trkpt><trkpt lat="43.2431416" lon="10.7713589"><ele>502.99999999999994</ele><time>2026-04-18T09:32:57.394Z</time></trkpt><trkpt lat="43.2430863" lon="10.7712791"><ele>502.99999999999994</ele><time>2026-04-18T09:32:58.39Z</time></trkpt><trkpt lat="43.2430618" lon="10.7711611"><ele>503.0</ele><time>2026-04-18T09:32:59.299Z</time></trkpt><trkpt lat="43.2430351" lon="10.7710273"><ele>503.0</ele><time>2026-04-18T09:33:00.3Z</time></trkpt><trkpt lat="43.2430091" lon="10.7708937"><ele>503.75</ele><time>2026-04-18T09:33:01.415Z</time></trkpt><trkpt lat="43.2429622" lon="10.770627"><ele>504.5</ele><time>2026-04-18T09:33:03.328Z</time></trkpt><trkpt lat="43.2429187" lon="10.7704837"><ele>505.25</ele><time>2026-04-18T09:33:04.296Z</time></trkpt><trkpt lat="43.2428767" lon="10.77034"><ele>506.0</ele><time>2026-04-18T09:33:05.302Z</time></trkpt><trkpt lat="43.2428056" lon="10.7701883"><ele>502.5</ele><time>2026-04-18T09:33:06.404Z</time></trkpt><trkpt lat="43.242754" lon="10.7700441"><ele>499.0</ele><time>2026-04-18T09:33:07.415Z</time></trkpt><trkpt lat="43.2426978" lon="10.7698885"><ele>495.5</ele><time>2026-04-18T09:33:08.418Z</time></trkpt><trkpt lat="43.2426712" lon="10.7697433"><ele>492.0</ele><time>2026-04-18T09:33:09.404Z</time></trkpt><trkpt lat="43.2426388" lon="10.7695971"><ele>492.0</ele><time>2026-04-18T09:33:10.415Z</time></trkpt><trkpt lat="43.24262" lon="10.7694695"><ele>492.0</ele><time>2026-04-18T09:33:11.404Z</time></trkpt><trkpt lat="43.2425999" lon="10.7693544"><ele>492.0</ele><time>2026-04-18T09:33:12.418Z</time></trkpt><trkpt lat="43.2425751" lon="10.7692488"><ele>492.0</ele><time>2026-04-18T09:33:13.389Z</time></trkpt><trkpt lat="43.242537" lon="10.769175"><ele>492.0</ele><time>2026-04-18T09:33:14.424Z</time></trkpt><trkpt lat="43.2424779" lon="10.7691119"><ele>492.0</ele><time>2026-04-18T09:33:15.419Z</time></trkpt><trkpt lat="43.2422884" lon="10.7689959"><ele>489.8</ele><time>2026-04-18T09:33:17.305Z</time></trkpt><trkpt lat="43.242179" lon="10.7689577"><ele>487.6</ele><time>2026-04-18T09:33:18.298Z</time></trkpt><trkpt lat="43.2420702" lon="10.7689145"><ele>485.40000000000003</ele><time>2026-04-18T09:33:19.294Z</time></trkpt><trkpt lat="43.2419687" lon="10.7688808"><ele>483.20000000000005</ele><time>2026-04-18T09:33:20.296Z</time></trkpt><trkpt lat="43.2418694" lon="10.7688423"><ele>481.0</ele><time>2026-04-18T09:33:21.422Z</time></trkpt><trkpt lat="43.2417725" lon="10.7688078"><ele>481.00000000000006</ele><time>2026-04-18T09:33:22.418Z</time></trkpt><trkpt lat="43.2416787" lon="10.7687854"><ele>481.0</ele><time>2026-04-18T09:33:23.389Z</time></trkpt><trkpt lat="43.2415911" lon="10.768777"><ele>481.0</ele><time>2026-04-18T09:33:24.416Z</time></trkpt><trkpt lat="43.2415085" lon="10.7687824"><ele>481.0</ele><time>2026-04-18T09:33:25.382Z</time></trkpt><trkpt lat="43.2414297" lon="10.7687856"><ele>481.00000000000006</ele><time>2026-04-18T09:33:26.407Z</time></trkpt><trkpt lat="43.2413524" lon="10.7687837"><ele>481.0</ele><time>2026-04-18T09:33:27.413Z</time></trkpt><trkpt lat="43.2412613" lon="10.7687611"><ele>479.20000000000005</ele><time>2026-04-18T09:33:28.401Z</time></trkpt><trkpt lat="43.2411723" lon="10.7687219"><ele>477.40000000000003</ele><time>2026-04-18T09:33:29.387Z</time></trkpt><trkpt lat="43.241086" lon="10.7686829"><ele>475.6</ele><time>2026-04-18T09:33:30.299Z</time></trkpt><trkpt lat="43.2409948" lon="10.7686287"><ele>473.8</ele><time>2026-04-18T09:33:31.335Z</time></trkpt><trkpt lat="43.2409187" lon="10.7685804"><ele>472.0</ele><time>2026-04-18T09:33:32.302Z</time></trkpt><trkpt lat="43.2408428" lon="10.7685362"><ele>470.0</ele><time>2026-04-18T09:33:33.407Z</time></trkpt><trkpt lat="43.2407165" lon="10.768468"><ele>468.00000000000006</ele><time>2026-04-18T09:33:35.3Z</time></trkpt><trkpt lat="43.2406483" lon="10.7684"><ele>466.00000000000006</ele><time>2026-04-18T09:33:37.298Z</time></trkpt><trkpt lat="43.2406443" lon="10.7682936"><ele>464.0</ele><time>2026-04-18T09:33:39.421Z</time></trkpt><trkpt lat="43.2406752" lon="10.7681191"><ele>462.0</ele><time>2026-04-18T09:33:41.424Z</time></trkpt><trkpt lat="43.2406827" lon="10.7679821"><ele>462.0</ele><time>2026-04-18T09:33:42.412Z</time></trkpt><trkpt lat="43.2406892" lon="10.7678349"><ele>462.0</ele><time>2026-04-18T09:33:43.411Z</time></trkpt><trkpt lat="43.2407034" lon="10.7676503"><ele>462.0</ele><time>2026-04-18T09:33:44.389Z</time></trkpt><trkpt lat="43.2407228" lon="10.7674637"><ele>462.0</ele><time>2026-04-18T09:33:45.419Z</time></trkpt><trkpt lat="43.2407473" lon="10.7672771"><ele>461.66666666666663</ele><time>2026-04-18T09:33:46.417Z</time></trkpt><trkpt lat="43.2407721" lon="10.7670865"><ele>461.3333333333333</ele><time>2026-04-18T09:33:47.423Z</time></trkpt><trkpt lat="43.2408154" lon="10.7667076"><ele>461.0</ele><time>2026-04-18T09:33:49.299Z</time></trkpt><trkpt lat="43.2408501" lon="10.7665352"><ele>461.0</ele><time>2026-04-18T09:33:50.285Z</time></trkpt><trkpt lat="43.2408936" lon="10.7663651"><ele>461.0</ele><time>2026-04-18T09:33:51.293Z</time></trkpt><trkpt lat="43.2409325" lon="10.7662193"><ele>461.0</ele><time>2026-04-18T09:33:52.298Z</time></trkpt><trkpt lat="43.2409654" lon="10.7660948"><ele>461.0</ele><time>2026-04-18T09:33:53.296Z</time></trkpt><trkpt lat="43.2409881" lon="10.765984"><ele>461.0</ele><time>2026-04-18T09:33:54.296Z</time></trkpt><trkpt lat="43.241006" lon="10.7658766"><ele>460.25</ele><time>2026-04-18T09:33:55.3Z</time></trkpt><trkpt lat="43.2410087" lon="10.7657662"><ele>459.5</ele><time>2026-04-18T09:33:56.294Z</time></trkpt><trkpt lat="43.2409977" lon="10.7656413"><ele>458.75</ele><time>2026-04-18T09:33:57.423Z</time></trkpt><trkpt lat="43.2409419" lon="10.7653396"><ele>458.0</ele><time>2026-04-18T09:33:59.294Z</time></trkpt><trkpt lat="43.2409144" lon="10.7651891"><ele>458.0</ele><time>2026-04-18T09:34:00.29Z</time></trkpt><trkpt lat="43.2409002" lon="10.7650529"><ele>457.99999999999994</ele><time>2026-04-18T09:34:01.295Z</time></trkpt><trkpt lat="43.2408886" lon="10.7649207"><ele>457.99999999999994</ele><time>2026-04-18T09:34:02.296Z</time></trkpt><trkpt lat="43.2408642" lon="10.7647972"><ele>458.0</ele><time>2026-04-18T09:34:03.296Z</time></trkpt><trkpt lat="43.2408289" lon="10.7646836"><ele>458.0</ele><time>2026-04-18T09:34:04.295Z</time></trkpt><trkpt lat="43.2407853" lon="10.7645607"><ele>458.0</ele><time>2026-04-18T09:34:05.43Z</time></trkpt><trkpt lat="43.2407256" lon="10.7644467"><ele>457.99999999999994</ele><time>2026-04-18T09:34:06.416Z</time></trkpt><trkpt lat="43.240664" lon="10.764335"><ele>457.99999999999994</ele><time>2026-04-18T09:34:07.421Z</time></trkpt><trkpt lat="43.2406131" lon="10.7642198"><ele>458.0</ele><time>2026-04-18T09:34:08.418Z</time></trkpt><trkpt lat="43.2405644" lon="10.7641065"><ele>458.0</ele><time>2026-04-18T09:34:09.43Z</time></trkpt><trkpt lat="43.2405052" lon="10.7640186"><ele>460.49999999999994</ele><time>2026-04-18T09:34:10.422Z</time></trkpt><trkpt lat="43.2404291" lon="10.7639447"><ele>463.0</ele><time>2026-04-18T09:34:11.421Z</time></trkpt><trkpt lat="43.240346" lon="10.7638844"><ele>465.5</ele><time>2026-04-18T09:34:12.411Z</time></trkpt><trkpt lat="43.2402765" lon="10.7638271"><ele>468.0</ele><time>2026-04-18T09:34:13.421Z</time></trkpt><trkpt lat="43.240213" lon="10.7637795"><ele>470.49999999999994</ele><time>2026-04-18T09:34:14.422Z</time></trkpt><trkpt lat="43.2401566" lon="10.7637304"><ele>473.0</ele><time>2026-04-18T09:34:15.403Z</time></trkpt><trkpt lat="43.2401189" lon="10.7636016"><ele>472.3333333333333</ele><time>2026-04-18T09:34:17.416Z</time></trkpt><trkpt lat="43.2401742" lon="10.7634985"><ele>471.66666666666663</ele><time>2026-04-18T09:34:19.291Z</time></trkpt><trkpt lat="43.2402368" lon="10.7634563"><ele>471.0</ele><time>2026-04-18T09:34:20.426Z</time></trkpt><trkpt lat="43.2403125" lon="10.7634181"><ele>470.33333333333337</ele><time>2026-04-18T09:34:21.422Z</time></trkpt><trkpt lat="43.2403969" lon="10.7633824"><ele>469.6666666666667</ele><time>2026-04-18T09:34:22.426Z</time></trkpt><trkpt lat="43.2404771" lon="10.763326"><ele>469.0</ele><time>2026-04-18T09:34:23.416Z</time></trkpt><trkpt lat="43.2406462" lon="10.7631839"><ele>465.6</ele><time>2026-04-18T09:34:25.413Z</time></trkpt><trkpt lat="43.2407211" lon="10.7631316"><ele>462.2</ele><time>2026-04-18T09:34:26.435Z</time></trkpt><trkpt lat="43.2407889" lon="10.7630695"><ele>458.80000000000007</ele><time>2026-04-18T09:34:27.415Z</time></trkpt><trkpt lat="43.2408547" lon="10.7629891"><ele>455.40000000000003</ele><time>2026-04-18T09:34:28.426Z</time></trkpt><trkpt lat="43.2409205" lon="10.7628868"><ele>452.0</ele><time>2026-04-18T09:34:29.422Z</time></trkpt><trkpt lat="43.2409924" lon="10.7627849"><ele>451.99999999999994</ele><time>2026-04-18T09:34:30.426Z</time></trkpt><trkpt lat="43.2410586" lon="10.7627098"><ele>452.0</ele><time>2026-04-18T09:34:31.412Z</time></trkpt><trkpt lat="43.241104" lon="10.7626398"><ele>452.0</ele><time>2026-04-18T09:34:32.297Z</time></trkpt><trkpt lat="43.2411411" lon="10.7624877"><ele>452.0</ele><time>2026-04-18T09:34:34.418Z</time></trkpt><trkpt lat="43.2411451" lon="10.7623789"><ele>451.99999999999994</ele><time>2026-04-18T09:34:35.42Z</time></trkpt><trkpt lat="43.2411475" lon="10.7622453"><ele>452.0</ele><time>2026-04-18T09:34:36.435Z</time></trkpt><trkpt lat="43.2411468" lon="10.7621087"><ele>455.25</ele><time>2026-04-18T09:34:37.422Z</time></trkpt><trkpt lat="43.2411708" lon="10.7619628"><ele>458.5</ele><time>2026-04-18T09:34:38.425Z</time></trkpt><trkpt lat="43.2412229" lon="10.7618326"><ele>461.75</ele><time>2026-04-18T09:34:39.426Z</time></trkpt><trkpt lat="43.2413337" lon="10.7616057"><ele>465.0</ele><time>2026-04-18T09:34:41.427Z</time></trkpt><trkpt lat="43.2413949" lon="10.7615237"><ele>465.6</ele><time>2026-04-18T09:34:42.438Z</time></trkpt><trkpt lat="43.2414458" lon="10.7614681"><ele>466.2</ele><time>2026-04-18T09:34:43.428Z</time></trkpt><trkpt lat="43.2415148" lon="10.7613631"><ele>466.79999999999995</ele><time>2026-04-18T09:34:45.428Z</time></trkpt><trkpt lat="43.2415245" lon="10.7612364"><ele>467.4</ele><time>2026-04-18T09:34:47.422Z</time></trkpt><trkpt lat="43.2414595" lon="10.7611045"><ele>468.0</ele><time>2026-04-18T09:34:49.292Z</time></trkpt><trkpt lat="43.2414094" lon="10.7610159"><ele>468.0</ele><time>2026-04-18T09:34:50.301Z</time></trkpt><trkpt lat="43.2413504" lon="10.7609004"><ele>468.0</ele><time>2026-04-18T09:34:51.438Z</time></trkpt><trkpt lat="43.2412885" lon="10.7607782"><ele>468.0</ele><time>2026-04-18T09:34:52.441Z</time></trkpt><trkpt lat="43.2412421" lon="10.7606469"><ele>468.0</ele><time>2026-04-18T09:34:53.426Z</time></trkpt><trkpt lat="43.2411973" lon="10.7603339"><ele>465.2</ele><time>2026-04-18T09:34:55.295Z</time></trkpt><trkpt lat="43.2411928" lon="10.7601722"><ele>462.4</ele><time>2026-04-18T09:34:56.302Z</time></trkpt><trkpt lat="43.241195" lon="10.7600224"><ele>459.59999999999997</ele><time>2026-04-18T09:34:57.412Z</time></trkpt><trkpt lat="43.2411989" lon="10.7598818"><ele>456.79999999999995</ele><time>2026-04-18T09:34:58.43Z</time></trkpt><trkpt lat="43.2412099" lon="10.75975"><ele>454.0</ele><time>2026-04-18T09:34:59.428Z</time></trkpt><trkpt lat="43.2412257" lon="10.7596267"><ele>454.00000000000006</ele><time>2026-04-18T09:35:00.432Z</time></trkpt><trkpt lat="43.2412362" lon="10.7595125"><ele>454.0</ele><time>2026-04-18T09:35:01.438Z</time></trkpt><trkpt lat="43.2412301" lon="10.7594066"><ele>454.0</ele><time>2026-04-18T09:35:02.43Z</time></trkpt><trkpt lat="43.2412105" lon="10.7593091"><ele>454.0</ele><time>2026-04-18T09:35:03.412Z</time></trkpt><trkpt lat="43.2411834" lon="10.7592211"><ele>454.00000000000006</ele><time>2026-04-18T09:35:04.44Z</time></trkpt><trkpt lat="43.2411561" lon="10.7591412"><ele>454.0</ele><time>2026-04-18T09:35:05.431Z</time></trkpt><trkpt lat="43.2411339" lon="10.759011"><ele>454.0</ele><time>2026-04-18T09:35:07.301Z</time></trkpt><trkpt lat="43.241187" lon="10.7589194"><ele>454.0</ele><time>2026-04-18T09:35:09.299Z</time></trkpt><trkpt lat="43.241271" lon="10.7589575"><ele>454.0</ele><time>2026-04-18T09:35:11.304Z</time></trkpt><trkpt lat="43.2413331" lon="10.759117"><ele>454.0</ele><time>2026-04-18T09:35:13.439Z</time></trkpt><trkpt lat="43.2413595" lon="10.7592416"><ele>454.0</ele><time>2026-04-18T09:35:14.434Z</time></trkpt><trkpt lat="43.2414295" lon="10.7595233"><ele>454.0</ele><time>2026-04-18T09:35:16.298Z</time></trkpt><trkpt lat="43.2414642" lon="10.7596603"><ele>454.0</ele><time>2026-04-18T09:35:17.43Z</time></trkpt><trkpt lat="43.2415253" lon="10.759882"><ele>454.0</ele><time>2026-04-18T09:35:19.302Z</time></trkpt><trkpt lat="43.2415564" lon="10.7599797"><ele>454.0</ele><time>2026-04-18T09:35:20.434Z</time></trkpt><trkpt lat="43.2415838" lon="10.7600698"><ele>454.0</ele><time>2026-04-18T09:35:21.439Z</time></trkpt><trkpt lat="43.2416179" lon="10.7601444"><ele>452.83333333333337</ele><time>2026-04-18T09:35:22.436Z</time></trkpt><trkpt lat="43.2417112" lon="10.7602157"><ele>451.6666666666667</ele><time>2026-04-18T09:35:24.395Z</time></trkpt><trkpt lat="43.2417767" lon="10.7602104"><ele>450.5</ele><time>2026-04-18T09:35:25.419Z</time></trkpt><trkpt lat="43.2418514" lon="10.7601935"><ele>449.33333333333337</ele><time>2026-04-18T09:35:26.421Z</time></trkpt><trkpt lat="43.2419345" lon="10.7601567"><ele>448.1666666666667</ele><time>2026-04-18T09:35:27.416Z</time></trkpt><trkpt lat="43.2420198" lon="10.7600993"><ele>447.0</ele><time>2026-04-18T09:35:28.433Z</time></trkpt><trkpt lat="43.2420996" lon="10.760021"><ele>445.25</ele><time>2026-04-18T09:35:29.393Z</time></trkpt><trkpt lat="43.2421787" lon="10.7599378"><ele>443.5</ele><time>2026-04-18T09:35:30.424Z</time></trkpt><trkpt lat="43.2423174" lon="10.7597654"><ele>441.75</ele><time>2026-04-18T09:35:32.293Z</time></trkpt><trkpt lat="43.2423883" lon="10.7596965"><ele>440.0</ele><time>2026-04-18T09:35:33.297Z</time></trkpt><trkpt lat="43.2424655" lon="10.759634"><ele>439.99999999999994</ele><time>2026-04-18T09:35:34.297Z</time></trkpt><trkpt lat="43.2425487" lon="10.7595894"><ele>440.0</ele><time>2026-04-18T09:35:35.289Z</time></trkpt><trkpt lat="43.2426309" lon="10.7595533"><ele>440.0</ele><time>2026-04-18T09:35:36.298Z</time></trkpt><trkpt lat="43.2427118" lon="10.7595267"><ele>440.0</ele><time>2026-04-18T09:35:37.299Z</time></trkpt><trkpt lat="43.2427992" lon="10.7595424"><ele>439.99999999999994</ele><time>2026-04-18T09:35:38.299Z</time></trkpt><trkpt lat="43.2428841" lon="10.7595641"><ele>440.0</ele><time>2026-04-18T09:35:39.3Z</time></trkpt><trkpt lat="43.2429841" lon="10.7596437"><ele>440.0</ele><time>2026-04-18T09:35:40.298Z</time></trkpt><trkpt lat="43.2430878" lon="10.75972"><ele>440.0</ele><time>2026-04-18T09:35:41.296Z</time></trkpt><trkpt lat="43.243192" lon="10.7597967"><ele>440.0</ele><time>2026-04-18T09:35:42.296Z</time></trkpt><trkpt lat="43.2433021" lon="10.7598759"><ele>440.0</ele><time>2026-04-18T09:35:43.295Z</time></trkpt><trkpt lat="43.2434239" lon="10.7599381"><ele>438.0</ele><time>2026-04-18T09:35:44.296Z</time></trkpt><trkpt lat="43.2435491" lon="10.7599995"><ele>436.0</ele><time>2026-04-18T09:35:45.293Z</time></trkpt><trkpt lat="43.243676" lon="10.7600693"><ele>434.0</ele><time>2026-04-18T09:35:46.298Z</time></trkpt><trkpt lat="43.2437942" lon="10.7601497"><ele>432.0</ele><time>2026-04-18T09:35:47.303Z</time></trkpt><trkpt lat="43.2438962" lon="10.7602304"><ele>429.20000000000005</ele><time>2026-04-18T09:35:48.305Z</time></trkpt><trkpt lat="43.2439977" lon="10.7603088"><ele>426.40000000000003</ele><time>2026-04-18T09:35:49.299Z</time></trkpt><trkpt lat="43.2440986" lon="10.7603753"><ele>423.6</ele><time>2026-04-18T09:35:50.298Z</time></trkpt><trkpt lat="43.2441901" lon="10.7604249"><ele>420.79999999999995</ele><time>2026-04-18T09:35:51.435Z</time></trkpt><trkpt lat="43.2442782" lon="10.7604592"><ele>418.0</ele><time>2026-04-18T09:35:52.434Z</time></trkpt><trkpt lat="43.2443662" lon="10.7604604"><ele>418.0</ele><time>2026-04-18T09:35:53.432Z</time></trkpt><trkpt lat="43.2444522" lon="10.7604248"><ele>418.0</ele><time>2026-04-18T09:35:54.426Z</time></trkpt><trkpt lat="43.2446132" lon="10.7603765"><ele>418.0</ele><time>2026-04-18T09:35:56.333Z</time></trkpt><trkpt lat="43.2446871" lon="10.7603513"><ele>418.0</ele><time>2026-04-18T09:35:57.298Z</time></trkpt><trkpt lat="43.2447573" lon="10.7603097"><ele>418.0</ele><time>2026-04-18T09:35:58.294Z</time></trkpt><trkpt lat="43.2447997" lon="10.7602365"><ele>421.75</ele><time>2026-04-18T09:35:59.394Z</time></trkpt><trkpt lat="43.2448815" lon="10.7600549"><ele>425.5</ele><time>2026-04-18T09:36:01.422Z</time></trkpt><trkpt lat="43.2449362" lon="10.7598189"><ele>429.25</ele><time>2026-04-18T09:36:03.297Z</time></trkpt><trkpt lat="43.2449613" lon="10.7596825"><ele>433.0</ele><time>2026-04-18T09:36:04.297Z</time></trkpt><trkpt lat="43.2449849" lon="10.7595292"><ele>434.0</ele><time>2026-04-18T09:36:05.432Z</time></trkpt><trkpt lat="43.2450402" lon="10.7592502"><ele>435.0</ele><time>2026-04-18T09:36:07.301Z</time></trkpt><trkpt lat="43.2450771" lon="10.7591332"><ele>436.0</ele><time>2026-04-18T09:36:08.434Z</time></trkpt><trkpt lat="43.2451725" lon="10.7589468"><ele>436.0</ele><time>2026-04-18T09:36:10.427Z</time></trkpt><trkpt lat="43.2452318" lon="10.7588532"><ele>436.0</ele><time>2026-04-18T09:36:11.437Z</time></trkpt><trkpt lat="43.2452999" lon="10.7587649"><ele>436.0</ele><time>2026-04-18T09:36:12.435Z</time></trkpt><trkpt lat="43.2453746" lon="10.7586861"><ele>436.0</ele><time>2026-04-18T09:36:13.43Z</time></trkpt><trkpt lat="43.2454525" lon="10.7586114"><ele>436.0</ele><time>2026-04-18T09:36:14.433Z</time></trkpt><trkpt lat="43.2455243" lon="10.7585362"><ele>434.8</ele><time>2026-04-18T09:36:15.425Z</time></trkpt><trkpt lat="43.2455772" lon="10.7584615"><ele>433.6</ele><time>2026-04-18T09:36:16.445Z</time></trkpt><trkpt lat="43.2456159" lon="10.7583719"><ele>432.4</ele><time>2026-04-18T09:36:17.427Z</time></trkpt><trkpt lat="43.2456346" lon="10.7581807"><ele>431.2</ele><time>2026-04-18T09:36:19.295Z</time></trkpt><trkpt lat="43.2456465" lon="10.7580777"><ele>430.0</ele><time>2026-04-18T09:36:20.304Z</time></trkpt><trkpt lat="43.2456692" lon="10.7579565"><ele>434.0</ele><time>2026-04-18T09:36:21.3Z</time></trkpt><trkpt lat="43.2457026" lon="10.7578283"><ele>438.0</ele><time>2026-04-18T09:36:22.297Z</time></trkpt><trkpt lat="43.2457481" lon="10.7576998"><ele>442.0</ele><time>2026-04-18T09:36:23.295Z</time></trkpt><trkpt lat="43.2457986" lon="10.7575728"><ele>446.0</ele><time>2026-04-18T09:36:24.297Z</time></trkpt><trkpt lat="43.2458556" lon="10.75744"><ele>450.0</ele><time>2026-04-18T09:36:25.297Z</time></trkpt><trkpt lat="43.2459242" lon="10.7573122"><ele>451.0</ele><time>2026-04-18T09:36:26.301Z</time></trkpt><trkpt lat="43.2460004" lon="10.7572008"><ele>452.0</ele><time>2026-04-18T09:36:27.424Z</time></trkpt><trkpt lat="43.2460837" lon="10.7570983"><ele>453.0</ele><time>2026-04-18T09:36:28.444Z</time></trkpt><trkpt lat="43.2461621" lon="10.7570208"><ele>454.0</ele><time>2026-04-18T09:36:29.427Z</time></trkpt><trkpt lat="43.2462372" lon="10.7569701"><ele>455.0</ele><time>2026-04-18T09:36:30.432Z</time></trkpt><trkpt lat="43.2463233" lon="10.7569279"><ele>455.0</ele><time>2026-04-18T09:36:31.425Z</time></trkpt><trkpt lat="43.2464217" lon="10.7568939"><ele>455.0</ele><time>2026-04-18T09:36:32.405Z</time></trkpt><trkpt lat="43.2465327" lon="10.7568671"><ele>455.0</ele><time>2026-04-18T09:36:33.428Z</time></trkpt><trkpt lat="43.2466474" lon="10.7568393"><ele>455.0</ele><time>2026-04-18T09:36:34.433Z</time></trkpt><trkpt lat="43.2467634" lon="10.756802"><ele>456.4</ele><time>2026-04-18T09:36:35.429Z</time></trkpt><trkpt lat="43.2468783" lon="10.7567581"><ele>457.8</ele><time>2026-04-18T09:36:36.431Z</time></trkpt><trkpt lat="43.2469862" lon="10.7567228"><ele>459.20000000000005</ele><time>2026-04-18T09:36:37.433Z</time></trkpt><trkpt lat="43.2470794" lon="10.7566908"><ele>460.6</ele><time>2026-04-18T09:36:38.432Z</time></trkpt><trkpt lat="43.2471604" lon="10.7566575"><ele>462.0</ele><time>2026-04-18T09:36:39.434Z</time></trkpt><trkpt lat="43.2472184" lon="10.7566171"><ele>462.0</ele><time>2026-04-18T09:36:40.436Z</time></trkpt><trkpt lat="43.2472712" lon="10.7564794"><ele>462.00000000000006</ele><time>2026-04-18T09:36:42.434Z</time></trkpt><trkpt lat="43.2472429" lon="10.7563291"><ele>462.00000000000006</ele><time>2026-04-18T09:36:44.298Z</time></trkpt><trkpt lat="43.2471586" lon="10.756185"><ele>462.0</ele><time>2026-04-18T09:36:46.296Z</time></trkpt><trkpt lat="43.2471197" lon="10.7560924"><ele>462.0</ele><time>2026-04-18T09:36:47.292Z</time></trkpt><trkpt lat="43.2471" lon="10.7560011"><ele>460.8</ele><time>2026-04-18T09:36:48.295Z</time></trkpt><trkpt lat="43.2471216" lon="10.7558543"><ele>459.6</ele><time>2026-04-18T09:36:50.401Z</time></trkpt><trkpt lat="43.2472163" lon="10.7557257"><ele>458.40000000000003</ele><time>2026-04-18T09:36:52.297Z</time></trkpt><trkpt lat="43.2472841" lon="10.7556495"><ele>457.20000000000005</ele><time>2026-04-18T09:36:53.297Z</time></trkpt><trkpt lat="43.2473699" lon="10.7555654"><ele>456.0</ele><time>2026-04-18T09:36:54.413Z</time></trkpt><trkpt lat="43.247468" lon="10.7554747"><ele>458.20000000000005</ele><time>2026-04-18T09:36:55.393Z</time></trkpt><trkpt lat="43.2475704" lon="10.7553672"><ele>460.40000000000003</ele><time>2026-04-18T09:36:56.391Z</time></trkpt><trkpt lat="43.2476626" lon="10.7552795"><ele>462.6</ele><time>2026-04-18T09:36:57.386Z</time></trkpt><trkpt lat="43.2477477" lon="10.7551994"><ele>464.8</ele><time>2026-04-18T09:36:58.416Z</time></trkpt><trkpt lat="43.2478177" lon="10.7551033"><ele>467.0</ele><time>2026-04-18T09:36:59.388Z</time></trkpt><trkpt lat="43.2478848" lon="10.7549861"><ele>467.0</ele><time>2026-04-18T09:37:00.378Z</time></trkpt><trkpt lat="43.247954" lon="10.7548635"><ele>467.00000000000006</ele><time>2026-04-18T09:37:01.297Z</time></trkpt><trkpt lat="43.2480258" lon="10.7547397"><ele>467.00000000000006</ele><time>2026-04-18T09:37:02.298Z</time></trkpt><trkpt lat="43.2480929" lon="10.7546228"><ele>467.0</ele><time>2026-04-18T09:37:03.389Z</time></trkpt><trkpt lat="43.248151" lon="10.7545004"><ele>467.0</ele><time>2026-04-18T09:37:04.414Z</time></trkpt><trkpt lat="43.2482415" lon="10.7542157"><ele>467.75</ele><time>2026-04-18T09:37:06.298Z</time></trkpt><trkpt lat="43.2482753" lon="10.7540635"><ele>468.5</ele><time>2026-04-18T09:37:07.298Z</time></trkpt><trkpt lat="43.2483031" lon="10.7539021"><ele>469.25</ele><time>2026-04-18T09:37:08.389Z</time></trkpt><trkpt lat="43.2483268" lon="10.7537463"><ele>470.0</ele><time>2026-04-18T09:37:09.426Z</time></trkpt><trkpt lat="43.2483597" lon="10.7535883"><ele>473.66666666666663</ele><time>2026-04-18T09:37:10.415Z</time></trkpt><trkpt lat="43.2483963" lon="10.7534361"><ele>477.33333333333337</ele><time>2026-04-18T09:37:11.386Z</time></trkpt><trkpt lat="43.2484379" lon="10.753286"><ele>481.0</ele><time>2026-04-18T09:37:12.408Z</time></trkpt><trkpt lat="43.248512" lon="10.7529892"><ele>481.0</ele><time>2026-04-18T09:37:14.392Z</time></trkpt><trkpt lat="43.2485315" lon="10.752844"><ele>481.0</ele><time>2026-04-18T09:37:15.403Z</time></trkpt><trkpt lat="43.2485492" lon="10.7526818"><ele>481.0</ele><time>2026-04-18T09:37:16.402Z</time></trkpt><trkpt lat="43.248561" lon="10.7525231"><ele>481.0</ele><time>2026-04-18T09:37:17.373Z</time></trkpt><trkpt lat="43.2485618" lon="10.7523688"><ele>481.8</ele><time>2026-04-18T09:37:18.3Z</time></trkpt><trkpt lat="43.2485702" lon="10.7522313"><ele>482.6</ele><time>2026-04-18T09:37:19.299Z</time></trkpt><trkpt lat="43.2485738" lon="10.7520845"><ele>483.4</ele><time>2026-04-18T09:37:20.391Z</time></trkpt><trkpt lat="43.2485619" lon="10.7519404"><ele>484.2</ele><time>2026-04-18T09:37:21.396Z</time></trkpt><trkpt lat="43.2485448" lon="10.7517982"><ele>485.0</ele><time>2026-04-18T09:37:22.394Z</time></trkpt><trkpt lat="43.2485243" lon="10.7516654"><ele>485.0</ele><time>2026-04-18T09:37:23.412Z</time></trkpt><trkpt lat="43.2485132" lon="10.7515363"><ele>485.0</ele><time>2026-04-18T09:37:24.392Z</time></trkpt><trkpt lat="43.2485244" lon="10.7513972"><ele>485.0</ele><time>2026-04-18T09:37:25.418Z</time></trkpt><trkpt lat="43.2485477" lon="10.7512434"><ele>485.0</ele><time>2026-04-18T09:37:26.391Z</time></trkpt><trkpt lat="43.2485762" lon="10.7510874"><ele>485.0</ele><time>2026-04-18T09:37:27.365Z</time></trkpt><trkpt lat="43.2486087" lon="10.7509249"><ele>483.75</ele><time>2026-04-18T09:37:28.395Z</time></trkpt><trkpt lat="43.2486369" lon="10.7507653"><ele>482.5</ele><time>2026-04-18T09:37:29.389Z</time></trkpt><trkpt lat="43.248655" lon="10.7506019"><ele>481.25</ele><time>2026-04-18T09:37:30.386Z</time></trkpt><trkpt lat="43.2486687" lon="10.7504311"><ele>480.0</ele><time>2026-04-18T09:37:31.397Z</time></trkpt><trkpt lat="43.2486756" lon="10.7502603"><ele>481.25</ele><time>2026-04-18T09:37:32.408Z</time></trkpt><trkpt lat="43.2486748" lon="10.7500896"><ele>482.5</ele><time>2026-04-18T09:37:33.409Z</time></trkpt><trkpt lat="43.2486711" lon="10.7499208"><ele>483.75</ele><time>2026-04-18T09:37:34.414Z</time></trkpt><trkpt lat="43.2486689" lon="10.7497507"><ele>485.0</ele><time>2026-04-18T09:37:35.393Z</time></trkpt><trkpt lat="43.2486649" lon="10.7495831"><ele>485.0</ele><time>2026-04-18T09:37:36.393Z</time></trkpt><trkpt lat="43.2486519" lon="10.7494132"><ele>485.0</ele><time>2026-04-18T09:37:37.422Z</time></trkpt><trkpt lat="43.2486298" lon="10.7492323"><ele>485.0</ele><time>2026-04-18T09:37:38.396Z</time></trkpt><trkpt lat="43.2485991" lon="10.7490579"><ele>485.0</ele><time>2026-04-18T09:37:39.42Z</time></trkpt><trkpt lat="43.2485699" lon="10.7488926"><ele>485.25</ele><time>2026-04-18T09:37:40.414Z</time></trkpt><trkpt lat="43.2485346" lon="10.748743"><ele>485.5</ele><time>2026-04-18T09:37:41.423Z</time></trkpt><trkpt lat="43.2484528" lon="10.7484843"><ele>485.75</ele><time>2026-04-18T09:37:43.401Z</time></trkpt><trkpt lat="43.2484221" lon="10.74838"><ele>486.0</ele><time>2026-04-18T09:37:44.419Z</time></trkpt><trkpt lat="43.2484188" lon="10.7482845"><ele>486.6666666666667</ele><time>2026-04-18T09:37:45.415Z</time></trkpt><trkpt lat="43.2484682" lon="10.748175"><ele>487.33333333333337</ele><time>2026-04-18T09:37:47.395Z</time></trkpt><trkpt lat="43.2485614" lon="10.7481532"><ele>488.0</ele><time>2026-04-18T09:37:49.302Z</time></trkpt><trkpt lat="43.2486303" lon="10.7481837"><ele>488.6666666666667</ele><time>2026-04-18T09:37:50.299Z</time></trkpt><trkpt lat="43.248699" lon="10.7482202"><ele>489.33333333333337</ele><time>2026-04-18T09:37:51.392Z</time></trkpt><trkpt lat="43.2487803" lon="10.7482804"><ele>490.0</ele><time>2026-04-18T09:37:52.412Z</time></trkpt><trkpt lat="43.2488744" lon="10.7483661"><ele>490.8</ele><time>2026-04-18T09:37:53.399Z</time></trkpt><trkpt lat="43.2489796" lon="10.7484523"><ele>491.6</ele><time>2026-04-18T09:37:54.419Z</time></trkpt><trkpt lat="43.2490677" lon="10.7485391"><ele>492.4</ele><time>2026-04-18T09:37:55.421Z</time></trkpt><trkpt lat="43.2491575" lon="10.748609"><ele>493.2</ele><time>2026-04-18T09:37:56.405Z</time></trkpt><trkpt lat="43.2492469" lon="10.7486742"><ele>494.0</ele><time>2026-04-18T09:37:57.354Z</time></trkpt><trkpt lat="43.2493477" lon="10.7487315"><ele>494.2</ele><time>2026-04-18T09:37:58.295Z</time></trkpt><trkpt lat="43.2494442" lon="10.7487625"><ele>494.4</ele><time>2026-04-18T09:37:59.407Z</time></trkpt><trkpt lat="43.2495384" lon="10.748783"><ele>494.6</ele><time>2026-04-18T09:38:00.388Z</time></trkpt><trkpt lat="43.249637" lon="10.748772"><ele>494.8</ele><time>2026-04-18T09:38:01.404Z</time></trkpt><trkpt lat="43.2497379" lon="10.7487554"><ele>495.0</ele><time>2026-04-18T09:38:02.412Z</time></trkpt><trkpt lat="43.2498369" lon="10.748729"><ele>494.4</ele><time>2026-04-18T09:38:03.42Z</time></trkpt><trkpt lat="43.2499338" lon="10.7487019"><ele>493.8</ele><time>2026-04-18T09:38:04.412Z</time></trkpt><trkpt lat="43.2500291" lon="10.7486711"><ele>493.20000000000005</ele><time>2026-04-18T09:38:05.386Z</time></trkpt><trkpt lat="43.2501229" lon="10.7486377"><ele>492.6</ele><time>2026-04-18T09:38:06.4Z</time></trkpt><trkpt lat="43.2502207" lon="10.7485525"><ele>492.0</ele><time>2026-04-18T09:38:07.407Z</time></trkpt><trkpt lat="43.2503189" lon="10.7484691"><ele>492.0</ele><time>2026-04-18T09:38:08.408Z</time></trkpt><trkpt lat="43.2504138" lon="10.7483971"><ele>492.0</ele><time>2026-04-18T09:38:09.406Z</time></trkpt><trkpt lat="43.25051" lon="10.7483346"><ele>492.0</ele><time>2026-04-18T09:38:10.413Z</time></trkpt><trkpt lat="43.2505914" lon="10.7482796"><ele>492.0</ele><time>2026-04-18T09:38:11.411Z</time></trkpt><trkpt lat="43.2507316" lon="10.7481465"><ele>492.0</ele><time>2026-04-18T09:38:13.411Z</time></trkpt><trkpt lat="43.2507513" lon="10.7480431"><ele>492.00000000000006</ele><time>2026-04-18T09:38:14.387Z</time></trkpt><trkpt lat="43.2507902" lon="10.7479402"><ele>492.00000000000006</ele><time>2026-04-18T09:38:15.378Z</time></trkpt><trkpt lat="43.2508184" lon="10.7478235"><ele>492.0</ele><time>2026-04-18T09:38:16.392Z</time></trkpt><trkpt lat="43.2508615" lon="10.7477134"><ele>492.0</ele><time>2026-04-18T09:38:17.397Z</time></trkpt><trkpt lat="43.2509071" lon="10.7475408"><ele>492.0</ele><time>2026-04-18T09:38:18.298Z</time></trkpt><trkpt lat="43.2509824" lon="10.7473989"><ele>492.0</ele><time>2026-04-18T09:38:19.293Z</time></trkpt><trkpt lat="43.2510635" lon="10.7472571"><ele>492.0</ele><time>2026-04-18T09:38:20.423Z</time></trkpt><trkpt lat="43.2511428" lon="10.7471125"><ele>492.0</ele><time>2026-04-18T09:38:21.4Z</time></trkpt><trkpt lat="43.2512287" lon="10.7469884"><ele>492.5</ele><time>2026-04-18T09:38:22.408Z</time></trkpt><trkpt lat="43.2513083" lon="10.7468553"><ele>493.0</ele><time>2026-04-18T09:38:23.42Z</time></trkpt><trkpt lat="43.2513661" lon="10.7467021"><ele>493.5</ele><time>2026-04-18T09:38:24.381Z</time></trkpt><trkpt lat="43.2514254" lon="10.7465672"><ele>494.0</ele><time>2026-04-18T09:38:25.393Z</time></trkpt><trkpt lat="43.2514775" lon="10.7464632"><ele>493.99999999999994</ele><time>2026-04-18T09:38:26.416Z</time></trkpt><trkpt lat="43.2515338" lon="10.7463693"><ele>494.0</ele><time>2026-04-18T09:38:27.418Z</time></trkpt><trkpt lat="43.2515976" lon="10.7462993"><ele>494.0</ele><time>2026-04-18T09:38:28.414Z</time></trkpt><trkpt lat="43.2516555" lon="10.7462158"><ele>494.0</ele><time>2026-04-18T09:38:29.386Z</time></trkpt><trkpt lat="43.2517382" lon="10.7462195"><ele>493.99999999999994</ele><time>2026-04-18T09:38:30.408Z</time></trkpt><trkpt lat="43.2518076" lon="10.7462461"><ele>494.0</ele><time>2026-04-18T09:38:31.415Z</time></trkpt><trkpt lat="43.2518681" lon="10.746291"><ele>494.0</ele><time>2026-04-18T09:38:32.411Z</time></trkpt><trkpt lat="43.2519078" lon="10.7465189"><ele>494.0</ele><time>2026-04-18T09:38:33.399Z</time></trkpt><trkpt lat="43.251982" lon="10.7466626"><ele>494.0</ele><time>2026-04-18T09:38:34.4Z</time></trkpt><trkpt lat="43.2520546" lon="10.7467967"><ele>494.0</ele><time>2026-04-18T09:38:35.409Z</time></trkpt><trkpt lat="43.252139" lon="10.7469149"><ele>494.79999999999995</ele><time>2026-04-18T09:38:36.419Z</time></trkpt><trkpt lat="43.252218" lon="10.7470149"><ele>495.59999999999997</ele><time>2026-04-18T09:38:37.419Z</time></trkpt><trkpt lat="43.2523057" lon="10.7471012"><ele>496.4</ele><time>2026-04-18T09:38:38.413Z</time></trkpt><trkpt lat="43.2523946" lon="10.7471539"><ele>497.2</ele><time>2026-04-18T09:38:39.41Z</time></trkpt><trkpt lat="43.2525135" lon="10.7471511"><ele>498.0</ele><time>2026-04-18T09:38:40.401Z</time></trkpt><trkpt lat="43.252615" lon="10.747168"><ele>498.0</ele><time>2026-04-18T09:38:41.392Z</time></trkpt><trkpt lat="43.2527333" lon="10.7471322"><ele>498.0</ele><time>2026-04-18T09:38:42.416Z</time></trkpt><trkpt lat="43.2528257" lon="10.7471108"><ele>498.0</ele><time>2026-04-18T09:38:43.411Z</time></trkpt><trkpt lat="43.2529462" lon="10.7471046"><ele>498.0</ele><time>2026-04-18T09:38:45.409Z</time></trkpt><trkpt lat="43.2530548" lon="10.7473278"><ele>498.0</ele><time>2026-04-18T09:38:48.292Z</time></trkpt><trkpt lat="43.2530736" lon="10.7474804"><ele>497.99999999999994</ele><time>2026-04-18T09:38:49.294Z</time></trkpt><trkpt lat="43.253104" lon="10.7476184"><ele>497.99999999999994</ele><time>2026-04-18T09:38:50.385Z</time></trkpt><trkpt lat="43.2531309" lon="10.7477513"><ele>498.0</ele><time>2026-04-18T09:38:51.393Z</time></trkpt><trkpt lat="43.2531706" lon="10.7478568"><ele>498.0</ele><time>2026-04-18T09:38:52.414Z</time></trkpt><trkpt lat="43.2532077" lon="10.74796"><ele>494.5</ele><time>2026-04-18T09:38:53.405Z</time></trkpt><trkpt lat="43.2533302" lon="10.7481215"><ele>491.0</ele><time>2026-04-18T09:38:55.287Z</time></trkpt><trkpt lat="43.2534081" lon="10.7481898"><ele>487.5</ele><time>2026-04-18T09:38:56.299Z</time></trkpt><trkpt lat="43.2535038" lon="10.7482456"><ele>484.0</ele><time>2026-04-18T09:38:57.399Z</time></trkpt><trkpt lat="43.2535852" lon="10.7482997"><ele>484.0</ele><time>2026-04-18T09:38:58.411Z</time></trkpt><trkpt lat="43.2536635" lon="10.7483476"><ele>484.0</ele><time>2026-04-18T09:38:59.408Z</time></trkpt><trkpt lat="43.2537122" lon="10.7484112"><ele>484.0</ele><time>2026-04-18T09:39:00.418Z</time></trkpt><trkpt lat="43.2537444" lon="10.7484911"><ele>484.0</ele><time>2026-04-18T09:39:01.408Z</time></trkpt><trkpt lat="43.2537599" lon="10.7486068"><ele>484.0</ele><time>2026-04-18T09:39:02.412Z</time></trkpt><trkpt lat="43.253797" lon="10.7488638"><ele>484.4</ele><time>2026-04-18T09:39:04.394Z</time></trkpt><trkpt lat="43.2538197" lon="10.7490008"><ele>484.79999999999995</ele><time>2026-04-18T09:39:05.392Z</time></trkpt><trkpt lat="43.2538406" lon="10.7491335"><ele>485.20000000000005</ele><time>2026-04-18T09:39:06.324Z</time></trkpt><trkpt lat="43.2538944" lon="10.7492502"><ele>485.6</ele><time>2026-04-18T09:39:07.398Z</time></trkpt><trkpt lat="43.2539692" lon="10.7493361"><ele>486.0</ele><time>2026-04-18T09:39:08.41Z</time></trkpt><trkpt lat="43.2540517" lon="10.7494348"><ele>486.0</ele><time>2026-04-18T09:39:09.39Z</time></trkpt><trkpt lat="43.2541362" lon="10.7495231"><ele>486.0</ele><time>2026-04-18T09:39:10.415Z</time></trkpt><trkpt lat="43.2542091" lon="10.7496067"><ele>486.0</ele><time>2026-04-18T09:39:11.408Z</time></trkpt><trkpt lat="43.2542742" lon="10.7497107"><ele>486.0</ele><time>2026-04-18T09:39:12.395Z</time></trkpt><trkpt lat="43.2543306" lon="10.7497802"><ele>486.0</ele><time>2026-04-18T09:39:13.393Z</time></trkpt><trkpt lat="43.2544153" lon="10.749852"><ele>486.0</ele><time>2026-04-18T09:39:14.418Z</time></trkpt><trkpt lat="43.2544893" lon="10.7499176"><ele>486.0</ele><time>2026-04-18T09:39:15.411Z</time></trkpt><trkpt lat="43.2547052" lon="10.7498939"><ele>486.0</ele><time>2026-04-18T09:39:17.373Z</time></trkpt><trkpt lat="43.2548263" lon="10.749903"><ele>486.0</ele><time>2026-04-18T09:39:18.296Z</time></trkpt><trkpt lat="43.2549153" lon="10.7499198"><ele>483.8</ele><time>2026-04-18T09:39:19.297Z</time></trkpt><trkpt lat="43.2550074" lon="10.749932"><ele>481.6</ele><time>2026-04-18T09:39:20.293Z</time></trkpt><trkpt lat="43.2551024" lon="10.74994"><ele>479.4</ele><time>2026-04-18T09:39:21.3Z</time></trkpt><trkpt lat="43.2551947" lon="10.7499346"><ele>477.2</ele><time>2026-04-18T09:39:22.3Z</time></trkpt><trkpt lat="43.2552834" lon="10.7499108"><ele>475.0</ele><time>2026-04-18T09:39:23.299Z</time></trkpt><trkpt lat="43.2553769" lon="10.7498637"><ele>475.00000000000006</ele><time>2026-04-18T09:39:24.293Z</time></trkpt><trkpt lat="43.2554614" lon="10.7498339"><ele>475.0</ele><time>2026-04-18T09:39:25.3Z</time></trkpt><trkpt lat="43.2555396" lon="10.7498096"><ele>475.0</ele><time>2026-04-18T09:39:26.297Z</time></trkpt><trkpt lat="43.2556213" lon="10.7498207"><ele>475.0</ele><time>2026-04-18T09:39:27.297Z</time></trkpt><trkpt lat="43.2556999" lon="10.7498327"><ele>475.00000000000006</ele><time>2026-04-18T09:39:28.298Z</time></trkpt><trkpt lat="43.2557565" lon="10.7499335"><ele>475.0</ele><time>2026-04-18T09:39:29.302Z</time></trkpt><trkpt lat="43.255781" lon="10.7500679"><ele>474.2</ele><time>2026-04-18T09:39:30.302Z</time></trkpt><trkpt lat="43.2558362" lon="10.7501598"><ele>473.4</ele><time>2026-04-18T09:39:31.411Z</time></trkpt><trkpt lat="43.255896" lon="10.7502541"><ele>472.6</ele><time>2026-04-18T09:39:32.413Z</time></trkpt><trkpt lat="43.2559601" lon="10.7503345"><ele>471.8</ele><time>2026-04-18T09:39:33.36Z</time></trkpt><trkpt lat="43.2560229" lon="10.7504102"><ele>471.0</ele><time>2026-04-18T09:39:34.291Z</time></trkpt><trkpt lat="43.2561258" lon="10.750453"><ele>471.0</ele><time>2026-04-18T09:39:35.293Z</time></trkpt><trkpt lat="43.2562005" lon="10.7504615"><ele>471.0</ele><time>2026-04-18T09:39:36.295Z</time></trkpt><trkpt lat="43.2562776" lon="10.7505287"><ele>471.0</ele><time>2026-04-18T09:39:37.298Z</time></trkpt><trkpt lat="43.2563616" lon="10.7506046"><ele>471.0</ele><time>2026-04-18T09:39:38.3Z</time></trkpt><trkpt lat="43.2564052" lon="10.7507297"><ele>471.0</ele><time>2026-04-18T09:39:39.293Z</time></trkpt><trkpt lat="43.2564683" lon="10.750893"><ele>469.0</ele><time>2026-04-18T09:39:40.367Z</time></trkpt><trkpt lat="43.2565371" lon="10.7510425"><ele>467.0</ele><time>2026-04-18T09:39:41.434Z</time></trkpt><trkpt lat="43.2566282" lon="10.7511809"><ele>465.0</ele><time>2026-04-18T09:39:42.391Z</time></trkpt><trkpt lat="43.2567024" lon="10.7513078"><ele>463.0</ele><time>2026-04-18T09:39:43.294Z</time></trkpt><trkpt lat="43.2567663" lon="10.7514462"><ele>463.0</ele><time>2026-04-18T09:39:44.426Z</time></trkpt><trkpt lat="43.2568431" lon="10.7515763"><ele>463.0</ele><time>2026-04-18T09:39:45.431Z</time></trkpt><trkpt lat="43.2569183" lon="10.7516978"><ele>463.0</ele><time>2026-04-18T09:39:46.427Z</time></trkpt><trkpt lat="43.2570008" lon="10.7517999"><ele>463.0</ele><time>2026-04-18T09:39:47.431Z</time></trkpt><trkpt lat="43.25709" lon="10.7518956"><ele>462.33333333333337</ele><time>2026-04-18T09:39:48.455Z</time></trkpt><trkpt lat="43.2573016" lon="10.7520378"><ele>461.66666666666663</ele><time>2026-04-18T09:39:50.291Z</time></trkpt><trkpt lat="43.2574098" lon="10.7521238"><ele>461.0</ele><time>2026-04-18T09:39:51.434Z</time></trkpt><trkpt lat="43.2575038" lon="10.752201"><ele>461.0</ele><time>2026-04-18T09:39:52.44Z</time></trkpt><trkpt lat="43.2575955" lon="10.7522662"><ele>461.0</ele><time>2026-04-18T09:39:53.436Z</time></trkpt><trkpt lat="43.2576831" lon="10.7523255"><ele>461.0</ele><time>2026-04-18T09:39:54.43Z</time></trkpt><trkpt lat="43.2577737" lon="10.7523718"><ele>461.0</ele><time>2026-04-18T09:39:55.401Z</time></trkpt><trkpt lat="43.25787" lon="10.7523962"><ele>461.0</ele><time>2026-04-18T09:39:56.437Z</time></trkpt><trkpt lat="43.2579803" lon="10.7523895"><ele>461.0</ele><time>2026-04-18T09:39:57.43Z</time></trkpt><trkpt lat="43.2580921" lon="10.7523783"><ele>461.0</ele><time>2026-04-18T09:39:58.433Z</time></trkpt><trkpt lat="43.2581994" lon="10.7523548"><ele>461.0</ele><time>2026-04-18T09:39:59.426Z</time></trkpt><trkpt lat="43.2583093" lon="10.7523403"><ele>461.0</ele><time>2026-04-18T09:40:00.428Z</time></trkpt><trkpt lat="43.2584304" lon="10.7523082"><ele>462.66666666666663</ele><time>2026-04-18T09:40:01.422Z</time></trkpt><trkpt lat="43.2585457" lon="10.752259"><ele>464.33333333333337</ele><time>2026-04-18T09:40:02.422Z</time></trkpt><trkpt lat="43.2586581" lon="10.7522005"><ele>466.0</ele><time>2026-04-18T09:40:03.434Z</time></trkpt><trkpt lat="43.2588975" lon="10.7520515"><ele>465.6666666666667</ele><time>2026-04-18T09:40:05.417Z</time></trkpt><trkpt lat="43.2590078" lon="10.7519988"><ele>465.33333333333337</ele><time>2026-04-18T09:40:06.423Z</time></trkpt><trkpt lat="43.2592451" lon="10.751945"><ele>465.0</ele><time>2026-04-18T09:40:08.293Z</time></trkpt><trkpt lat="43.2593585" lon="10.7519722"><ele>465.0</ele><time>2026-04-18T09:40:09.298Z</time></trkpt><trkpt lat="43.2594551" lon="10.7520079"><ele>465.0</ele><time>2026-04-18T09:40:10.295Z</time></trkpt><trkpt lat="43.259555" lon="10.7520296"><ele>465.0</ele><time>2026-04-18T09:40:11.294Z</time></trkpt><trkpt lat="43.2596521" lon="10.752059"><ele>465.0</ele><time>2026-04-18T09:40:12.297Z</time></trkpt><trkpt lat="43.2597458" lon="10.7521535"><ele>465.0</ele><time>2026-04-18T09:40:14.294Z</time></trkpt><trkpt lat="43.2597493" lon="10.7522544"><ele>465.0</ele><time>2026-04-18T09:40:15.296Z</time></trkpt><trkpt lat="43.25969" lon="10.7523993"><ele>465.0</ele><time>2026-04-18T09:40:16.3Z</time></trkpt><trkpt lat="43.2596613" lon="10.7525166"><ele>465.0</ele><time>2026-04-18T09:40:17.298Z</time></trkpt><trkpt lat="43.2596181" lon="10.752655"><ele>465.0</ele><time>2026-04-18T09:40:18.299Z</time></trkpt><trkpt lat="43.2595815" lon="10.7528106"><ele>465.0</ele><time>2026-04-18T09:40:19.297Z</time></trkpt><trkpt lat="43.2595483" lon="10.7529562"><ele>463.0</ele><time>2026-04-18T09:40:20.298Z</time></trkpt><trkpt lat="43.2595209" lon="10.7530997"><ele>461.0</ele><time>2026-04-18T09:40:21.296Z</time></trkpt><trkpt lat="43.2594967" lon="10.7532345"><ele>459.0</ele><time>2026-04-18T09:40:22.299Z</time></trkpt><trkpt lat="43.2595081" lon="10.753326"><ele>457.0</ele><time>2026-04-18T09:40:23.417Z</time></trkpt><trkpt lat="43.2595617" lon="10.7534192"><ele>455.0</ele><time>2026-04-18T09:40:24.411Z</time></trkpt><trkpt lat="43.2596865" lon="10.7536293"><ele>455.6</ele><time>2026-04-18T09:40:26.407Z</time></trkpt><trkpt lat="43.2597596" lon="10.7537309"><ele>456.2</ele><time>2026-04-18T09:40:27.398Z</time></trkpt><trkpt lat="43.2598344" lon="10.7538262"><ele>456.79999999999995</ele><time>2026-04-18T09:40:28.399Z</time></trkpt><trkpt lat="43.2599087" lon="10.7539135"><ele>457.4</ele><time>2026-04-18T09:40:29.388Z</time></trkpt><trkpt lat="43.2599978" lon="10.7539831"><ele>458.0</ele><time>2026-04-18T09:40:30.387Z</time></trkpt><trkpt lat="43.2600959" lon="10.754033"><ele>458.0</ele><time>2026-04-18T09:40:31.293Z</time></trkpt><trkpt lat="43.2602009" lon="10.7540892"><ele>457.99999999999994</ele><time>2026-04-18T09:40:32.299Z</time></trkpt><trkpt lat="43.2603004" lon="10.7541289"><ele>457.99999999999994</ele><time>2026-04-18T09:40:33.39Z</time></trkpt><trkpt lat="43.260391" lon="10.7541515"><ele>458.0</ele><time>2026-04-18T09:40:34.393Z</time></trkpt><trkpt lat="43.2604824" lon="10.7541624"><ele>458.0</ele><time>2026-04-18T09:40:35.413Z</time></trkpt><trkpt lat="43.2605741" lon="10.7541466"><ele>458.0</ele><time>2026-04-18T09:40:36.403Z</time></trkpt><trkpt lat="43.2606646" lon="10.7541123"><ele>457.99999999999994</ele><time>2026-04-18T09:40:37.379Z</time></trkpt><trkpt lat="43.2607595" lon="10.7540635"><ele>457.99999999999994</ele><time>2026-04-18T09:40:38.289Z</time></trkpt><trkpt lat="43.2608413" lon="10.7540209"><ele>458.0</ele><time>2026-04-18T09:40:39.335Z</time></trkpt><trkpt lat="43.2609158" lon="10.7539648"><ele>458.0</ele><time>2026-04-18T09:40:40.297Z</time></trkpt><trkpt lat="43.2609686" lon="10.7538776"><ele>457.99999999999994</ele><time>2026-04-18T09:40:41.298Z</time></trkpt><trkpt lat="43.2610102" lon="10.7538108"><ele>458.0</ele><time>2026-04-18T09:40:42.296Z</time></trkpt><trkpt lat="43.2610306" lon="10.7537064"><ele>458.0</ele><time>2026-04-18T09:40:43.297Z</time></trkpt><trkpt lat="43.2610691" lon="10.7536121"><ele>458.0</ele><time>2026-04-18T09:40:44.295Z</time></trkpt><trkpt lat="43.2611397" lon="10.7535711"><ele>457.99999999999994</ele><time>2026-04-18T09:40:45.296Z</time></trkpt><trkpt lat="43.2612292" lon="10.7535307"><ele>458.0</ele><time>2026-04-18T09:40:46.297Z</time></trkpt><trkpt lat="43.2613135" lon="10.7535117"><ele>459.59999999999997</ele><time>2026-04-18T09:40:47.298Z</time></trkpt><trkpt lat="43.2613919" lon="10.753477"><ele>461.19999999999993</ele><time>2026-04-18T09:40:48.297Z</time></trkpt><trkpt lat="43.2614728" lon="10.7534297"><ele>462.8</ele><time>2026-04-18T09:40:49.295Z</time></trkpt><trkpt lat="43.2615367" lon="10.7533202"><ele>464.4</ele><time>2026-04-18T09:40:50.295Z</time></trkpt><trkpt lat="43.2616127" lon="10.7532313"><ele>466.0</ele><time>2026-04-18T09:40:51.296Z</time></trkpt><trkpt lat="43.2616784" lon="10.7531516"><ele>466.00000000000006</ele><time>2026-04-18T09:40:52.297Z</time></trkpt><trkpt lat="43.261744" lon="10.7530796"><ele>466.0</ele><time>2026-04-18T09:40:53.297Z</time></trkpt><trkpt lat="43.2618094" lon="10.7530053"><ele>466.0</ele><time>2026-04-18T09:40:54.299Z</time></trkpt><trkpt lat="43.261901" lon="10.7530237"><ele>466.0</ele><time>2026-04-18T09:40:55.296Z</time></trkpt><trkpt lat="43.2619776" lon="10.7530024"><ele>466.00000000000006</ele><time>2026-04-18T09:40:56.293Z</time></trkpt><trkpt lat="43.2620642" lon="10.7530137"><ele>466.0</ele><time>2026-04-18T09:40:57.297Z</time></trkpt><trkpt lat="43.2621499" lon="10.7530448"><ele>466.0</ele><time>2026-04-18T09:40:58.298Z</time></trkpt><trkpt lat="43.2622328" lon="10.753078"><ele>466.0</ele><time>2026-04-18T09:40:59.298Z</time></trkpt><trkpt lat="43.2622949" lon="10.7531563"><ele>466.0</ele><time>2026-04-18T09:41:00.298Z</time></trkpt><trkpt lat="43.2623953" lon="10.7532061"><ele>466.0</ele><time>2026-04-18T09:41:02.296Z</time></trkpt><trkpt lat="43.2625117" lon="10.7531766"><ele>466.0</ele><time>2026-04-18T09:41:04.296Z</time></trkpt><trkpt lat="43.2625761" lon="10.7531537"><ele>464.8</ele><time>2026-04-18T09:41:05.296Z</time></trkpt><trkpt lat="43.2626634" lon="10.7531677"><ele>463.6</ele><time>2026-04-18T09:41:06.286Z</time></trkpt><trkpt lat="43.2627483" lon="10.753211"><ele>462.4</ele><time>2026-04-18T09:41:07.296Z</time></trkpt><trkpt lat="43.2628334" lon="10.7532867"><ele>461.2</ele><time>2026-04-18T09:41:08.295Z</time></trkpt><trkpt lat="43.2629286" lon="10.7533575"><ele>460.0</ele><time>2026-04-18T09:41:09.298Z</time></trkpt><trkpt lat="43.263026" lon="10.7534141"><ele>459.25</ele><time>2026-04-18T09:41:10.293Z</time></trkpt><trkpt lat="43.26316" lon="10.7534535"><ele>458.5</ele><time>2026-04-18T09:41:11.292Z</time></trkpt><trkpt lat="43.2632788" lon="10.7534797"><ele>457.75</ele><time>2026-04-18T09:41:12.294Z</time></trkpt><trkpt lat="43.2633955" lon="10.7535124"><ele>457.0</ele><time>2026-04-18T09:41:13.296Z</time></trkpt><trkpt lat="43.263504" lon="10.7535486"><ele>454.8</ele><time>2026-04-18T09:41:14.295Z</time></trkpt><trkpt lat="43.2636027" lon="10.7536029"><ele>452.6</ele><time>2026-04-18T09:41:15.296Z</time></trkpt><trkpt lat="43.2636727" lon="10.7537102"><ele>450.40000000000003</ele><time>2026-04-18T09:41:16.295Z</time></trkpt><trkpt lat="43.2637243" lon="10.7538187"><ele>448.20000000000005</ele><time>2026-04-18T09:41:17.299Z</time></trkpt><trkpt lat="43.2637378" lon="10.7539611"><ele>446.0</ele><time>2026-04-18T09:41:18.297Z</time></trkpt><trkpt lat="43.2637661" lon="10.7540959"><ele>446.0</ele><time>2026-04-18T09:41:19.3Z</time></trkpt><trkpt lat="43.2637987" lon="10.754252"><ele>446.0</ele><time>2026-04-18T09:41:20.296Z</time></trkpt><trkpt lat="43.2638427" lon="10.7543975"><ele>446.0</ele><time>2026-04-18T09:41:21.297Z</time></trkpt><trkpt lat="43.2638959" lon="10.7545329"><ele>446.0</ele><time>2026-04-18T09:41:22.297Z</time></trkpt><trkpt lat="43.2639513" lon="10.7546548"><ele>447.6</ele><time>2026-04-18T09:41:23.3Z</time></trkpt><trkpt lat="43.2640204" lon="10.7547351"><ele>449.20000000000005</ele><time>2026-04-18T09:41:24.295Z</time></trkpt><trkpt lat="43.2640959" lon="10.7547922"><ele>450.79999999999995</ele><time>2026-04-18T09:41:25.297Z</time></trkpt><trkpt lat="43.2641796" lon="10.7548454"><ele>452.4</ele><time>2026-04-18T09:41:26.297Z</time></trkpt><trkpt lat="43.2642771" lon="10.7548776"><ele>454.0</ele><time>2026-04-18T09:41:27.293Z</time></trkpt><trkpt lat="43.2643881" lon="10.7548942"><ele>454.0</ele><time>2026-04-18T09:41:28.299Z</time></trkpt><trkpt lat="43.2644968" lon="10.7548981"><ele>454.0</ele><time>2026-04-18T09:41:29.297Z</time></trkpt><trkpt lat="43.2646203" lon="10.7549133"><ele>454.0</ele><time>2026-04-18T09:41:30.387Z</time></trkpt><trkpt lat="43.264729" lon="10.7549491"><ele>454.0</ele><time>2026-04-18T09:41:31.412Z</time></trkpt><trkpt lat="43.2648198" lon="10.7550072"><ele>454.0</ele><time>2026-04-18T09:41:32.328Z</time></trkpt><trkpt lat="43.2649301" lon="10.7550405"><ele>455.79999999999995</ele><time>2026-04-18T09:41:33.414Z</time></trkpt><trkpt lat="43.2650327" lon="10.7550612"><ele>457.59999999999997</ele><time>2026-04-18T09:41:34.407Z</time></trkpt><trkpt lat="43.2651193" lon="10.7550789"><ele>459.4</ele><time>2026-04-18T09:41:35.415Z</time></trkpt><trkpt lat="43.265206" lon="10.7550701"><ele>461.2</ele><time>2026-04-18T09:41:36.408Z</time></trkpt><trkpt lat="43.2653038" lon="10.755068"><ele>463.0</ele><time>2026-04-18T09:41:37.405Z</time></trkpt><trkpt lat="43.2654015" lon="10.7550618"><ele>463.0</ele><time>2026-04-18T09:41:38.355Z</time></trkpt><trkpt lat="43.2655101" lon="10.755002"><ele>463.0</ele><time>2026-04-18T09:41:39.398Z</time></trkpt><trkpt lat="43.2656227" lon="10.7549754"><ele>463.0</ele><time>2026-04-18T09:41:40.421Z</time></trkpt><trkpt lat="43.2657352" lon="10.7549809"><ele>463.0</ele><time>2026-04-18T09:41:41.385Z</time></trkpt><trkpt lat="43.2658496" lon="10.7549611"><ele>460.59999999999997</ele><time>2026-04-18T09:41:42.387Z</time></trkpt><trkpt lat="43.2659354" lon="10.7549395"><ele>458.19999999999993</ele><time>2026-04-18T09:41:43.387Z</time></trkpt><trkpt lat="43.266035" lon="10.7548945"><ele>455.8</ele><time>2026-04-18T09:41:44.384Z</time></trkpt><trkpt lat="43.2661384" lon="10.75486"><ele>453.4</ele><time>2026-04-18T09:41:45.387Z</time></trkpt><trkpt lat="43.2662406" lon="10.7548401"><ele>451.0</ele><time>2026-04-18T09:41:46.384Z</time></trkpt><trkpt lat="43.2663402" lon="10.7548565"><ele>451.0</ele><time>2026-04-18T09:41:47.388Z</time></trkpt><trkpt lat="43.2664425" lon="10.7548981"><ele>451.0</ele><time>2026-04-18T09:41:48.386Z</time></trkpt><trkpt lat="43.2665557" lon="10.7549635"><ele>451.0</ele><time>2026-04-18T09:41:49.294Z</time></trkpt><trkpt lat="43.2666727" lon="10.7550567"><ele>451.0</ele><time>2026-04-18T09:41:50.295Z</time></trkpt><trkpt lat="43.2667879" lon="10.7551536"><ele>446.25</ele><time>2026-04-18T09:41:51.283Z</time></trkpt><trkpt lat="43.2668994" lon="10.7552447"><ele>441.5</ele><time>2026-04-18T09:41:52.378Z</time></trkpt><trkpt lat="43.2670064" lon="10.7553146"><ele>436.75</ele><time>2026-04-18T09:41:53.412Z</time></trkpt><trkpt lat="43.2671183" lon="10.7553715"><ele>432.0</ele><time>2026-04-18T09:41:54.41Z</time></trkpt><trkpt lat="43.2672151" lon="10.7554169"><ele>434.0</ele><time>2026-04-18T09:41:55.403Z</time></trkpt><trkpt lat="43.2673096" lon="10.7554422"><ele>436.00000000000006</ele><time>2026-04-18T09:41:56.411Z</time></trkpt><trkpt lat="43.2674022" lon="10.7554481"><ele>438.00000000000006</ele><time>2026-04-18T09:41:57.409Z</time></trkpt><trkpt lat="43.2674946" lon="10.7554305"><ele>440.0</ele><time>2026-04-18T09:41:58.386Z</time></trkpt><trkpt lat="43.2675827" lon="10.755389"><ele>442.0</ele><time>2026-04-18T09:41:59.405Z</time></trkpt><trkpt lat="43.2676651" lon="10.7553266"><ele>442.00000000000006</ele><time>2026-04-18T09:42:00.394Z</time></trkpt><trkpt lat="43.2677429" lon="10.7552494"><ele>442.0</ele><time>2026-04-18T09:42:01.405Z</time></trkpt><trkpt lat="43.2678164" lon="10.7551633"><ele>442.0</ele><time>2026-04-18T09:42:02.411Z</time></trkpt><trkpt lat="43.2678816" lon="10.755081"><ele>442.0</ele><time>2026-04-18T09:42:03.409Z</time></trkpt><trkpt lat="43.2679563" lon="10.7550224"><ele>442.00000000000006</ele><time>2026-04-18T09:42:04.421Z</time></trkpt><trkpt lat="43.2680226" lon="10.7550023"><ele>442.0</ele><time>2026-04-18T09:42:05.408Z</time></trkpt><trkpt lat="43.2681329" lon="10.7550563"><ele>442.1666666666667</ele><time>2026-04-18T09:42:07.403Z</time></trkpt><trkpt lat="43.2681922" lon="10.7551176"><ele>442.33333333333337</ele><time>2026-04-18T09:42:08.404Z</time></trkpt><trkpt lat="43.2682405" lon="10.7551999"><ele>442.5</ele><time>2026-04-18T09:42:09.409Z</time></trkpt><trkpt lat="43.2682894" lon="10.7552985"><ele>442.66666666666663</ele><time>2026-04-18T09:42:10.412Z</time></trkpt><trkpt lat="43.2683437" lon="10.7554087"><ele>442.8333333333333</ele><time>2026-04-18T09:42:11.387Z</time></trkpt><trkpt lat="43.2684156" lon="10.7555159"><ele>443.0</ele><time>2026-04-18T09:42:12.293Z</time></trkpt><trkpt lat="43.2684971" lon="10.7556285"><ele>443.0</ele><time>2026-04-18T09:42:13.384Z</time></trkpt><trkpt lat="43.2685925" lon="10.7557473"><ele>443.0</ele><time>2026-04-18T09:42:14.402Z</time></trkpt><trkpt lat="43.2686955" lon="10.7558728"><ele>443.0</ele><time>2026-04-18T09:42:15.407Z</time></trkpt><trkpt lat="43.2688021" lon="10.7559982"><ele>443.0</ele><time>2026-04-18T09:42:16.374Z</time></trkpt><trkpt lat="43.268915" lon="10.7561236"><ele>442.25</ele><time>2026-04-18T09:42:17.291Z</time></trkpt><trkpt lat="43.2690231" lon="10.7562369"><ele>441.5</ele><time>2026-04-18T09:42:18.292Z</time></trkpt><trkpt lat="43.2691328" lon="10.7563409"><ele>440.75</ele><time>2026-04-18T09:42:19.295Z</time></trkpt><trkpt lat="43.2692459" lon="10.7564403"><ele>440.0</ele><time>2026-04-18T09:42:20.294Z</time></trkpt><trkpt lat="43.2693605" lon="10.7565372"><ele>440.0</ele><time>2026-04-18T09:42:21.42Z</time></trkpt><trkpt lat="43.2694743" lon="10.7566286"><ele>440.0</ele><time>2026-04-18T09:42:22.412Z</time></trkpt><trkpt lat="43.2696842" lon="10.7567637"><ele>440.0</ele><time>2026-04-18T09:42:24.295Z</time></trkpt><trkpt lat="43.2697841" lon="10.7568008"><ele>440.6</ele><time>2026-04-18T09:42:25.366Z</time></trkpt><trkpt lat="43.2698853" lon="10.7568215"><ele>441.2</ele><time>2026-04-18T09:42:26.388Z</time></trkpt><trkpt lat="43.2699889" lon="10.7568246"><ele>441.79999999999995</ele><time>2026-04-18T09:42:27.292Z</time></trkpt><trkpt lat="43.2700954" lon="10.7568318"><ele>442.4</ele><time>2026-04-18T09:42:28.407Z</time></trkpt><trkpt lat="43.2702018" lon="10.7568439"><ele>443.0</ele><time>2026-04-18T09:42:29.382Z</time></trkpt><trkpt lat="43.2703098" lon="10.7568691"><ele>442.5</ele><time>2026-04-18T09:42:30.401Z</time></trkpt><trkpt lat="43.2704193" lon="10.7569119"><ele>442.0</ele><time>2026-04-18T09:42:31.403Z</time></trkpt><trkpt lat="43.2706256" lon="10.7570389"><ele>441.5</ele><time>2026-04-18T09:42:33.296Z</time></trkpt><trkpt lat="43.2707073" lon="10.7571149"><ele>441.0</ele><time>2026-04-18T09:42:34.381Z</time></trkpt><trkpt lat="43.2707668" lon="10.7572067"><ele>443.4</ele><time>2026-04-18T09:42:35.397Z</time></trkpt><trkpt lat="43.2708047" lon="10.7574316"><ele>445.8</ele><time>2026-04-18T09:42:37.392Z</time></trkpt><trkpt lat="43.2707976" lon="10.7575496"><ele>448.19999999999993</ele><time>2026-04-18T09:42:38.407Z</time></trkpt><trkpt lat="43.270788" lon="10.757661"><ele>450.59999999999997</ele><time>2026-04-18T09:42:39.406Z</time></trkpt><trkpt lat="43.2707858" lon="10.7577592"><ele>453.0</ele><time>2026-04-18T09:42:40.406Z</time></trkpt><trkpt lat="43.2707988" lon="10.7578539"><ele>453.5</ele><time>2026-04-18T09:42:41.411Z</time></trkpt><trkpt lat="43.2708235" lon="10.7579511"><ele>454.0</ele><time>2026-04-18T09:42:42.416Z</time></trkpt><trkpt lat="43.2708621" lon="10.7580486"><ele>454.5</ele><time>2026-04-18T09:42:43.404Z</time></trkpt><trkpt lat="43.270909" lon="10.7581549"><ele>455.0</ele><time>2026-04-18T09:42:44.385Z</time></trkpt><trkpt lat="43.2709502" lon="10.7582717"><ele>455.5</ele><time>2026-04-18T09:42:45.409Z</time></trkpt><trkpt lat="43.2709605" lon="10.7583994"><ele>456.0</ele><time>2026-04-18T09:42:46.408Z</time></trkpt><trkpt lat="43.2709514" lon="10.7585248"><ele>457.0</ele><time>2026-04-18T09:42:47.405Z</time></trkpt><trkpt lat="43.2709285" lon="10.7586591"><ele>458.0</ele><time>2026-04-18T09:42:48.382Z</time></trkpt><trkpt lat="43.2709093" lon="10.7588064"><ele>459.0</ele><time>2026-04-18T09:42:49.413Z</time></trkpt><trkpt lat="43.270842" lon="10.7590817"><ele>460.0</ele><time>2026-04-18T09:42:51.296Z</time></trkpt><trkpt lat="43.2708048" lon="10.7591921"><ele>460.2</ele><time>2026-04-18T09:42:52.295Z</time></trkpt><trkpt lat="43.2707882" lon="10.7594021"><ele>460.4</ele><time>2026-04-18T09:42:54.408Z</time></trkpt><trkpt lat="43.2708082" lon="10.7595077"><ele>460.6</ele><time>2026-04-18T09:42:55.41Z</time></trkpt><trkpt lat="43.270833" lon="10.7596239"><ele>460.8</ele><time>2026-04-18T09:42:56.404Z</time></trkpt><trkpt lat="43.2708551" lon="10.7597312"><ele>461.0</ele><time>2026-04-18T09:42:57.402Z</time></trkpt><trkpt lat="43.2708581" lon="10.759842"><ele>461.0</ele><time>2026-04-18T09:42:58.399Z</time></trkpt><trkpt lat="43.2708552" lon="10.7599777"><ele>461.0</ele><time>2026-04-18T09:42:59.405Z</time></trkpt><trkpt lat="43.2708239" lon="10.7602993"><ele>461.0</ele><time>2026-04-18T09:43:01.413Z</time></trkpt><trkpt lat="43.2708098" lon="10.7604792"><ele>460.99999999999994</ele><time>2026-04-18T09:43:02.388Z</time></trkpt><trkpt lat="43.2708024" lon="10.7606447"><ele>461.0</ele><time>2026-04-18T09:43:03.406Z</time></trkpt><trkpt lat="43.2707915" lon="10.7607826"><ele>461.0</ele><time>2026-04-18T09:43:04.391Z</time></trkpt><trkpt lat="43.27078" lon="10.7608986"><ele>461.0</ele><time>2026-04-18T09:43:05.306Z</time></trkpt><trkpt lat="43.2707845" lon="10.760996"><ele>460.99999999999994</ele><time>2026-04-18T09:43:06.299Z</time></trkpt><trkpt lat="43.2708086" lon="10.7610788"><ele>461.0</ele><time>2026-04-18T09:43:07.385Z</time></trkpt><trkpt lat="43.2708567" lon="10.7611438"><ele>460.99999999999994</ele><time>2026-04-18T09:43:08.42Z</time></trkpt><trkpt lat="43.2709172" lon="10.7612034"><ele>461.0</ele><time>2026-04-18T09:43:09.39Z</time></trkpt><trkpt lat="43.2709915" lon="10.7612523"><ele>461.0</ele><time>2026-04-18T09:43:10.384Z</time></trkpt><trkpt lat="43.2710679" lon="10.7612756"><ele>461.0</ele><time>2026-04-18T09:43:11.39Z</time></trkpt><trkpt lat="43.2711516" lon="10.7612839"><ele>460.99999999999994</ele><time>2026-04-18T09:43:12.417Z</time></trkpt><trkpt lat="43.2712382" lon="10.7612869"><ele>461.0</ele><time>2026-04-18T09:43:13.415Z</time></trkpt><trkpt lat="43.2713246" lon="10.7612814"><ele>461.0</ele><time>2026-04-18T09:43:14.409Z</time></trkpt><trkpt lat="43.2714094" lon="10.7612663"><ele>461.0</ele><time>2026-04-18T09:43:15.409Z</time></trkpt><trkpt lat="43.2714935" lon="10.7612347"><ele>461.0</ele><time>2026-04-18T09:43:16.387Z</time></trkpt><trkpt lat="43.2715641" lon="10.7611903"><ele>461.0</ele><time>2026-04-18T09:43:17.425Z</time></trkpt><trkpt lat="43.2716457" lon="10.7610939"><ele>461.0</ele><time>2026-04-18T09:43:19.399Z</time></trkpt><trkpt lat="43.2716983" lon="10.7609555"><ele>463.8</ele><time>2026-04-18T09:43:21.288Z</time></trkpt><trkpt lat="43.2717367" lon="10.7608534"><ele>466.6</ele><time>2026-04-18T09:43:22.294Z</time></trkpt><trkpt lat="43.2717675" lon="10.7607323"><ele>469.4</ele><time>2026-04-18T09:43:23.301Z</time></trkpt><trkpt lat="43.2717949" lon="10.76059"><ele>472.2</ele><time>2026-04-18T09:43:24.296Z</time></trkpt><trkpt lat="43.2718208" lon="10.7604604"><ele>475.0</ele><time>2026-04-18T09:43:25.294Z</time></trkpt><trkpt lat="43.2718633" lon="10.7603411"><ele>475.0</ele><time>2026-04-18T09:43:26.291Z</time></trkpt><trkpt lat="43.2719256" lon="10.7602316"><ele>475.0</ele><time>2026-04-18T09:43:27.388Z</time></trkpt><trkpt lat="43.2720031" lon="10.7601361"><ele>475.0</ele><time>2026-04-18T09:43:28.393Z</time></trkpt><trkpt lat="43.2720873" lon="10.7600762"><ele>475.0</ele><time>2026-04-18T09:43:29.409Z</time></trkpt><trkpt lat="43.2721847" lon="10.7600449"><ele>475.0</ele><time>2026-04-18T09:43:30.397Z</time></trkpt><trkpt lat="43.2722873" lon="10.7600453"><ele>477.0</ele><time>2026-04-18T09:43:31.404Z</time></trkpt><trkpt lat="43.27239" lon="10.7600695"><ele>479.0</ele><time>2026-04-18T09:43:32.393Z</time></trkpt><trkpt lat="43.2724965" lon="10.7601031"><ele>481.0</ele><time>2026-04-18T09:43:33.408Z</time></trkpt><trkpt lat="43.2726898" lon="10.7601402"><ele>483.0</ele><time>2026-04-18T09:43:35.297Z</time></trkpt><trkpt lat="43.2727796" lon="10.7601323"><ele>483.0</ele><time>2026-04-18T09:43:36.405Z</time></trkpt><trkpt lat="43.2728599" lon="10.7600951"><ele>482.99999999999994</ele><time>2026-04-18T09:43:37.402Z</time></trkpt><trkpt lat="43.2729444" lon="10.7600231"><ele>482.99999999999994</ele><time>2026-04-18T09:43:38.393Z</time></trkpt><trkpt lat="43.273032" lon="10.7599241"><ele>483.0</ele><time>2026-04-18T09:43:39.391Z</time></trkpt><trkpt lat="43.2731225" lon="10.7598103"><ele>483.0</ele><time>2026-04-18T09:43:40.412Z</time></trkpt><trkpt lat="43.2732187" lon="10.759685"><ele>483.1666666666667</ele><time>2026-04-18T09:43:41.343Z</time></trkpt><trkpt lat="43.2733059" lon="10.7595677"><ele>483.33333333333337</ele><time>2026-04-18T09:43:42.386Z</time></trkpt><trkpt lat="43.2733775" lon="10.7594736"><ele>483.5</ele><time>2026-04-18T09:43:43.389Z</time></trkpt><trkpt lat="43.2734393" lon="10.7594002"><ele>483.6666666666667</ele><time>2026-04-18T09:43:44.411Z</time></trkpt><trkpt lat="43.2734941" lon="10.7593465"><ele>483.83333333333337</ele><time>2026-04-18T09:43:45.41Z</time></trkpt><trkpt lat="43.2735512" lon="10.7592991"><ele>484.0</ele><time>2026-04-18T09:43:46.366Z</time></trkpt><trkpt lat="43.2736273" lon="10.759257"><ele>484.0</ele><time>2026-04-18T09:43:47.407Z</time></trkpt><trkpt lat="43.2737166" lon="10.7592105"><ele>484.0</ele><time>2026-04-18T09:43:48.41Z</time></trkpt><trkpt lat="43.2738133" lon="10.7591734"><ele>484.0</ele><time>2026-04-18T09:43:49.42Z</time></trkpt><trkpt lat="43.2740115" lon="10.7591111"><ele>484.0</ele><time>2026-04-18T09:43:51.295Z</time></trkpt><trkpt lat="43.2741176" lon="10.7590751"><ele>486.75</ele><time>2026-04-18T09:43:52.413Z</time></trkpt><trkpt lat="43.2742197" lon="10.7590281"><ele>489.5</ele><time>2026-04-18T09:43:53.406Z</time></trkpt><trkpt lat="43.2743135" lon="10.7589785"><ele>492.25</ele><time>2026-04-18T09:43:54.415Z</time></trkpt><trkpt lat="43.2744025" lon="10.7589372"><ele>495.0</ele><time>2026-04-18T09:43:55.413Z</time></trkpt><trkpt lat="43.2745793" lon="10.7589092"><ele>495.0</ele><time>2026-04-18T09:43:57.296Z</time></trkpt><trkpt lat="43.2746694" lon="10.7589324"><ele>495.0</ele><time>2026-04-18T09:43:58.294Z</time></trkpt><trkpt lat="43.2747531" lon="10.758962"><ele>495.0</ele><time>2026-04-18T09:43:59.3Z</time></trkpt><trkpt lat="43.2748279" lon="10.7589546"><ele>495.0</ele><time>2026-04-18T09:44:00.427Z</time></trkpt><trkpt lat="43.2749005" lon="10.758924"><ele>495.0</ele><time>2026-04-18T09:44:01.422Z</time></trkpt><trkpt lat="43.2749656" lon="10.7588651"><ele>495.0</ele><time>2026-04-18T09:44:02.407Z</time></trkpt><trkpt lat="43.2750347" lon="10.758777"><ele>494.6666666666667</ele><time>2026-04-18T09:44:03.401Z</time></trkpt><trkpt lat="43.2750931" lon="10.7586882"><ele>494.33333333333337</ele><time>2026-04-18T09:44:04.386Z</time></trkpt><trkpt lat="43.2751612" lon="10.7586237"><ele>494.0</ele><time>2026-04-18T09:44:05.4Z</time></trkpt><trkpt lat="43.2752315" lon="10.7585984"><ele>493.6666666666667</ele><time>2026-04-18T09:44:06.389Z</time></trkpt><trkpt lat="43.2753108" lon="10.7586046"><ele>493.33333333333337</ele><time>2026-04-18T09:44:07.298Z</time></trkpt><trkpt lat="43.2753981" lon="10.7586433"><ele>493.0</ele><time>2026-04-18T09:44:08.3Z</time></trkpt><trkpt lat="43.2754978" lon="10.7587052"><ele>493.00000000000006</ele><time>2026-04-18T09:44:09.296Z</time></trkpt><trkpt lat="43.27559" lon="10.7587585"><ele>493.0</ele><time>2026-04-18T09:44:10.296Z</time></trkpt><trkpt lat="43.2756771" lon="10.7587928"><ele>493.0</ele><time>2026-04-18T09:44:11.391Z</time></trkpt><trkpt lat="43.2757651" lon="10.7588118"><ele>493.0</ele><time>2026-04-18T09:44:12.367Z</time></trkpt><trkpt lat="43.2758446" lon="10.7588046"><ele>493.00000000000006</ele><time>2026-04-18T09:44:13.412Z</time></trkpt><trkpt lat="43.2759136" lon="10.7587679"><ele>493.0</ele><time>2026-04-18T09:44:14.408Z</time></trkpt><trkpt lat="43.2759679" lon="10.7587216"><ele>492.2</ele><time>2026-04-18T09:44:15.403Z</time></trkpt><trkpt lat="43.2760249" lon="10.7585497"><ele>491.4</ele><time>2026-04-18T09:44:17.403Z</time></trkpt><trkpt lat="43.2760335" lon="10.7584345"><ele>490.59999999999997</ele><time>2026-04-18T09:44:18.422Z</time></trkpt><trkpt lat="43.2760389" lon="10.7583027"><ele>489.79999999999995</ele><time>2026-04-18T09:44:19.392Z</time></trkpt><trkpt lat="43.2760455" lon="10.7581572"><ele>489.0</ele><time>2026-04-18T09:44:20.391Z</time></trkpt><trkpt lat="43.2760507" lon="10.7580056"><ele>489.0</ele><time>2026-04-18T09:44:21.405Z</time></trkpt><trkpt lat="43.276083" lon="10.7577495"><ele>489.0</ele><time>2026-04-18T09:44:23.293Z</time></trkpt><trkpt lat="43.2761131" lon="10.7576144"><ele>489.0</ele><time>2026-04-18T09:44:24.294Z</time></trkpt><trkpt lat="43.2761686" lon="10.7574774"><ele>489.0</ele><time>2026-04-18T09:44:25.293Z</time></trkpt><trkpt lat="43.2762288" lon="10.7573459"><ele>489.0</ele><time>2026-04-18T09:44:26.288Z</time></trkpt><trkpt lat="43.2762806" lon="10.757234"><ele>489.0</ele><time>2026-04-18T09:44:27.289Z</time></trkpt><trkpt lat="43.2763325" lon="10.7571291"><ele>489.0</ele><time>2026-04-18T09:44:28.286Z</time></trkpt><trkpt lat="43.2763967" lon="10.7570435"><ele>489.0</ele><time>2026-04-18T09:44:29.287Z</time></trkpt><trkpt lat="43.2764734" lon="10.7569813"><ele>489.0</ele><time>2026-04-18T09:44:30.287Z</time></trkpt><trkpt lat="43.2765609" lon="10.7569513"><ele>487.75</ele><time>2026-04-18T09:44:31.29Z</time></trkpt><trkpt lat="43.2766631" lon="10.756943"><ele>486.5</ele><time>2026-04-18T09:44:32.294Z</time></trkpt><trkpt lat="43.2767744" lon="10.7569309"><ele>485.25</ele><time>2026-04-18T09:44:33.296Z</time></trkpt><trkpt lat="43.2768928" lon="10.7569027"><ele>484.0</ele><time>2026-04-18T09:44:34.398Z</time></trkpt><trkpt lat="43.2770105" lon="10.7568677"><ele>484.0</ele><time>2026-04-18T09:44:35.406Z</time></trkpt><trkpt lat="43.2771134" lon="10.7568357"><ele>484.0</ele><time>2026-04-18T09:44:36.365Z</time></trkpt><trkpt lat="43.2772116" lon="10.7568002"><ele>484.0</ele><time>2026-04-18T09:44:37.385Z</time></trkpt><trkpt lat="43.2773087" lon="10.7567611"><ele>484.0</ele><time>2026-04-18T09:44:38.297Z</time></trkpt><trkpt lat="43.2774011" lon="10.7567227"><ele>484.0</ele><time>2026-04-18T09:44:39.295Z</time></trkpt><trkpt lat="43.2774882" lon="10.7566737"><ele>481.75</ele><time>2026-04-18T09:44:40.294Z</time></trkpt><trkpt lat="43.2775657" lon="10.756611"><ele>479.5</ele><time>2026-04-18T09:44:41.303Z</time></trkpt><trkpt lat="43.2776427" lon="10.7565276"><ele>477.25</ele><time>2026-04-18T09:44:42.296Z</time></trkpt><trkpt lat="43.2777165" lon="10.7564235"><ele>475.0</ele><time>2026-04-18T09:44:43.305Z</time></trkpt><trkpt lat="43.2778542" lon="10.7561637"><ele>475.33333333333337</ele><time>2026-04-18T09:44:45.415Z</time></trkpt><trkpt lat="43.2779131" lon="10.7560262"><ele>475.6666666666667</ele><time>2026-04-18T09:44:46.399Z</time></trkpt><trkpt lat="43.2779617" lon="10.7559074"><ele>476.0</ele><time>2026-04-18T09:44:47.388Z</time></trkpt><trkpt lat="43.2780029" lon="10.7558019"><ele>476.33333333333337</ele><time>2026-04-18T09:44:48.395Z</time></trkpt><trkpt lat="43.2780433" lon="10.7557202"><ele>476.6666666666667</ele><time>2026-04-18T09:44:49.387Z</time></trkpt><trkpt lat="43.2780914" lon="10.7556609"><ele>477.0</ele><time>2026-04-18T09:44:50.388Z</time></trkpt><trkpt lat="43.2781587" lon="10.7556249"><ele>475.3333333333333</ele><time>2026-04-18T09:44:51.301Z</time></trkpt><trkpt lat="43.2782281" lon="10.7556111"><ele>473.66666666666663</ele><time>2026-04-18T09:44:52.299Z</time></trkpt><trkpt lat="43.2782939" lon="10.7556319"><ele>472.0</ele><time>2026-04-18T09:44:53.413Z</time></trkpt><trkpt lat="43.2783545" lon="10.7556817"><ele>470.3333333333333</ele><time>2026-04-18T09:44:54.409Z</time></trkpt><trkpt lat="43.2784135" lon="10.7557622"><ele>468.66666666666663</ele><time>2026-04-18T09:44:55.405Z</time></trkpt><trkpt lat="43.2784702" lon="10.7558682"><ele>467.0</ele><time>2026-04-18T09:44:56.376Z</time></trkpt><trkpt lat="43.2785229" lon="10.7559923"><ele>466.6</ele><time>2026-04-18T09:44:57.409Z</time></trkpt><trkpt lat="43.2785723" lon="10.7561113"><ele>466.20000000000005</ele><time>2026-04-18T09:44:58.419Z</time></trkpt><trkpt lat="43.2786148" lon="10.7562227"><ele>465.8</ele><time>2026-04-18T09:44:59.389Z</time></trkpt><trkpt lat="43.2786604" lon="10.7563174"><ele>465.4</ele><time>2026-04-18T09:45:00.416Z</time></trkpt><trkpt lat="43.2787052" lon="10.756397"><ele>465.0</ele><time>2026-04-18T09:45:01.409Z</time></trkpt><trkpt lat="43.2787991" lon="10.7564891"><ele>465.0</ele><time>2026-04-18T09:45:03.391Z</time></trkpt><trkpt lat="43.2789052" lon="10.7564748"><ele>465.0</ele><time>2026-04-18T09:45:05.406Z</time></trkpt><trkpt lat="43.2789564" lon="10.7564103"><ele>465.0</ele><time>2026-04-18T09:45:06.394Z</time></trkpt><trkpt lat="43.2789988" lon="10.7563216"><ele>465.0</ele><time>2026-04-18T09:45:07.395Z</time></trkpt><trkpt lat="43.2790471" lon="10.7562052"><ele>465.0</ele><time>2026-04-18T09:45:08.381Z</time></trkpt><trkpt lat="43.2790851" lon="10.7560835"><ele>465.0</ele><time>2026-04-18T09:45:09.391Z</time></trkpt><trkpt lat="43.2791211" lon="10.7559709"><ele>464.2</ele><time>2026-04-18T09:45:10.412Z</time></trkpt><trkpt lat="43.2791519" lon="10.755862"><ele>463.4</ele><time>2026-04-18T09:45:11.412Z</time></trkpt><trkpt lat="43.2791663" lon="10.7556317"><ele>462.6</ele><time>2026-04-18T09:45:13.294Z</time></trkpt><trkpt lat="43.2791479" lon="10.7554995"><ele>461.8</ele><time>2026-04-18T09:45:14.296Z</time></trkpt><trkpt lat="43.2791314" lon="10.7553698"><ele>461.0</ele><time>2026-04-18T09:45:15.295Z</time></trkpt><trkpt lat="43.2791157" lon="10.7552418"><ele>460.25</ele><time>2026-04-18T09:45:16.294Z</time></trkpt><trkpt lat="43.2791095" lon="10.7551281"><ele>459.5</ele><time>2026-04-18T09:45:17.296Z</time></trkpt><trkpt lat="43.2791176" lon="10.7550366"><ele>458.75</ele><time>2026-04-18T09:45:18.295Z</time></trkpt><trkpt lat="43.2792502" lon="10.7547954"><ele>458.0</ele><time>2026-04-18T09:45:21.296Z</time></trkpt><trkpt lat="43.2793276" lon="10.7547011"><ele>458.0</ele><time>2026-04-18T09:45:22.296Z</time></trkpt><trkpt lat="43.2794028" lon="10.7546035"><ele>457.99999999999994</ele><time>2026-04-18T09:45:23.397Z</time></trkpt><trkpt lat="43.2794632" lon="10.754506"><ele>457.99999999999994</ele><time>2026-04-18T09:45:24.412Z</time></trkpt><trkpt lat="43.2795098" lon="10.7544066"><ele>458.0</ele><time>2026-04-18T09:45:25.409Z</time></trkpt><trkpt lat="43.2795423" lon="10.7543023"><ele>458.0</ele><time>2026-04-18T09:45:26.389Z</time></trkpt><trkpt lat="43.2795689" lon="10.7541854"><ele>457.4</ele><time>2026-04-18T09:45:27.3Z</time></trkpt><trkpt lat="43.2795888" lon="10.7540567"><ele>456.79999999999995</ele><time>2026-04-18T09:45:28.296Z</time></trkpt><trkpt lat="43.2796056" lon="10.7539163"><ele>456.2</ele><time>2026-04-18T09:45:29.386Z</time></trkpt><trkpt lat="43.2796329" lon="10.7537716"><ele>455.6</ele><time>2026-04-18T09:45:30.417Z</time></trkpt><trkpt lat="43.2796718" lon="10.7536237"><ele>455.0</ele><time>2026-04-18T09:45:31.389Z</time></trkpt><trkpt lat="43.2797126" lon="10.7534837"><ele>455.8</ele><time>2026-04-18T09:45:32.385Z</time></trkpt><trkpt lat="43.2797495" lon="10.7533516"><ele>456.6</ele><time>2026-04-18T09:45:33.404Z</time></trkpt><trkpt lat="43.2797842" lon="10.7532206"><ele>457.4</ele><time>2026-04-18T09:45:34.405Z</time></trkpt><trkpt lat="43.2798149" lon="10.7530899"><ele>458.2</ele><time>2026-04-18T09:45:35.392Z</time></trkpt><trkpt lat="43.2798392" lon="10.7529635"><ele>459.0</ele><time>2026-04-18T09:45:36.42Z</time></trkpt><trkpt lat="43.2798592" lon="10.7528193"><ele>457.6</ele><time>2026-04-18T09:45:37.4Z</time></trkpt><trkpt lat="43.2798719" lon="10.7526955"><ele>456.2</ele><time>2026-04-18T09:45:38.394Z</time></trkpt><trkpt lat="43.279894" lon="10.7525884"><ele>454.80000000000007</ele><time>2026-04-18T09:45:39.393Z</time></trkpt><trkpt lat="43.2799759" lon="10.752454"><ele>453.40000000000003</ele><time>2026-04-18T09:45:41.391Z</time></trkpt><trkpt lat="43.280053" lon="10.7523795"><ele>452.0</ele><time>2026-04-18T09:45:42.411Z</time></trkpt><trkpt lat="43.2801394" lon="10.7523306"><ele>452.0</ele><time>2026-04-18T09:45:43.383Z</time></trkpt><trkpt lat="43.2802454" lon="10.7523198"><ele>452.00000000000006</ele><time>2026-04-18T09:45:44.418Z</time></trkpt><trkpt lat="43.2803454" lon="10.7522852"><ele>452.00000000000006</ele><time>2026-04-18T09:45:45.399Z</time></trkpt><trkpt lat="43.2804497" lon="10.7522463"><ele>452.0</ele><time>2026-04-18T09:45:46.394Z</time></trkpt><trkpt lat="43.2805578" lon="10.7522151"><ele>452.0</ele><time>2026-04-18T09:45:47.391Z</time></trkpt><trkpt lat="43.2806768" lon="10.7521797"><ele>451.75</ele><time>2026-04-18T09:45:48.403Z</time></trkpt><trkpt lat="43.2807983" lon="10.7521719"><ele>451.5</ele><time>2026-04-18T09:45:49.394Z</time></trkpt><trkpt lat="43.2809256" lon="10.7521563"><ele>451.25</ele><time>2026-04-18T09:45:50.392Z</time></trkpt><trkpt lat="43.2810398" lon="10.7521426"><ele>451.0</ele><time>2026-04-18T09:45:51.296Z</time></trkpt><trkpt lat="43.2811487" lon="10.7521263"><ele>451.0</ele><time>2026-04-18T09:45:52.297Z</time></trkpt><trkpt lat="43.2812467" lon="10.7521091"><ele>451.0</ele><time>2026-04-18T09:45:53.387Z</time></trkpt><trkpt lat="43.2813405" lon="10.7520934"><ele>451.0</ele><time>2026-04-18T09:45:54.41Z</time></trkpt><trkpt lat="43.2814343" lon="10.7520628"><ele>451.0</ele><time>2026-04-18T09:45:55.427Z</time></trkpt><trkpt lat="43.281554" lon="10.7519971"><ele>451.0</ele><time>2026-04-18T09:45:57.416Z</time></trkpt><trkpt lat="43.2816174" lon="10.7519496"><ele>450.00000000000006</ele><time>2026-04-18T09:45:58.39Z</time></trkpt><trkpt lat="43.2816724" lon="10.7518825"><ele>449.0</ele><time>2026-04-18T09:45:59.415Z</time></trkpt><trkpt lat="43.2817105" lon="10.75181"><ele>448.0</ele><time>2026-04-18T09:46:00.417Z</time></trkpt><trkpt lat="43.2817455" lon="10.7517325"><ele>447.0</ele><time>2026-04-18T09:46:01.396Z</time></trkpt><trkpt lat="43.2817643" lon="10.7516495"><ele>446.00000000000006</ele><time>2026-04-18T09:46:02.391Z</time></trkpt><trkpt lat="43.2817738" lon="10.7515422"><ele>445.0</ele><time>2026-04-18T09:46:03.4Z</time></trkpt><trkpt lat="43.2817867" lon="10.7512889"><ele>444.50000000000006</ele><time>2026-04-18T09:46:05.291Z</time></trkpt><trkpt lat="43.2817774" lon="10.751172"><ele>444.0</ele><time>2026-04-18T09:46:06.296Z</time></trkpt><trkpt lat="43.2817741" lon="10.7510461"><ele>443.5</ele><time>2026-04-18T09:46:07.296Z</time></trkpt><trkpt lat="43.2817857" lon="10.7509337"><ele>443.0</ele><time>2026-04-18T09:46:08.293Z</time></trkpt><trkpt lat="43.2818139" lon="10.7507908"><ele>442.50000000000006</ele><time>2026-04-18T09:46:10.29Z</time></trkpt><trkpt lat="43.2817984" lon="10.7507058"><ele>442.0</ele><time>2026-04-18T09:46:11.296Z</time></trkpt><trkpt lat="43.2817688" lon="10.750608"><ele>441.1666666666667</ele><time>2026-04-18T09:46:12.297Z</time></trkpt><trkpt lat="43.2817269" lon="10.7505164"><ele>440.33333333333337</ele><time>2026-04-18T09:46:13.295Z</time></trkpt><trkpt lat="43.2816738" lon="10.7504078"><ele>439.5</ele><time>2026-04-18T09:46:14.298Z</time></trkpt><trkpt lat="43.2816347" lon="10.7503046"><ele>438.66666666666663</ele><time>2026-04-18T09:46:15.414Z</time></trkpt><trkpt lat="43.281601" lon="10.7501987"><ele>437.8333333333333</ele><time>2026-04-18T09:46:16.413Z</time></trkpt><trkpt lat="43.2815859" lon="10.7500831"><ele>437.0</ele><time>2026-04-18T09:46:17.289Z</time></trkpt><trkpt lat="43.2816031" lon="10.7499794"><ele>436.0</ele><time>2026-04-18T09:46:18.4Z</time></trkpt><trkpt lat="43.2816349" lon="10.7498559"><ele>435.00000000000006</ele><time>2026-04-18T09:46:19.3Z</time></trkpt><trkpt lat="43.281672" lon="10.7497201"><ele>434.00000000000006</ele><time>2026-04-18T09:46:20.293Z</time></trkpt><trkpt lat="43.28172" lon="10.7495882"><ele>433.0</ele><time>2026-04-18T09:46:21.297Z</time></trkpt><trkpt lat="43.2817679" lon="10.7494702"><ele>432.0</ele><time>2026-04-18T09:46:22.294Z</time></trkpt><trkpt lat="43.2818114" lon="10.7493661"><ele>430.0</ele><time>2026-04-18T09:46:23.295Z</time></trkpt><trkpt lat="43.281848" lon="10.7492649"><ele>428.0</ele><time>2026-04-18T09:46:24.386Z</time></trkpt><trkpt lat="43.2818897" lon="10.7491812"><ele>426.0</ele><time>2026-04-18T09:46:25.404Z</time></trkpt><trkpt lat="43.2819306" lon="10.7491028"><ele>424.0</ele><time>2026-04-18T09:46:26.41Z</time></trkpt><trkpt lat="43.2819947" lon="10.7491109"><ele>422.0</ele><time>2026-04-18T09:46:27.411Z</time></trkpt><trkpt lat="43.2820668" lon="10.749083"><ele>420.0</ele><time>2026-04-18T09:46:28.401Z</time></trkpt><trkpt lat="43.2821841" lon="10.7490622"><ele>420.0</ele><time>2026-04-18T09:46:30.392Z</time></trkpt><trkpt lat="43.2822496" lon="10.7490485"><ele>420.0</ele><time>2026-04-18T09:46:31.39Z</time></trkpt><trkpt lat="43.282315" lon="10.7490404"><ele>420.0</ele><time>2026-04-18T09:46:32.395Z</time></trkpt><trkpt lat="43.2823828" lon="10.7488649"><ele>420.0</ele><time>2026-04-18T09:46:34.417Z</time></trkpt><trkpt lat="43.2823595" lon="10.7486889"><ele>420.0</ele><time>2026-04-18T09:46:36.4Z</time></trkpt><trkpt lat="43.282326" lon="10.748598"><ele>419.5</ele><time>2026-04-18T09:46:37.392Z</time></trkpt><trkpt lat="43.2823171" lon="10.7484325"><ele>419.0</ele><time>2026-04-18T09:46:39.388Z</time></trkpt><trkpt lat="43.2823461" lon="10.7483417"><ele>418.5</ele><time>2026-04-18T09:46:40.409Z</time></trkpt><trkpt lat="43.2823848" lon="10.7482517"><ele>418.0</ele><time>2026-04-18T09:46:41.405Z</time></trkpt><trkpt lat="43.2824366" lon="10.7481534"><ele>417.5</ele><time>2026-04-18T09:46:42.412Z</time></trkpt><trkpt lat="43.2824827" lon="10.7480594"><ele>417.0</ele><time>2026-04-18T09:46:43.396Z</time></trkpt><trkpt lat="43.2825405" lon="10.7479834"><ele>417.0</ele><time>2026-04-18T09:46:44.398Z</time></trkpt><trkpt lat="43.2826079" lon="10.7479186"><ele>417.0</ele><time>2026-04-18T09:46:45.409Z</time></trkpt><trkpt lat="43.2826719" lon="10.7478624"><ele>417.0</ele><time>2026-04-18T09:46:46.367Z</time></trkpt><trkpt lat="43.2827283" lon="10.7478147"><ele>417.0</ele><time>2026-04-18T09:46:47.391Z</time></trkpt><trkpt lat="43.2828116" lon="10.7476939"><ele>417.0</ele><time>2026-04-18T09:46:49.413Z</time></trkpt><trkpt lat="43.2829693" lon="10.7476301"><ele>416.5</ele><time>2026-04-18T09:46:52.301Z</time></trkpt><trkpt lat="43.2830622" lon="10.7475716"><ele>416.0</ele><time>2026-04-18T09:46:54.299Z</time></trkpt><trkpt lat="43.283074" lon="10.7474413"><ele>415.5</ele><time>2026-04-18T09:46:55.301Z</time></trkpt><trkpt lat="43.2830894" lon="10.7473325"><ele>415.0</ele><time>2026-04-18T09:46:56.3Z</time></trkpt><trkpt lat="43.2831171" lon="10.7472354"><ele>414.5</ele><time>2026-04-18T09:46:57.291Z</time></trkpt><trkpt lat="43.283153" lon="10.7471398"><ele>414.0</ele><time>2026-04-18T09:46:58.297Z</time></trkpt><trkpt lat="43.2833014" lon="10.7470598"><ele>414.0</ele><time>2026-04-18T09:47:00.302Z</time></trkpt><trkpt lat="43.283367" lon="10.7470667"><ele>414.0</ele><time>2026-04-18T09:47:01.403Z</time></trkpt><trkpt lat="43.2834373" lon="10.7470358"><ele>414.0</ele><time>2026-04-18T09:47:02.409Z</time></trkpt><trkpt lat="43.2835092" lon="10.7470568"><ele>414.0</ele><time>2026-04-18T09:47:03.413Z</time></trkpt><trkpt lat="43.2835841" lon="10.7470512"><ele>414.0</ele><time>2026-04-18T09:47:04.39Z</time></trkpt><trkpt lat="43.2836499" lon="10.7470402"><ele>414.0</ele><time>2026-04-18T09:47:05.391Z</time></trkpt><trkpt lat="43.2837439" lon="10.7470064"><ele>411.6</ele><time>2026-04-18T09:47:07.419Z</time></trkpt><trkpt lat="43.2837638" lon="10.74683"><ele>409.2</ele><time>2026-04-18T09:47:09.392Z</time></trkpt><trkpt lat="43.2837119" lon="10.7467278"><ele>406.8</ele><time>2026-04-18T09:47:11.389Z</time></trkpt><trkpt lat="43.2836012" lon="10.7466378"><ele>404.40000000000003</ele><time>2026-04-18T09:47:13.398Z</time></trkpt><trkpt lat="43.2835409" lon="10.7466099"><ele>402.0</ele><time>2026-04-18T09:47:14.389Z</time></trkpt><trkpt lat="43.2834842" lon="10.7465604"><ele>402.0</ele><time>2026-04-18T09:47:15.397Z</time></trkpt><trkpt lat="43.2833915" lon="10.746459"><ele>402.0</ele><time>2026-04-18T09:47:17.39Z</time></trkpt><trkpt lat="43.2833867" lon="10.7462675"><ele>402.0</ele><time>2026-04-18T09:47:19.393Z</time></trkpt><trkpt lat="43.283401" lon="10.7461447"><ele>402.0</ele><time>2026-04-18T09:47:20.388Z</time></trkpt><trkpt lat="43.2834331" lon="10.7460156"><ele>402.0</ele><time>2026-04-18T09:47:21.296Z</time></trkpt><trkpt lat="43.2834777" lon="10.745887"><ele>400.5</ele><time>2026-04-18T09:47:22.299Z</time></trkpt><trkpt lat="43.2835298" lon="10.745767"><ele>399.0</ele><time>2026-04-18T09:47:23.394Z</time></trkpt><trkpt lat="43.2835805" lon="10.745663"><ele>397.5</ele><time>2026-04-18T09:47:24.393Z</time></trkpt><trkpt lat="43.2836205" lon="10.7455606"><ele>396.0</ele><time>2026-04-18T09:47:25.418Z</time></trkpt><trkpt lat="43.2836648" lon="10.7454748"><ele>394.5</ele><time>2026-04-18T09:47:26.41Z</time></trkpt><trkpt lat="43.2836992" lon="10.7453999"><ele>393.0</ele><time>2026-04-18T09:47:27.398Z</time></trkpt><trkpt lat="43.283731" lon="10.7452354"><ele>392.3333333333333</ele><time>2026-04-18T09:47:29.393Z</time></trkpt><trkpt lat="43.2837261" lon="10.7451347"><ele>391.66666666666663</ele><time>2026-04-18T09:47:30.298Z</time></trkpt><trkpt lat="43.2837061" lon="10.7450363"><ele>391.0</ele><time>2026-04-18T09:47:31.397Z</time></trkpt><trkpt lat="43.2836754" lon="10.7449314"><ele>390.3333333333333</ele><time>2026-04-18T09:47:32.308Z</time></trkpt><trkpt lat="43.2836312" lon="10.7448184"><ele>389.66666666666663</ele><time>2026-04-18T09:47:33.398Z</time></trkpt><trkpt lat="43.2835864" lon="10.7447068"><ele>389.0</ele><time>2026-04-18T09:47:34.387Z</time></trkpt><trkpt lat="43.2835481" lon="10.7445975"><ele>389.0</ele><time>2026-04-18T09:47:35.392Z</time></trkpt><trkpt lat="43.2835079" lon="10.7444831"><ele>389.0</ele><time>2026-04-18T09:47:36.396Z</time></trkpt><trkpt lat="43.2834602" lon="10.7443738"><ele>389.0</ele><time>2026-04-18T09:47:37.393Z</time></trkpt><trkpt lat="43.2834002" lon="10.7442513"><ele>389.0</ele><time>2026-04-18T09:47:38.415Z</time></trkpt><trkpt lat="43.2833364" lon="10.7441327"><ele>389.0</ele><time>2026-04-18T09:47:39.389Z</time></trkpt><trkpt lat="43.2832693" lon="10.7440094"><ele>388.4</ele><time>2026-04-18T09:47:40.399Z</time></trkpt><trkpt lat="43.2831977" lon="10.7438952"><ele>387.79999999999995</ele><time>2026-04-18T09:47:41.393Z</time></trkpt><trkpt lat="43.2831313" lon="10.74378"><ele>387.20000000000005</ele><time>2026-04-18T09:47:42.393Z</time></trkpt><trkpt lat="43.283071" lon="10.7436679"><ele>386.6</ele><time>2026-04-18T09:47:43.39Z</time></trkpt><trkpt lat="43.2830195" lon="10.7435645"><ele>386.0</ele><time>2026-04-18T09:47:44.404Z</time></trkpt><trkpt lat="43.2829899" lon="10.7434537"><ele>383.49999999999994</ele><time>2026-04-18T09:47:45.393Z</time></trkpt><trkpt lat="43.2829673" lon="10.7433384"><ele>381.0</ele><time>2026-04-18T09:47:46.403Z</time></trkpt><trkpt lat="43.2829605" lon="10.7432272"><ele>378.5</ele><time>2026-04-18T09:47:47.395Z</time></trkpt><trkpt lat="43.2829513" lon="10.7431206"><ele>376.0</ele><time>2026-04-18T09:47:48.413Z</time></trkpt><trkpt lat="43.2829399" lon="10.7430275"><ele>373.5</ele><time>2026-04-18T09:47:49.42Z</time></trkpt><trkpt lat="43.2829469" lon="10.7429008"><ele>371.0</ele><time>2026-04-18T09:47:51.293Z</time></trkpt><trkpt lat="43.2830051" lon="10.7428184"><ele>370.75</ele><time>2026-04-18T09:47:53.297Z</time></trkpt><trkpt lat="43.2831028" lon="10.742784"><ele>370.5</ele><time>2026-04-18T09:47:55.394Z</time></trkpt><trkpt lat="43.2832535" lon="10.7427069"><ele>370.25</ele><time>2026-04-18T09:47:58.295Z</time></trkpt><trkpt lat="43.2833481" lon="10.7425907"><ele>370.0</ele><time>2026-04-18T09:48:00.399Z</time></trkpt><trkpt lat="43.2834075" lon="10.7425531"><ele>370.0</ele><time>2026-04-18T09:48:01.389Z</time></trkpt><trkpt lat="43.2836034" lon="10.7425926"><ele>370.0</ele><time>2026-04-18T09:48:04.299Z</time></trkpt><trkpt lat="43.2836684" lon="10.7426466"><ele>370.0</ele><time>2026-04-18T09:48:05.301Z</time></trkpt><trkpt lat="43.283728" lon="10.7427084"><ele>370.0</ele><time>2026-04-18T09:48:06.292Z</time></trkpt><trkpt lat="43.2837815" lon="10.7427722"><ele>370.0</ele><time>2026-04-18T09:48:07.387Z</time></trkpt><trkpt lat="43.2838361" lon="10.7428259"><ele>370.8</ele><time>2026-04-18T09:48:08.416Z</time></trkpt><trkpt lat="43.2839023" lon="10.7428658"><ele>371.6</ele><time>2026-04-18T09:48:09.398Z</time></trkpt><trkpt lat="43.2839784" lon="10.7428948"><ele>372.4</ele><time>2026-04-18T09:48:10.392Z</time></trkpt><trkpt lat="43.2840611" lon="10.7429077"><ele>373.2</ele><time>2026-04-18T09:48:11.405Z</time></trkpt><trkpt lat="43.2842099" lon="10.7429571"><ele>374.0</ele><time>2026-04-18T09:48:13.408Z</time></trkpt><trkpt lat="43.2843415" lon="10.7430288"><ele>374.0</ele><time>2026-04-18T09:48:15.398Z</time></trkpt><trkpt lat="43.2844103" lon="10.7430468"><ele>374.0</ele><time>2026-04-18T09:48:16.403Z</time></trkpt><trkpt lat="43.2844775" lon="10.7430347"><ele>374.0</ele><time>2026-04-18T09:48:17.402Z</time></trkpt><trkpt lat="43.284557" lon="10.7430169"><ele>374.0</ele><time>2026-04-18T09:48:18.422Z</time></trkpt><trkpt lat="43.2846877" lon="10.742995"><ele>374.0</ele><time>2026-04-18T09:48:20.404Z</time></trkpt><trkpt lat="43.2848016" lon="10.7429711"><ele>371.33333333333337</ele><time>2026-04-18T09:48:22.396Z</time></trkpt><trkpt lat="43.2849287" lon="10.7429793"><ele>368.6666666666667</ele><time>2026-04-18T09:48:24.421Z</time></trkpt><trkpt lat="43.2850362" lon="10.7430536"><ele>366.0</ele><time>2026-04-18T09:48:26.418Z</time></trkpt><trkpt lat="43.2851965" lon="10.7432228"><ele>366.0</ele><time>2026-04-18T09:48:28.302Z</time></trkpt><trkpt lat="43.2852705" lon="10.7432828"><ele>366.0</ele><time>2026-04-18T09:48:29.304Z</time></trkpt><trkpt lat="43.2853396" lon="10.7433365"><ele>366.0</ele><time>2026-04-18T09:48:30.381Z</time></trkpt><trkpt lat="43.2854089" lon="10.7433637"><ele>366.0</ele><time>2026-04-18T09:48:31.398Z</time></trkpt><trkpt lat="43.2854843" lon="10.743382"><ele>366.0</ele><time>2026-04-18T09:48:32.301Z</time></trkpt><trkpt lat="43.2855533" lon="10.7434087"><ele>366.0</ele><time>2026-04-18T09:48:33.299Z</time></trkpt><trkpt lat="43.2856094" lon="10.7434667"><ele>366.1666666666667</ele><time>2026-04-18T09:48:34.296Z</time></trkpt><trkpt lat="43.2856653" lon="10.7435516"><ele>366.3333333333333</ele><time>2026-04-18T09:48:35.302Z</time></trkpt><trkpt lat="43.285715" lon="10.7436383"><ele>366.5</ele><time>2026-04-18T09:48:36.296Z</time></trkpt><trkpt lat="43.2857597" lon="10.7437248"><ele>366.66666666666663</ele><time>2026-04-18T09:48:37.408Z</time></trkpt><trkpt lat="43.2857976" lon="10.7438244"><ele>366.8333333333333</ele><time>2026-04-18T09:48:38.408Z</time></trkpt><trkpt lat="43.2858552" lon="10.7439615"><ele>367.0</ele><time>2026-04-18T09:48:40.406Z</time></trkpt><trkpt lat="43.2859231" lon="10.7439598"><ele>367.0</ele><time>2026-04-18T09:48:42.401Z</time></trkpt><trkpt lat="43.2859111" lon="10.7438214"><ele>367.0</ele><time>2026-04-18T09:48:43.399Z</time></trkpt><trkpt lat="43.2859444" lon="10.743688"><ele>367.0</ele><time>2026-04-18T09:48:45.399Z</time></trkpt><trkpt lat="43.2859101" lon="10.7435472"><ele>367.0</ele><time>2026-04-18T09:48:46.423Z</time></trkpt><trkpt lat="43.2859078" lon="10.7434356"><ele>367.0</ele><time>2026-04-18T09:48:47.402Z</time></trkpt><trkpt lat="43.2858975" lon="10.7433307"><ele>365.40000000000003</ele><time>2026-04-18T09:48:48.415Z</time></trkpt><trkpt lat="43.2859606" lon="10.7431432"><ele>363.8</ele><time>2026-04-18T09:48:50.288Z</time></trkpt><trkpt lat="43.286009" lon="10.7430468"><ele>362.2</ele><time>2026-04-18T09:48:51.295Z</time></trkpt><trkpt lat="43.2860807" lon="10.7429649"><ele>360.6</ele><time>2026-04-18T09:48:52.286Z</time></trkpt><trkpt lat="43.2861355" lon="10.7428845"><ele>359.0</ele><time>2026-04-18T09:48:53.293Z</time></trkpt><trkpt lat="43.2861801" lon="10.7427809"><ele>357.1666666666667</ele><time>2026-04-18T09:48:54.291Z</time></trkpt><trkpt lat="43.2862168" lon="10.7426557"><ele>355.33333333333337</ele><time>2026-04-18T09:48:55.295Z</time></trkpt><trkpt lat="43.2862549" lon="10.7425365"><ele>353.5</ele><time>2026-04-18T09:48:56.43Z</time></trkpt><trkpt lat="43.2862876" lon="10.7424279"><ele>351.6666666666667</ele><time>2026-04-18T09:48:57.298Z</time></trkpt><trkpt lat="43.286309" lon="10.7423142"><ele>349.8333333333333</ele><time>2026-04-18T09:48:58.297Z</time></trkpt><trkpt lat="43.286323" lon="10.7422069"><ele>348.0</ele><time>2026-04-18T09:48:59.419Z</time></trkpt><trkpt lat="43.2863323" lon="10.7421072"><ele>348.3333333333333</ele><time>2026-04-18T09:49:00.423Z</time></trkpt><trkpt lat="43.286441" lon="10.7418698"><ele>348.66666666666663</ele><time>2026-04-18T09:49:02.298Z</time></trkpt><trkpt lat="43.2864851" lon="10.7416869"><ele>349.0</ele><time>2026-04-18T09:49:03.425Z</time></trkpt><trkpt lat="43.2865382" lon="10.7415356"><ele>349.0</ele><time>2026-04-18T09:49:04.419Z</time></trkpt><trkpt lat="43.2865858" lon="10.7413979"><ele>349.0</ele><time>2026-04-18T09:49:05.37Z</time></trkpt><trkpt lat="43.2866364" lon="10.7412746"><ele>349.0</ele><time>2026-04-18T09:49:06.435Z</time></trkpt><trkpt lat="43.2866889" lon="10.7411138"><ele>349.0</ele><time>2026-04-18T09:49:07.443Z</time></trkpt><trkpt lat="43.2867382" lon="10.7409459"><ele>344.25</ele><time>2026-04-18T09:49:08.424Z</time></trkpt><trkpt lat="43.2867854" lon="10.7407881"><ele>339.5</ele><time>2026-04-18T09:49:09.436Z</time></trkpt><trkpt lat="43.2868275" lon="10.7406288"><ele>334.75</ele><time>2026-04-18T09:49:10.427Z</time></trkpt><trkpt lat="43.2868712" lon="10.740483"><ele>330.0</ele><time>2026-04-18T09:49:11.438Z</time></trkpt><trkpt lat="43.2869174" lon="10.7403572"><ele>325.0</ele><time>2026-04-18T09:49:12.423Z</time></trkpt><trkpt lat="43.2870204" lon="10.740134"><ele>320.0</ele><time>2026-04-18T09:49:14.299Z</time></trkpt><trkpt lat="43.2870929" lon="10.7400277"><ele>315.0</ele><time>2026-04-18T09:49:15.424Z</time></trkpt><trkpt lat="43.2871713" lon="10.7399496"><ele>310.0</ele><time>2026-04-18T09:49:16.437Z</time></trkpt><trkpt lat="43.2872504" lon="10.7398794"><ele>310.8</ele><time>2026-04-18T09:49:17.431Z</time></trkpt><trkpt lat="43.2873193" lon="10.7397956"><ele>311.6</ele><time>2026-04-18T09:49:18.428Z</time></trkpt><trkpt lat="43.2873729" lon="10.739642"><ele>312.4</ele><time>2026-04-18T09:49:19.43Z</time></trkpt><trkpt lat="43.2874391" lon="10.7395474"><ele>313.2</ele><time>2026-04-18T09:49:20.451Z</time></trkpt><trkpt lat="43.2874989" lon="10.7394463"><ele>314.0</ele><time>2026-04-18T09:49:21.435Z</time></trkpt><trkpt lat="43.287547" lon="10.7393802"><ele>314.0</ele><time>2026-04-18T09:49:22.423Z</time></trkpt><trkpt lat="43.2876009" lon="10.739319"><ele>314.0</ele><time>2026-04-18T09:49:23.442Z</time></trkpt><trkpt lat="43.2877125" lon="10.7392689"><ele>314.0</ele><time>2026-04-18T09:49:25.423Z</time></trkpt><trkpt lat="43.2877829" lon="10.7393382"><ele>314.0</ele><time>2026-04-18T09:49:26.429Z</time></trkpt><trkpt lat="43.2879039" lon="10.7394741"><ele>314.0</ele><time>2026-04-18T09:49:28.289Z</time></trkpt><trkpt lat="43.2879565" lon="10.7395713"><ele>317.2</ele><time>2026-04-18T09:49:29.43Z</time></trkpt><trkpt lat="43.2880213" lon="10.73964"><ele>320.4</ele><time>2026-04-18T09:49:30.432Z</time></trkpt><trkpt lat="43.2881017" lon="10.7396052"><ele>323.6</ele><time>2026-04-18T09:49:32.427Z</time></trkpt><trkpt lat="43.2881412" lon="10.7394643"><ele>326.8</ele><time>2026-04-18T09:49:34.434Z</time></trkpt><trkpt lat="43.288176" lon="10.7392504"><ele>330.0</ele><time>2026-04-18T09:49:36.404Z</time></trkpt><trkpt lat="43.288224" lon="10.7391217"><ele>330.0</ele><time>2026-04-18T09:49:37.424Z</time></trkpt><trkpt lat="43.288282" lon="10.7389914"><ele>330.0</ele><time>2026-04-18T09:49:38.421Z</time></trkpt><trkpt lat="43.2883502" lon="10.7388687"><ele>330.0</ele><time>2026-04-18T09:49:39.428Z</time></trkpt><trkpt lat="43.2885025" lon="10.7386673"><ele>330.0</ele><time>2026-04-18T09:49:41.433Z</time></trkpt><trkpt lat="43.2886682" lon="10.7385121"><ele>329.4</ele><time>2026-04-18T09:49:43.295Z</time></trkpt><trkpt lat="43.2887555" lon="10.7384712"><ele>328.8</ele><time>2026-04-18T09:49:44.426Z</time></trkpt><trkpt lat="43.2888341" lon="10.7384071"><ele>328.20000000000005</ele><time>2026-04-18T09:49:45.429Z</time></trkpt><trkpt lat="43.2889337" lon="10.7383562"><ele>327.6</ele><time>2026-04-18T09:49:46.439Z</time></trkpt><trkpt lat="43.2890513" lon="10.7382889"><ele>327.0</ele><time>2026-04-18T09:49:47.414Z</time></trkpt><trkpt lat="43.2891515" lon="10.7382171"><ele>327.0</ele><time>2026-04-18T09:49:48.428Z</time></trkpt><trkpt lat="43.2892304" lon="10.7381452"><ele>327.0</ele><time>2026-04-18T09:49:49.43Z</time></trkpt><trkpt lat="43.2893296" lon="10.7380861"><ele>327.0</ele><time>2026-04-18T09:49:50.43Z</time></trkpt><trkpt lat="43.2894891" lon="10.7379792"><ele>327.0</ele><time>2026-04-18T09:49:52.295Z</time></trkpt><trkpt lat="43.2895579" lon="10.7379132"><ele>327.0</ele><time>2026-04-18T09:49:53.296Z</time></trkpt><trkpt lat="43.2896198" lon="10.7378091"><ele>327.0</ele><time>2026-04-18T09:49:54.283Z</time></trkpt><trkpt lat="43.289712" lon="10.7376966"><ele>327.0</ele><time>2026-04-18T09:49:55.293Z</time></trkpt><trkpt lat="43.2898057" lon="10.7375842"><ele>327.0</ele><time>2026-04-18T09:49:56.294Z</time></trkpt><trkpt lat="43.2898992" lon="10.7374783"><ele>325.0</ele><time>2026-04-18T09:49:57.296Z</time></trkpt><trkpt lat="43.2899941" lon="10.7373793"><ele>323.0</ele><time>2026-04-18T09:49:58.291Z</time></trkpt><trkpt lat="43.2900731" lon="10.7372766"><ele>321.0</ele><time>2026-04-18T09:49:59.293Z</time></trkpt><trkpt lat="43.2901439" lon="10.7371729"><ele>319.0</ele><time>2026-04-18T09:50:00.287Z</time></trkpt><trkpt lat="43.290207" lon="10.7370475"><ele>317.0</ele><time>2026-04-18T09:50:01.296Z</time></trkpt><trkpt lat="43.2902587" lon="10.7369076"><ele>314.6666666666667</ele><time>2026-04-18T09:50:02.294Z</time></trkpt><trkpt lat="43.290304" lon="10.736771"><ele>312.33333333333337</ele><time>2026-04-18T09:50:03.298Z</time></trkpt><trkpt lat="43.2903337" lon="10.7366886"><ele>310.0</ele><time>2026-04-18T09:50:04.298Z</time></trkpt><trkpt lat="43.2903573" lon="10.7365837"><ele>307.6666666666667</ele><time>2026-04-18T09:50:05.387Z</time></trkpt><trkpt lat="43.2903621" lon="10.7364766"><ele>305.3333333333333</ele><time>2026-04-18T09:50:06.38Z</time></trkpt><trkpt lat="43.2903619" lon="10.73638"><ele>303.0</ele><time>2026-04-18T09:50:07.398Z</time></trkpt><trkpt lat="43.2902909" lon="10.7361451"><ele>303.0</ele><time>2026-04-18T09:50:09.291Z</time></trkpt><trkpt lat="43.2902502" lon="10.7360493"><ele>303.0</ele><time>2026-04-18T09:50:10.29Z</time></trkpt><trkpt lat="43.2902039" lon="10.7359641"><ele>303.0</ele><time>2026-04-18T09:50:11.294Z</time></trkpt><trkpt lat="43.2901784" lon="10.7358825"><ele>303.0</ele><time>2026-04-18T09:50:12.345Z</time></trkpt><trkpt lat="43.2900638" lon="10.7358634"><ele>303.0</ele><time>2026-04-18T09:50:14.289Z</time></trkpt><trkpt lat="43.2899392" lon="10.7358594"><ele>303.0</ele><time>2026-04-18T09:50:15.296Z</time></trkpt><trkpt lat="43.2898371" lon="10.7358305"><ele>303.0</ele><time>2026-04-18T09:50:16.384Z</time></trkpt><trkpt lat="43.2897322" lon="10.735781"><ele>303.0</ele><time>2026-04-18T09:50:17.291Z</time></trkpt><trkpt lat="43.2896315" lon="10.7357583"><ele>303.0</ele><time>2026-04-18T09:50:18.296Z</time></trkpt><trkpt lat="43.289528" lon="10.7357275"><ele>303.0</ele><time>2026-04-18T09:50:19.297Z</time></trkpt><trkpt lat="43.2894372" lon="10.7356841"><ele>301.0</ele><time>2026-04-18T09:50:20.293Z</time></trkpt><trkpt lat="43.2893634" lon="10.735642"><ele>299.0</ele><time>2026-04-18T09:50:21.394Z</time></trkpt><trkpt lat="43.2893001" lon="10.7355785"><ele>297.0</ele><time>2026-04-18T09:50:22.381Z</time></trkpt><trkpt lat="43.2892514" lon="10.7355009"><ele>295.0</ele><time>2026-04-18T09:50:23.413Z</time></trkpt><trkpt lat="43.2892229" lon="10.7353938"><ele>293.0</ele><time>2026-04-18T09:50:24.426Z</time></trkpt><trkpt lat="43.289211" lon="10.735274"><ele>291.0</ele><time>2026-04-18T09:50:25.395Z</time></trkpt><trkpt lat="43.2892156" lon="10.735154"><ele>291.0</ele><time>2026-04-18T09:50:26.412Z</time></trkpt><trkpt lat="43.2892198" lon="10.7348861"><ele>291.0</ele><time>2026-04-18T09:50:28.292Z</time></trkpt><trkpt lat="43.2892068" lon="10.7347555"><ele>291.0</ele><time>2026-04-18T09:50:29.292Z</time></trkpt><trkpt lat="43.2891802" lon="10.7346366"><ele>291.0</ele><time>2026-04-18T09:50:30.292Z</time></trkpt><trkpt lat="43.2891481" lon="10.7345326"><ele>291.0</ele><time>2026-04-18T09:50:31.294Z</time></trkpt><trkpt lat="43.2891256" lon="10.7344489"><ele>291.0</ele><time>2026-04-18T09:50:32.298Z</time></trkpt><trkpt lat="43.2891247" lon="10.7342986"><ele>291.0</ele><time>2026-04-18T09:50:34.395Z</time></trkpt><trkpt lat="43.2892124" lon="10.7341493"><ele>291.0</ele><time>2026-04-18T09:50:36.415Z</time></trkpt><trkpt lat="43.2893027" lon="10.734061"><ele>291.0</ele><time>2026-04-18T09:50:37.421Z</time></trkpt><trkpt lat="43.2893888" lon="10.7339681"><ele>289.0</ele><time>2026-04-18T09:50:38.409Z</time></trkpt><trkpt lat="43.289466" lon="10.7338782"><ele>287.0</ele><time>2026-04-18T09:50:39.405Z</time></trkpt><trkpt lat="43.2895392" lon="10.7337917"><ele>285.0</ele><time>2026-04-18T09:50:40.395Z</time></trkpt><trkpt lat="43.2896031" lon="10.7336987"><ele>283.0</ele><time>2026-04-18T09:50:41.387Z</time></trkpt><trkpt lat="43.2896596" lon="10.7336053"><ele>281.0</ele><time>2026-04-18T09:50:42.396Z</time></trkpt><trkpt lat="43.2897065" lon="10.7335069"><ele>281.1666666666667</ele><time>2026-04-18T09:50:43.412Z</time></trkpt><trkpt lat="43.289757" lon="10.733424"><ele>281.33333333333337</ele><time>2026-04-18T09:50:44.389Z</time></trkpt><trkpt lat="43.2898159" lon="10.7333584"><ele>281.5</ele><time>2026-04-18T09:50:45.407Z</time></trkpt><trkpt lat="43.2898843" lon="10.7333156"><ele>281.6666666666667</ele><time>2026-04-18T09:50:46.385Z</time></trkpt><trkpt lat="43.2899676" lon="10.7332919"><ele>281.8333333333333</ele><time>2026-04-18T09:50:47.389Z</time></trkpt><trkpt lat="43.2900585" lon="10.7332872"><ele>282.0</ele><time>2026-04-18T09:50:48.399Z</time></trkpt><trkpt lat="43.2901495" lon="10.7332915"><ele>282.0</ele><time>2026-04-18T09:50:49.407Z</time></trkpt><trkpt lat="43.290236" lon="10.7333044"><ele>282.0</ele><time>2026-04-18T09:50:50.41Z</time></trkpt><trkpt lat="43.2903275" lon="10.7333183"><ele>282.0</ele><time>2026-04-18T09:50:51.392Z</time></trkpt><trkpt lat="43.2904132" lon="10.7333545"><ele>282.0</ele><time>2026-04-18T09:50:52.392Z</time></trkpt><trkpt lat="43.2904909" lon="10.7334034"><ele>282.0</ele><time>2026-04-18T09:50:53.419Z</time></trkpt><trkpt lat="43.2906186" lon="10.733513"><ele>283.2</ele><time>2026-04-18T09:50:55.393Z</time></trkpt><trkpt lat="43.2906622" lon="10.7335968"><ele>284.4</ele><time>2026-04-18T09:50:56.412Z</time></trkpt><trkpt lat="43.2907605" lon="10.733767"><ele>285.6</ele><time>2026-04-18T09:50:58.296Z</time></trkpt><trkpt lat="43.2907637" lon="10.7338682"><ele>286.8</ele><time>2026-04-18T09:50:59.408Z</time></trkpt><trkpt lat="43.290785" lon="10.733952"><ele>288.0</ele><time>2026-04-18T09:51:00.384Z</time></trkpt><trkpt lat="43.2908342" lon="10.7340626"><ele>288.0</ele><time>2026-04-18T09:51:01.401Z</time></trkpt><trkpt lat="43.2909498" lon="10.7340615"><ele>288.0</ele><time>2026-04-18T09:51:03.417Z</time></trkpt><trkpt lat="43.2910571" lon="10.7340313"><ele>288.0</ele><time>2026-04-18T09:51:04.409Z</time></trkpt><trkpt lat="43.2911334" lon="10.7340515"><ele>288.0</ele><time>2026-04-18T09:51:05.41Z</time></trkpt><trkpt lat="43.2912172" lon="10.734075"><ele>288.0</ele><time>2026-04-18T09:51:06.418Z</time></trkpt><trkpt lat="43.291301" lon="10.734101"><ele>288.0</ele><time>2026-04-18T09:51:07.417Z</time></trkpt><trkpt lat="43.2913681" lon="10.7341358"><ele>288.0</ele><time>2026-04-18T09:51:08.397Z</time></trkpt><trkpt lat="43.2914379" lon="10.734206"><ele>288.0</ele><time>2026-04-18T09:51:09.396Z</time></trkpt><trkpt lat="43.2914903" lon="10.7342983"><ele>288.0</ele><time>2026-04-18T09:51:10.403Z</time></trkpt><trkpt lat="43.2915331" lon="10.734419"><ele>288.0</ele><time>2026-04-18T09:51:11.39Z</time></trkpt><trkpt lat="43.2915796" lon="10.7345295"><ele>288.0</ele><time>2026-04-18T09:51:12.385Z</time></trkpt><trkpt lat="43.2916123" lon="10.7346266"><ele>287.6</ele><time>2026-04-18T09:51:13.384Z</time></trkpt><trkpt lat="43.29165" lon="10.73473"><ele>287.20000000000005</ele><time>2026-04-18T09:51:14.403Z</time></trkpt><trkpt lat="43.2916822" lon="10.7348245"><ele>286.8</ele><time>2026-04-18T09:51:15.389Z</time></trkpt><trkpt lat="43.2917149" lon="10.7349141"><ele>286.40000000000003</ele><time>2026-04-18T09:51:16.386Z</time></trkpt><trkpt lat="43.291787" lon="10.7349734"><ele>286.0</ele><time>2026-04-18T09:51:18.389Z</time></trkpt><trkpt lat="43.2918716" lon="10.7347717"><ele>286.0</ele><time>2026-04-18T09:51:22.296Z</time></trkpt><trkpt lat="43.2919081" lon="10.7346878"><ele>286.0</ele><time>2026-04-18T09:51:23.293Z</time></trkpt><trkpt lat="43.2919652" lon="10.7346133"><ele>286.0</ele><time>2026-04-18T09:51:24.397Z</time></trkpt><trkpt lat="43.2920427" lon="10.7344262"><ele>286.0</ele><time>2026-04-18T09:51:25.411Z</time></trkpt><trkpt lat="43.2920764" lon="10.7343026"><ele>286.0</ele><time>2026-04-18T09:51:26.389Z</time></trkpt><trkpt lat="43.292119" lon="10.7341778"><ele>283.2</ele><time>2026-04-18T09:51:27.294Z</time></trkpt><trkpt lat="43.2921594" lon="10.7340539"><ele>280.40000000000003</ele><time>2026-04-18T09:51:28.295Z</time></trkpt><trkpt lat="43.292195" lon="10.7339292"><ele>277.6</ele><time>2026-04-18T09:51:29.392Z</time></trkpt><trkpt lat="43.2922205" lon="10.7338109"><ele>274.8</ele><time>2026-04-18T09:51:30.293Z</time></trkpt><trkpt lat="43.2922311" lon="10.733675"><ele>272.0</ele><time>2026-04-18T09:51:31.414Z</time></trkpt><trkpt lat="43.2922569" lon="10.7334353"><ele>271.6666666666667</ele><time>2026-04-18T09:51:33.296Z</time></trkpt><trkpt lat="43.2922721" lon="10.7333126"><ele>271.33333333333337</ele><time>2026-04-18T09:51:34.391Z</time></trkpt><trkpt lat="43.2922916" lon="10.7332002"><ele>271.0</ele><time>2026-04-18T09:51:35.389Z</time></trkpt><trkpt lat="43.2923173" lon="10.7330956"><ele>270.6666666666667</ele><time>2026-04-18T09:51:36.396Z</time></trkpt><trkpt lat="43.2923947" lon="10.732966"><ele>270.3333333333333</ele><time>2026-04-18T09:51:38.388Z</time></trkpt><trkpt lat="43.2924548" lon="10.7329217"><ele>270.0</ele><time>2026-04-18T09:51:39.387Z</time></trkpt><trkpt lat="43.2925287" lon="10.7328999"><ele>270.0</ele><time>2026-04-18T09:51:40.394Z</time></trkpt><trkpt lat="43.2926104" lon="10.7328973"><ele>270.0</ele><time>2026-04-18T09:51:41.396Z</time></trkpt><trkpt lat="43.2927678" lon="10.7328724"><ele>270.0</ele><time>2026-04-18T09:51:43.394Z</time></trkpt><trkpt lat="43.2928459" lon="10.7328555"><ele>270.0</ele><time>2026-04-18T09:51:44.404Z</time></trkpt><trkpt lat="43.2929206" lon="10.7328633"><ele>270.0</ele><time>2026-04-18T09:51:45.419Z</time></trkpt><trkpt lat="43.2929849" lon="10.7328716"><ele>269.5</ele><time>2026-04-18T09:51:46.412Z</time></trkpt><trkpt lat="43.2931025" lon="10.732861"><ele>269.0</ele><time>2026-04-18T09:51:48.298Z</time></trkpt><trkpt lat="43.2931567" lon="10.7327855"><ele>268.5</ele><time>2026-04-18T09:51:50.297Z</time></trkpt><trkpt lat="43.2931271" lon="10.7326404"><ele>268.0</ele><time>2026-04-18T09:51:52.393Z</time></trkpt><trkpt lat="43.2931054" lon="10.7325429"><ele>267.5</ele><time>2026-04-18T09:51:53.302Z</time></trkpt><trkpt lat="43.2931052" lon="10.7324562"><ele>267.0</ele><time>2026-04-18T09:51:54.291Z</time></trkpt><trkpt lat="43.293117" lon="10.7323596"><ele>267.0</ele><time>2026-04-18T09:51:55.296Z</time></trkpt><trkpt lat="43.2931504" lon="10.7322426"><ele>267.0</ele><time>2026-04-18T09:51:56.397Z</time></trkpt><trkpt lat="43.2931762" lon="10.7321367"><ele>267.0</ele><time>2026-04-18T09:51:57.298Z</time></trkpt><trkpt lat="43.2932011" lon="10.732041"><ele>267.0</ele><time>2026-04-18T09:51:58.295Z</time></trkpt><trkpt lat="43.2931952" lon="10.7319542"><ele>267.0</ele><time>2026-04-18T09:51:59.296Z</time></trkpt><trkpt lat="43.2931762" lon="10.7318715"><ele>267.0</ele><time>2026-04-18T09:52:01.365Z</time></trkpt><trkpt lat="43.2931062" lon="10.73177"><ele>262.8333333333333</ele><time>2026-04-18T09:52:02.364Z</time></trkpt><trkpt lat="43.2930558" lon="10.7316741"><ele>258.6666666666667</ele><time>2026-04-18T09:52:03.295Z</time></trkpt><trkpt lat="43.2930157" lon="10.7315765"><ele>254.5</ele><time>2026-04-18T09:52:04.294Z</time></trkpt><trkpt lat="43.2929847" lon="10.7314713"><ele>250.33333333333334</ele><time>2026-04-18T09:52:05.293Z</time></trkpt><trkpt lat="43.29298" lon="10.7313817"><ele>246.16666666666669</ele><time>2026-04-18T09:52:06.3Z</time></trkpt><trkpt lat="43.293014" lon="10.7312166"><ele>242.0</ele><time>2026-04-18T09:52:08.415Z</time></trkpt><trkpt lat="43.2930518" lon="10.7311241"><ele>245.75</ele><time>2026-04-18T09:52:09.408Z</time></trkpt><trkpt lat="43.2930976" lon="10.7309716"><ele>249.5</ele><time>2026-04-18T09:52:10.415Z</time></trkpt><trkpt lat="43.2931689" lon="10.7307927"><ele>253.25</ele><time>2026-04-18T09:52:11.419Z</time></trkpt><trkpt lat="43.2932126" lon="10.7306527"><ele>257.0</ele><time>2026-04-18T09:52:12.409Z</time></trkpt><trkpt lat="43.2932533" lon="10.7305107"><ele>257.0</ele><time>2026-04-18T09:52:13.41Z</time></trkpt><trkpt lat="43.2933252" lon="10.7302605"><ele>257.0</ele><time>2026-04-18T09:52:15.396Z</time></trkpt><trkpt lat="43.2933767" lon="10.7301482"><ele>257.0</ele><time>2026-04-18T09:52:16.394Z</time></trkpt><trkpt lat="43.293436" lon="10.7300745"><ele>257.0</ele><time>2026-04-18T09:52:17.395Z</time></trkpt><trkpt lat="43.2935021" lon="10.7300059"><ele>256.25</ele><time>2026-04-18T09:52:18.386Z</time></trkpt><trkpt lat="43.2935807" lon="10.7299432"><ele>255.5</ele><time>2026-04-18T09:52:19.393Z</time></trkpt><trkpt lat="43.2936695" lon="10.7299072"><ele>254.75</ele><time>2026-04-18T09:52:20.386Z</time></trkpt><trkpt lat="43.2937655" lon="10.7298868"><ele>254.0</ele><time>2026-04-18T09:52:21.412Z</time></trkpt><trkpt lat="43.2939767" lon="10.7298222"><ele>254.0</ele><time>2026-04-18T09:52:23.402Z</time></trkpt><trkpt lat="43.2941454" lon="10.7297395"><ele>254.0</ele><time>2026-04-18T09:52:25.387Z</time></trkpt><trkpt lat="43.2942231" lon="10.7297052"><ele>254.0</ele><time>2026-04-18T09:52:26.407Z</time></trkpt><trkpt lat="43.2943593" lon="10.7296484"><ele>254.0</ele><time>2026-04-18T09:52:28.299Z</time></trkpt><trkpt lat="43.2944727" lon="10.7296092"><ele>254.0</ele><time>2026-04-18T09:52:30.385Z</time></trkpt><trkpt lat="43.294546" lon="10.7296576"><ele>253.99999999999997</ele><time>2026-04-18T09:52:32.416Z</time></trkpt><trkpt lat="43.2945957" lon="10.7297707"><ele>253.99999999999997</ele><time>2026-04-18T09:52:35.408Z</time></trkpt><trkpt lat="43.294666" lon="10.7297998"><ele>254.0</ele><time>2026-04-18T09:52:37.408Z</time></trkpt><trkpt lat="43.2947409" lon="10.7297161"><ele>254.0</ele><time>2026-04-18T09:52:39.403Z</time></trkpt><trkpt lat="43.2947724" lon="10.7294899"><ele>252.0</ele><time>2026-04-18T09:52:42.293Z</time></trkpt><trkpt lat="43.2948355" lon="10.7293696"><ele>249.99999999999997</ele><time>2026-04-18T09:52:43.389Z</time></trkpt><trkpt lat="43.2949213" lon="10.7292936"><ele>247.99999999999997</ele><time>2026-04-18T09:52:44.424Z</time></trkpt><trkpt lat="43.2950117" lon="10.7292169"><ele>246.0</ele><time>2026-04-18T09:52:45.419Z</time></trkpt><trkpt lat="43.2950939" lon="10.7291383"><ele>244.0</ele><time>2026-04-18T09:52:46.417Z</time></trkpt><trkpt lat="43.2951902" lon="10.7290585"><ele>244.0</ele><time>2026-04-18T09:52:47.419Z</time></trkpt><trkpt lat="43.2952608" lon="10.7289896"><ele>243.99999999999997</ele><time>2026-04-18T09:52:48.388Z</time></trkpt><trkpt lat="43.2953605" lon="10.7289157"><ele>243.99999999999997</ele><time>2026-04-18T09:52:49.289Z</time></trkpt><trkpt lat="43.2954282" lon="10.7288042"><ele>244.0</ele><time>2026-04-18T09:52:50.402Z</time></trkpt><trkpt lat="43.2955063" lon="10.7286924"><ele>244.0</ele><time>2026-04-18T09:52:51.386Z</time></trkpt><trkpt lat="43.2955795" lon="10.7285644"><ele>239.39999999999998</ele><time>2026-04-18T09:52:52.296Z</time></trkpt><trkpt lat="43.2956527" lon="10.7284289"><ele>234.79999999999998</ele><time>2026-04-18T09:52:53.295Z</time></trkpt><trkpt lat="43.2957172" lon="10.7282923"><ele>230.20000000000002</ele><time>2026-04-18T09:52:54.295Z</time></trkpt><trkpt lat="43.2957741" lon="10.7281709"><ele>225.60000000000002</ele><time>2026-04-18T09:52:55.419Z</time></trkpt><trkpt lat="43.2958153" lon="10.7280742"><ele>221.0</ele><time>2026-04-18T09:52:56.413Z</time></trkpt><trkpt lat="43.2958757" lon="10.7278749"><ele>221.0</ele><time>2026-04-18T09:52:58.297Z</time></trkpt><trkpt lat="43.2958753" lon="10.7277689"><ele>221.0</ele><time>2026-04-18T09:52:59.416Z</time></trkpt><trkpt lat="43.2957949" lon="10.7275618"><ele>221.0</ele><time>2026-04-18T09:53:01.297Z</time></trkpt><trkpt lat="43.2957202" lon="10.72747"><ele>221.0</ele><time>2026-04-18T09:53:02.298Z</time></trkpt><trkpt lat="43.2956366" lon="10.7273648"><ele>219.4</ele><time>2026-04-18T09:53:03.303Z</time></trkpt><trkpt lat="43.2955483" lon="10.7272597"><ele>217.8</ele><time>2026-04-18T09:53:04.297Z</time></trkpt><trkpt lat="43.2954694" lon="10.7271838"><ele>216.20000000000002</ele><time>2026-04-18T09:53:05.294Z</time></trkpt><trkpt lat="43.29541" lon="10.7271201"><ele>214.60000000000002</ele><time>2026-04-18T09:53:06.296Z</time></trkpt><trkpt lat="43.29535" lon="10.7269791"><ele>213.0</ele><time>2026-04-18T09:53:08.392Z</time></trkpt><trkpt lat="43.2953742" lon="10.7268904"><ele>213.0</ele><time>2026-04-18T09:53:09.391Z</time></trkpt><trkpt lat="43.2954402" lon="10.7268065"><ele>213.0</ele><time>2026-04-18T09:53:10.411Z</time></trkpt><trkpt lat="43.2955199" lon="10.7267315"><ele>213.0</ele><time>2026-04-18T09:53:11.403Z</time></trkpt><trkpt lat="43.2956079" lon="10.7266919"><ele>213.0</ele><time>2026-04-18T09:53:12.419Z</time></trkpt><trkpt lat="43.2956901" lon="10.7266891"><ele>213.0</ele><time>2026-04-18T09:53:13.393Z</time></trkpt><trkpt lat="43.2957786" lon="10.7267306"><ele>213.60000000000002</ele><time>2026-04-18T09:53:14.416Z</time></trkpt><trkpt lat="43.2958692" lon="10.7268014"><ele>214.20000000000002</ele><time>2026-04-18T09:53:15.375Z</time></trkpt><trkpt lat="43.2959669" lon="10.7268806"><ele>214.8</ele><time>2026-04-18T09:53:16.301Z</time></trkpt><trkpt lat="43.2960573" lon="10.7269656"><ele>215.4</ele><time>2026-04-18T09:53:17.294Z</time></trkpt><trkpt lat="43.2961367" lon="10.7270441"><ele>216.0</ele><time>2026-04-18T09:53:18.29Z</time></trkpt><trkpt lat="43.2962061" lon="10.7271037"><ele>216.0</ele><time>2026-04-18T09:53:19.29Z</time></trkpt><trkpt lat="43.2962724" lon="10.7271555"><ele>216.00000000000003</ele><time>2026-04-18T09:53:20.291Z</time></trkpt><trkpt lat="43.2963706" lon="10.7270907"><ele>216.00000000000003</ele><time>2026-04-18T09:53:22.294Z</time></trkpt><trkpt lat="43.2963864" lon="10.726899"><ele>216.0</ele><time>2026-04-18T09:53:24.294Z</time></trkpt><trkpt lat="43.2963945" lon="10.7267878"><ele>216.0</ele><time>2026-04-18T09:53:25.358Z</time></trkpt><trkpt lat="43.2964127" lon="10.7266679"><ele>212.20000000000002</ele><time>2026-04-18T09:53:26.296Z</time></trkpt><trkpt lat="43.2964482" lon="10.7265363"><ele>208.40000000000003</ele><time>2026-04-18T09:53:27.298Z</time></trkpt><trkpt lat="43.2964886" lon="10.7264159"><ele>204.6</ele><time>2026-04-18T09:53:28.298Z</time></trkpt><trkpt lat="43.2965272" lon="10.7263067"><ele>200.8</ele><time>2026-04-18T09:53:29.296Z</time></trkpt><trkpt lat="43.296552" lon="10.7261967"><ele>197.0</ele><time>2026-04-18T09:53:30.297Z</time></trkpt><trkpt lat="43.2965404" lon="10.7260853"><ele>197.0</ele><time>2026-04-18T09:53:31.296Z</time></trkpt><trkpt lat="43.2965034" lon="10.7259827"><ele>197.0</ele><time>2026-04-18T09:53:32.296Z</time></trkpt><trkpt lat="43.296447" lon="10.7258671"><ele>197.0</ele><time>2026-04-18T09:53:33.293Z</time></trkpt><trkpt lat="43.2964112" lon="10.7257267"><ele>197.0</ele><time>2026-04-18T09:53:34.292Z</time></trkpt><trkpt lat="43.2964112" lon="10.7255926"><ele>197.0</ele><time>2026-04-18T09:53:35.303Z</time></trkpt><trkpt lat="43.2964464" lon="10.7254625"><ele>195.0</ele><time>2026-04-18T09:53:36.297Z</time></trkpt><trkpt lat="43.2965041" lon="10.7253255"><ele>193.0</ele><time>2026-04-18T09:53:37.295Z</time></trkpt><trkpt lat="43.296572" lon="10.7252026"><ele>191.0</ele><time>2026-04-18T09:53:38.297Z</time></trkpt><trkpt lat="43.2966612" lon="10.725102"><ele>189.0</ele><time>2026-04-18T09:53:39.294Z</time></trkpt><trkpt lat="43.2967664" lon="10.7250232"><ele>188.0</ele><time>2026-04-18T09:53:40.295Z</time></trkpt><trkpt lat="43.2968766" lon="10.7249568"><ele>187.0</ele><time>2026-04-18T09:53:41.295Z</time></trkpt><trkpt lat="43.2969979" lon="10.7248995"><ele>186.0</ele><time>2026-04-18T09:53:42.298Z</time></trkpt><trkpt lat="43.2971214" lon="10.7248428"><ele>185.0</ele><time>2026-04-18T09:53:43.297Z</time></trkpt><trkpt lat="43.2972575" lon="10.7247974"><ele>185.0</ele><time>2026-04-18T09:53:44.295Z</time></trkpt><trkpt lat="43.2973803" lon="10.724748"><ele>185.0</ele><time>2026-04-18T09:53:45.298Z</time></trkpt><trkpt lat="43.2974894" lon="10.7247104"><ele>185.0</ele><time>2026-04-18T09:53:46.29Z</time></trkpt><trkpt lat="43.2975851" lon="10.724676"><ele>185.0</ele><time>2026-04-18T09:53:47.297Z</time></trkpt><trkpt lat="43.2976684" lon="10.724648"><ele>185.0</ele><time>2026-04-18T09:53:48.292Z</time></trkpt><trkpt lat="43.2977506" lon="10.7246224"><ele>185.0</ele><time>2026-04-18T09:53:49.296Z</time></trkpt><trkpt lat="43.2978309" lon="10.7245969"><ele>185.0</ele><time>2026-04-18T09:53:50.295Z</time></trkpt><trkpt lat="43.2979182" lon="10.7245674"><ele>185.0</ele><time>2026-04-18T09:53:51.295Z</time></trkpt><trkpt lat="43.2980084" lon="10.7245399"><ele>185.0</ele><time>2026-04-18T09:53:52.296Z</time></trkpt><trkpt lat="43.2981084" lon="10.7245036"><ele>185.0</ele><time>2026-04-18T09:53:53.294Z</time></trkpt><trkpt lat="43.2981909" lon="10.7244904"><ele>185.0</ele><time>2026-04-18T09:53:54.291Z</time></trkpt><trkpt lat="43.2982692" lon="10.7244782"><ele>185.0</ele><time>2026-04-18T09:53:55.296Z</time></trkpt><trkpt lat="43.2983554" lon="10.7244871"><ele>185.0</ele><time>2026-04-18T09:53:56.291Z</time></trkpt><trkpt lat="43.2984397" lon="10.7245011"><ele>185.0</ele><time>2026-04-18T09:53:57.298Z</time></trkpt><trkpt lat="43.2985364" lon="10.7245365"><ele>185.0</ele><time>2026-04-18T09:53:58.295Z</time></trkpt><trkpt lat="43.2986255" lon="10.7245894"><ele>185.0</ele><time>2026-04-18T09:53:59.298Z</time></trkpt><trkpt lat="43.2987035" lon="10.7246325"><ele>185.0</ele><time>2026-04-18T09:54:00.298Z</time></trkpt><trkpt lat="43.2987898" lon="10.7246908"><ele>185.0</ele><time>2026-04-18T09:54:01.297Z</time></trkpt><trkpt lat="43.29887" lon="10.7247652"><ele>185.0</ele><time>2026-04-18T09:54:02.297Z</time></trkpt><trkpt lat="43.2989433" lon="10.7248425"><ele>185.0</ele><time>2026-04-18T09:54:03.294Z</time></trkpt><trkpt lat="43.29902" lon="10.7249195"><ele>185.0</ele><time>2026-04-18T09:54:04.285Z</time></trkpt><trkpt lat="43.2990748" lon="10.7249848"><ele>183.0</ele><time>2026-04-18T09:54:05.293Z</time></trkpt><trkpt lat="43.2991427" lon="10.7250449"><ele>181.0</ele><time>2026-04-18T09:54:06.296Z</time></trkpt><trkpt lat="43.2992656" lon="10.7250927"><ele>179.0</ele><time>2026-04-18T09:54:08.283Z</time></trkpt><trkpt lat="43.2993559" lon="10.7250628"><ele>177.0</ele><time>2026-04-18T09:54:09.297Z</time></trkpt><trkpt lat="43.2994306" lon="10.7250549"><ele>175.0</ele><time>2026-04-18T09:54:10.302Z</time></trkpt><trkpt lat="43.2995128" lon="10.7250286"><ele>175.0</ele><time>2026-04-18T09:54:11.298Z</time></trkpt><trkpt lat="43.2996011" lon="10.7250093"><ele>175.0</ele><time>2026-04-18T09:54:12.299Z</time></trkpt><trkpt lat="43.2996671" lon="10.7249874"><ele>175.0</ele><time>2026-04-18T09:54:13.294Z</time></trkpt><trkpt lat="43.2997295" lon="10.7250221"><ele>175.0</ele><time>2026-04-18T09:54:14.388Z</time></trkpt><trkpt lat="43.2998029" lon="10.7250713"><ele>175.0</ele><time>2026-04-18T09:54:15.414Z</time></trkpt><trkpt lat="43.2998341" lon="10.7251497"><ele>175.0</ele><time>2026-04-18T09:54:16.412Z</time></trkpt><trkpt lat="43.2998887" lon="10.7252125"><ele>175.0</ele><time>2026-04-18T09:54:17.398Z</time></trkpt><trkpt lat="43.299935" lon="10.7252997"><ele>174.16666666666669</ele><time>2026-04-18T09:54:18.415Z</time></trkpt><trkpt lat="43.2999816" lon="10.725383"><ele>173.33333333333334</ele><time>2026-04-18T09:54:19.423Z</time></trkpt><trkpt lat="43.3000227" lon="10.7254701"><ele>172.5</ele><time>2026-04-18T09:54:20.423Z</time></trkpt><trkpt lat="43.3000682" lon="10.725555"><ele>171.66666666666666</ele><time>2026-04-18T09:54:21.39Z</time></trkpt><trkpt lat="43.3001267" lon="10.7256251"><ele>170.83333333333331</ele><time>2026-04-18T09:54:22.404Z</time></trkpt><trkpt lat="43.3001943" lon="10.7256835"><ele>170.0</ele><time>2026-04-18T09:54:23.405Z</time></trkpt><trkpt lat="43.3002597" lon="10.7257307"><ele>170.0</ele><time>2026-04-18T09:54:24.388Z</time></trkpt><trkpt lat="43.3003274" lon="10.7257625"><ele>170.0</ele><time>2026-04-18T09:54:25.388Z</time></trkpt><trkpt lat="43.3003929" lon="10.7257773"><ele>170.0</ele><time>2026-04-18T09:54:26.347Z</time></trkpt><trkpt lat="43.3004626" lon="10.7257724"><ele>170.0</ele><time>2026-04-18T09:54:27.393Z</time></trkpt><trkpt lat="43.3005556" lon="10.725703"><ele>170.0</ele><time>2026-04-18T09:54:29.387Z</time></trkpt><trkpt lat="43.3005717" lon="10.725551"><ele>170.0</ele><time>2026-04-18T09:54:31.383Z</time></trkpt><trkpt lat="43.3005473" lon="10.7254561"><ele>170.0</ele><time>2026-04-18T09:54:32.386Z</time></trkpt><trkpt lat="43.3005227" lon="10.7253565"><ele>170.0</ele><time>2026-04-18T09:54:33.398Z</time></trkpt><trkpt lat="43.3005157" lon="10.7252554"><ele>170.0</ele><time>2026-04-18T09:54:34.409Z</time></trkpt><trkpt lat="43.3005266" lon="10.7251502"><ele>170.0</ele><time>2026-04-18T09:54:35.416Z</time></trkpt><trkpt lat="43.3005576" lon="10.7250352"><ele>170.0</ele><time>2026-04-18T09:54:36.395Z</time></trkpt><trkpt lat="43.3006063" lon="10.7249248"><ele>170.0</ele><time>2026-04-18T09:54:37.396Z</time></trkpt><trkpt lat="43.3006618" lon="10.7248026"><ele>169.0</ele><time>2026-04-18T09:54:38.412Z</time></trkpt><trkpt lat="43.3007147" lon="10.7246675"><ele>168.0</ele><time>2026-04-18T09:54:39.383Z</time></trkpt><trkpt lat="43.3007607" lon="10.7245367"><ele>167.0</ele><time>2026-04-18T09:54:40.402Z</time></trkpt><trkpt lat="43.3007917" lon="10.7243988"><ele>166.0</ele><time>2026-04-18T09:54:41.419Z</time></trkpt><trkpt lat="43.3008189" lon="10.7241216"><ele>164.5</ele><time>2026-04-18T09:54:43.287Z</time></trkpt><trkpt lat="43.3008191" lon="10.7239846"><ele>163.0</ele><time>2026-04-18T09:54:44.298Z</time></trkpt><trkpt lat="43.300824" lon="10.7238683"><ele>161.5</ele><time>2026-04-18T09:54:45.388Z</time></trkpt><trkpt lat="43.3008399" lon="10.7237507"><ele>160.0</ele><time>2026-04-18T09:54:46.419Z</time></trkpt><trkpt lat="43.3008828" lon="10.7236632"><ele>158.5</ele><time>2026-04-18T09:54:47.397Z</time></trkpt><trkpt lat="43.3009328" lon="10.723573"><ele>157.0</ele><time>2026-04-18T09:54:48.408Z</time></trkpt><trkpt lat="43.3010047" lon="10.7235195"><ele>156.4</ele><time>2026-04-18T09:54:49.392Z</time></trkpt><trkpt lat="43.3010879" lon="10.7234746"><ele>155.79999999999998</ele><time>2026-04-18T09:54:50.388Z</time></trkpt><trkpt lat="43.3011905" lon="10.7234733"><ele>155.2</ele><time>2026-04-18T09:54:51.392Z</time></trkpt><trkpt lat="43.301286" lon="10.7234694"><ele>154.6</ele><time>2026-04-18T09:54:52.299Z</time></trkpt><trkpt lat="43.3013754" lon="10.7234698"><ele>154.0</ele><time>2026-04-18T09:54:53.3Z</time></trkpt><trkpt lat="43.3014595" lon="10.7234502"><ele>154.0</ele><time>2026-04-18T09:54:54.293Z</time></trkpt><trkpt lat="43.3015296" lon="10.7234173"><ele>154.0</ele><time>2026-04-18T09:54:55.38Z</time></trkpt><trkpt lat="43.3016046" lon="10.7233718"><ele>154.0</ele><time>2026-04-18T09:54:56.41Z</time></trkpt><trkpt lat="43.3016543" lon="10.72329"><ele>154.0</ele><time>2026-04-18T09:54:57.391Z</time></trkpt><trkpt lat="43.3017053" lon="10.7231897"><ele>154.0</ele><time>2026-04-18T09:54:58.398Z</time></trkpt><trkpt lat="43.301749" lon="10.723017"><ele>154.0</ele><time>2026-04-18T09:54:59.412Z</time></trkpt><trkpt lat="43.3017886" lon="10.7228747"><ele>154.0</ele><time>2026-04-18T09:55:00.412Z</time></trkpt><trkpt lat="43.3018231" lon="10.7227389"><ele>154.0</ele><time>2026-04-18T09:55:01.41Z</time></trkpt><trkpt lat="43.3018643" lon="10.7226147"><ele>154.0</ele><time>2026-04-18T09:55:02.398Z</time></trkpt><trkpt lat="43.3019789" lon="10.7224015"><ele>152.4</ele><time>2026-04-18T09:55:04.392Z</time></trkpt><trkpt lat="43.3020496" lon="10.7223145"><ele>150.8</ele><time>2026-04-18T09:55:05.299Z</time></trkpt><trkpt lat="43.3021261" lon="10.722241"><ele>149.2</ele><time>2026-04-18T09:55:06.301Z</time></trkpt><trkpt lat="43.3022057" lon="10.7222118"><ele>147.6</ele><time>2026-04-18T09:55:07.385Z</time></trkpt><trkpt lat="43.3022918" lon="10.7221938"><ele>146.0</ele><time>2026-04-18T09:55:08.417Z</time></trkpt><trkpt lat="43.3024021" lon="10.7222203"><ele>146.0</ele><time>2026-04-18T09:55:09.394Z</time></trkpt><trkpt lat="43.3025178" lon="10.72224"><ele>146.0</ele><time>2026-04-18T09:55:10.393Z</time></trkpt><trkpt lat="43.302639" lon="10.722264"><ele>146.0</ele><time>2026-04-18T09:55:11.397Z</time></trkpt><trkpt lat="43.302743" lon="10.7222953"><ele>146.0</ele><time>2026-04-18T09:55:12.402Z</time></trkpt><trkpt lat="43.3029188" lon="10.7223792"><ele>146.0</ele><time>2026-04-18T09:55:14.302Z</time></trkpt><trkpt lat="43.3029981" lon="10.7224295"><ele>146.0</ele><time>2026-04-18T09:55:15.3Z</time></trkpt><trkpt lat="43.3030725" lon="10.7224922"><ele>146.0</ele><time>2026-04-18T09:55:16.399Z</time></trkpt><trkpt lat="43.3031264" lon="10.7225862"><ele>146.0</ele><time>2026-04-18T09:55:17.418Z</time></trkpt><trkpt lat="43.3031898" lon="10.7226963"><ele>146.0</ele><time>2026-04-18T09:55:18.411Z</time></trkpt><trkpt lat="43.3032801" lon="10.7228312"><ele>144.0</ele><time>2026-04-18T09:55:19.389Z</time></trkpt><trkpt lat="43.3033455" lon="10.7229519"><ele>142.0</ele><time>2026-04-18T09:55:20.386Z</time></trkpt><trkpt lat="43.3034075" lon="10.7230676"><ele>140.0</ele><time>2026-04-18T09:55:21.417Z</time></trkpt><trkpt lat="43.3034392" lon="10.7231824"><ele>138.0</ele><time>2026-04-18T09:55:22.39Z</time></trkpt><trkpt lat="43.3034239" lon="10.7233015"><ele>136.0</ele><time>2026-04-18T09:55:23.399Z</time></trkpt><trkpt lat="43.3034281" lon="10.7234405"><ele>136.0</ele><time>2026-04-18T09:55:24.392Z</time></trkpt><trkpt lat="43.3034466" lon="10.7235568"><ele>136.0</ele><time>2026-04-18T09:55:25.418Z</time></trkpt><trkpt lat="43.3034737" lon="10.7236722"><ele>136.0</ele><time>2026-04-18T09:55:26.393Z</time></trkpt><trkpt lat="43.3035008" lon="10.7237753"><ele>136.0</ele><time>2026-04-18T09:55:27.292Z</time></trkpt><trkpt lat="43.3035343" lon="10.7238548"><ele>136.0</ele><time>2026-04-18T09:55:28.293Z</time></trkpt><trkpt lat="43.3035768" lon="10.7239389"><ele>136.0</ele><time>2026-04-18T09:55:29.293Z</time></trkpt><trkpt lat="43.3036257" lon="10.7240179"><ele>135.8</ele><time>2026-04-18T09:55:30.395Z</time></trkpt><trkpt lat="43.3036844" lon="10.7241145"><ele>135.6</ele><time>2026-04-18T09:55:31.393Z</time></trkpt><trkpt lat="43.3037447" lon="10.7242164"><ele>135.4</ele><time>2026-04-18T09:55:32.393Z</time></trkpt><trkpt lat="43.3038002" lon="10.7243016"><ele>135.2</ele><time>2026-04-18T09:55:33.406Z</time></trkpt><trkpt lat="43.303911" lon="10.7244652"><ele>135.0</ele><time>2026-04-18T09:55:35.351Z</time></trkpt><trkpt lat="43.3039662" lon="10.7245458"><ele>133.33333333333334</ele><time>2026-04-18T09:55:36.393Z</time></trkpt><trkpt lat="43.3040118" lon="10.7246326"><ele>131.66666666666666</ele><time>2026-04-18T09:55:37.41Z</time></trkpt><trkpt lat="43.3040565" lon="10.7247173"><ele>130.0</ele><time>2026-04-18T09:55:38.414Z</time></trkpt><trkpt lat="43.3040949" lon="10.7247887"><ele>128.33333333333331</ele><time>2026-04-18T09:55:39.381Z</time></trkpt><trkpt lat="43.3041745" lon="10.7248697"><ele>126.66666666666666</ele><time>2026-04-18T09:55:41.317Z</time></trkpt><trkpt lat="43.3042524" lon="10.7248511"><ele>125.0</ele><time>2026-04-18T09:55:43.295Z</time></trkpt><trkpt lat="43.3043094" lon="10.7247968"><ele>125.0</ele><time>2026-04-18T09:55:59.313Z</time></trkpt><trkpt lat="43.3042473" lon="10.7248479"><ele>125.0</ele><time>2026-04-18T09:56:27.297Z</time></trkpt><trkpt lat="43.3041385" lon="10.7248317"><ele>125.0</ele><time>2026-04-18T09:56:29.35Z</time></trkpt><trkpt lat="43.3040507" lon="10.7247047"><ele>125.0</ele><time>2026-04-18T09:56:31.295Z</time></trkpt><trkpt lat="43.304003" lon="10.7246038"><ele>125.0</ele><time>2026-04-18T09:56:32.299Z</time></trkpt><trkpt lat="43.3039453" lon="10.724506"><ele>127.5</ele><time>2026-04-18T09:56:33.295Z</time></trkpt><trkpt lat="43.3038719" lon="10.7243964"><ele>130.0</ele><time>2026-04-18T09:56:34.295Z</time></trkpt><trkpt lat="43.3037934" lon="10.7242829"><ele>132.5</ele><time>2026-04-18T09:56:35.292Z</time></trkpt><trkpt lat="43.3037107" lon="10.7241494"><ele>135.0</ele><time>2026-04-18T09:56:36.294Z</time></trkpt><trkpt lat="43.303632" lon="10.7240257"><ele>135.0</ele><time>2026-04-18T09:56:37.295Z</time></trkpt><trkpt lat="43.3035659" lon="10.7239231"><ele>135.0</ele><time>2026-04-18T09:56:38.293Z</time></trkpt><trkpt lat="43.3035163" lon="10.7238269"><ele>135.0</ele><time>2026-04-18T09:56:39.297Z</time></trkpt><trkpt lat="43.3034796" lon="10.7237049"><ele>135.0</ele><time>2026-04-18T09:56:41.295Z</time></trkpt><trkpt lat="43.3035146" lon="10.723614"><ele>135.0</ele><time>2026-04-18T09:56:43.291Z</time></trkpt><trkpt lat="43.303573" lon="10.7234537"><ele>135.16666666666666</ele><time>2026-04-18T09:56:45.301Z</time></trkpt><trkpt lat="43.303592" lon="10.7233625"><ele>135.33333333333334</ele><time>2026-04-18T09:56:46.3Z</time></trkpt><trkpt lat="43.3036108" lon="10.7232662"><ele>135.5</ele><time>2026-04-18T09:56:47.297Z</time></trkpt><trkpt lat="43.3036076" lon="10.7231456"><ele>135.66666666666669</ele><time>2026-04-18T09:56:48.298Z</time></trkpt><trkpt lat="43.3036031" lon="10.7230164"><ele>135.83333333333334</ele><time>2026-04-18T09:56:49.302Z</time></trkpt><trkpt lat="43.3036005" lon="10.7228751"><ele>136.0</ele><time>2026-04-18T09:56:50.301Z</time></trkpt><trkpt lat="43.3035897" lon="10.7227441"><ele>135.4</ele><time>2026-04-18T09:56:51.394Z</time></trkpt><trkpt lat="43.3036368" lon="10.7226092"><ele>134.8</ele><time>2026-04-18T09:56:52.421Z</time></trkpt><trkpt lat="43.3036692" lon="10.7224697"><ele>134.20000000000002</ele><time>2026-04-18T09:56:53.397Z</time></trkpt><trkpt lat="43.303706" lon="10.7223344"><ele>133.6</ele><time>2026-04-18T09:56:54.413Z</time></trkpt><trkpt lat="43.3037444" lon="10.7222029"><ele>133.0</ele><time>2026-04-18T09:56:55.399Z</time></trkpt><trkpt lat="43.3038005" lon="10.7220664"><ele>133.0</ele><time>2026-04-18T09:56:56.414Z</time></trkpt><trkpt lat="43.3038614" lon="10.7219312"><ele>133.0</ele><time>2026-04-18T09:56:57.415Z</time></trkpt><trkpt lat="43.3039214" lon="10.7217978"><ele>133.0</ele><time>2026-04-18T09:56:58.421Z</time></trkpt><trkpt lat="43.3039811" lon="10.721665"><ele>133.0</ele><time>2026-04-18T09:56:59.413Z</time></trkpt><trkpt lat="43.3040447" lon="10.7215348"><ele>131.0</ele><time>2026-04-18T09:57:00.414Z</time></trkpt><trkpt lat="43.3041022" lon="10.7214013"><ele>129.0</ele><time>2026-04-18T09:57:01.42Z</time></trkpt><trkpt lat="43.3041729" lon="10.7212745"><ele>127.00000000000001</ele><time>2026-04-18T09:57:02.393Z</time></trkpt><trkpt lat="43.3042355" lon="10.7211562"><ele>125.0</ele><time>2026-04-18T09:57:03.3Z</time></trkpt><trkpt lat="43.3042924" lon="10.721052"><ele>123.0</ele><time>2026-04-18T09:57:04.288Z</time></trkpt><trkpt lat="43.3043534" lon="10.7209406"><ele>123.0</ele><time>2026-04-18T09:57:05.408Z</time></trkpt><trkpt lat="43.3044074" lon="10.7208376"><ele>123.00000000000001</ele><time>2026-04-18T09:57:06.418Z</time></trkpt><trkpt lat="43.3044678" lon="10.7207654"><ele>123.00000000000001</ele><time>2026-04-18T09:57:07.389Z</time></trkpt><trkpt lat="43.304555" lon="10.7207235"><ele>123.0</ele><time>2026-04-18T09:57:08.416Z</time></trkpt><trkpt lat="43.304662" lon="10.7206906"><ele>123.0</ele><time>2026-04-18T09:57:09.399Z</time></trkpt><trkpt lat="43.3047633" lon="10.7206903"><ele>120.66666666666667</ele><time>2026-04-18T09:57:10.388Z</time></trkpt><trkpt lat="43.3048552" lon="10.720681"><ele>118.33333333333334</ele><time>2026-04-18T09:57:11.385Z</time></trkpt><trkpt lat="43.3049424" lon="10.7206715"><ele>116.0</ele><time>2026-04-18T09:57:12.424Z</time></trkpt><trkpt lat="43.3050222" lon="10.7206387"><ele>113.66666666666667</ele><time>2026-04-18T09:57:13.396Z</time></trkpt><trkpt lat="43.3050963" lon="10.7206229"><ele>111.33333333333334</ele><time>2026-04-18T09:57:14.413Z</time></trkpt><trkpt lat="43.3051731" lon="10.7205986"><ele>109.0</ele><time>2026-04-18T09:57:15.39Z</time></trkpt><trkpt lat="43.3052529" lon="10.7205468"><ele>109.00000000000001</ele><time>2026-04-18T09:57:16.32Z</time></trkpt><trkpt lat="43.3053079" lon="10.7204747"><ele>109.0</ele><time>2026-04-18T09:57:17.397Z</time></trkpt><trkpt lat="43.3053414" lon="10.7203959"><ele>109.0</ele><time>2026-04-18T09:57:18.409Z</time></trkpt><trkpt lat="43.3053996" lon="10.7202192"><ele>109.0</ele><time>2026-04-18T09:57:20.408Z</time></trkpt><trkpt lat="43.3054175" lon="10.7201204"><ele>109.00000000000001</ele><time>2026-04-18T09:57:21.404Z</time></trkpt><trkpt lat="43.3054348" lon="10.7200046"><ele>109.0</ele><time>2026-04-18T09:57:22.406Z</time></trkpt><trkpt lat="43.3054505" lon="10.7198857"><ele>110.00000000000001</ele><time>2026-04-18T09:57:23.42Z</time></trkpt><trkpt lat="43.3054652" lon="10.7197642"><ele>111.0</ele><time>2026-04-18T09:57:24.409Z</time></trkpt><trkpt lat="43.3054769" lon="10.7196597"><ele>112.0</ele><time>2026-04-18T09:57:25.401Z</time></trkpt><trkpt lat="43.3054751" lon="10.7195566"><ele>113.0</ele><time>2026-04-18T09:57:26.393Z</time></trkpt><trkpt lat="43.3054859" lon="10.7194652"><ele>114.00000000000001</ele><time>2026-04-18T09:57:27.407Z</time></trkpt><trkpt lat="43.3054793" lon="10.719375"><ele>115.0</ele><time>2026-04-18T09:57:28.409Z</time></trkpt><trkpt lat="43.3054457" lon="10.7192792"><ele>115.0</ele><time>2026-04-18T09:57:29.402Z</time></trkpt><trkpt lat="43.3053991" lon="10.719188"><ele>115.0</ele><time>2026-04-18T09:57:30.411Z</time></trkpt><trkpt lat="43.3053683" lon="10.7188949"><ele>115.0</ele><time>2026-04-18T09:57:32.301Z</time></trkpt><trkpt lat="43.3053697" lon="10.7187438"><ele>115.0</ele><time>2026-04-18T09:57:33.395Z</time></trkpt><trkpt lat="43.3053789" lon="10.7186097"><ele>115.0</ele><time>2026-04-18T09:57:34.39Z</time></trkpt><trkpt lat="43.3054003" lon="10.718505"><ele>115.0</ele><time>2026-04-18T09:57:35.404Z</time></trkpt><trkpt lat="43.3054461" lon="10.7184312"><ele>115.0</ele><time>2026-04-18T09:57:36.401Z</time></trkpt><trkpt lat="43.3055775" lon="10.7183913"><ele>115.0</ele><time>2026-04-18T09:57:38.405Z</time></trkpt><trkpt lat="43.305673" lon="10.7183563"><ele>115.0</ele><time>2026-04-18T09:57:39.396Z</time></trkpt><trkpt lat="43.3057488" lon="10.7183348"><ele>112.50000000000001</ele><time>2026-04-18T09:57:40.388Z</time></trkpt><trkpt lat="43.3058347" lon="10.7183045"><ele>110.0</ele><time>2026-04-18T09:57:41.406Z</time></trkpt><trkpt lat="43.3059252" lon="10.7182579"><ele>107.5</ele><time>2026-04-18T09:57:42.387Z</time></trkpt><trkpt lat="43.3060018" lon="10.718207"><ele>105.0</ele><time>2026-04-18T09:57:43.292Z</time></trkpt><trkpt lat="43.3060615" lon="10.7181145"><ele>102.50000000000001</ele><time>2026-04-18T09:57:44.299Z</time></trkpt><trkpt lat="43.3061128" lon="10.7180288"><ele>100.0</ele><time>2026-04-18T09:57:45.4Z</time></trkpt><trkpt lat="43.3061645" lon="10.7179407"><ele>100.00000000000001</ele><time>2026-04-18T09:57:46.394Z</time></trkpt><trkpt lat="43.306203" lon="10.7178603"><ele>100.0</ele><time>2026-04-18T09:57:47.391Z</time></trkpt><trkpt lat="43.3061976" lon="10.7177159"><ele>100.0</ele><time>2026-04-18T09:57:48.397Z</time></trkpt><trkpt lat="43.3062215" lon="10.7176005"><ele>100.0</ele><time>2026-04-18T09:57:49.396Z</time></trkpt><trkpt lat="43.306258" lon="10.7175059"><ele>100.00000000000001</ele><time>2026-04-18T09:57:50.395Z</time></trkpt><trkpt lat="43.3063109" lon="10.7174146"><ele>100.0</ele><time>2026-04-18T09:57:51.297Z</time></trkpt><trkpt lat="43.3063843" lon="10.7173511"><ele>98.16666666666667</ele><time>2026-04-18T09:57:52.398Z</time></trkpt><trkpt lat="43.3064544" lon="10.7172958"><ele>96.33333333333334</ele><time>2026-04-18T09:57:53.359Z</time></trkpt><trkpt lat="43.3065379" lon="10.7172649"><ele>94.5</ele><time>2026-04-18T09:57:54.37Z</time></trkpt><trkpt lat="43.3066114" lon="10.7172227"><ele>92.66666666666667</ele><time>2026-04-18T09:57:55.366Z</time></trkpt><trkpt lat="43.3066773" lon="10.7171908"><ele>90.83333333333334</ele><time>2026-04-18T09:57:56.294Z</time></trkpt><trkpt lat="43.3067754" lon="10.7170778"><ele>89.0</ele><time>2026-04-18T09:57:58.4Z</time></trkpt><trkpt lat="43.306814" lon="10.716923"><ele>89.25</ele><time>2026-04-18T09:58:00.361Z</time></trkpt><trkpt lat="43.3068241" lon="10.7168327"><ele>89.5</ele><time>2026-04-18T09:58:01.291Z</time></trkpt><trkpt lat="43.3068148" lon="10.7164319"><ele>89.75</ele><time>2026-04-18T09:58:05.294Z</time></trkpt><trkpt lat="43.3068091" lon="10.7163339"><ele>90.0</ele><time>2026-04-18T09:58:06.407Z</time></trkpt><trkpt lat="43.306808" lon="10.7162173"><ele>90.0</ele><time>2026-04-18T09:58:08.412Z</time></trkpt><trkpt lat="43.3068703" lon="10.7161645"><ele>90.0</ele><time>2026-04-18T09:58:10.391Z</time></trkpt><trkpt lat="43.30692" lon="10.7162278"><ele>90.0</ele><time>2026-04-18T09:58:12.377Z</time></trkpt><trkpt lat="43.3069573" lon="10.7163795"><ele>90.0</ele><time>2026-04-18T09:58:14.417Z</time></trkpt><trkpt lat="43.3069986" lon="10.7164937"><ele>90.0</ele><time>2026-04-18T09:58:15.389Z</time></trkpt><trkpt lat="43.3070493" lon="10.7166252"><ele>90.0</ele><time>2026-04-18T09:58:16.414Z</time></trkpt><trkpt lat="43.3070914" lon="10.7167543"><ele>90.0</ele><time>2026-04-18T09:58:17.34Z</time></trkpt><trkpt lat="43.3071289" lon="10.7168994"><ele>90.0</ele><time>2026-04-18T09:58:18.288Z</time></trkpt><trkpt lat="43.3071713" lon="10.717053"><ele>90.0</ele><time>2026-04-18T09:58:19.29Z</time></trkpt><trkpt lat="43.3071721" lon="10.7171813"><ele>90.0</ele><time>2026-04-18T09:58:20.295Z</time></trkpt><trkpt lat="43.3071897" lon="10.7173172"><ele>89.83333333333333</ele><time>2026-04-18T09:58:21.289Z</time></trkpt><trkpt lat="43.3071876" lon="10.7174303"><ele>89.66666666666667</ele><time>2026-04-18T09:58:22.291Z</time></trkpt><trkpt lat="43.3071765" lon="10.7175485"><ele>89.5</ele><time>2026-04-18T09:58:23.298Z</time></trkpt><trkpt lat="43.3071539" lon="10.7176544"><ele>89.33333333333334</ele><time>2026-04-18T09:58:24.353Z</time></trkpt><trkpt lat="43.307096" lon="10.7177265"><ele>89.16666666666667</ele><time>2026-04-18T09:58:25.295Z</time></trkpt><trkpt lat="43.3070336" lon="10.7178019"><ele>89.0</ele><time>2026-04-18T09:58:26.431Z</time></trkpt><trkpt lat="43.306968" lon="10.7178573"><ele>88.0</ele><time>2026-04-18T09:58:27.425Z</time></trkpt><trkpt lat="43.3069139" lon="10.717928"><ele>87.0</ele><time>2026-04-18T09:58:28.36Z</time></trkpt><trkpt lat="43.3068918" lon="10.7180801"><ele>86.0</ele><time>2026-04-18T09:58:30.424Z</time></trkpt><trkpt lat="43.3070032" lon="10.7182716"><ele>85.0</ele><time>2026-04-18T09:58:32.287Z</time></trkpt><trkpt lat="43.3070293" lon="10.7183661"><ele>84.0</ele><time>2026-04-18T09:58:33.288Z</time></trkpt><trkpt lat="43.3070319" lon="10.7185607"><ele>83.4</ele><time>2026-04-18T09:58:35.291Z</time></trkpt><trkpt lat="43.3070069" lon="10.7187034"><ele>82.80000000000001</ele><time>2026-04-18T09:58:36.292Z</time></trkpt><trkpt lat="43.3069834" lon="10.7188327"><ele>82.19999999999999</ele><time>2026-04-18T09:58:37.294Z</time></trkpt><trkpt lat="43.3069711" lon="10.7189551"><ele>81.6</ele><time>2026-04-18T09:58:38.296Z</time></trkpt><trkpt lat="43.3069655" lon="10.7190773"><ele>81.0</ele><time>2026-04-18T09:58:39.417Z</time></trkpt><trkpt lat="43.3069684" lon="10.7191979"><ele>81.0</ele><time>2026-04-18T09:58:40.392Z</time></trkpt><trkpt lat="43.3069783" lon="10.7193073"><ele>81.0</ele><time>2026-04-18T09:58:41.414Z</time></trkpt><trkpt lat="43.3069876" lon="10.7194199"><ele>81.0</ele><time>2026-04-18T09:58:43.296Z</time></trkpt><trkpt lat="43.3070496" lon="10.7194819"><ele>81.0</ele><time>2026-04-18T09:58:45.298Z</time></trkpt><trkpt lat="43.3071033" lon="10.7194312"><ele>81.0</ele><time>2026-04-18T09:58:47.298Z</time></trkpt><trkpt lat="43.3071582" lon="10.7193024"><ele>81.0</ele><time>2026-04-18T09:58:49.289Z</time></trkpt><trkpt lat="43.3071979" lon="10.7191919"><ele>81.0</ele><time>2026-04-18T09:58:50.292Z</time></trkpt><trkpt lat="43.3072356" lon="10.7190313"><ele>81.0</ele><time>2026-04-18T09:58:51.294Z</time></trkpt><trkpt lat="43.3072846" lon="10.7188361"><ele>81.0</ele><time>2026-04-18T09:58:52.293Z</time></trkpt><trkpt lat="43.3073494" lon="10.7186167"><ele>81.0</ele><time>2026-04-18T09:58:53.289Z</time></trkpt><trkpt lat="43.3074039" lon="10.7184031"><ele>78.33333333333333</ele><time>2026-04-18T09:58:54.284Z</time></trkpt><trkpt lat="43.3074596" lon="10.7182013"><ele>75.66666666666666</ele><time>2026-04-18T09:58:55.294Z</time></trkpt><trkpt lat="43.3075117" lon="10.7180101"><ele>73.0</ele><time>2026-04-18T09:58:56.287Z</time></trkpt><trkpt lat="43.307564" lon="10.7178097"><ele>73.25</ele><time>2026-04-18T09:58:57.29Z</time></trkpt><trkpt lat="43.3076089" lon="10.7176163"><ele>73.5</ele><time>2026-04-18T09:58:58.399Z</time></trkpt><trkpt lat="43.3076522" lon="10.7174363"><ele>73.75</ele><time>2026-04-18T09:58:59.412Z</time></trkpt><trkpt lat="43.3076921" lon="10.717256"><ele>74.0</ele><time>2026-04-18T09:59:00.406Z</time></trkpt><trkpt lat="43.3077652" lon="10.7169117"><ele>74.4</ele><time>2026-04-18T09:59:02.29Z</time></trkpt><trkpt lat="43.3078023" lon="10.7167464"><ele>74.80000000000001</ele><time>2026-04-18T09:59:03.289Z</time></trkpt><trkpt lat="43.3078392" lon="10.7165879"><ele>75.19999999999999</ele><time>2026-04-18T09:59:04.293Z</time></trkpt><trkpt lat="43.3078945" lon="10.7164888"><ele>75.6</ele><time>2026-04-18T09:59:05.293Z</time></trkpt><trkpt lat="43.3079574" lon="10.7163915"><ele>76.0</ele><time>2026-04-18T09:59:06.29Z</time></trkpt><trkpt lat="43.3080149" lon="10.7163074"><ele>75.39999999999999</ele><time>2026-04-18T09:59:07.291Z</time></trkpt><trkpt lat="43.3081106" lon="10.7162605"><ele>74.8</ele><time>2026-04-18T09:59:08.403Z</time></trkpt><trkpt lat="43.3081844" lon="10.7161885"><ele>74.19999999999999</ele><time>2026-04-18T09:59:09.394Z</time></trkpt><trkpt lat="43.3082772" lon="10.7161138"><ele>73.6</ele><time>2026-04-18T09:59:10.296Z</time></trkpt><trkpt lat="43.3083537" lon="10.7160572"><ele>73.0</ele><time>2026-04-18T09:59:11.293Z</time></trkpt><trkpt lat="43.3084245" lon="10.7159964"><ele>73.0</ele><time>2026-04-18T09:59:12.294Z</time></trkpt><trkpt lat="43.3084865" lon="10.7159241"><ele>73.0</ele><time>2026-04-18T09:59:13.29Z</time></trkpt><trkpt lat="43.3085335" lon="10.715844"><ele>73.0</ele><time>2026-04-18T09:59:14.294Z</time></trkpt><trkpt lat="43.3085685" lon="10.7157654"><ele>73.0</ele><time>2026-04-18T09:59:15.415Z</time></trkpt><trkpt lat="43.3085939" lon="10.7156693"><ele>73.0</ele><time>2026-04-18T09:59:16.386Z</time></trkpt><trkpt lat="43.3086037" lon="10.7155641"><ele>73.0</ele><time>2026-04-18T09:59:17.409Z</time></trkpt><trkpt lat="43.3086109" lon="10.7154487"><ele>73.0</ele><time>2026-04-18T09:59:18.411Z</time></trkpt><trkpt lat="43.3086414" lon="10.7153582"><ele>73.0</ele><time>2026-04-18T09:59:19.357Z</time></trkpt><trkpt lat="43.3086833" lon="10.715266"><ele>73.0</ele><time>2026-04-18T09:59:20.418Z</time></trkpt><trkpt lat="43.3087625" lon="10.7151719"><ele>73.0</ele><time>2026-04-18T09:59:21.413Z</time></trkpt><trkpt lat="43.3088364" lon="10.7150883"><ele>73.0</ele><time>2026-04-18T09:59:22.417Z</time></trkpt><trkpt lat="43.3088995" lon="10.7149857"><ele>71.5</ele><time>2026-04-18T09:59:23.408Z</time></trkpt><trkpt lat="43.3090409" lon="10.7147917"><ele>70.0</ele><time>2026-04-18T09:59:25.293Z</time></trkpt><trkpt lat="43.3091057" lon="10.7146784"><ele>68.5</ele><time>2026-04-18T09:59:26.294Z</time></trkpt><trkpt lat="43.3091568" lon="10.7145521"><ele>67.0</ele><time>2026-04-18T09:59:27.293Z</time></trkpt><trkpt lat="43.309222" lon="10.7144686"><ele>67.2</ele><time>2026-04-18T09:59:28.288Z</time></trkpt><trkpt lat="43.3092587" lon="10.7143423"><ele>67.4</ele><time>2026-04-18T09:59:29.291Z</time></trkpt><trkpt lat="43.3093087" lon="10.7142574"><ele>67.6</ele><time>2026-04-18T09:59:30.294Z</time></trkpt><trkpt lat="43.3093528" lon="10.7141485"><ele>67.8</ele><time>2026-04-18T09:59:31.296Z</time></trkpt><trkpt lat="43.3094014" lon="10.7140268"><ele>68.0</ele><time>2026-04-18T09:59:32.296Z</time></trkpt><trkpt lat="43.3095024" lon="10.7140022"><ele>68.0</ele><time>2026-04-18T09:59:33.327Z</time></trkpt><trkpt lat="43.30959" lon="10.7139512"><ele>68.0</ele><time>2026-04-18T09:59:34.314Z</time></trkpt><trkpt lat="43.3096969" lon="10.7139097"><ele>68.0</ele><time>2026-04-18T09:59:35.288Z</time></trkpt><trkpt lat="43.3098023" lon="10.7138903"><ele>68.0</ele><time>2026-04-18T09:59:36.293Z</time></trkpt><trkpt lat="43.3098888" lon="10.7138304"><ele>68.0</ele><time>2026-04-18T09:59:37.296Z</time></trkpt><trkpt lat="43.3099774" lon="10.7137405"><ele>68.0</ele><time>2026-04-18T09:59:38.294Z</time></trkpt><trkpt lat="43.3100819" lon="10.7136047"><ele>68.0</ele><time>2026-04-18T09:59:39.292Z</time></trkpt><trkpt lat="43.3101848" lon="10.7134859"><ele>68.0</ele><time>2026-04-18T09:59:40.43Z</time></trkpt><trkpt lat="43.3102671" lon="10.7133954"><ele>68.0</ele><time>2026-04-18T09:59:41.422Z</time></trkpt><trkpt lat="43.3103312" lon="10.7133303"><ele>67.4</ele><time>2026-04-18T09:59:42.43Z</time></trkpt><trkpt lat="43.310387" lon="10.7132818"><ele>66.8</ele><time>2026-04-18T09:59:43.358Z</time></trkpt><trkpt lat="43.3104503" lon="10.7131955"><ele>66.2</ele><time>2026-04-18T09:59:45.44Z</time></trkpt><trkpt lat="43.3104829" lon="10.7130169"><ele>65.6</ele><time>2026-04-18T09:59:47.295Z</time></trkpt><trkpt lat="43.3104862" lon="10.712854"><ele>65.0</ele><time>2026-04-18T09:59:48.292Z</time></trkpt><trkpt lat="43.3105045" lon="10.7126631"><ele>64.66666666666667</ele><time>2026-04-18T09:59:49.284Z</time></trkpt><trkpt lat="43.3105552" lon="10.7124615"><ele>64.33333333333333</ele><time>2026-04-18T09:59:50.285Z</time></trkpt><trkpt lat="43.3106196" lon="10.7122762"><ele>64.0</ele><time>2026-04-18T09:59:51.282Z</time></trkpt><trkpt lat="43.3106986" lon="10.7120745"><ele>63.666666666666664</ele><time>2026-04-18T09:59:52.291Z</time></trkpt><trkpt lat="43.3107823" lon="10.7118587"><ele>63.33333333333333</ele><time>2026-04-18T09:59:53.291Z</time></trkpt><trkpt lat="43.3108697" lon="10.711622"><ele>63.0</ele><time>2026-04-18T09:59:54.292Z</time></trkpt><trkpt lat="43.310957" lon="10.7113773"><ele>63.0</ele><time>2026-04-18T09:59:55.291Z</time></trkpt><trkpt lat="43.3110442" lon="10.7111293"><ele>63.0</ele><time>2026-04-18T09:59:56.293Z</time></trkpt><trkpt lat="43.311137" lon="10.7108789"><ele>63.0</ele><time>2026-04-18T09:59:57.297Z</time></trkpt><trkpt lat="43.3112336" lon="10.7106319"><ele>62.66666666666667</ele><time>2026-04-18T09:59:58.294Z</time></trkpt><trkpt lat="43.3113288" lon="10.7103895"><ele>62.333333333333336</ele><time>2026-04-18T09:59:59.295Z</time></trkpt><trkpt lat="43.3114108" lon="10.7101632"><ele>62.0</ele><time>2026-04-18T10:00:00.289Z</time></trkpt><trkpt lat="43.3114892" lon="10.7099483"><ele>61.66666666666667</ele><time>2026-04-18T10:00:01.292Z</time></trkpt><trkpt lat="43.3115636" lon="10.7097458"><ele>61.33333333333333</ele><time>2026-04-18T10:00:02.296Z</time></trkpt><trkpt lat="43.311641" lon="10.7095324"><ele>61.0</ele><time>2026-04-18T10:00:03.297Z</time></trkpt><trkpt lat="43.3117196" lon="10.7093155"><ele>61.0</ele><time>2026-04-18T10:00:04.291Z</time></trkpt><trkpt lat="43.3117993" lon="10.7090966"><ele>61.0</ele><time>2026-04-18T10:00:05.288Z</time></trkpt><trkpt lat="43.3118784" lon="10.7088782"><ele>61.0</ele><time>2026-04-18T10:00:06.293Z</time></trkpt><trkpt lat="43.3119557" lon="10.7086609"><ele>60.666666666666664</ele><time>2026-04-18T10:00:07.29Z</time></trkpt><trkpt lat="43.3120346" lon="10.7084448"><ele>60.33333333333333</ele><time>2026-04-18T10:00:08.297Z</time></trkpt><trkpt lat="43.3121148" lon="10.7082297"><ele>60.0</ele><time>2026-04-18T10:00:09.296Z</time></trkpt><trkpt lat="43.3121904" lon="10.70802"><ele>60.66666666666667</ele><time>2026-04-18T10:00:10.296Z</time></trkpt><trkpt lat="43.3122648" lon="10.7078163"><ele>61.333333333333336</ele><time>2026-04-18T10:00:11.295Z</time></trkpt><trkpt lat="43.3123421" lon="10.7076101"><ele>62.0</ele><time>2026-04-18T10:00:12.299Z</time></trkpt><trkpt lat="43.3124204" lon="10.7073983"><ele>62.0</ele><time>2026-04-18T10:00:13.29Z</time></trkpt><trkpt lat="43.3124994" lon="10.7071885"><ele>62.0</ele><time>2026-04-18T10:00:14.295Z</time></trkpt><trkpt lat="43.3125794" lon="10.7069774"><ele>62.0</ele><time>2026-04-18T10:00:15.297Z</time></trkpt><trkpt lat="43.3126582" lon="10.7067642"><ele>62.66666666666667</ele><time>2026-04-18T10:00:16.298Z</time></trkpt><trkpt lat="43.3127339" lon="10.7065462"><ele>63.33333333333333</ele><time>2026-04-18T10:00:17.297Z</time></trkpt><trkpt lat="43.3128074" lon="10.7063208"><ele>64.0</ele><time>2026-04-18T10:00:18.301Z</time></trkpt><trkpt lat="43.3128742" lon="10.7060918"><ele>66.0</ele><time>2026-04-18T10:00:19.3Z</time></trkpt><trkpt lat="43.3129333" lon="10.705855"><ele>68.0</ele><time>2026-04-18T10:00:20.296Z</time></trkpt><trkpt lat="43.3129906" lon="10.7056123"><ele>70.0</ele><time>2026-04-18T10:00:21.297Z</time></trkpt><trkpt lat="43.3130421" lon="10.7053662"><ele>70.33333333333333</ele><time>2026-04-18T10:00:22.392Z</time></trkpt><trkpt lat="43.3130862" lon="10.7051195"><ele>70.66666666666667</ele><time>2026-04-18T10:00:23.292Z</time></trkpt><trkpt lat="43.3131295" lon="10.7048734"><ele>71.0</ele><time>2026-04-18T10:00:24.293Z</time></trkpt><trkpt lat="43.3131861" lon="10.7046373"><ele>72.66666666666667</ele><time>2026-04-18T10:00:25.291Z</time></trkpt><trkpt lat="43.3132625" lon="10.7044051"><ele>74.33333333333333</ele><time>2026-04-18T10:00:26.291Z</time></trkpt><trkpt lat="43.3133536" lon="10.7041793"><ele>76.0</ele><time>2026-04-18T10:00:27.29Z</time></trkpt><trkpt lat="43.3134468" lon="10.7039531"><ele>76.0</ele><time>2026-04-18T10:00:28.296Z</time></trkpt><trkpt lat="43.3135404" lon="10.7037221"><ele>76.0</ele><time>2026-04-18T10:00:29.293Z</time></trkpt><trkpt lat="43.3137301" lon="10.7032623"><ele>77.0</ele><time>2026-04-18T10:00:31.425Z</time></trkpt><trkpt lat="43.3138085" lon="10.7030298"><ele>78.0</ele><time>2026-04-18T10:00:32.413Z</time></trkpt><trkpt lat="43.3138781" lon="10.70281"><ele>79.0</ele><time>2026-04-18T10:00:33.358Z</time></trkpt><trkpt lat="43.3139491" lon="10.7026027"><ele>79.0</ele><time>2026-04-18T10:00:34.296Z</time></trkpt><trkpt lat="43.3140167" lon="10.7024129"><ele>79.0</ele><time>2026-04-18T10:00:35.38Z</time></trkpt><trkpt lat="43.3140792" lon="10.702226"><ele>79.0</ele><time>2026-04-18T10:00:36.401Z</time></trkpt><trkpt lat="43.3141553" lon="10.7018672"><ele>80.0</ele><time>2026-04-18T10:00:38.423Z</time></trkpt><trkpt lat="43.3141514" lon="10.7017106"><ele>81.0</ele><time>2026-04-18T10:00:39.377Z</time></trkpt><trkpt lat="43.3141103" lon="10.7015725"><ele>82.0</ele><time>2026-04-18T10:00:40.292Z</time></trkpt><trkpt lat="43.3140406" lon="10.7014743"><ele>83.0</ele><time>2026-04-18T10:00:41.293Z</time></trkpt><trkpt lat="43.3139396" lon="10.7013783"><ele>84.0</ele><time>2026-04-18T10:00:42.286Z</time></trkpt><trkpt lat="43.3138357" lon="10.7012706"><ele>86.25</ele><time>2026-04-18T10:00:43.291Z</time></trkpt><trkpt lat="43.3137754" lon="10.7011053"><ele>88.5</ele><time>2026-04-18T10:00:44.289Z</time></trkpt><trkpt lat="43.3137368" lon="10.7009035"><ele>90.75</ele><time>2026-04-18T10:00:45.291Z</time></trkpt><trkpt lat="43.3137212" lon="10.700684"><ele>93.0</ele><time>2026-04-18T10:00:46.292Z</time></trkpt><trkpt lat="43.3137239" lon="10.7004736"><ele>93.66666666666667</ele><time>2026-04-18T10:00:47.309Z</time></trkpt><trkpt lat="43.3137383" lon="10.700259"><ele>94.33333333333334</ele><time>2026-04-18T10:00:48.417Z</time></trkpt><trkpt lat="43.3137655" lon="10.700039"><ele>95.0</ele><time>2026-04-18T10:00:49.43Z</time></trkpt><trkpt lat="43.3138093" lon="10.6998256"><ele>95.66666666666667</ele><time>2026-04-18T10:00:50.417Z</time></trkpt><trkpt lat="43.3138619" lon="10.6996195"><ele>96.33333333333334</ele><time>2026-04-18T10:00:51.402Z</time></trkpt><trkpt lat="43.3139168" lon="10.6994204"><ele>97.0</ele><time>2026-04-18T10:00:52.422Z</time></trkpt><trkpt lat="43.3139682" lon="10.6992267"><ele>95.33333333333334</ele><time>2026-04-18T10:00:53.429Z</time></trkpt><trkpt lat="43.3140167" lon="10.6990243"><ele>93.66666666666667</ele><time>2026-04-18T10:00:54.429Z</time></trkpt><trkpt lat="43.3140514" lon="10.6988013"><ele>92.0</ele><time>2026-04-18T10:00:55.428Z</time></trkpt><trkpt lat="43.3140622" lon="10.6985571"><ele>90.0</ele><time>2026-04-18T10:00:56.427Z</time></trkpt><trkpt lat="43.3140609" lon="10.6983183"><ele>88.0</ele><time>2026-04-18T10:00:57.426Z</time></trkpt><trkpt lat="43.3140611" lon="10.6980935"><ele>86.0</ele><time>2026-04-18T10:00:58.433Z</time></trkpt><trkpt lat="43.3140624" lon="10.6978881"><ele>85.25</ele><time>2026-04-18T10:00:59.433Z</time></trkpt><trkpt lat="43.3140693" lon="10.6977066"><ele>84.5</ele><time>2026-04-18T10:01:00.431Z</time></trkpt><trkpt lat="43.3140736" lon="10.697543"><ele>83.75</ele><time>2026-04-18T10:01:01.437Z</time></trkpt><trkpt lat="43.3140688" lon="10.6973977"><ele>83.0</ele><time>2026-04-18T10:01:02.424Z</time></trkpt><trkpt lat="43.3140566" lon="10.6972661"><ele>83.0</ele><time>2026-04-18T10:01:03.417Z</time></trkpt><trkpt lat="43.3140252" lon="10.6971579"><ele>83.0</ele><time>2026-04-18T10:01:04.424Z</time></trkpt><trkpt lat="43.3139764" lon="10.6970722"><ele>83.0</ele><time>2026-04-18T10:01:05.406Z</time></trkpt><trkpt lat="43.3139054" lon="10.697015"><ele>83.0</ele><time>2026-04-18T10:01:06.428Z</time></trkpt><trkpt lat="43.3137125" lon="10.6970042"><ele>83.0</ele><time>2026-04-18T10:01:08.423Z</time></trkpt><trkpt lat="43.3135992" lon="10.6970385"><ele>84.25</ele><time>2026-04-18T10:01:09.429Z</time></trkpt><trkpt lat="43.3134978" lon="10.6970981"><ele>85.5</ele><time>2026-04-18T10:01:10.424Z</time></trkpt><trkpt lat="43.3133109" lon="10.6971878"><ele>86.75</ele><time>2026-04-18T10:01:12.293Z</time></trkpt><trkpt lat="43.3132206" lon="10.6971772"><ele>88.0</ele><time>2026-04-18T10:01:13.431Z</time></trkpt><trkpt lat="43.3131462" lon="10.6971161"><ele>88.0</ele><time>2026-04-18T10:01:14.433Z</time></trkpt><trkpt lat="43.3131063" lon="10.6970081"><ele>88.0</ele><time>2026-04-18T10:01:15.415Z</time></trkpt><trkpt lat="43.3131424" lon="10.6967525"><ele>88.0</ele><time>2026-04-18T10:01:17.295Z</time></trkpt><trkpt lat="43.3132075" lon="10.6966072"><ele>88.0</ele><time>2026-04-18T10:01:18.298Z</time></trkpt><trkpt lat="43.3132906" lon="10.6964491"><ele>88.0</ele><time>2026-04-18T10:01:19.296Z</time></trkpt><trkpt lat="43.3133789" lon="10.6962797"><ele>88.0</ele><time>2026-04-18T10:01:20.285Z</time></trkpt><trkpt lat="43.3134786" lon="10.6961078"><ele>88.0</ele><time>2026-04-18T10:01:21.289Z</time></trkpt><trkpt lat="43.3135831" lon="10.6959325"><ele>88.0</ele><time>2026-04-18T10:01:22.293Z</time></trkpt><trkpt lat="43.3136775" lon="10.6957655"><ele>88.0</ele><time>2026-04-18T10:01:23.296Z</time></trkpt><trkpt lat="43.3137597" lon="10.69561"><ele>88.0</ele><time>2026-04-18T10:01:24.293Z</time></trkpt><trkpt lat="43.3138368" lon="10.6954652"><ele>88.0</ele><time>2026-04-18T10:01:25.29Z</time></trkpt><trkpt lat="43.3139011" lon="10.695326"><ele>88.0</ele><time>2026-04-18T10:01:26.29Z</time></trkpt><trkpt lat="43.3139412" lon="10.6951903"><ele>88.0</ele><time>2026-04-18T10:01:27.293Z</time></trkpt><trkpt lat="43.3139523" lon="10.6950507"><ele>88.0</ele><time>2026-04-18T10:01:28.293Z</time></trkpt><trkpt lat="43.3139349" lon="10.69491"><ele>88.0</ele><time>2026-04-18T10:01:29.293Z</time></trkpt><trkpt lat="43.3138838" lon="10.6947759"><ele>88.0</ele><time>2026-04-18T10:01:30.294Z</time></trkpt><trkpt lat="43.3138077" lon="10.6946574"><ele>88.0</ele><time>2026-04-18T10:01:31.298Z</time></trkpt><trkpt lat="43.3137137" lon="10.6945548"><ele>88.0</ele><time>2026-04-18T10:01:32.298Z</time></trkpt><trkpt lat="43.3136184" lon="10.6944413"><ele>88.0</ele><time>2026-04-18T10:01:33.354Z</time></trkpt><trkpt lat="43.3135446" lon="10.6943077"><ele>88.0</ele><time>2026-04-18T10:01:34.296Z</time></trkpt><trkpt lat="43.313505" lon="10.694172"><ele>87.0</ele><time>2026-04-18T10:01:35.291Z</time></trkpt><trkpt lat="43.3135032" lon="10.694028"><ele>86.0</ele><time>2026-04-18T10:01:36.297Z</time></trkpt><trkpt lat="43.3135395" lon="10.6938754"><ele>85.0</ele><time>2026-04-18T10:01:37.295Z</time></trkpt><trkpt lat="43.3136042" lon="10.6937107"><ele>84.0</ele><time>2026-04-18T10:01:38.29Z</time></trkpt><trkpt lat="43.3136844" lon="10.6935242"><ele>84.0</ele><time>2026-04-18T10:01:39.298Z</time></trkpt><trkpt lat="43.3137705" lon="10.6933248"><ele>84.0</ele><time>2026-04-18T10:01:40.294Z</time></trkpt><trkpt lat="43.3138493" lon="10.6931349"><ele>84.0</ele><time>2026-04-18T10:01:41.294Z</time></trkpt><trkpt lat="43.3139261" lon="10.6929527"><ele>79.66666666666667</ele><time>2026-04-18T10:01:42.291Z</time></trkpt><trkpt lat="43.3139985" lon="10.6927563"><ele>75.33333333333334</ele><time>2026-04-18T10:01:43.294Z</time></trkpt><trkpt lat="43.3140584" lon="10.6925415"><ele>71.0</ele><time>2026-04-18T10:01:44.295Z</time></trkpt><trkpt lat="43.3141077" lon="10.6923066"><ele>70.66666666666667</ele><time>2026-04-18T10:01:45.296Z</time></trkpt><trkpt lat="43.3141488" lon="10.6920811"><ele>70.33333333333333</ele><time>2026-04-18T10:01:46.38Z</time></trkpt><trkpt lat="43.314198" lon="10.6918675"><ele>70.0</ele><time>2026-04-18T10:01:47.295Z</time></trkpt><trkpt lat="43.3142621" lon="10.6916497"><ele>70.0</ele><time>2026-04-18T10:01:48.297Z</time></trkpt><trkpt lat="43.3143317" lon="10.6914283"><ele>70.0</ele><time>2026-04-18T10:01:49.295Z</time></trkpt><trkpt lat="43.3143921" lon="10.6912208"><ele>70.0</ele><time>2026-04-18T10:01:50.293Z</time></trkpt><trkpt lat="43.3144447" lon="10.6910327"><ele>70.25</ele><time>2026-04-18T10:01:51.297Z</time></trkpt><trkpt lat="43.3144869" lon="10.6908454"><ele>70.5</ele><time>2026-04-18T10:01:52.294Z</time></trkpt><trkpt lat="43.31452" lon="10.6906481"><ele>70.75</ele><time>2026-04-18T10:01:53.289Z</time></trkpt><trkpt lat="43.314544" lon="10.6904387"><ele>71.0</ele><time>2026-04-18T10:01:54.296Z</time></trkpt><trkpt lat="43.3145574" lon="10.6902166"><ele>71.0</ele><time>2026-04-18T10:01:55.298Z</time></trkpt><trkpt lat="43.3145628" lon="10.6899892"><ele>71.0</ele><time>2026-04-18T10:01:56.298Z</time></trkpt><trkpt lat="43.3145606" lon="10.6897653"><ele>71.0</ele><time>2026-04-18T10:01:57.299Z</time></trkpt><trkpt lat="43.3145467" lon="10.6895584"><ele>69.0</ele><time>2026-04-18T10:01:58.293Z</time></trkpt><trkpt lat="43.3145228" lon="10.6893541"><ele>67.0</ele><time>2026-04-18T10:01:59.294Z</time></trkpt><trkpt lat="43.3144835" lon="10.6891491"><ele>65.0</ele><time>2026-04-18T10:02:00.298Z</time></trkpt><trkpt lat="43.3144263" lon="10.6889504"><ele>65.0</ele><time>2026-04-18T10:02:01.296Z</time></trkpt><trkpt lat="43.3143462" lon="10.6887726"><ele>65.0</ele><time>2026-04-18T10:02:02.293Z</time></trkpt><trkpt lat="43.3142557" lon="10.6886059"><ele>65.0</ele><time>2026-04-18T10:02:03.29Z</time></trkpt><trkpt lat="43.3141686" lon="10.6884347"><ele>64.0</ele><time>2026-04-18T10:02:04.293Z</time></trkpt><trkpt lat="43.3140922" lon="10.6882446"><ele>63.0</ele><time>2026-04-18T10:02:05.294Z</time></trkpt><trkpt lat="43.3140412" lon="10.6880208"><ele>62.0</ele><time>2026-04-18T10:02:06.296Z</time></trkpt><trkpt lat="43.3140159" lon="10.6878001"><ele>61.75</ele><time>2026-04-18T10:02:07.294Z</time></trkpt><trkpt lat="43.3140158" lon="10.6875951"><ele>61.5</ele><time>2026-04-18T10:02:08.298Z</time></trkpt><trkpt lat="43.3140402" lon="10.6874047"><ele>61.25</ele><time>2026-04-18T10:02:09.297Z</time></trkpt><trkpt lat="43.3140904" lon="10.687218"><ele>61.0</ele><time>2026-04-18T10:02:10.296Z</time></trkpt><trkpt lat="43.3141667" lon="10.6870167"><ele>59.0</ele><time>2026-04-18T10:02:11.298Z</time></trkpt><trkpt lat="43.314243" lon="10.6867982"><ele>57.0</ele><time>2026-04-18T10:02:12.297Z</time></trkpt><trkpt lat="43.3142965" lon="10.6865625"><ele>55.0</ele><time>2026-04-18T10:02:13.292Z</time></trkpt><trkpt lat="43.3143439" lon="10.6863279"><ele>55.0</ele><time>2026-04-18T10:02:14.296Z</time></trkpt><trkpt lat="43.314388" lon="10.6861151"><ele>55.0</ele><time>2026-04-18T10:02:15.293Z</time></trkpt><trkpt lat="43.3144288" lon="10.6859078"><ele>55.0</ele><time>2026-04-18T10:02:16.294Z</time></trkpt><trkpt lat="43.3144609" lon="10.6856945"><ele>54.0</ele><time>2026-04-18T10:02:17.293Z</time></trkpt><trkpt lat="43.3144748" lon="10.6854736"><ele>53.0</ele><time>2026-04-18T10:02:18.293Z</time></trkpt><trkpt lat="43.3144549" lon="10.6852362"><ele>52.0</ele><time>2026-04-18T10:02:19.3Z</time></trkpt><trkpt lat="43.3144001" lon="10.6850019"><ele>50.666666666666664</ele><time>2026-04-18T10:02:20.301Z</time></trkpt><trkpt lat="43.3143268" lon="10.6847643"><ele>49.33333333333333</ele><time>2026-04-18T10:02:21.297Z</time></trkpt><trkpt lat="43.3142551" lon="10.6845379"><ele>48.0</ele><time>2026-04-18T10:02:22.297Z</time></trkpt><trkpt lat="43.3141887" lon="10.6843199"><ele>47.666666666666664</ele><time>2026-04-18T10:02:23.3Z</time></trkpt><trkpt lat="43.314125" lon="10.6841029"><ele>47.33333333333333</ele><time>2026-04-18T10:02:24.297Z</time></trkpt><trkpt lat="43.3140649" lon="10.6838893"><ele>47.0</ele><time>2026-04-18T10:02:25.295Z</time></trkpt><trkpt lat="43.3140181" lon="10.6836726"><ele>46.0</ele><time>2026-04-18T10:02:26.298Z</time></trkpt><trkpt lat="43.3140015" lon="10.6834497"><ele>45.0</ele><time>2026-04-18T10:02:27.301Z</time></trkpt><trkpt lat="43.3140082" lon="10.683219"><ele>44.0</ele><time>2026-04-18T10:02:28.299Z</time></trkpt><trkpt lat="43.3140375" lon="10.6829832"><ele>43.666666666666664</ele><time>2026-04-18T10:02:29.298Z</time></trkpt><trkpt lat="43.314071" lon="10.6827381"><ele>43.333333333333336</ele><time>2026-04-18T10:02:30.299Z</time></trkpt><trkpt lat="43.314108" lon="10.6824855"><ele>43.0</ele><time>2026-04-18T10:02:31.298Z</time></trkpt><trkpt lat="43.3141432" lon="10.6822303"><ele>43.0</ele><time>2026-04-18T10:02:32.294Z</time></trkpt><trkpt lat="43.3141816" lon="10.6819727"><ele>43.0</ele><time>2026-04-18T10:02:33.296Z</time></trkpt><trkpt lat="43.3142171" lon="10.6817163"><ele>43.0</ele><time>2026-04-18T10:02:34.298Z</time></trkpt><trkpt lat="43.3142485" lon="10.6814641"><ele>42.66666666666667</ele><time>2026-04-18T10:02:35.3Z</time></trkpt><trkpt lat="43.3142802" lon="10.6812109"><ele>42.333333333333336</ele><time>2026-04-18T10:02:36.298Z</time></trkpt><trkpt lat="43.314317" lon="10.6809609"><ele>42.0</ele><time>2026-04-18T10:02:37.29Z</time></trkpt><trkpt lat="43.3143552" lon="10.6807068"><ele>42.0</ele><time>2026-04-18T10:02:38.299Z</time></trkpt><trkpt lat="43.3143921" lon="10.680458"><ele>42.0</ele><time>2026-04-18T10:02:39.292Z</time></trkpt><trkpt lat="43.3144224" lon="10.6802186"><ele>42.0</ele><time>2026-04-18T10:02:40.293Z</time></trkpt><trkpt lat="43.3144466" lon="10.6799885"><ele>41.666666666666664</ele><time>2026-04-18T10:02:41.294Z</time></trkpt><trkpt lat="43.3144515" lon="10.6797531"><ele>41.33333333333333</ele><time>2026-04-18T10:02:42.295Z</time></trkpt><trkpt lat="43.3144268" lon="10.6795118"><ele>41.0</ele><time>2026-04-18T10:02:43.299Z</time></trkpt><trkpt lat="43.3143777" lon="10.679272"><ele>40.33333333333333</ele><time>2026-04-18T10:02:44.297Z</time></trkpt><trkpt lat="43.3143203" lon="10.6790472"><ele>39.666666666666664</ele><time>2026-04-18T10:02:45.294Z</time></trkpt><trkpt lat="43.3142634" lon="10.6788372"><ele>39.0</ele><time>2026-04-18T10:02:46.297Z</time></trkpt><trkpt lat="43.3142086" lon="10.678636"><ele>39.0</ele><time>2026-04-18T10:02:47.298Z</time></trkpt><trkpt lat="43.3141507" lon="10.6784313"><ele>39.0</ele><time>2026-04-18T10:02:48.298Z</time></trkpt><trkpt lat="43.3140937" lon="10.6782219"><ele>39.0</ele><time>2026-04-18T10:02:49.299Z</time></trkpt><trkpt lat="43.3140393" lon="10.6780219"><ele>39.0</ele><time>2026-04-18T10:02:50.298Z</time></trkpt><trkpt lat="43.3139892" lon="10.677835"><ele>39.0</ele><time>2026-04-18T10:02:51.3Z</time></trkpt><trkpt lat="43.3139398" lon="10.6776471"><ele>39.0</ele><time>2026-04-18T10:02:52.299Z</time></trkpt><trkpt lat="43.3138881" lon="10.6774576"><ele>39.0</ele><time>2026-04-18T10:02:53.295Z</time></trkpt><trkpt lat="43.3138335" lon="10.6772646"><ele>39.25</ele><time>2026-04-18T10:02:54.288Z</time></trkpt><trkpt lat="43.3137788" lon="10.67708"><ele>39.5</ele><time>2026-04-18T10:02:55.294Z</time></trkpt><trkpt lat="43.3137256" lon="10.6768997"><ele>39.75</ele><time>2026-04-18T10:02:56.299Z</time></trkpt><trkpt lat="43.3136685" lon="10.6767331"><ele>40.0</ele><time>2026-04-18T10:02:57.299Z</time></trkpt><trkpt lat="43.3135982" lon="10.6765938"><ele>40.2</ele><time>2026-04-18T10:02:58.298Z</time></trkpt><trkpt lat="43.3135148" lon="10.6764791"><ele>40.4</ele><time>2026-04-18T10:02:59.293Z</time></trkpt><trkpt lat="43.3134268" lon="10.676386"><ele>40.599999999999994</ele><time>2026-04-18T10:03:00.297Z</time></trkpt><trkpt lat="43.3133409" lon="10.6763076"><ele>40.8</ele><time>2026-04-18T10:03:01.298Z</time></trkpt><trkpt lat="43.3132583" lon="10.676241"><ele>41.0</ele><time>2026-04-18T10:03:02.301Z</time></trkpt><trkpt lat="43.3131698" lon="10.6761654"><ele>40.8</ele><time>2026-04-18T10:03:03.292Z</time></trkpt><trkpt lat="43.3130849" lon="10.6760915"><ele>40.599999999999994</ele><time>2026-04-18T10:03:04.384Z</time></trkpt><trkpt lat="43.3130102" lon="10.6760208"><ele>40.4</ele><time>2026-04-18T10:03:05.3Z</time></trkpt><trkpt lat="43.3129531" lon="10.6759485"><ele>40.2</ele><time>2026-04-18T10:03:06.418Z</time></trkpt><trkpt lat="43.3129075" lon="10.6758134"><ele>40.0</ele><time>2026-04-18T10:03:08.403Z</time></trkpt><trkpt lat="43.3129628" lon="10.6756619"><ele>40.0</ele><time>2026-04-18T10:03:10.384Z</time></trkpt><trkpt lat="43.3130376" lon="10.6755565"><ele>40.0</ele><time>2026-04-18T10:03:11.41Z</time></trkpt><trkpt lat="43.3132597" lon="10.675307"><ele>40.0</ele><time>2026-04-18T10:03:13.286Z</time></trkpt><trkpt lat="43.3133925" lon="10.6751563"><ele>40.333333333333336</ele><time>2026-04-18T10:03:14.397Z</time></trkpt><trkpt lat="43.3135294" lon="10.6749941"><ele>40.666666666666664</ele><time>2026-04-18T10:03:15.381Z</time></trkpt><trkpt lat="43.3136706" lon="10.6748208"><ele>41.0</ele><time>2026-04-18T10:03:16.409Z</time></trkpt><trkpt lat="43.3138172" lon="10.674645"><ele>40.0</ele><time>2026-04-18T10:03:17.405Z</time></trkpt><trkpt lat="43.3139709" lon="10.6744743"><ele>39.0</ele><time>2026-04-18T10:03:18.411Z</time></trkpt><trkpt lat="43.3141237" lon="10.6743053"><ele>38.0</ele><time>2026-04-18T10:03:19.388Z</time></trkpt><trkpt lat="43.3142748" lon="10.6741387"><ele>38.0</ele><time>2026-04-18T10:03:20.381Z</time></trkpt><trkpt lat="43.3144245" lon="10.6739753"><ele>38.0</ele><time>2026-04-18T10:03:21.393Z</time></trkpt><trkpt lat="43.3145785" lon="10.673813"><ele>38.0</ele><time>2026-04-18T10:03:22.379Z</time></trkpt><trkpt lat="43.3147302" lon="10.6736529"><ele>39.0</ele><time>2026-04-18T10:03:23.42Z</time></trkpt><trkpt lat="43.3148914" lon="10.6735055"><ele>40.0</ele><time>2026-04-18T10:03:24.409Z</time></trkpt><trkpt lat="43.3150531" lon="10.6733639"><ele>41.0</ele><time>2026-04-18T10:03:25.416Z</time></trkpt><trkpt lat="43.3152162" lon="10.6732244"><ele>41.0</ele><time>2026-04-18T10:03:26.394Z</time></trkpt><trkpt lat="43.3153755" lon="10.6730817"><ele>41.0</ele><time>2026-04-18T10:03:27.414Z</time></trkpt><trkpt lat="43.3155336" lon="10.6729412"><ele>41.0</ele><time>2026-04-18T10:03:28.408Z</time></trkpt><trkpt lat="43.3156897" lon="10.6727984"><ele>40.33333333333333</ele><time>2026-04-18T10:03:29.417Z</time></trkpt><trkpt lat="43.3158462" lon="10.6726617"><ele>39.666666666666664</ele><time>2026-04-18T10:03:30.417Z</time></trkpt><trkpt lat="43.3160018" lon="10.6725271"><ele>39.0</ele><time>2026-04-18T10:03:31.386Z</time></trkpt><trkpt lat="43.3161532" lon="10.6723902"><ele>39.0</ele><time>2026-04-18T10:03:32.391Z</time></trkpt><trkpt lat="43.3163068" lon="10.6722515"><ele>39.0</ele><time>2026-04-18T10:03:33.412Z</time></trkpt><trkpt lat="43.3164631" lon="10.6721158"><ele>39.0</ele><time>2026-04-18T10:03:34.415Z</time></trkpt><trkpt lat="43.3166144" lon="10.6719803"><ele>39.0</ele><time>2026-04-18T10:03:35.396Z</time></trkpt><trkpt lat="43.3167631" lon="10.6718499"><ele>39.0</ele><time>2026-04-18T10:03:36.4Z</time></trkpt><trkpt lat="43.3169144" lon="10.6717259"><ele>39.0</ele><time>2026-04-18T10:03:37.41Z</time></trkpt><trkpt lat="43.3170674" lon="10.6715979"><ele>39.0</ele><time>2026-04-18T10:03:38.423Z</time></trkpt><trkpt lat="43.3172161" lon="10.6714664"><ele>39.0</ele><time>2026-04-18T10:03:39.409Z</time></trkpt><trkpt lat="43.3173733" lon="10.6713319"><ele>39.0</ele><time>2026-04-18T10:03:40.419Z</time></trkpt><trkpt lat="43.3175352" lon="10.6712042"><ele>38.0</ele><time>2026-04-18T10:03:41.413Z</time></trkpt><trkpt lat="43.3178701" lon="10.6709704"><ele>37.0</ele><time>2026-04-18T10:03:43.296Z</time></trkpt><trkpt lat="43.3180413" lon="10.6708608"><ele>36.66666666666667</ele><time>2026-04-18T10:03:44.414Z</time></trkpt><trkpt lat="43.3182185" lon="10.6707539"><ele>36.333333333333336</ele><time>2026-04-18T10:03:45.414Z</time></trkpt><trkpt lat="43.3183977" lon="10.6706511"><ele>36.0</ele><time>2026-04-18T10:03:46.416Z</time></trkpt><trkpt lat="43.31858" lon="10.6705525"><ele>36.0</ele><time>2026-04-18T10:03:47.41Z</time></trkpt><trkpt lat="43.318767" lon="10.6704615"><ele>36.0</ele><time>2026-04-18T10:03:48.418Z</time></trkpt><trkpt lat="43.318954" lon="10.6703745"><ele>36.0</ele><time>2026-04-18T10:03:49.415Z</time></trkpt><trkpt lat="43.3191438" lon="10.6702942"><ele>35.666666666666664</ele><time>2026-04-18T10:03:50.405Z</time></trkpt><trkpt lat="43.3193299" lon="10.6702232"><ele>35.33333333333333</ele><time>2026-04-18T10:03:51.42Z</time></trkpt><trkpt lat="43.3195132" lon="10.6701603"><ele>35.0</ele><time>2026-04-18T10:03:52.397Z</time></trkpt><trkpt lat="43.3196992" lon="10.6701058"><ele>35.666666666666664</ele><time>2026-04-18T10:03:53.4Z</time></trkpt><trkpt lat="43.3198882" lon="10.6700599"><ele>36.333333333333336</ele><time>2026-04-18T10:03:54.411Z</time></trkpt><trkpt lat="43.3200817" lon="10.6700154"><ele>37.0</ele><time>2026-04-18T10:03:55.381Z</time></trkpt><trkpt lat="43.320277" lon="10.6699743"><ele>37.0</ele><time>2026-04-18T10:03:56.388Z</time></trkpt><trkpt lat="43.3204793" lon="10.6699368"><ele>37.0</ele><time>2026-04-18T10:03:57.295Z</time></trkpt><trkpt lat="43.3206856" lon="10.6699087"><ele>37.0</ele><time>2026-04-18T10:03:58.387Z</time></trkpt><trkpt lat="43.3208955" lon="10.6698869"><ele>37.0</ele><time>2026-04-18T10:03:59.384Z</time></trkpt><trkpt lat="43.3211079" lon="10.6698724"><ele>37.0</ele><time>2026-04-18T10:04:00.419Z</time></trkpt><trkpt lat="43.3213229" lon="10.669863"><ele>37.0</ele><time>2026-04-18T10:04:01.408Z</time></trkpt><trkpt lat="43.321537" lon="10.6698556"><ele>37.0</ele><time>2026-04-18T10:04:02.391Z</time></trkpt><trkpt lat="43.3217374" lon="10.6698555"><ele>37.0</ele><time>2026-04-18T10:04:03.405Z</time></trkpt><trkpt lat="43.3219179" lon="10.6698556"><ele>37.0</ele><time>2026-04-18T10:04:04.413Z</time></trkpt><trkpt lat="43.3220963" lon="10.6698537"><ele>37.333333333333336</ele><time>2026-04-18T10:04:05.412Z</time></trkpt><trkpt lat="43.3222724" lon="10.6698478"><ele>37.666666666666664</ele><time>2026-04-18T10:04:06.389Z</time></trkpt><trkpt lat="43.322437" lon="10.6698453"><ele>38.0</ele><time>2026-04-18T10:04:07.394Z</time></trkpt><trkpt lat="43.3226047" lon="10.6698397"><ele>38.0</ele><time>2026-04-18T10:04:08.296Z</time></trkpt><trkpt lat="43.3227713" lon="10.669841"><ele>38.0</ele><time>2026-04-18T10:04:09.413Z</time></trkpt><trkpt lat="43.3229424" lon="10.6698394"><ele>38.0</ele><time>2026-04-18T10:04:10.41Z</time></trkpt><trkpt lat="43.323118" lon="10.6698399"><ele>36.666666666666664</ele><time>2026-04-18T10:04:11.393Z</time></trkpt><trkpt lat="43.3232984" lon="10.669842"><ele>35.333333333333336</ele><time>2026-04-18T10:04:12.297Z</time></trkpt><trkpt lat="43.3234834" lon="10.6698414"><ele>34.0</ele><time>2026-04-18T10:04:13.296Z</time></trkpt><trkpt lat="43.3236658" lon="10.6698386"><ele>34.0</ele><time>2026-04-18T10:04:14.351Z</time></trkpt><trkpt lat="43.3238453" lon="10.6698355"><ele>34.0</ele><time>2026-04-18T10:04:15.295Z</time></trkpt><trkpt lat="43.3240288" lon="10.6698346"><ele>34.0</ele><time>2026-04-18T10:04:16.373Z</time></trkpt><trkpt lat="43.3242149" lon="10.6698353"><ele>34.66666666666667</ele><time>2026-04-18T10:04:17.293Z</time></trkpt><trkpt lat="43.3243989" lon="10.6698452"><ele>35.333333333333336</ele><time>2026-04-18T10:04:18.296Z</time></trkpt><trkpt lat="43.3245867" lon="10.6698638"><ele>36.0</ele><time>2026-04-18T10:04:19.298Z</time></trkpt><trkpt lat="43.3247746" lon="10.6698865"><ele>36.0</ele><time>2026-04-18T10:04:20.301Z</time></trkpt><trkpt lat="43.3249617" lon="10.669919"><ele>36.0</ele><time>2026-04-18T10:04:21.299Z</time></trkpt><trkpt lat="43.3251483" lon="10.6699552"><ele>36.0</ele><time>2026-04-18T10:04:22.41Z</time></trkpt><trkpt lat="43.3253311" lon="10.6699886"><ele>36.0</ele><time>2026-04-18T10:04:23.396Z</time></trkpt><trkpt lat="43.3255173" lon="10.6700195"><ele>36.0</ele><time>2026-04-18T10:04:24.411Z</time></trkpt><trkpt lat="43.3257003" lon="10.6700541"><ele>36.0</ele><time>2026-04-18T10:04:25.395Z</time></trkpt><trkpt lat="43.3258813" lon="10.6700898"><ele>36.0</ele><time>2026-04-18T10:04:26.394Z</time></trkpt><trkpt lat="43.3260564" lon="10.6701286"><ele>36.0</ele><time>2026-04-18T10:04:27.402Z</time></trkpt><trkpt lat="43.3262324" lon="10.6701644"><ele>36.0</ele><time>2026-04-18T10:04:28.414Z</time></trkpt><trkpt lat="43.3264099" lon="10.670196"><ele>35.666666666666664</ele><time>2026-04-18T10:04:29.412Z</time></trkpt><trkpt lat="43.3265889" lon="10.6702254"><ele>35.33333333333333</ele><time>2026-04-18T10:04:30.396Z</time></trkpt><trkpt lat="43.3267625" lon="10.6702589"><ele>35.0</ele><time>2026-04-18T10:04:31.405Z</time></trkpt><trkpt lat="43.3269279" lon="10.6702938"><ele>35.666666666666664</ele><time>2026-04-18T10:04:32.404Z</time></trkpt><trkpt lat="43.3270944" lon="10.6703283"><ele>36.333333333333336</ele><time>2026-04-18T10:04:33.403Z</time></trkpt><trkpt lat="43.3272576" lon="10.6703579"><ele>37.0</ele><time>2026-04-18T10:04:34.387Z</time></trkpt><trkpt lat="43.3274078" lon="10.6703842"><ele>37.0</ele><time>2026-04-18T10:04:35.362Z</time></trkpt><trkpt lat="43.3275477" lon="10.6704123"><ele>37.0</ele><time>2026-04-18T10:04:36.39Z</time></trkpt><trkpt lat="43.3276802" lon="10.6704389"><ele>37.0</ele><time>2026-04-18T10:04:37.413Z</time></trkpt><trkpt lat="43.3278029" lon="10.6704647"><ele>37.0</ele><time>2026-04-18T10:04:38.411Z</time></trkpt><trkpt lat="43.3279244" lon="10.6704907"><ele>37.0</ele><time>2026-04-18T10:04:39.415Z</time></trkpt><trkpt lat="43.3280427" lon="10.6705138"><ele>37.0</ele><time>2026-04-18T10:04:40.409Z</time></trkpt><trkpt lat="43.3281553" lon="10.6705408"><ele>37.0</ele><time>2026-04-18T10:04:41.371Z</time></trkpt><trkpt lat="43.3282697" lon="10.6705656"><ele>37.0</ele><time>2026-04-18T10:04:42.294Z</time></trkpt><trkpt lat="43.3283804" lon="10.67059"><ele>36.75</ele><time>2026-04-18T10:04:43.296Z</time></trkpt><trkpt lat="43.3285871" lon="10.6705988"><ele>36.5</ele><time>2026-04-18T10:04:45.407Z</time></trkpt><trkpt lat="43.3286828" lon="10.670576"><ele>36.25</ele><time>2026-04-18T10:04:46.392Z</time></trkpt><trkpt lat="43.3287774" lon="10.6705453"><ele>36.0</ele><time>2026-04-18T10:04:47.385Z</time></trkpt><trkpt lat="43.3288643" lon="10.6705115"><ele>36.166666666666664</ele><time>2026-04-18T10:04:48.416Z</time></trkpt><trkpt lat="43.328946" lon="10.6705007"><ele>36.333333333333336</ele><time>2026-04-18T10:04:49.391Z</time></trkpt><trkpt lat="43.329027" lon="10.6705282"><ele>36.5</ele><time>2026-04-18T10:04:50.404Z</time></trkpt><trkpt lat="43.3291066" lon="10.6705678"><ele>36.66666666666667</ele><time>2026-04-18T10:04:51.386Z</time></trkpt><trkpt lat="43.3291919" lon="10.6705764"><ele>36.833333333333336</ele><time>2026-04-18T10:04:52.39Z</time></trkpt><trkpt lat="43.3292622" lon="10.670544"><ele>37.0</ele><time>2026-04-18T10:04:53.39Z</time></trkpt><trkpt lat="43.3293148" lon="10.670476"><ele>37.0</ele><time>2026-04-18T10:04:54.381Z</time></trkpt><trkpt lat="43.32934" lon="10.6703794"><ele>37.0</ele><time>2026-04-18T10:04:55.411Z</time></trkpt><trkpt lat="43.3293359" lon="10.670274"><ele>37.0</ele><time>2026-04-18T10:04:56.412Z</time></trkpt><trkpt lat="43.3293068" lon="10.6701612"><ele>37.0</ele><time>2026-04-18T10:04:57.401Z</time></trkpt><trkpt lat="43.3292226" lon="10.6698779"><ele>36.333333333333336</ele><time>2026-04-18T10:04:59.412Z</time></trkpt><trkpt lat="43.3291505" lon="10.6695156"><ele>35.666666666666664</ele><time>2026-04-18T10:05:01.295Z</time></trkpt><trkpt lat="43.3291185" lon="10.6693121"><ele>35.0</ele><time>2026-04-18T10:05:02.296Z</time></trkpt><trkpt lat="43.3290863" lon="10.6691141"><ele>34.75</ele><time>2026-04-18T10:05:03.405Z</time></trkpt><trkpt lat="43.3290526" lon="10.6689216"><ele>34.5</ele><time>2026-04-18T10:05:04.393Z</time></trkpt><trkpt lat="43.3290208" lon="10.6687217"><ele>34.25</ele><time>2026-04-18T10:05:05.418Z</time></trkpt><trkpt lat="43.328991" lon="10.6685216"><ele>34.0</ele><time>2026-04-18T10:05:06.416Z</time></trkpt><trkpt lat="43.3289594" lon="10.66832"><ele>34.5</ele><time>2026-04-18T10:05:07.416Z</time></trkpt><trkpt lat="43.3289269" lon="10.6681199"><ele>35.0</ele><time>2026-04-18T10:05:08.411Z</time></trkpt><trkpt lat="43.3288912" lon="10.6679199"><ele>35.5</ele><time>2026-04-18T10:05:09.388Z</time></trkpt><trkpt lat="43.3288596" lon="10.6677251"><ele>36.0</ele><time>2026-04-18T10:05:10.408Z</time></trkpt><trkpt lat="43.3288332" lon="10.6675432"><ele>36.333333333333336</ele><time>2026-04-18T10:05:11.405Z</time></trkpt><trkpt lat="43.3287786" lon="10.667212"><ele>36.66666666666667</ele><time>2026-04-18T10:05:13.29Z</time></trkpt><trkpt lat="43.3287543" lon="10.667039"><ele>37.0</ele><time>2026-04-18T10:05:14.392Z</time></trkpt><trkpt lat="43.3287275" lon="10.6668569"><ele>37.0</ele><time>2026-04-18T10:05:15.416Z</time></trkpt><trkpt lat="43.3287007" lon="10.6666729"><ele>37.0</ele><time>2026-04-18T10:05:16.405Z</time></trkpt><trkpt lat="43.3286713" lon="10.6664865"><ele>37.0</ele><time>2026-04-18T10:05:17.402Z</time></trkpt><trkpt lat="43.3286409" lon="10.6663016"><ele>37.0</ele><time>2026-04-18T10:05:18.401Z</time></trkpt><trkpt lat="43.3285886" lon="10.6659151"><ele>37.333333333333336</ele><time>2026-04-18T10:05:20.391Z</time></trkpt><trkpt lat="43.3285695" lon="10.6657123"><ele>37.666666666666664</ele><time>2026-04-18T10:05:21.389Z</time></trkpt><trkpt lat="43.3285529" lon="10.6655023"><ele>38.0</ele><time>2026-04-18T10:05:22.388Z</time></trkpt><trkpt lat="43.3285357" lon="10.665289"><ele>38.0</ele><time>2026-04-18T10:05:23.392Z</time></trkpt><trkpt lat="43.3285219" lon="10.6650702"><ele>38.0</ele><time>2026-04-18T10:05:24.399Z</time></trkpt><trkpt lat="43.3285097" lon="10.6648451"><ele>38.0</ele><time>2026-04-18T10:05:25.403Z</time></trkpt><trkpt lat="43.3285005" lon="10.6646177"><ele>37.0</ele><time>2026-04-18T10:05:26.385Z</time></trkpt><trkpt lat="43.3284911" lon="10.6643832"><ele>36.0</ele><time>2026-04-18T10:05:27.402Z</time></trkpt><trkpt lat="43.3284885" lon="10.6641438"><ele>35.0</ele><time>2026-04-18T10:05:28.413Z</time></trkpt><trkpt lat="43.3285013" lon="10.6639057"><ele>35.0</ele><time>2026-04-18T10:05:29.386Z</time></trkpt><trkpt lat="43.3285388" lon="10.6636695"><ele>35.0</ele><time>2026-04-18T10:05:30.386Z</time></trkpt><trkpt lat="43.3285992" lon="10.66344"><ele>35.0</ele><time>2026-04-18T10:05:31.396Z</time></trkpt><trkpt lat="43.3286784" lon="10.6632249"><ele>35.0</ele><time>2026-04-18T10:05:32.421Z</time></trkpt><trkpt lat="43.3287739" lon="10.6630226"><ele>35.0</ele><time>2026-04-18T10:05:33.406Z</time></trkpt><trkpt lat="43.3288921" lon="10.6628447"><ele>35.0</ele><time>2026-04-18T10:05:34.394Z</time></trkpt><trkpt lat="43.3290288" lon="10.6626905"><ele>35.0</ele><time>2026-04-18T10:05:35.39Z</time></trkpt><trkpt lat="43.3291712" lon="10.6625527"><ele>35.0</ele><time>2026-04-18T10:05:36.391Z</time></trkpt><trkpt lat="43.329314" lon="10.6624473"><ele>35.0</ele><time>2026-04-18T10:05:37.408Z</time></trkpt><trkpt lat="43.3294619" lon="10.6623565"><ele>35.0</ele><time>2026-04-18T10:05:38.389Z</time></trkpt><trkpt lat="43.3296085" lon="10.6622828"><ele>35.0</ele><time>2026-04-18T10:05:39.293Z</time></trkpt><trkpt lat="43.3297472" lon="10.662219"><ele>35.0</ele><time>2026-04-18T10:05:40.4Z</time></trkpt><trkpt lat="43.3298915" lon="10.6621558"><ele>35.33333333333333</ele><time>2026-04-18T10:05:41.383Z</time></trkpt><trkpt lat="43.3300446" lon="10.6620887"><ele>35.666666666666664</ele><time>2026-04-18T10:05:42.336Z</time></trkpt><trkpt lat="43.3302069" lon="10.6620208"><ele>36.0</ele><time>2026-04-18T10:05:43.294Z</time></trkpt><trkpt lat="43.3303765" lon="10.6619446"><ele>36.0</ele><time>2026-04-18T10:05:44.369Z</time></trkpt><trkpt lat="43.3305477" lon="10.6618568"><ele>36.0</ele><time>2026-04-18T10:05:45.287Z</time></trkpt><trkpt lat="43.3307208" lon="10.661756"><ele>36.0</ele><time>2026-04-18T10:05:46.3Z</time></trkpt><trkpt lat="43.3308915" lon="10.6616436"><ele>37.333333333333336</ele><time>2026-04-18T10:05:47.299Z</time></trkpt><trkpt lat="43.3310568" lon="10.6615196"><ele>38.66666666666667</ele><time>2026-04-18T10:05:48.411Z</time></trkpt><trkpt lat="43.3312164" lon="10.6613872"><ele>40.0</ele><time>2026-04-18T10:05:49.417Z</time></trkpt><trkpt lat="43.3313706" lon="10.6612502"><ele>38.66666666666667</ele><time>2026-04-18T10:05:50.417Z</time></trkpt><trkpt lat="43.3315224" lon="10.6611039"><ele>37.333333333333336</ele><time>2026-04-18T10:05:51.408Z</time></trkpt><trkpt lat="43.3316679" lon="10.6609498"><ele>36.0</ele><time>2026-04-18T10:05:52.394Z</time></trkpt><trkpt lat="43.3318037" lon="10.6607927"><ele>36.0</ele><time>2026-04-18T10:05:53.392Z</time></trkpt><trkpt lat="43.3319344" lon="10.6606278"><ele>36.0</ele><time>2026-04-18T10:05:54.41Z</time></trkpt><trkpt lat="43.3320578" lon="10.6604565"><ele>36.0</ele><time>2026-04-18T10:05:55.423Z</time></trkpt><trkpt lat="43.3321756" lon="10.6602804"><ele>37.0</ele><time>2026-04-18T10:05:56.396Z</time></trkpt><trkpt lat="43.3322866" lon="10.660098"><ele>38.0</ele><time>2026-04-18T10:05:57.421Z</time></trkpt><trkpt lat="43.3324009" lon="10.6599137"><ele>39.0</ele><time>2026-04-18T10:05:58.412Z</time></trkpt><trkpt lat="43.3325089" lon="10.6597266"><ele>39.0</ele><time>2026-04-18T10:05:59.394Z</time></trkpt><trkpt lat="43.3326133" lon="10.6595461"><ele>39.0</ele><time>2026-04-18T10:06:00.411Z</time></trkpt><trkpt lat="43.3328336" lon="10.6591664"><ele>37.666666666666664</ele><time>2026-04-18T10:06:02.4Z</time></trkpt><trkpt lat="43.3329418" lon="10.6589694"><ele>36.33333333333333</ele><time>2026-04-18T10:06:03.389Z</time></trkpt><trkpt lat="43.3330511" lon="10.6587654"><ele>35.0</ele><time>2026-04-18T10:06:04.298Z</time></trkpt><trkpt lat="43.333158" lon="10.6585633"><ele>34.0</ele><time>2026-04-18T10:06:05.295Z</time></trkpt><trkpt lat="43.3332635" lon="10.6583596"><ele>33.0</ele><time>2026-04-18T10:06:06.398Z</time></trkpt><trkpt lat="43.3333684" lon="10.6581642"><ele>32.0</ele><time>2026-04-18T10:06:07.382Z</time></trkpt><trkpt lat="43.3334752" lon="10.6579684"><ele>32.0</ele><time>2026-04-18T10:06:08.389Z</time></trkpt><trkpt lat="43.3335826" lon="10.6577722"><ele>32.0</ele><time>2026-04-18T10:06:09.408Z</time></trkpt><trkpt lat="43.3336922" lon="10.6575778"><ele>32.0</ele><time>2026-04-18T10:06:10.411Z</time></trkpt><trkpt lat="43.3338003" lon="10.6573819"><ele>32.5</ele><time>2026-04-18T10:06:11.398Z</time></trkpt><trkpt lat="43.3340171" lon="10.6569931"><ele>33.0</ele><time>2026-04-18T10:06:13.291Z</time></trkpt><trkpt lat="43.3341174" lon="10.6567991"><ele>33.0</ele><time>2026-04-18T10:06:14.401Z</time></trkpt><trkpt lat="43.3342126" lon="10.6566175"><ele>33.0</ele><time>2026-04-18T10:06:15.408Z</time></trkpt><trkpt lat="43.3343039" lon="10.6564384"><ele>33.0</ele><time>2026-04-18T10:06:16.414Z</time></trkpt><trkpt lat="43.3344917" lon="10.6560757"><ele>33.0</ele><time>2026-04-18T10:06:18.386Z</time></trkpt><trkpt lat="43.3345949" lon="10.6558813"><ele>33.0</ele><time>2026-04-18T10:06:19.415Z</time></trkpt><trkpt lat="43.3347031" lon="10.655682"><ele>33.0</ele><time>2026-04-18T10:06:20.416Z</time></trkpt><trkpt lat="43.3349301" lon="10.655269"><ele>33.0</ele><time>2026-04-18T10:06:22.289Z</time></trkpt><trkpt lat="43.3350562" lon="10.6550677"><ele>33.0</ele><time>2026-04-18T10:06:23.413Z</time></trkpt><trkpt lat="43.3352838" lon="10.6546838"><ele>33.0</ele><time>2026-04-18T10:06:25.408Z</time></trkpt><trkpt lat="43.3353881" lon="10.6544906"><ele>33.0</ele><time>2026-04-18T10:06:26.387Z</time></trkpt><trkpt lat="43.3354926" lon="10.6542981"><ele>33.0</ele><time>2026-04-18T10:06:27.415Z</time></trkpt><trkpt lat="43.3356014" lon="10.6540996"><ele>33.0</ele><time>2026-04-18T10:06:28.408Z</time></trkpt><trkpt lat="43.335711" lon="10.6539056"><ele>33.0</ele><time>2026-04-18T10:06:29.412Z</time></trkpt><trkpt lat="43.3358213" lon="10.6537209"><ele>33.0</ele><time>2026-04-18T10:06:30.406Z</time></trkpt><trkpt lat="43.3359244" lon="10.6535571"><ele>33.0</ele><time>2026-04-18T10:06:31.392Z</time></trkpt><trkpt lat="43.3360161" lon="10.6534083"><ele>33.0</ele><time>2026-04-18T10:06:32.415Z</time></trkpt><trkpt lat="43.3360991" lon="10.6532761"><ele>33.0</ele><time>2026-04-18T10:06:33.399Z</time></trkpt><trkpt lat="43.3361737" lon="10.6531624"><ele>33.0</ele><time>2026-04-18T10:06:34.414Z</time></trkpt><trkpt lat="43.3362431" lon="10.6530704"><ele>33.0</ele><time>2026-04-18T10:06:35.408Z</time></trkpt><trkpt lat="43.3363201" lon="10.6530088"><ele>33.0</ele><time>2026-04-18T10:06:36.414Z</time></trkpt><trkpt lat="43.3364131" lon="10.6529727"><ele>33.0</ele><time>2026-04-18T10:06:37.426Z</time></trkpt><trkpt lat="43.3364971" lon="10.6529299"><ele>33.0</ele><time>2026-04-18T10:06:38.387Z</time></trkpt><trkpt lat="43.3365652" lon="10.6528523"><ele>33.0</ele><time>2026-04-18T10:06:39.388Z</time></trkpt><trkpt lat="43.336607" lon="10.6527503"><ele>33.0</ele><time>2026-04-18T10:06:40.408Z</time></trkpt><trkpt lat="43.3366333" lon="10.6526094"><ele>33.0</ele><time>2026-04-18T10:06:41.417Z</time></trkpt><trkpt lat="43.3367406" lon="10.6522943"><ele>33.0</ele><time>2026-04-18T10:06:43.296Z</time></trkpt><trkpt lat="43.3368368" lon="10.6521507"><ele>33.0</ele><time>2026-04-18T10:06:44.391Z</time></trkpt><trkpt lat="43.3369422" lon="10.6520049"><ele>32.666666666666664</ele><time>2026-04-18T10:06:45.416Z</time></trkpt><trkpt lat="43.3370508" lon="10.6518507"><ele>32.33333333333333</ele><time>2026-04-18T10:06:46.387Z</time></trkpt><trkpt lat="43.337158" lon="10.6516913"><ele>32.0</ele><time>2026-04-18T10:06:47.392Z</time></trkpt><trkpt lat="43.3372742" lon="10.6515223"><ele>32.0</ele><time>2026-04-18T10:06:48.394Z</time></trkpt><trkpt lat="43.3373961" lon="10.6513415"><ele>32.0</ele><time>2026-04-18T10:06:49.388Z</time></trkpt><trkpt lat="43.3375206" lon="10.6511569"><ele>32.0</ele><time>2026-04-18T10:06:50.406Z</time></trkpt><trkpt lat="43.3376478" lon="10.650971"><ele>31.666666666666664</ele><time>2026-04-18T10:06:51.414Z</time></trkpt><trkpt lat="43.3377748" lon="10.6507867"><ele>31.333333333333336</ele><time>2026-04-18T10:06:52.387Z</time></trkpt><trkpt lat="43.3379015" lon="10.650596"><ele>31.0</ele><time>2026-04-18T10:06:53.381Z</time></trkpt><trkpt lat="43.3380285" lon="10.6504018"><ele>31.333333333333336</ele><time>2026-04-18T10:06:54.407Z</time></trkpt><trkpt lat="43.3381526" lon="10.6502009"><ele>31.666666666666664</ele><time>2026-04-18T10:06:55.39Z</time></trkpt><trkpt lat="43.3382707" lon="10.6499919"><ele>32.0</ele><time>2026-04-18T10:06:56.387Z</time></trkpt><trkpt lat="43.3383849" lon="10.6497735"><ele>32.0</ele><time>2026-04-18T10:06:57.41Z</time></trkpt><trkpt lat="43.3384918" lon="10.6495495"><ele>32.0</ele><time>2026-04-18T10:06:58.411Z</time></trkpt><trkpt lat="43.3385938" lon="10.6493197"><ele>32.0</ele><time>2026-04-18T10:06:59.417Z</time></trkpt><trkpt lat="43.3386876" lon="10.6490841"><ele>32.0</ele><time>2026-04-18T10:07:00.422Z</time></trkpt><trkpt lat="43.3387747" lon="10.6488412"><ele>32.0</ele><time>2026-04-18T10:07:01.416Z</time></trkpt><trkpt lat="43.3388548" lon="10.6485954"><ele>32.0</ele><time>2026-04-18T10:07:02.389Z</time></trkpt><trkpt lat="43.338928" lon="10.6483471"><ele>32.0</ele><time>2026-04-18T10:07:03.386Z</time></trkpt><trkpt lat="43.3389965" lon="10.6480954"><ele>32.0</ele><time>2026-04-18T10:07:04.387Z</time></trkpt><trkpt lat="43.3390605" lon="10.6478427"><ele>32.0</ele><time>2026-04-18T10:07:05.398Z</time></trkpt><trkpt lat="43.3391858" lon="10.6473311"><ele>32.0</ele><time>2026-04-18T10:07:07.402Z</time></trkpt><trkpt lat="43.3392453" lon="10.6470801"><ele>32.0</ele><time>2026-04-18T10:07:08.414Z</time></trkpt><trkpt lat="43.3393613" lon="10.6465987"><ele>32.0</ele><time>2026-04-18T10:07:10.395Z</time></trkpt><trkpt lat="43.3394156" lon="10.6463644"><ele>32.0</ele><time>2026-04-18T10:07:11.407Z</time></trkpt><trkpt lat="43.3395261" lon="10.6458791"><ele>31.666666666666664</ele><time>2026-04-18T10:07:13.295Z</time></trkpt><trkpt lat="43.3395842" lon="10.6456322"><ele>31.333333333333336</ele><time>2026-04-18T10:07:14.418Z</time></trkpt><trkpt lat="43.3396422" lon="10.6453827"><ele>31.0</ele><time>2026-04-18T10:07:15.423Z</time></trkpt><trkpt lat="43.3397011" lon="10.6451497"><ele>31.0</ele><time>2026-04-18T10:07:16.42Z</time></trkpt><trkpt lat="43.3397546" lon="10.6449367"><ele>31.0</ele><time>2026-04-18T10:07:17.396Z</time></trkpt><trkpt lat="43.3398024" lon="10.6447543"><ele>31.0</ele><time>2026-04-18T10:07:18.389Z</time></trkpt><trkpt lat="43.3398414" lon="10.6445963"><ele>31.0</ele><time>2026-04-18T10:07:19.408Z</time></trkpt><trkpt lat="43.3398727" lon="10.6444782"><ele>31.166666666666668</ele><time>2026-04-18T10:07:20.417Z</time></trkpt><trkpt lat="43.3399004" lon="10.644393"><ele>31.333333333333336</ele><time>2026-04-18T10:07:21.396Z</time></trkpt><trkpt lat="43.3399511" lon="10.6442896"><ele>31.5</ele><time>2026-04-18T10:07:23.389Z</time></trkpt><trkpt lat="43.3399967" lon="10.644227"><ele>31.666666666666664</ele><time>2026-04-18T10:07:26.405Z</time></trkpt><trkpt lat="43.3400908" lon="10.6442485"><ele>31.833333333333332</ele><time>2026-04-18T10:10:51.293Z</time></trkpt><trkpt lat="43.3401418" lon="10.6443494"><ele>32.0</ele><time>2026-04-18T10:10:53.299Z</time></trkpt><trkpt lat="43.3401558" lon="10.6444364"><ele>31.8</ele><time>2026-04-18T10:10:54.412Z</time></trkpt><trkpt lat="43.3401707" lon="10.6445923"><ele>31.6</ele><time>2026-04-18T10:10:56.389Z</time></trkpt><trkpt lat="43.3401832" lon="10.6447221"><ele>31.400000000000002</ele><time>2026-04-18T10:10:59.292Z</time></trkpt><trkpt lat="43.340215" lon="10.6448017"><ele>31.200000000000003</ele><time>2026-04-18T10:11:09.411Z</time></trkpt><trkpt lat="43.3403318" lon="10.6448207"><ele>31.0</ele><time>2026-04-18T10:11:11.297Z</time></trkpt><trkpt lat="43.3404098" lon="10.6448529"><ele>31.0</ele><time>2026-04-18T10:11:12.295Z</time></trkpt><trkpt lat="43.3405154" lon="10.6449201"><ele>31.0</ele><time>2026-04-18T10:11:13.295Z</time></trkpt><trkpt lat="43.3406157" lon="10.645004"><ele>31.0</ele><time>2026-04-18T10:11:14.292Z</time></trkpt><trkpt lat="43.3407215" lon="10.6450988"><ele>31.0</ele><time>2026-04-18T10:11:15.294Z</time></trkpt><trkpt lat="43.3408325" lon="10.6452054"><ele>31.5</ele><time>2026-04-18T10:11:16.292Z</time></trkpt><trkpt lat="43.3409463" lon="10.6453128"><ele>32.0</ele><time>2026-04-18T10:11:17.41Z</time></trkpt><trkpt lat="43.3410643" lon="10.6454259"><ele>32.5</ele><time>2026-04-18T10:11:18.4Z</time></trkpt><trkpt lat="43.3411867" lon="10.645545"><ele>33.0</ele><time>2026-04-18T10:11:19.418Z</time></trkpt><trkpt lat="43.3413135" lon="10.64567"><ele>33.666666666666664</ele><time>2026-04-18T10:11:20.387Z</time></trkpt><trkpt lat="43.341446" lon="10.6457973"><ele>34.33333333333333</ele><time>2026-04-18T10:11:21.3Z</time></trkpt><trkpt lat="43.3415717" lon="10.6459188"><ele>35.0</ele><time>2026-04-18T10:11:22.29Z</time></trkpt><trkpt lat="43.3416907" lon="10.6460319"><ele>34.25</ele><time>2026-04-18T10:11:23.412Z</time></trkpt><trkpt lat="43.3418" lon="10.6461369"><ele>33.5</ele><time>2026-04-18T10:11:24.417Z</time></trkpt><trkpt lat="43.3419114" lon="10.6462226"><ele>32.75</ele><time>2026-04-18T10:11:25.408Z</time></trkpt><trkpt lat="43.3420342" lon="10.6462913"><ele>32.0</ele><time>2026-04-18T10:11:26.411Z</time></trkpt><trkpt lat="43.3421723" lon="10.6463492"><ele>33.33333333333333</ele><time>2026-04-18T10:11:27.42Z</time></trkpt><trkpt lat="43.3423242" lon="10.6463994"><ele>34.666666666666664</ele><time>2026-04-18T10:11:28.408Z</time></trkpt><trkpt lat="43.3424815" lon="10.646453"><ele>36.0</ele><time>2026-04-18T10:11:29.421Z</time></trkpt><trkpt lat="43.3426337" lon="10.646509"><ele>36.0</ele><time>2026-04-18T10:11:30.388Z</time></trkpt><trkpt lat="43.3427678" lon="10.6465628"><ele>36.0</ele><time>2026-04-18T10:11:31.414Z</time></trkpt><trkpt lat="43.3428768" lon="10.6466084"><ele>36.0</ele><time>2026-04-18T10:11:32.415Z</time></trkpt><trkpt lat="43.3429842" lon="10.6466373"><ele>36.0</ele><time>2026-04-18T10:11:33.413Z</time></trkpt><trkpt lat="43.3430992" lon="10.6466575"><ele>36.75</ele><time>2026-04-18T10:11:34.388Z</time></trkpt><trkpt lat="43.3432212" lon="10.6466611"><ele>37.5</ele><time>2026-04-18T10:11:35.415Z</time></trkpt><trkpt lat="43.3433519" lon="10.6466625"><ele>38.25</ele><time>2026-04-18T10:11:36.405Z</time></trkpt><trkpt lat="43.3434775" lon="10.6466647"><ele>39.0</ele><time>2026-04-18T10:11:37.402Z</time></trkpt><trkpt lat="43.3435949" lon="10.6466641"><ele>39.0</ele><time>2026-04-18T10:11:38.417Z</time></trkpt><trkpt lat="43.343713" lon="10.6466683"><ele>39.0</ele><time>2026-04-18T10:11:39.39Z</time></trkpt><trkpt lat="43.3438402" lon="10.6466881"><ele>39.0</ele><time>2026-04-18T10:11:40.3Z</time></trkpt><trkpt lat="43.3439741" lon="10.6467239"><ele>39.0</ele><time>2026-04-18T10:11:41.294Z</time></trkpt><trkpt lat="43.3441316" lon="10.6467721"><ele>39.0</ele><time>2026-04-18T10:11:42.293Z</time></trkpt><trkpt lat="43.3442913" lon="10.6468192"><ele>39.0</ele><time>2026-04-18T10:11:43.382Z</time></trkpt><trkpt lat="43.3444474" lon="10.6468651"><ele>39.0</ele><time>2026-04-18T10:11:44.294Z</time></trkpt><trkpt lat="43.344605" lon="10.6469096"><ele>39.0</ele><time>2026-04-18T10:11:45.402Z</time></trkpt><trkpt lat="43.344771" lon="10.6469568"><ele>39.0</ele><time>2026-04-18T10:11:46.396Z</time></trkpt><trkpt lat="43.3449271" lon="10.6470029"><ele>39.0</ele><time>2026-04-18T10:11:47.413Z</time></trkpt><trkpt lat="43.345078" lon="10.647058"><ele>39.0</ele><time>2026-04-18T10:11:48.409Z</time></trkpt><trkpt lat="43.3452216" lon="10.6471166"><ele>39.0</ele><time>2026-04-18T10:11:49.404Z</time></trkpt><trkpt lat="43.345358" lon="10.6471696"><ele>39.0</ele><time>2026-04-18T10:11:50.405Z</time></trkpt><trkpt lat="43.3455024" lon="10.6472198"><ele>39.0</ele><time>2026-04-18T10:11:51.376Z</time></trkpt><trkpt lat="43.3456485" lon="10.6472553"><ele>40.333333333333336</ele><time>2026-04-18T10:11:52.39Z</time></trkpt><trkpt lat="43.3457916" lon="10.6472952"><ele>41.66666666666667</ele><time>2026-04-18T10:11:53.405Z</time></trkpt><trkpt lat="43.3460779" lon="10.6473665"><ele>43.0</ele><time>2026-04-18T10:11:55.291Z</time></trkpt><trkpt lat="43.3462305" lon="10.6474022"><ele>42.66666666666667</ele><time>2026-04-18T10:11:56.291Z</time></trkpt><trkpt lat="43.3463806" lon="10.6474467"><ele>42.333333333333336</ele><time>2026-04-18T10:11:57.295Z</time></trkpt><trkpt lat="43.3465304" lon="10.6475036"><ele>42.0</ele><time>2026-04-18T10:11:58.292Z</time></trkpt><trkpt lat="43.3466812" lon="10.6475655"><ele>42.0</ele><time>2026-04-18T10:11:59.293Z</time></trkpt><trkpt lat="43.3468314" lon="10.6476316"><ele>42.0</ele><time>2026-04-18T10:12:00.289Z</time></trkpt><trkpt lat="43.3469858" lon="10.6476942"><ele>42.0</ele><time>2026-04-18T10:12:01.419Z</time></trkpt><trkpt lat="43.3471342" lon="10.6477552"><ele>40.5</ele><time>2026-04-18T10:12:02.421Z</time></trkpt><trkpt lat="43.3472943" lon="10.6478156"><ele>39.0</ele><time>2026-04-18T10:12:03.428Z</time></trkpt><trkpt lat="43.3476204" lon="10.6479545"><ele>39.0</ele><time>2026-04-18T10:12:05.434Z</time></trkpt><trkpt lat="43.347791" lon="10.6480234"><ele>39.0</ele><time>2026-04-18T10:12:06.418Z</time></trkpt><trkpt lat="43.3479487" lon="10.648094"><ele>39.0</ele><time>2026-04-18T10:12:07.421Z</time></trkpt><trkpt lat="43.3481145" lon="10.6481616"><ele>39.333333333333336</ele><time>2026-04-18T10:12:08.422Z</time></trkpt><trkpt lat="43.3482776" lon="10.6482286"><ele>39.66666666666667</ele><time>2026-04-18T10:12:09.431Z</time></trkpt><trkpt lat="43.3484413" lon="10.6482973"><ele>40.0</ele><time>2026-04-18T10:12:10.414Z</time></trkpt><trkpt lat="43.3487727" lon="10.6484321"><ele>40.0</ele><time>2026-04-18T10:12:12.294Z</time></trkpt><trkpt lat="43.3489398" lon="10.6484991"><ele>40.0</ele><time>2026-04-18T10:12:13.295Z</time></trkpt><trkpt lat="43.3491039" lon="10.6485668"><ele>40.0</ele><time>2026-04-18T10:12:14.294Z</time></trkpt><trkpt lat="43.3493944" lon="10.6486847"><ele>40.0</ele><time>2026-04-18T10:12:16.41Z</time></trkpt><trkpt lat="43.3495291" lon="10.6487451"><ele>40.0</ele><time>2026-04-18T10:12:17.42Z</time></trkpt><trkpt lat="43.3496758" lon="10.6488164"><ele>40.0</ele><time>2026-04-18T10:12:18.426Z</time></trkpt><trkpt lat="43.3498212" lon="10.64889"><ele>41.333333333333336</ele><time>2026-04-18T10:12:19.427Z</time></trkpt><trkpt lat="43.3499727" lon="10.6489595"><ele>42.666666666666664</ele><time>2026-04-18T10:12:20.43Z</time></trkpt><trkpt lat="43.3501283" lon="10.6490384"><ele>44.0</ele><time>2026-04-18T10:12:21.397Z</time></trkpt><trkpt lat="43.3502882" lon="10.6491196"><ele>44.0</ele><time>2026-04-18T10:12:22.424Z</time></trkpt><trkpt lat="43.3504474" lon="10.649201"><ele>44.0</ele><time>2026-04-18T10:12:23.398Z</time></trkpt><trkpt lat="43.3506102" lon="10.6492824"><ele>44.0</ele><time>2026-04-18T10:12:24.415Z</time></trkpt><trkpt lat="43.3507719" lon="10.6493653"><ele>44.0</ele><time>2026-04-18T10:12:25.424Z</time></trkpt><trkpt lat="43.3509356" lon="10.6494458"><ele>44.0</ele><time>2026-04-18T10:12:26.416Z</time></trkpt><trkpt lat="43.3510992" lon="10.6495271"><ele>44.0</ele><time>2026-04-18T10:12:27.4Z</time></trkpt><trkpt lat="43.3512604" lon="10.6496111"><ele>44.33333333333333</ele><time>2026-04-18T10:12:28.425Z</time></trkpt><trkpt lat="43.3514143" lon="10.6496908"><ele>44.666666666666664</ele><time>2026-04-18T10:12:29.427Z</time></trkpt><trkpt lat="43.3515681" lon="10.6497662"><ele>45.0</ele><time>2026-04-18T10:12:30.426Z</time></trkpt><trkpt lat="43.3517237" lon="10.6498458"><ele>45.0</ele><time>2026-04-18T10:12:31.426Z</time></trkpt><trkpt lat="43.3520295" lon="10.6499987"><ele>45.0</ele><time>2026-04-18T10:12:33.294Z</time></trkpt><trkpt lat="43.3521811" lon="10.6500745"><ele>45.333333333333336</ele><time>2026-04-18T10:12:34.29Z</time></trkpt><trkpt lat="43.3523319" lon="10.6501495"><ele>45.66666666666667</ele><time>2026-04-18T10:12:35.291Z</time></trkpt><trkpt lat="43.3524836" lon="10.6502245"><ele>46.0</ele><time>2026-04-18T10:12:36.283Z</time></trkpt><trkpt lat="43.3526302" lon="10.6502988"><ele>46.0</ele><time>2026-04-18T10:12:37.289Z</time></trkpt><trkpt lat="43.3527775" lon="10.6503762"><ele>46.0</ele><time>2026-04-18T10:12:38.287Z</time></trkpt><trkpt lat="43.3529252" lon="10.6504544"><ele>46.0</ele><time>2026-04-18T10:12:39.292Z</time></trkpt><trkpt lat="43.3530757" lon="10.6505299"><ele>46.66666666666667</ele><time>2026-04-18T10:12:40.29Z</time></trkpt><trkpt lat="43.3532282" lon="10.6506065"><ele>47.333333333333336</ele><time>2026-04-18T10:12:41.29Z</time></trkpt><trkpt lat="43.3533812" lon="10.6506799"><ele>48.0</ele><time>2026-04-18T10:12:42.292Z</time></trkpt><trkpt lat="43.3535248" lon="10.6507505"><ele>48.0</ele><time>2026-04-18T10:12:43.29Z</time></trkpt><trkpt lat="43.3536678" lon="10.6508156"><ele>48.0</ele><time>2026-04-18T10:12:44.297Z</time></trkpt><trkpt lat="43.3538105" lon="10.6508745"><ele>48.0</ele><time>2026-04-18T10:12:45.421Z</time></trkpt><trkpt lat="43.3539581" lon="10.6509301"><ele>48.25</ele><time>2026-04-18T10:12:46.43Z</time></trkpt><trkpt lat="43.3541032" lon="10.6509834"><ele>48.5</ele><time>2026-04-18T10:12:47.394Z</time></trkpt><trkpt lat="43.3542406" lon="10.6510319"><ele>48.75</ele><time>2026-04-18T10:12:48.352Z</time></trkpt><trkpt lat="43.354388" lon="10.6510844"><ele>49.0</ele><time>2026-04-18T10:12:49.419Z</time></trkpt><trkpt lat="43.3545379" lon="10.6511346"><ele>49.0</ele><time>2026-04-18T10:12:50.417Z</time></trkpt><trkpt lat="43.3546978" lon="10.6511895"><ele>49.0</ele><time>2026-04-18T10:12:51.43Z</time></trkpt><trkpt lat="43.3548504" lon="10.6512401"><ele>49.0</ele><time>2026-04-18T10:12:52.416Z</time></trkpt><trkpt lat="43.3550011" lon="10.6512911"><ele>49.5</ele><time>2026-04-18T10:12:53.412Z</time></trkpt><trkpt lat="43.355141" lon="10.6513381"><ele>50.0</ele><time>2026-04-18T10:12:54.419Z</time></trkpt><trkpt lat="43.3552764" lon="10.6513866"><ele>50.5</ele><time>2026-04-18T10:12:55.432Z</time></trkpt><trkpt lat="43.3554171" lon="10.6514366"><ele>51.0</ele><time>2026-04-18T10:12:56.391Z</time></trkpt><trkpt lat="43.3555576" lon="10.6514875"><ele>52.25</ele><time>2026-04-18T10:12:57.42Z</time></trkpt><trkpt lat="43.3556922" lon="10.6515318"><ele>53.5</ele><time>2026-04-18T10:12:58.427Z</time></trkpt><trkpt lat="43.3558364" lon="10.6515677"><ele>54.75</ele><time>2026-04-18T10:12:59.398Z</time></trkpt><trkpt lat="43.3559695" lon="10.6516028"><ele>56.0</ele><time>2026-04-18T10:13:00.423Z</time></trkpt><trkpt lat="43.3560915" lon="10.651637"><ele>56.0</ele><time>2026-04-18T10:13:01.397Z</time></trkpt><trkpt lat="43.3563073" lon="10.6517454"><ele>56.0</ele><time>2026-04-18T10:13:03.29Z</time></trkpt><trkpt lat="43.3564081" lon="10.6518194"><ele>56.0</ele><time>2026-04-18T10:13:04.291Z</time></trkpt><trkpt lat="43.3565175" lon="10.6518974"><ele>55.75</ele><time>2026-04-18T10:13:05.293Z</time></trkpt><trkpt lat="43.356629" lon="10.6519736"><ele>55.5</ele><time>2026-04-18T10:13:06.298Z</time></trkpt><trkpt lat="43.3567467" lon="10.652048"><ele>55.25</ele><time>2026-04-18T10:13:07.292Z</time></trkpt><trkpt lat="43.3568654" lon="10.6521383"><ele>55.0</ele><time>2026-04-18T10:13:08.379Z</time></trkpt><trkpt lat="43.3569922" lon="10.6522204"><ele>56.666666666666664</ele><time>2026-04-18T10:13:09.388Z</time></trkpt><trkpt lat="43.3572169" lon="10.6523631"><ele>58.33333333333333</ele><time>2026-04-18T10:13:11.293Z</time></trkpt><trkpt lat="43.357326" lon="10.6524323"><ele>60.0</ele><time>2026-04-18T10:13:12.288Z</time></trkpt><trkpt lat="43.3574501" lon="10.6525053"><ele>60.0</ele><time>2026-04-18T10:13:13.295Z</time></trkpt><trkpt lat="43.3575707" lon="10.652578"><ele>60.0</ele><time>2026-04-18T10:13:14.413Z</time></trkpt><trkpt lat="43.3576966" lon="10.652651"><ele>60.0</ele><time>2026-04-18T10:13:15.429Z</time></trkpt><trkpt lat="43.3579414" lon="10.6527707"><ele>59.2</ele><time>2026-04-18T10:13:17.296Z</time></trkpt><trkpt lat="43.3580636" lon="10.6528147"><ele>58.4</ele><time>2026-04-18T10:13:18.29Z</time></trkpt><trkpt lat="43.3581766" lon="10.652846"><ele>57.599999999999994</ele><time>2026-04-18T10:13:19.29Z</time></trkpt><trkpt lat="43.3582685" lon="10.6528689"><ele>56.8</ele><time>2026-04-18T10:13:20.291Z</time></trkpt><trkpt lat="43.358363" lon="10.652886"><ele>56.0</ele><time>2026-04-18T10:13:21.291Z</time></trkpt><trkpt lat="43.3584479" lon="10.6528975"><ele>56.0</ele><time>2026-04-18T10:13:22.423Z</time></trkpt><trkpt lat="43.3585269" lon="10.6529034"><ele>55.99999999999999</ele><time>2026-04-18T10:13:23.429Z</time></trkpt><trkpt lat="43.3586825" lon="10.6529158"><ele>55.99999999999999</ele><time>2026-04-18T10:13:25.295Z</time></trkpt><trkpt lat="43.3587667" lon="10.6529233"><ele>56.0</ele><time>2026-04-18T10:13:26.294Z</time></trkpt><trkpt lat="43.3588544" lon="10.6529376"><ele>56.0</ele><time>2026-04-18T10:13:27.287Z</time></trkpt><trkpt lat="43.358952" lon="10.6529647"><ele>57.25</ele><time>2026-04-18T10:13:28.29Z</time></trkpt><trkpt lat="43.3590576" lon="10.6530085"><ele>58.5</ele><time>2026-04-18T10:13:29.293Z</time></trkpt><trkpt lat="43.3591694" lon="10.6530629"><ele>59.75</ele><time>2026-04-18T10:13:30.286Z</time></trkpt><trkpt lat="43.359282" lon="10.6531264"><ele>61.0</ele><time>2026-04-18T10:13:31.292Z</time></trkpt><trkpt lat="43.3593912" lon="10.6531834"><ele>61.0</ele><time>2026-04-18T10:13:32.293Z</time></trkpt><trkpt lat="43.3594921" lon="10.6532348"><ele>60.99999999999999</ele><time>2026-04-18T10:13:33.295Z</time></trkpt><trkpt lat="43.359592" lon="10.6532591"><ele>60.99999999999999</ele><time>2026-04-18T10:13:34.289Z</time></trkpt><trkpt lat="43.3596982" lon="10.653276"><ele>61.0</ele><time>2026-04-18T10:13:35.29Z</time></trkpt><trkpt lat="43.3597991" lon="10.6532819"><ele>61.0</ele><time>2026-04-18T10:13:36.292Z</time></trkpt><trkpt lat="43.3598888" lon="10.6532896"><ele>61.33333333333333</ele><time>2026-04-18T10:13:37.295Z</time></trkpt><trkpt lat="43.3599599" lon="10.6533029"><ele>61.666666666666664</ele><time>2026-04-18T10:13:38.297Z</time></trkpt><trkpt lat="43.3600275" lon="10.653312"><ele>62.0</ele><time>2026-04-18T10:13:39.295Z</time></trkpt><trkpt lat="43.3601023" lon="10.6533308"><ele>62.33333333333333</ele><time>2026-04-18T10:13:40.292Z</time></trkpt><trkpt lat="43.3601783" lon="10.6533554"><ele>62.666666666666664</ele><time>2026-04-18T10:13:41.294Z</time></trkpt><trkpt lat="43.3602548" lon="10.6533951"><ele>63.0</ele><time>2026-04-18T10:13:42.294Z</time></trkpt><trkpt lat="43.3603342" lon="10.6534452"><ele>63.0</ele><time>2026-04-18T10:13:43.293Z</time></trkpt><trkpt lat="43.3604196" lon="10.6535002"><ele>63.0</ele><time>2026-04-18T10:13:44.297Z</time></trkpt><trkpt lat="43.3605123" lon="10.6535499"><ele>63.0</ele><time>2026-04-18T10:13:45.423Z</time></trkpt><trkpt lat="43.3606136" lon="10.6535985"><ele>63.0</ele><time>2026-04-18T10:13:46.431Z</time></trkpt><trkpt lat="43.3607165" lon="10.6536462"><ele>63.0</ele><time>2026-04-18T10:13:47.418Z</time></trkpt><trkpt lat="43.3608245" lon="10.6536949"><ele>63.25</ele><time>2026-04-18T10:13:48.435Z</time></trkpt><trkpt lat="43.3609355" lon="10.653743"><ele>63.5</ele><time>2026-04-18T10:13:49.434Z</time></trkpt><trkpt lat="43.3610442" lon="10.6538108"><ele>63.75</ele><time>2026-04-18T10:13:50.427Z</time></trkpt><trkpt lat="43.3611467" lon="10.6538927"><ele>64.0</ele><time>2026-04-18T10:13:51.425Z</time></trkpt><trkpt lat="43.3612479" lon="10.653987"><ele>64.0</ele><time>2026-04-18T10:13:52.429Z</time></trkpt><trkpt lat="43.361347" lon="10.6540816"><ele>64.0</ele><time>2026-04-18T10:13:53.432Z</time></trkpt><trkpt lat="43.3614411" lon="10.6541854"><ele>64.0</ele><time>2026-04-18T10:13:54.424Z</time></trkpt><trkpt lat="43.3615271" lon="10.6543059"><ele>64.0</ele><time>2026-04-18T10:13:55.426Z</time></trkpt><trkpt lat="43.3616708" lon="10.6545234"><ele>64.8</ele><time>2026-04-18T10:13:57.413Z</time></trkpt><trkpt lat="43.3617572" lon="10.65461"><ele>65.60000000000001</ele><time>2026-04-18T10:13:58.432Z</time></trkpt><trkpt lat="43.3618466" lon="10.6546769"><ele>66.4</ele><time>2026-04-18T10:13:59.396Z</time></trkpt><trkpt lat="43.3619474" lon="10.6547222"><ele>67.2</ele><time>2026-04-18T10:14:00.43Z</time></trkpt><trkpt lat="43.3620491" lon="10.6547542"><ele>68.0</ele><time>2026-04-18T10:14:01.401Z</time></trkpt><trkpt lat="43.3621625" lon="10.6547816"><ele>71.25</ele><time>2026-04-18T10:14:02.431Z</time></trkpt><trkpt lat="43.3622715" lon="10.6548358"><ele>74.5</ele><time>2026-04-18T10:14:03.424Z</time></trkpt><trkpt lat="43.3623667" lon="10.6548817"><ele>77.75</ele><time>2026-04-18T10:14:04.427Z</time></trkpt><trkpt lat="43.3624673" lon="10.6548957"><ele>81.0</ele><time>2026-04-18T10:14:05.431Z</time></trkpt><trkpt lat="43.3626862" lon="10.6548748"><ele>81.0</ele><time>2026-04-18T10:14:07.418Z</time></trkpt><trkpt lat="43.3627971" lon="10.6548728"><ele>81.0</ele><time>2026-04-18T10:14:08.426Z</time></trkpt><trkpt lat="43.362894" lon="10.6548945"><ele>81.0</ele><time>2026-04-18T10:14:09.423Z</time></trkpt><trkpt lat="43.3629776" lon="10.6549481"><ele>81.0</ele><time>2026-04-18T10:14:10.427Z</time></trkpt><trkpt lat="43.3630654" lon="10.6550314"><ele>81.0</ele><time>2026-04-18T10:14:11.425Z</time></trkpt><trkpt lat="43.3631913" lon="10.65515"><ele>82.6</ele><time>2026-04-18T10:14:13.293Z</time></trkpt><trkpt lat="43.3632609" lon="10.6551696"><ele>84.19999999999999</ele><time>2026-04-18T10:14:14.432Z</time></trkpt><trkpt lat="43.3633345" lon="10.6551838"><ele>85.80000000000001</ele><time>2026-04-18T10:14:15.42Z</time></trkpt><trkpt lat="43.3634264" lon="10.6551793"><ele>87.4</ele><time>2026-04-18T10:14:16.404Z</time></trkpt><trkpt lat="43.3636034" lon="10.6552337"><ele>89.0</ele><time>2026-04-18T10:14:18.292Z</time></trkpt><trkpt lat="43.3636789" lon="10.6552535"><ele>89.0</ele><time>2026-04-18T10:14:19.386Z</time></trkpt><trkpt lat="43.3637785" lon="10.6551859"><ele>89.0</ele><time>2026-04-18T10:14:21.425Z</time></trkpt><trkpt lat="43.3637958" lon="10.655049"><ele>89.0</ele><time>2026-04-18T10:14:23.433Z</time></trkpt><trkpt lat="43.3637151" lon="10.6548833"><ele>89.0</ele><time>2026-04-18T10:14:25.42Z</time></trkpt><trkpt lat="43.3636415" lon="10.654785"><ele>89.0</ele><time>2026-04-18T10:14:26.427Z</time></trkpt><trkpt lat="43.3635288" lon="10.6545403"><ele>89.0</ele><time>2026-04-18T10:14:28.423Z</time></trkpt><trkpt lat="43.3634651" lon="10.6544407"><ele>89.0</ele><time>2026-04-18T10:14:29.418Z</time></trkpt><trkpt lat="43.3633938" lon="10.654371"><ele>89.0</ele><time>2026-04-18T10:14:30.426Z</time></trkpt><trkpt lat="43.3633279" lon="10.654318"><ele>91.5</ele><time>2026-04-18T10:14:31.444Z</time></trkpt><trkpt lat="43.3632616" lon="10.6542293"><ele>94.0</ele><time>2026-04-18T10:14:33.418Z</time></trkpt><trkpt lat="43.3633128" lon="10.6541322"><ele>96.5</ele><time>2026-04-18T10:14:36.426Z</time></trkpt><trkpt lat="43.3634056" lon="10.6541585"><ele>99.0</ele><time>2026-04-18T10:14:38.42Z</time></trkpt><trkpt lat="43.3635937" lon="10.6542254"><ele>99.0</ele><time>2026-04-18T10:14:40.296Z</time></trkpt><trkpt lat="43.3637088" lon="10.6542624"><ele>99.0</ele><time>2026-04-18T10:14:41.297Z</time></trkpt><trkpt lat="43.3638156" lon="10.6542974"><ele>99.0</ele><time>2026-04-18T10:14:42.3Z</time></trkpt><trkpt lat="43.3639241" lon="10.6543589"><ele>99.0</ele><time>2026-04-18T10:14:43.296Z</time></trkpt><trkpt lat="43.3640259" lon="10.6544443"><ele>99.6</ele><time>2026-04-18T10:14:44.301Z</time></trkpt><trkpt lat="43.3641152" lon="10.6545431"><ele>100.2</ele><time>2026-04-18T10:14:45.289Z</time></trkpt><trkpt lat="43.3641856" lon="10.6546436"><ele>100.8</ele><time>2026-04-18T10:14:46.292Z</time></trkpt><trkpt lat="43.3642595" lon="10.6547307"><ele>101.39999999999999</ele><time>2026-04-18T10:14:47.29Z</time></trkpt><trkpt lat="43.3643391" lon="10.6547963"><ele>102.0</ele><time>2026-04-18T10:14:48.293Z</time></trkpt><trkpt lat="43.3644296" lon="10.6548474"><ele>102.0</ele><time>2026-04-18T10:14:49.284Z</time></trkpt><trkpt lat="43.3645278" lon="10.654884"><ele>102.0</ele><time>2026-04-18T10:14:50.285Z</time></trkpt><trkpt lat="43.3646378" lon="10.654911"><ele>102.0</ele><time>2026-04-18T10:14:51.291Z</time></trkpt><trkpt lat="43.3647483" lon="10.6549346"><ele>102.0</ele><time>2026-04-18T10:14:52.295Z</time></trkpt><trkpt lat="43.3648428" lon="10.6549681"><ele>102.0</ele><time>2026-04-18T10:14:53.292Z</time></trkpt><trkpt lat="43.3649294" lon="10.6550098"><ele>103.83333333333333</ele><time>2026-04-18T10:14:54.291Z</time></trkpt><trkpt lat="43.3650013" lon="10.6550386"><ele>105.66666666666666</ele><time>2026-04-18T10:14:55.291Z</time></trkpt><trkpt lat="43.36507" lon="10.6550465"><ele>107.5</ele><time>2026-04-18T10:14:56.349Z</time></trkpt><trkpt lat="43.3651453" lon="10.6550267"><ele>109.33333333333333</ele><time>2026-04-18T10:14:57.389Z</time></trkpt><trkpt lat="43.3652214" lon="10.6549919"><ele>111.16666666666666</ele><time>2026-04-18T10:14:58.293Z</time></trkpt><trkpt lat="43.3653111" lon="10.6549473"><ele>113.0</ele><time>2026-04-18T10:14:59.418Z</time></trkpt><trkpt lat="43.3654093" lon="10.6548963"><ele>113.0</ele><time>2026-04-18T10:15:00.426Z</time></trkpt><trkpt lat="43.365511" lon="10.6548512"><ele>113.00000000000001</ele><time>2026-04-18T10:15:01.416Z</time></trkpt><trkpt lat="43.3656229" lon="10.6548138"><ele>113.00000000000001</ele><time>2026-04-18T10:15:02.41Z</time></trkpt><trkpt lat="43.3657265" lon="10.6547869"><ele>113.0</ele><time>2026-04-18T10:15:03.414Z</time></trkpt><trkpt lat="43.3658235" lon="10.6547765"><ele>113.0</ele><time>2026-04-18T10:15:04.418Z</time></trkpt><trkpt lat="43.3659056" lon="10.6547925"><ele>113.0</ele><time>2026-04-18T10:15:05.417Z</time></trkpt><trkpt lat="43.3659782" lon="10.6548141"><ele>113.0</ele><time>2026-04-18T10:15:06.414Z</time></trkpt><trkpt lat="43.3660422" lon="10.6548126"><ele>113.0</ele><time>2026-04-18T10:15:07.415Z</time></trkpt><trkpt lat="43.3660996" lon="10.6547727"><ele>113.0</ele><time>2026-04-18T10:15:08.382Z</time></trkpt><trkpt lat="43.3661458" lon="10.6547034"><ele>113.0</ele><time>2026-04-18T10:15:09.419Z</time></trkpt><trkpt lat="43.3661653" lon="10.6546171"><ele>113.0</ele><time>2026-04-18T10:15:10.395Z</time></trkpt><trkpt lat="43.3661695" lon="10.6545178"><ele>113.0</ele><time>2026-04-18T10:15:11.41Z</time></trkpt><trkpt lat="43.3661798" lon="10.6542839"><ele>115.80000000000001</ele><time>2026-04-18T10:15:13.29Z</time></trkpt><trkpt lat="43.3662108" lon="10.6541624"><ele>118.60000000000001</ele><time>2026-04-18T10:15:14.415Z</time></trkpt><trkpt lat="43.3662557" lon="10.6540404"><ele>121.39999999999999</ele><time>2026-04-18T10:15:15.416Z</time></trkpt><trkpt lat="43.3663069" lon="10.6539004"><ele>124.19999999999999</ele><time>2026-04-18T10:15:16.416Z</time></trkpt><trkpt lat="43.36635" lon="10.6537506"><ele>127.0</ele><time>2026-04-18T10:15:17.409Z</time></trkpt><trkpt lat="43.3663793" lon="10.6536093"><ele>127.50000000000001</ele><time>2026-04-18T10:15:18.411Z</time></trkpt><trkpt lat="43.3664084" lon="10.6534809"><ele>128.0</ele><time>2026-04-18T10:15:19.413Z</time></trkpt><trkpt lat="43.366446" lon="10.6533827"><ele>128.5</ele><time>2026-04-18T10:15:20.412Z</time></trkpt><trkpt lat="43.3665077" lon="10.6533185"><ele>129.0</ele><time>2026-04-18T10:15:21.415Z</time></trkpt><trkpt lat="43.3665781" lon="10.6532815"><ele>129.5</ele><time>2026-04-18T10:15:22.42Z</time></trkpt><trkpt lat="43.3666666" lon="10.6532697"><ele>130.0</ele><time>2026-04-18T10:15:23.288Z</time></trkpt><trkpt lat="43.3667674" lon="10.6532634"><ele>130.0</ele><time>2026-04-18T10:15:24.414Z</time></trkpt><trkpt lat="43.366881" lon="10.6532628"><ele>130.0</ele><time>2026-04-18T10:15:25.405Z</time></trkpt><trkpt lat="43.3669999" lon="10.6532545"><ele>130.0</ele><time>2026-04-18T10:15:26.419Z</time></trkpt><trkpt lat="43.3671189" lon="10.6532297"><ele>130.0</ele><time>2026-04-18T10:15:27.412Z</time></trkpt><trkpt lat="43.3672423" lon="10.6531977"><ele>129.33333333333334</ele><time>2026-04-18T10:15:28.407Z</time></trkpt><trkpt lat="43.367363" lon="10.6531555"><ele>128.66666666666666</ele><time>2026-04-18T10:15:29.413Z</time></trkpt><trkpt lat="43.3676039" lon="10.6530763"><ele>128.0</ele><time>2026-04-18T10:15:31.343Z</time></trkpt><trkpt lat="43.3677181" lon="10.6530372"><ele>128.0</ele><time>2026-04-18T10:15:32.293Z</time></trkpt><trkpt lat="43.367822" lon="10.6530097"><ele>128.0</ele><time>2026-04-18T10:15:33.291Z</time></trkpt><trkpt lat="43.3679206" lon="10.6530069"><ele>128.0</ele><time>2026-04-18T10:15:34.294Z</time></trkpt><trkpt lat="43.3680009" lon="10.6530264"><ele>128.0</ele><time>2026-04-18T10:15:35.295Z</time></trkpt><trkpt lat="43.3680691" lon="10.653031"><ele>128.0</ele><time>2026-04-18T10:15:36.292Z</time></trkpt><trkpt lat="43.3681778" lon="10.6529685"><ele>128.66666666666666</ele><time>2026-04-18T10:15:38.292Z</time></trkpt><trkpt lat="43.3682201" lon="10.6528977"><ele>129.33333333333331</ele><time>2026-04-18T10:15:39.296Z</time></trkpt><trkpt lat="43.3682637" lon="10.6528112"><ele>130.0</ele><time>2026-04-18T10:15:40.296Z</time></trkpt><trkpt lat="43.3683149" lon="10.6527225"><ele>130.66666666666666</ele><time>2026-04-18T10:15:41.295Z</time></trkpt><trkpt lat="43.3683803" lon="10.6526448"><ele>131.33333333333334</ele><time>2026-04-18T10:15:42.296Z</time></trkpt><trkpt lat="43.3684616" lon="10.6525695"><ele>132.0</ele><time>2026-04-18T10:15:43.284Z</time></trkpt><trkpt lat="43.3685519" lon="10.6525133"><ele>134.5</ele><time>2026-04-18T10:15:44.296Z</time></trkpt><trkpt lat="43.3686252" lon="10.6524813"><ele>137.0</ele><time>2026-04-18T10:15:45.294Z</time></trkpt><trkpt lat="43.368701" lon="10.6524915"><ele>139.5</ele><time>2026-04-18T10:15:46.294Z</time></trkpt><trkpt lat="43.3687673" lon="10.652535"><ele>142.0</ele><time>2026-04-18T10:15:47.295Z</time></trkpt><trkpt lat="43.3688342" lon="10.6525999"><ele>144.5</ele><time>2026-04-18T10:15:48.294Z</time></trkpt><trkpt lat="43.3688781" lon="10.6526926"><ele>147.0</ele><time>2026-04-18T10:15:49.294Z</time></trkpt><trkpt lat="43.3689117" lon="10.6527758"><ele>145.5</ele><time>2026-04-18T10:15:50.288Z</time></trkpt><trkpt lat="43.3689734" lon="10.6528436"><ele>144.0</ele><time>2026-04-18T10:15:51.292Z</time></trkpt><trkpt lat="43.3690408" lon="10.6528938"><ele>142.5</ele><time>2026-04-18T10:15:52.288Z</time></trkpt><trkpt lat="43.3691155" lon="10.652925"><ele>141.0</ele><time>2026-04-18T10:15:53.29Z</time></trkpt><trkpt lat="43.3692011" lon="10.6529395"><ele>139.5</ele><time>2026-04-18T10:15:54.295Z</time></trkpt><trkpt lat="43.3692973" lon="10.6529405"><ele>138.0</ele><time>2026-04-18T10:15:55.289Z</time></trkpt><trkpt lat="43.3694055" lon="10.6529213"><ele>138.0</ele><time>2026-04-18T10:15:56.293Z</time></trkpt><trkpt lat="43.3695159" lon="10.6529019"><ele>138.0</ele><time>2026-04-18T10:15:57.292Z</time></trkpt><trkpt lat="43.3696324" lon="10.6528824"><ele>138.0</ele><time>2026-04-18T10:15:58.412Z</time></trkpt><trkpt lat="43.3698368" lon="10.6528017"><ele>138.0</ele><time>2026-04-18T10:16:00.287Z</time></trkpt><trkpt lat="43.3699223" lon="10.6527428"><ele>142.60000000000002</ele><time>2026-04-18T10:16:01.396Z</time></trkpt><trkpt lat="43.3700017" lon="10.6526817"><ele>147.20000000000002</ele><time>2026-04-18T10:16:02.389Z</time></trkpt><trkpt lat="43.3700825" lon="10.6526259"><ele>151.8</ele><time>2026-04-18T10:16:03.383Z</time></trkpt><trkpt lat="43.3701689" lon="10.6526073"><ele>156.4</ele><time>2026-04-18T10:16:04.408Z</time></trkpt><trkpt lat="43.3702666" lon="10.6526071"><ele>161.0</ele><time>2026-04-18T10:16:05.404Z</time></trkpt><trkpt lat="43.3703646" lon="10.6526298"><ele>161.0</ele><time>2026-04-18T10:16:06.406Z</time></trkpt><trkpt lat="43.3704756" lon="10.6526454"><ele>161.0</ele><time>2026-04-18T10:16:07.39Z</time></trkpt><trkpt lat="43.3705733" lon="10.6526556"><ele>161.0</ele><time>2026-04-18T10:16:08.387Z</time></trkpt><trkpt lat="43.3706538" lon="10.6526385"><ele>161.0</ele><time>2026-04-18T10:16:09.387Z</time></trkpt><trkpt lat="43.3708079" lon="10.6525322"><ele>160.16666666666666</ele><time>2026-04-18T10:16:11.289Z</time></trkpt><trkpt lat="43.370871" lon="10.6524702"><ele>159.33333333333331</ele><time>2026-04-18T10:16:12.283Z</time></trkpt><trkpt lat="43.3709153" lon="10.6523952"><ele>158.5</ele><time>2026-04-18T10:16:13.289Z</time></trkpt><trkpt lat="43.3709389" lon="10.6522866"><ele>157.66666666666666</ele><time>2026-04-18T10:16:15.279Z</time></trkpt><trkpt lat="43.3708877" lon="10.6522341"><ele>156.83333333333334</ele><time>2026-04-18T10:16:17.291Z</time></trkpt><trkpt lat="43.3707827" lon="10.65222"><ele>156.0</ele><time>2026-04-18T10:16:19.296Z</time></trkpt><trkpt lat="43.370709" lon="10.6522402"><ele>156.0</ele><time>2026-04-18T10:16:20.289Z</time></trkpt><trkpt lat="43.3706446" lon="10.6522205"><ele>156.0</ele><time>2026-04-18T10:16:21.29Z</time></trkpt><trkpt lat="43.3705743" lon="10.6521859"><ele>156.0</ele><time>2026-04-18T10:16:22.293Z</time></trkpt><trkpt lat="43.3705223" lon="10.6521187"><ele>156.0</ele><time>2026-04-18T10:16:23.296Z</time></trkpt><trkpt lat="43.3704614" lon="10.6520377"><ele>156.0</ele><time>2026-04-18T10:16:24.282Z</time></trkpt><trkpt lat="43.3703934" lon="10.6519973"><ele>156.0</ele><time>2026-04-18T10:16:25.291Z</time></trkpt><trkpt lat="43.3703101" lon="10.6519836"><ele>157.0</ele><time>2026-04-18T10:16:26.286Z</time></trkpt><trkpt lat="43.3702168" lon="10.651996"><ele>158.0</ele><time>2026-04-18T10:16:27.291Z</time></trkpt><trkpt lat="43.3701256" lon="10.6520231"><ele>159.0</ele><time>2026-04-18T10:16:28.286Z</time></trkpt><trkpt lat="43.3700315" lon="10.6520573"><ele>160.0</ele><time>2026-04-18T10:16:29.291Z</time></trkpt><trkpt lat="43.3699329" lon="10.6520846"><ele>161.0</ele><time>2026-04-18T10:16:30.291Z</time></trkpt><trkpt lat="43.3698376" lon="10.6521006"><ele>161.0</ele><time>2026-04-18T10:16:31.289Z</time></trkpt><trkpt lat="43.3697559" lon="10.6520629"><ele>161.0</ele><time>2026-04-18T10:16:32.288Z</time></trkpt><trkpt lat="43.3696686" lon="10.6520238"><ele>161.0</ele><time>2026-04-18T10:16:33.292Z</time></trkpt><trkpt lat="43.3695798" lon="10.6519759"><ele>161.0</ele><time>2026-04-18T10:16:34.294Z</time></trkpt><trkpt lat="43.3695101" lon="10.6518798"><ele>161.0</ele><time>2026-04-18T10:16:35.294Z</time></trkpt><trkpt lat="43.3694452" lon="10.6517932"><ele>161.83333333333331</ele><time>2026-04-18T10:16:36.297Z</time></trkpt><trkpt lat="43.3693879" lon="10.6517137"><ele>162.66666666666666</ele><time>2026-04-18T10:16:37.295Z</time></trkpt><trkpt lat="43.3693675" lon="10.651615"><ele>163.5</ele><time>2026-04-18T10:16:38.293Z</time></trkpt><trkpt lat="43.3693725" lon="10.6515102"><ele>164.33333333333334</ele><time>2026-04-18T10:16:39.398Z</time></trkpt><trkpt lat="43.369404" lon="10.6513901"><ele>165.16666666666669</ele><time>2026-04-18T10:16:40.395Z</time></trkpt><trkpt lat="43.3694342" lon="10.6512665"><ele>166.0</ele><time>2026-04-18T10:16:41.396Z</time></trkpt><trkpt lat="43.3695047" lon="10.6510383"><ele>166.8</ele><time>2026-04-18T10:16:43.293Z</time></trkpt><trkpt lat="43.3695478" lon="10.650952"><ele>167.60000000000002</ele><time>2026-04-18T10:16:44.402Z</time></trkpt><trkpt lat="43.3696315" lon="10.6509031"><ele>168.4</ele><time>2026-04-18T10:16:45.388Z</time></trkpt><trkpt lat="43.3697239" lon="10.6508636"><ele>169.2</ele><time>2026-04-18T10:16:46.38Z</time></trkpt><trkpt lat="43.369825" lon="10.6508145"><ele>170.0</ele><time>2026-04-18T10:16:47.387Z</time></trkpt><trkpt lat="43.3699248" lon="10.6508038"><ele>172.0</ele><time>2026-04-18T10:16:48.389Z</time></trkpt><trkpt lat="43.37004" lon="10.6508034"><ele>174.0</ele><time>2026-04-18T10:16:49.397Z</time></trkpt><trkpt lat="43.3701653" lon="10.6508169"><ele>176.0</ele><time>2026-04-18T10:16:50.382Z</time></trkpt><trkpt lat="43.3702739" lon="10.6508372"><ele>178.0</ele><time>2026-04-18T10:16:51.386Z</time></trkpt><trkpt lat="43.3703729" lon="10.6508772"><ele>178.0</ele><time>2026-04-18T10:16:52.397Z</time></trkpt><trkpt lat="43.3704595" lon="10.6509166"><ele>178.0</ele><time>2026-04-18T10:16:53.385Z</time></trkpt><trkpt lat="43.3705253" lon="10.6509213"><ele>178.0</ele><time>2026-04-18T10:16:54.398Z</time></trkpt><trkpt lat="43.3705871" lon="10.6509033"><ele>178.0</ele><time>2026-04-18T10:16:55.383Z</time></trkpt><trkpt lat="43.3707021" lon="10.6507993"><ele>178.0</ele><time>2026-04-18T10:16:57.392Z</time></trkpt><trkpt lat="43.370767" lon="10.6507195"><ele>178.0</ele><time>2026-04-18T10:16:58.379Z</time></trkpt><trkpt lat="43.3708353" lon="10.6506219"><ele>178.0</ele><time>2026-04-18T10:16:59.29Z</time></trkpt><trkpt lat="43.3709078" lon="10.6505093"><ele>178.0</ele><time>2026-04-18T10:17:00.404Z</time></trkpt><trkpt lat="43.3709785" lon="10.6503984"><ele>178.0</ele><time>2026-04-18T10:17:01.401Z</time></trkpt><trkpt lat="43.3710514" lon="10.6502908"><ele>178.0</ele><time>2026-04-18T10:17:02.408Z</time></trkpt><trkpt lat="43.371126" lon="10.650184"><ele>178.0</ele><time>2026-04-18T10:17:03.404Z</time></trkpt><trkpt lat="43.3712008" lon="10.6500792"><ele>177.33333333333334</ele><time>2026-04-18T10:17:04.406Z</time></trkpt><trkpt lat="43.371275" lon="10.6499833"><ele>176.66666666666669</ele><time>2026-04-18T10:17:05.421Z</time></trkpt><trkpt lat="43.3713417" lon="10.6498935"><ele>176.0</ele><time>2026-04-18T10:17:06.386Z</time></trkpt><trkpt lat="43.3713975" lon="10.649817"><ele>175.33333333333334</ele><time>2026-04-18T10:17:07.406Z</time></trkpt><trkpt lat="43.3714445" lon="10.6497399"><ele>174.66666666666666</ele><time>2026-04-18T10:17:08.414Z</time></trkpt><trkpt lat="43.37149" lon="10.6496488"><ele>174.0</ele><time>2026-04-18T10:17:09.39Z</time></trkpt><trkpt lat="43.3715281" lon="10.649548"><ele>174.5</ele><time>2026-04-18T10:17:10.405Z</time></trkpt><trkpt lat="43.371556" lon="10.6494357"><ele>175.0</ele><time>2026-04-18T10:17:11.408Z</time></trkpt><trkpt lat="43.3715726" lon="10.649328"><ele>175.5</ele><time>2026-04-18T10:17:12.391Z</time></trkpt><trkpt lat="43.3715833" lon="10.6492335"><ele>176.0</ele><time>2026-04-18T10:17:13.394Z</time></trkpt><trkpt lat="43.3716041" lon="10.6491473"><ele>176.5</ele><time>2026-04-18T10:17:14.384Z</time></trkpt><trkpt lat="43.3716921" lon="10.6490403"><ele>177.0</ele><time>2026-04-18T10:17:16.411Z</time></trkpt><trkpt lat="43.3717661" lon="10.6490209"><ele>177.0</ele><time>2026-04-18T10:17:17.412Z</time></trkpt><trkpt lat="43.371859" lon="10.6490121"><ele>177.0</ele><time>2026-04-18T10:17:18.385Z</time></trkpt><trkpt lat="43.3719675" lon="10.6490137"><ele>177.0</ele><time>2026-04-18T10:17:19.387Z</time></trkpt><trkpt lat="43.3720838" lon="10.6490143"><ele>177.0</ele><time>2026-04-18T10:17:20.412Z</time></trkpt><trkpt lat="43.372203" lon="10.649016"><ele>177.0</ele><time>2026-04-18T10:17:21.408Z</time></trkpt><trkpt lat="43.3723206" lon="10.6490078"><ele>177.33333333333334</ele><time>2026-04-18T10:17:22.411Z</time></trkpt><trkpt lat="43.3725878" lon="10.6489921"><ele>177.66666666666669</ele><time>2026-04-18T10:17:24.294Z</time></trkpt><trkpt lat="43.372728" lon="10.6489824"><ele>178.0</ele><time>2026-04-18T10:17:25.389Z</time></trkpt><trkpt lat="43.3728743" lon="10.6489753"><ele>178.0</ele><time>2026-04-18T10:17:26.39Z</time></trkpt><trkpt lat="43.3730161" lon="10.6489697"><ele>178.0</ele><time>2026-04-18T10:17:27.384Z</time></trkpt><trkpt lat="43.3731601" lon="10.6489645"><ele>178.0</ele><time>2026-04-18T10:17:28.413Z</time></trkpt><trkpt lat="43.3732996" lon="10.6489575"><ele>178.0</ele><time>2026-04-18T10:17:29.412Z</time></trkpt><trkpt lat="43.3734459" lon="10.6489475"><ele>178.5</ele><time>2026-04-18T10:17:30.414Z</time></trkpt><trkpt lat="43.373586" lon="10.6489366"><ele>179.0</ele><time>2026-04-18T10:17:31.412Z</time></trkpt><trkpt lat="43.3737057" lon="10.6489259"><ele>179.5</ele><time>2026-04-18T10:17:32.415Z</time></trkpt><trkpt lat="43.3738088" lon="10.6489232"><ele>180.0</ele><time>2026-04-18T10:17:33.389Z</time></trkpt><trkpt lat="43.3738997" lon="10.6489131"><ele>179.2</ele><time>2026-04-18T10:17:34.384Z</time></trkpt><trkpt lat="43.3739896" lon="10.6488893"><ele>178.4</ele><time>2026-04-18T10:17:35.386Z</time></trkpt><trkpt lat="43.3740789" lon="10.6488477"><ele>177.60000000000002</ele><time>2026-04-18T10:17:36.293Z</time></trkpt><trkpt lat="43.3741733" lon="10.6487873"><ele>176.8</ele><time>2026-04-18T10:17:37.394Z</time></trkpt><trkpt lat="43.3742524" lon="10.6487134"><ele>176.0</ele><time>2026-04-18T10:17:38.39Z</time></trkpt><trkpt lat="43.3743381" lon="10.6486293"><ele>176.25</ele><time>2026-04-18T10:17:39.386Z</time></trkpt><trkpt lat="43.3744376" lon="10.6485374"><ele>176.5</ele><time>2026-04-18T10:17:40.396Z</time></trkpt><trkpt lat="43.3745472" lon="10.648436"><ele>176.75</ele><time>2026-04-18T10:17:41.41Z</time></trkpt><trkpt lat="43.3746634" lon="10.6483251"><ele>177.0</ele><time>2026-04-18T10:17:42.416Z</time></trkpt><trkpt lat="43.3747758" lon="10.6482169"><ele>177.0</ele><time>2026-04-18T10:17:43.384Z</time></trkpt><trkpt lat="43.3748831" lon="10.648113"><ele>177.0</ele><time>2026-04-18T10:17:44.383Z</time></trkpt><trkpt lat="43.37498" lon="10.6480151"><ele>177.0</ele><time>2026-04-18T10:17:45.292Z</time></trkpt><trkpt lat="43.3750688" lon="10.6479358"><ele>177.0</ele><time>2026-04-18T10:17:46.29Z</time></trkpt><trkpt lat="43.3751602" lon="10.6478641"><ele>182.66666666666669</ele><time>2026-04-18T10:17:47.392Z</time></trkpt><trkpt lat="43.375269" lon="10.6477855"><ele>188.33333333333334</ele><time>2026-04-18T10:17:48.388Z</time></trkpt><trkpt lat="43.3753701" lon="10.6477427"><ele>194.0</ele><time>2026-04-18T10:17:49.4Z</time></trkpt><trkpt lat="43.3755929" lon="10.6477422"><ele>194.25</ele><time>2026-04-18T10:17:51.364Z</time></trkpt><trkpt lat="43.3757455" lon="10.6477695"><ele>194.5</ele><time>2026-04-18T10:17:52.292Z</time></trkpt><trkpt lat="43.3758729" lon="10.6477879"><ele>194.75</ele><time>2026-04-18T10:17:53.292Z</time></trkpt><trkpt lat="43.3759668" lon="10.6477936"><ele>195.0</ele><time>2026-04-18T10:17:54.292Z</time></trkpt><trkpt lat="43.3760608" lon="10.6478062"><ele>195.0</ele><time>2026-04-18T10:17:55.284Z</time></trkpt><trkpt lat="43.3761765" lon="10.6478047"><ele>195.0</ele><time>2026-04-18T10:17:56.296Z</time></trkpt><trkpt lat="43.3762513" lon="10.6477745"><ele>195.0</ele><time>2026-04-18T10:17:57.293Z</time></trkpt><trkpt lat="43.3763267" lon="10.6477242"><ele>195.0</ele><time>2026-04-18T10:17:58.289Z</time></trkpt><trkpt lat="43.3764024" lon="10.6476664"><ele>195.0</ele><time>2026-04-18T10:17:59.293Z</time></trkpt><trkpt lat="43.3764905" lon="10.6476026"><ele>194.8</ele><time>2026-04-18T10:18:00.294Z</time></trkpt><trkpt lat="43.3765867" lon="10.6475907"><ele>194.6</ele><time>2026-04-18T10:18:01.292Z</time></trkpt><trkpt lat="43.3766782" lon="10.6475801"><ele>194.39999999999998</ele><time>2026-04-18T10:18:02.296Z</time></trkpt><trkpt lat="43.3767891" lon="10.6476049"><ele>194.2</ele><time>2026-04-18T10:18:03.292Z</time></trkpt><trkpt lat="43.3769051" lon="10.6476106"><ele>194.0</ele><time>2026-04-18T10:18:04.298Z</time></trkpt><trkpt lat="43.3770068" lon="10.6476016"><ele>194.0</ele><time>2026-04-18T10:18:05.298Z</time></trkpt><trkpt lat="43.377116" lon="10.6475847"><ele>194.0</ele><time>2026-04-18T10:18:06.291Z</time></trkpt><trkpt lat="43.3772311" lon="10.6475607"><ele>194.0</ele><time>2026-04-18T10:18:07.297Z</time></trkpt><trkpt lat="43.3773449" lon="10.6475419"><ele>194.0</ele><time>2026-04-18T10:18:08.299Z</time></trkpt><trkpt lat="43.3774591" lon="10.6475299"><ele>193.2</ele><time>2026-04-18T10:18:09.295Z</time></trkpt><trkpt lat="43.3775698" lon="10.6475002"><ele>192.39999999999998</ele><time>2026-04-18T10:18:10.298Z</time></trkpt><trkpt lat="43.3776708" lon="10.6474741"><ele>191.6</ele><time>2026-04-18T10:18:11.295Z</time></trkpt><trkpt lat="43.377754" lon="10.6474535"><ele>190.8</ele><time>2026-04-18T10:18:12.298Z</time></trkpt><trkpt lat="43.3778341" lon="10.6474044"><ele>190.0</ele><time>2026-04-18T10:18:13.298Z</time></trkpt><trkpt lat="43.3779139" lon="10.6473254"><ele>190.0</ele><time>2026-04-18T10:18:14.288Z</time></trkpt><trkpt lat="43.3780042" lon="10.6472291"><ele>190.0</ele><time>2026-04-18T10:18:15.294Z</time></trkpt><trkpt lat="43.3781013" lon="10.6471204"><ele>190.0</ele><time>2026-04-18T10:18:16.299Z</time></trkpt><trkpt lat="43.3782065" lon="10.6470222"><ele>190.0</ele><time>2026-04-18T10:18:17.296Z</time></trkpt><trkpt lat="43.3783105" lon="10.6469244"><ele>192.0</ele><time>2026-04-18T10:18:18.294Z</time></trkpt><trkpt lat="43.3784079" lon="10.6468205"><ele>194.0</ele><time>2026-04-18T10:18:19.402Z</time></trkpt><trkpt lat="43.3785018" lon="10.6467165"><ele>196.0</ele><time>2026-04-18T10:18:20.407Z</time></trkpt><trkpt lat="43.3785975" lon="10.6466292"><ele>198.0</ele><time>2026-04-18T10:18:21.405Z</time></trkpt><trkpt lat="43.3787069" lon="10.6465525"><ele>198.0</ele><time>2026-04-18T10:18:22.406Z</time></trkpt><trkpt lat="43.3788162" lon="10.6464797"><ele>198.0</ele><time>2026-04-18T10:18:23.411Z</time></trkpt><trkpt lat="43.3789436" lon="10.6464036"><ele>198.0</ele><time>2026-04-18T10:18:24.39Z</time></trkpt><trkpt lat="43.3790531" lon="10.6463332"><ele>198.0</ele><time>2026-04-18T10:18:25.392Z</time></trkpt><trkpt lat="43.3791768" lon="10.646297"><ele>195.0</ele><time>2026-04-18T10:18:26.406Z</time></trkpt><trkpt lat="43.3792993" lon="10.646276"><ele>192.0</ele><time>2026-04-18T10:18:27.407Z</time></trkpt><trkpt lat="43.3794108" lon="10.6462791"><ele>189.0</ele><time>2026-04-18T10:18:28.402Z</time></trkpt><trkpt lat="43.3795181" lon="10.6462709"><ele>186.0</ele><time>2026-04-18T10:18:29.414Z</time></trkpt><trkpt lat="43.3796506" lon="10.6461954"><ele>185.75</ele><time>2026-04-18T10:18:30.385Z</time></trkpt><trkpt lat="43.3797576" lon="10.646165"><ele>185.5</ele><time>2026-04-18T10:18:31.387Z</time></trkpt><trkpt lat="43.3798758" lon="10.6460978"><ele>185.25</ele><time>2026-04-18T10:18:32.385Z</time></trkpt><trkpt lat="43.3799969" lon="10.6460393"><ele>185.0</ele><time>2026-04-18T10:18:33.295Z</time></trkpt><trkpt lat="43.3801349" lon="10.6460183"><ele>188.0</ele><time>2026-04-18T10:18:34.395Z</time></trkpt><trkpt lat="43.3803978" lon="10.6459896"><ele>191.0</ele><time>2026-04-18T10:18:36.298Z</time></trkpt><trkpt lat="43.3805253" lon="10.6459761"><ele>194.0</ele><time>2026-04-18T10:18:37.401Z</time></trkpt><trkpt lat="43.3807567" lon="10.645911"><ele>194.00000000000003</ele><time>2026-04-18T10:18:39.293Z</time></trkpt><trkpt lat="43.3808304" lon="10.6458883"><ele>194.0</ele><time>2026-04-18T10:18:40.397Z</time></trkpt><trkpt lat="43.3808824" lon="10.6458066"><ele>194.0</ele><time>2026-04-18T10:18:41.413Z</time></trkpt><trkpt lat="43.3809485" lon="10.6457357"><ele>194.0</ele><time>2026-04-18T10:18:42.406Z</time></trkpt><trkpt lat="43.3810015" lon="10.645659"><ele>194.00000000000003</ele><time>2026-04-18T10:18:43.294Z</time></trkpt><trkpt lat="43.3810027" lon="10.6455516"><ele>194.0</ele><time>2026-04-18T10:18:44.297Z</time></trkpt><trkpt lat="43.3810406" lon="10.645453"><ele>194.0</ele><time>2026-04-18T10:18:45.415Z</time></trkpt><trkpt lat="43.3810735" lon="10.6453664"><ele>194.0</ele><time>2026-04-18T10:18:46.387Z</time></trkpt><trkpt lat="43.3812074" lon="10.6452932"><ele>194.0</ele><time>2026-04-18T10:18:49.289Z</time></trkpt><trkpt lat="43.3813149" lon="10.645397"><ele>194.0</ele><time>2026-04-18T10:18:51.295Z</time></trkpt><trkpt lat="43.3813909" lon="10.6454567"><ele>194.0</ele><time>2026-04-18T10:18:52.29Z</time></trkpt><trkpt lat="43.3814759" lon="10.6455122"><ele>193.83333333333334</ele><time>2026-04-18T10:18:53.293Z</time></trkpt><trkpt lat="43.3815633" lon="10.6455417"><ele>193.66666666666669</ele><time>2026-04-18T10:18:54.391Z</time></trkpt><trkpt lat="43.3816445" lon="10.6455501"><ele>193.5</ele><time>2026-04-18T10:18:55.292Z</time></trkpt><trkpt lat="43.3817327" lon="10.6455226"><ele>193.33333333333331</ele><time>2026-04-18T10:18:56.294Z</time></trkpt><trkpt lat="43.3818121" lon="10.6454825"><ele>193.16666666666666</ele><time>2026-04-18T10:18:57.283Z</time></trkpt><trkpt lat="43.3818676" lon="10.6454221"><ele>193.0</ele><time>2026-04-18T10:18:58.293Z</time></trkpt><trkpt lat="43.3819169" lon="10.6453355"><ele>195.16666666666666</ele><time>2026-04-18T10:18:59.287Z</time></trkpt><trkpt lat="43.3819657" lon="10.6452445"><ele>197.33333333333331</ele><time>2026-04-18T10:19:00.283Z</time></trkpt><trkpt lat="43.3820231" lon="10.6451388"><ele>199.5</ele><time>2026-04-18T10:19:01.289Z</time></trkpt><trkpt lat="43.3820917" lon="10.6450391"><ele>201.66666666666669</ele><time>2026-04-18T10:19:02.294Z</time></trkpt><trkpt lat="43.3821418" lon="10.6449698"><ele>203.83333333333334</ele><time>2026-04-18T10:19:03.29Z</time></trkpt><trkpt lat="43.3822257" lon="10.6449043"><ele>206.0</ele><time>2026-04-18T10:19:04.389Z</time></trkpt><trkpt lat="43.3823086" lon="10.6448469"><ele>206.4</ele><time>2026-04-18T10:19:05.395Z</time></trkpt><trkpt lat="43.3824014" lon="10.6448321"><ele>206.8</ele><time>2026-04-18T10:19:06.357Z</time></trkpt><trkpt lat="43.3824878" lon="10.6447973"><ele>207.20000000000002</ele><time>2026-04-18T10:19:07.403Z</time></trkpt><trkpt lat="43.3825609" lon="10.6447455"><ele>207.60000000000002</ele><time>2026-04-18T10:19:08.402Z</time></trkpt><trkpt lat="43.3827043" lon="10.6445882"><ele>208.0</ele><time>2026-04-18T10:19:10.403Z</time></trkpt><trkpt lat="43.3827551" lon="10.6444954"><ele>210.60000000000002</ele><time>2026-04-18T10:19:11.383Z</time></trkpt><trkpt lat="43.3827915" lon="10.6443767"><ele>213.20000000000002</ele><time>2026-04-18T10:19:12.385Z</time></trkpt><trkpt lat="43.382815" lon="10.6442461"><ele>215.8</ele><time>2026-04-18T10:19:13.294Z</time></trkpt><trkpt lat="43.3828419" lon="10.6441058"><ele>218.4</ele><time>2026-04-18T10:19:14.292Z</time></trkpt><trkpt lat="43.3828855" lon="10.6439723"><ele>221.0</ele><time>2026-04-18T10:19:15.391Z</time></trkpt><trkpt lat="43.3829184" lon="10.643868"><ele>221.00000000000003</ele><time>2026-04-18T10:19:16.391Z</time></trkpt><trkpt lat="43.3829729" lon="10.6437975"><ele>221.0</ele><time>2026-04-18T10:19:17.386Z</time></trkpt><trkpt lat="43.38305" lon="10.6437937"><ele>221.0</ele><time>2026-04-18T10:19:18.382Z</time></trkpt><trkpt lat="43.3831254" lon="10.6437683"><ele>221.0</ele><time>2026-04-18T10:19:19.38Z</time></trkpt><trkpt lat="43.3832047" lon="10.6437502"><ele>221.00000000000003</ele><time>2026-04-18T10:19:20.38Z</time></trkpt><trkpt lat="43.3832723" lon="10.6437259"><ele>221.0</ele><time>2026-04-18T10:19:21.389Z</time></trkpt><trkpt lat="43.3833344" lon="10.6436791"><ele>222.33333333333334</ele><time>2026-04-18T10:19:22.381Z</time></trkpt><trkpt lat="43.383371" lon="10.6435944"><ele>223.66666666666669</ele><time>2026-04-18T10:19:23.416Z</time></trkpt><trkpt lat="43.3834227" lon="10.6434967"><ele>225.0</ele><time>2026-04-18T10:19:24.405Z</time></trkpt><trkpt lat="43.3834987" lon="10.6434123"><ele>226.33333333333331</ele><time>2026-04-18T10:19:25.38Z</time></trkpt><trkpt lat="43.3835705" lon="10.6433351"><ele>227.66666666666666</ele><time>2026-04-18T10:19:26.384Z</time></trkpt><trkpt lat="43.3836244" lon="10.6432428"><ele>229.0</ele><time>2026-04-18T10:19:27.411Z</time></trkpt><trkpt lat="43.3836694" lon="10.6431354"><ele>228.99999999999997</ele><time>2026-04-18T10:19:28.413Z</time></trkpt><trkpt lat="43.3837114" lon="10.6430122"><ele>229.0</ele><time>2026-04-18T10:19:29.391Z</time></trkpt><trkpt lat="43.3837532" lon="10.6428859"><ele>229.0</ele><time>2026-04-18T10:19:30.39Z</time></trkpt><trkpt lat="43.3837948" lon="10.6427914"><ele>229.0</ele><time>2026-04-18T10:19:31.313Z</time></trkpt><trkpt lat="43.3838519" lon="10.6427238"><ele>228.99999999999997</ele><time>2026-04-18T10:19:32.385Z</time></trkpt><trkpt lat="43.383926" lon="10.6426752"><ele>229.0</ele><time>2026-04-18T10:19:33.415Z</time></trkpt><trkpt lat="43.3840025" lon="10.6426283"><ele>230.33333333333331</ele><time>2026-04-18T10:19:34.389Z</time></trkpt><trkpt lat="43.3840747" lon="10.6425924"><ele>231.66666666666666</ele><time>2026-04-18T10:19:35.291Z</time></trkpt><trkpt lat="43.3841413" lon="10.6425596"><ele>233.0</ele><time>2026-04-18T10:19:36.292Z</time></trkpt><trkpt lat="43.3841725" lon="10.6424831"><ele>234.33333333333331</ele><time>2026-04-18T10:19:37.39Z</time></trkpt><trkpt lat="43.3842115" lon="10.6424088"><ele>235.66666666666666</ele><time>2026-04-18T10:19:38.383Z</time></trkpt><trkpt lat="43.3842649" lon="10.6423017"><ele>237.0</ele><time>2026-04-18T10:19:39.386Z</time></trkpt><trkpt lat="43.3843374" lon="10.642228"><ele>237.0</ele><time>2026-04-18T10:19:40.416Z</time></trkpt><trkpt lat="43.3844001" lon="10.6421504"><ele>237.0</ele><time>2026-04-18T10:19:41.398Z</time></trkpt><trkpt lat="43.3844674" lon="10.6421507"><ele>237.0</ele><time>2026-04-18T10:19:42.39Z</time></trkpt><trkpt lat="43.3845456" lon="10.6421106"><ele>237.0</ele><time>2026-04-18T10:19:43.294Z</time></trkpt><trkpt lat="43.3846182" lon="10.6420492"><ele>237.0</ele><time>2026-04-18T10:19:44.292Z</time></trkpt><trkpt lat="43.3847058" lon="10.6419777"><ele>237.0</ele><time>2026-04-18T10:19:45.292Z</time></trkpt><trkpt lat="43.3848022" lon="10.6418801"><ele>239.0</ele><time>2026-04-18T10:19:46.287Z</time></trkpt><trkpt lat="43.3849109" lon="10.6417715"><ele>241.0</ele><time>2026-04-18T10:19:47.289Z</time></trkpt><trkpt lat="43.3850249" lon="10.6416611"><ele>243.0</ele><time>2026-04-18T10:19:48.287Z</time></trkpt><trkpt lat="43.3851445" lon="10.6415504"><ele>245.0</ele><time>2026-04-18T10:19:49.287Z</time></trkpt><trkpt lat="43.3852455" lon="10.6414648"><ele>245.0</ele><time>2026-04-18T10:19:50.29Z</time></trkpt><trkpt lat="43.3853396" lon="10.6413874"><ele>245.0</ele><time>2026-04-18T10:19:51.293Z</time></trkpt><trkpt lat="43.3854433" lon="10.6413276"><ele>245.0</ele><time>2026-04-18T10:19:53.294Z</time></trkpt><trkpt lat="43.3855313" lon="10.6413557"><ele>245.0</ele><time>2026-04-18T10:19:55.386Z</time></trkpt><trkpt lat="43.3855874" lon="10.6413957"><ele>245.0</ele><time>2026-04-18T10:19:56.387Z</time></trkpt><trkpt lat="43.3857155" lon="10.6416248"><ele>246.4</ele><time>2026-04-18T10:19:59.387Z</time></trkpt><trkpt lat="43.3857536" lon="10.6417276"><ele>247.8</ele><time>2026-04-18T10:20:00.405Z</time></trkpt><trkpt lat="43.3857905" lon="10.6418305"><ele>249.2</ele><time>2026-04-18T10:20:01.382Z</time></trkpt><trkpt lat="43.3858038" lon="10.6419527"><ele>250.6</ele><time>2026-04-18T10:20:02.389Z</time></trkpt><trkpt lat="43.3857856" lon="10.6420889"><ele>252.0</ele><time>2026-04-18T10:20:03.409Z</time></trkpt><trkpt lat="43.3857787" lon="10.6422273"><ele>252.0</ele><time>2026-04-18T10:20:04.406Z</time></trkpt><trkpt lat="43.385757" lon="10.6423788"><ele>252.0</ele><time>2026-04-18T10:20:05.38Z</time></trkpt><trkpt lat="43.3857435" lon="10.6425101"><ele>252.0</ele><time>2026-04-18T10:20:06.397Z</time></trkpt><trkpt lat="43.3857297" lon="10.6426218"><ele>252.0</ele><time>2026-04-18T10:20:07.382Z</time></trkpt><trkpt lat="43.3857267" lon="10.6427225"><ele>252.0</ele><time>2026-04-18T10:20:08.414Z</time></trkpt><trkpt lat="43.3857319" lon="10.6428146"><ele>252.0</ele><time>2026-04-18T10:20:09.386Z</time></trkpt><trkpt lat="43.38577" lon="10.6429848"><ele>252.0</ele><time>2026-04-18T10:20:11.383Z</time></trkpt><trkpt lat="43.3858021" lon="10.6430903"><ele>252.0</ele><time>2026-04-18T10:20:12.355Z</time></trkpt><trkpt lat="43.3858378" lon="10.6431759"><ele>252.0</ele><time>2026-04-18T10:20:13.344Z</time></trkpt><trkpt lat="43.3859204" lon="10.6432926"><ele>252.0</ele><time>2026-04-18T10:20:15.394Z</time></trkpt><trkpt lat="43.385981" lon="10.6433312"><ele>252.0</ele><time>2026-04-18T10:20:16.384Z</time></trkpt><trkpt lat="43.3860558" lon="10.6433598"><ele>252.0</ele><time>2026-04-18T10:20:17.382Z</time></trkpt><trkpt lat="43.3861423" lon="10.6433798"><ele>252.0</ele><time>2026-04-18T10:20:18.397Z</time></trkpt><trkpt lat="43.3862449" lon="10.6433969"><ele>252.0</ele><time>2026-04-18T10:20:19.412Z</time></trkpt><trkpt lat="43.3864967" lon="10.6434297"><ele>252.0</ele><time>2026-04-18T10:20:21.291Z</time></trkpt><trkpt lat="43.3866456" lon="10.6434502"><ele>254.66666666666669</ele><time>2026-04-18T10:20:22.4Z</time></trkpt><trkpt lat="43.3868011" lon="10.6434777"><ele>257.33333333333337</ele><time>2026-04-18T10:20:23.345Z</time></trkpt><trkpt lat="43.3869606" lon="10.6435067"><ele>260.0</ele><time>2026-04-18T10:20:24.413Z</time></trkpt><trkpt lat="43.387221" lon="10.6435518"><ele>260.1666666666667</ele><time>2026-04-18T10:20:26.288Z</time></trkpt><trkpt lat="43.3873268" lon="10.6435724"><ele>260.33333333333337</ele><time>2026-04-18T10:20:27.295Z</time></trkpt><trkpt lat="43.3874169" lon="10.6435989"><ele>260.5</ele><time>2026-04-18T10:20:28.295Z</time></trkpt><trkpt lat="43.3874878" lon="10.6436347"><ele>260.6666666666667</ele><time>2026-04-18T10:20:29.408Z</time></trkpt><trkpt lat="43.3875492" lon="10.6436628"><ele>260.8333333333333</ele><time>2026-04-18T10:20:30.384Z</time></trkpt><trkpt lat="43.387635" lon="10.6436485"><ele>261.0</ele><time>2026-04-18T10:20:32.391Z</time></trkpt><trkpt lat="43.3876797" lon="10.6435448"><ele>263.0</ele><time>2026-04-18T10:20:34.41Z</time></trkpt><trkpt lat="43.3876936" lon="10.6432523"><ele>265.0</ele><time>2026-04-18T10:20:37.381Z</time></trkpt><trkpt lat="43.3877006" lon="10.6431266"><ele>267.0</ele><time>2026-04-18T10:20:38.403Z</time></trkpt><trkpt lat="43.3877093" lon="10.6430026"><ele>269.0</ele><time>2026-04-18T10:20:39.408Z</time></trkpt><trkpt lat="43.3877157" lon="10.6428784"><ele>270.2</ele><time>2026-04-18T10:20:40.409Z</time></trkpt><trkpt lat="43.3877216" lon="10.6427587"><ele>271.4</ele><time>2026-04-18T10:20:41.385Z</time></trkpt><trkpt lat="43.3877295" lon="10.6426309"><ele>272.6</ele><time>2026-04-18T10:20:42.392Z</time></trkpt><trkpt lat="43.3877397" lon="10.6424989"><ele>273.8</ele><time>2026-04-18T10:20:43.293Z</time></trkpt><trkpt lat="43.3877482" lon="10.6423642"><ele>275.0</ele><time>2026-04-18T10:20:44.294Z</time></trkpt><trkpt lat="43.3877531" lon="10.642251"><ele>275.0</ele><time>2026-04-18T10:20:45.4Z</time></trkpt><trkpt lat="43.3877633" lon="10.6421425"><ele>275.0</ele><time>2026-04-18T10:20:46.403Z</time></trkpt><trkpt lat="43.3877845" lon="10.6420462"><ele>275.0</ele><time>2026-04-18T10:20:47.386Z</time></trkpt><trkpt lat="43.3878183" lon="10.6419651"><ele>275.0</ele><time>2026-04-18T10:20:48.405Z</time></trkpt><trkpt lat="43.3878955" lon="10.6418717"><ele>275.0</ele><time>2026-04-18T10:20:50.389Z</time></trkpt><trkpt lat="43.3880144" lon="10.6418794"><ele>275.0</ele><time>2026-04-18T10:20:52.414Z</time></trkpt><trkpt lat="43.3880782" lon="10.6418963"><ele>277.4</ele><time>2026-04-18T10:20:53.394Z</time></trkpt><trkpt lat="43.3881501" lon="10.6419185"><ele>279.8</ele><time>2026-04-18T10:20:54.386Z</time></trkpt><trkpt lat="43.3882292" lon="10.6419467"><ele>282.2</ele><time>2026-04-18T10:20:55.405Z</time></trkpt><trkpt lat="43.3883332" lon="10.6419693"><ele>284.6</ele><time>2026-04-18T10:20:56.384Z</time></trkpt><trkpt lat="43.3884473" lon="10.6419968"><ele>287.0</ele><time>2026-04-18T10:20:57.412Z</time></trkpt><trkpt lat="43.3885623" lon="10.6420237"><ele>287.0</ele><time>2026-04-18T10:20:58.385Z</time></trkpt><trkpt lat="43.38867" lon="10.642051"><ele>287.0</ele><time>2026-04-18T10:20:59.399Z</time></trkpt><trkpt lat="43.3887562" lon="10.6420577"><ele>287.0</ele><time>2026-04-18T10:21:00.381Z</time></trkpt><trkpt lat="43.3888398" lon="10.6420513"><ele>287.0</ele><time>2026-04-18T10:21:01.294Z</time></trkpt><trkpt lat="43.3889307" lon="10.6420322"><ele>287.0</ele><time>2026-04-18T10:21:02.291Z</time></trkpt><trkpt lat="43.3890179" lon="10.6420081"><ele>288.4</ele><time>2026-04-18T10:21:03.355Z</time></trkpt><trkpt lat="43.3891115" lon="10.6419797"><ele>289.79999999999995</ele><time>2026-04-18T10:21:04.4Z</time></trkpt><trkpt lat="43.3892105" lon="10.6419346"><ele>291.2</ele><time>2026-04-18T10:21:05.412Z</time></trkpt><trkpt lat="43.3893075" lon="10.6419147"><ele>292.59999999999997</ele><time>2026-04-18T10:21:06.396Z</time></trkpt><trkpt lat="43.3894107" lon="10.6418807"><ele>294.0</ele><time>2026-04-18T10:21:07.401Z</time></trkpt><trkpt lat="43.3896337" lon="10.6418837"><ele>299.0</ele><time>2026-04-18T10:21:09.394Z</time></trkpt><trkpt lat="43.3897746" lon="10.6418592"><ele>304.0</ele><time>2026-04-18T10:21:10.408Z</time></trkpt><trkpt lat="43.3898938" lon="10.6418594"><ele>309.0</ele><time>2026-04-18T10:21:11.39Z</time></trkpt><trkpt lat="43.3900062" lon="10.6418929"><ele>314.0</ele><time>2026-04-18T10:21:12.381Z</time></trkpt><trkpt lat="43.3901289" lon="10.6419315"><ele>312.59999999999997</ele><time>2026-04-18T10:21:13.29Z</time></trkpt><trkpt lat="43.3902318" lon="10.6419717"><ele>311.2</ele><time>2026-04-18T10:21:14.29Z</time></trkpt><trkpt lat="43.3903433" lon="10.6419927"><ele>309.79999999999995</ele><time>2026-04-18T10:21:15.392Z</time></trkpt><trkpt lat="43.3904461" lon="10.6420143"><ele>308.4</ele><time>2026-04-18T10:21:16.401Z</time></trkpt><trkpt lat="43.3905582" lon="10.6420372"><ele>307.0</ele><time>2026-04-18T10:21:17.405Z</time></trkpt><trkpt lat="43.3907498" lon="10.6420608"><ele>307.0</ele><time>2026-04-18T10:21:19.291Z</time></trkpt><trkpt lat="43.3908529" lon="10.6420187"><ele>307.0</ele><time>2026-04-18T10:21:20.283Z</time></trkpt><trkpt lat="43.3909224" lon="10.6419778"><ele>307.0</ele><time>2026-04-18T10:21:21.29Z</time></trkpt><trkpt lat="43.3909893" lon="10.6419008"><ele>307.0</ele><time>2026-04-18T10:21:22.288Z</time></trkpt><trkpt lat="43.3910614" lon="10.6418399"><ele>307.0</ele><time>2026-04-18T10:21:23.29Z</time></trkpt><trkpt lat="43.3911348" lon="10.6417917"><ele>307.0</ele><time>2026-04-18T10:21:24.291Z</time></trkpt><trkpt lat="43.3912123" lon="10.6417943"><ele>307.4</ele><time>2026-04-18T10:21:25.289Z</time></trkpt><trkpt lat="43.3912857" lon="10.6418277"><ele>307.79999999999995</ele><time>2026-04-18T10:21:26.288Z</time></trkpt><trkpt lat="43.3913594" lon="10.6418829"><ele>308.2</ele><time>2026-04-18T10:21:27.416Z</time></trkpt><trkpt lat="43.3914336" lon="10.6419221"><ele>308.59999999999997</ele><time>2026-04-18T10:21:28.428Z</time></trkpt><trkpt lat="43.3915087" lon="10.641942"><ele>309.0</ele><time>2026-04-18T10:21:29.42Z</time></trkpt><trkpt lat="43.3916676" lon="10.6419677"><ele>311.75</ele><time>2026-04-18T10:21:31.294Z</time></trkpt><trkpt lat="43.391779" lon="10.6419575"><ele>314.5</ele><time>2026-04-18T10:21:32.287Z</time></trkpt><trkpt lat="43.3918943" lon="10.6419586"><ele>317.25</ele><time>2026-04-18T10:21:33.293Z</time></trkpt><trkpt lat="43.3920016" lon="10.6419528"><ele>320.0</ele><time>2026-04-18T10:21:34.29Z</time></trkpt><trkpt lat="43.3921216" lon="10.6419453"><ele>321.6666666666667</ele><time>2026-04-18T10:21:35.284Z</time></trkpt><trkpt lat="43.3922267" lon="10.6419397"><ele>323.33333333333337</ele><time>2026-04-18T10:21:36.294Z</time></trkpt><trkpt lat="43.392318" lon="10.6419272"><ele>325.0</ele><time>2026-04-18T10:21:37.281Z</time></trkpt><trkpt lat="43.3924059" lon="10.6419023"><ele>326.6666666666667</ele><time>2026-04-18T10:21:38.291Z</time></trkpt><trkpt lat="43.3924876" lon="10.6418599"><ele>328.3333333333333</ele><time>2026-04-18T10:21:39.289Z</time></trkpt><trkpt lat="43.3925488" lon="10.6418105"><ele>330.0</ele><time>2026-04-18T10:21:40.287Z</time></trkpt><trkpt lat="43.3925951" lon="10.6417508"><ele>330.0</ele><time>2026-04-18T10:21:41.291Z</time></trkpt><trkpt lat="43.3926351" lon="10.6416694"><ele>330.0</ele><time>2026-04-18T10:21:42.295Z</time></trkpt><trkpt lat="43.392673" lon="10.6415723"><ele>330.0</ele><time>2026-04-18T10:21:43.292Z</time></trkpt><trkpt lat="43.3927075" lon="10.6414671"><ele>330.0</ele><time>2026-04-18T10:21:44.293Z</time></trkpt><trkpt lat="43.3927317" lon="10.6413719"><ele>330.0</ele><time>2026-04-18T10:21:45.281Z</time></trkpt><trkpt lat="43.3927563" lon="10.6412764"><ele>330.0</ele><time>2026-04-18T10:21:46.291Z</time></trkpt><trkpt lat="43.3927859" lon="10.6411414"><ele>331.8</ele><time>2026-04-18T10:21:47.289Z</time></trkpt><trkpt lat="43.3928179" lon="10.6410165"><ele>333.6</ele><time>2026-04-18T10:21:48.29Z</time></trkpt><trkpt lat="43.3928513" lon="10.6408826"><ele>335.4</ele><time>2026-04-18T10:21:49.292Z</time></trkpt><trkpt lat="43.3928856" lon="10.6407485"><ele>337.2</ele><time>2026-04-18T10:21:50.291Z</time></trkpt><trkpt lat="43.392918" lon="10.6406299"><ele>339.0</ele><time>2026-04-18T10:21:51.286Z</time></trkpt><trkpt lat="43.3929535" lon="10.6405324"><ele>339.0</ele><time>2026-04-18T10:21:52.29Z</time></trkpt><trkpt lat="43.393002" lon="10.6404363"><ele>339.0</ele><time>2026-04-18T10:21:53.397Z</time></trkpt><trkpt lat="43.3930629" lon="10.6403708"><ele>339.0</ele><time>2026-04-18T10:21:54.384Z</time></trkpt><trkpt lat="43.3931385" lon="10.6403395"><ele>339.0</ele><time>2026-04-18T10:21:55.291Z</time></trkpt><trkpt lat="43.3932068" lon="10.640335"><ele>339.0</ele><time>2026-04-18T10:21:56.29Z</time></trkpt><trkpt lat="43.3932951" lon="10.6403683"><ele>339.0</ele><time>2026-04-18T10:21:57.29Z</time></trkpt><trkpt lat="43.3933589" lon="10.6403862"><ele>341.2</ele><time>2026-04-18T10:21:58.295Z</time></trkpt><trkpt lat="43.3934465" lon="10.6404307"><ele>343.4</ele><time>2026-04-18T10:21:59.387Z</time></trkpt><trkpt lat="43.3935038" lon="10.6405199"><ele>345.6</ele><time>2026-04-18T10:22:00.289Z</time></trkpt><trkpt lat="43.3935842" lon="10.6406038"><ele>347.8</ele><time>2026-04-18T10:22:01.408Z</time></trkpt><trkpt lat="43.3936406" lon="10.6407641"><ele>350.0</ele><time>2026-04-18T10:22:02.402Z</time></trkpt><trkpt lat="43.3936774" lon="10.640917"><ele>350.0</ele><time>2026-04-18T10:22:03.39Z</time></trkpt><trkpt lat="43.3937195" lon="10.641071"><ele>350.0</ele><time>2026-04-18T10:22:04.293Z</time></trkpt><trkpt lat="43.3937737" lon="10.6411788"><ele>350.0</ele><time>2026-04-18T10:22:05.382Z</time></trkpt><trkpt lat="43.3938832" lon="10.6412397"><ele>350.0</ele><time>2026-04-18T10:22:07.293Z</time></trkpt><trkpt lat="43.3939485" lon="10.6412652"><ele>350.0</ele><time>2026-04-18T10:22:08.409Z</time></trkpt><trkpt lat="43.3940694" lon="10.6412426"><ele>350.8</ele><time>2026-04-18T10:22:09.384Z</time></trkpt><trkpt lat="43.3941711" lon="10.6412361"><ele>351.6</ele><time>2026-04-18T10:22:10.384Z</time></trkpt><trkpt lat="43.3942845" lon="10.6412088"><ele>352.4</ele><time>2026-04-18T10:22:11.403Z</time></trkpt><trkpt lat="43.3943845" lon="10.641194"><ele>353.2</ele><time>2026-04-18T10:22:12.4Z</time></trkpt><trkpt lat="43.3945119" lon="10.6411761"><ele>354.0</ele><time>2026-04-18T10:22:13.411Z</time></trkpt><trkpt lat="43.3947721" lon="10.641117"><ele>359.75</ele><time>2026-04-18T10:22:15.293Z</time></trkpt><trkpt lat="43.3949216" lon="10.64107"><ele>365.5</ele><time>2026-04-18T10:22:16.407Z</time></trkpt><trkpt lat="43.3950646" lon="10.641017"><ele>371.25</ele><time>2026-04-18T10:22:17.289Z</time></trkpt><trkpt lat="43.3951965" lon="10.6409952"><ele>377.0</ele><time>2026-04-18T10:22:18.28Z</time></trkpt><trkpt lat="43.3953477" lon="10.6409685"><ele>377.0</ele><time>2026-04-18T10:22:19.289Z</time></trkpt><trkpt lat="43.3954952" lon="10.6409601"><ele>377.0</ele><time>2026-04-18T10:22:20.288Z</time></trkpt><trkpt lat="43.3956481" lon="10.6409504"><ele>377.0</ele><time>2026-04-18T10:22:21.287Z</time></trkpt><trkpt lat="43.3958029" lon="10.6409319"><ele>377.33333333333337</ele><time>2026-04-18T10:22:22.288Z</time></trkpt><trkpt lat="43.3959543" lon="10.6409013"><ele>377.6666666666667</ele><time>2026-04-18T10:22:23.291Z</time></trkpt><trkpt lat="43.3961038" lon="10.6408539"><ele>378.0</ele><time>2026-04-18T10:22:24.288Z</time></trkpt><trkpt lat="43.3962503" lon="10.6408111"><ele>377.25</ele><time>2026-04-18T10:22:25.294Z</time></trkpt><trkpt lat="43.396379" lon="10.6407678"><ele>376.5</ele><time>2026-04-18T10:22:26.292Z</time></trkpt><trkpt lat="43.3965028" lon="10.6407256"><ele>375.75</ele><time>2026-04-18T10:22:27.289Z</time></trkpt><trkpt lat="43.3966344" lon="10.6406708"><ele>375.0</ele><time>2026-04-18T10:22:28.282Z</time></trkpt><trkpt lat="43.3967475" lon="10.640653"><ele>375.0</ele><time>2026-04-18T10:22:29.289Z</time></trkpt><trkpt lat="43.3968434" lon="10.6406702"><ele>375.0</ele><time>2026-04-18T10:22:30.285Z</time></trkpt><trkpt lat="43.3969517" lon="10.6406959"><ele>375.0</ele><time>2026-04-18T10:22:31.292Z</time></trkpt><trkpt lat="43.3970742" lon="10.640755"><ele>375.0</ele><time>2026-04-18T10:22:32.376Z</time></trkpt><trkpt lat="43.3971884" lon="10.6408123"><ele>375.25</ele><time>2026-04-18T10:22:33.292Z</time></trkpt><trkpt lat="43.3972994" lon="10.6408598"><ele>375.5</ele><time>2026-04-18T10:22:34.291Z</time></trkpt><trkpt lat="43.3974171" lon="10.6408858"><ele>375.75</ele><time>2026-04-18T10:22:35.292Z</time></trkpt><trkpt lat="43.3975215" lon="10.6408862"><ele>376.0</ele><time>2026-04-18T10:22:36.288Z</time></trkpt><trkpt lat="43.3976381" lon="10.6408824"><ele>376.0</ele><time>2026-04-18T10:22:37.286Z</time></trkpt><trkpt lat="43.3977562" lon="10.640884"><ele>376.0</ele><time>2026-04-18T10:22:38.402Z</time></trkpt><trkpt lat="43.3978675" lon="10.64083"><ele>376.0</ele><time>2026-04-18T10:22:39.409Z</time></trkpt><trkpt lat="43.3979714" lon="10.6407576"><ele>376.0</ele><time>2026-04-18T10:22:40.415Z</time></trkpt><trkpt lat="43.3980684" lon="10.6406924"><ele>376.66666666666663</ele><time>2026-04-18T10:22:41.406Z</time></trkpt><trkpt lat="43.3981796" lon="10.6406444"><ele>377.3333333333333</ele><time>2026-04-18T10:22:42.417Z</time></trkpt><trkpt lat="43.3982902" lon="10.6405889"><ele>378.0</ele><time>2026-04-18T10:22:43.413Z</time></trkpt><trkpt lat="43.3985488" lon="10.6405402"><ele>378.0</ele><time>2026-04-18T10:22:45.398Z</time></trkpt><trkpt lat="43.3986682" lon="10.6405358"><ele>378.0</ele><time>2026-04-18T10:22:46.39Z</time></trkpt><trkpt lat="43.3989283" lon="10.6405571"><ele>378.0</ele><time>2026-04-18T10:22:48.412Z</time></trkpt><trkpt lat="43.3990546" lon="10.6405914"><ele>380.66666666666663</ele><time>2026-04-18T10:22:49.412Z</time></trkpt><trkpt lat="43.3993094" lon="10.6407042"><ele>383.3333333333333</ele><time>2026-04-18T10:22:51.292Z</time></trkpt><trkpt lat="43.3994185" lon="10.6407905"><ele>386.0</ele><time>2026-04-18T10:22:52.294Z</time></trkpt><trkpt lat="43.3995177" lon="10.6408744"><ele>385.99999999999994</ele><time>2026-04-18T10:22:53.288Z</time></trkpt><trkpt lat="43.3995987" lon="10.6409507"><ele>386.0</ele><time>2026-04-18T10:22:54.288Z</time></trkpt><trkpt lat="43.3996717" lon="10.6410125"><ele>386.0</ele><time>2026-04-18T10:22:55.29Z</time></trkpt><trkpt lat="43.3997627" lon="10.6410747"><ele>386.0</ele><time>2026-04-18T10:22:57.404Z</time></trkpt><trkpt lat="43.3998461" lon="10.6410699"><ele>385.99999999999994</ele><time>2026-04-18T10:22:59.404Z</time></trkpt><trkpt lat="43.3999132" lon="10.6410126"><ele>386.0</ele><time>2026-04-18T10:23:02.402Z</time></trkpt><trkpt lat="43.3998567" lon="10.6409273"><ele>385.99999999999994</ele><time>2026-04-18T10:23:05.376Z</time></trkpt><trkpt lat="43.3997829" lon="10.6408781"><ele>386.0</ele><time>2026-04-18T10:23:06.383Z</time></trkpt><trkpt lat="43.3997089" lon="10.640794"><ele>386.0</ele><time>2026-04-18T10:23:07.292Z</time></trkpt><trkpt lat="43.3996466" lon="10.6407141"><ele>386.0</ele><time>2026-04-18T10:23:08.292Z</time></trkpt><trkpt lat="43.3996129" lon="10.6406294"><ele>385.99999999999994</ele><time>2026-04-18T10:23:09.292Z</time></trkpt><trkpt lat="43.3995857" lon="10.6405454"><ele>386.0</ele><time>2026-04-18T10:23:10.296Z</time></trkpt><trkpt lat="43.3995668" lon="10.6403732"><ele>387.8333333333333</ele><time>2026-04-18T10:23:12.291Z</time></trkpt><trkpt lat="43.3995745" lon="10.6402858"><ele>389.66666666666663</ele><time>2026-04-18T10:23:13.294Z</time></trkpt><trkpt lat="43.3995755" lon="10.6401655"><ele>391.5</ele><time>2026-04-18T10:23:14.287Z</time></trkpt><trkpt lat="43.3995704" lon="10.640052"><ele>393.33333333333337</ele><time>2026-04-18T10:23:15.292Z</time></trkpt><trkpt lat="43.3995506" lon="10.639927"><ele>395.1666666666667</ele><time>2026-04-18T10:23:16.295Z</time></trkpt><trkpt lat="43.3995223" lon="10.63979"><ele>397.0</ele><time>2026-04-18T10:23:17.3Z</time></trkpt><trkpt lat="43.3994874" lon="10.6396451"><ele>397.0</ele><time>2026-04-18T10:23:18.292Z</time></trkpt><trkpt lat="43.3994459" lon="10.6394678"><ele>397.0</ele><time>2026-04-18T10:23:19.287Z</time></trkpt><trkpt lat="43.3993987" lon="10.6393139"><ele>397.0</ele><time>2026-04-18T10:23:20.29Z</time></trkpt><trkpt lat="43.3993321" lon="10.6391513"><ele>397.0</ele><time>2026-04-18T10:23:21.291Z</time></trkpt><trkpt lat="43.3992505" lon="10.6389889"><ele>400.75</ele><time>2026-04-18T10:23:22.291Z</time></trkpt><trkpt lat="43.3991752" lon="10.6388357"><ele>404.5</ele><time>2026-04-18T10:23:23.289Z</time></trkpt><trkpt lat="43.3990587" lon="10.6387331"><ele>408.25</ele><time>2026-04-18T10:23:24.289Z</time></trkpt><trkpt lat="43.3989733" lon="10.6386273"><ele>412.0</ele><time>2026-04-18T10:23:25.288Z</time></trkpt><trkpt lat="43.3989022" lon="10.6385024"><ele>414.40000000000003</ele><time>2026-04-18T10:23:26.286Z</time></trkpt><trkpt lat="43.3988849" lon="10.6383814"><ele>416.8</ele><time>2026-04-18T10:23:27.292Z</time></trkpt><trkpt lat="43.3988581" lon="10.6382704"><ele>419.2</ele><time>2026-04-18T10:23:28.288Z</time></trkpt><trkpt lat="43.3988487" lon="10.6381447"><ele>421.6</ele><time>2026-04-18T10:23:29.293Z</time></trkpt><trkpt lat="43.3988893" lon="10.6379962"><ele>424.0</ele><time>2026-04-18T10:23:30.289Z</time></trkpt><trkpt lat="43.398882" lon="10.6378709"><ele>424.75</ele><time>2026-04-18T10:23:31.291Z</time></trkpt><trkpt lat="43.3988611" lon="10.6376061"><ele>425.5</ele><time>2026-04-18T10:23:33.419Z</time></trkpt><trkpt lat="43.3988346" lon="10.6374812"><ele>426.25</ele><time>2026-04-18T10:23:34.411Z</time></trkpt><trkpt lat="43.3987947" lon="10.6373943"><ele>427.0</ele><time>2026-04-18T10:23:35.396Z</time></trkpt><trkpt lat="43.398757" lon="10.6372552"><ele>428.0</ele><time>2026-04-18T10:23:36.386Z</time></trkpt><trkpt lat="43.3987228" lon="10.6371304"><ele>429.00000000000006</ele><time>2026-04-18T10:23:37.408Z</time></trkpt><trkpt lat="43.3986738" lon="10.6370259"><ele>430.00000000000006</ele><time>2026-04-18T10:23:38.351Z</time></trkpt><trkpt lat="43.39861" lon="10.6369373"><ele>431.0</ele><time>2026-04-18T10:23:39.293Z</time></trkpt><trkpt lat="43.3985326" lon="10.6368334"><ele>432.0</ele><time>2026-04-18T10:23:40.291Z</time></trkpt><trkpt lat="43.3984452" lon="10.6367617"><ele>434.75</ele><time>2026-04-18T10:23:41.294Z</time></trkpt><trkpt lat="43.3983321" lon="10.6366349"><ele>437.5</ele><time>2026-04-18T10:23:42.29Z</time></trkpt><trkpt lat="43.3982248" lon="10.6365371"><ele>440.25</ele><time>2026-04-18T10:23:43.288Z</time></trkpt><trkpt lat="43.3980988" lon="10.6364398"><ele>443.0</ele><time>2026-04-18T10:23:44.291Z</time></trkpt><trkpt lat="43.3979893" lon="10.6363446"><ele>444.0</ele><time>2026-04-18T10:23:45.396Z</time></trkpt><trkpt lat="43.3979" lon="10.6362679"><ele>444.99999999999994</ele><time>2026-04-18T10:23:46.374Z</time></trkpt><trkpt lat="43.3978059" lon="10.6362024"><ele>445.99999999999994</ele><time>2026-04-18T10:23:47.385Z</time></trkpt><trkpt lat="43.3977263" lon="10.6361283"><ele>447.0</ele><time>2026-04-18T10:23:48.297Z</time></trkpt><trkpt lat="43.3976599" lon="10.6360151"><ele>448.0</ele><time>2026-04-18T10:23:49.293Z</time></trkpt><trkpt lat="43.3975929" lon="10.6358048"><ele>450.0</ele><time>2026-04-18T10:23:50.29Z</time></trkpt><trkpt lat="43.3975207" lon="10.6356619"><ele>451.99999999999994</ele><time>2026-04-18T10:23:51.291Z</time></trkpt><trkpt lat="43.3974585" lon="10.6355329"><ele>453.99999999999994</ele><time>2026-04-18T10:23:52.364Z</time></trkpt><trkpt lat="43.3974084" lon="10.63542"><ele>456.0</ele><time>2026-04-18T10:23:53.291Z</time></trkpt><trkpt lat="43.3973744" lon="10.6352896"><ele>458.0</ele><time>2026-04-18T10:23:54.292Z</time></trkpt><trkpt lat="43.3973692" lon="10.6351559"><ele>460.5</ele><time>2026-04-18T10:23:55.291Z</time></trkpt><trkpt lat="43.3973601" lon="10.6350015"><ele>463.0</ele><time>2026-04-18T10:23:56.294Z</time></trkpt><trkpt lat="43.3973586" lon="10.63482"><ele>465.5</ele><time>2026-04-18T10:23:57.293Z</time></trkpt><trkpt lat="43.3973571" lon="10.6346463"><ele>468.0</ele><time>2026-04-18T10:23:58.292Z</time></trkpt><trkpt lat="43.397365" lon="10.6344955"><ele>468.25</ele><time>2026-04-18T10:23:59.292Z</time></trkpt><trkpt lat="43.3973654" lon="10.6343229"><ele>468.5</ele><time>2026-04-18T10:24:00.293Z</time></trkpt><trkpt lat="43.3973875" lon="10.6341407"><ele>468.75</ele><time>2026-04-18T10:24:01.291Z</time></trkpt><trkpt lat="43.3974258" lon="10.633967"><ele>469.0</ele><time>2026-04-18T10:24:02.399Z</time></trkpt><trkpt lat="43.3974662" lon="10.6337901"><ele>468.0</ele><time>2026-04-18T10:24:03.36Z</time></trkpt><trkpt lat="43.3975059" lon="10.6336079"><ele>467.0</ele><time>2026-04-18T10:24:04.415Z</time></trkpt><trkpt lat="43.3975431" lon="10.6334007"><ele>466.0</ele><time>2026-04-18T10:24:05.385Z</time></trkpt><trkpt lat="43.3975851" lon="10.633187"><ele>466.0</ele><time>2026-04-18T10:24:06.38Z</time></trkpt><trkpt lat="43.397631" lon="10.6329603"><ele>466.0</ele><time>2026-04-18T10:24:07.402Z</time></trkpt><trkpt lat="43.3977174" lon="10.6325016"><ele>466.5</ele><time>2026-04-18T10:24:09.289Z</time></trkpt><trkpt lat="43.3977513" lon="10.6323042"><ele>467.0</ele><time>2026-04-18T10:24:10.383Z</time></trkpt><trkpt lat="43.3977846" lon="10.632113"><ele>467.5</ele><time>2026-04-18T10:24:11.401Z</time></trkpt><trkpt lat="43.3978212" lon="10.6319417"><ele>468.0</ele><time>2026-04-18T10:24:12.406Z</time></trkpt><trkpt lat="43.397865" lon="10.6318009"><ele>468.75</ele><time>2026-04-18T10:24:13.307Z</time></trkpt><trkpt lat="43.3979272" lon="10.6316641"><ele>469.5</ele><time>2026-04-18T10:24:14.29Z</time></trkpt><trkpt lat="43.3980017" lon="10.6315291"><ele>470.25</ele><time>2026-04-18T10:24:15.289Z</time></trkpt><trkpt lat="43.3980763" lon="10.6313764"><ele>471.0</ele><time>2026-04-18T10:24:16.288Z</time></trkpt><trkpt lat="43.3981357" lon="10.6312393"><ele>472.6</ele><time>2026-04-18T10:24:17.292Z</time></trkpt><trkpt lat="43.3981809" lon="10.6311085"><ele>474.20000000000005</ele><time>2026-04-18T10:24:18.286Z</time></trkpt><trkpt lat="43.398212" lon="10.6309659"><ele>475.79999999999995</ele><time>2026-04-18T10:24:19.289Z</time></trkpt><trkpt lat="43.3982299" lon="10.6308293"><ele>477.4</ele><time>2026-04-18T10:24:20.36Z</time></trkpt><trkpt lat="43.3982287" lon="10.6306876"><ele>479.0</ele><time>2026-04-18T10:24:21.428Z</time></trkpt><trkpt lat="43.3982154" lon="10.6305429"><ele>479.0</ele><time>2026-04-18T10:24:22.424Z</time></trkpt><trkpt lat="43.3981813" lon="10.6303889"><ele>479.0</ele><time>2026-04-18T10:24:23.422Z</time></trkpt><trkpt lat="43.3981546" lon="10.6302458"><ele>479.0</ele><time>2026-04-18T10:24:24.423Z</time></trkpt><trkpt lat="43.3981297" lon="10.6300954"><ele>479.0</ele><time>2026-04-18T10:24:25.386Z</time></trkpt><trkpt lat="43.398109" lon="10.6299431"><ele>479.0</ele><time>2026-04-18T10:24:26.386Z</time></trkpt><trkpt lat="43.3981503" lon="10.6296952"><ele>482.0</ele><time>2026-04-18T10:24:27.437Z</time></trkpt><trkpt lat="43.3981576" lon="10.6295088"><ele>485.0</ele><time>2026-04-18T10:24:28.437Z</time></trkpt><trkpt lat="43.3981607" lon="10.6293119"><ele>488.0</ele><time>2026-04-18T10:24:29.423Z</time></trkpt><trkpt lat="43.3981747" lon="10.6291222"><ele>491.0</ele><time>2026-04-18T10:24:30.425Z</time></trkpt><trkpt lat="43.3981926" lon="10.6288959"><ele>492.0</ele><time>2026-04-18T10:24:31.416Z</time></trkpt><trkpt lat="43.3981963" lon="10.628698"><ele>493.0</ele><time>2026-04-18T10:24:32.42Z</time></trkpt><trkpt lat="43.3982002" lon="10.6285078"><ele>494.0</ele><time>2026-04-18T10:24:33.421Z</time></trkpt><trkpt lat="43.3981864" lon="10.6283132"><ele>495.0</ele><time>2026-04-18T10:24:34.41Z</time></trkpt><trkpt lat="43.3981929" lon="10.6281368"><ele>495.5</ele><time>2026-04-18T10:24:35.414Z</time></trkpt><trkpt lat="43.3981814" lon="10.6279719"><ele>496.0</ele><time>2026-04-18T10:24:36.314Z</time></trkpt><trkpt lat="43.3981669" lon="10.6278358"><ele>496.5</ele><time>2026-04-18T10:24:37.422Z</time></trkpt><trkpt lat="43.3981321" lon="10.6275926"><ele>497.0</ele><time>2026-04-18T10:24:39.292Z</time></trkpt><trkpt lat="43.3980975" lon="10.6274686"><ele>498.0</ele><time>2026-04-18T10:24:40.407Z</time></trkpt><trkpt lat="43.3980526" lon="10.627333"><ele>499.0</ele><time>2026-04-18T10:24:41.445Z</time></trkpt><trkpt lat="43.3979594" lon="10.6270628"><ele>500.0</ele><time>2026-04-18T10:24:43.425Z</time></trkpt><trkpt lat="43.3979584" lon="10.6269704"><ele>501.0</ele><time>2026-04-18T10:24:44.428Z</time></trkpt><trkpt lat="43.3979715" lon="10.6268812"><ele>503.0</ele><time>2026-04-18T10:24:45.42Z</time></trkpt><trkpt lat="43.3980062" lon="10.6268022"><ele>505.0</ele><time>2026-04-18T10:24:46.423Z</time></trkpt><trkpt lat="43.3980561" lon="10.6267254"><ele>507.0</ele><time>2026-04-18T10:24:47.426Z</time></trkpt><trkpt lat="43.3981269" lon="10.6266407"><ele>509.0</ele><time>2026-04-18T10:24:48.43Z</time></trkpt><trkpt lat="43.3982895" lon="10.6264601"><ele>511.0</ele><time>2026-04-18T10:24:50.29Z</time></trkpt><trkpt lat="43.3983793" lon="10.6263648"><ele>511.0</ele><time>2026-04-18T10:24:51.425Z</time></trkpt><trkpt lat="43.3985124" lon="10.6262134"><ele>511.0</ele><time>2026-04-18T10:24:53.292Z</time></trkpt><trkpt lat="43.3985532" lon="10.6261396"><ele>511.0</ele><time>2026-04-18T10:24:54.433Z</time></trkpt><trkpt lat="43.3985899" lon="10.6260202"><ele>511.0</ele><time>2026-04-18T10:24:56.425Z</time></trkpt><trkpt lat="43.3985816" lon="10.6259265"><ele>511.0</ele><time>2026-04-18T10:24:58.399Z</time></trkpt><trkpt lat="43.3985154" lon="10.6258628"><ele>513.2</ele><time>2026-04-18T10:25:00.426Z</time></trkpt><trkpt lat="43.3983085" lon="10.6258804"><ele>515.4000000000001</ele><time>2026-04-18T10:25:03.287Z</time></trkpt><trkpt lat="43.3982412" lon="10.6258653"><ele>517.6</ele><time>2026-04-18T10:25:04.429Z</time></trkpt><trkpt lat="43.3981812" lon="10.6258181"><ele>519.8000000000001</ele><time>2026-04-18T10:25:05.414Z</time></trkpt><trkpt lat="43.3981383" lon="10.6257447"><ele>522.0</ele><time>2026-04-18T10:25:06.389Z</time></trkpt><trkpt lat="43.3981131" lon="10.6256479"><ele>522.0</ele><time>2026-04-18T10:25:07.423Z</time></trkpt><trkpt lat="43.3981011" lon="10.6255324"><ele>522.0</ele><time>2026-04-18T10:25:08.422Z</time></trkpt><trkpt lat="43.3980976" lon="10.6253956"><ele>522.0</ele><time>2026-04-18T10:25:09.4Z</time></trkpt><trkpt lat="43.3980992" lon="10.6252481"><ele>522.0</ele><time>2026-04-18T10:25:10.41Z</time></trkpt><trkpt lat="43.3981021" lon="10.6250992"><ele>522.0</ele><time>2026-04-18T10:25:11.423Z</time></trkpt><trkpt lat="43.398103" lon="10.6249519"><ele>523.0</ele><time>2026-04-18T10:25:12.43Z</time></trkpt><trkpt lat="43.3981081" lon="10.6248107"><ele>524.0</ele><time>2026-04-18T10:25:13.429Z</time></trkpt><trkpt lat="43.3981144" lon="10.6246893"><ele>525.0</ele><time>2026-04-18T10:25:14.416Z</time></trkpt><trkpt lat="43.3981196" lon="10.6245791"><ele>526.0</ele><time>2026-04-18T10:25:15.376Z</time></trkpt><trkpt lat="43.3981188" lon="10.6244668"><ele>527.0</ele><time>2026-04-18T10:25:16.293Z</time></trkpt><trkpt lat="43.3981122" lon="10.6243469"><ele>528.0</ele><time>2026-04-18T10:25:17.294Z</time></trkpt><trkpt lat="43.3981008" lon="10.6242332"><ele>528.6666666666666</ele><time>2026-04-18T10:25:18.288Z</time></trkpt><trkpt lat="43.3980864" lon="10.6241399"><ele>529.3333333333334</ele><time>2026-04-18T10:25:19.404Z</time></trkpt><trkpt lat="43.3980715" lon="10.6240555"><ele>530.0</ele><time>2026-04-18T10:25:20.424Z</time></trkpt><trkpt lat="43.3980467" lon="10.6238899"><ele>530.6666666666667</ele><time>2026-04-18T10:25:22.421Z</time></trkpt><trkpt lat="43.3980495" lon="10.6237999"><ele>531.3333333333334</ele><time>2026-04-18T10:25:23.375Z</time></trkpt><trkpt lat="43.3980685" lon="10.6237106"><ele>532.0</ele><time>2026-04-18T10:25:24.292Z</time></trkpt><trkpt lat="43.3981039" lon="10.6236226"><ele>532.5</ele><time>2026-04-18T10:25:25.293Z</time></trkpt><trkpt lat="43.3981534" lon="10.623533"><ele>533.0</ele><time>2026-04-18T10:25:26.292Z</time></trkpt><trkpt lat="43.3982084" lon="10.6234364"><ele>533.5</ele><time>2026-04-18T10:25:27.413Z</time></trkpt><trkpt lat="43.3982631" lon="10.6233316"><ele>534.0</ele><time>2026-04-18T10:25:28.421Z</time></trkpt><trkpt lat="43.3983694" lon="10.6231119"><ele>534.0</ele><time>2026-04-18T10:25:30.428Z</time></trkpt><trkpt lat="43.3984136" lon="10.6230115"><ele>534.0</ele><time>2026-04-18T10:25:31.437Z</time></trkpt><trkpt lat="43.3984647" lon="10.6228013"><ele>534.0</ele><time>2026-04-18T10:25:33.292Z</time></trkpt><trkpt lat="43.3984745" lon="10.6226992"><ele>534.0</ele><time>2026-04-18T10:25:34.417Z</time></trkpt><trkpt lat="43.3984711" lon="10.6224627"><ele>534.4</ele><time>2026-04-18T10:25:36.286Z</time></trkpt><trkpt lat="43.3984675" lon="10.6223473"><ele>534.8</ele><time>2026-04-18T10:25:37.285Z</time></trkpt><trkpt lat="43.3984813" lon="10.6222334"><ele>535.2</ele><time>2026-04-18T10:25:38.29Z</time></trkpt><trkpt lat="43.3985127" lon="10.6221156"><ele>535.6</ele><time>2026-04-18T10:25:39.288Z</time></trkpt><trkpt lat="43.3985594" lon="10.6219998"><ele>536.0</ele><time>2026-04-18T10:25:40.29Z</time></trkpt><trkpt lat="43.3986159" lon="10.6218926"><ele>536.0</ele><time>2026-04-18T10:25:41.293Z</time></trkpt><trkpt lat="43.3986731" lon="10.621799"><ele>536.0</ele><time>2026-04-18T10:25:42.29Z</time></trkpt><trkpt lat="43.398723" lon="10.6217083"><ele>536.0</ele><time>2026-04-18T10:25:43.348Z</time></trkpt><trkpt lat="43.3987638" lon="10.6216116"><ele>536.0</ele><time>2026-04-18T10:25:44.422Z</time></trkpt><trkpt lat="43.3987845" lon="10.6215086"><ele>536.0</ele><time>2026-04-18T10:25:45.434Z</time></trkpt><trkpt lat="43.3987862" lon="10.6213992"><ele>536.0</ele><time>2026-04-18T10:25:46.404Z</time></trkpt><trkpt lat="43.3987801" lon="10.6212766"><ele>536.0</ele><time>2026-04-18T10:25:47.419Z</time></trkpt><trkpt lat="43.3987752" lon="10.6211606"><ele>536.0</ele><time>2026-04-18T10:25:48.419Z</time></trkpt><trkpt lat="43.3987787" lon="10.6210442"><ele>536.0</ele><time>2026-04-18T10:25:49.429Z</time></trkpt><trkpt lat="43.3988296" lon="10.6208223"><ele>536.0</ele><time>2026-04-18T10:25:51.419Z</time></trkpt><trkpt lat="43.39887" lon="10.6207254"><ele>536.0</ele><time>2026-04-18T10:25:52.418Z</time></trkpt><trkpt lat="43.3989206" lon="10.620618"><ele>536.25</ele><time>2026-04-18T10:25:53.42Z</time></trkpt><trkpt lat="43.3990443" lon="10.6203934"><ele>536.5</ele><time>2026-04-18T10:25:55.423Z</time></trkpt><trkpt lat="43.399112" lon="10.6202696"><ele>536.75</ele><time>2026-04-18T10:25:56.428Z</time></trkpt><trkpt lat="43.3991815" lon="10.6201405"><ele>537.0</ele><time>2026-04-18T10:25:57.353Z</time></trkpt><trkpt lat="43.3992482" lon="10.6200031"><ele>535.6666666666666</ele><time>2026-04-18T10:25:58.419Z</time></trkpt><trkpt lat="43.399309" lon="10.6198669"><ele>534.3333333333333</ele><time>2026-04-18T10:25:59.398Z</time></trkpt><trkpt lat="43.3994213" lon="10.619579"><ele>533.0</ele><time>2026-04-18T10:26:01.412Z</time></trkpt><trkpt lat="43.399457" lon="10.6194237"><ele>532.6666666666666</ele><time>2026-04-18T10:26:02.408Z</time></trkpt><trkpt lat="43.3994835" lon="10.6192627"><ele>532.3333333333334</ele><time>2026-04-18T10:26:03.293Z</time></trkpt><trkpt lat="43.3995008" lon="10.6190953"><ele>532.0</ele><time>2026-04-18T10:26:04.42Z</time></trkpt><trkpt lat="43.3995163" lon="10.6187987"><ele>532.0</ele><time>2026-04-18T10:26:06.292Z</time></trkpt><trkpt lat="43.399519" lon="10.6186073"><ele>532.0</ele><time>2026-04-18T10:26:08.396Z</time></trkpt><trkpt lat="43.3995522" lon="10.6185082"><ele>532.0</ele><time>2026-04-18T10:26:10.396Z</time></trkpt><trkpt lat="43.3996243" lon="10.6185032"><ele>532.0</ele><time>2026-04-18T10:26:12.277Z</time></trkpt><trkpt lat="43.3997097" lon="10.6185939"><ele>532.0</ele><time>2026-04-18T10:26:13.292Z</time></trkpt><trkpt lat="43.3998264" lon="10.6186767"><ele>533.6666666666667</ele><time>2026-04-18T10:26:14.287Z</time></trkpt><trkpt lat="43.3999464" lon="10.6187715"><ele>535.3333333333334</ele><time>2026-04-18T10:26:15.285Z</time></trkpt><trkpt lat="43.4000845" lon="10.618875"><ele>537.0</ele><time>2026-04-18T10:26:16.286Z</time></trkpt><trkpt lat="43.4002195" lon="10.6189779"><ele>537.0</ele><time>2026-04-18T10:26:17.289Z</time></trkpt><trkpt lat="43.4003296" lon="10.6190762"><ele>537.0</ele><time>2026-04-18T10:26:18.288Z</time></trkpt><trkpt lat="43.4004442" lon="10.6191606"><ele>537.0</ele><time>2026-04-18T10:26:19.292Z</time></trkpt><trkpt lat="43.4005773" lon="10.6192253"><ele>537.0</ele><time>2026-04-18T10:26:20.289Z</time></trkpt><trkpt lat="43.4007223" lon="10.6192696"><ele>535.0</ele><time>2026-04-18T10:26:21.285Z</time></trkpt><trkpt lat="43.400849" lon="10.6192816"><ele>533.0</ele><time>2026-04-18T10:26:22.284Z</time></trkpt><trkpt lat="43.4009639" lon="10.6192816"><ele>531.0</ele><time>2026-04-18T10:26:23.29Z</time></trkpt><trkpt lat="43.4010802" lon="10.6192501"><ele>529.0</ele><time>2026-04-18T10:26:24.293Z</time></trkpt><trkpt lat="43.4011835" lon="10.6191967"><ele>529.0</ele><time>2026-04-18T10:26:25.396Z</time></trkpt><trkpt lat="43.4012801" lon="10.6191561"><ele>529.0</ele><time>2026-04-18T10:26:26.382Z</time></trkpt><trkpt lat="43.4013743" lon="10.6191615"><ele>529.0</ele><time>2026-04-18T10:26:27.333Z</time></trkpt><trkpt lat="43.4014749" lon="10.6191755"><ele>529.0</ele><time>2026-04-18T10:26:28.384Z</time></trkpt><trkpt lat="43.4015943" lon="10.6192734"><ele>529.0</ele><time>2026-04-18T10:26:29.376Z</time></trkpt><trkpt lat="43.4017154" lon="10.6193638"><ele>527.5</ele><time>2026-04-18T10:26:30.283Z</time></trkpt><trkpt lat="43.4018393" lon="10.6194547"><ele>526.0</ele><time>2026-04-18T10:26:31.285Z</time></trkpt><trkpt lat="43.4019661" lon="10.6195397"><ele>524.5</ele><time>2026-04-18T10:26:32.284Z</time></trkpt><trkpt lat="43.4020847" lon="10.6196177"><ele>523.0</ele><time>2026-04-18T10:26:33.279Z</time></trkpt><trkpt lat="43.4021971" lon="10.6196893"><ele>517.25</ele><time>2026-04-18T10:26:34.286Z</time></trkpt><trkpt lat="43.4023062" lon="10.6197722"><ele>511.5</ele><time>2026-04-18T10:26:35.282Z</time></trkpt><trkpt lat="43.4024058" lon="10.6198734"><ele>505.75</ele><time>2026-04-18T10:26:36.291Z</time></trkpt><trkpt lat="43.4025032" lon="10.6199814"><ele>500.0</ele><time>2026-04-18T10:26:37.287Z</time></trkpt><trkpt lat="43.4025934" lon="10.6201082"><ele>500.0</ele><time>2026-04-18T10:26:38.285Z</time></trkpt><trkpt lat="43.4026714" lon="10.6202412"><ele>500.0</ele><time>2026-04-18T10:26:39.287Z</time></trkpt><trkpt lat="43.4027405" lon="10.620387"><ele>500.0</ele><time>2026-04-18T10:26:40.404Z</time></trkpt><trkpt lat="43.4028033" lon="10.6205306"><ele>500.0</ele><time>2026-04-18T10:26:41.381Z</time></trkpt><trkpt lat="43.4028609" lon="10.6206622"><ele>499.5</ele><time>2026-04-18T10:26:42.384Z</time></trkpt><trkpt lat="43.4029084" lon="10.6207932"><ele>499.0</ele><time>2026-04-18T10:26:43.396Z</time></trkpt><trkpt lat="43.4029384" lon="10.6209425"><ele>498.5</ele><time>2026-04-18T10:26:44.384Z</time></trkpt><trkpt lat="43.4029495" lon="10.6211128"><ele>498.0</ele><time>2026-04-18T10:26:45.412Z</time></trkpt><trkpt lat="43.4029752" lon="10.6215041"><ele>497.0</ele><time>2026-04-18T10:26:47.378Z</time></trkpt><trkpt lat="43.4029897" lon="10.6217117"><ele>496.0</ele><time>2026-04-18T10:26:48.385Z</time></trkpt><trkpt lat="43.4029993" lon="10.6219234"><ele>495.0</ele><time>2026-04-18T10:26:49.289Z</time></trkpt><trkpt lat="43.4029988" lon="10.6221294"><ele>494.0</ele><time>2026-04-18T10:26:50.29Z</time></trkpt><trkpt lat="43.4029893" lon="10.6223158"><ele>493.0</ele><time>2026-04-18T10:26:51.408Z</time></trkpt><trkpt lat="43.4029626" lon="10.6224919"><ele>492.0</ele><time>2026-04-18T10:26:52.386Z</time></trkpt><trkpt lat="43.4029148" lon="10.6226632"><ele>491.0</ele><time>2026-04-18T10:26:53.381Z</time></trkpt><trkpt lat="43.4028577" lon="10.6228219"><ele>490.75</ele><time>2026-04-18T10:26:54.381Z</time></trkpt><trkpt lat="43.402805" lon="10.6229689"><ele>490.5</ele><time>2026-04-18T10:26:55.378Z</time></trkpt><trkpt lat="43.4027664" lon="10.6231167"><ele>490.25</ele><time>2026-04-18T10:26:56.404Z</time></trkpt><trkpt lat="43.402754" lon="10.6232815"><ele>490.0</ele><time>2026-04-18T10:26:57.372Z</time></trkpt><trkpt lat="43.4027584" lon="10.6234544"><ele>490.0</ele><time>2026-04-18T10:26:58.382Z</time></trkpt><trkpt lat="43.4027798" lon="10.6236334"><ele>490.0</ele><time>2026-04-18T10:26:59.388Z</time></trkpt><trkpt lat="43.4028105" lon="10.6238097"><ele>490.0</ele><time>2026-04-18T10:27:00.295Z</time></trkpt><trkpt lat="43.4028449" lon="10.6239789"><ele>490.0</ele><time>2026-04-18T10:27:01.289Z</time></trkpt><trkpt lat="43.4028732" lon="10.6241372"><ele>490.0</ele><time>2026-04-18T10:27:02.387Z</time></trkpt><trkpt lat="43.4029025" lon="10.6242937"><ele>490.0</ele><time>2026-04-18T10:27:03.407Z</time></trkpt><trkpt lat="43.402998" lon="10.6246223"><ele>490.0</ele><time>2026-04-18T10:27:05.365Z</time></trkpt><trkpt lat="43.4030731" lon="10.6247911"><ele>490.75</ele><time>2026-04-18T10:27:06.381Z</time></trkpt><trkpt lat="43.4031344" lon="10.6249521"><ele>491.5</ele><time>2026-04-18T10:27:07.392Z</time></trkpt><trkpt lat="43.4031762" lon="10.6251039"><ele>492.25</ele><time>2026-04-18T10:27:08.382Z</time></trkpt><trkpt lat="43.4032069" lon="10.6252525"><ele>493.0</ele><time>2026-04-18T10:27:09.389Z</time></trkpt><trkpt lat="43.4032568" lon="10.6253997"><ele>483.5</ele><time>2026-04-18T10:27:10.356Z</time></trkpt><trkpt lat="43.4033391" lon="10.6255466"><ele>474.0</ele><time>2026-04-18T10:27:11.405Z</time></trkpt><trkpt lat="43.4035363" lon="10.6258861"><ele>474.0</ele><time>2026-04-18T10:27:13.292Z</time></trkpt><trkpt lat="43.4036304" lon="10.6260536"><ele>474.0</ele><time>2026-04-18T10:27:14.282Z</time></trkpt><trkpt lat="43.4037212" lon="10.6262108"><ele>474.0</ele><time>2026-04-18T10:27:15.288Z</time></trkpt><trkpt lat="43.4038049" lon="10.6263703"><ele>474.0</ele><time>2026-04-18T10:27:16.28Z</time></trkpt><trkpt lat="43.4038819" lon="10.6265184"><ele>476.25</ele><time>2026-04-18T10:27:17.389Z</time></trkpt><trkpt lat="43.4039507" lon="10.6266547"><ele>478.5</ele><time>2026-04-18T10:27:18.384Z</time></trkpt><trkpt lat="43.4040254" lon="10.6267721"><ele>480.75</ele><time>2026-04-18T10:27:19.287Z</time></trkpt><trkpt lat="43.4041107" lon="10.6268756"><ele>483.0</ele><time>2026-04-18T10:27:20.289Z</time></trkpt><trkpt lat="43.4042028" lon="10.6269825"><ele>476.33333333333337</ele><time>2026-04-18T10:27:21.401Z</time></trkpt><trkpt lat="43.4042946" lon="10.6270884"><ele>469.6666666666667</ele><time>2026-04-18T10:27:22.382Z</time></trkpt><trkpt lat="43.4043832" lon="10.6271928"><ele>463.0</ele><time>2026-04-18T10:27:23.397Z</time></trkpt><trkpt lat="43.4045749" lon="10.6273259"><ele>464.5</ele><time>2026-04-18T10:27:25.376Z</time></trkpt><trkpt lat="43.4046861" lon="10.6273579"><ele>466.0</ele><time>2026-04-18T10:27:26.376Z</time></trkpt><trkpt lat="43.4048019" lon="10.6273735"><ele>467.5</ele><time>2026-04-18T10:27:27.29Z</time></trkpt><trkpt lat="43.4049189" lon="10.6273855"><ele>469.0</ele><time>2026-04-18T10:27:28.383Z</time></trkpt><trkpt lat="43.4050317" lon="10.6274085"><ele>469.0</ele><time>2026-04-18T10:27:29.382Z</time></trkpt><trkpt lat="43.4051409" lon="10.6274411"><ele>469.0</ele><time>2026-04-18T10:27:30.387Z</time></trkpt><trkpt lat="43.4052376" lon="10.6274916"><ele>469.0</ele><time>2026-04-18T10:27:31.381Z</time></trkpt><trkpt lat="43.405326" lon="10.6275767"><ele>469.0</ele><time>2026-04-18T10:27:32.406Z</time></trkpt><trkpt lat="43.4053972" lon="10.6277005"><ele>469.0</ele><time>2026-04-18T10:27:33.381Z</time></trkpt><trkpt lat="43.4054504" lon="10.6278491"><ele>465.79999999999995</ele><time>2026-04-18T10:27:34.29Z</time></trkpt><trkpt lat="43.4054896" lon="10.6279972"><ele>462.59999999999997</ele><time>2026-04-18T10:27:35.402Z</time></trkpt><trkpt lat="43.4055303" lon="10.6281373"><ele>459.4</ele><time>2026-04-18T10:27:36.385Z</time></trkpt><trkpt lat="43.4055692" lon="10.6282524"><ele>456.2</ele><time>2026-04-18T10:27:37.409Z</time></trkpt><trkpt lat="43.4056197" lon="10.6283381"><ele>453.0</ele><time>2026-04-18T10:27:38.383Z</time></trkpt><trkpt lat="43.4056832" lon="10.6283873"><ele>453.0</ele><time>2026-04-18T10:27:39.388Z</time></trkpt><trkpt lat="43.4057519" lon="10.6284249"><ele>453.0</ele><time>2026-04-18T10:27:40.391Z</time></trkpt><trkpt lat="43.4058215" lon="10.6284519"><ele>453.0</ele><time>2026-04-18T10:27:41.397Z</time></trkpt><trkpt lat="43.4058956" lon="10.6284779"><ele>453.0</ele><time>2026-04-18T10:27:42.406Z</time></trkpt><trkpt lat="43.4059711" lon="10.6285012"><ele>453.0</ele><time>2026-04-18T10:27:43.389Z</time></trkpt><trkpt lat="43.4060584" lon="10.6285279"><ele>453.0</ele><time>2026-04-18T10:27:44.398Z</time></trkpt><trkpt lat="43.4061506" lon="10.6285507"><ele>453.0</ele><time>2026-04-18T10:27:45.415Z</time></trkpt><trkpt lat="43.4062462" lon="10.6285742"><ele>453.0</ele><time>2026-04-18T10:27:46.406Z</time></trkpt><trkpt lat="43.4063487" lon="10.6286035"><ele>453.0</ele><time>2026-04-18T10:27:47.412Z</time></trkpt><trkpt lat="43.4065521" lon="10.6286902"><ele>453.0</ele><time>2026-04-18T10:27:49.387Z</time></trkpt><trkpt lat="43.4066434" lon="10.6287737"><ele>449.75</ele><time>2026-04-18T10:27:50.292Z</time></trkpt><trkpt lat="43.406726" lon="10.6288819"><ele>446.5</ele><time>2026-04-18T10:27:51.288Z</time></trkpt><trkpt lat="43.4068015" lon="10.6290119"><ele>443.25</ele><time>2026-04-18T10:27:52.287Z</time></trkpt><trkpt lat="43.4068779" lon="10.6291554"><ele>440.0</ele><time>2026-04-18T10:27:53.289Z</time></trkpt><trkpt lat="43.4069637" lon="10.6293039"><ele>440.0</ele><time>2026-04-18T10:27:54.29Z</time></trkpt><trkpt lat="43.4070595" lon="10.6294566"><ele>440.0</ele><time>2026-04-18T10:27:55.283Z</time></trkpt><trkpt lat="43.4071623" lon="10.6296178"><ele>440.0</ele><time>2026-04-18T10:27:56.285Z</time></trkpt><trkpt lat="43.4072678" lon="10.6297908"><ele>436.66666666666663</ele><time>2026-04-18T10:27:57.295Z</time></trkpt><trkpt lat="43.4073737" lon="10.6299696"><ele>433.33333333333337</ele><time>2026-04-18T10:27:58.373Z</time></trkpt><trkpt lat="43.4074774" lon="10.6301497"><ele>430.0</ele><time>2026-04-18T10:27:59.405Z</time></trkpt><trkpt lat="43.4076803" lon="10.6304794"><ele>430.0</ele><time>2026-04-18T10:28:01.394Z</time></trkpt><trkpt lat="43.4078664" lon="10.6307903"><ele>430.0</ele><time>2026-04-18T10:28:03.384Z</time></trkpt><trkpt lat="43.4079418" lon="10.6309388"><ele>430.0</ele><time>2026-04-18T10:28:04.419Z</time></trkpt><trkpt lat="43.4080181" lon="10.6310759"><ele>426.6666666666667</ele><time>2026-04-18T10:28:05.405Z</time></trkpt><trkpt lat="43.4082111" lon="10.6313129"><ele>423.33333333333337</ele><time>2026-04-18T10:28:07.398Z</time></trkpt><trkpt lat="43.4083324" lon="10.6314057"><ele>420.0</ele><time>2026-04-18T10:28:08.403Z</time></trkpt><trkpt lat="43.4085739" lon="10.6315791"><ele>420.0</ele><time>2026-04-18T10:28:10.388Z</time></trkpt><trkpt lat="43.4086822" lon="10.6316595"><ele>420.0</ele><time>2026-04-18T10:28:11.293Z</time></trkpt><trkpt lat="43.4087887" lon="10.6317134"><ele>420.0</ele><time>2026-04-18T10:28:12.292Z</time></trkpt><trkpt lat="43.4089085" lon="10.6317349"><ele>420.0</ele><time>2026-04-18T10:28:13.381Z</time></trkpt><trkpt lat="43.4090401" lon="10.6317193"><ele>416.75</ele><time>2026-04-18T10:28:14.383Z</time></trkpt><trkpt lat="43.4091744" lon="10.6316827"><ele>413.5</ele><time>2026-04-18T10:28:15.387Z</time></trkpt><trkpt lat="43.4093063" lon="10.6316428"><ele>410.25</ele><time>2026-04-18T10:28:16.407Z</time></trkpt><trkpt lat="43.4094281" lon="10.6316081"><ele>407.0</ele><time>2026-04-18T10:28:17.406Z</time></trkpt><trkpt lat="43.409542" lon="10.6315814"><ele>407.0</ele><time>2026-04-18T10:28:18.404Z</time></trkpt><trkpt lat="43.4096478" lon="10.6315518"><ele>407.0</ele><time>2026-04-18T10:28:19.399Z</time></trkpt><trkpt lat="43.4098239" lon="10.6315337"><ele>407.0</ele><time>2026-04-18T10:28:21.282Z</time></trkpt><trkpt lat="43.4099043" lon="10.6315773"><ele>407.0</ele><time>2026-04-18T10:28:22.393Z</time></trkpt><trkpt lat="43.4099787" lon="10.6316588"><ele>406.20000000000005</ele><time>2026-04-18T10:28:23.404Z</time></trkpt><trkpt lat="43.4100405" lon="10.6317778"><ele>405.4</ele><time>2026-04-18T10:28:24.406Z</time></trkpt><trkpt lat="43.4100953" lon="10.6319137"><ele>404.6</ele><time>2026-04-18T10:28:25.38Z</time></trkpt><trkpt lat="43.4101442" lon="10.632053"><ele>403.79999999999995</ele><time>2026-04-18T10:28:26.403Z</time></trkpt><trkpt lat="43.4101876" lon="10.6321829"><ele>403.0</ele><time>2026-04-18T10:28:27.387Z</time></trkpt><trkpt lat="43.4102273" lon="10.6323047"><ele>403.0</ele><time>2026-04-18T10:28:28.394Z</time></trkpt><trkpt lat="43.4102787" lon="10.632411"><ele>403.0</ele><time>2026-04-18T10:28:29.404Z</time></trkpt><trkpt lat="43.4103503" lon="10.6325031"><ele>403.0</ele><time>2026-04-18T10:28:30.384Z</time></trkpt><trkpt lat="43.410431" lon="10.6325722"><ele>403.0</ele><time>2026-04-18T10:28:31.396Z</time></trkpt><trkpt lat="43.4105093" lon="10.6326273"><ele>403.0</ele><time>2026-04-18T10:28:32.386Z</time></trkpt><trkpt lat="43.4105913" lon="10.6326747"><ele>399.59999999999997</ele><time>2026-04-18T10:28:33.381Z</time></trkpt><trkpt lat="43.4106774" lon="10.6327056"><ele>396.2</ele><time>2026-04-18T10:28:34.401Z</time></trkpt><trkpt lat="43.4107691" lon="10.6327378"><ele>392.8</ele><time>2026-04-18T10:28:35.403Z</time></trkpt><trkpt lat="43.4108613" lon="10.6327786"><ele>389.4</ele><time>2026-04-18T10:28:36.404Z</time></trkpt><trkpt lat="43.4109569" lon="10.6328445"><ele>386.0</ele><time>2026-04-18T10:28:37.361Z</time></trkpt><trkpt lat="43.4110452" lon="10.6329404"><ele>386.0</ele><time>2026-04-18T10:28:38.294Z</time></trkpt><trkpt lat="43.4111244" lon="10.6330697"><ele>386.0</ele><time>2026-04-18T10:28:39.29Z</time></trkpt><trkpt lat="43.4111852" lon="10.6332326"><ele>386.0</ele><time>2026-04-18T10:28:40.292Z</time></trkpt><trkpt lat="43.4112395" lon="10.6334116"><ele>386.0</ele><time>2026-04-18T10:28:41.292Z</time></trkpt><trkpt lat="43.4112962" lon="10.6335808"><ele>383.0</ele><time>2026-04-18T10:28:42.389Z</time></trkpt><trkpt lat="43.4113486" lon="10.6337465"><ele>380.0</ele><time>2026-04-18T10:28:43.29Z</time></trkpt><trkpt lat="43.4113917" lon="10.6339123"><ele>377.0</ele><time>2026-04-18T10:28:44.29Z</time></trkpt><trkpt lat="43.4115121" lon="10.6344383"><ele>378.0</ele><time>2026-04-18T10:28:47.39Z</time></trkpt><trkpt lat="43.4115812" lon="10.6346093"><ele>379.0</ele><time>2026-04-18T10:28:48.393Z</time></trkpt><trkpt lat="43.4116586" lon="10.6347736"><ele>380.0</ele><time>2026-04-18T10:28:49.325Z</time></trkpt><trkpt lat="43.4117308" lon="10.6349262"><ele>381.0</ele><time>2026-04-18T10:28:50.292Z</time></trkpt><trkpt lat="43.4117956" lon="10.6350641"><ele>381.0</ele><time>2026-04-18T10:28:51.29Z</time></trkpt><trkpt lat="43.4118539" lon="10.6351847"><ele>381.0</ele><time>2026-04-18T10:28:52.294Z</time></trkpt><trkpt lat="43.4119015" lon="10.635306"><ele>381.0</ele><time>2026-04-18T10:28:53.395Z</time></trkpt><trkpt lat="43.4119335" lon="10.6354374"><ele>381.0</ele><time>2026-04-18T10:28:54.385Z</time></trkpt><trkpt lat="43.4119459" lon="10.6355831"><ele>381.0</ele><time>2026-04-18T10:28:55.293Z</time></trkpt><trkpt lat="43.4119564" lon="10.6357427"><ele>382.0</ele><time>2026-04-18T10:28:56.392Z</time></trkpt><trkpt lat="43.4120159" lon="10.6360734"><ele>383.0</ele><time>2026-04-18T10:28:58.396Z</time></trkpt><trkpt lat="43.4120596" lon="10.636217"><ele>384.0</ele><time>2026-04-18T10:28:59.409Z</time></trkpt><trkpt lat="43.412114" lon="10.6363494"><ele>381.5</ele><time>2026-04-18T10:29:00.357Z</time></trkpt><trkpt lat="43.4121798" lon="10.6364722"><ele>379.0</ele><time>2026-04-18T10:29:01.291Z</time></trkpt><trkpt lat="43.4122554" lon="10.6365983"><ele>376.5</ele><time>2026-04-18T10:29:02.377Z</time></trkpt><trkpt lat="43.4123401" lon="10.6367207"><ele>374.0</ele><time>2026-04-18T10:29:03.414Z</time></trkpt><trkpt lat="43.4124278" lon="10.6368451"><ele>372.6666666666667</ele><time>2026-04-18T10:29:04.407Z</time></trkpt><trkpt lat="43.4125206" lon="10.6369716"><ele>371.3333333333333</ele><time>2026-04-18T10:29:05.399Z</time></trkpt><trkpt lat="43.4126956" lon="10.6372411"><ele>370.0</ele><time>2026-04-18T10:29:07.387Z</time></trkpt><trkpt lat="43.412776" lon="10.6373664"><ele>370.0</ele><time>2026-04-18T10:29:08.373Z</time></trkpt><trkpt lat="43.4128488" lon="10.6374835"><ele>370.0</ele><time>2026-04-18T10:29:09.398Z</time></trkpt><trkpt lat="43.4129143" lon="10.6375886"><ele>370.0</ele><time>2026-04-18T10:29:10.41Z</time></trkpt><trkpt lat="43.4129695" lon="10.6376594"><ele>370.0</ele><time>2026-04-18T10:29:11.414Z</time></trkpt><trkpt lat="43.4130955" lon="10.6377386"><ele>370.0</ele><time>2026-04-18T10:29:13.401Z</time></trkpt><trkpt lat="43.4131729" lon="10.6377481"><ele>369.0</ele><time>2026-04-18T10:29:14.405Z</time></trkpt><trkpt lat="43.4132576" lon="10.6377517"><ele>368.0</ele><time>2026-04-18T10:29:15.398Z</time></trkpt><trkpt lat="43.4133314" lon="10.6377715"><ele>367.0</ele><time>2026-04-18T10:29:16.386Z</time></trkpt><trkpt lat="43.413399" lon="10.6378096"><ele>366.0</ele><time>2026-04-18T10:29:17.401Z</time></trkpt><trkpt lat="43.4134912" lon="10.6378527"><ele>365.0</ele><time>2026-04-18T10:29:18.401Z</time></trkpt><trkpt lat="43.4136001" lon="10.6379007"><ele>364.0</ele><time>2026-04-18T10:29:19.302Z</time></trkpt><trkpt lat="43.4136959" lon="10.6379683"><ele>364.3333333333333</ele><time>2026-04-18T10:29:20.294Z</time></trkpt><trkpt lat="43.4137929" lon="10.6380599"><ele>364.6666666666667</ele><time>2026-04-18T10:29:21.414Z</time></trkpt><trkpt lat="43.4138866" lon="10.6381589"><ele>365.0</ele><time>2026-04-18T10:29:22.416Z</time></trkpt><trkpt lat="43.4140925" lon="10.6382938"><ele>365.0</ele><time>2026-04-18T10:29:24.407Z</time></trkpt><trkpt lat="43.4141963" lon="10.6383474"><ele>365.0</ele><time>2026-04-18T10:29:25.383Z</time></trkpt><trkpt lat="43.4143791" lon="10.6385169"><ele>365.0</ele><time>2026-04-18T10:29:27.29Z</time></trkpt><trkpt lat="43.4144523" lon="10.6386478"><ele>363.0</ele><time>2026-04-18T10:29:28.287Z</time></trkpt><trkpt lat="43.4145306" lon="10.6387615"><ele>361.0</ele><time>2026-04-18T10:29:29.399Z</time></trkpt><trkpt lat="43.4146327" lon="10.6388618"><ele>359.0</ele><time>2026-04-18T10:29:30.394Z</time></trkpt><trkpt lat="43.4148741" lon="10.6390461"><ele>359.0</ele><time>2026-04-18T10:29:32.39Z</time></trkpt><trkpt lat="43.4149937" lon="10.6391286"><ele>359.0</ele><time>2026-04-18T10:29:33.289Z</time></trkpt><trkpt lat="43.4151083" lon="10.6392231"><ele>359.0</ele><time>2026-04-18T10:29:34.284Z</time></trkpt><trkpt lat="43.4152228" lon="10.6393269"><ele>359.0</ele><time>2026-04-18T10:29:35.287Z</time></trkpt><trkpt lat="43.4153275" lon="10.6394457"><ele>361.0</ele><time>2026-04-18T10:29:36.288Z</time></trkpt><trkpt lat="43.4154247" lon="10.6395685"><ele>363.0</ele><time>2026-04-18T10:29:37.914Z</time></trkpt><trkpt lat="43.4156013" lon="10.6397875"><ele>365.0</ele><time>2026-04-18T10:29:39.305Z</time></trkpt><trkpt lat="43.415705" lon="10.6398687"><ele>365.0</ele><time>2026-04-18T10:29:40.327Z</time></trkpt><trkpt lat="43.415816" lon="10.6399459"><ele>365.0</ele><time>2026-04-18T10:29:41.286Z</time></trkpt><trkpt lat="43.4159229" lon="10.6400201"><ele>365.0</ele><time>2026-04-18T10:29:42.377Z</time></trkpt><trkpt lat="43.4160341" lon="10.6400829"><ele>365.0</ele><time>2026-04-18T10:29:43.398Z</time></trkpt><trkpt lat="43.4161542" lon="10.6401266"><ele>365.75</ele><time>2026-04-18T10:29:44.402Z</time></trkpt><trkpt lat="43.4163943" lon="10.6401843"><ele>366.5</ele><time>2026-04-18T10:29:46.398Z</time></trkpt><trkpt lat="43.4165096" lon="10.6402063"><ele>367.25</ele><time>2026-04-18T10:29:47.393Z</time></trkpt><trkpt lat="43.4165907" lon="10.6402513"><ele>368.0</ele><time>2026-04-18T10:29:48.381Z</time></trkpt><trkpt lat="43.4166689" lon="10.6403206"><ele>370.25</ele><time>2026-04-18T10:29:49.298Z</time></trkpt><trkpt lat="43.4167509" lon="10.6404064"><ele>372.5</ele><time>2026-04-18T10:29:50.289Z</time></trkpt><trkpt lat="43.4168335" lon="10.6405199"><ele>374.75</ele><time>2026-04-18T10:29:51.29Z</time></trkpt><trkpt lat="43.4169399" lon="10.640635"><ele>377.0</ele><time>2026-04-18T10:29:52.396Z</time></trkpt><trkpt lat="43.4170522" lon="10.6407663"><ele>373.33333333333337</ele><time>2026-04-18T10:29:53.397Z</time></trkpt><trkpt lat="43.4171747" lon="10.6409005"><ele>369.6666666666667</ele><time>2026-04-18T10:29:54.385Z</time></trkpt><trkpt lat="43.4172981" lon="10.6410424"><ele>366.0</ele><time>2026-04-18T10:29:55.388Z</time></trkpt><trkpt lat="43.4174144" lon="10.6411837"><ele>365.6666666666667</ele><time>2026-04-18T10:29:56.407Z</time></trkpt><trkpt lat="43.4175271" lon="10.6413279"><ele>365.33333333333337</ele><time>2026-04-18T10:29:57.402Z</time></trkpt><trkpt lat="43.4176396" lon="10.6414706"><ele>365.0</ele><time>2026-04-18T10:29:58.384Z</time></trkpt><trkpt lat="43.4177449" lon="10.6416105"><ele>365.0</ele><time>2026-04-18T10:29:59.38Z</time></trkpt><trkpt lat="43.4178494" lon="10.6417524"><ele>365.0</ele><time>2026-04-18T10:30:00.376Z</time></trkpt><trkpt lat="43.4179291" lon="10.6418782"><ele>365.0</ele><time>2026-04-18T10:30:01.289Z</time></trkpt><trkpt lat="43.4180169" lon="10.6419923"><ele>365.0</ele><time>2026-04-18T10:30:02.291Z</time></trkpt><trkpt lat="43.4181152" lon="10.6420851"><ele>365.75</ele><time>2026-04-18T10:30:03.39Z</time></trkpt><trkpt lat="43.4182341" lon="10.6421795"><ele>366.5</ele><time>2026-04-18T10:30:04.384Z</time></trkpt><trkpt lat="43.4183396" lon="10.6422823"><ele>367.25</ele><time>2026-04-18T10:30:05.413Z</time></trkpt><trkpt lat="43.4184404" lon="10.6424012"><ele>368.0</ele><time>2026-04-18T10:30:06.403Z</time></trkpt><trkpt lat="43.418555" lon="10.64251"><ele>368.0</ele><time>2026-04-18T10:30:07.387Z</time></trkpt><trkpt lat="43.4186885" lon="10.6425991"><ele>368.0</ele><time>2026-04-18T10:30:08.383Z</time></trkpt><trkpt lat="43.4188186" lon="10.6426878"><ele>368.0</ele><time>2026-04-18T10:30:09.38Z</time></trkpt><trkpt lat="43.4189307" lon="10.64278"><ele>368.0</ele><time>2026-04-18T10:30:10.391Z</time></trkpt><trkpt lat="43.4190383" lon="10.6428787"><ele>370.6666666666667</ele><time>2026-04-18T10:30:11.38Z</time></trkpt><trkpt lat="43.4191492" lon="10.64298"><ele>373.3333333333333</ele><time>2026-04-18T10:30:12.402Z</time></trkpt><trkpt lat="43.4193874" lon="10.6431451"><ele>376.0</ele><time>2026-04-18T10:30:14.407Z</time></trkpt><trkpt lat="43.419492" lon="10.6432032"><ele>377.0</ele><time>2026-04-18T10:30:15.398Z</time></trkpt><trkpt lat="43.4196724" lon="10.6433263"><ele>378.0</ele><time>2026-04-18T10:30:17.291Z</time></trkpt><trkpt lat="43.4197507" lon="10.6434277"><ele>379.0</ele><time>2026-04-18T10:30:18.292Z</time></trkpt><trkpt lat="43.4198226" lon="10.6435474"><ele>380.0</ele><time>2026-04-18T10:30:19.287Z</time></trkpt><trkpt lat="43.4198953" lon="10.6436754"><ele>380.0</ele><time>2026-04-18T10:30:20.283Z</time></trkpt><trkpt lat="43.41998" lon="10.6438138"><ele>380.0</ele><time>2026-04-18T10:30:21.289Z</time></trkpt><trkpt lat="43.4200701" lon="10.643949"><ele>380.0</ele><time>2026-04-18T10:30:22.291Z</time></trkpt><trkpt lat="43.4201579" lon="10.6440738"><ele>380.0</ele><time>2026-04-18T10:30:23.292Z</time></trkpt><trkpt lat="43.4202393" lon="10.6441874"><ele>380.0</ele><time>2026-04-18T10:30:24.294Z</time></trkpt><trkpt lat="43.4203255" lon="10.6442911"><ele>380.0</ele><time>2026-04-18T10:30:25.295Z</time></trkpt><trkpt lat="43.4204162" lon="10.6443884"><ele>380.0</ele><time>2026-04-18T10:30:26.29Z</time></trkpt><trkpt lat="43.4205195" lon="10.6444768"><ele>380.0</ele><time>2026-04-18T10:30:27.289Z</time></trkpt><trkpt lat="43.4206348" lon="10.6445698"><ele>378.25</ele><time>2026-04-18T10:30:28.288Z</time></trkpt><trkpt lat="43.420756" lon="10.6446681"><ele>376.5</ele><time>2026-04-18T10:30:29.296Z</time></trkpt><trkpt lat="43.4208728" lon="10.6447728"><ele>374.75</ele><time>2026-04-18T10:30:30.288Z</time></trkpt><trkpt lat="43.4209836" lon="10.6448904"><ele>373.0</ele><time>2026-04-18T10:30:31.291Z</time></trkpt><trkpt lat="43.4210941" lon="10.6450126"><ele>373.0</ele><time>2026-04-18T10:30:32.292Z</time></trkpt><trkpt lat="43.4212035" lon="10.6451322"><ele>373.0</ele><time>2026-04-18T10:30:33.291Z</time></trkpt><trkpt lat="43.4213128" lon="10.6452432"><ele>373.0</ele><time>2026-04-18T10:30:34.291Z</time></trkpt><trkpt lat="43.421422" lon="10.645352"><ele>373.0</ele><time>2026-04-18T10:30:35.291Z</time></trkpt><trkpt lat="43.4215247" lon="10.6454499"><ele>371.5</ele><time>2026-04-18T10:30:36.294Z</time></trkpt><trkpt lat="43.4216289" lon="10.6455419"><ele>370.0</ele><time>2026-04-18T10:30:37.296Z</time></trkpt><trkpt lat="43.4217329" lon="10.64562"><ele>368.5</ele><time>2026-04-18T10:30:38.29Z</time></trkpt><trkpt lat="43.4218363" lon="10.6456905"><ele>367.0</ele><time>2026-04-18T10:30:39.29Z</time></trkpt><trkpt lat="43.4219434" lon="10.6457607"><ele>367.0</ele><time>2026-04-18T10:30:40.296Z</time></trkpt><trkpt lat="43.4220529" lon="10.6458256"><ele>367.0</ele><time>2026-04-18T10:30:41.292Z</time></trkpt><trkpt lat="43.4221628" lon="10.6458851"><ele>367.0</ele><time>2026-04-18T10:30:42.29Z</time></trkpt><trkpt lat="43.4222736" lon="10.645934"><ele>367.0</ele><time>2026-04-18T10:30:43.293Z</time></trkpt><trkpt lat="43.422386" lon="10.645979"><ele>365.25</ele><time>2026-04-18T10:30:44.396Z</time></trkpt><trkpt lat="43.422491" lon="10.6460338"><ele>363.5</ele><time>2026-04-18T10:30:45.397Z</time></trkpt><trkpt lat="43.4225868" lon="10.6461005"><ele>361.75</ele><time>2026-04-18T10:30:46.406Z</time></trkpt><trkpt lat="43.4226874" lon="10.6461864"><ele>360.0</ele><time>2026-04-18T10:30:47.382Z</time></trkpt><trkpt lat="43.4227942" lon="10.6462635"><ele>355.3333333333333</ele><time>2026-04-18T10:30:48.386Z</time></trkpt><trkpt lat="43.4229006" lon="10.6463355"><ele>350.66666666666663</ele><time>2026-04-18T10:30:49.407Z</time></trkpt><trkpt lat="43.4231178" lon="10.6464751"><ele>346.0</ele><time>2026-04-18T10:30:51.289Z</time></trkpt><trkpt lat="43.4232251" lon="10.646549"><ele>346.0</ele><time>2026-04-18T10:30:52.415Z</time></trkpt><trkpt lat="43.4233353" lon="10.646615"><ele>346.0</ele><time>2026-04-18T10:30:53.392Z</time></trkpt><trkpt lat="43.4234491" lon="10.6466786"><ele>346.0</ele><time>2026-04-18T10:30:54.335Z</time></trkpt><trkpt lat="43.4235629" lon="10.6467332"><ele>346.0</ele><time>2026-04-18T10:30:55.298Z</time></trkpt><trkpt lat="43.423677" lon="10.6467922"><ele>346.0</ele><time>2026-04-18T10:30:56.41Z</time></trkpt><trkpt lat="43.423792" lon="10.6468535"><ele>346.0</ele><time>2026-04-18T10:30:57.409Z</time></trkpt><trkpt lat="43.4239044" lon="10.6469114"><ele>346.0</ele><time>2026-04-18T10:30:58.415Z</time></trkpt><trkpt lat="43.4240145" lon="10.6469602"><ele>346.0</ele><time>2026-04-18T10:30:59.412Z</time></trkpt><trkpt lat="43.424118" lon="10.6470122"><ele>340.8</ele><time>2026-04-18T10:31:00.406Z</time></trkpt><trkpt lat="43.4242209" lon="10.6470855"><ele>335.6</ele><time>2026-04-18T10:31:01.392Z</time></trkpt><trkpt lat="43.4242934" lon="10.6471819"><ele>330.4</ele><time>2026-04-18T10:31:02.357Z</time></trkpt><trkpt lat="43.4243812" lon="10.6472635"><ele>325.2</ele><time>2026-04-18T10:31:03.365Z</time></trkpt><trkpt lat="43.4244713" lon="10.6473578"><ele>320.0</ele><time>2026-04-18T10:31:04.39Z</time></trkpt><trkpt lat="43.4245652" lon="10.6474556"><ele>319.75</ele><time>2026-04-18T10:31:05.383Z</time></trkpt><trkpt lat="43.424665" lon="10.6475574"><ele>319.5</ele><time>2026-04-18T10:31:06.407Z</time></trkpt><trkpt lat="43.4247461" lon="10.6476607"><ele>319.25</ele><time>2026-04-18T10:31:07.397Z</time></trkpt><trkpt lat="43.4248263" lon="10.6477579"><ele>319.0</ele><time>2026-04-18T10:31:08.39Z</time></trkpt><trkpt lat="43.4248972" lon="10.6478768"><ele>314.66666666666663</ele><time>2026-04-18T10:31:09.368Z</time></trkpt><trkpt lat="43.4249462" lon="10.6480187"><ele>310.3333333333333</ele><time>2026-04-18T10:31:10.401Z</time></trkpt><trkpt lat="43.4249635" lon="10.6483426"><ele>306.0</ele><time>2026-04-18T10:31:12.291Z</time></trkpt><trkpt lat="43.4249559" lon="10.6484952"><ele>305.6</ele><time>2026-04-18T10:31:13.291Z</time></trkpt><trkpt lat="43.4249613" lon="10.6486455"><ele>305.20000000000005</ele><time>2026-04-18T10:31:14.286Z</time></trkpt><trkpt lat="43.4249709" lon="10.6487832"><ele>304.79999999999995</ele><time>2026-04-18T10:31:15.29Z</time></trkpt><trkpt lat="43.4249815" lon="10.6489191"><ele>304.4</ele><time>2026-04-18T10:31:16.289Z</time></trkpt><trkpt lat="43.4250084" lon="10.6490548"><ele>304.0</ele><time>2026-04-18T10:31:17.292Z</time></trkpt><trkpt lat="43.4250778" lon="10.6491993"><ele>304.0</ele><time>2026-04-18T10:31:18.292Z</time></trkpt><trkpt lat="43.4251858" lon="10.649299"><ele>304.0</ele><time>2026-04-18T10:31:19.286Z</time></trkpt><trkpt lat="43.4252734" lon="10.6493908"><ele>304.0</ele><time>2026-04-18T10:31:20.287Z</time></trkpt><trkpt lat="43.4253444" lon="10.6494821"><ele>304.0</ele><time>2026-04-18T10:31:21.291Z</time></trkpt><trkpt lat="43.4253981" lon="10.6495794"><ele>304.0</ele><time>2026-04-18T10:31:22.286Z</time></trkpt><trkpt lat="43.4254377" lon="10.6496826"><ele>303.5</ele><time>2026-04-18T10:31:23.293Z</time></trkpt><trkpt lat="43.4254641" lon="10.6497978"><ele>303.0</ele><time>2026-04-18T10:31:24.292Z</time></trkpt><trkpt lat="43.4254673" lon="10.6499088"><ele>302.5</ele><time>2026-04-18T10:31:25.291Z</time></trkpt><trkpt lat="43.4254555" lon="10.6500356"><ele>302.0</ele><time>2026-04-18T10:31:26.285Z</time></trkpt><trkpt lat="43.4254337" lon="10.6501537"><ele>301.5</ele><time>2026-04-18T10:31:27.402Z</time></trkpt><trkpt lat="43.4254075" lon="10.650284"><ele>301.0</ele><time>2026-04-18T10:31:28.403Z</time></trkpt><trkpt lat="43.4253811" lon="10.6504163"><ele>297.5</ele><time>2026-04-18T10:31:29.407Z</time></trkpt><trkpt lat="43.425355" lon="10.6505441"><ele>294.0</ele><time>2026-04-18T10:31:30.388Z</time></trkpt><trkpt lat="43.4254212" lon="10.6508263"><ele>290.5</ele><time>2026-04-18T10:31:32.284Z</time></trkpt><trkpt lat="43.4254342" lon="10.6509736"><ele>287.0</ele><time>2026-04-18T10:31:33.292Z</time></trkpt><trkpt lat="43.4254543" lon="10.6511234"><ele>283.4</ele><time>2026-04-18T10:31:34.283Z</time></trkpt><trkpt lat="43.4255416" lon="10.6512137"><ele>279.79999999999995</ele><time>2026-04-18T10:31:35.289Z</time></trkpt><trkpt lat="43.4255888" lon="10.6513194"><ele>276.2</ele><time>2026-04-18T10:31:36.289Z</time></trkpt><trkpt lat="43.4256709" lon="10.6514063"><ele>272.59999999999997</ele><time>2026-04-18T10:31:37.292Z</time></trkpt><trkpt lat="43.4257628" lon="10.6514909"><ele>269.0</ele><time>2026-04-18T10:31:38.397Z</time></trkpt><trkpt lat="43.4258655" lon="10.6515607"><ele>269.0</ele><time>2026-04-18T10:31:39.422Z</time></trkpt><trkpt lat="43.4260661" lon="10.6516944"><ele>269.0</ele><time>2026-04-18T10:31:41.405Z</time></trkpt><trkpt lat="43.4261497" lon="10.6517525"><ele>269.0</ele><time>2026-04-18T10:31:42.362Z</time></trkpt><trkpt lat="43.4262389" lon="10.6518216"><ele>269.0</ele><time>2026-04-18T10:31:43.395Z</time></trkpt><trkpt lat="43.4263086" lon="10.6519178"><ele>264.75</ele><time>2026-04-18T10:31:44.348Z</time></trkpt><trkpt lat="43.426381" lon="10.6520159"><ele>260.5</ele><time>2026-04-18T10:31:45.383Z</time></trkpt><trkpt lat="43.4264561" lon="10.652114"><ele>256.25</ele><time>2026-04-18T10:31:46.38Z</time></trkpt><trkpt lat="43.4265419" lon="10.652197"><ele>252.0</ele><time>2026-04-18T10:31:47.409Z</time></trkpt><trkpt lat="43.4266801" lon="10.6523147"><ele>252.0</ele><time>2026-04-18T10:31:49.29Z</time></trkpt><trkpt lat="43.4267612" lon="10.6523746"><ele>252.0</ele><time>2026-04-18T10:31:50.292Z</time></trkpt><trkpt lat="43.4268666" lon="10.6523643"><ele>252.0</ele><time>2026-04-18T10:31:51.288Z</time></trkpt><trkpt lat="43.426982" lon="10.6523716"><ele>252.0</ele><time>2026-04-18T10:31:52.288Z</time></trkpt><trkpt lat="43.4270963" lon="10.6524088"><ele>252.0</ele><time>2026-04-18T10:31:53.293Z</time></trkpt><trkpt lat="43.4272093" lon="10.6524616"><ele>250.0</ele><time>2026-04-18T10:31:54.29Z</time></trkpt><trkpt lat="43.4273138" lon="10.6525217"><ele>248.0</ele><time>2026-04-18T10:31:55.293Z</time></trkpt><trkpt lat="43.4274146" lon="10.6525932"><ele>246.0</ele><time>2026-04-18T10:31:56.288Z</time></trkpt><trkpt lat="43.4275073" lon="10.6526753"><ele>244.0</ele><time>2026-04-18T10:31:57.298Z</time></trkpt><trkpt lat="43.4275844" lon="10.652764"><ele>242.0</ele><time>2026-04-18T10:31:58.284Z</time></trkpt><trkpt lat="43.4276431" lon="10.6528645"><ele>240.39999999999998</ele><time>2026-04-18T10:31:59.289Z</time></trkpt><trkpt lat="43.4276757" lon="10.6529774"><ele>238.79999999999998</ele><time>2026-04-18T10:32:00.292Z</time></trkpt><trkpt lat="43.4276869" lon="10.6531029"><ele>237.2</ele><time>2026-04-18T10:32:01.295Z</time></trkpt><trkpt lat="43.4276778" lon="10.6532353"><ele>235.6</ele><time>2026-04-18T10:32:02.397Z</time></trkpt><trkpt lat="43.4276524" lon="10.6533611"><ele>234.0</ele><time>2026-04-18T10:32:03.413Z</time></trkpt><trkpt lat="43.4276097" lon="10.6534856"><ele>234.0</ele><time>2026-04-18T10:32:04.399Z</time></trkpt><trkpt lat="43.4275489" lon="10.6536081"><ele>233.99999999999997</ele><time>2026-04-18T10:32:05.402Z</time></trkpt><trkpt lat="43.4274784" lon="10.6537231"><ele>233.99999999999997</ele><time>2026-04-18T10:32:06.387Z</time></trkpt><trkpt lat="43.4274117" lon="10.6538239"><ele>234.0</ele><time>2026-04-18T10:32:07.376Z</time></trkpt><trkpt lat="43.4273524" lon="10.6539066"><ele>234.0</ele><time>2026-04-18T10:32:08.404Z</time></trkpt><trkpt lat="43.4273046" lon="10.6539776"><ele>232.2857142857143</ele><time>2026-04-18T10:32:09.41Z</time></trkpt><trkpt lat="43.4272661" lon="10.6540511"><ele>230.5714285714286</ele><time>2026-04-18T10:32:10.388Z</time></trkpt><trkpt lat="43.4272382" lon="10.6541332"><ele>228.85714285714286</ele><time>2026-04-18T10:32:11.384Z</time></trkpt><trkpt lat="43.427223" lon="10.6542229"><ele>227.14285714285717</ele><time>2026-04-18T10:32:12.396Z</time></trkpt><trkpt lat="43.4272184" lon="10.6543201"><ele>225.42857142857144</ele><time>2026-04-18T10:32:13.405Z</time></trkpt><trkpt lat="43.4272254" lon="10.6544247"><ele>223.71428571428572</ele><time>2026-04-18T10:32:14.381Z</time></trkpt><trkpt lat="43.4272477" lon="10.6545337"><ele>222.0</ele><time>2026-04-18T10:32:15.395Z</time></trkpt><trkpt lat="43.4272892" lon="10.6546339"><ele>219.6</ele><time>2026-04-18T10:32:16.376Z</time></trkpt><trkpt lat="43.4273462" lon="10.6547212"><ele>217.2</ele><time>2026-04-18T10:32:17.286Z</time></trkpt><trkpt lat="43.4274182" lon="10.6547926"><ele>214.8</ele><time>2026-04-18T10:32:18.39Z</time></trkpt><trkpt lat="43.4275041" lon="10.6548528"><ele>212.4</ele><time>2026-04-18T10:32:19.384Z</time></trkpt><trkpt lat="43.4276111" lon="10.654911"><ele>210.0</ele><time>2026-04-18T10:32:20.29Z</time></trkpt><trkpt lat="43.4277277" lon="10.6549775"><ele>210.0</ele><time>2026-04-18T10:32:21.29Z</time></trkpt><trkpt lat="43.4278398" lon="10.655037"><ele>210.0</ele><time>2026-04-18T10:32:22.387Z</time></trkpt><trkpt lat="43.4279521" lon="10.6551027"><ele>210.0</ele><time>2026-04-18T10:32:23.403Z</time></trkpt><trkpt lat="43.4280599" lon="10.6551711"><ele>210.0</ele><time>2026-04-18T10:32:24.381Z</time></trkpt><trkpt lat="43.4281626" lon="10.6552484"><ele>204.66666666666669</ele><time>2026-04-18T10:32:25.405Z</time></trkpt><trkpt lat="43.428262" lon="10.6553322"><ele>199.33333333333334</ele><time>2026-04-18T10:32:26.407Z</time></trkpt><trkpt lat="43.4284439" lon="10.6555194"><ele>194.0</ele><time>2026-04-18T10:32:28.326Z</time></trkpt><trkpt lat="43.4285163" lon="10.6556292"><ele>194.00000000000003</ele><time>2026-04-18T10:32:29.285Z</time></trkpt><trkpt lat="43.4285786" lon="10.6557395"><ele>194.0</ele><time>2026-04-18T10:32:30.292Z</time></trkpt><trkpt lat="43.4286345" lon="10.6558426"><ele>194.0</ele><time>2026-04-18T10:32:31.358Z</time></trkpt><trkpt lat="43.4286874" lon="10.6559329"><ele>194.0</ele><time>2026-04-18T10:32:32.405Z</time></trkpt><trkpt lat="43.4287439" lon="10.6560147"><ele>194.00000000000003</ele><time>2026-04-18T10:32:33.406Z</time></trkpt><trkpt lat="43.4288091" lon="10.6560803"><ele>194.0</ele><time>2026-04-18T10:32:34.404Z</time></trkpt><trkpt lat="43.428881" lon="10.6561315"><ele>192.33333333333334</ele><time>2026-04-18T10:32:35.397Z</time></trkpt><trkpt lat="43.4289593" lon="10.6561728"><ele>190.66666666666669</ele><time>2026-04-18T10:32:36.41Z</time></trkpt><trkpt lat="43.4290426" lon="10.6562037"><ele>189.0</ele><time>2026-04-18T10:32:37.409Z</time></trkpt><trkpt lat="43.4291274" lon="10.6562273"><ele>187.33333333333334</ele><time>2026-04-18T10:32:38.409Z</time></trkpt><trkpt lat="43.4292104" lon="10.6562608"><ele>185.66666666666669</ele><time>2026-04-18T10:32:39.381Z</time></trkpt><trkpt lat="43.4292813" lon="10.6563161"><ele>184.0</ele><time>2026-04-18T10:32:40.395Z</time></trkpt><trkpt lat="43.4293417" lon="10.6563888"><ele>184.0</ele><time>2026-04-18T10:32:41.387Z</time></trkpt><trkpt lat="43.4293864" lon="10.6564532"><ele>184.0</ele><time>2026-04-18T10:32:42.399Z</time></trkpt><trkpt lat="43.4294557" lon="10.6565641"><ele>184.0</ele><time>2026-04-18T10:32:44.385Z</time></trkpt><trkpt lat="43.4295177" lon="10.6566261"><ele>184.0</ele><time>2026-04-18T10:32:45.382Z</time></trkpt><trkpt lat="43.4295924" lon="10.6566864"><ele>184.0</ele><time>2026-04-18T10:32:46.398Z</time></trkpt><trkpt lat="43.4296922" lon="10.6567462"><ele>184.0</ele><time>2026-04-18T10:32:47.384Z</time></trkpt><trkpt lat="43.4298256" lon="10.6568236"><ele>184.0</ele><time>2026-04-18T10:32:48.394Z</time></trkpt><trkpt lat="43.4299774" lon="10.656913"><ele>184.0</ele><time>2026-04-18T10:32:49.393Z</time></trkpt><trkpt lat="43.4303092" lon="10.6571354"><ele>183.33333333333334</ele><time>2026-04-18T10:32:51.289Z</time></trkpt><trkpt lat="43.4304791" lon="10.6572499"><ele>182.66666666666666</ele><time>2026-04-18T10:32:52.386Z</time></trkpt><trkpt lat="43.4306503" lon="10.6573626"><ele>182.0</ele><time>2026-04-18T10:32:53.402Z</time></trkpt><trkpt lat="43.430823" lon="10.6574794"><ele>182.0</ele><time>2026-04-18T10:32:54.401Z</time></trkpt><trkpt lat="43.4309952" lon="10.6575936"><ele>182.0</ele><time>2026-04-18T10:32:55.403Z</time></trkpt><trkpt lat="43.4311649" lon="10.6577064"><ele>182.0</ele><time>2026-04-18T10:32:56.405Z</time></trkpt><trkpt lat="43.431338" lon="10.6578181"><ele>181.66666666666666</ele><time>2026-04-18T10:32:57.407Z</time></trkpt><trkpt lat="43.4315138" lon="10.657934"><ele>181.33333333333334</ele><time>2026-04-18T10:32:58.376Z</time></trkpt><trkpt lat="43.4316934" lon="10.6580512"><ele>181.0</ele><time>2026-04-18T10:32:59.389Z</time></trkpt><trkpt lat="43.4320561" lon="10.6582998"><ele>180.5</ele><time>2026-04-18T10:33:01.391Z</time></trkpt><trkpt lat="43.4324199" lon="10.6585503"><ele>180.0</ele><time>2026-04-18T10:33:03.288Z</time></trkpt><trkpt lat="43.4325885" lon="10.6586656"><ele>179.33333333333334</ele><time>2026-04-18T10:33:04.379Z</time></trkpt><trkpt lat="43.4327352" lon="10.6587695"><ele>178.66666666666669</ele><time>2026-04-18T10:33:05.285Z</time></trkpt><trkpt lat="43.4328663" lon="10.6588773"><ele>178.0</ele><time>2026-04-18T10:33:06.288Z</time></trkpt><trkpt lat="43.4329834" lon="10.6590258"><ele>177.75</ele><time>2026-04-18T10:33:07.28Z</time></trkpt><trkpt lat="43.4330792" lon="10.6591949"><ele>177.5</ele><time>2026-04-18T10:33:08.289Z</time></trkpt><trkpt lat="43.4331539" lon="10.6593493"><ele>177.25</ele><time>2026-04-18T10:33:09.321Z</time></trkpt><trkpt lat="43.4332318" lon="10.6594854"><ele>177.0</ele><time>2026-04-18T10:33:10.288Z</time></trkpt><trkpt lat="43.4333328" lon="10.6595954"><ele>177.0</ele><time>2026-04-18T10:33:11.286Z</time></trkpt><trkpt lat="43.4334551" lon="10.6596698"><ele>177.0</ele><time>2026-04-18T10:33:12.291Z</time></trkpt><trkpt lat="43.4336011" lon="10.6597209"><ele>177.0</ele><time>2026-04-18T10:33:13.29Z</time></trkpt><trkpt lat="43.4337634" lon="10.6597691"><ele>178.0</ele><time>2026-04-18T10:33:14.285Z</time></trkpt><trkpt lat="43.4339319" lon="10.6598218"><ele>179.0</ele><time>2026-04-18T10:33:15.287Z</time></trkpt><trkpt lat="43.434108" lon="10.6598808"><ele>180.0</ele><time>2026-04-18T10:33:16.283Z</time></trkpt><trkpt lat="43.4342929" lon="10.6599363"><ele>180.0</ele><time>2026-04-18T10:33:17.286Z</time></trkpt><trkpt lat="43.4344802" lon="10.6600205"><ele>180.0</ele><time>2026-04-18T10:33:18.285Z</time></trkpt><trkpt lat="43.4346637" lon="10.6601196"><ele>180.0</ele><time>2026-04-18T10:33:19.285Z</time></trkpt><trkpt lat="43.434841" lon="10.6602384"><ele>178.0</ele><time>2026-04-18T10:33:20.287Z</time></trkpt><trkpt lat="43.4350165" lon="10.6603675"><ele>176.0</ele><time>2026-04-18T10:33:21.286Z</time></trkpt><trkpt lat="43.435193" lon="10.660499"><ele>174.0</ele><time>2026-04-18T10:33:22.283Z</time></trkpt><trkpt lat="43.4353687" lon="10.6606345"><ele>175.0</ele><time>2026-04-18T10:33:23.282Z</time></trkpt><trkpt lat="43.4355404" lon="10.660771"><ele>176.0</ele><time>2026-04-18T10:33:24.286Z</time></trkpt><trkpt lat="43.4357047" lon="10.6608948"><ele>177.0</ele><time>2026-04-18T10:33:25.283Z</time></trkpt><trkpt lat="43.4358696" lon="10.6610124"><ele>175.33333333333334</ele><time>2026-04-18T10:33:26.288Z</time></trkpt><trkpt lat="43.4360349" lon="10.6611264"><ele>173.66666666666669</ele><time>2026-04-18T10:33:27.373Z</time></trkpt><trkpt lat="43.4361832" lon="10.6612472"><ele>172.0</ele><time>2026-04-18T10:33:28.377Z</time></trkpt><trkpt lat="43.4363373" lon="10.6613642"><ele>172.0</ele><time>2026-04-18T10:33:29.37Z</time></trkpt><trkpt lat="43.4364941" lon="10.6614812"><ele>172.0</ele><time>2026-04-18T10:33:30.374Z</time></trkpt><trkpt lat="43.4366629" lon="10.6616212"><ele>172.0</ele><time>2026-04-18T10:33:31.403Z</time></trkpt><trkpt lat="43.4368402" lon="10.6617167"><ele>172.0</ele><time>2026-04-18T10:33:32.408Z</time></trkpt><trkpt lat="43.437013" lon="10.6617962"><ele>172.0</ele><time>2026-04-18T10:33:33.374Z</time></trkpt><trkpt lat="43.4371911" lon="10.6618875"><ele>172.0</ele><time>2026-04-18T10:33:34.406Z</time></trkpt><trkpt lat="43.4373724" lon="10.6619487"><ele>170.33333333333334</ele><time>2026-04-18T10:33:35.393Z</time></trkpt><trkpt lat="43.4375535" lon="10.6620012"><ele>168.66666666666666</ele><time>2026-04-18T10:33:36.4Z</time></trkpt><trkpt lat="43.437738" lon="10.6620643"><ele>167.0</ele><time>2026-04-18T10:33:37.381Z</time></trkpt><trkpt lat="43.4379228" lon="10.6621305"><ele>168.0</ele><time>2026-04-18T10:33:38.383Z</time></trkpt><trkpt lat="43.4381066" lon="10.6621861"><ele>169.0</ele><time>2026-04-18T10:33:39.389Z</time></trkpt><trkpt lat="43.4382922" lon="10.662253"><ele>170.0</ele><time>2026-04-18T10:33:40.38Z</time></trkpt><trkpt lat="43.4384742" lon="10.6623239"><ele>170.0</ele><time>2026-04-18T10:33:41.403Z</time></trkpt><trkpt lat="43.4386478" lon="10.6624029"><ele>170.0</ele><time>2026-04-18T10:33:42.393Z</time></trkpt><trkpt lat="43.4389432" lon="10.6626171"><ele>169.5</ele><time>2026-04-18T10:33:44.381Z</time></trkpt><trkpt lat="43.4390743" lon="10.6627541"><ele>169.0</ele><time>2026-04-18T10:33:45.395Z</time></trkpt><trkpt lat="43.4393293" lon="10.6630934"><ele>169.0</ele><time>2026-04-18T10:33:47.384Z</time></trkpt><trkpt lat="43.439605" lon="10.6634576"><ele>169.0</ele><time>2026-04-18T10:33:49.387Z</time></trkpt><trkpt lat="43.4397266" lon="10.6636195"><ele>167.66666666666669</ele><time>2026-04-18T10:33:50.292Z</time></trkpt><trkpt lat="43.439846" lon="10.6637797"><ele>166.33333333333334</ele><time>2026-04-18T10:33:51.288Z</time></trkpt><trkpt lat="43.4399577" lon="10.6639299"><ele>165.0</ele><time>2026-04-18T10:33:52.288Z</time></trkpt><trkpt lat="43.4400688" lon="10.6640726"><ele>165.0</ele><time>2026-04-18T10:33:53.288Z</time></trkpt><trkpt lat="43.4401918" lon="10.6642192"><ele>165.0</ele><time>2026-04-18T10:33:54.295Z</time></trkpt><trkpt lat="43.4403275" lon="10.6643546"><ele>165.0</ele><time>2026-04-18T10:33:55.291Z</time></trkpt><trkpt lat="43.4404712" lon="10.6644795"><ele>164.0</ele><time>2026-04-18T10:33:56.382Z</time></trkpt><trkpt lat="43.4406232" lon="10.6645853"><ele>163.0</ele><time>2026-04-18T10:33:57.408Z</time></trkpt><trkpt lat="43.4407832" lon="10.6646692"><ele>162.0</ele><time>2026-04-18T10:33:58.405Z</time></trkpt><trkpt lat="43.4409502" lon="10.6647417"><ele>162.0</ele><time>2026-04-18T10:33:59.406Z</time></trkpt><trkpt lat="43.4411235" lon="10.6647997"><ele>162.0</ele><time>2026-04-18T10:34:00.411Z</time></trkpt><trkpt lat="43.4412965" lon="10.6648493"><ele>162.0</ele><time>2026-04-18T10:34:01.393Z</time></trkpt><trkpt lat="43.4414756" lon="10.6649077"><ele>161.66666666666666</ele><time>2026-04-18T10:34:02.39Z</time></trkpt><trkpt lat="43.441644" lon="10.6649612"><ele>161.33333333333331</ele><time>2026-04-18T10:34:03.389Z</time></trkpt><trkpt lat="43.4417987" lon="10.6650074"><ele>161.0</ele><time>2026-04-18T10:34:04.387Z</time></trkpt><trkpt lat="43.4419474" lon="10.665053"><ele>161.0</ele><time>2026-04-18T10:34:05.407Z</time></trkpt><trkpt lat="43.4420909" lon="10.6650937"><ele>161.0</ele><time>2026-04-18T10:34:06.382Z</time></trkpt><trkpt lat="43.4422359" lon="10.6651395"><ele>161.0</ele><time>2026-04-18T10:34:07.374Z</time></trkpt><trkpt lat="43.4423865" lon="10.6651869"><ele>160.33333333333331</ele><time>2026-04-18T10:34:08.404Z</time></trkpt><trkpt lat="43.4425417" lon="10.6652329"><ele>159.66666666666666</ele><time>2026-04-18T10:34:09.404Z</time></trkpt><trkpt lat="43.4427054" lon="10.6652856"><ele>159.0</ele><time>2026-04-18T10:34:10.401Z</time></trkpt><trkpt lat="43.4430501" lon="10.6653919"><ele>158.33333333333334</ele><time>2026-04-18T10:34:12.288Z</time></trkpt><trkpt lat="43.4432329" lon="10.6654499"><ele>157.66666666666669</ele><time>2026-04-18T10:34:13.291Z</time></trkpt><trkpt lat="43.4434161" lon="10.6655083"><ele>157.0</ele><time>2026-04-18T10:34:14.293Z</time></trkpt><trkpt lat="43.4435987" lon="10.6655653"><ele>157.0</ele><time>2026-04-18T10:34:15.293Z</time></trkpt><trkpt lat="43.4437824" lon="10.6656256"><ele>157.0</ele><time>2026-04-18T10:34:16.405Z</time></trkpt><trkpt lat="43.4439633" lon="10.6656905"><ele>157.0</ele><time>2026-04-18T10:34:17.406Z</time></trkpt><trkpt lat="43.4441375" lon="10.6657526"><ele>157.0</ele><time>2026-04-18T10:34:18.406Z</time></trkpt><trkpt lat="43.4443087" lon="10.6658262"><ele>157.0</ele><time>2026-04-18T10:34:19.386Z</time></trkpt><trkpt lat="43.444478" lon="10.665896"><ele>157.0</ele><time>2026-04-18T10:34:20.289Z</time></trkpt><trkpt lat="43.4446499" lon="10.6659658"><ele>156.66666666666669</ele><time>2026-04-18T10:34:21.292Z</time></trkpt><trkpt lat="43.4448181" lon="10.6660314"><ele>156.33333333333334</ele><time>2026-04-18T10:34:22.39Z</time></trkpt><trkpt lat="43.444986" lon="10.6661019"><ele>156.0</ele><time>2026-04-18T10:34:23.4Z</time></trkpt><trkpt lat="43.4451557" lon="10.6661719"><ele>154.5</ele><time>2026-04-18T10:34:24.398Z</time></trkpt><trkpt lat="43.445496" lon="10.6663181"><ele>153.0</ele><time>2026-04-18T10:34:26.406Z</time></trkpt><trkpt lat="43.445672" lon="10.6663915"><ele>153.0</ele><time>2026-04-18T10:34:27.407Z</time></trkpt><trkpt lat="43.4458536" lon="10.6664679"><ele>153.0</ele><time>2026-04-18T10:34:28.41Z</time></trkpt><trkpt lat="43.446038" lon="10.6665422"><ele>153.0</ele><time>2026-04-18T10:34:29.412Z</time></trkpt><trkpt lat="43.4462265" lon="10.6666179"><ele>152.33333333333334</ele><time>2026-04-18T10:34:30.38Z</time></trkpt><trkpt lat="43.446418" lon="10.6667006"><ele>151.66666666666669</ele><time>2026-04-18T10:34:31.288Z</time></trkpt><trkpt lat="43.4466117" lon="10.6667764"><ele>151.0</ele><time>2026-04-18T10:34:32.284Z</time></trkpt><trkpt lat="43.446805" lon="10.6668534"><ele>151.0</ele><time>2026-04-18T10:34:33.386Z</time></trkpt><trkpt lat="43.4470019" lon="10.6669339"><ele>151.0</ele><time>2026-04-18T10:34:34.276Z</time></trkpt><trkpt lat="43.4471966" lon="10.6670094"><ele>151.0</ele><time>2026-04-18T10:34:35.288Z</time></trkpt><trkpt lat="43.447393" lon="10.6670842"><ele>150.66666666666669</ele><time>2026-04-18T10:34:36.29Z</time></trkpt><trkpt lat="43.4475884" lon="10.6671587"><ele>150.33333333333334</ele><time>2026-04-18T10:34:37.286Z</time></trkpt><trkpt lat="43.4477857" lon="10.6672365"><ele>150.0</ele><time>2026-04-18T10:34:38.286Z</time></trkpt><trkpt lat="43.4479808" lon="10.6673176"><ele>150.0</ele><time>2026-04-18T10:34:39.287Z</time></trkpt><trkpt lat="43.4481643" lon="10.6673894"><ele>150.0</ele><time>2026-04-18T10:34:40.292Z</time></trkpt><trkpt lat="43.4483454" lon="10.6674557"><ele>150.0</ele><time>2026-04-18T10:34:41.43Z</time></trkpt><trkpt lat="43.4485302" lon="10.6675152"><ele>150.0</ele><time>2026-04-18T10:34:42.407Z</time></trkpt><trkpt lat="43.4487206" lon="10.6675612"><ele>150.0</ele><time>2026-04-18T10:34:43.413Z</time></trkpt><trkpt lat="43.4489021" lon="10.6675947"><ele>150.0</ele><time>2026-04-18T10:34:44.418Z</time></trkpt><trkpt lat="43.4490783" lon="10.6676161"><ele>150.33333333333334</ele><time>2026-04-18T10:34:45.425Z</time></trkpt><trkpt lat="43.4492537" lon="10.6676234"><ele>150.66666666666669</ele><time>2026-04-18T10:34:46.419Z</time></trkpt><trkpt lat="43.4494274" lon="10.6676037"><ele>151.0</ele><time>2026-04-18T10:34:47.421Z</time></trkpt><trkpt lat="43.4495944" lon="10.6675479"><ele>150.33333333333334</ele><time>2026-04-18T10:34:48.392Z</time></trkpt><trkpt lat="43.4497642" lon="10.667469"><ele>149.66666666666666</ele><time>2026-04-18T10:34:49.387Z</time></trkpt><trkpt lat="43.44993" lon="10.6673835"><ele>149.0</ele><time>2026-04-18T10:34:50.388Z</time></trkpt><trkpt lat="43.4500882" lon="10.6673104"><ele>149.0</ele><time>2026-04-18T10:34:51.293Z</time></trkpt><trkpt lat="43.4502499" lon="10.6672632"><ele>149.0</ele><time>2026-04-18T10:34:52.29Z</time></trkpt><trkpt lat="43.4504127" lon="10.6672351"><ele>149.0</ele><time>2026-04-18T10:34:53.352Z</time></trkpt><trkpt lat="43.4505791" lon="10.6672342"><ele>149.0</ele><time>2026-04-18T10:34:54.289Z</time></trkpt><trkpt lat="43.4507458" lon="10.6672662"><ele>149.0</ele><time>2026-04-18T10:34:55.42Z</time></trkpt><trkpt lat="43.4509133" lon="10.667303"><ele>149.0</ele><time>2026-04-18T10:34:56.401Z</time></trkpt><trkpt lat="43.4510825" lon="10.66734"><ele>149.0</ele><time>2026-04-18T10:34:57.425Z</time></trkpt><trkpt lat="43.4512532" lon="10.6673744"><ele>149.0</ele><time>2026-04-18T10:34:58.399Z</time></trkpt><trkpt lat="43.4514256" lon="10.6674084"><ele>149.0</ele><time>2026-04-18T10:34:59.417Z</time></trkpt><trkpt lat="43.4516012" lon="10.6674452"><ele>149.0</ele><time>2026-04-18T10:35:00.442Z</time></trkpt><trkpt lat="43.4519543" lon="10.6675202"><ele>149.0</ele><time>2026-04-18T10:35:02.292Z</time></trkpt><trkpt lat="43.4521366" lon="10.6675444"><ele>149.0</ele><time>2026-04-18T10:35:03.42Z</time></trkpt><trkpt lat="43.4523178" lon="10.6675595"><ele>149.0</ele><time>2026-04-18T10:35:04.411Z</time></trkpt><trkpt lat="43.4525036" lon="10.6675701"><ele>149.0</ele><time>2026-04-18T10:35:05.415Z</time></trkpt><trkpt lat="43.452877" lon="10.6675713"><ele>148.66666666666666</ele><time>2026-04-18T10:35:07.417Z</time></trkpt><trkpt lat="43.4530684" lon="10.6675675"><ele>148.33333333333334</ele><time>2026-04-18T10:35:08.411Z</time></trkpt><trkpt lat="43.4532585" lon="10.6675751"><ele>148.0</ele><time>2026-04-18T10:35:09.422Z</time></trkpt><trkpt lat="43.4534501" lon="10.6675909"><ele>148.0</ele><time>2026-04-18T10:35:10.431Z</time></trkpt><trkpt lat="43.453643" lon="10.6676167"><ele>148.0</ele><time>2026-04-18T10:35:11.411Z</time></trkpt><trkpt lat="43.4538337" lon="10.667645"><ele>148.0</ele><time>2026-04-18T10:35:12.416Z</time></trkpt><trkpt lat="43.4542223" lon="10.6677142"><ele>147.0</ele><time>2026-04-18T10:35:14.289Z</time></trkpt><trkpt lat="43.4544168" lon="10.6677521"><ele>146.0</ele><time>2026-04-18T10:35:15.29Z</time></trkpt><trkpt lat="43.4546115" lon="10.667792"><ele>145.0</ele><time>2026-04-18T10:35:16.289Z</time></trkpt><trkpt lat="43.4547934" lon="10.6678281"><ele>144.66666666666669</ele><time>2026-04-18T10:35:17.29Z</time></trkpt><trkpt lat="43.4549684" lon="10.6678587"><ele>144.33333333333334</ele><time>2026-04-18T10:35:18.288Z</time></trkpt><trkpt lat="43.4551369" lon="10.6678876"><ele>144.0</ele><time>2026-04-18T10:35:19.291Z</time></trkpt><trkpt lat="43.4552974" lon="10.667917"><ele>143.66666666666666</ele><time>2026-04-18T10:35:20.285Z</time></trkpt><trkpt lat="43.4554633" lon="10.6679496"><ele>143.33333333333331</ele><time>2026-04-18T10:35:21.288Z</time></trkpt><trkpt lat="43.4556363" lon="10.6679994"><ele>143.0</ele><time>2026-04-18T10:35:22.288Z</time></trkpt><trkpt lat="43.4558156" lon="10.6680752"><ele>143.0</ele><time>2026-04-18T10:35:23.285Z</time></trkpt><trkpt lat="43.4559854" lon="10.6681664"><ele>143.0</ele><time>2026-04-18T10:35:24.291Z</time></trkpt><trkpt lat="43.4561477" lon="10.6682681"><ele>143.0</ele><time>2026-04-18T10:35:25.291Z</time></trkpt><trkpt lat="43.4563058" lon="10.6683796"><ele>142.66666666666666</ele><time>2026-04-18T10:35:26.289Z</time></trkpt><trkpt lat="43.4564667" lon="10.6684916"><ele>142.33333333333334</ele><time>2026-04-18T10:35:27.291Z</time></trkpt><trkpt lat="43.4566311" lon="10.668607"><ele>142.0</ele><time>2026-04-18T10:35:28.288Z</time></trkpt><trkpt lat="43.4567969" lon="10.6687224"><ele>141.66666666666669</ele><time>2026-04-18T10:35:29.386Z</time></trkpt><trkpt lat="43.4569662" lon="10.6688401"><ele>141.33333333333334</ele><time>2026-04-18T10:35:30.412Z</time></trkpt><trkpt lat="43.4571329" lon="10.6689652"><ele>141.0</ele><time>2026-04-18T10:35:31.396Z</time></trkpt><trkpt lat="43.4573048" lon="10.6690926"><ele>140.66666666666666</ele><time>2026-04-18T10:35:32.42Z</time></trkpt><trkpt lat="43.4574779" lon="10.6692206"><ele>140.33333333333331</ele><time>2026-04-18T10:35:33.409Z</time></trkpt><trkpt lat="43.4576528" lon="10.669349"><ele>140.0</ele><time>2026-04-18T10:35:34.423Z</time></trkpt><trkpt lat="43.4578266" lon="10.6694803"><ele>139.66666666666666</ele><time>2026-04-18T10:35:35.358Z</time></trkpt><trkpt lat="43.4580028" lon="10.6696088"><ele>139.33333333333334</ele><time>2026-04-18T10:35:36.412Z</time></trkpt><trkpt lat="43.4581781" lon="10.669735"><ele>139.0</ele><time>2026-04-18T10:35:37.422Z</time></trkpt><trkpt lat="43.458346" lon="10.6698537"><ele>139.0</ele><time>2026-04-18T10:35:38.415Z</time></trkpt><trkpt lat="43.4584982" lon="10.6699652"><ele>139.0</ele><time>2026-04-18T10:35:39.446Z</time></trkpt><trkpt lat="43.4586508" lon="10.6700735"><ele>139.0</ele><time>2026-04-18T10:35:40.417Z</time></trkpt><trkpt lat="43.4588055" lon="10.6701815"><ele>137.66666666666669</ele><time>2026-04-18T10:35:41.407Z</time></trkpt><trkpt lat="43.4589603" lon="10.6702956"><ele>136.33333333333334</ele><time>2026-04-18T10:35:42.378Z</time></trkpt><trkpt lat="43.4591172" lon="10.6704077"><ele>135.0</ele><time>2026-04-18T10:35:43.414Z</time></trkpt><trkpt lat="43.4592759" lon="10.6705162"><ele>135.0</ele><time>2026-04-18T10:35:44.412Z</time></trkpt><trkpt lat="43.459436" lon="10.6706261"><ele>135.0</ele><time>2026-04-18T10:35:45.415Z</time></trkpt><trkpt lat="43.4595909" lon="10.6707352"><ele>135.0</ele><time>2026-04-18T10:35:46.4Z</time></trkpt><trkpt lat="43.4597478" lon="10.6708477"><ele>135.66666666666666</ele><time>2026-04-18T10:35:47.423Z</time></trkpt><trkpt lat="43.4599063" lon="10.6709603"><ele>136.33333333333331</ele><time>2026-04-18T10:35:48.424Z</time></trkpt><trkpt lat="43.4600687" lon="10.6710777"><ele>137.0</ele><time>2026-04-18T10:35:49.428Z</time></trkpt><trkpt lat="43.4602343" lon="10.6711976"><ele>134.5</ele><time>2026-04-18T10:35:50.416Z</time></trkpt><trkpt lat="43.4605786" lon="10.6714446"><ele>132.0</ele><time>2026-04-18T10:35:52.289Z</time></trkpt><trkpt lat="43.4607558" lon="10.6715705"><ele>132.0</ele><time>2026-04-18T10:35:53.29Z</time></trkpt><trkpt lat="43.4609342" lon="10.6716993"><ele>132.0</ele><time>2026-04-18T10:35:54.417Z</time></trkpt><trkpt lat="43.4611109" lon="10.671826"><ele>132.0</ele><time>2026-04-18T10:35:55.39Z</time></trkpt><trkpt lat="43.4612871" lon="10.6719545"><ele>131.66666666666666</ele><time>2026-04-18T10:35:56.423Z</time></trkpt><trkpt lat="43.4614592" lon="10.672081"><ele>131.33333333333331</ele><time>2026-04-18T10:35:57.423Z</time></trkpt><trkpt lat="43.4616322" lon="10.6722067"><ele>131.0</ele><time>2026-04-18T10:35:58.419Z</time></trkpt><trkpt lat="43.461804" lon="10.6723265"><ele>131.0</ele><time>2026-04-18T10:35:59.416Z</time></trkpt><trkpt lat="43.4619696" lon="10.6724456"><ele>131.0</ele><time>2026-04-18T10:36:00.39Z</time></trkpt><trkpt lat="43.4621335" lon="10.6725625"><ele>131.0</ele><time>2026-04-18T10:36:01.415Z</time></trkpt><trkpt lat="43.4622961" lon="10.67268"><ele>130.66666666666666</ele><time>2026-04-18T10:36:02.415Z</time></trkpt><trkpt lat="43.4624602" lon="10.6727954"><ele>130.33333333333334</ele><time>2026-04-18T10:36:03.423Z</time></trkpt><trkpt lat="43.4626235" lon="10.672913"><ele>130.0</ele><time>2026-04-18T10:36:04.414Z</time></trkpt><trkpt lat="43.462789" lon="10.6730343"><ele>130.66666666666669</ele><time>2026-04-18T10:36:05.418Z</time></trkpt><trkpt lat="43.4629558" lon="10.6731514"><ele>131.33333333333334</ele><time>2026-04-18T10:36:06.388Z</time></trkpt><trkpt lat="43.4631258" lon="10.6732723"><ele>132.0</ele><time>2026-04-18T10:36:07.425Z</time></trkpt><trkpt lat="43.4632967" lon="10.6733931"><ele>132.0</ele><time>2026-04-18T10:36:08.422Z</time></trkpt><trkpt lat="43.4634682" lon="10.6735143"><ele>132.0</ele><time>2026-04-18T10:36:09.42Z</time></trkpt><trkpt lat="43.463642" lon="10.6736402"><ele>132.0</ele><time>2026-04-18T10:36:10.42Z</time></trkpt><trkpt lat="43.4638136" lon="10.6737651"><ele>130.66666666666666</ele><time>2026-04-18T10:36:11.408Z</time></trkpt><trkpt lat="43.463989" lon="10.6738942"><ele>129.33333333333331</ele><time>2026-04-18T10:36:12.345Z</time></trkpt><trkpt lat="43.4641652" lon="10.6740204"><ele>128.0</ele><time>2026-04-18T10:36:13.416Z</time></trkpt><trkpt lat="43.4643411" lon="10.6741515"><ele>128.0</ele><time>2026-04-18T10:36:14.417Z</time></trkpt><trkpt lat="43.4645084" lon="10.6742893"><ele>128.0</ele><time>2026-04-18T10:36:15.423Z</time></trkpt><trkpt lat="43.4646705" lon="10.6744407"><ele>128.0</ele><time>2026-04-18T10:36:16.428Z</time></trkpt><trkpt lat="43.4648245" lon="10.674613"><ele>127.33333333333333</ele><time>2026-04-18T10:36:17.429Z</time></trkpt><trkpt lat="43.4649762" lon="10.6747948"><ele>126.66666666666666</ele><time>2026-04-18T10:36:18.431Z</time></trkpt><trkpt lat="43.4651162" lon="10.6749849"><ele>126.0</ele><time>2026-04-18T10:36:19.43Z</time></trkpt><trkpt lat="43.4652414" lon="10.6751908"><ele>125.5</ele><time>2026-04-18T10:36:20.423Z</time></trkpt><trkpt lat="43.4654443" lon="10.6756498"><ele>125.0</ele><time>2026-04-18T10:36:22.288Z</time></trkpt><trkpt lat="43.4655313" lon="10.6758772"><ele>126.5</ele><time>2026-04-18T10:36:23.417Z</time></trkpt><trkpt lat="43.4656154" lon="10.6761013"><ele>128.0</ele><time>2026-04-18T10:36:24.411Z</time></trkpt><trkpt lat="43.4657875" lon="10.6765599"><ele>128.0</ele><time>2026-04-18T10:36:26.29Z</time></trkpt><trkpt lat="43.4658769" lon="10.6767949"><ele>128.0</ele><time>2026-04-18T10:36:27.295Z</time></trkpt><trkpt lat="43.4659682" lon="10.6770327"><ele>128.0</ele><time>2026-04-18T10:36:28.401Z</time></trkpt><trkpt lat="43.4660601" lon="10.6772709"><ele>128.5</ele><time>2026-04-18T10:36:29.419Z</time></trkpt><trkpt lat="43.4661534" lon="10.6775162"><ele>129.0</ele><time>2026-04-18T10:36:30.399Z</time></trkpt><trkpt lat="43.4663394" lon="10.6780005"><ele>129.0</ele><time>2026-04-18T10:36:32.292Z</time></trkpt><trkpt lat="43.4664337" lon="10.678238"><ele>129.0</ele><time>2026-04-18T10:36:33.292Z</time></trkpt><trkpt lat="43.4665294" lon="10.6784691"><ele>129.0</ele><time>2026-04-18T10:36:34.291Z</time></trkpt><trkpt lat="43.4666318" lon="10.6787036"><ele>126.33333333333334</ele><time>2026-04-18T10:36:35.292Z</time></trkpt><trkpt lat="43.4667348" lon="10.6789242"><ele>123.66666666666667</ele><time>2026-04-18T10:36:36.291Z</time></trkpt><trkpt lat="43.4668418" lon="10.679139"><ele>121.0</ele><time>2026-04-18T10:36:37.419Z</time></trkpt><trkpt lat="43.4669552" lon="10.6793465"><ele>121.0</ele><time>2026-04-18T10:36:38.426Z</time></trkpt><trkpt lat="43.4670705" lon="10.6795499"><ele>121.0</ele><time>2026-04-18T10:36:39.43Z</time></trkpt><trkpt lat="43.4671871" lon="10.6797528"><ele>121.0</ele><time>2026-04-18T10:36:40.42Z</time></trkpt><trkpt lat="43.4673019" lon="10.6799473"><ele>121.0</ele><time>2026-04-18T10:36:41.417Z</time></trkpt><trkpt lat="43.4674179" lon="10.6801463"><ele>121.0</ele><time>2026-04-18T10:36:42.422Z</time></trkpt><trkpt lat="43.4675372" lon="10.6803485"><ele>121.0</ele><time>2026-04-18T10:36:43.433Z</time></trkpt><trkpt lat="43.4676591" lon="10.6805547"><ele>120.33333333333334</ele><time>2026-04-18T10:36:44.409Z</time></trkpt><trkpt lat="43.4677805" lon="10.6807652"><ele>119.66666666666666</ele><time>2026-04-18T10:36:45.42Z</time></trkpt><trkpt lat="43.4679053" lon="10.6809732"><ele>119.0</ele><time>2026-04-18T10:36:46.427Z</time></trkpt><trkpt lat="43.4680322" lon="10.6811825"><ele>121.33333333333333</ele><time>2026-04-18T10:36:47.412Z</time></trkpt><trkpt lat="43.4681541" lon="10.6813981"><ele>123.66666666666666</ele><time>2026-04-18T10:36:48.423Z</time></trkpt><trkpt lat="43.4682759" lon="10.6816145"><ele>126.0</ele><time>2026-04-18T10:36:49.417Z</time></trkpt><trkpt lat="43.4683946" lon="10.6818286"><ele>124.0</ele><time>2026-04-18T10:36:50.408Z</time></trkpt><trkpt lat="43.4686174" lon="10.6822345"><ele>122.0</ele><time>2026-04-18T10:36:52.291Z</time></trkpt><trkpt lat="43.4687038" lon="10.6824461"><ele>122.0</ele><time>2026-04-18T10:36:53.415Z</time></trkpt><trkpt lat="43.4687569" lon="10.6826772"><ele>122.0</ele><time>2026-04-18T10:36:54.421Z</time></trkpt><trkpt lat="43.4687718" lon="10.6829151"><ele>122.0</ele><time>2026-04-18T10:36:55.43Z</time></trkpt><trkpt lat="43.4687559" lon="10.6831436"><ele>121.5</ele><time>2026-04-18T10:36:56.422Z</time></trkpt><trkpt lat="43.4687341" lon="10.6833489"><ele>121.0</ele><time>2026-04-18T10:36:57.426Z</time></trkpt><trkpt lat="43.4687142" lon="10.683533"><ele>120.5</ele><time>2026-04-18T10:36:58.361Z</time></trkpt><trkpt lat="43.46871" lon="10.6837067"><ele>120.0</ele><time>2026-04-18T10:36:59.398Z</time></trkpt><trkpt lat="43.4687251" lon="10.6838802"><ele>119.0</ele><time>2026-04-18T10:37:00.426Z</time></trkpt><trkpt lat="43.4688424" lon="10.6842193"><ele>118.0</ele><time>2026-04-18T10:37:02.291Z</time></trkpt><trkpt lat="43.4689396" lon="10.6843647"><ele>117.0</ele><time>2026-04-18T10:37:03.423Z</time></trkpt><trkpt lat="43.4690629" lon="10.6845022"><ele>117.0</ele><time>2026-04-18T10:37:04.386Z</time></trkpt><trkpt lat="43.4692102" lon="10.6846348"><ele>117.0</ele><time>2026-04-18T10:37:05.293Z</time></trkpt><trkpt lat="43.469363" lon="10.6847728"><ele>117.0</ele><time>2026-04-18T10:37:06.423Z</time></trkpt><trkpt lat="43.4695162" lon="10.6849086"><ele>115.66666666666666</ele><time>2026-04-18T10:37:07.405Z</time></trkpt><trkpt lat="43.46968" lon="10.6850369"><ele>114.33333333333333</ele><time>2026-04-18T10:37:08.398Z</time></trkpt><trkpt lat="43.4698447" lon="10.6851685"><ele>113.0</ele><time>2026-04-18T10:37:09.424Z</time></trkpt><trkpt lat="43.4700124" lon="10.6853078"><ele>113.0</ele><time>2026-04-18T10:37:10.421Z</time></trkpt><trkpt lat="43.470188" lon="10.6854395"><ele>113.0</ele><time>2026-04-18T10:37:11.414Z</time></trkpt><trkpt lat="43.4705431" lon="10.6856769"><ele>113.33333333333333</ele><time>2026-04-18T10:37:13.287Z</time></trkpt><trkpt lat="43.470717" lon="10.6857839"><ele>113.66666666666666</ele><time>2026-04-18T10:37:14.289Z</time></trkpt><trkpt lat="43.4708912" lon="10.685894"><ele>114.0</ele><time>2026-04-18T10:37:15.287Z</time></trkpt><trkpt lat="43.4710637" lon="10.6860197"><ele>113.66666666666666</ele><time>2026-04-18T10:37:16.291Z</time></trkpt><trkpt lat="43.4712319" lon="10.6861611"><ele>113.33333333333333</ele><time>2026-04-18T10:37:17.293Z</time></trkpt><trkpt lat="43.4713975" lon="10.6863201"><ele>113.0</ele><time>2026-04-18T10:37:18.288Z</time></trkpt><trkpt lat="43.4715509" lon="10.6864957"><ele>113.0</ele><time>2026-04-18T10:37:19.293Z</time></trkpt><trkpt lat="43.4716973" lon="10.6866845"><ele>113.0</ele><time>2026-04-18T10:37:20.417Z</time></trkpt><trkpt lat="43.4719354" lon="10.6870656"><ele>113.0</ele><time>2026-04-18T10:37:22.289Z</time></trkpt><trkpt lat="43.4720437" lon="10.6872702"><ele>113.0</ele><time>2026-04-18T10:37:23.415Z</time></trkpt><trkpt lat="43.472148" lon="10.6874784"><ele>113.0</ele><time>2026-04-18T10:37:24.382Z</time></trkpt><trkpt lat="43.4722506" lon="10.6876892"><ele>112.0</ele><time>2026-04-18T10:37:25.434Z</time></trkpt><trkpt lat="43.4723478" lon="10.6879034"><ele>111.0</ele><time>2026-04-18T10:37:26.432Z</time></trkpt><trkpt lat="43.4724465" lon="10.688122"><ele>110.0</ele><time>2026-04-18T10:37:27.425Z</time></trkpt><trkpt lat="43.4725436" lon="10.6883428"><ele>110.0</ele><time>2026-04-18T10:37:28.397Z</time></trkpt><trkpt lat="43.4726399" lon="10.6885654"><ele>110.0</ele><time>2026-04-18T10:37:29.417Z</time></trkpt><trkpt lat="43.4727333" lon="10.6887903"><ele>110.0</ele><time>2026-04-18T10:37:30.427Z</time></trkpt><trkpt lat="43.4728243" lon="10.6890147"><ele>109.0</ele><time>2026-04-18T10:37:31.423Z</time></trkpt><trkpt lat="43.4729092" lon="10.6892313"><ele>108.0</ele><time>2026-04-18T10:37:32.394Z</time></trkpt><trkpt lat="43.4730763" lon="10.6896601"><ele>108.0</ele><time>2026-04-18T10:37:34.284Z</time></trkpt><trkpt lat="43.4731585" lon="10.6898724"><ele>108.0</ele><time>2026-04-18T10:37:35.428Z</time></trkpt><trkpt lat="43.4732396" lon="10.6900856"><ele>108.0</ele><time>2026-04-18T10:37:36.428Z</time></trkpt><trkpt lat="43.4733219" lon="10.6902985"><ele>108.0</ele><time>2026-04-18T10:37:37.421Z</time></trkpt><trkpt lat="43.4734051" lon="10.6905124"><ele>108.0</ele><time>2026-04-18T10:37:38.423Z</time></trkpt><trkpt lat="43.4734889" lon="10.6907288"><ele>108.0</ele><time>2026-04-18T10:37:39.424Z</time></trkpt><trkpt lat="43.4735763" lon="10.6909463"><ele>108.0</ele><time>2026-04-18T10:37:40.42Z</time></trkpt><trkpt lat="43.4736608" lon="10.6911655"><ele>108.0</ele><time>2026-04-18T10:37:41.423Z</time></trkpt><trkpt lat="43.4737443" lon="10.6913923"><ele>108.0</ele><time>2026-04-18T10:37:42.431Z</time></trkpt><trkpt lat="43.4738268" lon="10.6916201"><ele>108.33333333333334</ele><time>2026-04-18T10:37:43.418Z</time></trkpt><trkpt lat="43.4739114" lon="10.6918481"><ele>108.66666666666667</ele><time>2026-04-18T10:37:44.392Z</time></trkpt><trkpt lat="43.473997" lon="10.692081"><ele>109.0</ele><time>2026-04-18T10:37:45.41Z</time></trkpt><trkpt lat="43.4740851" lon="10.6923187"><ele>109.0</ele><time>2026-04-18T10:37:46.422Z</time></trkpt><trkpt lat="43.4741734" lon="10.6925532"><ele>109.0</ele><time>2026-04-18T10:37:47.422Z</time></trkpt><trkpt lat="43.4742604" lon="10.6927876"><ele>109.0</ele><time>2026-04-18T10:37:48.426Z</time></trkpt><trkpt lat="43.4744456" lon="10.6932613"><ele>110.0</ele><time>2026-04-18T10:37:50.427Z</time></trkpt><trkpt lat="43.4745327" lon="10.6934981"><ele>111.0</ele><time>2026-04-18T10:37:51.415Z</time></trkpt><trkpt lat="43.4747123" lon="10.6939734"><ele>111.0</ele><time>2026-04-18T10:37:53.287Z</time></trkpt><trkpt lat="43.4748057" lon="10.6942097"><ele>111.0</ele><time>2026-04-18T10:37:54.294Z</time></trkpt><trkpt lat="43.4749063" lon="10.6944408"><ele>111.0</ele><time>2026-04-18T10:37:55.428Z</time></trkpt><trkpt lat="43.4750173" lon="10.6946635"><ele>108.66666666666666</ele><time>2026-04-18T10:37:56.419Z</time></trkpt><trkpt lat="43.4751332" lon="10.6948827"><ele>106.33333333333333</ele><time>2026-04-18T10:37:57.335Z</time></trkpt><trkpt lat="43.4752494" lon="10.6950996"><ele>104.0</ele><time>2026-04-18T10:37:58.424Z</time></trkpt><trkpt lat="43.4753672" lon="10.6953169"><ele>104.66666666666666</ele><time>2026-04-18T10:37:59.408Z</time></trkpt><trkpt lat="43.4754861" lon="10.6955333"><ele>105.33333333333334</ele><time>2026-04-18T10:38:00.417Z</time></trkpt><trkpt lat="43.4756033" lon="10.6957462"><ele>106.0</ele><time>2026-04-18T10:38:01.42Z</time></trkpt><trkpt lat="43.4757229" lon="10.6959605"><ele>104.66666666666667</ele><time>2026-04-18T10:38:02.417Z</time></trkpt><trkpt lat="43.4758435" lon="10.6961761"><ele>103.33333333333334</ele><time>2026-04-18T10:38:03.423Z</time></trkpt><trkpt lat="43.4759648" lon="10.6963855"><ele>102.0</ele><time>2026-04-18T10:38:04.433Z</time></trkpt><trkpt lat="43.4760871" lon="10.6965946"><ele>102.0</ele><time>2026-04-18T10:38:05.417Z</time></trkpt><trkpt lat="43.4762118" lon="10.6968023"><ele>102.0</ele><time>2026-04-18T10:38:06.424Z</time></trkpt><trkpt lat="43.4763345" lon="10.6969995"><ele>102.0</ele><time>2026-04-18T10:38:07.383Z</time></trkpt><trkpt lat="43.4764575" lon="10.6971767"><ele>101.5</ele><time>2026-04-18T10:38:08.423Z</time></trkpt><trkpt lat="43.4765733" lon="10.697328"><ele>101.0</ele><time>2026-04-18T10:38:09.425Z</time></trkpt><trkpt lat="43.4766818" lon="10.6974683"><ele>100.5</ele><time>2026-04-18T10:38:10.408Z</time></trkpt><trkpt lat="43.4767827" lon="10.6976003"><ele>100.0</ele><time>2026-04-18T10:38:11.417Z</time></trkpt><trkpt lat="43.4768794" lon="10.6977255"><ele>99.25</ele><time>2026-04-18T10:38:12.41Z</time></trkpt><trkpt lat="43.4769724" lon="10.6978414"><ele>98.5</ele><time>2026-04-18T10:38:13.405Z</time></trkpt><trkpt lat="43.4770594" lon="10.6979494"><ele>97.75</ele><time>2026-04-18T10:38:14.418Z</time></trkpt><trkpt lat="43.4771395" lon="10.6980493"><ele>97.0</ele><time>2026-04-18T10:38:15.42Z</time></trkpt><trkpt lat="43.4772164" lon="10.6981482"><ele>96.83333333333334</ele><time>2026-04-18T10:38:16.426Z</time></trkpt><trkpt lat="43.4772853" lon="10.6982398"><ele>96.66666666666667</ele><time>2026-04-18T10:38:17.42Z</time></trkpt><trkpt lat="43.4773546" lon="10.6983251"><ele>96.5</ele><time>2026-04-18T10:38:18.428Z</time></trkpt><trkpt lat="43.4774206" lon="10.6984029"><ele>96.33333333333334</ele><time>2026-04-18T10:38:19.43Z</time></trkpt><trkpt lat="43.4774848" lon="10.6984566"><ele>96.16666666666667</ele><time>2026-04-18T10:38:20.421Z</time></trkpt><trkpt lat="43.4775473" lon="10.6984765"><ele>96.0</ele><time>2026-04-18T10:38:21.417Z</time></trkpt><trkpt lat="43.4776601" lon="10.6983698"><ele>96.0</ele><time>2026-04-18T10:38:23.289Z</time></trkpt><trkpt lat="43.4777314" lon="10.6982595"><ele>96.0</ele><time>2026-04-18T10:38:24.419Z</time></trkpt><trkpt lat="43.477827" lon="10.698137"><ele>96.0</ele><time>2026-04-18T10:38:25.421Z</time></trkpt><trkpt lat="43.4779526" lon="10.6980222"><ele>96.0</ele><time>2026-04-18T10:38:26.423Z</time></trkpt><trkpt lat="43.478095" lon="10.6979108"><ele>96.0</ele><time>2026-04-18T10:38:27.417Z</time></trkpt><trkpt lat="43.4782455" lon="10.6977891"><ele>96.0</ele><time>2026-04-18T10:38:28.421Z</time></trkpt><trkpt lat="43.4783849" lon="10.6976785"><ele>96.0</ele><time>2026-04-18T10:38:29.432Z</time></trkpt><trkpt lat="43.4785184" lon="10.6975686"><ele>96.5</ele><time>2026-04-18T10:38:30.415Z</time></trkpt><trkpt lat="43.4786382" lon="10.6974612"><ele>97.0</ele><time>2026-04-18T10:38:31.423Z</time></trkpt><trkpt lat="43.4787383" lon="10.6973329"><ele>97.5</ele><time>2026-04-18T10:38:32.438Z</time></trkpt><trkpt lat="43.4788143" lon="10.6971705"><ele>98.0</ele><time>2026-04-18T10:38:33.431Z</time></trkpt><trkpt lat="43.4788713" lon="10.696977"><ele>101.0</ele><time>2026-04-18T10:38:34.428Z</time></trkpt><trkpt lat="43.4789182" lon="10.6967615"><ele>104.0</ele><time>2026-04-18T10:38:35.418Z</time></trkpt><trkpt lat="43.4790023" lon="10.696315"><ele>104.33333333333333</ele><time>2026-04-18T10:38:37.427Z</time></trkpt><trkpt lat="43.4790525" lon="10.696086"><ele>104.66666666666666</ele><time>2026-04-18T10:38:38.42Z</time></trkpt><trkpt lat="43.4791101" lon="10.6958609"><ele>105.0</ele><time>2026-04-18T10:38:39.413Z</time></trkpt><trkpt lat="43.4791724" lon="10.6956353"><ele>104.0</ele><time>2026-04-18T10:38:40.421Z</time></trkpt><trkpt lat="43.4793173" lon="10.6952101"><ele>103.0</ele><time>2026-04-18T10:38:42.291Z</time></trkpt><trkpt lat="43.4794053" lon="10.695006"><ele>103.0</ele><time>2026-04-18T10:38:43.418Z</time></trkpt><trkpt lat="43.4795025" lon="10.6948124"><ele>103.0</ele><time>2026-04-18T10:38:44.431Z</time></trkpt><trkpt lat="43.4796035" lon="10.6946395"><ele>103.0</ele><time>2026-04-18T10:38:45.448Z</time></trkpt><trkpt lat="43.4797134" lon="10.6944733"><ele>104.0</ele><time>2026-04-18T10:38:46.426Z</time></trkpt><trkpt lat="43.4798221" lon="10.6943212"><ele>105.0</ele><time>2026-04-18T10:38:47.422Z</time></trkpt><trkpt lat="43.4799293" lon="10.6941809"><ele>106.0</ele><time>2026-04-18T10:38:48.418Z</time></trkpt><trkpt lat="43.4800379" lon="10.6940528"><ele>107.0</ele><time>2026-04-18T10:38:49.416Z</time></trkpt><trkpt lat="43.4801551" lon="10.6939373"><ele>107.0</ele><time>2026-04-18T10:38:50.436Z</time></trkpt><trkpt lat="43.4802787" lon="10.6938521"><ele>107.0</ele><time>2026-04-18T10:38:51.427Z</time></trkpt><trkpt lat="43.4805236" lon="10.6937207"><ele>107.0</ele><time>2026-04-18T10:38:53.294Z</time></trkpt><trkpt lat="43.4806299" lon="10.6935961"><ele>106.66666666666666</ele><time>2026-04-18T10:38:54.42Z</time></trkpt><trkpt lat="43.4807242" lon="10.6934363"><ele>106.33333333333334</ele><time>2026-04-18T10:38:55.416Z</time></trkpt><trkpt lat="43.4808059" lon="10.6932544"><ele>106.0</ele><time>2026-04-18T10:38:56.413Z</time></trkpt><trkpt lat="43.4809538" lon="10.6928699"><ele>106.33333333333334</ele><time>2026-04-18T10:38:58.431Z</time></trkpt><trkpt lat="43.481004" lon="10.6926569"><ele>106.66666666666666</ele><time>2026-04-18T10:38:59.417Z</time></trkpt><trkpt lat="43.4810358" lon="10.6924284"><ele>107.0</ele><time>2026-04-18T10:39:00.426Z</time></trkpt><trkpt lat="43.4810688" lon="10.692193"><ele>107.0</ele><time>2026-04-18T10:39:01.43Z</time></trkpt><trkpt lat="43.4811083" lon="10.6919605"><ele>107.0</ele><time>2026-04-18T10:39:02.405Z</time></trkpt><trkpt lat="43.4811498" lon="10.6917368"><ele>107.0</ele><time>2026-04-18T10:39:03.424Z</time></trkpt><trkpt lat="43.481191" lon="10.6915151"><ele>107.66666666666666</ele><time>2026-04-18T10:39:04.431Z</time></trkpt><trkpt lat="43.4812306" lon="10.6912932"><ele>108.33333333333334</ele><time>2026-04-18T10:39:05.424Z</time></trkpt><trkpt lat="43.4812718" lon="10.6910715"><ele>109.0</ele><time>2026-04-18T10:39:06.421Z</time></trkpt><trkpt lat="43.4813123" lon="10.6908573"><ele>109.66666666666667</ele><time>2026-04-18T10:39:07.418Z</time></trkpt><trkpt lat="43.4813528" lon="10.6906411"><ele>110.33333333333334</ele><time>2026-04-18T10:39:08.418Z</time></trkpt><trkpt lat="43.4813916" lon="10.690423"><ele>111.0</ele><time>2026-04-18T10:39:09.413Z</time></trkpt><trkpt lat="43.4814466" lon="10.6899735"><ele>111.0</ele><time>2026-04-18T10:39:11.415Z</time></trkpt><trkpt lat="43.4814494" lon="10.6897458"><ele>111.0</ele><time>2026-04-18T10:39:12.436Z</time></trkpt><trkpt lat="43.4814263" lon="10.6893053"><ele>112.0</ele><time>2026-04-18T10:39:14.414Z</time></trkpt><trkpt lat="43.4814085" lon="10.6890851"><ele>113.0</ele><time>2026-04-18T10:39:15.421Z</time></trkpt><trkpt lat="43.481389" lon="10.6888681"><ele>114.0</ele><time>2026-04-18T10:39:16.434Z</time></trkpt><trkpt lat="43.48137" lon="10.6886532"><ele>115.0</ele><time>2026-04-18T10:39:17.418Z</time></trkpt><trkpt lat="43.4813535" lon="10.6884323"><ele>116.0</ele><time>2026-04-18T10:39:18.355Z</time></trkpt><trkpt lat="43.4813419" lon="10.6882081"><ele>117.0</ele><time>2026-04-18T10:39:19.402Z</time></trkpt><trkpt lat="43.4813596" lon="10.6877587"><ele>117.0</ele><time>2026-04-18T10:39:21.42Z</time></trkpt><trkpt lat="43.4814248" lon="10.6873115"><ele>117.0</ele><time>2026-04-18T10:39:23.295Z</time></trkpt><trkpt lat="43.4814657" lon="10.6870829"><ele>115.5</ele><time>2026-04-18T10:39:24.393Z</time></trkpt><trkpt lat="43.4815073" lon="10.6868686"><ele>114.0</ele><time>2026-04-18T10:39:25.412Z</time></trkpt><trkpt lat="43.4815854" lon="10.6864528"><ele>114.0</ele><time>2026-04-18T10:39:27.288Z</time></trkpt><trkpt lat="43.4816333" lon="10.6862462"><ele>114.0</ele><time>2026-04-18T10:39:28.421Z</time></trkpt><trkpt lat="43.4816826" lon="10.6860435"><ele>114.0</ele><time>2026-04-18T10:39:29.373Z</time></trkpt><trkpt lat="43.4817216" lon="10.6858459"><ele>113.66666666666666</ele><time>2026-04-18T10:39:30.291Z</time></trkpt><trkpt lat="43.481735" lon="10.6856428"><ele>113.33333333333333</ele><time>2026-04-18T10:39:31.42Z</time></trkpt><trkpt lat="43.4817187" lon="10.6854305"><ele>113.0</ele><time>2026-04-18T10:39:32.429Z</time></trkpt><trkpt lat="43.481691" lon="10.685209"><ele>113.66666666666666</ele><time>2026-04-18T10:39:33.411Z</time></trkpt><trkpt lat="43.481663" lon="10.6849859"><ele>114.33333333333334</ele><time>2026-04-18T10:39:34.391Z</time></trkpt><trkpt lat="43.4816319" lon="10.684768"><ele>115.0</ele><time>2026-04-18T10:39:35.426Z</time></trkpt><trkpt lat="43.4815946" lon="10.6845525"><ele>115.5</ele><time>2026-04-18T10:39:36.416Z</time></trkpt><trkpt lat="43.4815517" lon="10.6843394"><ele>116.0</ele><time>2026-04-18T10:39:37.402Z</time></trkpt><trkpt lat="43.4814199" lon="10.6839209"><ele>116.0</ele><time>2026-04-18T10:39:39.415Z</time></trkpt><trkpt lat="43.4812666" lon="10.6835488"><ele>116.0</ele><time>2026-04-18T10:39:41.285Z</time></trkpt><trkpt lat="43.4811976" lon="10.6833593"><ele>116.0</ele><time>2026-04-18T10:39:42.427Z</time></trkpt><trkpt lat="43.4811597" lon="10.6831518"><ele>116.0</ele><time>2026-04-18T10:39:43.418Z</time></trkpt><trkpt lat="43.4811566" lon="10.6829306"><ele>116.0</ele><time>2026-04-18T10:39:44.429Z</time></trkpt><trkpt lat="43.4811688" lon="10.6826988"><ele>116.66666666666666</ele><time>2026-04-18T10:39:45.413Z</time></trkpt><trkpt lat="43.4811853" lon="10.6824617"><ele>117.33333333333334</ele><time>2026-04-18T10:39:46.418Z</time></trkpt><trkpt lat="43.4811991" lon="10.6822229"><ele>118.0</ele><time>2026-04-18T10:39:47.418Z</time></trkpt><trkpt lat="43.481211" lon="10.6819849"><ele>118.33333333333334</ele><time>2026-04-18T10:39:48.423Z</time></trkpt><trkpt lat="43.4812243" lon="10.6817478"><ele>118.66666666666666</ele><time>2026-04-18T10:39:49.417Z</time></trkpt><trkpt lat="43.4812369" lon="10.6815093"><ele>119.0</ele><time>2026-04-18T10:39:50.421Z</time></trkpt><trkpt lat="43.4812513" lon="10.6812781"><ele>119.0</ele><time>2026-04-18T10:39:51.422Z</time></trkpt><trkpt lat="43.4812792" lon="10.6808416"><ele>119.0</ele><time>2026-04-18T10:39:53.289Z</time></trkpt><trkpt lat="43.4812986" lon="10.6806221"><ele>119.0</ele><time>2026-04-18T10:39:54.287Z</time></trkpt><trkpt lat="43.4813152" lon="10.6803953"><ele>119.0</ele><time>2026-04-18T10:39:55.425Z</time></trkpt><trkpt lat="43.481343" lon="10.6799394"><ele>119.66666666666666</ele><time>2026-04-18T10:39:57.428Z</time></trkpt><trkpt lat="43.4813521" lon="10.6797162"><ele>120.33333333333334</ele><time>2026-04-18T10:39:58.424Z</time></trkpt><trkpt lat="43.4813642" lon="10.6794928"><ele>121.0</ele><time>2026-04-18T10:39:59.395Z</time></trkpt><trkpt lat="43.4813875" lon="10.6790633"><ele>121.5</ele><time>2026-04-18T10:40:01.412Z</time></trkpt><trkpt lat="43.4813978" lon="10.6788622"><ele>122.0</ele><time>2026-04-18T10:40:02.418Z</time></trkpt><trkpt lat="43.481409" lon="10.6786667"><ele>122.5</ele><time>2026-04-18T10:40:03.412Z</time></trkpt><trkpt lat="43.4814228" lon="10.6784733"><ele>123.0</ele><time>2026-04-18T10:40:04.397Z</time></trkpt><trkpt lat="43.4814433" lon="10.6782756"><ele>123.66666666666666</ele><time>2026-04-18T10:40:05.432Z</time></trkpt><trkpt lat="43.4814747" lon="10.6780696"><ele>124.33333333333333</ele><time>2026-04-18T10:40:06.418Z</time></trkpt><trkpt lat="43.4815228" lon="10.6778536"><ele>125.0</ele><time>2026-04-18T10:40:07.422Z</time></trkpt><trkpt lat="43.4815868" lon="10.67763"><ele>125.66666666666666</ele><time>2026-04-18T10:40:08.426Z</time></trkpt><trkpt lat="43.4816585" lon="10.6773977"><ele>126.33333333333334</ele><time>2026-04-18T10:40:09.416Z</time></trkpt><trkpt lat="43.4817284" lon="10.6771612"><ele>127.0</ele><time>2026-04-18T10:40:10.416Z</time></trkpt><trkpt lat="43.4817982" lon="10.6769276"><ele>128.0</ele><time>2026-04-18T10:40:11.403Z</time></trkpt><trkpt lat="43.4818633" lon="10.6767003"><ele>129.0</ele><time>2026-04-18T10:40:12.415Z</time></trkpt><trkpt lat="43.4819312" lon="10.6764739"><ele>130.0</ele><time>2026-04-18T10:40:13.435Z</time></trkpt><trkpt lat="43.4820013" lon="10.6762416"><ele>131.0</ele><time>2026-04-18T10:40:14.424Z</time></trkpt><trkpt lat="43.4820757" lon="10.6760063"><ele>132.0</ele><time>2026-04-18T10:40:15.42Z</time></trkpt><trkpt lat="43.4822139" lon="10.6755603"><ele>132.66666666666666</ele><time>2026-04-18T10:40:17.42Z</time></trkpt><trkpt lat="43.482279" lon="10.6753522"><ele>133.33333333333331</ele><time>2026-04-18T10:40:18.43Z</time></trkpt><trkpt lat="43.4823307" lon="10.6751513"><ele>134.0</ele><time>2026-04-18T10:40:19.409Z</time></trkpt><trkpt lat="43.482366" lon="10.674969"><ele>134.6</ele><time>2026-04-18T10:40:20.415Z</time></trkpt><trkpt lat="43.4823872" lon="10.6748041"><ele>135.2</ele><time>2026-04-18T10:40:21.373Z</time></trkpt><trkpt lat="43.482393" lon="10.6746573"><ele>135.79999999999998</ele><time>2026-04-18T10:40:22.288Z</time></trkpt><trkpt lat="43.4823862" lon="10.6745169"><ele>136.4</ele><time>2026-04-18T10:40:23.285Z</time></trkpt><trkpt lat="43.4823695" lon="10.6743859"><ele>137.0</ele><time>2026-04-18T10:40:24.289Z</time></trkpt><trkpt lat="43.4823402" lon="10.6742613"><ele>137.0</ele><time>2026-04-18T10:40:25.29Z</time></trkpt><trkpt lat="43.4823091" lon="10.6741475"><ele>137.0</ele><time>2026-04-18T10:40:26.417Z</time></trkpt><trkpt lat="43.4822749" lon="10.6740428"><ele>137.0</ele><time>2026-04-18T10:40:27.417Z</time></trkpt><trkpt lat="43.4822389" lon="10.6739463"><ele>137.0</ele><time>2026-04-18T10:40:28.42Z</time></trkpt><trkpt lat="43.4821957" lon="10.6738648"><ele>137.0</ele><time>2026-04-18T10:40:29.435Z</time></trkpt><trkpt lat="43.4821404" lon="10.6738036"><ele>137.0</ele><time>2026-04-18T10:40:30.415Z</time></trkpt><trkpt lat="43.4819899" lon="10.6737391"><ele>137.0</ele><time>2026-04-18T10:40:32.291Z</time></trkpt><trkpt lat="43.4818843" lon="10.6737267"><ele>137.0</ele><time>2026-04-18T10:40:33.421Z</time></trkpt><trkpt lat="43.4817652" lon="10.6736981"><ele>137.0</ele><time>2026-04-18T10:40:34.415Z</time></trkpt><trkpt lat="43.481561" lon="10.6735355"><ele>137.0</ele><time>2026-04-18T10:40:36.424Z</time></trkpt><trkpt lat="43.4814872" lon="10.6733953"><ele>137.0</ele><time>2026-04-18T10:40:37.421Z</time></trkpt><trkpt lat="43.4814168" lon="10.6732275"><ele>137.0</ele><time>2026-04-18T10:40:38.404Z</time></trkpt><trkpt lat="43.4813506" lon="10.6730371"><ele>137.0</ele><time>2026-04-18T10:40:39.416Z</time></trkpt><trkpt lat="43.4812826" lon="10.6728325"><ele>139.33333333333331</ele><time>2026-04-18T10:40:40.412Z</time></trkpt><trkpt lat="43.4812143" lon="10.6726192"><ele>141.66666666666666</ele><time>2026-04-18T10:40:41.417Z</time></trkpt><trkpt lat="43.4811597" lon="10.6724106"><ele>144.0</ele><time>2026-04-18T10:40:42.35Z</time></trkpt><trkpt lat="43.4811097" lon="10.6722059"><ele>144.0</ele><time>2026-04-18T10:40:43.387Z</time></trkpt><trkpt lat="43.4810671" lon="10.6720031"><ele>144.0</ele><time>2026-04-18T10:40:44.421Z</time></trkpt><trkpt lat="43.4810211" lon="10.6718122"><ele>144.0</ele><time>2026-04-18T10:40:45.415Z</time></trkpt><trkpt lat="43.4809767" lon="10.6716297"><ele>144.0</ele><time>2026-04-18T10:40:46.417Z</time></trkpt><trkpt lat="43.4809358" lon="10.6714593"><ele>146.0</ele><time>2026-04-18T10:40:47.424Z</time></trkpt><trkpt lat="43.4809024" lon="10.6712984"><ele>148.0</ele><time>2026-04-18T10:40:48.41Z</time></trkpt><trkpt lat="43.4808781" lon="10.6711401"><ele>150.0</ele><time>2026-04-18T10:40:49.421Z</time></trkpt><trkpt lat="43.4808808" lon="10.6709863"><ele>152.0</ele><time>2026-04-18T10:40:50.413Z</time></trkpt><trkpt lat="43.4809089" lon="10.6708318"><ele>154.0</ele><time>2026-04-18T10:40:51.437Z</time></trkpt><trkpt lat="43.4809567" lon="10.6705446"><ele>156.0</ele><time>2026-04-18T10:40:53.285Z</time></trkpt><trkpt lat="43.4809491" lon="10.6704192"><ele>158.0</ele><time>2026-04-18T10:40:54.425Z</time></trkpt><trkpt lat="43.4808612" lon="10.6701607"><ele>158.0</ele><time>2026-04-18T10:40:56.426Z</time></trkpt><trkpt lat="43.4806919" lon="10.6698935"><ele>158.0</ele><time>2026-04-18T10:40:58.373Z</time></trkpt><trkpt lat="43.4805956" lon="10.6697414"><ele>158.0</ele><time>2026-04-18T10:40:59.29Z</time></trkpt><trkpt lat="43.4804932" lon="10.6695772"><ele>157.0</ele><time>2026-04-18T10:41:00.408Z</time></trkpt><trkpt lat="43.4803844" lon="10.6694044"><ele>156.0</ele><time>2026-04-18T10:41:01.431Z</time></trkpt><trkpt lat="43.480282" lon="10.6692314"><ele>155.0</ele><time>2026-04-18T10:41:02.423Z</time></trkpt><trkpt lat="43.4801867" lon="10.6690636"><ele>155.0</ele><time>2026-04-18T10:41:03.422Z</time></trkpt><trkpt lat="43.4801008" lon="10.668901"><ele>155.0</ele><time>2026-04-18T10:41:04.419Z</time></trkpt><trkpt lat="43.4800278" lon="10.6687471"><ele>155.0</ele><time>2026-04-18T10:41:05.419Z</time></trkpt><trkpt lat="43.4799599" lon="10.6686036"><ele>155.0</ele><time>2026-04-18T10:41:06.426Z</time></trkpt><trkpt lat="43.4798867" lon="10.6684765"><ele>155.2</ele><time>2026-04-18T10:41:07.417Z</time></trkpt><trkpt lat="43.4798168" lon="10.6683755"><ele>155.4</ele><time>2026-04-18T10:41:08.413Z</time></trkpt><trkpt lat="43.4797409" lon="10.6683134"><ele>155.6</ele><time>2026-04-18T10:41:09.416Z</time></trkpt><trkpt lat="43.4796581" lon="10.6682835"><ele>155.8</ele><time>2026-04-18T10:41:10.426Z</time></trkpt><trkpt lat="43.4795728" lon="10.6682885"><ele>156.0</ele><time>2026-04-18T10:41:11.387Z</time></trkpt><trkpt lat="43.479486" lon="10.6683246"><ele>156.0</ele><time>2026-04-18T10:41:12.416Z</time></trkpt><trkpt lat="43.4794021" lon="10.6683825"><ele>156.0</ele><time>2026-04-18T10:41:13.418Z</time></trkpt><trkpt lat="43.4793201" lon="10.6684519"><ele>156.0</ele><time>2026-04-18T10:41:14.426Z</time></trkpt><trkpt lat="43.4792341" lon="10.6685084"><ele>156.0</ele><time>2026-04-18T10:41:15.424Z</time></trkpt><trkpt lat="43.4791298" lon="10.6685447"><ele>156.0</ele><time>2026-04-18T10:41:16.418Z</time></trkpt><trkpt lat="43.4790167" lon="10.6685605"><ele>156.0</ele><time>2026-04-18T10:41:17.422Z</time></trkpt><trkpt lat="43.4788998" lon="10.66856"><ele>156.0</ele><time>2026-04-18T10:41:18.402Z</time></trkpt><trkpt lat="43.4787769" lon="10.668542"><ele>156.0</ele><time>2026-04-18T10:41:19.422Z</time></trkpt><trkpt lat="43.4786668" lon="10.6685174"><ele>156.0</ele><time>2026-04-18T10:41:20.417Z</time></trkpt><trkpt lat="43.4784352" lon="10.6684504"><ele>156.0</ele><time>2026-04-18T10:41:22.29Z</time></trkpt><trkpt lat="43.4783125" lon="10.668412"><ele>156.0</ele><time>2026-04-18T10:41:23.288Z</time></trkpt><trkpt lat="43.4781988" lon="10.6683799"><ele>156.0</ele><time>2026-04-18T10:41:24.289Z</time></trkpt><trkpt lat="43.4779635" lon="10.6683435"><ele>156.75</ele><time>2026-04-18T10:41:26.428Z</time></trkpt><trkpt lat="43.477838" lon="10.6683502"><ele>157.5</ele><time>2026-04-18T10:41:27.423Z</time></trkpt><trkpt lat="43.4777177" lon="10.6683706"><ele>158.25</ele><time>2026-04-18T10:41:28.427Z</time></trkpt><trkpt lat="43.477586" lon="10.6683953"><ele>159.0</ele><time>2026-04-18T10:41:29.389Z</time></trkpt><trkpt lat="43.4774475" lon="10.6684263"><ele>159.0</ele><time>2026-04-18T10:41:30.395Z</time></trkpt><trkpt lat="43.4772997" lon="10.6684607"><ele>159.0</ele><time>2026-04-18T10:41:31.389Z</time></trkpt><trkpt lat="43.4771446" lon="10.6684979"><ele>159.0</ele><time>2026-04-18T10:41:32.425Z</time></trkpt><trkpt lat="43.4769897" lon="10.6685373"><ele>158.0</ele><time>2026-04-18T10:41:33.417Z</time></trkpt><trkpt lat="43.4768371" lon="10.668581"><ele>157.0</ele><time>2026-04-18T10:41:34.416Z</time></trkpt><trkpt lat="43.4766855" lon="10.6686288"><ele>156.0</ele><time>2026-04-18T10:41:35.424Z</time></trkpt><trkpt lat="43.4765274" lon="10.6686775"><ele>156.0</ele><time>2026-04-18T10:41:36.407Z</time></trkpt><trkpt lat="43.4763673" lon="10.6687246"><ele>156.0</ele><time>2026-04-18T10:41:37.378Z</time></trkpt><trkpt lat="43.4762066" lon="10.6687694"><ele>156.0</ele><time>2026-04-18T10:41:38.427Z</time></trkpt><trkpt lat="43.4760464" lon="10.6688166"><ele>156.0</ele><time>2026-04-18T10:41:39.418Z</time></trkpt><trkpt lat="43.4757617" lon="10.6688982"><ele>156.0</ele><time>2026-04-18T10:41:41.288Z</time></trkpt><trkpt lat="43.4756272" lon="10.6689336"><ele>156.0</ele><time>2026-04-18T10:41:42.418Z</time></trkpt><trkpt lat="43.4754984" lon="10.6689524"><ele>158.2</ele><time>2026-04-18T10:41:43.423Z</time></trkpt><trkpt lat="43.4753778" lon="10.668943"><ele>160.39999999999998</ele><time>2026-04-18T10:41:44.42Z</time></trkpt><trkpt lat="43.4752774" lon="10.6688975"><ele>162.6</ele><time>2026-04-18T10:41:45.411Z</time></trkpt><trkpt lat="43.4751932" lon="10.6688306"><ele>164.79999999999998</ele><time>2026-04-18T10:41:46.412Z</time></trkpt><trkpt lat="43.475113" lon="10.6687409"><ele>167.0</ele><time>2026-04-18T10:41:47.439Z</time></trkpt><trkpt lat="43.4750341" lon="10.6686453"><ele>166.75</ele><time>2026-04-18T10:41:48.418Z</time></trkpt><trkpt lat="43.4749462" lon="10.6685562"><ele>166.5</ele><time>2026-04-18T10:41:49.413Z</time></trkpt><trkpt lat="43.4748494" lon="10.6684803"><ele>166.25</ele><time>2026-04-18T10:41:50.414Z</time></trkpt><trkpt lat="43.4747491" lon="10.6684176"><ele>166.0</ele><time>2026-04-18T10:41:51.417Z</time></trkpt><trkpt lat="43.4745323" lon="10.6683181"><ele>167.25</ele><time>2026-04-18T10:41:53.291Z</time></trkpt><trkpt lat="43.4744194" lon="10.6682677"><ele>168.5</ele><time>2026-04-18T10:41:54.29Z</time></trkpt><trkpt lat="43.4743024" lon="10.6682171"><ele>169.75</ele><time>2026-04-18T10:41:55.41Z</time></trkpt><trkpt lat="43.4741839" lon="10.668157"><ele>171.0</ele><time>2026-04-18T10:41:56.416Z</time></trkpt><trkpt lat="43.4740621" lon="10.6680984"><ele>171.0</ele><time>2026-04-18T10:41:57.412Z</time></trkpt><trkpt lat="43.4739341" lon="10.6680397"><ele>171.0</ele><time>2026-04-18T10:41:58.425Z</time></trkpt><trkpt lat="43.4738006" lon="10.6679746"><ele>171.0</ele><time>2026-04-18T10:41:59.426Z</time></trkpt><trkpt lat="43.4736608" lon="10.6679054"><ele>171.0</ele><time>2026-04-18T10:42:00.418Z</time></trkpt><trkpt lat="43.4735261" lon="10.6678384"><ele>174.0</ele><time>2026-04-18T10:42:01.412Z</time></trkpt><trkpt lat="43.4732858" lon="10.6676768"><ele>177.0</ele><time>2026-04-18T10:42:03.431Z</time></trkpt><trkpt lat="43.4731892" lon="10.6675669"><ele>180.0</ele><time>2026-04-18T10:42:04.418Z</time></trkpt><trkpt lat="43.4731115" lon="10.6674321"><ele>180.0</ele><time>2026-04-18T10:42:05.391Z</time></trkpt><trkpt lat="43.4730462" lon="10.6672909"><ele>180.0</ele><time>2026-04-18T10:42:06.293Z</time></trkpt><trkpt lat="43.4729888" lon="10.6671664"><ele>180.0</ele><time>2026-04-18T10:42:07.383Z</time></trkpt><trkpt lat="43.4729259" lon="10.6670482"><ele>180.0</ele><time>2026-04-18T10:42:08.417Z</time></trkpt><trkpt lat="43.4728575" lon="10.6669438"><ele>180.0</ele><time>2026-04-18T10:42:09.422Z</time></trkpt><trkpt lat="43.47269" lon="10.6667755"><ele>181.75</ele><time>2026-04-18T10:42:11.293Z</time></trkpt><trkpt lat="43.4725873" lon="10.6666935"><ele>183.5</ele><time>2026-04-18T10:42:12.297Z</time></trkpt><trkpt lat="43.4724773" lon="10.6666097"><ele>185.25</ele><time>2026-04-18T10:42:13.292Z</time></trkpt><trkpt lat="43.4723619" lon="10.666522"><ele>187.0</ele><time>2026-04-18T10:42:14.296Z</time></trkpt><trkpt lat="43.472239" lon="10.6664286"><ele>187.0</ele><time>2026-04-18T10:42:15.294Z</time></trkpt><trkpt lat="43.4721121" lon="10.6663321"><ele>187.0</ele><time>2026-04-18T10:42:16.288Z</time></trkpt><trkpt lat="43.4719809" lon="10.6662359"><ele>187.0</ele><time>2026-04-18T10:42:17.293Z</time></trkpt><trkpt lat="43.4718444" lon="10.6661338"><ele>187.0</ele><time>2026-04-18T10:42:18.295Z</time></trkpt><trkpt lat="43.4717044" lon="10.6660274"><ele>188.66666666666669</ele><time>2026-04-18T10:42:19.292Z</time></trkpt><trkpt lat="43.4715591" lon="10.6659145"><ele>190.33333333333334</ele><time>2026-04-18T10:42:20.294Z</time></trkpt><trkpt lat="43.4714125" lon="10.6658024"><ele>192.0</ele><time>2026-04-18T10:42:21.294Z</time></trkpt><trkpt lat="43.4712684" lon="10.6656928"><ele>192.66666666666669</ele><time>2026-04-18T10:42:22.283Z</time></trkpt><trkpt lat="43.4711271" lon="10.6655848"><ele>193.33333333333334</ele><time>2026-04-18T10:42:23.296Z</time></trkpt><trkpt lat="43.4709938" lon="10.6654796"><ele>194.0</ele><time>2026-04-18T10:42:24.42Z</time></trkpt><trkpt lat="43.4708675" lon="10.6653791"><ele>194.0</ele><time>2026-04-18T10:42:25.395Z</time></trkpt><trkpt lat="43.4707611" lon="10.6652837"><ele>194.0</ele><time>2026-04-18T10:42:26.397Z</time></trkpt><trkpt lat="43.4706739" lon="10.665174"><ele>194.0</ele><time>2026-04-18T10:42:27.417Z</time></trkpt><trkpt lat="43.4705299" lon="10.6648989"><ele>195.75</ele><time>2026-04-18T10:42:29.288Z</time></trkpt><trkpt lat="43.4704588" lon="10.6647403"><ele>197.5</ele><time>2026-04-18T10:42:30.29Z</time></trkpt><trkpt lat="43.4703911" lon="10.6645878"><ele>199.25</ele><time>2026-04-18T10:42:31.288Z</time></trkpt><trkpt lat="43.4703338" lon="10.6644459"><ele>201.0</ele><time>2026-04-18T10:42:32.417Z</time></trkpt><trkpt lat="43.4702961" lon="10.6643126"><ele>204.60000000000002</ele><time>2026-04-18T10:42:33.33Z</time></trkpt><trkpt lat="43.4702779" lon="10.6641759"><ele>208.2</ele><time>2026-04-18T10:42:34.292Z</time></trkpt><trkpt lat="43.4702791" lon="10.6640309"><ele>211.79999999999998</ele><time>2026-04-18T10:42:35.428Z</time></trkpt><trkpt lat="43.4702894" lon="10.6638752"><ele>215.39999999999998</ele><time>2026-04-18T10:42:36.424Z</time></trkpt><trkpt lat="43.4702981" lon="10.6637118"><ele>219.0</ele><time>2026-04-18T10:42:37.402Z</time></trkpt><trkpt lat="43.4703022" lon="10.6635461"><ele>220.0</ele><time>2026-04-18T10:42:38.42Z</time></trkpt><trkpt lat="43.4702975" lon="10.6633938"><ele>220.99999999999997</ele><time>2026-04-18T10:42:39.415Z</time></trkpt><trkpt lat="43.4702779" lon="10.6632478"><ele>221.99999999999997</ele><time>2026-04-18T10:42:40.42Z</time></trkpt><trkpt lat="43.4702388" lon="10.6631216"><ele>223.0</ele><time>2026-04-18T10:42:41.323Z</time></trkpt><trkpt lat="43.4701808" lon="10.6630158"><ele>224.0</ele><time>2026-04-18T10:42:42.394Z</time></trkpt><trkpt lat="43.4701119" lon="10.6629141"><ele>224.0</ele><time>2026-04-18T10:42:43.417Z</time></trkpt><trkpt lat="43.4700373" lon="10.6628111"><ele>224.0</ele><time>2026-04-18T10:42:44.423Z</time></trkpt><trkpt lat="43.4699568" lon="10.6627024"><ele>224.0</ele><time>2026-04-18T10:42:45.426Z</time></trkpt><trkpt lat="43.4698698" lon="10.6625925"><ele>224.0</ele><time>2026-04-18T10:42:46.421Z</time></trkpt><trkpt lat="43.4697814" lon="10.6624783"><ele>227.33333333333334</ele><time>2026-04-18T10:42:47.414Z</time></trkpt><trkpt lat="43.4695918" lon="10.6622505"><ele>230.66666666666669</ele><time>2026-04-18T10:42:49.282Z</time></trkpt><trkpt lat="43.4694971" lon="10.6621365"><ele>234.0</ele><time>2026-04-18T10:42:50.289Z</time></trkpt><trkpt lat="43.4694084" lon="10.6620106"><ele>234.0</ele><time>2026-04-18T10:42:51.288Z</time></trkpt><trkpt lat="43.4693213" lon="10.6618678"><ele>234.0</ele><time>2026-04-18T10:42:52.356Z</time></trkpt><trkpt lat="43.4692366" lon="10.6617045"><ele>234.0</ele><time>2026-04-18T10:42:53.292Z</time></trkpt><trkpt lat="43.4691515" lon="10.6615203"><ele>234.0</ele><time>2026-04-18T10:42:54.285Z</time></trkpt><trkpt lat="43.4690604" lon="10.661314"><ele>233.66666666666669</ele><time>2026-04-18T10:42:55.289Z</time></trkpt><trkpt lat="43.4689627" lon="10.661103"><ele>233.33333333333334</ele><time>2026-04-18T10:42:56.412Z</time></trkpt><trkpt lat="43.4688641" lon="10.660897"><ele>233.0</ele><time>2026-04-18T10:42:57.414Z</time></trkpt><trkpt lat="43.4687602" lon="10.6607004"><ele>234.0</ele><time>2026-04-18T10:42:58.419Z</time></trkpt><trkpt lat="43.4686361" lon="10.6605"><ele>235.0</ele><time>2026-04-18T10:42:59.394Z</time></trkpt><trkpt lat="43.4684993" lon="10.6602894"><ele>236.0</ele><time>2026-04-18T10:43:00.419Z</time></trkpt><trkpt lat="43.4683536" lon="10.6600693"><ele>240.0</ele><time>2026-04-18T10:43:01.409Z</time></trkpt><trkpt lat="43.4682089" lon="10.6598518"><ele>244.0</ele><time>2026-04-18T10:43:02.415Z</time></trkpt><trkpt lat="43.467944" lon="10.6594857"><ele>248.33333333333331</ele><time>2026-04-18T10:43:04.288Z</time></trkpt><trkpt lat="43.4678207" lon="10.6593123"><ele>252.66666666666669</ele><time>2026-04-18T10:43:05.422Z</time></trkpt><trkpt lat="43.4677002" lon="10.6591466"><ele>257.0</ele><time>2026-04-18T10:43:06.418Z</time></trkpt><trkpt lat="43.4675795" lon="10.6589949"><ele>257.0</ele><time>2026-04-18T10:43:07.418Z</time></trkpt><trkpt lat="43.4674462" lon="10.6588382"><ele>257.0</ele><time>2026-04-18T10:43:08.423Z</time></trkpt><trkpt lat="43.4673013" lon="10.658679"><ele>257.0</ele><time>2026-04-18T10:43:09.429Z</time></trkpt><trkpt lat="43.4671553" lon="10.6585186"><ele>261.33333333333337</ele><time>2026-04-18T10:43:10.427Z</time></trkpt><trkpt lat="43.4670052" lon="10.6583586"><ele>265.6666666666667</ele><time>2026-04-18T10:43:11.407Z</time></trkpt><trkpt lat="43.466867" lon="10.6582196"><ele>270.0</ele><time>2026-04-18T10:43:12.415Z</time></trkpt><trkpt lat="43.4667472" lon="10.6580928"><ele>270.0</ele><time>2026-04-18T10:43:13.412Z</time></trkpt><trkpt lat="43.4666337" lon="10.6579749"><ele>270.0</ele><time>2026-04-18T10:43:14.42Z</time></trkpt><trkpt lat="43.4665212" lon="10.6578592"><ele>270.0</ele><time>2026-04-18T10:43:15.418Z</time></trkpt><trkpt lat="43.4664229" lon="10.657746"><ele>270.0</ele><time>2026-04-18T10:43:16.418Z</time></trkpt><trkpt lat="43.4663465" lon="10.6576419"><ele>270.8</ele><time>2026-04-18T10:43:17.427Z</time></trkpt><trkpt lat="43.4662862" lon="10.6575291"><ele>271.6</ele><time>2026-04-18T10:43:18.397Z</time></trkpt><trkpt lat="43.4662451" lon="10.6573953"><ele>272.4</ele><time>2026-04-18T10:43:19.429Z</time></trkpt><trkpt lat="43.4662099" lon="10.6572454"><ele>273.2</ele><time>2026-04-18T10:43:20.374Z</time></trkpt><trkpt lat="43.4661728" lon="10.6570843"><ele>274.0</ele><time>2026-04-18T10:43:21.287Z</time></trkpt><trkpt lat="43.4660625" lon="10.656602"><ele>275.75</ele><time>2026-04-18T10:43:24.29Z</time></trkpt><trkpt lat="43.4660235" lon="10.6564282"><ele>277.5</ele><time>2026-04-18T10:43:25.293Z</time></trkpt><trkpt lat="43.4659802" lon="10.6562389"><ele>279.25</ele><time>2026-04-18T10:43:26.287Z</time></trkpt><trkpt lat="43.4659364" lon="10.6560464"><ele>281.0</ele><time>2026-04-18T10:43:27.425Z</time></trkpt><trkpt lat="43.4658935" lon="10.6558602"><ele>284.0</ele><time>2026-04-18T10:43:28.389Z</time></trkpt><trkpt lat="43.4658118" lon="10.6555179"><ele>287.0</ele><time>2026-04-18T10:43:30.405Z</time></trkpt><trkpt lat="43.465725" lon="10.6551729"><ele>288.0</ele><time>2026-04-18T10:43:32.431Z</time></trkpt><trkpt lat="43.4656832" lon="10.6549905"><ele>289.0</ele><time>2026-04-18T10:43:33.423Z</time></trkpt><trkpt lat="43.4656409" lon="10.654804"><ele>290.0</ele><time>2026-04-18T10:43:34.414Z</time></trkpt><trkpt lat="43.4655979" lon="10.6546101"><ele>291.0</ele><time>2026-04-18T10:43:35.419Z</time></trkpt><trkpt lat="43.4655551" lon="10.654416"><ele>292.0</ele><time>2026-04-18T10:43:36.42Z</time></trkpt><trkpt lat="43.4655133" lon="10.6542245"><ele>293.0</ele><time>2026-04-18T10:43:37.425Z</time></trkpt><trkpt lat="43.4654739" lon="10.6540417"><ele>294.0</ele><time>2026-04-18T10:43:38.412Z</time></trkpt><trkpt lat="43.4654368" lon="10.6538679"><ele>295.0</ele><time>2026-04-18T10:43:39.427Z</time></trkpt><trkpt lat="43.465397" lon="10.6536928"><ele>296.5</ele><time>2026-04-18T10:43:40.42Z</time></trkpt><trkpt lat="43.4653603" lon="10.6535327"><ele>298.0</ele><time>2026-04-18T10:43:41.418Z</time></trkpt><trkpt lat="43.4653242" lon="10.653376"><ele>299.5</ele><time>2026-04-18T10:43:42.346Z</time></trkpt><trkpt lat="43.4652861" lon="10.6532162"><ele>301.0</ele><time>2026-04-18T10:43:43.403Z</time></trkpt><trkpt lat="43.4652472" lon="10.6530583"><ele>301.0</ele><time>2026-04-18T10:43:44.388Z</time></trkpt><trkpt lat="43.465209" lon="10.6529037"><ele>301.0</ele><time>2026-04-18T10:43:45.421Z</time></trkpt><trkpt lat="43.4651445" lon="10.6526086"><ele>301.0</ele><time>2026-04-18T10:43:47.291Z</time></trkpt><trkpt lat="43.4651321" lon="10.652467"><ele>301.0</ele><time>2026-04-18T10:43:48.29Z</time></trkpt><trkpt lat="43.465138" lon="10.6523222"><ele>302.0</ele><time>2026-04-18T10:43:49.422Z</time></trkpt><trkpt lat="43.4651558" lon="10.6521726"><ele>303.0</ele><time>2026-04-18T10:43:50.433Z</time></trkpt><trkpt lat="43.4651807" lon="10.6520123"><ele>304.0</ele><time>2026-04-18T10:43:51.432Z</time></trkpt><trkpt lat="43.4652358" lon="10.651672"><ele>304.5</ele><time>2026-04-18T10:43:53.287Z</time></trkpt><trkpt lat="43.4652626" lon="10.6514964"><ele>305.0</ele><time>2026-04-18T10:43:54.428Z</time></trkpt><trkpt lat="43.4652887" lon="10.6513186"><ele>305.5</ele><time>2026-04-18T10:43:55.446Z</time></trkpt><trkpt lat="43.4653123" lon="10.6511388"><ele>306.0</ele><time>2026-04-18T10:43:56.432Z</time></trkpt><trkpt lat="43.4653361" lon="10.6509607"><ele>306.3333333333333</ele><time>2026-04-18T10:43:57.419Z</time></trkpt><trkpt lat="43.4653788" lon="10.6506297"><ele>306.66666666666663</ele><time>2026-04-18T10:43:59.411Z</time></trkpt><trkpt lat="43.4654015" lon="10.6503586"><ele>307.0</ele><time>2026-04-18T10:44:01.331Z</time></trkpt><trkpt lat="43.4654151" lon="10.6502312"><ele>307.0</ele><time>2026-04-18T10:44:02.301Z</time></trkpt><trkpt lat="43.4654334" lon="10.6501032"><ele>307.0</ele><time>2026-04-18T10:44:03.291Z</time></trkpt><trkpt lat="43.4654561" lon="10.649979"><ele>307.0</ele><time>2026-04-18T10:44:04.293Z</time></trkpt><trkpt lat="43.4654809" lon="10.6498574"><ele>307.0</ele><time>2026-04-18T10:44:05.289Z</time></trkpt><trkpt lat="43.4655012" lon="10.6497392"><ele>307.0</ele><time>2026-04-18T10:44:06.288Z</time></trkpt><trkpt lat="43.4655216" lon="10.6496236"><ele>307.0</ele><time>2026-04-18T10:44:07.289Z</time></trkpt><trkpt lat="43.4655481" lon="10.6495039"><ele>307.0</ele><time>2026-04-18T10:44:08.392Z</time></trkpt><trkpt lat="43.4655743" lon="10.6493834"><ele>307.0</ele><time>2026-04-18T10:44:09.421Z</time></trkpt><trkpt lat="43.4656003" lon="10.649248"><ele>307.0</ele><time>2026-04-18T10:44:10.415Z</time></trkpt><trkpt lat="43.4656623" lon="10.6489358"><ele>307.0</ele><time>2026-04-18T10:44:12.288Z</time></trkpt><trkpt lat="43.4656984" lon="10.648763"><ele>307.0</ele><time>2026-04-18T10:44:13.284Z</time></trkpt><trkpt lat="43.4657313" lon="10.6485826"><ele>307.0</ele><time>2026-04-18T10:44:14.284Z</time></trkpt><trkpt lat="43.4657608" lon="10.6484018"><ele>307.0</ele><time>2026-04-18T10:44:15.286Z</time></trkpt><trkpt lat="43.4657925" lon="10.6482249"><ele>304.0</ele><time>2026-04-18T10:44:16.287Z</time></trkpt><trkpt lat="43.4658175" lon="10.6480479"><ele>301.0</ele><time>2026-04-18T10:44:17.287Z</time></trkpt><trkpt lat="43.4658445" lon="10.647856"><ele>298.0</ele><time>2026-04-18T10:44:18.287Z</time></trkpt><trkpt lat="43.4658711" lon="10.6476555"><ele>295.0</ele><time>2026-04-18T10:44:19.287Z</time></trkpt><trkpt lat="43.4658979" lon="10.6474459"><ele>292.66666666666663</ele><time>2026-04-18T10:44:20.288Z</time></trkpt><trkpt lat="43.4659226" lon="10.6472281"><ele>290.3333333333333</ele><time>2026-04-18T10:44:21.288Z</time></trkpt><trkpt lat="43.4659437" lon="10.6470002"><ele>288.0</ele><time>2026-04-18T10:44:22.28Z</time></trkpt><trkpt lat="43.4659647" lon="10.6467725"><ele>288.0</ele><time>2026-04-18T10:44:23.288Z</time></trkpt><trkpt lat="43.4659883" lon="10.6465414"><ele>288.0</ele><time>2026-04-18T10:44:24.285Z</time></trkpt><trkpt lat="43.4660162" lon="10.6463093"><ele>288.0</ele><time>2026-04-18T10:44:25.287Z</time></trkpt><trkpt lat="43.4660521" lon="10.6460814"><ele>288.0</ele><time>2026-04-18T10:44:26.288Z</time></trkpt><trkpt lat="43.466095" lon="10.6458516"><ele>288.0</ele><time>2026-04-18T10:44:27.288Z</time></trkpt><trkpt lat="43.4661413" lon="10.6456268"><ele>288.0</ele><time>2026-04-18T10:44:28.29Z</time></trkpt><trkpt lat="43.4661927" lon="10.6454055"><ele>288.3333333333333</ele><time>2026-04-18T10:44:29.288Z</time></trkpt><trkpt lat="43.4662415" lon="10.6451895"><ele>288.66666666666663</ele><time>2026-04-18T10:44:30.29Z</time></trkpt><trkpt lat="43.4662939" lon="10.6449739"><ele>289.0</ele><time>2026-04-18T10:44:31.292Z</time></trkpt><trkpt lat="43.4663518" lon="10.644757"><ele>290.3333333333333</ele><time>2026-04-18T10:44:32.291Z</time></trkpt><trkpt lat="43.4664192" lon="10.6445459"><ele>291.6666666666667</ele><time>2026-04-18T10:44:33.415Z</time></trkpt><trkpt lat="43.4664935" lon="10.6443309"><ele>293.0</ele><time>2026-04-18T10:44:34.416Z</time></trkpt><trkpt lat="43.4665739" lon="10.6441091"><ele>294.33333333333337</ele><time>2026-04-18T10:44:35.384Z</time></trkpt><trkpt lat="43.4666504" lon="10.6438884"><ele>295.6666666666667</ele><time>2026-04-18T10:44:36.409Z</time></trkpt><trkpt lat="43.466723" lon="10.6436899"><ele>297.0</ele><time>2026-04-18T10:44:37.411Z</time></trkpt><trkpt lat="43.4668468" lon="10.6433495"><ele>298.25</ele><time>2026-04-18T10:44:39.284Z</time></trkpt><trkpt lat="43.466897" lon="10.6432028"><ele>299.5</ele><time>2026-04-18T10:44:40.289Z</time></trkpt><trkpt lat="43.4669404" lon="10.6430815"><ele>300.75</ele><time>2026-04-18T10:44:41.422Z</time></trkpt><trkpt lat="43.4669664" lon="10.6429833"><ele>302.0</ele><time>2026-04-18T10:44:42.422Z</time></trkpt><trkpt lat="43.4669319" lon="10.6427547"><ele>303.2</ele><time>2026-04-18T10:44:45.287Z</time></trkpt><trkpt lat="43.4669359" lon="10.6426278"><ele>304.4</ele><time>2026-04-18T10:44:47.289Z</time></trkpt><trkpt lat="43.4670138" lon="10.6425003"><ele>305.6</ele><time>2026-04-18T10:44:49.287Z</time></trkpt><trkpt lat="43.4670787" lon="10.6424332"><ele>306.8</ele><time>2026-04-18T10:44:50.289Z</time></trkpt><trkpt lat="43.467156" lon="10.642362"><ele>308.0</ele><time>2026-04-18T10:44:51.288Z</time></trkpt><trkpt lat="43.467227" lon="10.6422738"><ele>309.0</ele><time>2026-04-18T10:44:52.395Z</time></trkpt><trkpt lat="43.4673658" lon="10.6420524"><ele>310.0</ele><time>2026-04-18T10:44:54.283Z</time></trkpt><trkpt lat="43.4674339" lon="10.6419246"><ele>311.0</ele><time>2026-04-18T10:44:55.283Z</time></trkpt><trkpt lat="43.4675016" lon="10.6417891"><ele>312.0</ele><time>2026-04-18T10:44:56.284Z</time></trkpt><trkpt lat="43.467565" lon="10.6416401"><ele>313.75</ele><time>2026-04-18T10:44:57.284Z</time></trkpt><trkpt lat="43.4676271" lon="10.6414789"><ele>315.5</ele><time>2026-04-18T10:44:58.286Z</time></trkpt><trkpt lat="43.4676844" lon="10.6413275"><ele>317.25</ele><time>2026-04-18T10:44:59.286Z</time></trkpt><trkpt lat="43.4677417" lon="10.641176"><ele>319.0</ele><time>2026-04-18T10:45:00.283Z</time></trkpt><trkpt lat="43.4677901" lon="10.6410457"><ele>320.66666666666663</ele><time>2026-04-18T10:45:01.287Z</time></trkpt><trkpt lat="43.4678355" lon="10.6409121"><ele>322.3333333333333</ele><time>2026-04-18T10:45:02.394Z</time></trkpt><trkpt lat="43.4678889" lon="10.6407577"><ele>324.0</ele><time>2026-04-18T10:45:03.402Z</time></trkpt><trkpt lat="43.4679953" lon="10.6404555"><ele>324.25</ele><time>2026-04-18T10:45:05.411Z</time></trkpt><trkpt lat="43.4680544" lon="10.6403082"><ele>324.5</ele><time>2026-04-18T10:45:06.411Z</time></trkpt><trkpt lat="43.4681151" lon="10.6401784"><ele>324.75</ele><time>2026-04-18T10:45:07.388Z</time></trkpt><trkpt lat="43.4681823" lon="10.64005"><ele>325.0</ele><time>2026-04-18T10:45:08.379Z</time></trkpt><trkpt lat="43.4682561" lon="10.6399444"><ele>326.4</ele><time>2026-04-18T10:45:09.384Z</time></trkpt><trkpt lat="43.4683526" lon="10.6399175"><ele>327.8</ele><time>2026-04-18T10:45:10.385Z</time></trkpt><trkpt lat="43.4684466" lon="10.6398446"><ele>329.20000000000005</ele><time>2026-04-18T10:45:11.381Z</time></trkpt><trkpt lat="43.4685519" lon="10.639804"><ele>330.6</ele><time>2026-04-18T10:45:12.399Z</time></trkpt><trkpt lat="43.4686539" lon="10.6397526"><ele>332.0</ele><time>2026-04-18T10:45:13.383Z</time></trkpt><trkpt lat="43.4687597" lon="10.6396914"><ele>332.20000000000005</ele><time>2026-04-18T10:45:14.413Z</time></trkpt><trkpt lat="43.4688517" lon="10.6396439"><ele>332.4</ele><time>2026-04-18T10:45:15.389Z</time></trkpt><trkpt lat="43.4689391" lon="10.6395884"><ele>332.6</ele><time>2026-04-18T10:45:16.385Z</time></trkpt><trkpt lat="43.4690226" lon="10.6395309"><ele>332.79999999999995</ele><time>2026-04-18T10:45:17.378Z</time></trkpt><trkpt lat="43.4691076" lon="10.6394527"><ele>333.0</ele><time>2026-04-18T10:45:18.381Z</time></trkpt><trkpt lat="43.4691931" lon="10.6393794"><ele>333.0</ele><time>2026-04-18T10:45:19.33Z</time></trkpt><trkpt lat="43.4692699" lon="10.6392987"><ele>333.0</ele><time>2026-04-18T10:45:20.399Z</time></trkpt><trkpt lat="43.4693448" lon="10.639216"><ele>333.0</ele><time>2026-04-18T10:45:21.377Z</time></trkpt><trkpt lat="43.4694046" lon="10.6391379"><ele>333.0</ele><time>2026-04-18T10:45:22.292Z</time></trkpt><trkpt lat="43.4694551" lon="10.6390583"><ele>333.0</ele><time>2026-04-18T10:45:23.285Z</time></trkpt><trkpt lat="43.4694939" lon="10.6389717"><ele>333.0</ele><time>2026-04-18T10:45:24.378Z</time></trkpt><trkpt lat="43.4695204" lon="10.6388793"><ele>333.0</ele><time>2026-04-18T10:45:25.374Z</time></trkpt><trkpt lat="43.4695389" lon="10.6387797"><ele>333.0</ele><time>2026-04-18T10:45:26.294Z</time></trkpt><trkpt lat="43.4695604" lon="10.6386669"><ele>333.0</ele><time>2026-04-18T10:45:27.392Z</time></trkpt><trkpt lat="43.4695904" lon="10.6385681"><ele>333.0</ele><time>2026-04-18T10:45:28.384Z</time></trkpt><trkpt lat="43.4696256" lon="10.6384731"><ele>333.0</ele><time>2026-04-18T10:45:29.384Z</time></trkpt><trkpt lat="43.4696741" lon="10.6383896"><ele>333.0</ele><time>2026-04-18T10:45:30.401Z</time></trkpt><trkpt lat="43.469727" lon="10.6383073"><ele>335.0</ele><time>2026-04-18T10:45:31.385Z</time></trkpt><trkpt lat="43.4697872" lon="10.6382446"><ele>337.0</ele><time>2026-04-18T10:45:32.382Z</time></trkpt><trkpt lat="43.4698514" lon="10.6381819"><ele>339.0</ele><time>2026-04-18T10:45:33.382Z</time></trkpt><trkpt lat="43.4699196" lon="10.6381233"><ele>341.0</ele><time>2026-04-18T10:45:34.389Z</time></trkpt><trkpt lat="43.4699909" lon="10.638062"><ele>343.0</ele><time>2026-04-18T10:45:35.38Z</time></trkpt><trkpt lat="43.4700689" lon="10.6380056"><ele>345.0</ele><time>2026-04-18T10:45:36.399Z</time></trkpt><trkpt lat="43.4702215" lon="10.6379281"><ele>345.0</ele><time>2026-04-18T10:45:38.291Z</time></trkpt><trkpt lat="43.4702904" lon="10.6378894"><ele>345.0</ele><time>2026-04-18T10:45:39.381Z</time></trkpt><trkpt lat="43.4703782" lon="10.63785"><ele>345.0</ele><time>2026-04-18T10:45:40.392Z</time></trkpt><trkpt lat="43.4705542" lon="10.6377745"><ele>345.0</ele><time>2026-04-18T10:45:42.29Z</time></trkpt><trkpt lat="43.470637" lon="10.637731"><ele>345.0</ele><time>2026-04-18T10:45:43.285Z</time></trkpt><trkpt lat="43.4707277" lon="10.6376909"><ele>345.8333333333333</ele><time>2026-04-18T10:45:44.287Z</time></trkpt><trkpt lat="43.470811" lon="10.6376602"><ele>346.6666666666667</ele><time>2026-04-18T10:45:45.289Z</time></trkpt><trkpt lat="43.4708839" lon="10.6376144"><ele>347.5</ele><time>2026-04-18T10:45:46.288Z</time></trkpt><trkpt lat="43.4709562" lon="10.6375479"><ele>348.33333333333337</ele><time>2026-04-18T10:45:47.287Z</time></trkpt><trkpt lat="43.4710287" lon="10.6374753"><ele>349.1666666666667</ele><time>2026-04-18T10:45:48.345Z</time></trkpt><trkpt lat="43.4710944" lon="10.637411"><ele>350.0</ele><time>2026-04-18T10:45:49.285Z</time></trkpt><trkpt lat="43.4711672" lon="10.6373478"><ele>350.0</ele><time>2026-04-18T10:45:50.288Z</time></trkpt><trkpt lat="43.4712426" lon="10.6372728"><ele>350.0</ele><time>2026-04-18T10:45:51.289Z</time></trkpt><trkpt lat="43.4713258" lon="10.6371892"><ele>350.0</ele><time>2026-04-18T10:45:52.287Z</time></trkpt><trkpt lat="43.4714135" lon="10.6371041"><ele>350.0</ele><time>2026-04-18T10:45:53.276Z</time></trkpt><trkpt lat="43.4715062" lon="10.637022"><ele>350.0</ele><time>2026-04-18T10:45:54.282Z</time></trkpt><trkpt lat="43.4716013" lon="10.6369448"><ele>351.2</ele><time>2026-04-18T10:45:55.282Z</time></trkpt><trkpt lat="43.4716953" lon="10.6368678"><ele>352.4</ele><time>2026-04-18T10:45:56.285Z</time></trkpt><trkpt lat="43.4717876" lon="10.6367928"><ele>353.6</ele><time>2026-04-18T10:45:57.283Z</time></trkpt><trkpt lat="43.4718795" lon="10.6367223"><ele>354.8</ele><time>2026-04-18T10:45:58.282Z</time></trkpt><trkpt lat="43.4719723" lon="10.6366505"><ele>356.0</ele><time>2026-04-18T10:45:59.28Z</time></trkpt><trkpt lat="43.4720625" lon="10.6365812"><ele>355.20000000000005</ele><time>2026-04-18T10:46:00.285Z</time></trkpt><trkpt lat="43.4721552" lon="10.6365037"><ele>354.40000000000003</ele><time>2026-04-18T10:46:01.286Z</time></trkpt><trkpt lat="43.4722472" lon="10.6364322"><ele>353.6</ele><time>2026-04-18T10:46:02.289Z</time></trkpt><trkpt lat="43.4723254" lon="10.6363617"><ele>352.8</ele><time>2026-04-18T10:46:03.291Z</time></trkpt><trkpt lat="43.4723865" lon="10.6363059"><ele>352.0</ele><time>2026-04-18T10:46:04.29Z</time></trkpt><trkpt lat="43.4724729" lon="10.6362221"><ele>352.0</ele><time>2026-04-18T10:46:06.288Z</time></trkpt><trkpt lat="43.4725292" lon="10.6361671"><ele>352.0</ele><time>2026-04-18T10:46:08.293Z</time></trkpt><trkpt lat="43.4725761" lon="10.6360869"><ele>352.0</ele><time>2026-04-18T10:46:11.293Z</time></trkpt><trkpt lat="43.4725139" lon="10.6360143"><ele>352.0</ele><time>2026-04-18T10:46:14.28Z</time></trkpt><trkpt lat="43.4724529" lon="10.6360533"><ele>352.0</ele><time>2026-04-18T10:46:15.281Z</time></trkpt><trkpt lat="43.4723696" lon="10.6360879"><ele>352.0</ele><time>2026-04-18T10:46:16.288Z</time></trkpt><trkpt lat="43.4722673" lon="10.6361102"><ele>354.0</ele><time>2026-04-18T10:46:17.289Z</time></trkpt><trkpt lat="43.4721585" lon="10.6361034"><ele>356.0</ele><time>2026-04-18T10:46:18.285Z</time></trkpt><trkpt lat="43.4720447" lon="10.6360612"><ele>358.0</ele><time>2026-04-18T10:46:19.288Z</time></trkpt><trkpt lat="43.4719442" lon="10.6359761"><ele>360.0</ele><time>2026-04-18T10:46:20.364Z</time></trkpt><trkpt lat="43.4718552" lon="10.6358592"><ele>360.0</ele><time>2026-04-18T10:46:21.285Z</time></trkpt><trkpt lat="43.4717793" lon="10.6357111"><ele>360.0</ele><time>2026-04-18T10:46:22.287Z</time></trkpt><trkpt lat="43.4717121" lon="10.635555"><ele>360.0</ele><time>2026-04-18T10:46:23.288Z</time></trkpt><trkpt lat="43.471648" lon="10.6354009"><ele>360.0</ele><time>2026-04-18T10:46:24.281Z</time></trkpt><trkpt lat="43.4715814" lon="10.6352372"><ele>360.75</ele><time>2026-04-18T10:46:25.287Z</time></trkpt><trkpt lat="43.4715144" lon="10.6350662"><ele>361.5</ele><time>2026-04-18T10:46:26.29Z</time></trkpt><trkpt lat="43.4714452" lon="10.6348843"><ele>362.25</ele><time>2026-04-18T10:46:27.286Z</time></trkpt><trkpt lat="43.4713712" lon="10.6346939"><ele>363.0</ele><time>2026-04-18T10:46:28.285Z</time></trkpt><trkpt lat="43.4712919" lon="10.6344997"><ele>359.3333333333333</ele><time>2026-04-18T10:46:29.379Z</time></trkpt><trkpt lat="43.4712129" lon="10.6342999"><ele>355.66666666666663</ele><time>2026-04-18T10:46:30.279Z</time></trkpt><trkpt lat="43.4711351" lon="10.6341047"><ele>352.0</ele><time>2026-04-18T10:46:31.373Z</time></trkpt><trkpt lat="43.4710606" lon="10.6339089"><ele>352.0</ele><time>2026-04-18T10:46:32.406Z</time></trkpt><trkpt lat="43.4709882" lon="10.6337127"><ele>352.0</ele><time>2026-04-18T10:46:33.391Z</time></trkpt><trkpt lat="43.4709209" lon="10.6335206"><ele>352.0</ele><time>2026-04-18T10:46:34.378Z</time></trkpt><trkpt lat="43.4708548" lon="10.6333479"><ele>353.75</ele><time>2026-04-18T10:46:35.383Z</time></trkpt><trkpt lat="43.4707838" lon="10.6331811"><ele>355.5</ele><time>2026-04-18T10:46:36.392Z</time></trkpt><trkpt lat="43.4706967" lon="10.6330208"><ele>357.25</ele><time>2026-04-18T10:46:37.39Z</time></trkpt><trkpt lat="43.4705923" lon="10.6328668"><ele>359.0</ele><time>2026-04-18T10:46:38.375Z</time></trkpt><trkpt lat="43.4704764" lon="10.6327194"><ele>356.33333333333337</ele><time>2026-04-18T10:46:39.278Z</time></trkpt><trkpt lat="43.4703586" lon="10.6325727"><ele>353.6666666666667</ele><time>2026-04-18T10:46:40.401Z</time></trkpt><trkpt lat="43.470152" lon="10.632299"><ele>351.0</ele><time>2026-04-18T10:46:42.278Z</time></trkpt><trkpt lat="43.4700519" lon="10.6321659"><ele>351.0</ele><time>2026-04-18T10:46:43.402Z</time></trkpt><trkpt lat="43.4699387" lon="10.6320497"><ele>351.0</ele><time>2026-04-18T10:46:44.382Z</time></trkpt><trkpt lat="43.4698131" lon="10.6319588"><ele>351.0</ele><time>2026-04-18T10:46:45.381Z</time></trkpt><trkpt lat="43.4696971" lon="10.6319041"><ele>351.0</ele><time>2026-04-18T10:46:46.379Z</time></trkpt><trkpt lat="43.469593" lon="10.6318652"><ele>348.0</ele><time>2026-04-18T10:46:47.408Z</time></trkpt><trkpt lat="43.4694316" lon="10.6317212"><ele>345.0</ele><time>2026-04-18T10:46:49.285Z</time></trkpt><trkpt lat="43.4694019" lon="10.6316016"><ele>342.0</ele><time>2026-04-18T10:46:50.283Z</time></trkpt><trkpt lat="43.4693962" lon="10.6314476"><ele>339.0</ele><time>2026-04-18T10:46:51.283Z</time></trkpt><trkpt lat="43.4693922" lon="10.6312778"><ele>341.5</ele><time>2026-04-18T10:46:52.278Z</time></trkpt><trkpt lat="43.4693499" lon="10.6311055"><ele>344.0</ele><time>2026-04-18T10:46:53.279Z</time></trkpt><trkpt lat="43.4693024" lon="10.6309544"><ele>346.5</ele><time>2026-04-18T10:46:54.281Z</time></trkpt><trkpt lat="43.4692573" lon="10.6308041"><ele>349.0</ele><time>2026-04-18T10:46:55.288Z</time></trkpt><trkpt lat="43.4692281" lon="10.6306456"><ele>349.0</ele><time>2026-04-18T10:46:56.29Z</time></trkpt><trkpt lat="43.4692287" lon="10.630498"><ele>349.0</ele><time>2026-04-18T10:46:57.284Z</time></trkpt><trkpt lat="43.4692575" lon="10.630378"><ele>349.0</ele><time>2026-04-18T10:46:58.284Z</time></trkpt><trkpt lat="43.4693215" lon="10.6302711"><ele>349.0</ele><time>2026-04-18T10:46:59.392Z</time></trkpt><trkpt lat="43.469395" lon="10.6301606"><ele>349.0</ele><time>2026-04-18T10:47:00.379Z</time></trkpt><trkpt lat="43.4694518" lon="10.6300342"><ele>351.0</ele><time>2026-04-18T10:47:01.381Z</time></trkpt><trkpt lat="43.4694863" lon="10.6299052"><ele>353.0</ele><time>2026-04-18T10:47:02.407Z</time></trkpt><trkpt lat="43.4695001" lon="10.6297874"><ele>355.0</ele><time>2026-04-18T10:47:03.387Z</time></trkpt><trkpt lat="43.4695011" lon="10.6296843"><ele>357.0</ele><time>2026-04-18T10:47:04.411Z</time></trkpt><trkpt lat="43.469426" lon="10.6295563"><ele>359.0</ele><time>2026-04-18T10:47:06.399Z</time></trkpt><trkpt lat="43.4693516" lon="10.6295223"><ele>359.0</ele><time>2026-04-18T10:47:07.38Z</time></trkpt><trkpt lat="43.4692711" lon="10.629526"><ele>359.0</ele><time>2026-04-18T10:47:08.386Z</time></trkpt><trkpt lat="43.469191" lon="10.6295691"><ele>359.0</ele><time>2026-04-18T10:47:09.381Z</time></trkpt><trkpt lat="43.4691093" lon="10.629647"><ele>359.0</ele><time>2026-04-18T10:47:10.379Z</time></trkpt><trkpt lat="43.4689199" lon="10.629806"><ele>359.0</ele><time>2026-04-18T10:47:12.278Z</time></trkpt><trkpt lat="43.4688184" lon="10.6298897"><ele>359.0</ele><time>2026-04-18T10:47:13.283Z</time></trkpt><trkpt lat="43.4687207" lon="10.629994"><ele>359.0</ele><time>2026-04-18T10:47:14.283Z</time></trkpt><trkpt lat="43.4686401" lon="10.6301245"><ele>359.0</ele><time>2026-04-18T10:47:15.285Z</time></trkpt><trkpt lat="43.468578" lon="10.6302475"><ele>360.25</ele><time>2026-04-18T10:47:16.283Z</time></trkpt><trkpt lat="43.4685485" lon="10.6304679"><ele>361.5</ele><time>2026-04-18T10:47:17.289Z</time></trkpt><trkpt lat="43.46851" lon="10.6306461"><ele>362.75</ele><time>2026-04-18T10:47:18.286Z</time></trkpt><trkpt lat="43.4684716" lon="10.6308105"><ele>364.0</ele><time>2026-04-18T10:47:19.282Z</time></trkpt><trkpt lat="43.468426" lon="10.6309659"><ele>364.0</ele><time>2026-04-18T10:47:20.281Z</time></trkpt><trkpt lat="43.468355" lon="10.6311057"><ele>364.0</ele><time>2026-04-18T10:47:21.286Z</time></trkpt><trkpt lat="43.4682683" lon="10.6311924"><ele>364.0</ele><time>2026-04-18T10:47:22.284Z</time></trkpt><trkpt lat="43.4681789" lon="10.6312206"><ele>364.0</ele><time>2026-04-18T10:47:23.279Z</time></trkpt><trkpt lat="43.4680865" lon="10.6312042"><ele>364.0</ele><time>2026-04-18T10:47:24.278Z</time></trkpt><trkpt lat="43.4679884" lon="10.631161"><ele>364.25</ele><time>2026-04-18T10:47:25.393Z</time></trkpt><trkpt lat="43.4678844" lon="10.6311063"><ele>364.5</ele><time>2026-04-18T10:47:26.38Z</time></trkpt><trkpt lat="43.4677713" lon="10.6310462"><ele>364.75</ele><time>2026-04-18T10:47:27.381Z</time></trkpt><trkpt lat="43.467648" lon="10.6309895"><ele>365.0</ele><time>2026-04-18T10:47:28.287Z</time></trkpt><trkpt lat="43.4675206" lon="10.6309345"><ele>365.0</ele><time>2026-04-18T10:47:29.387Z</time></trkpt><trkpt lat="43.4673924" lon="10.6308747"><ele>365.0</ele><time>2026-04-18T10:47:30.421Z</time></trkpt><trkpt lat="43.4671304" lon="10.630768"><ele>365.0</ele><time>2026-04-18T10:47:32.384Z</time></trkpt><trkpt lat="43.4669889" lon="10.6307656"><ele>364.75</ele><time>2026-04-18T10:47:33.287Z</time></trkpt><trkpt lat="43.4668521" lon="10.6308011"><ele>364.5</ele><time>2026-04-18T10:47:34.374Z</time></trkpt><trkpt lat="43.466726" lon="10.6308485"><ele>364.25</ele><time>2026-04-18T10:47:35.376Z</time></trkpt><trkpt lat="43.4666227" lon="10.6308969"><ele>364.0</ele><time>2026-04-18T10:47:36.378Z</time></trkpt><trkpt lat="43.4665301" lon="10.6309325"><ele>364.0</ele><time>2026-04-18T10:47:37.399Z</time></trkpt><trkpt lat="43.4663647" lon="10.6309406"><ele>364.0</ele><time>2026-04-18T10:47:39.291Z</time></trkpt><trkpt lat="43.4662906" lon="10.6308998"><ele>364.0</ele><time>2026-04-18T10:47:40.286Z</time></trkpt><trkpt lat="43.4662292" lon="10.630855"><ele>364.0</ele><time>2026-04-18T10:47:41.284Z</time></trkpt><trkpt lat="43.4661748" lon="10.6308027"><ele>364.0</ele><time>2026-04-18T10:47:42.286Z</time></trkpt><trkpt lat="43.4661262" lon="10.630741"><ele>364.0</ele><time>2026-04-18T10:47:43.292Z</time></trkpt><trkpt lat="43.4660864" lon="10.6306636"><ele>363.8333333333333</ele><time>2026-04-18T10:47:44.287Z</time></trkpt><trkpt lat="43.4660574" lon="10.6305786"><ele>363.66666666666663</ele><time>2026-04-18T10:47:45.287Z</time></trkpt><trkpt lat="43.4660418" lon="10.6304803"><ele>363.5</ele><time>2026-04-18T10:47:46.402Z</time></trkpt><trkpt lat="43.4660382" lon="10.6303676"><ele>363.3333333333333</ele><time>2026-04-18T10:47:47.399Z</time></trkpt><trkpt lat="43.4660521" lon="10.6302517"><ele>363.1666666666667</ele><time>2026-04-18T10:47:48.404Z</time></trkpt><trkpt lat="43.4660684" lon="10.6301393"><ele>363.0</ele><time>2026-04-18T10:47:49.381Z</time></trkpt><trkpt lat="43.466069" lon="10.6300243"><ele>363.4</ele><time>2026-04-18T10:47:50.288Z</time></trkpt><trkpt lat="43.4660519" lon="10.6299126"><ele>363.79999999999995</ele><time>2026-04-18T10:47:51.288Z</time></trkpt><trkpt lat="43.4660176" lon="10.6298039"><ele>364.2</ele><time>2026-04-18T10:47:52.324Z</time></trkpt><trkpt lat="43.4659629" lon="10.6296955"><ele>364.6</ele><time>2026-04-18T10:47:53.333Z</time></trkpt><trkpt lat="43.4658952" lon="10.6295874"><ele>365.0</ele><time>2026-04-18T10:47:54.286Z</time></trkpt><trkpt lat="43.4658181" lon="10.6294713"><ele>368.5</ele><time>2026-04-18T10:47:55.286Z</time></trkpt><trkpt lat="43.4657378" lon="10.6293479"><ele>372.0</ele><time>2026-04-18T10:47:56.382Z</time></trkpt><trkpt lat="43.4656481" lon="10.62923"><ele>375.5</ele><time>2026-04-18T10:47:57.408Z</time></trkpt><trkpt lat="43.4655577" lon="10.629132"><ele>379.0</ele><time>2026-04-18T10:47:58.384Z</time></trkpt><trkpt lat="43.4654599" lon="10.6290426"><ele>376.0</ele><time>2026-04-18T10:47:59.398Z</time></trkpt><trkpt lat="43.4653664" lon="10.6289474"><ele>373.0</ele><time>2026-04-18T10:48:00.396Z</time></trkpt><trkpt lat="43.4652821" lon="10.6288296"><ele>370.0</ele><time>2026-04-18T10:48:01.387Z</time></trkpt><trkpt lat="43.4652019" lon="10.628703"><ele>367.0</ele><time>2026-04-18T10:48:02.386Z</time></trkpt><trkpt lat="43.465137" lon="10.6285854"><ele>367.0</ele><time>2026-04-18T10:48:03.397Z</time></trkpt><trkpt lat="43.4650813" lon="10.628471"><ele>367.0</ele><time>2026-04-18T10:48:04.37Z</time></trkpt><trkpt lat="43.4650497" lon="10.628369"><ele>367.0</ele><time>2026-04-18T10:48:05.369Z</time></trkpt><trkpt lat="43.465047" lon="10.6282772"><ele>367.0</ele><time>2026-04-18T10:48:06.381Z</time></trkpt><trkpt lat="43.4650652" lon="10.6281711"><ele>367.0</ele><time>2026-04-18T10:48:07.288Z</time></trkpt><trkpt lat="43.4651073" lon="10.6280578"><ele>367.0</ele><time>2026-04-18T10:48:08.287Z</time></trkpt><trkpt lat="43.4651598" lon="10.6279372"><ele>367.8</ele><time>2026-04-18T10:48:09.283Z</time></trkpt><trkpt lat="43.4652313" lon="10.627808"><ele>368.6</ele><time>2026-04-18T10:48:10.286Z</time></trkpt><trkpt lat="43.4653027" lon="10.6276939"><ele>369.40000000000003</ele><time>2026-04-18T10:48:11.289Z</time></trkpt><trkpt lat="43.4653807" lon="10.6275967"><ele>370.20000000000005</ele><time>2026-04-18T10:48:12.286Z</time></trkpt><trkpt lat="43.4654409" lon="10.627506"><ele>371.0</ele><time>2026-04-18T10:48:13.282Z</time></trkpt><trkpt lat="43.4655006" lon="10.6274354"><ele>371.0</ele><time>2026-04-18T10:48:14.288Z</time></trkpt><trkpt lat="43.4655198" lon="10.6273288"><ele>371.0</ele><time>2026-04-18T10:48:15.288Z</time></trkpt><trkpt lat="43.4655061" lon="10.6272036"><ele>371.0</ele><time>2026-04-18T10:48:17.289Z</time></trkpt><trkpt lat="43.4654242" lon="10.6270043"><ele>371.0</ele><time>2026-04-18T10:48:20.404Z</time></trkpt><trkpt lat="43.4653285" lon="10.6269559"><ele>371.0</ele><time>2026-04-18T10:48:21.382Z</time></trkpt><trkpt lat="43.4650024" lon="10.6269651"><ele>369.20000000000005</ele><time>2026-04-18T10:48:23.38Z</time></trkpt><trkpt lat="43.4649006" lon="10.6269415"><ele>367.40000000000003</ele><time>2026-04-18T10:48:24.282Z</time></trkpt><trkpt lat="43.4647979" lon="10.626905"><ele>365.6</ele><time>2026-04-18T10:48:25.285Z</time></trkpt><trkpt lat="43.464707" lon="10.6268569"><ele>363.8</ele><time>2026-04-18T10:48:26.296Z</time></trkpt><trkpt lat="43.4646202" lon="10.6267939"><ele>362.0</ele><time>2026-04-18T10:48:27.368Z</time></trkpt><trkpt lat="43.4645477" lon="10.6267209"><ele>362.0</ele><time>2026-04-18T10:48:28.379Z</time></trkpt><trkpt lat="43.4644896" lon="10.6266436"><ele>362.0</ele><time>2026-04-18T10:48:29.305Z</time></trkpt><trkpt lat="43.4644465" lon="10.6265457"><ele>362.0</ele><time>2026-04-18T10:48:30.291Z</time></trkpt><trkpt lat="43.4644219" lon="10.6264326"><ele>362.0</ele><time>2026-04-18T10:48:31.285Z</time></trkpt><trkpt lat="43.4644072" lon="10.6263065"><ele>362.0</ele><time>2026-04-18T10:48:32.283Z</time></trkpt><trkpt lat="43.4644044" lon="10.6261588"><ele>362.0</ele><time>2026-04-18T10:48:33.282Z</time></trkpt><trkpt lat="43.4644187" lon="10.6260283"><ele>362.8</ele><time>2026-04-18T10:48:34.286Z</time></trkpt><trkpt lat="43.4644494" lon="10.6259121"><ele>363.6</ele><time>2026-04-18T10:48:35.285Z</time></trkpt><trkpt lat="43.4645051" lon="10.6258011"><ele>364.40000000000003</ele><time>2026-04-18T10:48:36.284Z</time></trkpt><trkpt lat="43.4645708" lon="10.6256896"><ele>365.20000000000005</ele><time>2026-04-18T10:48:37.287Z</time></trkpt><trkpt lat="43.4646439" lon="10.6255757"><ele>366.0</ele><time>2026-04-18T10:48:38.284Z</time></trkpt><trkpt lat="43.4647062" lon="10.6254625"><ele>371.1666666666667</ele><time>2026-04-18T10:48:39.283Z</time></trkpt><trkpt lat="43.4647483" lon="10.6253513"><ele>376.33333333333337</ele><time>2026-04-18T10:48:40.29Z</time></trkpt><trkpt lat="43.4647579" lon="10.625251"><ele>381.5</ele><time>2026-04-18T10:48:41.284Z</time></trkpt><trkpt lat="43.4647512" lon="10.6251348"><ele>386.6666666666667</ele><time>2026-04-18T10:48:42.287Z</time></trkpt><trkpt lat="43.4647433" lon="10.6250246"><ele>391.83333333333337</ele><time>2026-04-18T10:48:43.29Z</time></trkpt><trkpt lat="43.4647534" lon="10.6249271"><ele>397.0</ele><time>2026-04-18T10:48:44.291Z</time></trkpt><trkpt lat="43.4647816" lon="10.6248309"><ele>397.0</ele><time>2026-04-18T10:48:45.406Z</time></trkpt><trkpt lat="43.4648345" lon="10.6247314"><ele>397.0</ele><time>2026-04-18T10:48:46.392Z</time></trkpt><trkpt lat="43.4648937" lon="10.6246267"><ele>397.0</ele><time>2026-04-18T10:48:47.404Z</time></trkpt><trkpt lat="43.4649683" lon="10.6245306"><ele>397.0</ele><time>2026-04-18T10:48:48.373Z</time></trkpt><trkpt lat="43.4650445" lon="10.624423"><ele>397.0</ele><time>2026-04-18T10:48:49.399Z</time></trkpt><trkpt lat="43.4651164" lon="10.6243014"><ele>394.40000000000003</ele><time>2026-04-18T10:48:50.395Z</time></trkpt><trkpt lat="43.4651808" lon="10.6241763"><ele>391.8</ele><time>2026-04-18T10:48:51.382Z</time></trkpt><trkpt lat="43.4652274" lon="10.6240367"><ele>389.2</ele><time>2026-04-18T10:48:52.378Z</time></trkpt><trkpt lat="43.4652705" lon="10.62391"><ele>386.6</ele><time>2026-04-18T10:48:53.289Z</time></trkpt><trkpt lat="43.4653276" lon="10.6237928"><ele>384.0</ele><time>2026-04-18T10:48:54.282Z</time></trkpt><trkpt lat="43.4653952" lon="10.6236741"><ele>388.0</ele><time>2026-04-18T10:48:55.286Z</time></trkpt><trkpt lat="43.4654663" lon="10.6235474"><ele>392.0</ele><time>2026-04-18T10:48:56.282Z</time></trkpt><trkpt lat="43.4655347" lon="10.6234059"><ele>396.0</ele><time>2026-04-18T10:48:57.285Z</time></trkpt><trkpt lat="43.4655894" lon="10.6232695"><ele>400.0</ele><time>2026-04-18T10:48:58.287Z</time></trkpt><trkpt lat="43.4656472" lon="10.6231499"><ele>400.0</ele><time>2026-04-18T10:48:59.284Z</time></trkpt><trkpt lat="43.465702" lon="10.6230605"><ele>400.0</ele><time>2026-04-18T10:49:00.395Z</time></trkpt><trkpt lat="43.4657495" lon="10.6229914"><ele>400.0</ele><time>2026-04-18T10:49:01.353Z</time></trkpt><trkpt lat="43.4658598" lon="10.6229081"><ele>400.0</ele><time>2026-04-18T10:49:03.284Z</time></trkpt><trkpt lat="43.4659392" lon="10.6229061"><ele>400.0</ele><time>2026-04-18T10:49:04.288Z</time></trkpt><trkpt lat="43.4660366" lon="10.6228753"><ele>400.0</ele><time>2026-04-18T10:49:05.288Z</time></trkpt><trkpt lat="43.4661289" lon="10.622851"><ele>400.0</ele><time>2026-04-18T10:49:06.288Z</time></trkpt><trkpt lat="43.4662194" lon="10.6228189"><ele>400.0</ele><time>2026-04-18T10:49:07.285Z</time></trkpt><trkpt lat="43.4662958" lon="10.62277"><ele>400.0</ele><time>2026-04-18T10:49:08.399Z</time></trkpt><trkpt lat="43.4663636" lon="10.6226928"><ele>400.0</ele><time>2026-04-18T10:49:09.404Z</time></trkpt><trkpt lat="43.4664028" lon="10.6225785"><ele>400.6</ele><time>2026-04-18T10:49:10.399Z</time></trkpt><trkpt lat="43.4664477" lon="10.6224742"><ele>401.2</ele><time>2026-04-18T10:49:11.4Z</time></trkpt><trkpt lat="43.4664832" lon="10.6223676"><ele>401.79999999999995</ele><time>2026-04-18T10:49:12.382Z</time></trkpt><trkpt lat="43.4664552" lon="10.6222278"><ele>402.4</ele><time>2026-04-18T10:49:13.381Z</time></trkpt><trkpt lat="43.4664581" lon="10.6220985"><ele>403.0</ele><time>2026-04-18T10:49:14.41Z</time></trkpt><trkpt lat="43.4664777" lon="10.6219466"><ele>403.0</ele><time>2026-04-18T10:49:15.389Z</time></trkpt><trkpt lat="43.4664992" lon="10.6218139"><ele>403.0</ele><time>2026-04-18T10:49:16.396Z</time></trkpt><trkpt lat="43.4665481" lon="10.6215944"><ele>403.0</ele><time>2026-04-18T10:49:18.381Z</time></trkpt><trkpt lat="43.4665806" lon="10.6215163"><ele>403.0</ele><time>2026-04-18T10:49:19.284Z</time></trkpt><trkpt lat="43.4666269" lon="10.621453"><ele>403.0</ele><time>2026-04-18T10:49:20.399Z</time></trkpt><trkpt lat="43.466718" lon="10.6213961"><ele>403.0</ele><time>2026-04-18T10:49:21.397Z</time></trkpt><trkpt lat="43.4667882" lon="10.6213336"><ele>403.0</ele><time>2026-04-18T10:49:22.405Z</time></trkpt><trkpt lat="43.466915" lon="10.6211944"><ele>403.0</ele><time>2026-04-18T10:49:24.284Z</time></trkpt><trkpt lat="43.4669677" lon="10.621065"><ele>403.0</ele><time>2026-04-18T10:49:26.403Z</time></trkpt><trkpt lat="43.4669171" lon="10.6208349"><ele>403.59999999999997</ele><time>2026-04-18T10:49:28.281Z</time></trkpt><trkpt lat="43.4669027" lon="10.620713"><ele>404.2</ele><time>2026-04-18T10:49:29.285Z</time></trkpt><trkpt lat="43.4668316" lon="10.6206351"><ele>404.8</ele><time>2026-04-18T10:49:30.386Z</time></trkpt><trkpt lat="43.4667103" lon="10.620466"><ele>405.4</ele><time>2026-04-18T10:49:32.278Z</time></trkpt><trkpt lat="43.4666642" lon="10.620386"><ele>406.0</ele><time>2026-04-18T10:49:33.286Z</time></trkpt><trkpt lat="43.4666406" lon="10.6202066"><ele>406.0</ele><time>2026-04-18T10:49:35.287Z</time></trkpt><trkpt lat="43.4666517" lon="10.6200951"><ele>406.0</ele><time>2026-04-18T10:49:36.285Z</time></trkpt><trkpt lat="43.4666704" lon="10.619966"><ele>406.0</ele><time>2026-04-18T10:49:37.285Z</time></trkpt><trkpt lat="43.4666906" lon="10.6198328"><ele>406.0</ele><time>2026-04-18T10:49:38.285Z</time></trkpt><trkpt lat="43.4667049" lon="10.6196883"><ele>406.0</ele><time>2026-04-18T10:49:39.281Z</time></trkpt><trkpt lat="43.4667085" lon="10.6195281"><ele>407.5</ele><time>2026-04-18T10:49:40.282Z</time></trkpt><trkpt lat="43.4667006" lon="10.6193642"><ele>409.0</ele><time>2026-04-18T10:49:41.283Z</time></trkpt><trkpt lat="43.4666829" lon="10.6192007"><ele>410.5</ele><time>2026-04-18T10:49:42.285Z</time></trkpt><trkpt lat="43.4666701" lon="10.6190404"><ele>412.0</ele><time>2026-04-18T10:49:43.283Z</time></trkpt><trkpt lat="43.4666709" lon="10.6188958"><ele>412.00000000000006</ele><time>2026-04-18T10:49:44.281Z</time></trkpt><trkpt lat="43.4666661" lon="10.6187642"><ele>412.0</ele><time>2026-04-18T10:49:45.285Z</time></trkpt><trkpt lat="43.4666509" lon="10.6186579"><ele>412.0</ele><time>2026-04-18T10:49:46.281Z</time></trkpt><trkpt lat="43.4666127" lon="10.6185531"><ele>412.0</ele><time>2026-04-18T10:49:47.284Z</time></trkpt><trkpt lat="43.4665617" lon="10.6184593"><ele>412.00000000000006</ele><time>2026-04-18T10:49:48.283Z</time></trkpt><trkpt lat="43.466496" lon="10.6183557"><ele>412.0</ele><time>2026-04-18T10:49:49.287Z</time></trkpt><trkpt lat="43.4664339" lon="10.6182631"><ele>412.40000000000003</ele><time>2026-04-18T10:49:50.287Z</time></trkpt><trkpt lat="43.4663805" lon="10.6181687"><ele>412.8</ele><time>2026-04-18T10:49:51.285Z</time></trkpt><trkpt lat="43.4663239" lon="10.6180558"><ele>413.2</ele><time>2026-04-18T10:49:52.285Z</time></trkpt><trkpt lat="43.4662631" lon="10.6179435"><ele>413.6</ele><time>2026-04-18T10:49:53.285Z</time></trkpt><trkpt lat="43.4662009" lon="10.617827"><ele>414.0</ele><time>2026-04-18T10:49:54.284Z</time></trkpt><trkpt lat="43.466154" lon="10.6177036"><ele>414.0</ele><time>2026-04-18T10:49:55.284Z</time></trkpt><trkpt lat="43.4661071" lon="10.6175635"><ele>414.0</ele><time>2026-04-18T10:49:56.284Z</time></trkpt><trkpt lat="43.4660591" lon="10.6174223"><ele>414.0</ele><time>2026-04-18T10:49:57.283Z</time></trkpt><trkpt lat="43.4660058" lon="10.6172793"><ele>414.0</ele><time>2026-04-18T10:49:58.283Z</time></trkpt><trkpt lat="43.4659507" lon="10.6171364"><ele>418.5</ele><time>2026-04-18T10:49:59.284Z</time></trkpt><trkpt lat="43.4658891" lon="10.6169643"><ele>423.0</ele><time>2026-04-18T10:50:00.288Z</time></trkpt><trkpt lat="43.4658407" lon="10.6168158"><ele>427.5</ele><time>2026-04-18T10:50:01.289Z</time></trkpt><trkpt lat="43.4657939" lon="10.6166514"><ele>432.0</ele><time>2026-04-18T10:50:02.286Z</time></trkpt><trkpt lat="43.4657483" lon="10.6164808"><ele>432.0</ele><time>2026-04-18T10:50:03.284Z</time></trkpt><trkpt lat="43.4657069" lon="10.6163068"><ele>432.0</ele><time>2026-04-18T10:50:04.291Z</time></trkpt><trkpt lat="43.4656633" lon="10.6161398"><ele>432.0</ele><time>2026-04-18T10:50:05.287Z</time></trkpt><trkpt lat="43.4656126" lon="10.6159761"><ele>432.0</ele><time>2026-04-18T10:50:06.287Z</time></trkpt><trkpt lat="43.4655926" lon="10.6158677"><ele>433.5</ele><time>2026-04-18T10:50:07.285Z</time></trkpt><trkpt lat="43.465599" lon="10.615781"><ele>435.0</ele><time>2026-04-18T10:50:08.289Z</time></trkpt><trkpt lat="43.4656094" lon="10.6156153"><ele>436.5</ele><time>2026-04-18T10:50:09.281Z</time></trkpt><trkpt lat="43.4656239" lon="10.6155205"><ele>438.0</ele><time>2026-04-18T10:50:10.291Z</time></trkpt><trkpt lat="43.4656582" lon="10.6154471"><ele>439.5</ele><time>2026-04-18T10:50:11.289Z</time></trkpt><trkpt lat="43.4656953" lon="10.6153543"><ele>441.0</ele><time>2026-04-18T10:50:12.291Z</time></trkpt><trkpt lat="43.4657424" lon="10.6152138"><ele>441.20000000000005</ele><time>2026-04-18T10:50:13.29Z</time></trkpt><trkpt lat="43.4657728" lon="10.6150884"><ele>441.40000000000003</ele><time>2026-04-18T10:50:14.289Z</time></trkpt><trkpt lat="43.4657632" lon="10.6149465"><ele>441.6</ele><time>2026-04-18T10:50:15.287Z</time></trkpt><trkpt lat="43.4657781" lon="10.6147633"><ele>441.8</ele><time>2026-04-18T10:50:16.287Z</time></trkpt><trkpt lat="43.4657989" lon="10.6146373"><ele>442.0</ele><time>2026-04-18T10:50:17.289Z</time></trkpt><trkpt lat="43.4658266" lon="10.6145073"><ele>444.25</ele><time>2026-04-18T10:50:18.288Z</time></trkpt><trkpt lat="43.4658769" lon="10.6143855"><ele>446.5</ele><time>2026-04-18T10:50:19.288Z</time></trkpt><trkpt lat="43.4659829" lon="10.6142368"><ele>448.75</ele><time>2026-04-18T10:50:20.287Z</time></trkpt><trkpt lat="43.4660499" lon="10.6140962"><ele>451.0</ele><time>2026-04-18T10:50:21.292Z</time></trkpt><trkpt lat="43.4661275" lon="10.6139881"><ele>451.0</ele><time>2026-04-18T10:50:22.287Z</time></trkpt><trkpt lat="43.466186" lon="10.6138908"><ele>451.0</ele><time>2026-04-18T10:50:23.289Z</time></trkpt><trkpt lat="43.4662267" lon="10.6137979"><ele>451.0</ele><time>2026-04-18T10:50:24.29Z</time></trkpt><trkpt lat="43.4662458" lon="10.6137094"><ele>451.0</ele><time>2026-04-18T10:50:25.276Z</time></trkpt><trkpt lat="43.4662545" lon="10.6136087"><ele>451.0</ele><time>2026-04-18T10:50:26.292Z</time></trkpt><trkpt lat="43.4662427" lon="10.6135216"><ele>451.0</ele><time>2026-04-18T10:50:27.327Z</time></trkpt><trkpt lat="43.4662091" lon="10.6134409"><ele>451.0</ele><time>2026-04-18T10:50:28.379Z</time></trkpt><trkpt lat="43.466125" lon="10.6133086"><ele>451.0</ele><time>2026-04-18T10:50:30.395Z</time></trkpt><trkpt lat="43.4660299" lon="10.6133617"><ele>451.0</ele><time>2026-04-18T10:50:32.404Z</time></trkpt><trkpt lat="43.4659624" lon="10.6133888"><ele>451.0</ele><time>2026-04-18T10:50:33.398Z</time></trkpt><trkpt lat="43.4658251" lon="10.6137419"><ele>451.0</ele><time>2026-04-18T10:50:35.384Z</time></trkpt><trkpt lat="43.4657796" lon="10.6138966"><ele>451.0</ele><time>2026-04-18T10:50:36.383Z</time></trkpt><trkpt lat="43.4657265" lon="10.6139931"><ele>451.0</ele><time>2026-04-18T10:50:37.374Z</time></trkpt><trkpt lat="43.4656406" lon="10.6141168"><ele>451.0</ele><time>2026-04-18T10:50:38.399Z</time></trkpt><trkpt lat="43.4655593" lon="10.6142623"><ele>456.33333333333337</ele><time>2026-04-18T10:50:39.405Z</time></trkpt><trkpt lat="43.4653784" lon="10.6144839"><ele>461.66666666666663</ele><time>2026-04-18T10:50:41.393Z</time></trkpt><trkpt lat="43.4653064" lon="10.6146227"><ele>467.0</ele><time>2026-04-18T10:50:42.397Z</time></trkpt><trkpt lat="43.4652398" lon="10.614757"><ele>467.0</ele><time>2026-04-18T10:50:43.401Z</time></trkpt><trkpt lat="43.465163" lon="10.6148684"><ele>467.0</ele><time>2026-04-18T10:50:44.402Z</time></trkpt><trkpt lat="43.4650704" lon="10.6149942"><ele>467.0</ele><time>2026-04-18T10:50:45.405Z</time></trkpt><trkpt lat="43.4649827" lon="10.6151095"><ele>467.0</ele><time>2026-04-18T10:50:46.38Z</time></trkpt><trkpt lat="43.4649325" lon="10.615239"><ele>468.40000000000003</ele><time>2026-04-18T10:50:47.376Z</time></trkpt><trkpt lat="43.4648651" lon="10.6153802"><ele>469.80000000000007</ele><time>2026-04-18T10:50:48.29Z</time></trkpt><trkpt lat="43.464819" lon="10.615497"><ele>471.2</ele><time>2026-04-18T10:50:49.398Z</time></trkpt><trkpt lat="43.4647533" lon="10.6156289"><ele>472.6</ele><time>2026-04-18T10:50:50.384Z</time></trkpt><trkpt lat="43.4646931" lon="10.6157413"><ele>474.0</ele><time>2026-04-18T10:50:51.392Z</time></trkpt><trkpt lat="43.4645327" lon="10.6159783"><ele>474.0</ele><time>2026-04-18T10:50:53.293Z</time></trkpt><trkpt lat="43.4644624" lon="10.6160825"><ele>474.0</ele><time>2026-04-18T10:50:54.295Z</time></trkpt><trkpt lat="43.4644077" lon="10.6161804"><ele>474.0</ele><time>2026-04-18T10:50:55.28Z</time></trkpt><trkpt lat="43.4643628" lon="10.6162775"><ele>474.0</ele><time>2026-04-18T10:50:56.281Z</time></trkpt><trkpt lat="43.4643213" lon="10.6163841"><ele>474.0</ele><time>2026-04-18T10:50:57.284Z</time></trkpt><trkpt lat="43.4642809" lon="10.6164957"><ele>470.6</ele><time>2026-04-18T10:50:58.283Z</time></trkpt><trkpt lat="43.4642572" lon="10.6165953"><ele>467.2</ele><time>2026-04-18T10:50:59.282Z</time></trkpt><trkpt lat="43.4642146" lon="10.6166852"><ele>463.80000000000007</ele><time>2026-04-18T10:51:00.281Z</time></trkpt><trkpt lat="43.4641198" lon="10.6167505"><ele>460.40000000000003</ele><time>2026-04-18T10:51:02.287Z</time></trkpt><trkpt lat="43.464055" lon="10.6166706"><ele>457.0</ele><time>2026-04-18T10:51:04.345Z</time></trkpt><trkpt lat="43.4640045" lon="10.616499"><ele>457.0</ele><time>2026-04-18T10:51:06.432Z</time></trkpt><trkpt lat="43.4639506" lon="10.6162059"><ele>457.0</ele><time>2026-04-18T10:51:08.29Z</time></trkpt><trkpt lat="43.4639111" lon="10.6160932"><ele>457.0</ele><time>2026-04-18T10:51:09.284Z</time></trkpt><trkpt lat="43.4638559" lon="10.6159724"><ele>457.0</ele><time>2026-04-18T10:51:10.284Z</time></trkpt><trkpt lat="43.4637832" lon="10.6158272"><ele>461.0</ele><time>2026-04-18T10:51:11.284Z</time></trkpt><trkpt lat="43.4636949" lon="10.6156811"><ele>465.0</ele><time>2026-04-18T10:51:12.284Z</time></trkpt><trkpt lat="43.4636153" lon="10.6155689"><ele>469.0</ele><time>2026-04-18T10:51:13.287Z</time></trkpt><trkpt lat="43.4635353" lon="10.6154472"><ele>473.0</ele><time>2026-04-18T10:51:14.288Z</time></trkpt><trkpt lat="43.4634572" lon="10.6153702"><ele>472.99999999999994</ele><time>2026-04-18T10:51:15.284Z</time></trkpt><trkpt lat="43.463433" lon="10.6152508"><ele>473.0</ele><time>2026-04-18T10:51:16.284Z</time></trkpt><trkpt lat="43.4633925" lon="10.6151685"><ele>473.0</ele><time>2026-04-18T10:51:17.284Z</time></trkpt><trkpt lat="43.4633484" lon="10.6150973"><ele>473.0</ele><time>2026-04-18T10:51:18.284Z</time></trkpt><trkpt lat="43.4632544" lon="10.6151182"><ele>472.99999999999994</ele><time>2026-04-18T10:51:20.284Z</time></trkpt><trkpt lat="43.4632011" lon="10.6152202"><ele>473.0</ele><time>2026-04-18T10:51:22.286Z</time></trkpt><trkpt lat="43.463168" lon="10.6153502"><ele>473.0</ele><time>2026-04-18T10:51:24.282Z</time></trkpt><trkpt lat="43.4632041" lon="10.6154808"><ele>472.99999999999994</ele><time>2026-04-18T10:51:25.29Z</time></trkpt><trkpt lat="43.4632034" lon="10.6156266"><ele>472.99999999999994</ele><time>2026-04-18T10:51:26.281Z</time></trkpt><trkpt lat="43.4631997" lon="10.6157735"><ele>473.0</ele><time>2026-04-18T10:51:27.28Z</time></trkpt><trkpt lat="43.4632103" lon="10.6159293"><ele>473.0</ele><time>2026-04-18T10:51:28.286Z</time></trkpt><trkpt lat="43.4632304" lon="10.6161043"><ele>470.79999999999995</ele><time>2026-04-18T10:51:29.283Z</time></trkpt><trkpt lat="43.463232" lon="10.6162534"><ele>468.59999999999997</ele><time>2026-04-18T10:51:30.281Z</time></trkpt><trkpt lat="43.463241" lon="10.6163894"><ele>466.40000000000003</ele><time>2026-04-18T10:51:31.284Z</time></trkpt><trkpt lat="43.4632342" lon="10.6165022"><ele>464.20000000000005</ele><time>2026-04-18T10:51:32.281Z</time></trkpt><trkpt lat="43.4632136" lon="10.6166067"><ele>462.0</ele><time>2026-04-18T10:51:33.288Z</time></trkpt><trkpt lat="43.4631733" lon="10.6167077"><ele>462.0</ele><time>2026-04-18T10:51:34.288Z</time></trkpt><trkpt lat="43.4631301" lon="10.6167975"><ele>462.00000000000006</ele><time>2026-04-18T10:51:35.282Z</time></trkpt><trkpt lat="43.4630245" lon="10.6168142"><ele>462.00000000000006</ele><time>2026-04-18T10:51:36.285Z</time></trkpt><trkpt lat="43.4629361" lon="10.6168823"><ele>462.0</ele><time>2026-04-18T10:51:37.275Z</time></trkpt><trkpt lat="43.4628542" lon="10.616918"><ele>462.0</ele><time>2026-04-18T10:51:38.283Z</time></trkpt><trkpt lat="43.462769" lon="10.6168766"><ele>462.1666666666667</ele><time>2026-04-18T10:51:39.284Z</time></trkpt><trkpt lat="43.4627103" lon="10.6168443"><ele>462.33333333333337</ele><time>2026-04-18T10:51:40.284Z</time></trkpt><trkpt lat="43.4626447" lon="10.6168039"><ele>462.5</ele><time>2026-04-18T10:51:41.284Z</time></trkpt><trkpt lat="43.4625893" lon="10.6167431"><ele>462.6666666666667</ele><time>2026-04-18T10:51:42.34Z</time></trkpt><trkpt lat="43.4625324" lon="10.6166667"><ele>462.83333333333337</ele><time>2026-04-18T10:51:43.283Z</time></trkpt><trkpt lat="43.4624861" lon="10.6165843"><ele>463.0</ele><time>2026-04-18T10:51:44.286Z</time></trkpt><trkpt lat="43.4624263" lon="10.6164759"><ele>463.0</ele><time>2026-04-18T10:51:45.286Z</time></trkpt><trkpt lat="43.4623712" lon="10.6163524"><ele>462.99999999999994</ele><time>2026-04-18T10:51:46.285Z</time></trkpt><trkpt lat="43.4623279" lon="10.6162453"><ele>462.99999999999994</ele><time>2026-04-18T10:51:47.281Z</time></trkpt><trkpt lat="43.4622951" lon="10.6161544"><ele>463.0</ele><time>2026-04-18T10:51:48.396Z</time></trkpt><trkpt lat="43.4622009" lon="10.6160498"><ele>463.0</ele><time>2026-04-18T10:51:50.285Z</time></trkpt><trkpt lat="43.462109" lon="10.6160219"><ele>464.75</ele><time>2026-04-18T10:51:52.384Z</time></trkpt><trkpt lat="43.4619357" lon="10.616126"><ele>466.5</ele><time>2026-04-18T10:51:55.282Z</time></trkpt><trkpt lat="43.4618684" lon="10.6162537"><ele>468.25</ele><time>2026-04-18T10:51:56.293Z</time></trkpt><trkpt lat="43.4618193" lon="10.6164295"><ele>470.0</ele><time>2026-04-18T10:51:57.393Z</time></trkpt><trkpt lat="43.4617252" lon="10.6165983"><ele>470.0</ele><time>2026-04-18T10:51:58.405Z</time></trkpt><trkpt lat="43.4616186" lon="10.6168763"><ele>470.0</ele><time>2026-04-18T10:52:00.288Z</time></trkpt><trkpt lat="43.4615714" lon="10.6169962"><ele>470.0</ele><time>2026-04-18T10:52:01.404Z</time></trkpt><trkpt lat="43.4615336" lon="10.6171037"><ele>470.0</ele><time>2026-04-18T10:52:02.386Z</time></trkpt><trkpt lat="43.4614872" lon="10.6172238"><ele>466.2</ele><time>2026-04-18T10:52:03.355Z</time></trkpt><trkpt lat="43.4614353" lon="10.6173253"><ele>462.4</ele><time>2026-04-18T10:52:04.381Z</time></trkpt><trkpt lat="43.4613619" lon="10.6174048"><ele>458.6</ele><time>2026-04-18T10:52:05.382Z</time></trkpt><trkpt lat="43.4612735" lon="10.6175316"><ele>454.8</ele><time>2026-04-18T10:52:06.38Z</time></trkpt><trkpt lat="43.4611922" lon="10.6175952"><ele>451.0</ele><time>2026-04-18T10:52:07.396Z</time></trkpt><trkpt lat="43.4611135" lon="10.6176734"><ele>456.1666666666667</ele><time>2026-04-18T10:52:08.41Z</time></trkpt><trkpt lat="43.4610574" lon="10.617732"><ele>461.33333333333337</ele><time>2026-04-18T10:52:09.385Z</time></trkpt><trkpt lat="43.4610361" lon="10.6178544"><ele>466.5</ele><time>2026-04-18T10:52:11.403Z</time></trkpt><trkpt lat="43.4610378" lon="10.6179598"><ele>471.66666666666663</ele><time>2026-04-18T10:52:12.405Z</time></trkpt><trkpt lat="43.4610367" lon="10.6180614"><ele>476.8333333333333</ele><time>2026-04-18T10:52:13.4Z</time></trkpt><trkpt lat="43.4610693" lon="10.6181635"><ele>482.0</ele><time>2026-04-18T10:52:14.388Z</time></trkpt><trkpt lat="43.4610701" lon="10.6182802"><ele>482.0</ele><time>2026-04-18T10:52:15.379Z</time></trkpt><trkpt lat="43.4610746" lon="10.6184003"><ele>482.00000000000006</ele><time>2026-04-18T10:52:16.411Z</time></trkpt><trkpt lat="43.461076" lon="10.618522"><ele>482.00000000000006</ele><time>2026-04-18T10:52:17.379Z</time></trkpt><trkpt lat="43.4610499" lon="10.6186714"><ele>482.0</ele><time>2026-04-18T10:52:18.383Z</time></trkpt><trkpt lat="43.4610225" lon="10.6187867"><ele>482.0</ele><time>2026-04-18T10:52:19.384Z</time></trkpt><trkpt lat="43.4609608" lon="10.6189037"><ele>478.0</ele><time>2026-04-18T10:52:20.38Z</time></trkpt><trkpt lat="43.4608773" lon="10.6190222"><ele>474.0</ele><time>2026-04-18T10:52:21.407Z</time></trkpt><trkpt lat="43.4607595" lon="10.6191333"><ele>470.0</ele><time>2026-04-18T10:52:22.384Z</time></trkpt><trkpt lat="43.4606816" lon="10.6192689"><ele>466.0</ele><time>2026-04-18T10:52:23.401Z</time></trkpt><trkpt lat="43.4606002" lon="10.6193911"><ele>466.0</ele><time>2026-04-18T10:52:24.381Z</time></trkpt><trkpt lat="43.4605548" lon="10.6194731"><ele>466.0</ele><time>2026-04-18T10:52:25.373Z</time></trkpt><trkpt lat="43.4605029" lon="10.6195656"><ele>466.0</ele><time>2026-04-18T10:52:26.409Z</time></trkpt><trkpt lat="43.4604647" lon="10.6196635"><ele>466.0</ele><time>2026-04-18T10:52:27.405Z</time></trkpt><trkpt lat="43.460496" lon="10.619857"><ele>466.0</ele><time>2026-04-18T10:52:28.381Z</time></trkpt><trkpt lat="43.4604704" lon="10.6199956"><ele>468.0</ele><time>2026-04-18T10:52:29.287Z</time></trkpt><trkpt lat="43.4604347" lon="10.6201303"><ele>470.0</ele><time>2026-04-18T10:52:30.292Z</time></trkpt><trkpt lat="43.4603943" lon="10.6202734"><ele>472.0</ele><time>2026-04-18T10:52:31.387Z</time></trkpt><trkpt lat="43.4603494" lon="10.6204666"><ele>474.0</ele><time>2026-04-18T10:52:32.375Z</time></trkpt><trkpt lat="43.4602997" lon="10.6206263"><ele>474.0</ele><time>2026-04-18T10:52:33.389Z</time></trkpt><trkpt lat="43.460243" lon="10.6207852"><ele>474.0</ele><time>2026-04-18T10:52:34.38Z</time></trkpt><trkpt lat="43.4601885" lon="10.6209419"><ele>474.0</ele><time>2026-04-18T10:52:35.379Z</time></trkpt><trkpt lat="43.4601534" lon="10.6210859"><ele>474.0</ele><time>2026-04-18T10:52:36.29Z</time></trkpt><trkpt lat="43.4600979" lon="10.6212524"><ele>469.75</ele><time>2026-04-18T10:52:37.289Z</time></trkpt><trkpt lat="43.4600562" lon="10.6214212"><ele>465.5</ele><time>2026-04-18T10:52:38.287Z</time></trkpt><trkpt lat="43.4599712" lon="10.6216002"><ele>461.25</ele><time>2026-04-18T10:52:39.392Z</time></trkpt><trkpt lat="43.4599125" lon="10.6217598"><ele>457.0</ele><time>2026-04-18T10:52:40.379Z</time></trkpt><trkpt lat="43.4598671" lon="10.6219113"><ele>454.20000000000005</ele><time>2026-04-18T10:52:41.38Z</time></trkpt><trkpt lat="43.4598305" lon="10.6220483"><ele>451.40000000000003</ele><time>2026-04-18T10:52:42.393Z</time></trkpt><trkpt lat="43.4597808" lon="10.6221765"><ele>448.59999999999997</ele><time>2026-04-18T10:52:43.403Z</time></trkpt><trkpt lat="43.459724" lon="10.622291"><ele>445.79999999999995</ele><time>2026-04-18T10:52:44.405Z</time></trkpt><trkpt lat="43.4596728" lon="10.6223956"><ele>443.0</ele><time>2026-04-18T10:52:45.375Z</time></trkpt><trkpt lat="43.4595573" lon="10.6224885"><ele>443.0</ele><time>2026-04-18T10:52:47.288Z</time></trkpt><trkpt lat="43.4594912" lon="10.6224495"><ele>442.99999999999994</ele><time>2026-04-18T10:52:48.387Z</time></trkpt><trkpt lat="43.4594212" lon="10.6224177"><ele>442.99999999999994</ele><time>2026-04-18T10:52:49.302Z</time></trkpt><trkpt lat="43.4593367" lon="10.6223826"><ele>443.0</ele><time>2026-04-18T10:52:50.286Z</time></trkpt><trkpt lat="43.4592375" lon="10.6223575"><ele>443.0</ele><time>2026-04-18T10:52:51.39Z</time></trkpt><trkpt lat="43.4591205" lon="10.622339"><ele>443.0</ele><time>2026-04-18T10:52:52.378Z</time></trkpt><trkpt lat="43.4590246" lon="10.6223172"><ele>442.99999999999994</ele><time>2026-04-18T10:52:53.386Z</time></trkpt><trkpt lat="43.458949" lon="10.6222889"><ele>442.99999999999994</ele><time>2026-04-18T10:52:54.382Z</time></trkpt><trkpt lat="43.4588901" lon="10.622248"><ele>443.0</ele><time>2026-04-18T10:52:55.398Z</time></trkpt><trkpt lat="43.4588054" lon="10.6221261"><ele>443.0</ele><time>2026-04-18T10:52:57.376Z</time></trkpt><trkpt lat="43.4587423" lon="10.6220012"><ele>440.5</ele><time>2026-04-18T10:52:58.383Z</time></trkpt><trkpt lat="43.4586735" lon="10.6218882"><ele>438.0</ele><time>2026-04-18T10:52:59.287Z</time></trkpt><trkpt lat="43.4586073" lon="10.621779"><ele>435.5</ele><time>2026-04-18T10:53:00.285Z</time></trkpt><trkpt lat="43.4585043" lon="10.6216522"><ele>433.0</ele><time>2026-04-18T10:53:01.382Z</time></trkpt><trkpt lat="43.4584339" lon="10.6215409"><ele>433.0</ele><time>2026-04-18T10:53:02.404Z</time></trkpt><trkpt lat="43.4582987" lon="10.6213317"><ele>433.0</ele><time>2026-04-18T10:53:04.275Z</time></trkpt><trkpt lat="43.4582461" lon="10.6212285"><ele>433.0</ele><time>2026-04-18T10:53:05.286Z</time></trkpt><trkpt lat="43.4582138" lon="10.6210935"><ele>433.0</ele><time>2026-04-18T10:53:06.285Z</time></trkpt><trkpt lat="43.4581515" lon="10.6209185"><ele>436.25</ele><time>2026-04-18T10:53:07.287Z</time></trkpt><trkpt lat="43.4581323" lon="10.6207157"><ele>439.5</ele><time>2026-04-18T10:53:08.283Z</time></trkpt><trkpt lat="43.4581035" lon="10.6205819"><ele>442.75</ele><time>2026-04-18T10:53:09.284Z</time></trkpt><trkpt lat="43.4580784" lon="10.6204365"><ele>446.0</ele><time>2026-04-18T10:53:10.285Z</time></trkpt><trkpt lat="43.458062" lon="10.6202971"><ele>446.4</ele><time>2026-04-18T10:53:11.284Z</time></trkpt><trkpt lat="43.4580793" lon="10.6201897"><ele>446.8</ele><time>2026-04-18T10:53:12.284Z</time></trkpt><trkpt lat="43.458104" lon="10.6200614"><ele>447.19999999999993</ele><time>2026-04-18T10:53:13.286Z</time></trkpt><trkpt lat="43.4581211" lon="10.6199309"><ele>447.59999999999997</ele><time>2026-04-18T10:53:14.282Z</time></trkpt><trkpt lat="43.4581811" lon="10.6197726"><ele>448.0</ele><time>2026-04-18T10:53:15.398Z</time></trkpt><trkpt lat="43.4582171" lon="10.6196187"><ele>447.5</ele><time>2026-04-18T10:53:16.398Z</time></trkpt><trkpt lat="43.458249" lon="10.6194792"><ele>447.0</ele><time>2026-04-18T10:53:17.384Z</time></trkpt><trkpt lat="43.4582575" lon="10.6193296"><ele>446.5</ele><time>2026-04-18T10:53:18.393Z</time></trkpt><trkpt lat="43.4582555" lon="10.6190257"><ele>446.0</ele><time>2026-04-18T10:53:20.285Z</time></trkpt><trkpt lat="43.4582499" lon="10.6188945"><ele>446.0</ele><time>2026-04-18T10:53:21.399Z</time></trkpt><trkpt lat="43.4582509" lon="10.618771"><ele>446.0</ele><time>2026-04-18T10:53:22.393Z</time></trkpt><trkpt lat="43.4581474" lon="10.6184747"><ele>446.0</ele><time>2026-04-18T10:53:25.286Z</time></trkpt><trkpt lat="43.4580528" lon="10.6183103"><ele>447.4</ele><time>2026-04-18T10:53:26.282Z</time></trkpt><trkpt lat="43.457995" lon="10.6181852"><ele>448.8</ele><time>2026-04-18T10:53:27.284Z</time></trkpt><trkpt lat="43.4579609" lon="10.6180538"><ele>450.19999999999993</ele><time>2026-04-18T10:53:28.286Z</time></trkpt><trkpt lat="43.4579137" lon="10.617903"><ele>451.59999999999997</ele><time>2026-04-18T10:53:29.282Z</time></trkpt><trkpt lat="43.4578683" lon="10.6177678"><ele>453.0</ele><time>2026-04-18T10:53:30.282Z</time></trkpt><trkpt lat="43.457833" lon="10.6176219"><ele>446.5</ele><time>2026-04-18T10:53:31.279Z</time></trkpt><trkpt lat="43.4578282" lon="10.6175041"><ele>440.0</ele><time>2026-04-18T10:53:32.283Z</time></trkpt><trkpt lat="43.4578178" lon="10.617356"><ele>433.5</ele><time>2026-04-18T10:53:33.284Z</time></trkpt><trkpt lat="43.4578355" lon="10.6171509"><ele>427.0</ele><time>2026-04-18T10:53:34.28Z</time></trkpt><trkpt lat="43.4578368" lon="10.6169763"><ele>426.75</ele><time>2026-04-18T10:53:35.281Z</time></trkpt><trkpt lat="43.4578376" lon="10.6167795"><ele>426.5</ele><time>2026-04-18T10:53:36.281Z</time></trkpt><trkpt lat="43.457855" lon="10.6166133"><ele>426.25</ele><time>2026-04-18T10:53:37.282Z</time></trkpt><trkpt lat="43.457876" lon="10.6164693"><ele>426.0</ele><time>2026-04-18T10:53:38.282Z</time></trkpt><trkpt lat="43.4578886" lon="10.6163403"><ele>426.0</ele><time>2026-04-18T10:53:39.283Z</time></trkpt><trkpt lat="43.457893" lon="10.6162199"><ele>426.0</ele><time>2026-04-18T10:53:40.281Z</time></trkpt><trkpt lat="43.4578797" lon="10.6161025"><ele>426.0</ele><time>2026-04-18T10:53:41.28Z</time></trkpt><trkpt lat="43.4577963" lon="10.6159271"><ele>426.0</ele><time>2026-04-18T10:53:42.279Z</time></trkpt><trkpt lat="43.4577458" lon="10.6157839"><ele>426.0</ele><time>2026-04-18T10:53:43.282Z</time></trkpt><trkpt lat="43.4576759" lon="10.6156501"><ele>427.0</ele><time>2026-04-18T10:53:44.281Z</time></trkpt><trkpt lat="43.457615" lon="10.6155292"><ele>428.0</ele><time>2026-04-18T10:53:45.279Z</time></trkpt><trkpt lat="43.4575643" lon="10.6154414"><ele>429.0</ele><time>2026-04-18T10:53:46.282Z</time></trkpt><trkpt lat="43.4575355" lon="10.6153233"><ele>430.0</ele><time>2026-04-18T10:53:47.282Z</time></trkpt><trkpt lat="43.4575339" lon="10.6152277"><ele>431.0</ele><time>2026-04-18T10:53:48.284Z</time></trkpt><trkpt lat="43.457489" lon="10.6150377"><ele>431.8333333333333</ele><time>2026-04-18T10:53:49.283Z</time></trkpt><trkpt lat="43.4574881" lon="10.6149192"><ele>432.66666666666663</ele><time>2026-04-18T10:53:50.284Z</time></trkpt><trkpt lat="43.4574796" lon="10.6147988"><ele>433.5</ele><time>2026-04-18T10:53:51.286Z</time></trkpt><trkpt lat="43.4574348" lon="10.6146916"><ele>434.33333333333337</ele><time>2026-04-18T10:53:52.284Z</time></trkpt><trkpt lat="43.4574055" lon="10.6145701"><ele>435.1666666666667</ele><time>2026-04-18T10:53:53.281Z</time></trkpt><trkpt lat="43.4574124" lon="10.6144523"><ele>436.0</ele><time>2026-04-18T10:53:54.284Z</time></trkpt><trkpt lat="43.4574107" lon="10.6143155"><ele>436.25</ele><time>2026-04-18T10:53:55.282Z</time></trkpt><trkpt lat="43.457402" lon="10.6141508"><ele>436.5</ele><time>2026-04-18T10:53:56.285Z</time></trkpt><trkpt lat="43.4574019" lon="10.6139925"><ele>436.75</ele><time>2026-04-18T10:53:57.285Z</time></trkpt><trkpt lat="43.457415" lon="10.6138485"><ele>437.0</ele><time>2026-04-18T10:53:58.282Z</time></trkpt><trkpt lat="43.4574419" lon="10.6136859"><ele>435.40000000000003</ele><time>2026-04-18T10:53:59.283Z</time></trkpt><trkpt lat="43.4574615" lon="10.61353"><ele>433.80000000000007</ele><time>2026-04-18T10:54:00.293Z</time></trkpt><trkpt lat="43.4574966" lon="10.6134109"><ele>432.2</ele><time>2026-04-18T10:54:01.282Z</time></trkpt><trkpt lat="43.4575527" lon="10.6132994"><ele>430.6</ele><time>2026-04-18T10:54:02.283Z</time></trkpt><trkpt lat="43.4576389" lon="10.6131856"><ele>429.0</ele><time>2026-04-18T10:54:03.282Z</time></trkpt><trkpt lat="43.4577107" lon="10.61311"><ele>429.0</ele><time>2026-04-18T10:54:04.281Z</time></trkpt><trkpt lat="43.4577763" lon="10.6130307"><ele>429.0</ele><time>2026-04-18T10:54:05.283Z</time></trkpt><trkpt lat="43.4578581" lon="10.6129738"><ele>429.0</ele><time>2026-04-18T10:54:06.281Z</time></trkpt><trkpt lat="43.4579408" lon="10.6129137"><ele>429.0</ele><time>2026-04-18T10:54:07.283Z</time></trkpt><trkpt lat="43.4580289" lon="10.6128012"><ele>429.0</ele><time>2026-04-18T10:54:09.282Z</time></trkpt><trkpt lat="43.4580758" lon="10.6126887"><ele>433.75</ele><time>2026-04-18T10:54:10.283Z</time></trkpt><trkpt lat="43.4581137" lon="10.6125565"><ele>438.5</ele><time>2026-04-18T10:54:11.282Z</time></trkpt><trkpt lat="43.4581225" lon="10.6123623"><ele>443.25</ele><time>2026-04-18T10:54:12.281Z</time></trkpt><trkpt lat="43.4581418" lon="10.6121923"><ele>448.0</ele><time>2026-04-18T10:54:13.282Z</time></trkpt><trkpt lat="43.458164" lon="10.6120292"><ele>445.79999999999995</ele><time>2026-04-18T10:54:14.283Z</time></trkpt><trkpt lat="43.4581717" lon="10.6118814"><ele>443.59999999999997</ele><time>2026-04-18T10:54:15.284Z</time></trkpt><trkpt lat="43.4581848" lon="10.6117407"><ele>441.40000000000003</ele><time>2026-04-18T10:54:16.379Z</time></trkpt><trkpt lat="43.4582518" lon="10.611627"><ele>439.20000000000005</ele><time>2026-04-18T10:54:18.384Z</time></trkpt><trkpt lat="43.4583116" lon="10.6115659"><ele>437.0</ele><time>2026-04-18T10:54:19.29Z</time></trkpt><trkpt lat="43.4584101" lon="10.6115294"><ele>436.99999999999994</ele><time>2026-04-18T10:54:20.283Z</time></trkpt><trkpt lat="43.4584966" lon="10.611473"><ele>437.0</ele><time>2026-04-18T10:54:21.386Z</time></trkpt><trkpt lat="43.458577" lon="10.6114087"><ele>437.0</ele><time>2026-04-18T10:54:22.383Z</time></trkpt><trkpt lat="43.4585777" lon="10.6112967"><ele>437.0</ele><time>2026-04-18T10:54:23.391Z</time></trkpt><trkpt lat="43.4586264" lon="10.6112185"><ele>436.99999999999994</ele><time>2026-04-18T10:54:24.384Z</time></trkpt><trkpt lat="43.4586835" lon="10.6111292"><ele>437.0</ele><time>2026-04-18T10:54:25.384Z</time></trkpt><trkpt lat="43.4587885" lon="10.6110084"><ele>439.0</ele><time>2026-04-18T10:54:26.284Z</time></trkpt><trkpt lat="43.4588741" lon="10.6108842"><ele>441.0</ele><time>2026-04-18T10:54:27.285Z</time></trkpt><trkpt lat="43.4589807" lon="10.6107821"><ele>443.0</ele><time>2026-04-18T10:54:28.288Z</time></trkpt><trkpt lat="43.4590869" lon="10.6106793"><ele>445.0</ele><time>2026-04-18T10:54:29.286Z</time></trkpt><trkpt lat="43.4591742" lon="10.6105847"><ele>445.0</ele><time>2026-04-18T10:54:30.285Z</time></trkpt><trkpt lat="43.4592635" lon="10.6104967"><ele>445.0</ele><time>2026-04-18T10:54:31.287Z</time></trkpt><trkpt lat="43.459338" lon="10.6103793"><ele>445.0</ele><time>2026-04-18T10:54:32.287Z</time></trkpt><trkpt lat="43.4594089" lon="10.6102611"><ele>445.0</ele><time>2026-04-18T10:54:33.379Z</time></trkpt><trkpt lat="43.459484" lon="10.6101322"><ele>442.5</ele><time>2026-04-18T10:54:34.286Z</time></trkpt><trkpt lat="43.4595602" lon="10.6099901"><ele>440.0</ele><time>2026-04-18T10:54:35.277Z</time></trkpt><trkpt lat="43.4596057" lon="10.6098558"><ele>437.5</ele><time>2026-04-18T10:54:36.335Z</time></trkpt><trkpt lat="43.4596731" lon="10.6096725"><ele>435.0</ele><time>2026-04-18T10:54:37.282Z</time></trkpt><trkpt lat="43.4597455" lon="10.6095111"><ele>438.0</ele><time>2026-04-18T10:54:38.289Z</time></trkpt><trkpt lat="43.459818" lon="10.6092588"><ele>441.0</ele><time>2026-04-18T10:54:39.283Z</time></trkpt><trkpt lat="43.4598941" lon="10.6090957"><ele>444.0</ele><time>2026-04-18T10:54:40.288Z</time></trkpt><trkpt lat="43.4599627" lon="10.6089355"><ele>444.0</ele><time>2026-04-18T10:54:41.287Z</time></trkpt><trkpt lat="43.4600242" lon="10.6087907"><ele>444.0</ele><time>2026-04-18T10:54:42.285Z</time></trkpt><trkpt lat="43.4599904" lon="10.608598"><ele>444.0</ele><time>2026-04-18T10:54:43.285Z</time></trkpt><trkpt lat="43.4600002" lon="10.6084628"><ele>444.0</ele><time>2026-04-18T10:54:44.286Z</time></trkpt><trkpt lat="43.4600407" lon="10.6083288"><ele>441.0</ele><time>2026-04-18T10:54:45.286Z</time></trkpt><trkpt lat="43.460089" lon="10.6082138"><ele>438.0</ele><time>2026-04-18T10:54:46.41Z</time></trkpt><trkpt lat="43.4601601" lon="10.6081204"><ele>435.0</ele><time>2026-04-18T10:54:47.404Z</time></trkpt><trkpt lat="43.4602706" lon="10.6080391"><ele>432.0</ele><time>2026-04-18T10:54:49.383Z</time></trkpt><trkpt lat="43.4604026" lon="10.6081078"><ele>435.25</ele><time>2026-04-18T10:54:51.397Z</time></trkpt><trkpt lat="43.4605693" lon="10.6082561"><ele>438.5</ele><time>2026-04-18T10:54:53.288Z</time></trkpt><trkpt lat="43.4606348" lon="10.6083559"><ele>441.75</ele><time>2026-04-18T10:54:54.391Z</time></trkpt><trkpt lat="43.4607104" lon="10.6084285"><ele>445.0</ele><time>2026-04-18T10:54:55.407Z</time></trkpt><trkpt lat="43.4607861" lon="10.6085106"><ele>445.0</ele><time>2026-04-18T10:54:56.397Z</time></trkpt><trkpt lat="43.4608932" lon="10.6083654"><ele>445.0</ele><time>2026-04-18T10:54:57.402Z</time></trkpt><trkpt lat="43.4610041" lon="10.6082415"><ele>445.0</ele><time>2026-04-18T10:54:59.396Z</time></trkpt><trkpt lat="43.4610394" lon="10.608154"><ele>445.0</ele><time>2026-04-18T10:55:00.402Z</time></trkpt><trkpt lat="43.4610796" lon="10.6080487"><ele>445.0</ele><time>2026-04-18T10:55:01.405Z</time></trkpt><trkpt lat="43.4611006" lon="10.6079463"><ele>445.0</ele><time>2026-04-18T10:55:02.38Z</time></trkpt><trkpt lat="43.4611156" lon="10.6077345"><ele>445.0</ele><time>2026-04-18T10:55:03.386Z</time></trkpt><trkpt lat="43.4611485" lon="10.60735"><ele>442.0</ele><time>2026-04-18T10:55:05.285Z</time></trkpt><trkpt lat="43.4611635" lon="10.6071699"><ele>439.0</ele><time>2026-04-18T10:55:06.389Z</time></trkpt><trkpt lat="43.4611978" lon="10.6068379"><ele>436.0</ele><time>2026-04-18T10:55:08.283Z</time></trkpt><trkpt lat="43.4611775" lon="10.606676"><ele>436.8</ele><time>2026-04-18T10:55:09.287Z</time></trkpt><trkpt lat="43.4611694" lon="10.606551"><ele>437.6</ele><time>2026-04-18T10:55:10.285Z</time></trkpt><trkpt lat="43.4611605" lon="10.6064001"><ele>438.4</ele><time>2026-04-18T10:55:11.395Z</time></trkpt><trkpt lat="43.4611726" lon="10.6062656"><ele>439.2</ele><time>2026-04-18T10:55:12.385Z</time></trkpt><trkpt lat="43.4612373" lon="10.6061613"><ele>440.0</ele><time>2026-04-18T10:55:13.372Z</time></trkpt><trkpt lat="43.461299" lon="10.6060695"><ele>440.0</ele><time>2026-04-18T10:55:14.284Z</time></trkpt><trkpt lat="43.461401" lon="10.6059431"><ele>440.0</ele><time>2026-04-18T10:55:15.283Z</time></trkpt><trkpt lat="43.4614791" lon="10.6058772"><ele>440.0</ele><time>2026-04-18T10:55:16.286Z</time></trkpt><trkpt lat="43.461542" lon="10.6057565"><ele>440.0</ele><time>2026-04-18T10:55:17.283Z</time></trkpt><trkpt lat="43.4616195" lon="10.6056142"><ele>440.0</ele><time>2026-04-18T10:55:18.286Z</time></trkpt><trkpt lat="43.4616973" lon="10.6054653"><ele>440.0</ele><time>2026-04-18T10:55:19.402Z</time></trkpt><trkpt lat="43.4617664" lon="10.6052988"><ele>440.0</ele><time>2026-04-18T10:55:20.392Z</time></trkpt><trkpt lat="43.4618212" lon="10.6051478"><ele>440.0</ele><time>2026-04-18T10:55:21.379Z</time></trkpt><trkpt lat="43.4618883" lon="10.6049926"><ele>441.5</ele><time>2026-04-18T10:55:22.381Z</time></trkpt><trkpt lat="43.4619665" lon="10.6048385"><ele>443.0</ele><time>2026-04-18T10:55:23.286Z</time></trkpt><trkpt lat="43.4620487" lon="10.6046822"><ele>444.5</ele><time>2026-04-18T10:55:24.287Z</time></trkpt><trkpt lat="43.462132" lon="10.6045308"><ele>446.0</ele><time>2026-04-18T10:55:25.286Z</time></trkpt><trkpt lat="43.4622031" lon="10.6043891"><ele>446.0</ele><time>2026-04-18T10:55:26.285Z</time></trkpt><trkpt lat="43.4622747" lon="10.6042368"><ele>446.0</ele><time>2026-04-18T10:55:27.282Z</time></trkpt><trkpt lat="43.4623449" lon="10.6040971"><ele>446.0</ele><time>2026-04-18T10:55:28.284Z</time></trkpt><trkpt lat="43.4624132" lon="10.6039735"><ele>446.0</ele><time>2026-04-18T10:55:29.288Z</time></trkpt><trkpt lat="43.4624765" lon="10.6038684"><ele>446.0</ele><time>2026-04-18T10:55:30.41Z</time></trkpt><trkpt lat="43.4625388" lon="10.6037735"><ele>446.0</ele><time>2026-04-18T10:55:31.407Z</time></trkpt><trkpt lat="43.4626819" lon="10.6037151"><ele>446.0</ele><time>2026-04-18T10:55:33.285Z</time></trkpt><trkpt lat="43.4627451" lon="10.6037072"><ele>446.0</ele><time>2026-04-18T10:55:34.281Z</time></trkpt><trkpt lat="43.4628198" lon="10.6037191"><ele>446.0</ele><time>2026-04-18T10:55:35.284Z</time></trkpt><trkpt lat="43.4629006" lon="10.6037429"><ele>448.8</ele><time>2026-04-18T10:55:36.286Z</time></trkpt><trkpt lat="43.4629825" lon="10.6037812"><ele>451.6</ele><time>2026-04-18T10:55:37.286Z</time></trkpt><trkpt lat="43.4630623" lon="10.60383"><ele>454.4</ele><time>2026-04-18T10:55:38.285Z</time></trkpt><trkpt lat="43.4631791" lon="10.6038977"><ele>457.2</ele><time>2026-04-18T10:55:39.381Z</time></trkpt><trkpt lat="43.4632766" lon="10.6039594"><ele>460.0</ele><time>2026-04-18T10:55:40.409Z</time></trkpt><trkpt lat="43.4634044" lon="10.6040552"><ele>460.0</ele><time>2026-04-18T10:55:41.342Z</time></trkpt><trkpt lat="43.4635262" lon="10.6041498"><ele>460.0</ele><time>2026-04-18T10:55:42.377Z</time></trkpt><trkpt lat="43.4636414" lon="10.6042329"><ele>460.0</ele><time>2026-04-18T10:55:43.403Z</time></trkpt><trkpt lat="43.4637697" lon="10.6043006"><ele>460.0</ele><time>2026-04-18T10:55:44.403Z</time></trkpt><trkpt lat="43.4639185" lon="10.6043309"><ele>462.6</ele><time>2026-04-18T10:55:45.393Z</time></trkpt><trkpt lat="43.463993" lon="10.6043828"><ele>465.2</ele><time>2026-04-18T10:55:46.4Z</time></trkpt><trkpt lat="43.4640853" lon="10.604382"><ele>467.79999999999995</ele><time>2026-04-18T10:55:47.396Z</time></trkpt><trkpt lat="43.464187" lon="10.6043813"><ele>470.4</ele><time>2026-04-18T10:55:49.389Z</time></trkpt><trkpt lat="43.4642262" lon="10.6042616"><ele>473.0</ele><time>2026-04-18T10:55:51.377Z</time></trkpt><trkpt lat="43.4642519" lon="10.6041546"><ele>473.0</ele><time>2026-04-18T10:55:53.398Z</time></trkpt><trkpt lat="43.4641419" lon="10.6039919"><ele>473.0</ele><time>2026-04-18T10:55:55.404Z</time></trkpt><trkpt lat="43.4639913" lon="10.6037041"><ele>473.0</ele><time>2026-04-18T10:55:57.414Z</time></trkpt><trkpt lat="43.4639211" lon="10.6035603"><ele>476.25</ele><time>2026-04-18T10:55:58.404Z</time></trkpt><trkpt lat="43.4638406" lon="10.6034039"><ele>479.5</ele><time>2026-04-18T10:55:59.386Z</time></trkpt><trkpt lat="43.4637736" lon="10.6032573"><ele>482.75</ele><time>2026-04-18T10:56:00.379Z</time></trkpt><trkpt lat="43.4637156" lon="10.6031204"><ele>486.0</ele><time>2026-04-18T10:56:01.394Z</time></trkpt><trkpt lat="43.4636683" lon="10.602989"><ele>485.8</ele><time>2026-04-18T10:56:02.312Z</time></trkpt><trkpt lat="43.4636651" lon="10.6028807"><ele>485.6</ele><time>2026-04-18T10:56:03.281Z</time></trkpt><trkpt lat="43.4636785" lon="10.6027707"><ele>485.4</ele><time>2026-04-18T10:56:04.288Z</time></trkpt><trkpt lat="43.4637117" lon="10.6026569"><ele>485.2</ele><time>2026-04-18T10:56:05.287Z</time></trkpt><trkpt lat="43.4637638" lon="10.602539"><ele>485.0</ele><time>2026-04-18T10:56:06.286Z</time></trkpt><trkpt lat="43.4638188" lon="10.6024186"><ele>485.0</ele><time>2026-04-18T10:56:07.386Z</time></trkpt><trkpt lat="43.4638854" lon="10.6023025"><ele>485.0</ele><time>2026-04-18T10:56:08.379Z</time></trkpt><trkpt lat="43.4639628" lon="10.6021843"><ele>485.0</ele><time>2026-04-18T10:56:09.398Z</time></trkpt><trkpt lat="43.4640392" lon="10.6020773"><ele>485.0</ele><time>2026-04-18T10:56:10.404Z</time></trkpt><trkpt lat="43.4641287" lon="10.6019858"><ele>485.0</ele><time>2026-04-18T10:56:11.401Z</time></trkpt><trkpt lat="43.464193" lon="10.6019194"><ele>483.6</ele><time>2026-04-18T10:56:12.403Z</time></trkpt><trkpt lat="43.4642551" lon="10.601819"><ele>482.2</ele><time>2026-04-18T10:56:13.401Z</time></trkpt><trkpt lat="43.4642882" lon="10.6016793"><ele>480.79999999999995</ele><time>2026-04-18T10:56:14.396Z</time></trkpt><trkpt lat="43.4643791" lon="10.6015355"><ele>479.4</ele><time>2026-04-18T10:56:15.399Z</time></trkpt><trkpt lat="43.4644026" lon="10.6014272"><ele>478.0</ele><time>2026-04-18T10:56:16.414Z</time></trkpt><trkpt lat="43.4643919" lon="10.60133"><ele>478.0</ele><time>2026-04-18T10:56:17.38Z</time></trkpt><trkpt lat="43.4643385" lon="10.6012486"><ele>478.0</ele><time>2026-04-18T10:56:18.377Z</time></trkpt><trkpt lat="43.4642119" lon="10.6011632"><ele>478.0</ele><time>2026-04-18T10:56:21.288Z</time></trkpt><trkpt lat="43.4640633" lon="10.6011801"><ele>478.0</ele><time>2026-04-18T10:56:23.291Z</time></trkpt><trkpt lat="43.4639786" lon="10.6011848"><ele>478.00000000000006</ele><time>2026-04-18T10:56:24.393Z</time></trkpt><trkpt lat="43.4638979" lon="10.6011767"><ele>478.0</ele><time>2026-04-18T10:56:25.382Z</time></trkpt><trkpt lat="43.4638334" lon="10.601134"><ele>478.0</ele><time>2026-04-18T10:56:26.334Z</time></trkpt><trkpt lat="43.4637747" lon="10.601068"><ele>478.0</ele><time>2026-04-18T10:56:27.288Z</time></trkpt><trkpt lat="43.4637369" lon="10.6009869"><ele>478.00000000000006</ele><time>2026-04-18T10:56:28.399Z</time></trkpt><trkpt lat="43.4637139" lon="10.600832"><ele>478.0</ele><time>2026-04-18T10:56:29.383Z</time></trkpt><trkpt lat="43.4636961" lon="10.6006894"><ele>477.25</ele><time>2026-04-18T10:56:30.388Z</time></trkpt><trkpt lat="43.4636863" lon="10.600546"><ele>476.5</ele><time>2026-04-18T10:56:31.377Z</time></trkpt><trkpt lat="43.4636755" lon="10.6004007"><ele>475.75</ele><time>2026-04-18T10:56:32.288Z</time></trkpt><trkpt lat="43.4636555" lon="10.6002365"><ele>475.0</ele><time>2026-04-18T10:56:33.277Z</time></trkpt><trkpt lat="43.4636428" lon="10.6000248"><ele>475.0</ele><time>2026-04-18T10:56:34.383Z</time></trkpt><trkpt lat="43.4636401" lon="10.5997981"><ele>475.0</ele><time>2026-04-18T10:56:35.378Z</time></trkpt><trkpt lat="43.4636308" lon="10.5995947"><ele>475.0</ele><time>2026-04-18T10:56:36.379Z</time></trkpt><trkpt lat="43.4636304" lon="10.5993758"><ele>475.75</ele><time>2026-04-18T10:56:37.368Z</time></trkpt><trkpt lat="43.4636313" lon="10.5991642"><ele>476.5</ele><time>2026-04-18T10:56:38.391Z</time></trkpt><trkpt lat="43.4636324" lon="10.5989452"><ele>477.25</ele><time>2026-04-18T10:56:39.378Z</time></trkpt><trkpt lat="43.4636344" lon="10.5987647"><ele>478.0</ele><time>2026-04-18T10:56:40.387Z</time></trkpt><trkpt lat="43.4636346" lon="10.5986012"><ele>478.0</ele><time>2026-04-18T10:56:41.396Z</time></trkpt><trkpt lat="43.4636534" lon="10.5984424"><ele>477.99999999999994</ele><time>2026-04-18T10:56:42.384Z</time></trkpt><trkpt lat="43.4636848" lon="10.5983135"><ele>477.99999999999994</ele><time>2026-04-18T10:56:43.29Z</time></trkpt><trkpt lat="43.4637348" lon="10.5981949"><ele>478.0</ele><time>2026-04-18T10:56:44.283Z</time></trkpt><trkpt lat="43.4637843" lon="10.5980822"><ele>478.0</ele><time>2026-04-18T10:56:45.287Z</time></trkpt><trkpt lat="43.4638579" lon="10.5979984"><ele>484.25</ele><time>2026-04-18T10:56:46.388Z</time></trkpt><trkpt lat="43.4639748" lon="10.5980252"><ele>490.5</ele><time>2026-04-18T10:56:47.385Z</time></trkpt><trkpt lat="43.4640689" lon="10.5979905"><ele>496.75</ele><time>2026-04-18T10:56:48.395Z</time></trkpt><trkpt lat="43.4642666" lon="10.5979725"><ele>503.0</ele><time>2026-04-18T10:56:50.282Z</time></trkpt><trkpt lat="43.4643445" lon="10.5979525"><ele>503.0</ele><time>2026-04-18T10:56:51.383Z</time></trkpt><trkpt lat="43.4644359" lon="10.5979235"><ele>502.99999999999994</ele><time>2026-04-18T10:56:52.287Z</time></trkpt><trkpt lat="43.4645019" lon="10.5978012"><ele>502.99999999999994</ele><time>2026-04-18T10:56:54.29Z</time></trkpt><trkpt lat="43.4645174" lon="10.5976623"><ele>503.0</ele><time>2026-04-18T10:56:55.286Z</time></trkpt><trkpt lat="43.4645584" lon="10.5975102"><ele>503.0</ele><time>2026-04-18T10:56:56.301Z</time></trkpt><trkpt lat="43.4645985" lon="10.5973273"><ele>503.66666666666663</ele><time>2026-04-18T10:56:57.284Z</time></trkpt><trkpt lat="43.4646544" lon="10.5971022"><ele>504.33333333333337</ele><time>2026-04-18T10:56:58.286Z</time></trkpt><trkpt lat="43.4647067" lon="10.5968828"><ele>505.0</ele><time>2026-04-18T10:56:59.288Z</time></trkpt><trkpt lat="43.4647568" lon="10.5966863"><ele>505.0</ele><time>2026-04-18T10:57:00.289Z</time></trkpt><trkpt lat="43.4648014" lon="10.5965194"><ele>505.0</ele><time>2026-04-18T10:57:01.282Z</time></trkpt><trkpt lat="43.4648443" lon="10.5963747"><ele>505.0</ele><time>2026-04-18T10:57:02.288Z</time></trkpt><trkpt lat="43.4648906" lon="10.5962632"><ele>505.0</ele><time>2026-04-18T10:57:03.288Z</time></trkpt><trkpt lat="43.4649486" lon="10.5961778"><ele>505.0</ele><time>2026-04-18T10:57:04.394Z</time></trkpt><trkpt lat="43.4650092" lon="10.5961047"><ele>504.50000000000006</ele><time>2026-04-18T10:57:05.384Z</time></trkpt><trkpt lat="43.4650857" lon="10.5960716"><ele>504.0</ele><time>2026-04-18T10:57:06.287Z</time></trkpt><trkpt lat="43.465177" lon="10.596058"><ele>503.5</ele><time>2026-04-18T10:57:07.293Z</time></trkpt><trkpt lat="43.4652848" lon="10.5960866"><ele>503.0</ele><time>2026-04-18T10:57:08.287Z</time></trkpt><trkpt lat="43.4653678" lon="10.5960772"><ele>502.50000000000006</ele><time>2026-04-18T10:57:09.305Z</time></trkpt><trkpt lat="43.4654351" lon="10.5960468"><ele>502.0</ele><time>2026-04-18T10:57:10.287Z</time></trkpt><trkpt lat="43.4654717" lon="10.5959385"><ele>502.00000000000006</ele><time>2026-04-18T10:57:12.286Z</time></trkpt><trkpt lat="43.4654755" lon="10.5958451"><ele>502.0</ele><time>2026-04-18T10:57:13.292Z</time></trkpt><trkpt lat="43.4654306" lon="10.5957655"><ele>502.0</ele><time>2026-04-18T10:57:14.289Z</time></trkpt><trkpt lat="43.4653915" lon="10.5956781"><ele>502.0</ele><time>2026-04-18T10:57:15.287Z</time></trkpt><trkpt lat="43.4653425" lon="10.5955839"><ele>502.00000000000006</ele><time>2026-04-18T10:57:16.289Z</time></trkpt><trkpt lat="43.4652566" lon="10.5954274"><ele>502.0</ele><time>2026-04-18T10:57:17.285Z</time></trkpt><trkpt lat="43.4652006" lon="10.5952895"><ele>502.75</ele><time>2026-04-18T10:57:18.386Z</time></trkpt><trkpt lat="43.4651566" lon="10.5951572"><ele>503.5</ele><time>2026-04-18T10:57:19.372Z</time></trkpt><trkpt lat="43.4651502" lon="10.5949984"><ele>504.25</ele><time>2026-04-18T10:57:20.381Z</time></trkpt><trkpt lat="43.465157" lon="10.5948083"><ele>505.0</ele><time>2026-04-18T10:57:21.291Z</time></trkpt><trkpt lat="43.4651529" lon="10.5946522"><ele>505.00000000000006</ele><time>2026-04-18T10:57:22.384Z</time></trkpt><trkpt lat="43.4651625" lon="10.5945332"><ele>505.0</ele><time>2026-04-18T10:57:23.284Z</time></trkpt><trkpt lat="43.4651714" lon="10.5943972"><ele>505.0</ele><time>2026-04-18T10:57:25.373Z</time></trkpt><trkpt lat="43.4651655" lon="10.5943082"><ele>505.0</ele><time>2026-04-18T10:57:27.388Z</time></trkpt><trkpt lat="43.4651432" lon="10.5942102"><ele>505.00000000000006</ele><time>2026-04-18T10:57:30.287Z</time></trkpt><trkpt lat="43.4651595" lon="10.594105"><ele>505.0</ele><time>2026-04-18T10:57:39.288Z</time></trkpt><trkpt lat="43.4651072" lon="10.5941587"><ele>505.0</ele><time>2026-04-18T10:57:43.291Z</time></trkpt><trkpt lat="43.4651465" lon="10.5942866"><ele>505.0</ele><time>2026-04-18T10:57:45.29Z</time></trkpt><trkpt lat="43.4652349" lon="10.5943188"><ele>505.0</ele><time>2026-04-18T10:57:49.284Z</time></trkpt><trkpt lat="43.4652627" lon="10.5942292"><ele>505.0</ele><time>2026-04-18T10:57:51.396Z</time></trkpt><trkpt lat="43.4652917" lon="10.5940476"><ele>505.0</ele><time>2026-04-18T10:57:53.281Z</time></trkpt><trkpt lat="43.4653482" lon="10.594008"><ele>505.0</ele><time>2026-04-18T10:57:54.283Z</time></trkpt><trkpt lat="43.4653882" lon="10.5939095"><ele>505.0</ele><time>2026-04-18T10:57:55.285Z</time></trkpt><trkpt lat="43.4655448" lon="10.5938887"><ele>505.0</ele><time>2026-04-18T10:57:57.282Z</time></trkpt><trkpt lat="43.465653" lon="10.5939197"><ele>505.0</ele><time>2026-04-18T10:57:58.282Z</time></trkpt><trkpt lat="43.4657629" lon="10.5939578"><ele>506.4</ele><time>2026-04-18T10:57:59.352Z</time></trkpt><trkpt lat="43.4658599" lon="10.5940171"><ele>507.8</ele><time>2026-04-18T10:58:00.287Z</time></trkpt><trkpt lat="43.4659304" lon="10.5940818"><ele>509.20000000000005</ele><time>2026-04-18T10:58:01.285Z</time></trkpt><trkpt lat="43.4660028" lon="10.5941645"><ele>510.6</ele><time>2026-04-18T10:58:02.381Z</time></trkpt><trkpt lat="43.4660682" lon="10.5942594"><ele>512.0</ele><time>2026-04-18T10:58:03.286Z</time></trkpt><trkpt lat="43.4661389" lon="10.594357"><ele>511.99999999999994</ele><time>2026-04-18T10:58:04.277Z</time></trkpt><trkpt lat="43.4661602" lon="10.5944755"><ele>512.0</ele><time>2026-04-18T10:58:05.278Z</time></trkpt><trkpt lat="43.4661825" lon="10.5945821"><ele>512.0</ele><time>2026-04-18T10:58:06.285Z</time></trkpt><trkpt lat="43.4661942" lon="10.5946915"><ele>512.0</ele><time>2026-04-18T10:58:07.275Z</time></trkpt><trkpt lat="43.4662131" lon="10.5948029"><ele>511.99999999999994</ele><time>2026-04-18T10:58:08.276Z</time></trkpt><trkpt lat="43.4662084" lon="10.5949286"><ele>512.0</ele><time>2026-04-18T10:58:09.288Z</time></trkpt><trkpt lat="43.4662123" lon="10.5950495"><ele>513.0</ele><time>2026-04-18T10:58:10.285Z</time></trkpt><trkpt lat="43.4662102" lon="10.5952569"><ele>514.0</ele><time>2026-04-18T10:58:11.381Z</time></trkpt><trkpt lat="43.466206" lon="10.5954289"><ele>515.0</ele><time>2026-04-18T10:58:12.286Z</time></trkpt><trkpt lat="43.4662381" lon="10.5956079"><ele>516.0</ele><time>2026-04-18T10:58:13.284Z</time></trkpt><trkpt lat="43.4662536" lon="10.5957733"><ele>516.25</ele><time>2026-04-18T10:58:14.286Z</time></trkpt><trkpt lat="43.4662744" lon="10.5959234"><ele>516.5</ele><time>2026-04-18T10:58:15.283Z</time></trkpt><trkpt lat="43.4662984" lon="10.5961301"><ele>516.75</ele><time>2026-04-18T10:58:16.286Z</time></trkpt><trkpt lat="43.4663178" lon="10.5963237"><ele>517.0</ele><time>2026-04-18T10:58:17.28Z</time></trkpt><trkpt lat="43.4663176" lon="10.59651"><ele>520.5</ele><time>2026-04-18T10:58:18.286Z</time></trkpt><trkpt lat="43.4663479" lon="10.5966905"><ele>524.0</ele><time>2026-04-18T10:58:19.288Z</time></trkpt><trkpt lat="43.4663538" lon="10.59689"><ele>527.5</ele><time>2026-04-18T10:58:20.385Z</time></trkpt><trkpt lat="43.466372" lon="10.5970467"><ele>531.0</ele><time>2026-04-18T10:58:21.387Z</time></trkpt><trkpt lat="43.4663528" lon="10.5972176"><ele>531.5</ele><time>2026-04-18T10:58:22.381Z</time></trkpt><trkpt lat="43.4663522" lon="10.5973209"><ele>532.0</ele><time>2026-04-18T10:58:23.376Z</time></trkpt><trkpt lat="43.4663011" lon="10.597445"><ele>532.5</ele><time>2026-04-18T10:58:24.291Z</time></trkpt><trkpt lat="43.4662548" lon="10.5975257"><ele>533.0</ele><time>2026-04-18T10:58:25.284Z</time></trkpt><trkpt lat="43.4662007" lon="10.5976151"><ele>533.5</ele><time>2026-04-18T10:58:26.286Z</time></trkpt><trkpt lat="43.4661364" lon="10.5976423"><ele>534.0</ele><time>2026-04-18T10:58:27.377Z</time></trkpt><trkpt lat="43.4660548" lon="10.5976716"><ele>534.0</ele><time>2026-04-18T10:58:28.286Z</time></trkpt><trkpt lat="43.4658782" lon="10.5977485"><ele>534.0</ele><time>2026-04-18T10:58:30.317Z</time></trkpt><trkpt lat="43.4658014" lon="10.5978043"><ele>534.0</ele><time>2026-04-18T10:58:31.389Z</time></trkpt><trkpt lat="43.4657377" lon="10.5978618"><ele>534.0</ele><time>2026-04-18T10:58:32.403Z</time></trkpt><trkpt lat="43.4657279" lon="10.598047"><ele>537.0</ele><time>2026-04-18T10:58:34.394Z</time></trkpt><trkpt lat="43.4657547" lon="10.5982203"><ele>540.0</ele><time>2026-04-18T10:58:36.403Z</time></trkpt><trkpt lat="43.4658127" lon="10.5983866"><ele>543.0</ele><time>2026-04-18T10:58:38.284Z</time></trkpt><trkpt lat="43.4658822" lon="10.5984997"><ele>546.0</ele><time>2026-04-18T10:58:39.285Z</time></trkpt><trkpt lat="43.4659388" lon="10.5985974"><ele>546.4</ele><time>2026-04-18T10:58:40.284Z</time></trkpt><trkpt lat="43.4659872" lon="10.5986875"><ele>546.8</ele><time>2026-04-18T10:58:41.289Z</time></trkpt><trkpt lat="43.4660603" lon="10.5987893"><ele>547.1999999999999</ele><time>2026-04-18T10:58:42.281Z</time></trkpt><trkpt lat="43.4661439" lon="10.5989131"><ele>547.6</ele><time>2026-04-18T10:58:43.286Z</time></trkpt><trkpt lat="43.4661925" lon="10.5990412"><ele>548.0</ele><time>2026-04-18T10:58:44.38Z</time></trkpt><trkpt lat="43.4662595" lon="10.5991363"><ele>549.6</ele><time>2026-04-18T10:58:45.377Z</time></trkpt><trkpt lat="43.4663321" lon="10.5992229"><ele>551.1999999999999</ele><time>2026-04-18T10:58:46.283Z</time></trkpt><trkpt lat="43.4663927" lon="10.5992949"><ele>552.8</ele><time>2026-04-18T10:58:47.286Z</time></trkpt><trkpt lat="43.4665167" lon="10.5993334"><ele>554.4</ele><time>2026-04-18T10:58:48.284Z</time></trkpt><trkpt lat="43.4665965" lon="10.5994239"><ele>556.0</ele><time>2026-04-18T10:58:49.282Z</time></trkpt><trkpt lat="43.4667235" lon="10.5995085"><ele>557.6666666666667</ele><time>2026-04-18T10:58:50.382Z</time></trkpt><trkpt lat="43.4668303" lon="10.599611"><ele>559.3333333333334</ele><time>2026-04-18T10:58:51.403Z</time></trkpt><trkpt lat="43.4670122" lon="10.5998158"><ele>561.0</ele><time>2026-04-18T10:58:53.283Z</time></trkpt><trkpt lat="43.4670566" lon="10.5999627"><ele>561.6</ele><time>2026-04-18T10:58:54.284Z</time></trkpt><trkpt lat="43.467148" lon="10.6000521"><ele>562.2</ele><time>2026-04-18T10:58:55.285Z</time></trkpt><trkpt lat="43.4672409" lon="10.600155"><ele>562.8</ele><time>2026-04-18T10:58:56.373Z</time></trkpt><trkpt lat="43.4673159" lon="10.6002372"><ele>563.4</ele><time>2026-04-18T10:58:57.38Z</time></trkpt><trkpt lat="43.4673571" lon="10.6003156"><ele>564.0</ele><time>2026-04-18T10:58:58.383Z</time></trkpt><trkpt lat="43.4674014" lon="10.6004175"><ele>566.8</ele><time>2026-04-18T10:58:59.39Z</time></trkpt><trkpt lat="43.4674338" lon="10.6005129"><ele>569.5999999999999</ele><time>2026-04-18T10:59:00.291Z</time></trkpt><trkpt lat="43.467479" lon="10.6006386"><ele>572.4</ele><time>2026-04-18T10:59:01.285Z</time></trkpt><trkpt lat="43.4675206" lon="10.6007533"><ele>575.1999999999999</ele><time>2026-04-18T10:59:02.314Z</time></trkpt><trkpt lat="43.467557" lon="10.6008789"><ele>578.0</ele><time>2026-04-18T10:59:03.37Z</time></trkpt><trkpt lat="43.4675904" lon="10.6010229"><ele>578.0</ele><time>2026-04-18T10:59:04.38Z</time></trkpt><trkpt lat="43.4676452" lon="10.6011626"><ele>578.0</ele><time>2026-04-18T10:59:05.36Z</time></trkpt><trkpt lat="43.467683" lon="10.6012831"><ele>578.0</ele><time>2026-04-18T10:59:06.285Z</time></trkpt><trkpt lat="43.4677311" lon="10.601411"><ele>578.0</ele><time>2026-04-18T10:59:07.288Z</time></trkpt><trkpt lat="43.4677867" lon="10.6015401"><ele>578.0</ele><time>2026-04-18T10:59:08.285Z</time></trkpt><trkpt lat="43.4678491" lon="10.6016615"><ele>579.25</ele><time>2026-04-18T10:59:09.403Z</time></trkpt><trkpt lat="43.4678989" lon="10.6017814"><ele>580.5</ele><time>2026-04-18T10:59:10.396Z</time></trkpt><trkpt lat="43.4679336" lon="10.6019002"><ele>581.75</ele><time>2026-04-18T10:59:11.385Z</time></trkpt><trkpt lat="43.4680245" lon="10.6021815"><ele>583.0</ele><time>2026-04-18T10:59:13.288Z</time></trkpt><trkpt lat="43.4680684" lon="10.6023275"><ele>583.1666666666667</ele><time>2026-04-18T10:59:14.319Z</time></trkpt><trkpt lat="43.4680932" lon="10.6024389"><ele>583.3333333333334</ele><time>2026-04-18T10:59:15.401Z</time></trkpt><trkpt lat="43.4681261" lon="10.6025476"><ele>583.5</ele><time>2026-04-18T10:59:16.383Z</time></trkpt><trkpt lat="43.4681791" lon="10.6026286"><ele>583.6666666666666</ele><time>2026-04-18T10:59:17.378Z</time></trkpt><trkpt lat="43.4682266" lon="10.6026945"><ele>583.8333333333333</ele><time>2026-04-18T10:59:18.287Z</time></trkpt><trkpt lat="43.4682816" lon="10.6027494"><ele>584.0</ele><time>2026-04-18T10:59:19.373Z</time></trkpt><trkpt lat="43.4684081" lon="10.6028221"><ele>583.2</ele><time>2026-04-18T10:59:21.377Z</time></trkpt><trkpt lat="43.468488" lon="10.6028868"><ele>582.4</ele><time>2026-04-18T10:59:22.38Z</time></trkpt><trkpt lat="43.4685596" lon="10.6029274"><ele>581.6</ele><time>2026-04-18T10:59:23.283Z</time></trkpt><trkpt lat="43.468653" lon="10.6029812"><ele>580.8</ele><time>2026-04-18T10:59:24.395Z</time></trkpt><trkpt lat="43.4687619" lon="10.6030622"><ele>580.0</ele><time>2026-04-18T10:59:25.398Z</time></trkpt><trkpt lat="43.4688648" lon="10.6031278"><ele>583.0</ele><time>2026-04-18T10:59:26.392Z</time></trkpt><trkpt lat="43.4689512" lon="10.6031906"><ele>586.0</ele><time>2026-04-18T10:59:27.399Z</time></trkpt><trkpt lat="43.4690687" lon="10.6032679"><ele>589.0</ele><time>2026-04-18T10:59:28.389Z</time></trkpt><trkpt lat="43.4692764" lon="10.6034263"><ele>589.0</ele><time>2026-04-18T10:59:30.281Z</time></trkpt><trkpt lat="43.4693789" lon="10.6035157"><ele>589.0</ele><time>2026-04-18T10:59:31.282Z</time></trkpt><trkpt lat="43.4694789" lon="10.6035998"><ele>589.0</ele><time>2026-04-18T10:59:32.282Z</time></trkpt><trkpt lat="43.4695763" lon="10.6036605"><ele>589.0</ele><time>2026-04-18T10:59:33.288Z</time></trkpt><trkpt lat="43.4696489" lon="10.6037344"><ele>589.0</ele><time>2026-04-18T10:59:34.284Z</time></trkpt><trkpt lat="43.4697288" lon="10.6038118"><ele>587.75</ele><time>2026-04-18T10:59:35.281Z</time></trkpt><trkpt lat="43.4698221" lon="10.6038973"><ele>586.5</ele><time>2026-04-18T10:59:36.419Z</time></trkpt><trkpt lat="43.469939" lon="10.603956"><ele>585.25</ele><time>2026-04-18T10:59:37.409Z</time></trkpt><trkpt lat="43.4700385" lon="10.6040331"><ele>584.0</ele><time>2026-04-18T10:59:38.418Z</time></trkpt><trkpt lat="43.4701484" lon="10.6040737"><ele>584.0</ele><time>2026-04-18T10:59:39.412Z</time></trkpt><trkpt lat="43.4702486" lon="10.6041188"><ele>584.0</ele><time>2026-04-18T10:59:40.386Z</time></trkpt><trkpt lat="43.4704772" lon="10.6041507"><ele>584.0</ele><time>2026-04-18T10:59:42.35Z</time></trkpt><trkpt lat="43.4705725" lon="10.6041864"><ele>584.0</ele><time>2026-04-18T10:59:43.29Z</time></trkpt><trkpt lat="43.4706737" lon="10.6041938"><ele>583.0</ele><time>2026-04-18T10:59:44.286Z</time></trkpt><trkpt lat="43.4708012" lon="10.6041851"><ele>582.0</ele><time>2026-04-18T10:59:45.308Z</time></trkpt><trkpt lat="43.4709124" lon="10.6041868"><ele>581.0</ele><time>2026-04-18T10:59:46.286Z</time></trkpt><trkpt lat="43.4710336" lon="10.6041639"><ele>580.0</ele><time>2026-04-18T10:59:47.287Z</time></trkpt><trkpt lat="43.4711481" lon="10.6041743"><ele>580.0</ele><time>2026-04-18T10:59:48.285Z</time></trkpt><trkpt lat="43.4712634" lon="10.6042034"><ele>580.0</ele><time>2026-04-18T10:59:49.405Z</time></trkpt><trkpt lat="43.4714926" lon="10.6042919"><ele>580.0</ele><time>2026-04-18T10:59:51.282Z</time></trkpt><trkpt lat="43.4716085" lon="10.6042855"><ele>580.5</ele><time>2026-04-18T10:59:52.28Z</time></trkpt><trkpt lat="43.471684" lon="10.6042747"><ele>581.0</ele><time>2026-04-18T10:59:53.285Z</time></trkpt><trkpt lat="43.4718005" lon="10.6042392"><ele>581.5</ele><time>2026-04-18T10:59:54.387Z</time></trkpt><trkpt lat="43.4718905" lon="10.6041766"><ele>582.0</ele><time>2026-04-18T10:59:55.406Z</time></trkpt><trkpt lat="43.4720657" lon="10.6041131"><ele>582.8000000000001</ele><time>2026-04-18T10:59:57.411Z</time></trkpt><trkpt lat="43.4721432" lon="10.6041019"><ele>583.6</ele><time>2026-04-18T10:59:58.401Z</time></trkpt><trkpt lat="43.4722115" lon="10.6041391"><ele>584.4000000000001</ele><time>2026-04-18T10:59:59.401Z</time></trkpt><trkpt lat="43.4723083" lon="10.6042971"><ele>585.2</ele><time>2026-04-18T11:00:01.276Z</time></trkpt><trkpt lat="43.4723535" lon="10.6043815"><ele>586.0</ele><time>2026-04-18T11:00:02.405Z</time></trkpt><trkpt lat="43.472403" lon="10.6045315"><ele>586.0</ele><time>2026-04-18T11:00:03.424Z</time></trkpt><trkpt lat="43.4724466" lon="10.6046841"><ele>586.0</ele><time>2026-04-18T11:00:04.397Z</time></trkpt><trkpt lat="43.4724976" lon="10.6048445"><ele>586.0</ele><time>2026-04-18T11:00:05.418Z</time></trkpt><trkpt lat="43.4725366" lon="10.6050078"><ele>586.0</ele><time>2026-04-18T11:00:06.285Z</time></trkpt><trkpt lat="43.4725555" lon="10.6051938"><ele>585.4</ele><time>2026-04-18T11:00:07.289Z</time></trkpt><trkpt lat="43.4725678" lon="10.6053444"><ele>584.8</ele><time>2026-04-18T11:00:08.287Z</time></trkpt><trkpt lat="43.4726129" lon="10.6054784"><ele>584.1999999999999</ele><time>2026-04-18T11:00:09.407Z</time></trkpt><trkpt lat="43.4726578" lon="10.6055776"><ele>583.6</ele><time>2026-04-18T11:00:10.421Z</time></trkpt><trkpt lat="43.4727067" lon="10.6056852"><ele>583.0</ele><time>2026-04-18T11:00:11.425Z</time></trkpt><trkpt lat="43.4727982" lon="10.6057997"><ele>582.75</ele><time>2026-04-18T11:00:12.414Z</time></trkpt><trkpt lat="43.4729446" lon="10.6058988"><ele>582.5</ele><time>2026-04-18T11:00:13.408Z</time></trkpt><trkpt lat="43.473035" lon="10.6060204"><ele>582.25</ele><time>2026-04-18T11:00:14.411Z</time></trkpt><trkpt lat="43.4731458" lon="10.6061182"><ele>582.0</ele><time>2026-04-18T11:00:15.414Z</time></trkpt><trkpt lat="43.473228" lon="10.606199"><ele>582.0</ele><time>2026-04-18T11:00:16.411Z</time></trkpt><trkpt lat="43.4733385" lon="10.6063039"><ele>582.0</ele><time>2026-04-18T11:00:18.413Z</time></trkpt><trkpt lat="43.4734409" lon="10.606328"><ele>582.0</ele><time>2026-04-18T11:00:19.415Z</time></trkpt><trkpt lat="43.4735153" lon="10.6063282"><ele>582.0</ele><time>2026-04-18T11:00:20.426Z</time></trkpt><trkpt lat="43.4735831" lon="10.6063084"><ele>582.0</ele><time>2026-04-18T11:00:21.413Z</time></trkpt><trkpt lat="43.47372" lon="10.6062655"><ele>581.0</ele><time>2026-04-18T11:00:23.391Z</time></trkpt><trkpt lat="43.4738356" lon="10.6062298"><ele>580.0</ele><time>2026-04-18T11:00:24.415Z</time></trkpt><trkpt lat="43.4739601" lon="10.6062026"><ele>579.0</ele><time>2026-04-18T11:00:25.411Z</time></trkpt><trkpt lat="43.4741643" lon="10.6062196"><ele>578.0</ele><time>2026-04-18T11:00:27.282Z</time></trkpt><trkpt lat="43.4742723" lon="10.6062072"><ele>578.0</ele><time>2026-04-18T11:00:28.283Z</time></trkpt><trkpt lat="43.4743686" lon="10.6062116"><ele>578.0</ele><time>2026-04-18T11:00:29.411Z</time></trkpt><trkpt lat="43.4744821" lon="10.6061926"><ele>578.0</ele><time>2026-04-18T11:00:30.41Z</time></trkpt><trkpt lat="43.4746978" lon="10.6061426"><ele>578.0</ele><time>2026-04-18T11:00:32.282Z</time></trkpt><trkpt lat="43.4747726" lon="10.6061055"><ele>577.0</ele><time>2026-04-18T11:00:33.282Z</time></trkpt><trkpt lat="43.4749316" lon="10.6061111"><ele>576.0</ele><time>2026-04-18T11:00:36.282Z</time></trkpt><trkpt lat="43.4750105" lon="10.6059739"><ele>575.0</ele><time>2026-04-18T11:00:39.4Z</time></trkpt><trkpt lat="43.4750726" lon="10.6058008"><ele>574.0</ele><time>2026-04-18T11:00:41.408Z</time></trkpt><trkpt lat="43.4750533" lon="10.6057023"><ele>574.0</ele><time>2026-04-18T11:00:42.324Z</time></trkpt><trkpt lat="43.4750255" lon="10.6055806"><ele>574.0</ele><time>2026-04-18T11:00:43.279Z</time></trkpt><trkpt lat="43.4750084" lon="10.6054722"><ele>574.0</ele><time>2026-04-18T11:00:44.275Z</time></trkpt><trkpt lat="43.4749878" lon="10.6053718"><ele>574.0</ele><time>2026-04-18T11:00:45.278Z</time></trkpt><trkpt lat="43.474954" lon="10.6052024"><ele>574.0</ele><time>2026-04-18T11:00:46.28Z</time></trkpt><trkpt lat="43.4749362" lon="10.6050659"><ele>574.5</ele><time>2026-04-18T11:00:47.276Z</time></trkpt><trkpt lat="43.4749145" lon="10.6049432"><ele>575.0</ele><time>2026-04-18T11:00:48.28Z</time></trkpt><trkpt lat="43.4748969" lon="10.6048232"><ele>575.5</ele><time>2026-04-18T11:00:49.283Z</time></trkpt><trkpt lat="43.4748783" lon="10.6047169"><ele>576.0</ele><time>2026-04-18T11:00:50.28Z</time></trkpt><trkpt lat="43.4748381" lon="10.6046418"><ele>576.5</ele><time>2026-04-18T11:00:51.278Z</time></trkpt><trkpt lat="43.4748048" lon="10.6045587"><ele>577.0</ele><time>2026-04-18T11:00:52.278Z</time></trkpt><trkpt lat="43.4748345" lon="10.6044219"><ele>577.6</ele><time>2026-04-18T11:00:54.282Z</time></trkpt><trkpt lat="43.4748437" lon="10.6043292"><ele>578.2</ele><time>2026-04-18T11:00:55.285Z</time></trkpt><trkpt lat="43.4748539" lon="10.6042251"><ele>578.8</ele><time>2026-04-18T11:00:56.28Z</time></trkpt><trkpt lat="43.4748509" lon="10.6041044"><ele>579.4</ele><time>2026-04-18T11:00:57.285Z</time></trkpt><trkpt lat="43.4748709" lon="10.6039088"><ele>580.0</ele><time>2026-04-18T11:00:59.28Z</time></trkpt><trkpt lat="43.4748861" lon="10.603794"><ele>580.0</ele><time>2026-04-18T11:01:00.28Z</time></trkpt><trkpt lat="43.4749069" lon="10.603679"><ele>580.0</ele><time>2026-04-18T11:01:01.286Z</time></trkpt><trkpt lat="43.4749268" lon="10.6035796"><ele>580.0</ele><time>2026-04-18T11:01:02.283Z</time></trkpt><trkpt lat="43.4749843" lon="10.603455"><ele>580.0</ele><time>2026-04-18T11:01:04.283Z</time></trkpt><trkpt lat="43.4750344" lon="10.6033954"><ele>580.0</ele><time>2026-04-18T11:01:05.286Z</time></trkpt><trkpt lat="43.4751161" lon="10.6033637"><ele>580.0</ele><time>2026-04-18T11:01:06.4Z</time></trkpt><trkpt lat="43.4752084" lon="10.6033447"><ele>579.6</ele><time>2026-04-18T11:01:07.395Z</time></trkpt><trkpt lat="43.4753106" lon="10.6033331"><ele>579.2</ele><time>2026-04-18T11:01:08.402Z</time></trkpt><trkpt lat="43.4754047" lon="10.6033383"><ele>578.8</ele><time>2026-04-18T11:01:09.355Z</time></trkpt><trkpt lat="43.475508" lon="10.6033413"><ele>578.4</ele><time>2026-04-18T11:01:10.283Z</time></trkpt><trkpt lat="43.4756215" lon="10.6033308"><ele>578.0</ele><time>2026-04-18T11:01:11.386Z</time></trkpt><trkpt lat="43.4757342" lon="10.6033328"><ele>577.25</ele><time>2026-04-18T11:01:12.388Z</time></trkpt><trkpt lat="43.4759493" lon="10.6033702"><ele>576.5</ele><time>2026-04-18T11:01:14.279Z</time></trkpt><trkpt lat="43.4760491" lon="10.6034077"><ele>575.75</ele><time>2026-04-18T11:01:15.385Z</time></trkpt><trkpt lat="43.4761393" lon="10.6034755"><ele>575.0</ele><time>2026-04-18T11:01:16.395Z</time></trkpt><trkpt lat="43.476225" lon="10.6035555"><ele>573.25</ele><time>2026-04-18T11:01:17.396Z</time></trkpt><trkpt lat="43.4763083" lon="10.6036368"><ele>571.5</ele><time>2026-04-18T11:01:18.393Z</time></trkpt><trkpt lat="43.4763856" lon="10.6037145"><ele>569.75</ele><time>2026-04-18T11:01:19.391Z</time></trkpt><trkpt lat="43.476472" lon="10.6037738"><ele>568.0</ele><time>2026-04-18T11:01:20.386Z</time></trkpt><trkpt lat="43.4766522" lon="10.6038408"><ele>568.0</ele><time>2026-04-18T11:01:22.289Z</time></trkpt><trkpt lat="43.4767538" lon="10.6038391"><ele>568.0</ele><time>2026-04-18T11:01:23.287Z</time></trkpt><trkpt lat="43.4768511" lon="10.6038204"><ele>568.0</ele><time>2026-04-18T11:01:24.396Z</time></trkpt><trkpt lat="43.4770357" lon="10.6037216"><ele>568.0</ele><time>2026-04-18T11:01:26.337Z</time></trkpt><trkpt lat="43.4771501" lon="10.6036588"><ele>565.75</ele><time>2026-04-18T11:01:27.282Z</time></trkpt><trkpt lat="43.477274" lon="10.6036121"><ele>563.5</ele><time>2026-04-18T11:01:28.283Z</time></trkpt><trkpt lat="43.4773945" lon="10.6035706"><ele>561.25</ele><time>2026-04-18T11:01:29.351Z</time></trkpt><trkpt lat="43.4774895" lon="10.6035267"><ele>559.0</ele><time>2026-04-18T11:01:30.297Z</time></trkpt><trkpt lat="43.4775776" lon="10.6034701"><ele>559.0</ele><time>2026-04-18T11:01:31.287Z</time></trkpt><trkpt lat="43.4776611" lon="10.6033948"><ele>559.0</ele><time>2026-04-18T11:01:32.388Z</time></trkpt><trkpt lat="43.4777546" lon="10.603294"><ele>559.0</ele><time>2026-04-18T11:01:33.398Z</time></trkpt><trkpt lat="43.4778494" lon="10.6031781"><ele>559.0</ele><time>2026-04-18T11:01:34.391Z</time></trkpt><trkpt lat="43.4779379" lon="10.6030579"><ele>556.0</ele><time>2026-04-18T11:01:35.405Z</time></trkpt><trkpt lat="43.4780267" lon="10.6029478"><ele>553.0</ele><time>2026-04-18T11:01:36.382Z</time></trkpt><trkpt lat="43.4781061" lon="10.6028423"><ele>550.0</ele><time>2026-04-18T11:01:37.406Z</time></trkpt><trkpt lat="43.4781777" lon="10.6027321"><ele>547.0</ele><time>2026-04-18T11:01:38.319Z</time></trkpt><trkpt lat="43.4782362" lon="10.6025951"><ele>547.0</ele><time>2026-04-18T11:01:39.398Z</time></trkpt><trkpt lat="43.478287" lon="10.6024518"><ele>547.0</ele><time>2026-04-18T11:01:40.382Z</time></trkpt><trkpt lat="43.4783371" lon="10.6022932"><ele>547.0</ele><time>2026-04-18T11:01:41.391Z</time></trkpt><trkpt lat="43.4784584" lon="10.6020464"><ele>546.6</ele><time>2026-04-18T11:01:43.284Z</time></trkpt><trkpt lat="43.4785499" lon="10.6019384"><ele>546.2</ele><time>2026-04-18T11:01:44.285Z</time></trkpt><trkpt lat="43.4786383" lon="10.6018485"><ele>545.8</ele><time>2026-04-18T11:01:45.395Z</time></trkpt><trkpt lat="43.4787305" lon="10.6017676"><ele>545.4</ele><time>2026-04-18T11:01:46.396Z</time></trkpt><trkpt lat="43.478829" lon="10.6017147"><ele>545.0</ele><time>2026-04-18T11:01:47.393Z</time></trkpt><trkpt lat="43.4789262" lon="10.6016962"><ele>544.6666666666666</ele><time>2026-04-18T11:01:48.408Z</time></trkpt><trkpt lat="43.4790371" lon="10.6017087"><ele>544.3333333333333</ele><time>2026-04-18T11:01:49.387Z</time></trkpt><trkpt lat="43.4791365" lon="10.6017259"><ele>544.0</ele><time>2026-04-18T11:01:50.41Z</time></trkpt><trkpt lat="43.4792202" lon="10.6017224"><ele>543.6666666666666</ele><time>2026-04-18T11:01:51.365Z</time></trkpt><trkpt lat="43.4792962" lon="10.6017001"><ele>543.3333333333334</ele><time>2026-04-18T11:01:52.403Z</time></trkpt><trkpt lat="43.479356" lon="10.6016489"><ele>543.0</ele><time>2026-04-18T11:01:53.374Z</time></trkpt><trkpt lat="43.4794244" lon="10.6015641"><ele>543.0</ele><time>2026-04-18T11:01:54.385Z</time></trkpt><trkpt lat="43.4794899" lon="10.6014647"><ele>543.0</ele><time>2026-04-18T11:01:55.385Z</time></trkpt><trkpt lat="43.4795669" lon="10.601345"><ele>543.0</ele><time>2026-04-18T11:01:56.383Z</time></trkpt><trkpt lat="43.4796559" lon="10.6012345"><ele>543.0</ele><time>2026-04-18T11:01:57.284Z</time></trkpt><trkpt lat="43.4797488" lon="10.6011524"><ele>543.0</ele><time>2026-04-18T11:01:58.285Z</time></trkpt><trkpt lat="43.4798332" lon="10.6010726"><ele>541.1999999999999</ele><time>2026-04-18T11:01:59.287Z</time></trkpt><trkpt lat="43.4799008" lon="10.6009775"><ele>539.4</ele><time>2026-04-18T11:02:00.288Z</time></trkpt><trkpt lat="43.479948" lon="10.6008791"><ele>537.5999999999999</ele><time>2026-04-18T11:02:01.284Z</time></trkpt><trkpt lat="43.4799792" lon="10.6007638"><ele>535.8</ele><time>2026-04-18T11:02:02.292Z</time></trkpt><trkpt lat="43.4800009" lon="10.6006234"><ele>534.0</ele><time>2026-04-18T11:02:03.387Z</time></trkpt><trkpt lat="43.480013" lon="10.6004922"><ele>534.0</ele><time>2026-04-18T11:02:04.388Z</time></trkpt><trkpt lat="43.4800305" lon="10.6003522"><ele>534.0</ele><time>2026-04-18T11:02:05.375Z</time></trkpt><trkpt lat="43.4800609" lon="10.6002242"><ele>534.0</ele><time>2026-04-18T11:02:06.38Z</time></trkpt><trkpt lat="43.4801101" lon="10.6000961"><ele>534.0</ele><time>2026-04-18T11:02:07.382Z</time></trkpt><trkpt lat="43.4801764" lon="10.5999705"><ele>534.0</ele><time>2026-04-18T11:02:08.39Z</time></trkpt><trkpt lat="43.480254" lon="10.5998694"><ele>533.0</ele><time>2026-04-18T11:02:09.311Z</time></trkpt><trkpt lat="43.4803468" lon="10.5997725"><ele>532.0</ele><time>2026-04-18T11:02:10.398Z</time></trkpt><trkpt lat="43.4804532" lon="10.5996939"><ele>531.0</ele><time>2026-04-18T11:02:11.41Z</time></trkpt><trkpt lat="43.4805736" lon="10.5996232"><ele>530.0</ele><time>2026-04-18T11:02:12.411Z</time></trkpt><trkpt lat="43.4807074" lon="10.5995661"><ele>529.0</ele><time>2026-04-18T11:02:13.383Z</time></trkpt><trkpt lat="43.4808392" lon="10.5995207"><ele>528.0</ele><time>2026-04-18T11:02:14.385Z</time></trkpt><trkpt lat="43.4809692" lon="10.59948"><ele>527.0</ele><time>2026-04-18T11:02:15.396Z</time></trkpt><trkpt lat="43.481093" lon="10.5994515"><ele>526.0</ele><time>2026-04-18T11:02:16.4Z</time></trkpt><trkpt lat="43.4812085" lon="10.5994126"><ele>522.5</ele><time>2026-04-18T11:02:17.39Z</time></trkpt><trkpt lat="43.4813185" lon="10.5993801"><ele>519.0</ele><time>2026-04-18T11:02:18.401Z</time></trkpt><trkpt lat="43.4814313" lon="10.5993504"><ele>515.5</ele><time>2026-04-18T11:02:19.373Z</time></trkpt><trkpt lat="43.4815473" lon="10.5993339"><ele>512.0</ele><time>2026-04-18T11:02:20.375Z</time></trkpt><trkpt lat="43.4816693" lon="10.5993221"><ele>512.0</ele><time>2026-04-18T11:02:21.276Z</time></trkpt><trkpt lat="43.4817924" lon="10.5993194"><ele>512.0</ele><time>2026-04-18T11:02:22.384Z</time></trkpt><trkpt lat="43.4819241" lon="10.5993119"><ele>512.0</ele><time>2026-04-18T11:02:23.405Z</time></trkpt><trkpt lat="43.4820434" lon="10.5993168"><ele>512.0</ele><time>2026-04-18T11:02:24.394Z</time></trkpt><trkpt lat="43.4821691" lon="10.5993158"><ele>508.0</ele><time>2026-04-18T11:02:25.352Z</time></trkpt><trkpt lat="43.4822905" lon="10.5993323"><ele>504.0</ele><time>2026-04-18T11:02:26.377Z</time></trkpt><trkpt lat="43.4824204" lon="10.5993816"><ele>500.0</ele><time>2026-04-18T11:02:27.284Z</time></trkpt><trkpt lat="43.4825637" lon="10.5994498"><ele>496.0</ele><time>2026-04-18T11:02:28.286Z</time></trkpt><trkpt lat="43.4827227" lon="10.5995463"><ele>496.33333333333337</ele><time>2026-04-18T11:02:29.4Z</time></trkpt><trkpt lat="43.4828999" lon="10.5996571"><ele>496.66666666666663</ele><time>2026-04-18T11:02:30.375Z</time></trkpt><trkpt lat="43.4830802" lon="10.5997636"><ele>497.0</ele><time>2026-04-18T11:02:31.284Z</time></trkpt><trkpt lat="43.4832424" lon="10.5998565"><ele>497.0</ele><time>2026-04-18T11:02:32.282Z</time></trkpt><trkpt lat="43.4833884" lon="10.5999392"><ele>497.0</ele><time>2026-04-18T11:02:33.282Z</time></trkpt><trkpt lat="43.4835248" lon="10.6000077"><ele>497.0</ele><time>2026-04-18T11:02:34.389Z</time></trkpt><trkpt lat="43.4836553" lon="10.600061"><ele>497.0</ele><time>2026-04-18T11:02:35.393Z</time></trkpt><trkpt lat="43.483787" lon="10.6000954"><ele>498.5</ele><time>2026-04-18T11:02:36.397Z</time></trkpt><trkpt lat="43.4839174" lon="10.6001039"><ele>500.0</ele><time>2026-04-18T11:02:37.377Z</time></trkpt><trkpt lat="43.4840567" lon="10.6001045"><ele>501.5</ele><time>2026-04-18T11:02:38.374Z</time></trkpt><trkpt lat="43.4841993" lon="10.6000937"><ele>503.0</ele><time>2026-04-18T11:02:39.374Z</time></trkpt><trkpt lat="43.4843477" lon="10.6000693"><ele>503.0</ele><time>2026-04-18T11:02:40.373Z</time></trkpt><trkpt lat="43.4845196" lon="10.6000435"><ele>503.0</ele><time>2026-04-18T11:02:41.374Z</time></trkpt><trkpt lat="43.4846963" lon="10.6000186"><ele>503.0</ele><time>2026-04-18T11:02:42.392Z</time></trkpt><trkpt lat="43.4848629" lon="10.600002"><ele>503.5</ele><time>2026-04-18T11:02:43.381Z</time></trkpt><trkpt lat="43.4850078" lon="10.5999739"><ele>504.0</ele><time>2026-04-18T11:02:44.391Z</time></trkpt><trkpt lat="43.4851477" lon="10.5999367"><ele>504.5</ele><time>2026-04-18T11:02:45.395Z</time></trkpt><trkpt lat="43.4852786" lon="10.5998873"><ele>505.0</ele><time>2026-04-18T11:02:46.393Z</time></trkpt><trkpt lat="43.4854118" lon="10.5998417"><ele>505.5</ele><time>2026-04-18T11:02:47.375Z</time></trkpt><trkpt lat="43.4855165" lon="10.5997825"><ele>506.0</ele><time>2026-04-18T11:02:48.283Z</time></trkpt><trkpt lat="43.4856298" lon="10.5997208"><ele>506.5</ele><time>2026-04-18T11:02:49.36Z</time></trkpt><trkpt lat="43.4857469" lon="10.5996716"><ele>507.0</ele><time>2026-04-18T11:02:50.277Z</time></trkpt><trkpt lat="43.4858805" lon="10.5996417"><ele>507.0</ele><time>2026-04-18T11:02:51.275Z</time></trkpt><trkpt lat="43.4860228" lon="10.5996309"><ele>507.0</ele><time>2026-04-18T11:02:52.281Z</time></trkpt><trkpt lat="43.4861754" lon="10.5996384"><ele>507.0</ele><time>2026-04-18T11:02:53.282Z</time></trkpt><trkpt lat="43.4863219" lon="10.5996707"><ele>507.0</ele><time>2026-04-18T11:02:54.28Z</time></trkpt><trkpt lat="43.4864607" lon="10.5996903"><ele>505.75</ele><time>2026-04-18T11:02:55.285Z</time></trkpt><trkpt lat="43.4865843" lon="10.5997149"><ele>504.5</ele><time>2026-04-18T11:02:56.283Z</time></trkpt><trkpt lat="43.4867105" lon="10.5997257"><ele>503.25</ele><time>2026-04-18T11:02:57.281Z</time></trkpt><trkpt lat="43.4868255" lon="10.5997253"><ele>502.0</ele><time>2026-04-18T11:02:58.277Z</time></trkpt><trkpt lat="43.4869393" lon="10.5996826"><ele>502.0</ele><time>2026-04-18T11:02:59.289Z</time></trkpt><trkpt lat="43.487038" lon="10.5996161"><ele>502.0</ele><time>2026-04-18T11:03:00.379Z</time></trkpt><trkpt lat="43.4871354" lon="10.5995383"><ele>502.0</ele><time>2026-04-18T11:03:01.379Z</time></trkpt><trkpt lat="43.487229" lon="10.5994362"><ele>502.0</ele><time>2026-04-18T11:03:02.289Z</time></trkpt><trkpt lat="43.4873126" lon="10.5993176"><ele>499.33333333333337</ele><time>2026-04-18T11:03:03.39Z</time></trkpt><trkpt lat="43.4874039" lon="10.5991856"><ele>496.66666666666663</ele><time>2026-04-18T11:03:04.379Z</time></trkpt><trkpt lat="43.4874974" lon="10.5990459"><ele>494.0</ele><time>2026-04-18T11:03:05.397Z</time></trkpt><trkpt lat="43.4876673" lon="10.5987813"><ele>493.0</ele><time>2026-04-18T11:03:07.389Z</time></trkpt><trkpt lat="43.4877996" lon="10.5985004"><ele>492.0</ele><time>2026-04-18T11:03:09.407Z</time></trkpt><trkpt lat="43.4878572" lon="10.5983453"><ele>491.0</ele><time>2026-04-18T11:03:10.377Z</time></trkpt><trkpt lat="43.4879129" lon="10.5981867"><ele>491.5</ele><time>2026-04-18T11:03:11.384Z</time></trkpt><trkpt lat="43.4879798" lon="10.5980324"><ele>492.0</ele><time>2026-04-18T11:03:12.382Z</time></trkpt><trkpt lat="43.4880637" lon="10.5978893"><ele>492.5</ele><time>2026-04-18T11:03:13.399Z</time></trkpt><trkpt lat="43.4881573" lon="10.5977647"><ele>493.0</ele><time>2026-04-18T11:03:14.387Z</time></trkpt><trkpt lat="43.4882522" lon="10.5976505"><ele>493.4</ele><time>2026-04-18T11:03:15.384Z</time></trkpt><trkpt lat="43.4883303" lon="10.5975424"><ele>493.79999999999995</ele><time>2026-04-18T11:03:16.371Z</time></trkpt><trkpt lat="43.4884004" lon="10.5974269"><ele>494.2</ele><time>2026-04-18T11:03:17.405Z</time></trkpt><trkpt lat="43.4884629" lon="10.5973015"><ele>494.6</ele><time>2026-04-18T11:03:18.375Z</time></trkpt><trkpt lat="43.4885192" lon="10.5971683"><ele>495.0</ele><time>2026-04-18T11:03:19.38Z</time></trkpt><trkpt lat="43.4885716" lon="10.5970109"><ele>494.25</ele><time>2026-04-18T11:03:20.396Z</time></trkpt><trkpt lat="43.4886349" lon="10.5968546"><ele>493.5</ele><time>2026-04-18T11:03:21.373Z</time></trkpt><trkpt lat="43.488699" lon="10.5967121"><ele>492.75</ele><time>2026-04-18T11:03:22.375Z</time></trkpt><trkpt lat="43.4887687" lon="10.5965753"><ele>492.0</ele><time>2026-04-18T11:03:23.376Z</time></trkpt><trkpt lat="43.4888483" lon="10.5964652"><ele>492.0</ele><time>2026-04-18T11:03:24.379Z</time></trkpt><trkpt lat="43.4889358" lon="10.5963837"><ele>492.00000000000006</ele><time>2026-04-18T11:03:25.38Z</time></trkpt><trkpt lat="43.4890299" lon="10.59634"><ele>492.00000000000006</ele><time>2026-04-18T11:03:26.372Z</time></trkpt><trkpt lat="43.4891215" lon="10.5963345"><ele>492.0</ele><time>2026-04-18T11:03:27.285Z</time></trkpt><trkpt lat="43.4892154" lon="10.5963613"><ele>492.0</ele><time>2026-04-18T11:03:28.285Z</time></trkpt><trkpt lat="43.4893157" lon="10.5964093"><ele>492.0</ele><time>2026-04-18T11:03:29.378Z</time></trkpt><trkpt lat="43.4894167" lon="10.5964574"><ele>492.0</ele><time>2026-04-18T11:03:30.381Z</time></trkpt><trkpt lat="43.4895283" lon="10.5964971"><ele>492.0</ele><time>2026-04-18T11:03:31.375Z</time></trkpt><trkpt lat="43.4896449" lon="10.5965224"><ele>492.0</ele><time>2026-04-18T11:03:32.374Z</time></trkpt><trkpt lat="43.4897668" lon="10.5965316"><ele>492.0</ele><time>2026-04-18T11:03:33.388Z</time></trkpt><trkpt lat="43.489884" lon="10.5965327"><ele>492.0</ele><time>2026-04-18T11:03:34.406Z</time></trkpt><trkpt lat="43.4899925" lon="10.5965107"><ele>492.0</ele><time>2026-04-18T11:03:35.388Z</time></trkpt><trkpt lat="43.4901005" lon="10.5964685"><ele>492.0</ele><time>2026-04-18T11:03:36.376Z</time></trkpt><trkpt lat="43.4902118" lon="10.5964143"><ele>492.0</ele><time>2026-04-18T11:03:37.4Z</time></trkpt><trkpt lat="43.4903208" lon="10.5963504"><ele>492.0</ele><time>2026-04-18T11:03:38.409Z</time></trkpt><trkpt lat="43.4905353" lon="10.5962921"><ele>492.0</ele><time>2026-04-18T11:03:40.283Z</time></trkpt><trkpt lat="43.4906535" lon="10.596298"><ele>491.33333333333337</ele><time>2026-04-18T11:03:41.382Z</time></trkpt><trkpt lat="43.490927" lon="10.5963221"><ele>490.6666666666667</ele><time>2026-04-18T11:03:43.368Z</time></trkpt><trkpt lat="43.4910597" lon="10.5963283"><ele>490.0</ele><time>2026-04-18T11:03:44.401Z</time></trkpt><trkpt lat="43.4911867" lon="10.5963347"><ele>489.0</ele><time>2026-04-18T11:03:45.399Z</time></trkpt><trkpt lat="43.4913076" lon="10.5963591"><ele>488.0</ele><time>2026-04-18T11:03:46.392Z</time></trkpt><trkpt lat="43.4914267" lon="10.5964097"><ele>487.0</ele><time>2026-04-18T11:03:47.38Z</time></trkpt><trkpt lat="43.4915457" lon="10.5964854"><ele>486.0</ele><time>2026-04-18T11:03:48.401Z</time></trkpt><trkpt lat="43.4916556" lon="10.5965652"><ele>486.0</ele><time>2026-04-18T11:03:49.404Z</time></trkpt><trkpt lat="43.4917566" lon="10.596639"><ele>486.0</ele><time>2026-04-18T11:03:50.387Z</time></trkpt><trkpt lat="43.4918425" lon="10.5967083"><ele>486.0</ele><time>2026-04-18T11:03:51.377Z</time></trkpt><trkpt lat="43.4919069" lon="10.5967589"><ele>486.0</ele><time>2026-04-18T11:03:52.284Z</time></trkpt><trkpt lat="43.4919927" lon="10.5968152"><ele>486.0</ele><time>2026-04-18T11:03:54.395Z</time></trkpt><trkpt lat="43.4920624" lon="10.5968279"><ele>486.4</ele><time>2026-04-18T11:03:56.388Z</time></trkpt><trkpt lat="43.4921763" lon="10.5968203"><ele>486.8</ele><time>2026-04-18T11:03:58.285Z</time></trkpt><trkpt lat="43.4922934" lon="10.5967658"><ele>487.19999999999993</ele><time>2026-04-18T11:04:00.377Z</time></trkpt><trkpt lat="43.4923759" lon="10.5967346"><ele>487.59999999999997</ele><time>2026-04-18T11:04:02.284Z</time></trkpt><trkpt lat="43.4924145" lon="10.5966593"><ele>488.0</ele><time>2026-04-18T11:04:06.279Z</time></trkpt><trkpt lat="43.4923328" lon="10.5967187"><ele>487.99999999999994</ele><time>2026-04-18T11:04:14.286Z</time></trkpt><trkpt lat="43.4922734" lon="10.5967527"><ele>488.0</ele><time>2026-04-18T11:04:15.282Z</time></trkpt><trkpt lat="43.4921946" lon="10.596784"><ele>488.0</ele><time>2026-04-18T11:04:16.281Z</time></trkpt><trkpt lat="43.4921201" lon="10.596801"><ele>488.0</ele><time>2026-04-18T11:04:17.284Z</time></trkpt><trkpt lat="43.492056" lon="10.596808"><ele>487.99999999999994</ele><time>2026-04-18T11:04:18.281Z</time></trkpt><trkpt lat="43.4919589" lon="10.596793"><ele>488.0</ele><time>2026-04-18T11:04:20.283Z</time></trkpt><trkpt lat="43.4918904" lon="10.596842"><ele>487.59999999999997</ele><time>2026-04-18T11:04:23.283Z</time></trkpt><trkpt lat="43.4918869" lon="10.5969625"><ele>487.19999999999993</ele><time>2026-04-18T11:04:25.282Z</time></trkpt><trkpt lat="43.4918961" lon="10.5970593"><ele>486.8</ele><time>2026-04-18T11:04:26.28Z</time></trkpt><trkpt lat="43.491918" lon="10.5971956"><ele>486.4</ele><time>2026-04-18T11:04:27.281Z</time></trkpt><trkpt lat="43.4919494" lon="10.5973495"><ele>486.0</ele><time>2026-04-18T11:04:28.277Z</time></trkpt><trkpt lat="43.4919823" lon="10.5975153"><ele>485.4</ele><time>2026-04-18T11:04:29.283Z</time></trkpt><trkpt lat="43.4920032" lon="10.5976795"><ele>484.8</ele><time>2026-04-18T11:04:30.282Z</time></trkpt><trkpt lat="43.4920245" lon="10.5978427"><ele>484.19999999999993</ele><time>2026-04-18T11:04:31.285Z</time></trkpt><trkpt lat="43.4920484" lon="10.5979886"><ele>483.59999999999997</ele><time>2026-04-18T11:04:32.284Z</time></trkpt><trkpt lat="43.4920694" lon="10.5981178"><ele>483.0</ele><time>2026-04-18T11:04:33.28Z</time></trkpt><trkpt lat="43.4920753" lon="10.5982478"><ele>481.2</ele><time>2026-04-18T11:04:34.412Z</time></trkpt><trkpt lat="43.4920656" lon="10.5983875"><ele>479.4</ele><time>2026-04-18T11:04:35.415Z</time></trkpt><trkpt lat="43.4920441" lon="10.5985456"><ele>477.59999999999997</ele><time>2026-04-18T11:04:36.403Z</time></trkpt><trkpt lat="43.4920182" lon="10.5986862"><ele>475.79999999999995</ele><time>2026-04-18T11:04:37.412Z</time></trkpt><trkpt lat="43.4919933" lon="10.5988259"><ele>474.0</ele><time>2026-04-18T11:04:38.419Z</time></trkpt><trkpt lat="43.4919811" lon="10.5989865"><ele>472.79999999999995</ele><time>2026-04-18T11:04:39.419Z</time></trkpt><trkpt lat="43.4919787" lon="10.5991554"><ele>471.59999999999997</ele><time>2026-04-18T11:04:40.419Z</time></trkpt><trkpt lat="43.4919866" lon="10.5993141"><ele>470.4</ele><time>2026-04-18T11:04:41.415Z</time></trkpt><trkpt lat="43.4919899" lon="10.5994607"><ele>469.2</ele><time>2026-04-18T11:04:42.416Z</time></trkpt><trkpt lat="43.4919985" lon="10.5995861"><ele>468.0</ele><time>2026-04-18T11:04:43.409Z</time></trkpt><trkpt lat="43.4920184" lon="10.5997023"><ele>467.8333333333333</ele><time>2026-04-18T11:04:44.366Z</time></trkpt><trkpt lat="43.4920518" lon="10.5997945"><ele>467.66666666666663</ele><time>2026-04-18T11:04:45.282Z</time></trkpt><trkpt lat="43.4921061" lon="10.599878"><ele>467.5</ele><time>2026-04-18T11:04:46.287Z</time></trkpt><trkpt lat="43.4921806" lon="10.5999524"><ele>467.3333333333333</ele><time>2026-04-18T11:04:47.285Z</time></trkpt><trkpt lat="43.4922698" lon="10.6000155"><ele>467.16666666666663</ele><time>2026-04-18T11:04:48.286Z</time></trkpt><trkpt lat="43.4923503" lon="10.6000817"><ele>467.0</ele><time>2026-04-18T11:04:49.281Z</time></trkpt><trkpt lat="43.4924145" lon="10.6001636"><ele>466.99999999999994</ele><time>2026-04-18T11:04:50.283Z</time></trkpt><trkpt lat="43.4924641" lon="10.6002537"><ele>467.0</ele><time>2026-04-18T11:04:51.286Z</time></trkpt><trkpt lat="43.4925154" lon="10.6003397"><ele>467.0</ele><time>2026-04-18T11:04:52.287Z</time></trkpt><trkpt lat="43.4925683" lon="10.6004128"><ele>467.0</ele><time>2026-04-18T11:04:53.287Z</time></trkpt><trkpt lat="43.4926271" lon="10.6004743"><ele>466.99999999999994</ele><time>2026-04-18T11:04:54.286Z</time></trkpt><trkpt lat="43.4926788" lon="10.6005259"><ele>467.0</ele><time>2026-04-18T11:04:55.285Z</time></trkpt><trkpt lat="43.49279" lon="10.6005827"><ele>466.6</ele><time>2026-04-18T11:04:57.281Z</time></trkpt><trkpt lat="43.4929282" lon="10.6005782"><ele>466.20000000000005</ele><time>2026-04-18T11:04:59.284Z</time></trkpt><trkpt lat="43.4930137" lon="10.600554"><ele>465.8</ele><time>2026-04-18T11:05:00.283Z</time></trkpt><trkpt lat="43.4931066" lon="10.6005258"><ele>465.4</ele><time>2026-04-18T11:05:01.281Z</time></trkpt><trkpt lat="43.4932053" lon="10.6005003"><ele>465.0</ele><time>2026-04-18T11:05:02.288Z</time></trkpt><trkpt lat="43.493302" lon="10.6004915"><ele>465.0</ele><time>2026-04-18T11:05:03.283Z</time></trkpt><trkpt lat="43.4933918" lon="10.6004908"><ele>465.0</ele><time>2026-04-18T11:05:04.289Z</time></trkpt><trkpt lat="43.4934813" lon="10.6005106"><ele>465.0</ele><time>2026-04-18T11:05:05.286Z</time></trkpt><trkpt lat="43.4935737" lon="10.6005522"><ele>465.0</ele><time>2026-04-18T11:05:06.288Z</time></trkpt><trkpt lat="43.4936674" lon="10.6006164"><ele>465.0</ele><time>2026-04-18T11:05:07.281Z</time></trkpt><trkpt lat="43.4937633" lon="10.6006891"><ele>462.6</ele><time>2026-04-18T11:05:08.283Z</time></trkpt><trkpt lat="43.4938657" lon="10.6007703"><ele>460.2</ele><time>2026-04-18T11:05:09.28Z</time></trkpt><trkpt lat="43.4939676" lon="10.6008488"><ele>457.79999999999995</ele><time>2026-04-18T11:05:10.284Z</time></trkpt><trkpt lat="43.4940606" lon="10.600922"><ele>455.4</ele><time>2026-04-18T11:05:11.287Z</time></trkpt><trkpt lat="43.4941371" lon="10.6009993"><ele>453.0</ele><time>2026-04-18T11:05:12.285Z</time></trkpt><trkpt lat="43.4942081" lon="10.6010737"><ele>453.0</ele><time>2026-04-18T11:05:13.287Z</time></trkpt><trkpt lat="43.4942743" lon="10.6011322"><ele>452.99999999999994</ele><time>2026-04-18T11:05:14.286Z</time></trkpt><trkpt lat="43.4943777" lon="10.6012025"><ele>452.99999999999994</ele><time>2026-04-18T11:05:16.308Z</time></trkpt><trkpt lat="43.4944407" lon="10.601202"><ele>453.0</ele><time>2026-04-18T11:05:17.289Z</time></trkpt><trkpt lat="43.4945616" lon="10.6011108"><ele>453.0</ele><time>2026-04-18T11:05:19.288Z</time></trkpt><trkpt lat="43.4946214" lon="10.6010512"><ele>451.5</ele><time>2026-04-18T11:05:20.282Z</time></trkpt><trkpt lat="43.4946792" lon="10.6009785"><ele>450.0</ele><time>2026-04-18T11:05:21.286Z</time></trkpt><trkpt lat="43.4947486" lon="10.600924"><ele>448.5</ele><time>2026-04-18T11:05:22.281Z</time></trkpt><trkpt lat="43.4948205" lon="10.6008768"><ele>447.0</ele><time>2026-04-18T11:05:23.287Z</time></trkpt><trkpt lat="43.4949143" lon="10.6008641"><ele>445.5</ele><time>2026-04-18T11:05:24.287Z</time></trkpt><trkpt lat="43.4950134" lon="10.6008646"><ele>444.0</ele><time>2026-04-18T11:05:25.283Z</time></trkpt><trkpt lat="43.4951113" lon="10.6008726"><ele>444.0</ele><time>2026-04-18T11:05:26.285Z</time></trkpt><trkpt lat="43.4952048" lon="10.6008927"><ele>444.0</ele><time>2026-04-18T11:05:27.284Z</time></trkpt><trkpt lat="43.4953002" lon="10.600932"><ele>444.0</ele><time>2026-04-18T11:05:28.285Z</time></trkpt><trkpt lat="43.4954071" lon="10.6009801"><ele>444.0</ele><time>2026-04-18T11:05:29.286Z</time></trkpt><trkpt lat="43.4955182" lon="10.601037"><ele>444.0</ele><time>2026-04-18T11:05:30.281Z</time></trkpt><trkpt lat="43.495641" lon="10.6010939"><ele>443.25</ele><time>2026-04-18T11:05:31.283Z</time></trkpt><trkpt lat="43.4957733" lon="10.6011491"><ele>442.5</ele><time>2026-04-18T11:05:32.286Z</time></trkpt><trkpt lat="43.4959105" lon="10.6011948"><ele>441.75</ele><time>2026-04-18T11:05:33.285Z</time></trkpt><trkpt lat="43.4960428" lon="10.6012377"><ele>441.0</ele><time>2026-04-18T11:05:34.284Z</time></trkpt><trkpt lat="43.4961758" lon="10.6012774"><ele>439.20000000000005</ele><time>2026-04-18T11:05:35.285Z</time></trkpt><trkpt lat="43.4962899" lon="10.6013071"><ele>437.40000000000003</ele><time>2026-04-18T11:05:36.285Z</time></trkpt><trkpt lat="43.4964009" lon="10.6013311"><ele>435.6</ele><time>2026-04-18T11:05:37.28Z</time></trkpt><trkpt lat="43.4965046" lon="10.6013478"><ele>433.8</ele><time>2026-04-18T11:05:38.284Z</time></trkpt><trkpt lat="43.4965779" lon="10.6013884"><ele>432.0</ele><time>2026-04-18T11:05:39.28Z</time></trkpt><trkpt lat="43.4966483" lon="10.6014359"><ele>432.0</ele><time>2026-04-18T11:05:40.28Z</time></trkpt><trkpt lat="43.4966929" lon="10.6014996"><ele>432.0</ele><time>2026-04-18T11:05:41.285Z</time></trkpt><trkpt lat="43.4967189" lon="10.6015815"><ele>432.0</ele><time>2026-04-18T11:05:42.286Z</time></trkpt><trkpt lat="43.4967326" lon="10.6016933"><ele>432.0</ele><time>2026-04-18T11:05:43.285Z</time></trkpt><trkpt lat="43.4967358" lon="10.6018155"><ele>432.0</ele><time>2026-04-18T11:05:44.285Z</time></trkpt><trkpt lat="43.4967479" lon="10.6019511"><ele>432.0</ele><time>2026-04-18T11:05:45.287Z</time></trkpt><trkpt lat="43.4967819" lon="10.6020988"><ele>432.20000000000005</ele><time>2026-04-18T11:05:46.275Z</time></trkpt><trkpt lat="43.4968151" lon="10.6022312"><ele>432.40000000000003</ele><time>2026-04-18T11:05:47.282Z</time></trkpt><trkpt lat="43.4968634" lon="10.6023575"><ele>432.59999999999997</ele><time>2026-04-18T11:05:48.279Z</time></trkpt><trkpt lat="43.4969262" lon="10.6024704"><ele>432.79999999999995</ele><time>2026-04-18T11:05:49.287Z</time></trkpt><trkpt lat="43.4969731" lon="10.6025834"><ele>433.0</ele><time>2026-04-18T11:05:50.283Z</time></trkpt><trkpt lat="43.4970272" lon="10.6026992"><ele>433.00000000000006</ele><time>2026-04-18T11:05:51.281Z</time></trkpt><trkpt lat="43.4970792" lon="10.6027959"><ele>433.0</ele><time>2026-04-18T11:05:52.287Z</time></trkpt><trkpt lat="43.4971239" lon="10.6028973"><ele>433.0</ele><time>2026-04-18T11:05:53.285Z</time></trkpt><trkpt lat="43.497166" lon="10.6030063"><ele>433.0</ele><time>2026-04-18T11:05:54.29Z</time></trkpt><trkpt lat="43.4972074" lon="10.6031163"><ele>433.00000000000006</ele><time>2026-04-18T11:05:55.287Z</time></trkpt><trkpt lat="43.4972159" lon="10.6032321"><ele>433.0</ele><time>2026-04-18T11:05:56.285Z</time></trkpt><trkpt lat="43.4972166" lon="10.6033383"><ele>430.0</ele><time>2026-04-18T11:05:57.282Z</time></trkpt><trkpt lat="43.4972509" lon="10.6034397"><ele>426.99999999999994</ele><time>2026-04-18T11:05:58.278Z</time></trkpt><trkpt lat="43.4973005" lon="10.6035238"><ele>424.0</ele><time>2026-04-18T11:05:59.284Z</time></trkpt><trkpt lat="43.4973593" lon="10.6036161"><ele>421.0</ele><time>2026-04-18T11:06:00.282Z</time></trkpt><trkpt lat="43.4974176" lon="10.6037361"><ele>418.0</ele><time>2026-04-18T11:06:01.287Z</time></trkpt><trkpt lat="43.4974678" lon="10.6038522"><ele>417.33333333333337</ele><time>2026-04-18T11:06:02.288Z</time></trkpt><trkpt lat="43.4974973" lon="10.6039712"><ele>416.6666666666667</ele><time>2026-04-18T11:06:03.281Z</time></trkpt><trkpt lat="43.4975322" lon="10.604078"><ele>416.0</ele><time>2026-04-18T11:06:04.28Z</time></trkpt><trkpt lat="43.4975626" lon="10.604179"><ele>415.33333333333337</ele><time>2026-04-18T11:06:05.284Z</time></trkpt><trkpt lat="43.4976063" lon="10.6042591"><ele>414.6666666666667</ele><time>2026-04-18T11:06:06.286Z</time></trkpt><trkpt lat="43.4976443" lon="10.604336"><ele>414.0</ele><time>2026-04-18T11:06:07.289Z</time></trkpt><trkpt lat="43.4977348" lon="10.6043661"><ele>414.0</ele><time>2026-04-18T11:06:08.274Z</time></trkpt><trkpt lat="43.4978189" lon="10.6043273"><ele>414.0</ele><time>2026-04-18T11:06:09.275Z</time></trkpt><trkpt lat="43.4979205" lon="10.6043311"><ele>414.0</ele><time>2026-04-18T11:06:10.283Z</time></trkpt><trkpt lat="43.4980122" lon="10.6043887"><ele>414.0</ele><time>2026-04-18T11:06:11.277Z</time></trkpt><trkpt lat="43.4980997" lon="10.6044526"><ele>414.0</ele><time>2026-04-18T11:06:12.284Z</time></trkpt><trkpt lat="43.4981923" lon="10.6045127"><ele>412.2</ele><time>2026-04-18T11:06:13.289Z</time></trkpt><trkpt lat="43.4982837" lon="10.6045555"><ele>410.4</ele><time>2026-04-18T11:06:14.28Z</time></trkpt><trkpt lat="43.4983789" lon="10.6045793"><ele>408.6</ele><time>2026-04-18T11:06:15.282Z</time></trkpt><trkpt lat="43.4984689" lon="10.6046141"><ele>406.8</ele><time>2026-04-18T11:06:16.279Z</time></trkpt><trkpt lat="43.4985529" lon="10.6046619"><ele>405.0</ele><time>2026-04-18T11:06:17.285Z</time></trkpt><trkpt lat="43.4986257" lon="10.6047254"><ele>405.0</ele><time>2026-04-18T11:06:18.281Z</time></trkpt><trkpt lat="43.4986883" lon="10.6047972"><ele>405.0</ele><time>2026-04-18T11:06:19.284Z</time></trkpt><trkpt lat="43.4987384" lon="10.6048893"><ele>405.0</ele><time>2026-04-18T11:06:20.284Z</time></trkpt><trkpt lat="43.498776" lon="10.6050084"><ele>405.0</ele><time>2026-04-18T11:06:21.285Z</time></trkpt><trkpt lat="43.4988079" lon="10.6051552"><ele>405.0</ele><time>2026-04-18T11:06:22.278Z</time></trkpt><trkpt lat="43.4988422" lon="10.6053077"><ele>401.6</ele><time>2026-04-18T11:06:23.29Z</time></trkpt><trkpt lat="43.4988772" lon="10.6054511"><ele>398.2</ele><time>2026-04-18T11:06:24.281Z</time></trkpt><trkpt lat="43.4989111" lon="10.6055958"><ele>394.79999999999995</ele><time>2026-04-18T11:06:25.28Z</time></trkpt><trkpt lat="43.4989339" lon="10.6057346"><ele>391.4</ele><time>2026-04-18T11:06:26.282Z</time></trkpt><trkpt lat="43.4989387" lon="10.6058658"><ele>388.0</ele><time>2026-04-18T11:06:27.284Z</time></trkpt><trkpt lat="43.4989357" lon="10.6059926"><ele>388.0</ele><time>2026-04-18T11:06:28.279Z</time></trkpt><trkpt lat="43.49894" lon="10.6061162"><ele>388.0</ele><time>2026-04-18T11:06:29.283Z</time></trkpt><trkpt lat="43.4989611" lon="10.6062371"><ele>388.0</ele><time>2026-04-18T11:06:30.284Z</time></trkpt><trkpt lat="43.4990043" lon="10.6063575"><ele>388.0</ele><time>2026-04-18T11:06:31.282Z</time></trkpt><trkpt lat="43.4990622" lon="10.6064643"><ele>388.0</ele><time>2026-04-18T11:06:32.281Z</time></trkpt><trkpt lat="43.499126" lon="10.6065615"><ele>387.83333333333337</ele><time>2026-04-18T11:06:33.28Z</time></trkpt><trkpt lat="43.499179" lon="10.6066545"><ele>387.6666666666667</ele><time>2026-04-18T11:06:34.288Z</time></trkpt><trkpt lat="43.4992136" lon="10.6067607"><ele>387.5</ele><time>2026-04-18T11:06:35.286Z</time></trkpt><trkpt lat="43.4992253" lon="10.6068836"><ele>387.33333333333337</ele><time>2026-04-18T11:06:36.284Z</time></trkpt><trkpt lat="43.4992154" lon="10.6070109"><ele>387.1666666666667</ele><time>2026-04-18T11:06:37.286Z</time></trkpt><trkpt lat="43.4991953" lon="10.6071253"><ele>387.0</ele><time>2026-04-18T11:06:38.281Z</time></trkpt><trkpt lat="43.4991785" lon="10.6072272"><ele>386.3333333333333</ele><time>2026-04-18T11:06:39.286Z</time></trkpt><trkpt lat="43.499179" lon="10.6073277"><ele>385.6666666666667</ele><time>2026-04-18T11:06:40.285Z</time></trkpt><trkpt lat="43.4992032" lon="10.6074174"><ele>385.0</ele><time>2026-04-18T11:06:41.282Z</time></trkpt><trkpt lat="43.4992482" lon="10.6074864"><ele>384.33333333333337</ele><time>2026-04-18T11:06:42.282Z</time></trkpt><trkpt lat="43.4993124" lon="10.6075333"><ele>383.6666666666667</ele><time>2026-04-18T11:06:43.286Z</time></trkpt><trkpt lat="43.4993824" lon="10.6075671"><ele>383.0</ele><time>2026-04-18T11:06:44.287Z</time></trkpt><trkpt lat="43.499469" lon="10.6076192"><ele>383.0</ele><time>2026-04-18T11:06:45.282Z</time></trkpt><trkpt lat="43.4995557" lon="10.6076702"><ele>383.0</ele><time>2026-04-18T11:06:46.285Z</time></trkpt><trkpt lat="43.4996421" lon="10.6077356"><ele>383.0</ele><time>2026-04-18T11:06:47.284Z</time></trkpt><trkpt lat="43.4997159" lon="10.6078233"><ele>383.0</ele><time>2026-04-18T11:06:48.288Z</time></trkpt><trkpt lat="43.4997977" lon="10.6079246"><ele>383.0</ele><time>2026-04-18T11:06:49.287Z</time></trkpt><trkpt lat="43.4998703" lon="10.6080286"><ele>380.59999999999997</ele><time>2026-04-18T11:06:50.286Z</time></trkpt><trkpt lat="43.4999437" lon="10.6081416"><ele>378.2</ele><time>2026-04-18T11:06:51.283Z</time></trkpt><trkpt lat="43.5000148" lon="10.6082654"><ele>375.8</ele><time>2026-04-18T11:06:52.286Z</time></trkpt><trkpt lat="43.5000789" lon="10.6083867"><ele>373.4</ele><time>2026-04-18T11:06:53.288Z</time></trkpt><trkpt lat="43.500138" lon="10.6085115"><ele>371.0</ele><time>2026-04-18T11:06:54.28Z</time></trkpt><trkpt lat="43.5001867" lon="10.608638"><ele>372.8</ele><time>2026-04-18T11:06:55.28Z</time></trkpt><trkpt lat="43.5002324" lon="10.608754"><ele>374.6</ele><time>2026-04-18T11:06:56.281Z</time></trkpt><trkpt lat="43.5002899" lon="10.6088631"><ele>376.4</ele><time>2026-04-18T11:06:57.282Z</time></trkpt><trkpt lat="43.5003615" lon="10.6089554"><ele>378.2</ele><time>2026-04-18T11:06:58.284Z</time></trkpt><trkpt lat="43.5004389" lon="10.6090391"><ele>380.0</ele><time>2026-04-18T11:06:59.286Z</time></trkpt><trkpt lat="43.5005126" lon="10.6091104"><ele>378.1666666666667</ele><time>2026-04-18T11:07:00.282Z</time></trkpt><trkpt lat="43.5005821" lon="10.6091933"><ele>376.33333333333337</ele><time>2026-04-18T11:07:01.289Z</time></trkpt><trkpt lat="43.5006361" lon="10.609294"><ele>374.5</ele><time>2026-04-18T11:07:02.286Z</time></trkpt><trkpt lat="43.5006865" lon="10.6093986"><ele>372.6666666666667</ele><time>2026-04-18T11:07:03.281Z</time></trkpt><trkpt lat="43.5007518" lon="10.6094805"><ele>370.8333333333333</ele><time>2026-04-18T11:07:04.281Z</time></trkpt><trkpt lat="43.5008262" lon="10.6095312"><ele>369.0</ele><time>2026-04-18T11:07:05.286Z</time></trkpt><trkpt lat="43.5009073" lon="10.6095528"><ele>369.0</ele><time>2026-04-18T11:07:06.284Z</time></trkpt><trkpt lat="43.5009951" lon="10.6095456"><ele>369.0</ele><time>2026-04-18T11:07:07.281Z</time></trkpt><trkpt lat="43.5010853" lon="10.609514"><ele>369.0</ele><time>2026-04-18T11:07:08.282Z</time></trkpt><trkpt lat="43.5011826" lon="10.6094766"><ele>369.0</ele><time>2026-04-18T11:07:09.283Z</time></trkpt><trkpt lat="43.5012638" lon="10.6094532"><ele>369.0</ele><time>2026-04-18T11:07:10.282Z</time></trkpt><trkpt lat="43.5013466" lon="10.6094551"><ele>369.0</ele><time>2026-04-18T11:07:11.283Z</time></trkpt><trkpt lat="43.5014218" lon="10.6094967"><ele>366.1666666666667</ele><time>2026-04-18T11:07:12.282Z</time></trkpt><trkpt lat="43.5014933" lon="10.609565"><ele>363.3333333333333</ele><time>2026-04-18T11:07:13.283Z</time></trkpt><trkpt lat="43.5015585" lon="10.6096334"><ele>360.5</ele><time>2026-04-18T11:07:14.279Z</time></trkpt><trkpt lat="43.5016266" lon="10.6096772"><ele>357.66666666666663</ele><time>2026-04-18T11:07:15.281Z</time></trkpt><trkpt lat="43.5017032" lon="10.6096995"><ele>354.8333333333333</ele><time>2026-04-18T11:07:16.285Z</time></trkpt><trkpt lat="43.5017855" lon="10.6097021"><ele>352.0</ele><time>2026-04-18T11:07:17.281Z</time></trkpt><trkpt lat="43.5018682" lon="10.6096865"><ele>352.0</ele><time>2026-04-18T11:07:18.283Z</time></trkpt><trkpt lat="43.5019609" lon="10.6096577"><ele>352.0</ele><time>2026-04-18T11:07:19.283Z</time></trkpt><trkpt lat="43.5020646" lon="10.6096154"><ele>352.0</ele><time>2026-04-18T11:07:20.282Z</time></trkpt><trkpt lat="43.5021601" lon="10.609562"><ele>352.0</ele><time>2026-04-18T11:07:21.284Z</time></trkpt><trkpt lat="43.5022533" lon="10.609493"><ele>352.0</ele><time>2026-04-18T11:07:22.281Z</time></trkpt><trkpt lat="43.502339" lon="10.6094357"><ele>348.20000000000005</ele><time>2026-04-18T11:07:23.278Z</time></trkpt><trkpt lat="43.5024243" lon="10.6093856"><ele>344.4</ele><time>2026-04-18T11:07:24.284Z</time></trkpt><trkpt lat="43.5025136" lon="10.6093523"><ele>340.6</ele><time>2026-04-18T11:07:25.285Z</time></trkpt><trkpt lat="43.5026058" lon="10.6093441"><ele>336.79999999999995</ele><time>2026-04-18T11:07:26.292Z</time></trkpt><trkpt lat="43.5026933" lon="10.6093682"><ele>333.0</ele><time>2026-04-18T11:07:27.28Z</time></trkpt><trkpt lat="43.5027771" lon="10.6094197"><ele>333.0</ele><time>2026-04-18T11:07:28.284Z</time></trkpt><trkpt lat="43.5028557" lon="10.6094914"><ele>333.0</ele><time>2026-04-18T11:07:29.285Z</time></trkpt><trkpt lat="43.5029162" lon="10.6095862"><ele>333.0</ele><time>2026-04-18T11:07:30.289Z</time></trkpt><trkpt lat="43.5029565" lon="10.6096953"><ele>333.0</ele><time>2026-04-18T11:07:31.286Z</time></trkpt><trkpt lat="43.5029727" lon="10.6098125"><ele>333.0</ele><time>2026-04-18T11:07:32.275Z</time></trkpt><trkpt lat="43.5029753" lon="10.6099379"><ele>331.3333333333333</ele><time>2026-04-18T11:07:33.28Z</time></trkpt><trkpt lat="43.5029768" lon="10.6100576"><ele>329.6666666666667</ele><time>2026-04-18T11:07:34.403Z</time></trkpt><trkpt lat="43.5029866" lon="10.6101708"><ele>328.0</ele><time>2026-04-18T11:07:35.413Z</time></trkpt><trkpt lat="43.5030091" lon="10.6102821"><ele>326.33333333333337</ele><time>2026-04-18T11:07:36.366Z</time></trkpt><trkpt lat="43.5030431" lon="10.6103947"><ele>324.6666666666667</ele><time>2026-04-18T11:07:37.429Z</time></trkpt><trkpt lat="43.5030797" lon="10.610503"><ele>323.0</ele><time>2026-04-18T11:07:38.422Z</time></trkpt><trkpt lat="43.5031407" lon="10.6107293"><ele>323.0</ele><time>2026-04-18T11:07:40.414Z</time></trkpt><trkpt lat="43.5031424" lon="10.6108401"><ele>323.0</ele><time>2026-04-18T11:07:41.419Z</time></trkpt><trkpt lat="43.5031018" lon="10.6109432"><ele>323.0</ele><time>2026-04-18T11:07:42.379Z</time></trkpt><trkpt lat="43.5030466" lon="10.6110463"><ele>323.0</ele><time>2026-04-18T11:07:43.412Z</time></trkpt><trkpt lat="43.5029206" lon="10.6112363"><ele>323.0</ele><time>2026-04-18T11:07:45.285Z</time></trkpt><trkpt lat="43.5028702" lon="10.6113231"><ele>324.0</ele><time>2026-04-18T11:07:46.41Z</time></trkpt><trkpt lat="43.5028369" lon="10.611407"><ele>325.0</ele><time>2026-04-18T11:07:47.423Z</time></trkpt><trkpt lat="43.5028534" lon="10.6115461"><ele>326.0</ele><time>2026-04-18T11:07:49.412Z</time></trkpt><trkpt lat="43.5029334" lon="10.6116142"><ele>327.0</ele><time>2026-04-18T11:07:51.417Z</time></trkpt><trkpt lat="43.5031279" lon="10.6114754"><ele>327.0</ele><time>2026-04-18T11:07:54.426Z</time></trkpt><trkpt lat="43.5031943" lon="10.6114201"><ele>327.0</ele><time>2026-04-18T11:07:55.413Z</time></trkpt><trkpt lat="43.5032757" lon="10.6113912"><ele>327.0</ele><time>2026-04-18T11:07:56.416Z</time></trkpt><trkpt lat="43.5033682" lon="10.6113883"><ele>327.0</ele><time>2026-04-18T11:07:57.421Z</time></trkpt><trkpt lat="43.5035711" lon="10.611435"><ele>327.0</ele><time>2026-04-18T11:07:59.411Z</time></trkpt><trkpt lat="43.5036784" lon="10.6114819"><ele>327.0</ele><time>2026-04-18T11:08:00.336Z</time></trkpt><trkpt lat="43.5037893" lon="10.6115426"><ele>327.0</ele><time>2026-04-18T11:08:01.282Z</time></trkpt><trkpt lat="43.5038968" lon="10.6116255"><ele>327.0</ele><time>2026-04-18T11:08:02.282Z</time></trkpt><trkpt lat="43.5040005" lon="10.6117266"><ele>328.75</ele><time>2026-04-18T11:08:03.282Z</time></trkpt><trkpt lat="43.5041009" lon="10.6118363"><ele>330.5</ele><time>2026-04-18T11:08:04.282Z</time></trkpt><trkpt lat="43.5042005" lon="10.6119468"><ele>332.25</ele><time>2026-04-18T11:08:05.287Z</time></trkpt><trkpt lat="43.5042997" lon="10.6120519"><ele>334.0</ele><time>2026-04-18T11:08:06.283Z</time></trkpt><trkpt lat="43.5044007" lon="10.6121461"><ele>334.0</ele><time>2026-04-18T11:08:07.282Z</time></trkpt><trkpt lat="43.5044939" lon="10.6122157"><ele>334.0</ele><time>2026-04-18T11:08:08.288Z</time></trkpt><trkpt lat="43.5045814" lon="10.612251"><ele>334.0</ele><time>2026-04-18T11:08:09.415Z</time></trkpt><trkpt lat="43.5047514" lon="10.6122765"><ele>334.0</ele><time>2026-04-18T11:08:11.417Z</time></trkpt><trkpt lat="43.5048462" lon="10.6122828"><ele>331.0</ele><time>2026-04-18T11:08:12.419Z</time></trkpt><trkpt lat="43.5050331" lon="10.6123053"><ele>328.0</ele><time>2026-04-18T11:08:14.409Z</time></trkpt><trkpt lat="43.5051224" lon="10.6123347"><ele>325.0</ele><time>2026-04-18T11:08:15.404Z</time></trkpt><trkpt lat="43.5052002" lon="10.6123895"><ele>322.0</ele><time>2026-04-18T11:08:16.428Z</time></trkpt><trkpt lat="43.505269" lon="10.6124757"><ele>322.0</ele><time>2026-04-18T11:08:17.417Z</time></trkpt><trkpt lat="43.5053452" lon="10.6125895"><ele>322.0</ele><time>2026-04-18T11:08:18.414Z</time></trkpt><trkpt lat="43.5054252" lon="10.6127061"><ele>322.0</ele><time>2026-04-18T11:08:19.418Z</time></trkpt><trkpt lat="43.5054988" lon="10.6128073"><ele>322.0</ele><time>2026-04-18T11:08:20.425Z</time></trkpt><trkpt lat="43.5055706" lon="10.6129016"><ele>322.0</ele><time>2026-04-18T11:08:21.422Z</time></trkpt><trkpt lat="43.5056355" lon="10.6130013"><ele>322.75</ele><time>2026-04-18T11:08:22.413Z</time></trkpt><trkpt lat="43.5056785" lon="10.6131142"><ele>323.5</ele><time>2026-04-18T11:08:23.408Z</time></trkpt><trkpt lat="43.5057166" lon="10.6132337"><ele>324.25</ele><time>2026-04-18T11:08:24.404Z</time></trkpt><trkpt lat="43.5057877" lon="10.6134712"><ele>325.0</ele><time>2026-04-18T11:08:26.419Z</time></trkpt><trkpt lat="43.5058141" lon="10.6135961"><ele>326.0</ele><time>2026-04-18T11:08:27.407Z</time></trkpt><trkpt lat="43.5058321" lon="10.6137215"><ele>327.0</ele><time>2026-04-18T11:08:28.382Z</time></trkpt><trkpt lat="43.5058487" lon="10.6138479"><ele>328.0</ele><time>2026-04-18T11:08:29.42Z</time></trkpt><trkpt lat="43.5058776" lon="10.613973"><ele>329.0</ele><time>2026-04-18T11:08:30.403Z</time></trkpt><trkpt lat="43.5058964" lon="10.6140983"><ele>330.0</ele><time>2026-04-18T11:08:31.409Z</time></trkpt><trkpt lat="43.5059069" lon="10.6142015"><ele>331.0</ele><time>2026-04-18T11:08:32.381Z</time></trkpt><trkpt lat="43.5059229" lon="10.614312"><ele>331.0</ele><time>2026-04-18T11:08:33.419Z</time></trkpt><trkpt lat="43.5059427" lon="10.6144388"><ele>331.0</ele><time>2026-04-18T11:08:34.394Z</time></trkpt><trkpt lat="43.5059691" lon="10.6145445"><ele>331.0</ele><time>2026-04-18T11:08:35.414Z</time></trkpt><trkpt lat="43.5060299" lon="10.6147407"><ele>331.0</ele><time>2026-04-18T11:08:37.273Z</time></trkpt><trkpt lat="43.5060765" lon="10.6148545"><ele>331.0</ele><time>2026-04-18T11:08:38.285Z</time></trkpt><trkpt lat="43.5061273" lon="10.6149597"><ele>331.20000000000005</ele><time>2026-04-18T11:08:39.288Z</time></trkpt><trkpt lat="43.5061819" lon="10.6150594"><ele>331.40000000000003</ele><time>2026-04-18T11:08:40.279Z</time></trkpt><trkpt lat="43.506247" lon="10.6151762"><ele>331.6</ele><time>2026-04-18T11:08:41.294Z</time></trkpt><trkpt lat="43.50631" lon="10.6152942"><ele>331.8</ele><time>2026-04-18T11:08:42.272Z</time></trkpt><trkpt lat="43.5063662" lon="10.6154117"><ele>332.0</ele><time>2026-04-18T11:08:43.288Z</time></trkpt><trkpt lat="43.5064224" lon="10.6155321"><ele>330.5</ele><time>2026-04-18T11:08:44.274Z</time></trkpt><trkpt lat="43.5064833" lon="10.6156406"><ele>329.0</ele><time>2026-04-18T11:08:45.281Z</time></trkpt><trkpt lat="43.5065456" lon="10.6157352"><ele>327.5</ele><time>2026-04-18T11:08:46.283Z</time></trkpt><trkpt lat="43.5066074" lon="10.6158191"><ele>326.0</ele><time>2026-04-18T11:08:47.276Z</time></trkpt><trkpt lat="43.5066667" lon="10.6159003"><ele>324.5</ele><time>2026-04-18T11:08:48.278Z</time></trkpt><trkpt lat="43.5067249" lon="10.6159694"><ele>323.0</ele><time>2026-04-18T11:08:49.285Z</time></trkpt><trkpt lat="43.5067938" lon="10.6160079"><ele>323.0</ele><time>2026-04-18T11:08:50.282Z</time></trkpt><trkpt lat="43.5068734" lon="10.616022"><ele>323.0</ele><time>2026-04-18T11:08:51.284Z</time></trkpt><trkpt lat="43.5069708" lon="10.6160141"><ele>323.0</ele><time>2026-04-18T11:08:52.283Z</time></trkpt><trkpt lat="43.5070821" lon="10.6160003"><ele>323.0</ele><time>2026-04-18T11:08:53.283Z</time></trkpt><trkpt lat="43.5071928" lon="10.6159814"><ele>323.0</ele><time>2026-04-18T11:08:54.381Z</time></trkpt><trkpt lat="43.5072921" lon="10.6159685"><ele>321.59999999999997</ele><time>2026-04-18T11:08:55.281Z</time></trkpt><trkpt lat="43.5073907" lon="10.6159474"><ele>320.2</ele><time>2026-04-18T11:08:56.282Z</time></trkpt><trkpt lat="43.5074919" lon="10.6159098"><ele>318.8</ele><time>2026-04-18T11:08:57.283Z</time></trkpt><trkpt lat="43.5075914" lon="10.6158506"><ele>317.4</ele><time>2026-04-18T11:08:58.276Z</time></trkpt><trkpt lat="43.507691" lon="10.615789"><ele>316.0</ele><time>2026-04-18T11:08:59.28Z</time></trkpt><trkpt lat="43.5077912" lon="10.6157255"><ele>316.0</ele><time>2026-04-18T11:09:00.286Z</time></trkpt><trkpt lat="43.5078862" lon="10.6156737"><ele>316.0</ele><time>2026-04-18T11:09:01.284Z</time></trkpt><trkpt lat="43.5080857" lon="10.6156042"><ele>316.0</ele><time>2026-04-18T11:09:03.28Z</time></trkpt><trkpt lat="43.5081803" lon="10.6155696"><ele>316.0</ele><time>2026-04-18T11:09:04.414Z</time></trkpt><trkpt lat="43.5082669" lon="10.6155219"><ele>315.8333333333333</ele><time>2026-04-18T11:09:05.413Z</time></trkpt><trkpt lat="43.5083423" lon="10.6154669"><ele>315.66666666666663</ele><time>2026-04-18T11:09:06.422Z</time></trkpt><trkpt lat="43.5084114" lon="10.6154035"><ele>315.5</ele><time>2026-04-18T11:09:07.412Z</time></trkpt><trkpt lat="43.5084742" lon="10.6153213"><ele>315.3333333333333</ele><time>2026-04-18T11:09:08.416Z</time></trkpt><trkpt lat="43.5085198" lon="10.6152436"><ele>315.1666666666667</ele><time>2026-04-18T11:09:09.392Z</time></trkpt><trkpt lat="43.5085637" lon="10.6151798"><ele>315.0</ele><time>2026-04-18T11:09:10.406Z</time></trkpt><trkpt lat="43.5086735" lon="10.6151384"><ele>315.0</ele><time>2026-04-18T11:09:12.412Z</time></trkpt><trkpt lat="43.5087321" lon="10.6151722"><ele>315.0</ele><time>2026-04-18T11:09:13.393Z</time></trkpt><trkpt lat="43.508782" lon="10.6152415"><ele>315.0</ele><time>2026-04-18T11:09:14.418Z</time></trkpt><trkpt lat="43.5088235" lon="10.6153438"><ele>315.0</ele><time>2026-04-18T11:09:15.382Z</time></trkpt><trkpt lat="43.5088605" lon="10.6154635"><ele>315.0</ele><time>2026-04-18T11:09:16.416Z</time></trkpt><trkpt lat="43.508888" lon="10.6155853"><ele>315.0</ele><time>2026-04-18T11:09:17.392Z</time></trkpt><trkpt lat="43.5089364" lon="10.6158271"><ele>310.8</ele><time>2026-04-18T11:09:19.423Z</time></trkpt><trkpt lat="43.5089677" lon="10.6159266"><ele>306.6</ele><time>2026-04-18T11:09:20.435Z</time></trkpt><trkpt lat="43.508995" lon="10.6160051"><ele>302.4</ele><time>2026-04-18T11:09:21.431Z</time></trkpt><trkpt lat="43.5090391" lon="10.6161332"><ele>298.2</ele><time>2026-04-18T11:09:23.281Z</time></trkpt><trkpt lat="43.5090413" lon="10.6162542"><ele>294.0</ele><time>2026-04-18T11:09:25.412Z</time></trkpt><trkpt lat="43.5089571" lon="10.6163667"><ele>293.59999999999997</ele><time>2026-04-18T11:09:27.419Z</time></trkpt><trkpt lat="43.5088945" lon="10.6164283"><ele>293.2</ele><time>2026-04-18T11:09:28.415Z</time></trkpt><trkpt lat="43.5088294" lon="10.6164987"><ele>292.79999999999995</ele><time>2026-04-18T11:09:29.417Z</time></trkpt><trkpt lat="43.508694" lon="10.616659"><ele>292.4</ele><time>2026-04-18T11:09:31.288Z</time></trkpt><trkpt lat="43.5086257" lon="10.6167421"><ele>292.0</ele><time>2026-04-18T11:09:32.35Z</time></trkpt><trkpt lat="43.5085529" lon="10.6168296"><ele>291.25</ele><time>2026-04-18T11:09:33.368Z</time></trkpt><trkpt lat="43.5084799" lon="10.6169202"><ele>290.5</ele><time>2026-04-18T11:09:34.284Z</time></trkpt><trkpt lat="43.508417" lon="10.6170105"><ele>289.75</ele><time>2026-04-18T11:09:35.323Z</time></trkpt><trkpt lat="43.5083604" lon="10.6171003"><ele>289.0</ele><time>2026-04-18T11:09:36.411Z</time></trkpt><trkpt lat="43.508266" lon="10.6173086"><ele>289.0</ele><time>2026-04-18T11:09:38.284Z</time></trkpt><trkpt lat="43.5082186" lon="10.6174296"><ele>289.0</ele><time>2026-04-18T11:09:39.42Z</time></trkpt><trkpt lat="43.5081758" lon="10.6175493"><ele>289.0</ele><time>2026-04-18T11:09:40.415Z</time></trkpt><trkpt lat="43.5081338" lon="10.61767"><ele>289.0</ele><time>2026-04-18T11:09:41.409Z</time></trkpt><trkpt lat="43.5080867" lon="10.617789"><ele>289.0</ele><time>2026-04-18T11:09:42.387Z</time></trkpt><trkpt lat="43.5080428" lon="10.6179009"><ele>288.2</ele><time>2026-04-18T11:09:43.408Z</time></trkpt><trkpt lat="43.508006" lon="10.6179987"><ele>287.4</ele><time>2026-04-18T11:09:44.416Z</time></trkpt><trkpt lat="43.5079689" lon="10.6180901"><ele>286.6</ele><time>2026-04-18T11:09:45.414Z</time></trkpt><trkpt lat="43.5079308" lon="10.6181799"><ele>285.8</ele><time>2026-04-18T11:09:46.42Z</time></trkpt><trkpt lat="43.5078312" lon="10.6183563"><ele>285.0</ele><time>2026-04-18T11:09:48.276Z</time></trkpt><trkpt lat="43.5077686" lon="10.6184431"><ele>285.0</ele><time>2026-04-18T11:09:49.417Z</time></trkpt><trkpt lat="43.5077013" lon="10.6185204"><ele>285.0</ele><time>2026-04-18T11:09:50.361Z</time></trkpt><trkpt lat="43.5076295" lon="10.6185933"><ele>285.0</ele><time>2026-04-18T11:09:51.284Z</time></trkpt><trkpt lat="43.5075435" lon="10.6186555"><ele>285.0</ele><time>2026-04-18T11:09:52.403Z</time></trkpt><trkpt lat="43.5074483" lon="10.6187022"><ele>285.0</ele><time>2026-04-18T11:09:53.416Z</time></trkpt><trkpt lat="43.5072622" lon="10.6187819"><ele>285.6666666666667</ele><time>2026-04-18T11:09:55.415Z</time></trkpt><trkpt lat="43.5071823" lon="10.6188355"><ele>286.3333333333333</ele><time>2026-04-18T11:09:56.416Z</time></trkpt><trkpt lat="43.5071101" lon="10.6188992"><ele>287.0</ele><time>2026-04-18T11:09:57.425Z</time></trkpt><trkpt lat="43.5070431" lon="10.6189703"><ele>287.66666666666663</ele><time>2026-04-18T11:09:58.412Z</time></trkpt><trkpt lat="43.5069867" lon="10.6190448"><ele>288.3333333333333</ele><time>2026-04-18T11:09:59.419Z</time></trkpt><trkpt lat="43.506934" lon="10.6191139"><ele>289.0</ele><time>2026-04-18T11:10:00.433Z</time></trkpt><trkpt lat="43.5068775" lon="10.6191661"><ele>289.0</ele><time>2026-04-18T11:10:01.41Z</time></trkpt><trkpt lat="43.5068101" lon="10.6192064"><ele>289.0</ele><time>2026-04-18T11:10:02.413Z</time></trkpt><trkpt lat="43.506736" lon="10.6192438"><ele>289.0</ele><time>2026-04-18T11:10:03.418Z</time></trkpt><trkpt lat="43.5066617" lon="10.6192771"><ele>289.0</ele><time>2026-04-18T11:10:04.385Z</time></trkpt><trkpt lat="43.5065834" lon="10.6192982"><ele>289.0</ele><time>2026-04-18T11:10:05.416Z</time></trkpt><trkpt lat="43.5064126" lon="10.6192947"><ele>289.0</ele><time>2026-04-18T11:10:07.281Z</time></trkpt><trkpt lat="43.5063237" lon="10.6192956"><ele>289.0</ele><time>2026-04-18T11:10:08.412Z</time></trkpt><trkpt lat="43.5062408" lon="10.6193105"><ele>289.0</ele><time>2026-04-18T11:10:09.401Z</time></trkpt><trkpt lat="43.5061604" lon="10.6193378"><ele>289.0</ele><time>2026-04-18T11:10:10.4Z</time></trkpt><trkpt lat="43.5060802" lon="10.6193651"><ele>289.0</ele><time>2026-04-18T11:10:11.411Z</time></trkpt><trkpt lat="43.5059974" lon="10.6193938"><ele>289.0</ele><time>2026-04-18T11:10:12.397Z</time></trkpt><trkpt lat="43.5058604" lon="10.6194446"><ele>290.8333333333333</ele><time>2026-04-18T11:10:14.282Z</time></trkpt><trkpt lat="43.5057378" lon="10.619461"><ele>292.66666666666663</ele><time>2026-04-18T11:10:16.287Z</time></trkpt><trkpt lat="43.5056573" lon="10.6194463"><ele>294.5</ele><time>2026-04-18T11:10:17.281Z</time></trkpt><trkpt lat="43.5055807" lon="10.6194244"><ele>296.3333333333333</ele><time>2026-04-18T11:10:18.284Z</time></trkpt><trkpt lat="43.5055085" lon="10.6193977"><ele>298.1666666666667</ele><time>2026-04-18T11:10:19.282Z</time></trkpt><trkpt lat="43.5054458" lon="10.6193699"><ele>300.0</ele><time>2026-04-18T11:10:20.373Z</time></trkpt><trkpt lat="43.5053799" lon="10.6193498"><ele>301.8</ele><time>2026-04-18T11:10:21.399Z</time></trkpt><trkpt lat="43.5052656" lon="10.619336"><ele>303.6</ele><time>2026-04-18T11:10:23.388Z</time></trkpt><trkpt lat="43.5051743" lon="10.6194044"><ele>305.4</ele><time>2026-04-18T11:10:25.391Z</time></trkpt><trkpt lat="43.5051076" lon="10.6195486"><ele>307.2</ele><time>2026-04-18T11:10:27.355Z</time></trkpt><trkpt lat="43.5050845" lon="10.6196355"><ele>309.0</ele><time>2026-04-18T11:10:28.372Z</time></trkpt><trkpt lat="43.5050363" lon="10.6197786"><ele>309.0</ele><time>2026-04-18T11:10:30.284Z</time></trkpt><trkpt lat="43.5049705" lon="10.6198815"><ele>309.0</ele><time>2026-04-18T11:10:32.398Z</time></trkpt><trkpt lat="43.5048774" lon="10.6199748"><ele>309.0</ele><time>2026-04-18T11:10:34.379Z</time></trkpt><trkpt lat="43.5047898" lon="10.6200637"><ele>309.0</ele><time>2026-04-18T11:10:36.402Z</time></trkpt><trkpt lat="43.5047203" lon="10.620129"><ele>309.0</ele><time>2026-04-18T11:10:38.394Z</time></trkpt><trkpt lat="43.5046447" lon="10.6201588"><ele>309.5</ele><time>2026-04-18T11:10:40.397Z</time></trkpt><trkpt lat="43.5045357" lon="10.6200795"><ele>310.0</ele><time>2026-04-18T11:10:43.279Z</time></trkpt><trkpt lat="43.5044737" lon="10.6199244"><ele>310.5</ele><time>2026-04-18T11:10:45.387Z</time></trkpt><trkpt lat="43.5044079" lon="10.6197207"><ele>311.0</ele><time>2026-04-18T11:10:47.285Z</time></trkpt><trkpt lat="43.504375" lon="10.6196171"><ele>311.0</ele><time>2026-04-18T11:10:48.283Z</time></trkpt><trkpt lat="43.5043493" lon="10.6195221"><ele>311.0</ele><time>2026-04-18T11:10:49.285Z</time></trkpt><trkpt lat="43.5043183" lon="10.6194337"><ele>311.0</ele><time>2026-04-18T11:10:50.357Z</time></trkpt><trkpt lat="43.5042786" lon="10.61936"><ele>311.0</ele><time>2026-04-18T11:10:51.286Z</time></trkpt><trkpt lat="43.5042283" lon="10.6193037"><ele>311.0</ele><time>2026-04-18T11:10:52.288Z</time></trkpt><trkpt lat="43.5041711" lon="10.6192538"><ele>311.0</ele><time>2026-04-18T11:10:53.286Z</time></trkpt><trkpt lat="43.5041107" lon="10.6192106"><ele>311.0</ele><time>2026-04-18T11:10:54.374Z</time></trkpt><trkpt lat="43.5040473" lon="10.6191781"><ele>312.5</ele><time>2026-04-18T11:10:55.405Z</time></trkpt><trkpt lat="43.503977" lon="10.6191358"><ele>314.0</ele><time>2026-04-18T11:10:56.405Z</time></trkpt><trkpt lat="43.5038996" lon="10.6190888"><ele>315.5</ele><time>2026-04-18T11:10:57.403Z</time></trkpt><trkpt lat="43.5038233" lon="10.6190548"><ele>317.0</ele><time>2026-04-18T11:10:58.383Z</time></trkpt><trkpt lat="43.5037556" lon="10.6190421"><ele>318.5</ele><time>2026-04-18T11:10:59.403Z</time></trkpt><trkpt lat="43.5036827" lon="10.6190451"><ele>320.0</ele><time>2026-04-18T11:11:00.385Z</time></trkpt><trkpt lat="43.503547" lon="10.6191017"><ele>320.0</ele><time>2026-04-18T11:11:02.4Z</time></trkpt><trkpt lat="43.5034636" lon="10.6191184"><ele>320.0</ele><time>2026-04-18T11:11:04.372Z</time></trkpt><trkpt lat="43.5033822" lon="10.6190723"><ele>320.0</ele><time>2026-04-18T11:11:06.404Z</time></trkpt><trkpt lat="43.5032666" lon="10.6189979"><ele>320.0</ele><time>2026-04-18T11:11:08.402Z</time></trkpt><trkpt lat="43.5032045" lon="10.6189657"><ele>320.0</ele><time>2026-04-18T11:11:09.371Z</time></trkpt><trkpt lat="43.5031415" lon="10.6189445"><ele>320.0</ele><time>2026-04-18T11:11:10.4Z</time></trkpt><trkpt lat="43.5030763" lon="10.6189273"><ele>320.0</ele><time>2026-04-18T11:11:11.378Z</time></trkpt><trkpt lat="43.5030129" lon="10.6189144"><ele>320.0</ele><time>2026-04-18T11:11:12.281Z</time></trkpt><trkpt lat="43.5029071" lon="10.6188889"><ele>320.0</ele><time>2026-04-18T11:11:14.387Z</time></trkpt><trkpt lat="43.5028129" lon="10.6188813"><ele>320.0</ele><time>2026-04-18T11:11:16.38Z</time></trkpt><trkpt lat="43.5027386" lon="10.6188896"><ele>320.0</ele><time>2026-04-18T11:11:18.286Z</time></trkpt><trkpt lat="43.5026783" lon="10.6189185"><ele>320.0</ele><time>2026-04-18T11:11:21.285Z</time></trkpt><trkpt lat="43.5027456" lon="10.6188616"><ele>320.0</ele><time>2026-04-18T11:11:39.283Z</time></trkpt><trkpt lat="43.5028489" lon="10.6188994"><ele>320.0</ele><time>2026-04-18T11:11:41.285Z</time></trkpt><trkpt lat="43.502961" lon="10.6189196"><ele>320.0</ele><time>2026-04-18T11:11:43.283Z</time></trkpt><trkpt lat="43.5030498" lon="10.6189453"><ele>320.0</ele><time>2026-04-18T11:11:45.289Z</time></trkpt><trkpt lat="43.5031183" lon="10.6189463"><ele>320.0</ele><time>2026-04-18T11:11:59.276Z</time></trkpt><trkpt lat="43.5031899" lon="10.6189375"><ele>320.0</ele><time>2026-04-18T11:12:01.285Z</time></trkpt><trkpt lat="43.5032917" lon="10.6189728"><ele>320.0</ele><time>2026-04-18T11:12:03.403Z</time></trkpt><trkpt lat="43.5033767" lon="10.6190323"><ele>320.0</ele><time>2026-04-18T11:12:05.287Z</time></trkpt><trkpt lat="43.5034484" lon="10.6190862"><ele>320.0</ele><time>2026-04-18T11:12:07.284Z</time></trkpt><trkpt lat="43.5035305" lon="10.6191015"><ele>320.0</ele><time>2026-04-18T11:12:09.28Z</time></trkpt><trkpt lat="43.5036355" lon="10.6190614"><ele>320.0</ele><time>2026-04-18T11:12:11.288Z</time></trkpt><trkpt lat="43.5037014" lon="10.6190385"><ele>320.0</ele><time>2026-04-18T11:12:12.287Z</time></trkpt><trkpt lat="43.5037685" lon="10.6190278"><ele>320.0</ele><time>2026-04-18T11:12:13.289Z</time></trkpt><trkpt lat="43.5038363" lon="10.6190407"><ele>320.0</ele><time>2026-04-18T11:12:14.383Z</time></trkpt><trkpt lat="43.5039906" lon="10.6191239"><ele>320.0</ele><time>2026-04-18T11:12:16.286Z</time></trkpt><trkpt lat="43.5040774" lon="10.6191857"><ele>320.0</ele><time>2026-04-18T11:12:17.291Z</time></trkpt><trkpt lat="43.5041585" lon="10.6192403"><ele>320.0</ele><time>2026-04-18T11:12:18.288Z</time></trkpt><trkpt lat="43.5042295" lon="10.6193001"><ele>320.0</ele><time>2026-04-18T11:12:19.284Z</time></trkpt><trkpt lat="43.5042844" lon="10.6193711"><ele>320.0</ele><time>2026-04-18T11:12:20.288Z</time></trkpt><trkpt lat="43.5043312" lon="10.6194546"><ele>320.0</ele><time>2026-04-18T11:12:21.284Z</time></trkpt><trkpt lat="43.5043614" lon="10.6195503"><ele>320.0</ele><time>2026-04-18T11:12:22.287Z</time></trkpt><trkpt lat="43.5043851" lon="10.6196436"><ele>318.5</ele><time>2026-04-18T11:12:23.281Z</time></trkpt><trkpt lat="43.5044121" lon="10.6197346"><ele>317.0</ele><time>2026-04-18T11:12:24.285Z</time></trkpt><trkpt lat="43.5044451" lon="10.6198193"><ele>315.5</ele><time>2026-04-18T11:12:25.285Z</time></trkpt><trkpt lat="43.5044789" lon="10.619901"><ele>314.0</ele><time>2026-04-18T11:12:26.285Z</time></trkpt><trkpt lat="43.5045391" lon="10.6200438"><ele>312.5</ele><time>2026-04-18T11:12:28.285Z</time></trkpt><trkpt lat="43.5045966" lon="10.6201437"><ele>311.0</ele><time>2026-04-18T11:12:30.284Z</time></trkpt><trkpt lat="43.5046518" lon="10.6202008"><ele>311.0</ele><time>2026-04-18T11:12:33.283Z</time></trkpt><trkpt lat="43.5047175" lon="10.6202399"><ele>311.0</ele><time>2026-04-18T11:12:36.398Z</time></trkpt><trkpt lat="43.5048023" lon="10.6202817"><ele>311.0</ele><time>2026-04-18T11:12:40.283Z</time></trkpt><trkpt lat="43.5047434" lon="10.6203333"><ele>311.0</ele><time>2026-04-18T11:12:44.406Z</time></trkpt><trkpt lat="43.5046747" lon="10.6202741"><ele>311.0</ele><time>2026-04-18T11:12:46.279Z</time></trkpt><trkpt lat="43.5045893" lon="10.6202635"><ele>311.0</ele><time>2026-04-18T11:12:48.367Z</time></trkpt><trkpt lat="43.5045027" lon="10.620272"><ele>311.0</ele><time>2026-04-18T11:12:50.285Z</time></trkpt><trkpt lat="43.5044266" lon="10.620279"><ele>311.0</ele><time>2026-04-18T11:12:52.386Z</time></trkpt><trkpt lat="43.5043572" lon="10.6202833"><ele>311.0</ele><time>2026-04-18T11:16:03.284Z</time></trkpt><trkpt lat="43.50425" lon="10.620338"><ele>311.0</ele><time>2026-04-18T11:16:19.28Z</time></trkpt><trkpt lat="43.5041787" lon="10.6202858"><ele>311.0</ele><time>2026-04-18T11:16:21.28Z</time></trkpt><trkpt lat="43.5040972" lon="10.6202957"><ele>311.0</ele><time>2026-04-18T11:16:23.392Z</time></trkpt><trkpt lat="43.5040158" lon="10.620362"><ele>311.0</ele><time>2026-04-18T11:16:25.43Z</time></trkpt><trkpt lat="43.5039295" lon="10.620421"><ele>311.0</ele><time>2026-04-18T11:16:27.283Z</time></trkpt><trkpt lat="43.5038683" lon="10.6204712"><ele>311.0</ele><time>2026-04-18T11:16:31.281Z</time></trkpt><trkpt lat="43.5039375" lon="10.6205117"><ele>311.0</ele><time>2026-04-18T11:16:36.284Z</time></trkpt><trkpt lat="43.5040082" lon="10.6204242"><ele>311.0</ele><time>2026-04-18T11:16:39.284Z</time></trkpt><trkpt lat="43.5040508" lon="10.6203288"><ele>311.0</ele><time>2026-04-18T11:16:41.286Z</time></trkpt><trkpt lat="43.5041101" lon="10.6202601"><ele>311.0</ele><time>2026-04-18T11:16:43.285Z</time></trkpt><trkpt lat="43.5040465" lon="10.620222"><ele>311.0</ele><time>2026-04-18T11:16:47.283Z</time></trkpt><trkpt lat="43.5039355" lon="10.6203036"><ele>311.0</ele><time>2026-04-18T11:16:49.287Z</time></trkpt><trkpt lat="43.5038193" lon="10.6203417"><ele>311.0</ele><time>2026-04-18T11:16:51.275Z</time></trkpt><trkpt lat="43.5037278" lon="10.6203601"><ele>311.0</ele><time>2026-04-18T11:16:53.28Z</time></trkpt><trkpt lat="43.5036426" lon="10.6203891"><ele>307.83333333333337</ele><time>2026-04-18T11:16:55.275Z</time></trkpt><trkpt lat="43.5035346" lon="10.6204148"><ele>304.6666666666667</ele><time>2026-04-18T11:16:57.281Z</time></trkpt><trkpt lat="43.503471" lon="10.6204448"><ele>301.5</ele><time>2026-04-18T11:16:58.285Z</time></trkpt><trkpt lat="43.5033974" lon="10.6204659"><ele>298.3333333333333</ele><time>2026-04-18T11:16:59.277Z</time></trkpt><trkpt lat="43.5033126" lon="10.6204844"><ele>295.16666666666663</ele><time>2026-04-18T11:17:00.286Z</time></trkpt><trkpt lat="43.5032346" lon="10.6204969"><ele>292.0</ele><time>2026-04-18T11:17:01.284Z</time></trkpt><trkpt lat="43.5031096" lon="10.6205176"><ele>292.0</ele><time>2026-04-18T11:17:03.279Z</time></trkpt><trkpt lat="43.5030407" lon="10.620526"><ele>292.0</ele><time>2026-04-18T11:17:04.281Z</time></trkpt><trkpt lat="43.5029598" lon="10.6205311"><ele>292.0</ele><time>2026-04-18T11:17:06.284Z</time></trkpt><trkpt lat="43.5028881" lon="10.6205393"><ele>292.0</ele><time>2026-04-18T11:17:09.287Z</time></trkpt><trkpt lat="43.502804" lon="10.6205402"><ele>292.0</ele><time>2026-04-18T11:17:45.286Z</time></trkpt><trkpt lat="43.5027273" lon="10.6205955"><ele>292.0</ele><time>2026-04-18T11:17:48.285Z</time></trkpt><trkpt lat="43.5026899" lon="10.6207038"><ele>290.8</ele><time>2026-04-18T11:17:50.277Z</time></trkpt><trkpt lat="43.5026496" lon="10.6208316"><ele>289.6</ele><time>2026-04-18T11:17:52.28Z</time></trkpt><trkpt lat="43.5025717" lon="10.620928"><ele>288.40000000000003</ele><time>2026-04-18T11:17:54.275Z</time></trkpt><trkpt lat="43.5024749" lon="10.6209866"><ele>287.2</ele><time>2026-04-18T11:17:56.28Z</time></trkpt><trkpt lat="43.5023748" lon="10.6209896"><ele>286.0</ele><time>2026-04-18T11:17:58.281Z</time></trkpt><trkpt lat="43.502299" lon="10.6209065"><ele>286.0</ele><time>2026-04-18T11:18:00.28Z</time></trkpt><trkpt lat="43.5022713" lon="10.6208152"><ele>286.0</ele><time>2026-04-18T11:18:02.281Z</time></trkpt><trkpt lat="43.5022979" lon="10.6207237"><ele>286.0</ele><time>2026-04-18T11:18:04.284Z</time></trkpt><trkpt lat="43.5023062" lon="10.6206286"><ele>286.0</ele><time>2026-04-18T11:18:06.276Z</time></trkpt><trkpt lat="43.502261" lon="10.6205146"><ele>286.0</ele><time>2026-04-18T11:18:08.289Z</time></trkpt><trkpt lat="43.5022091" lon="10.6203632"><ele>286.0</ele><time>2026-04-18T11:18:10.28Z</time></trkpt><trkpt lat="43.5021791" lon="10.6202777"><ele>285.3333333333333</ele><time>2026-04-18T11:18:11.281Z</time></trkpt><trkpt lat="43.5021405" lon="10.6201833"><ele>284.66666666666663</ele><time>2026-04-18T11:18:12.28Z</time></trkpt><trkpt lat="43.5020911" lon="10.6200883"><ele>284.0</ele><time>2026-04-18T11:18:13.285Z</time></trkpt><trkpt lat="43.5020405" lon="10.6200057"><ele>283.3333333333333</ele><time>2026-04-18T11:18:14.281Z</time></trkpt><trkpt lat="43.5019885" lon="10.6199254"><ele>282.6666666666667</ele><time>2026-04-18T11:18:15.285Z</time></trkpt><trkpt lat="43.5019449" lon="10.6198602"><ele>282.0</ele><time>2026-04-18T11:18:16.274Z</time></trkpt><trkpt lat="43.5018581" lon="10.6197567"><ele>282.0</ele><time>2026-04-18T11:18:18.281Z</time></trkpt><trkpt lat="43.5017485" lon="10.6197014"><ele>282.0</ele><time>2026-04-18T11:18:20.286Z</time></trkpt><trkpt lat="43.5016851" lon="10.6196979"><ele>282.0</ele><time>2026-04-18T11:18:21.283Z</time></trkpt><trkpt lat="43.5015434" lon="10.619697"><ele>282.0</ele><time>2026-04-18T11:18:24.278Z</time></trkpt><trkpt lat="43.5015111" lon="10.6196028"><ele>282.0</ele><time>2026-04-18T11:18:28.282Z</time></trkpt><trkpt lat="43.501554" lon="10.6195157"><ele>282.0</ele><time>2026-04-18T11:18:30.279Z</time></trkpt><trkpt lat="43.5015443" lon="10.6194202"><ele>282.0</ele><time>2026-04-18T11:18:34.279Z</time></trkpt><trkpt lat="43.5014605" lon="10.6194254"><ele>282.0</ele><time>2026-04-18T11:18:37.28Z</time></trkpt><trkpt lat="43.5014054" lon="10.6195414"><ele>282.0</ele><time>2026-04-18T11:18:40.286Z</time></trkpt><trkpt lat="43.5013436" lon="10.6195618"><ele>282.0</ele><time>2026-04-18T11:18:43.285Z</time></trkpt><trkpt lat="43.5012859" lon="10.6194922"><ele>282.0</ele><time>2026-04-18T11:18:45.273Z</time></trkpt><trkpt lat="43.5012141" lon="10.6194369"><ele>282.1666666666667</ele><time>2026-04-18T11:18:47.278Z</time></trkpt><trkpt lat="43.5011334" lon="10.6193951"><ele>282.3333333333333</ele><time>2026-04-18T11:18:49.275Z</time></trkpt><trkpt lat="43.5010578" lon="10.6193793"><ele>282.5</ele><time>2026-04-18T11:18:51.278Z</time></trkpt><trkpt lat="43.5009837" lon="10.6194152"><ele>282.66666666666663</ele><time>2026-04-18T11:18:53.283Z</time></trkpt><trkpt lat="43.5008963" lon="10.6194482"><ele>282.8333333333333</ele><time>2026-04-18T11:18:55.285Z</time></trkpt><trkpt lat="43.5007905" lon="10.6194568"><ele>283.0</ele><time>2026-04-18T11:18:57.278Z</time></trkpt><trkpt lat="43.5006691" lon="10.6194746"><ele>283.0</ele><time>2026-04-18T11:18:59.277Z</time></trkpt><trkpt lat="43.5006012" lon="10.6194767"><ele>283.0</ele><time>2026-04-18T11:19:00.278Z</time></trkpt><trkpt lat="43.5005311" lon="10.6194665"><ele>283.0</ele><time>2026-04-18T11:19:01.29Z</time></trkpt><trkpt lat="43.5004112" lon="10.6194101"><ele>283.0</ele><time>2026-04-18T11:19:03.277Z</time></trkpt><trkpt lat="43.5003475" lon="10.6193776"><ele>283.0</ele><time>2026-04-18T11:19:04.287Z</time></trkpt><trkpt lat="43.5002888" lon="10.619339"><ele>283.0</ele><time>2026-04-18T11:19:05.286Z</time></trkpt><trkpt lat="43.500191" lon="10.6193176"><ele>283.2</ele><time>2026-04-18T11:19:07.282Z</time></trkpt><trkpt lat="43.5000573" lon="10.6193216"><ele>283.4</ele><time>2026-04-18T11:19:09.286Z</time></trkpt><trkpt lat="43.4999912" lon="10.6193169"><ele>283.59999999999997</ele><time>2026-04-18T11:19:10.285Z</time></trkpt><trkpt lat="43.499906" lon="10.6193172"><ele>283.8</ele><time>2026-04-18T11:19:11.282Z</time></trkpt><trkpt lat="43.4998042" lon="10.6193311"><ele>284.0</ele><time>2026-04-18T11:19:12.286Z</time></trkpt><trkpt lat="43.4997155" lon="10.6193324"><ele>284.0</ele><time>2026-04-18T11:19:13.285Z</time></trkpt><trkpt lat="43.4996457" lon="10.6193418"><ele>284.0</ele><time>2026-04-18T11:19:14.28Z</time></trkpt><trkpt lat="43.4995203" lon="10.6193983"><ele>284.0</ele><time>2026-04-18T11:19:16.28Z</time></trkpt><trkpt lat="43.4994571" lon="10.619421"><ele>284.0</ele><time>2026-04-18T11:19:17.272Z</time></trkpt><trkpt lat="43.4993947" lon="10.6194395"><ele>284.0</ele><time>2026-04-18T11:19:18.271Z</time></trkpt><trkpt lat="43.4992956" lon="10.6195059"><ele>284.0</ele><time>2026-04-18T11:19:20.283Z</time></trkpt><trkpt lat="43.4992098" lon="10.6195067"><ele>279.83333333333337</ele><time>2026-04-18T11:19:22.273Z</time></trkpt><trkpt lat="43.4991373" lon="10.619511"><ele>275.6666666666667</ele><time>2026-04-18T11:19:23.281Z</time></trkpt><trkpt lat="43.499063" lon="10.6195072"><ele>271.5</ele><time>2026-04-18T11:19:24.287Z</time></trkpt><trkpt lat="43.4989688" lon="10.6195276"><ele>267.3333333333333</ele><time>2026-04-18T11:19:26.279Z</time></trkpt><trkpt lat="43.4988951" lon="10.6195461"><ele>263.16666666666663</ele><time>2026-04-18T11:19:28.394Z</time></trkpt><trkpt lat="43.498851" lon="10.6196106"><ele>259.0</ele><time>2026-04-18T11:19:32.284Z</time></trkpt><trkpt lat="43.4988984" lon="10.6197012"><ele>259.0</ele><time>2026-04-18T11:19:35.386Z</time></trkpt><trkpt lat="43.4989284" lon="10.6198171"><ele>259.0</ele><time>2026-04-18T11:19:39.391Z</time></trkpt><trkpt lat="43.4990432" lon="10.6199474"><ele>259.0</ele><time>2026-04-18T11:19:42.287Z</time></trkpt><trkpt lat="43.4991258" lon="10.620011"><ele>259.0</ele><time>2026-04-18T11:19:44.383Z</time></trkpt><trkpt lat="43.4992027" lon="10.6200339"><ele>259.0</ele><time>2026-04-18T11:19:46.282Z</time></trkpt><trkpt lat="43.4991496" lon="10.6201823"><ele>259.0</ele><time>2026-04-18T11:19:50.285Z</time></trkpt><trkpt lat="43.499084" lon="10.6202208"><ele>259.0</ele><time>2026-04-18T11:19:52.276Z</time></trkpt><trkpt lat="43.49907" lon="10.6203237"><ele>259.0</ele><time>2026-04-18T11:19:55.285Z</time></trkpt><trkpt lat="43.4991569" lon="10.6203858"><ele>259.0</ele><time>2026-04-18T11:19:58.277Z</time></trkpt><trkpt lat="43.4992669" lon="10.6204327"><ele>259.0</ele><time>2026-04-18T11:20:00.287Z</time></trkpt><trkpt lat="43.4993511" lon="10.6204497"><ele>259.0</ele><time>2026-04-18T11:20:02.286Z</time></trkpt><trkpt lat="43.4993896" lon="10.6203717"><ele>259.0</ele><time>2026-04-18T11:20:04.282Z</time></trkpt><trkpt lat="43.4993563" lon="10.6202406"><ele>259.0</ele><time>2026-04-18T11:20:06.29Z</time></trkpt><trkpt lat="43.4993296" lon="10.6201244"><ele>259.0</ele><time>2026-04-18T11:20:08.406Z</time></trkpt><trkpt lat="43.4993761" lon="10.6200312"><ele>259.0</ele><time>2026-04-18T11:20:10.283Z</time></trkpt><trkpt lat="43.4995042" lon="10.619968"><ele>259.0</ele><time>2026-04-18T11:20:12.279Z</time></trkpt><trkpt lat="43.4995821" lon="10.619953"><ele>260.2</ele><time>2026-04-18T11:20:13.28Z</time></trkpt><trkpt lat="43.4996558" lon="10.6199515"><ele>261.4</ele><time>2026-04-18T11:20:14.381Z</time></trkpt><trkpt lat="43.4997203" lon="10.6199308"><ele>262.6</ele><time>2026-04-18T11:20:15.398Z</time></trkpt><trkpt lat="43.4998434" lon="10.6198751"><ele>263.8</ele><time>2026-04-18T11:20:17.403Z</time></trkpt><trkpt lat="43.5000057" lon="10.619804"><ele>265.0</ele><time>2026-04-18T11:20:19.284Z</time></trkpt><trkpt lat="43.5001045" lon="10.6197445"><ele>265.0</ele><time>2026-04-18T11:20:20.273Z</time></trkpt><trkpt lat="43.5001946" lon="10.6196874"><ele>265.0</ele><time>2026-04-18T11:20:21.278Z</time></trkpt><trkpt lat="43.5002736" lon="10.6196239"><ele>265.0</ele><time>2026-04-18T11:20:22.277Z</time></trkpt><trkpt lat="43.5003586" lon="10.6195832"><ele>265.0</ele><time>2026-04-18T11:20:23.28Z</time></trkpt><trkpt lat="43.5003976" lon="10.61969"><ele>265.0</ele><time>2026-04-18T11:20:26.281Z</time></trkpt><trkpt lat="43.500356" lon="10.6197738"><ele>265.0</ele><time>2026-04-18T11:20:28.394Z</time></trkpt><trkpt lat="43.5003167" lon="10.6198498"><ele>265.0</ele><time>2026-04-18T11:20:30.405Z</time></trkpt><trkpt lat="43.5003972" lon="10.6199702"><ele>265.0</ele><time>2026-04-18T11:20:34.278Z</time></trkpt><trkpt lat="43.5004621" lon="10.620001"><ele>265.0</ele><time>2026-04-18T11:20:36.286Z</time></trkpt><trkpt lat="43.5005145" lon="10.6200793"><ele>265.0</ele><time>2026-04-18T11:20:43.281Z</time></trkpt><trkpt lat="43.5005208" lon="10.6201687"><ele>265.0</ele><time>2026-04-18T11:20:46.274Z</time></trkpt><trkpt lat="43.5005448" lon="10.6202651"><ele>265.0</ele><time>2026-04-18T11:20:49.282Z</time></trkpt><trkpt lat="43.5005361" lon="10.6203666"><ele>266.4</ele><time>2026-04-18T11:20:52.404Z</time></trkpt><trkpt lat="43.5004731" lon="10.6204711"><ele>267.8</ele><time>2026-04-18T11:20:55.283Z</time></trkpt><trkpt lat="43.5004467" lon="10.6205757"><ele>269.2</ele><time>2026-04-18T11:20:57.379Z</time></trkpt><trkpt lat="43.5004583" lon="10.6207027"><ele>270.6</ele><time>2026-04-18T11:20:58.368Z</time></trkpt><trkpt lat="43.5004552" lon="10.6208519"><ele>272.0</ele><time>2026-04-18T11:21:00.286Z</time></trkpt><trkpt lat="43.500457" lon="10.6209881"><ele>272.0</ele><time>2026-04-18T11:21:03.283Z</time></trkpt><trkpt lat="43.5005042" lon="10.6210501"><ele>272.0</ele><time>2026-04-18T11:21:05.416Z</time></trkpt><trkpt lat="43.5005766" lon="10.6210442"><ele>272.0</ele><time>2026-04-18T11:21:47.282Z</time></trkpt><trkpt lat="43.5006265" lon="10.6209436"><ele>272.0</ele><time>2026-04-18T11:21:50.388Z</time></trkpt><trkpt lat="43.5006926" lon="10.6207573"><ele>272.0</ele><time>2026-04-18T11:21:52.282Z</time></trkpt><trkpt lat="43.5007467" lon="10.6206912"><ele>272.0</ele><time>2026-04-18T11:21:54.282Z</time></trkpt><trkpt lat="43.5008342" lon="10.6205474"><ele>272.0</ele><time>2026-04-18T11:21:57.376Z</time></trkpt><trkpt lat="43.5008836" lon="10.6204677"><ele>272.0</ele><time>2026-04-18T11:22:00.277Z</time></trkpt><trkpt lat="43.5009572" lon="10.6204295"><ele>272.0</ele><time>2026-04-18T11:22:06.282Z</time></trkpt><trkpt lat="43.501017" lon="10.6203818"><ele>272.0</ele><time>2026-04-18T11:22:09.283Z</time></trkpt><trkpt lat="43.5010853" lon="10.6203119"><ele>272.0</ele><time>2026-04-18T11:22:11.284Z</time></trkpt><trkpt lat="43.5011418" lon="10.6202117"><ele>272.0</ele><time>2026-04-18T11:22:14.382Z</time></trkpt><trkpt lat="43.5011655" lon="10.6200914"><ele>271.6666666666667</ele><time>2026-04-18T11:22:17.282Z</time></trkpt><trkpt lat="43.5012382" lon="10.620013"><ele>271.33333333333337</ele><time>2026-04-18T11:22:19.29Z</time></trkpt><trkpt lat="43.5013164" lon="10.6199577"><ele>271.0</ele><time>2026-04-18T11:22:21.277Z</time></trkpt><trkpt lat="43.5013787" lon="10.6199715"><ele>270.6666666666667</ele><time>2026-04-18T11:22:23.279Z</time></trkpt><trkpt lat="43.501425" lon="10.6200822"><ele>270.3333333333333</ele><time>2026-04-18T11:22:26.287Z</time></trkpt><trkpt lat="43.5014527" lon="10.6202116"><ele>270.0</ele><time>2026-04-18T11:22:28.424Z</time></trkpt><trkpt lat="43.5014776" lon="10.6203477"><ele>270.0</ele><time>2026-04-18T11:22:30.28Z</time></trkpt><trkpt lat="43.5015076" lon="10.6204662"><ele>270.0</ele><time>2026-04-18T11:22:32.287Z</time></trkpt><trkpt lat="43.5015393" lon="10.6205811"><ele>270.0</ele><time>2026-04-18T11:22:34.278Z</time></trkpt><trkpt lat="43.5015857" lon="10.6207053"><ele>270.0</ele><time>2026-04-18T11:22:36.279Z</time></trkpt><trkpt lat="43.5016463" lon="10.6208405"><ele>270.0</ele><time>2026-04-18T11:22:38.285Z</time></trkpt><trkpt lat="43.501671" lon="10.6209716"><ele>270.0</ele><time>2026-04-18T11:22:40.284Z</time></trkpt><trkpt lat="43.5016711" lon="10.6211134"><ele>270.0</ele><time>2026-04-18T11:22:42.276Z</time></trkpt><trkpt lat="43.5016743" lon="10.6212525"><ele>270.0</ele><time>2026-04-18T11:22:44.278Z</time></trkpt><trkpt lat="43.5017099" lon="10.6214133"><ele>270.0</ele><time>2026-04-18T11:22:47.299Z</time></trkpt><trkpt lat="43.501753" lon="10.621514"><ele>270.0</ele><time>2026-04-18T11:22:49.276Z</time></trkpt><trkpt lat="43.5018122" lon="10.6216464"><ele>267.6666666666667</ele><time>2026-04-18T11:22:51.27Z</time></trkpt><trkpt lat="43.5018461" lon="10.6217232"><ele>265.3333333333333</ele><time>2026-04-18T11:22:52.281Z</time></trkpt><trkpt lat="43.5018628" lon="10.6218116"><ele>263.0</ele><time>2026-04-18T11:22:53.277Z</time></trkpt><trkpt lat="43.5018834" lon="10.621912"><ele>260.66666666666663</ele><time>2026-04-18T11:22:55.276Z</time></trkpt><trkpt lat="43.5017954" lon="10.6219702"><ele>258.3333333333333</ele><time>2026-04-18T11:23:06.275Z</time></trkpt><trkpt lat="43.5017358" lon="10.6220715"><ele>256.0</ele><time>2026-04-18T11:23:08.291Z</time></trkpt><trkpt lat="43.5016904" lon="10.6221668"><ele>254.49999999999997</ele><time>2026-04-18T11:23:09.282Z</time></trkpt><trkpt lat="43.5016478" lon="10.6222625"><ele>253.0</ele><time>2026-04-18T11:23:10.283Z</time></trkpt><trkpt lat="43.5016111" lon="10.6223476"><ele>251.5</ele><time>2026-04-18T11:23:11.276Z</time></trkpt><trkpt lat="43.5015736" lon="10.6224248"><ele>250.0</ele><time>2026-04-18T11:23:12.278Z</time></trkpt><trkpt lat="43.5014885" lon="10.6225296"><ele>248.49999999999997</ele><time>2026-04-18T11:23:14.275Z</time></trkpt><trkpt lat="43.5014108" lon="10.6225706"><ele>247.0</ele><time>2026-04-18T11:23:16.279Z</time></trkpt><trkpt lat="43.5013363" lon="10.6226351"><ele>246.99999999999997</ele><time>2026-04-18T11:23:18.281Z</time></trkpt><trkpt lat="43.5012758" lon="10.6227178"><ele>247.0</ele><time>2026-04-18T11:23:20.281Z</time></trkpt><trkpt lat="43.5012556" lon="10.6228348"><ele>247.0</ele><time>2026-04-18T11:23:23.283Z</time></trkpt><trkpt lat="43.5013247" lon="10.6229206"><ele>247.0</ele><time>2026-04-18T11:23:26.279Z</time></trkpt><trkpt lat="43.5013878" lon="10.6229122"><ele>246.99999999999997</ele><time>2026-04-18T11:23:28.38Z</time></trkpt><trkpt lat="43.5014375" lon="10.6228092"><ele>247.0</ele><time>2026-04-18T11:23:30.281Z</time></trkpt><trkpt lat="43.5014836" lon="10.6226832"><ele>246.99999999999997</ele><time>2026-04-18T11:23:32.283Z</time></trkpt><trkpt lat="43.501564" lon="10.6226784"><ele>247.0</ele><time>2026-04-18T11:23:35.279Z</time></trkpt><trkpt lat="43.5015509" lon="10.6228159"><ele>247.0</ele><time>2026-04-18T11:23:38.289Z</time></trkpt><trkpt lat="43.5014986" lon="10.6229201"><ele>247.0</ele><time>2026-04-18T11:23:40.283Z</time></trkpt><trkpt lat="43.5014816" lon="10.6230533"><ele>246.99999999999997</ele><time>2026-04-18T11:23:43.281Z</time></trkpt><trkpt lat="43.5015393" lon="10.623124"><ele>247.0</ele><time>2026-04-18T11:23:46.273Z</time></trkpt><trkpt lat="43.5016035" lon="10.6231246"><ele>247.0</ele><time>2026-04-18T11:23:48.273Z</time></trkpt><trkpt lat="43.5016881" lon="10.6230476"><ele>247.0</ele><time>2026-04-18T11:23:50.283Z</time></trkpt><trkpt lat="43.5017821" lon="10.6229224"><ele>247.0</ele><time>2026-04-18T11:23:52.282Z</time></trkpt><trkpt lat="43.501818" lon="10.6228317"><ele>247.0</ele><time>2026-04-18T11:23:53.283Z</time></trkpt><trkpt lat="43.5018447" lon="10.6227186"><ele>247.0</ele><time>2026-04-18T11:23:54.286Z</time></trkpt><trkpt lat="43.5019338" lon="10.6225976"><ele>247.0</ele><time>2026-04-18T11:23:56.276Z</time></trkpt><trkpt lat="43.5019973" lon="10.6225754"><ele>247.0</ele><time>2026-04-18T11:23:57.284Z</time></trkpt><trkpt lat="43.5020671" lon="10.6225751"><ele>247.0</ele><time>2026-04-18T11:23:58.283Z</time></trkpt><trkpt lat="43.502141" lon="10.6225727"><ele>247.0</ele><time>2026-04-18T11:23:59.282Z</time></trkpt><trkpt lat="43.5022103" lon="10.6225739"><ele>247.0</ele><time>2026-04-18T11:24:00.279Z</time></trkpt><trkpt lat="43.5022815" lon="10.6225814"><ele>247.0</ele><time>2026-04-18T11:24:01.28Z</time></trkpt><trkpt lat="43.5023484" lon="10.6225907"><ele>247.0</ele><time>2026-04-18T11:24:03.277Z</time></trkpt><trkpt lat="43.5024127" lon="10.6226293"><ele>247.66666666666666</ele><time>2026-04-18T11:24:07.275Z</time></trkpt><trkpt lat="43.5024695" lon="10.6227461"><ele>248.33333333333331</ele><time>2026-04-18T11:24:10.28Z</time></trkpt><trkpt lat="43.5025279" lon="10.6228328"><ele>249.0</ele><time>2026-04-18T11:24:12.283Z</time></trkpt><trkpt lat="43.5026053" lon="10.6228728"><ele>249.66666666666669</ele><time>2026-04-18T11:24:13.28Z</time></trkpt><trkpt lat="43.5026637" lon="10.6229219"><ele>250.33333333333334</ele><time>2026-04-18T11:24:15.279Z</time></trkpt><trkpt lat="43.5027473" lon="10.6229041"><ele>251.0</ele><time>2026-04-18T11:24:18.395Z</time></trkpt><trkpt lat="43.5028023" lon="10.6228399"><ele>253.0</ele><time>2026-04-18T11:24:20.333Z</time></trkpt><trkpt lat="43.502878" lon="10.6227279"><ele>255.00000000000003</ele><time>2026-04-18T11:24:22.279Z</time></trkpt><trkpt lat="43.5029461" lon="10.6227172"><ele>257.0</ele><time>2026-04-18T11:24:25.284Z</time></trkpt><trkpt lat="43.5030292" lon="10.6226696"><ele>259.0</ele><time>2026-04-18T11:24:28.283Z</time></trkpt><trkpt lat="43.5031124" lon="10.6226548"><ele>261.0</ele><time>2026-04-18T11:24:30.375Z</time></trkpt><trkpt lat="43.5032114" lon="10.6226403"><ele>262.40000000000003</ele><time>2026-04-18T11:24:32.276Z</time></trkpt><trkpt lat="43.5032752" lon="10.6226305"><ele>263.8</ele><time>2026-04-18T11:24:33.407Z</time></trkpt><trkpt lat="43.5033385" lon="10.6225932"><ele>265.20000000000005</ele><time>2026-04-18T11:24:34.405Z</time></trkpt><trkpt lat="43.5034134" lon="10.6225814"><ele>266.6</ele><time>2026-04-18T11:24:35.415Z</time></trkpt><trkpt lat="43.5035667" lon="10.6224434"><ele>268.0</ele><time>2026-04-18T11:24:37.279Z</time></trkpt><trkpt lat="43.5036599" lon="10.6224185"><ele>271.25</ele><time>2026-04-18T11:24:39.401Z</time></trkpt><trkpt lat="43.5037572" lon="10.6224666"><ele>274.5</ele><time>2026-04-18T11:24:41.279Z</time></trkpt><trkpt lat="43.5038709" lon="10.6225367"><ele>277.75</ele><time>2026-04-18T11:24:43.287Z</time></trkpt><trkpt lat="43.504022" lon="10.6225806"><ele>281.0</ele><time>2026-04-18T11:24:46.285Z</time></trkpt><trkpt lat="43.5041118" lon="10.6225916"><ele>281.0</ele><time>2026-04-18T11:24:48.275Z</time></trkpt><trkpt lat="43.5041815" lon="10.6225365"><ele>281.0</ele><time>2026-04-18T11:24:50.276Z</time></trkpt><trkpt lat="43.5042387" lon="10.622413"><ele>281.0</ele><time>2026-04-18T11:24:52.391Z</time></trkpt><trkpt lat="43.504338" lon="10.6222908"><ele>281.0</ele><time>2026-04-18T11:24:54.281Z</time></trkpt><trkpt lat="43.5043981" lon="10.62223"><ele>281.0</ele><time>2026-04-18T11:24:55.278Z</time></trkpt><trkpt lat="43.50444" lon="10.6221184"><ele>282.6</ele><time>2026-04-18T11:24:57.276Z</time></trkpt><trkpt lat="43.5044185" lon="10.62196"><ele>284.20000000000005</ele><time>2026-04-18T11:24:59.279Z</time></trkpt><trkpt lat="43.5044142" lon="10.6218704"><ele>285.79999999999995</ele><time>2026-04-18T11:25:00.281Z</time></trkpt><trkpt lat="43.5044442" lon="10.6217111"><ele>287.4</ele><time>2026-04-18T11:25:02.282Z</time></trkpt><trkpt lat="43.5044451" lon="10.62159"><ele>289.0</ele><time>2026-04-18T11:25:04.284Z</time></trkpt><trkpt lat="43.5043945" lon="10.6215304"><ele>289.0</ele><time>2026-04-18T11:25:07.275Z</time></trkpt><trkpt lat="43.5043221" lon="10.6215797"><ele>289.0</ele><time>2026-04-18T11:25:11.281Z</time></trkpt><trkpt lat="43.5042778" lon="10.6216466"><ele>289.0</ele><time>2026-04-18T11:25:14.277Z</time></trkpt><trkpt lat="43.5042471" lon="10.6217257"><ele>289.0</ele><time>2026-04-18T11:25:16.274Z</time></trkpt><trkpt lat="43.5042215" lon="10.6218237"><ele>289.0</ele><time>2026-04-18T11:25:18.271Z</time></trkpt><trkpt lat="43.5041975" lon="10.6219438"><ele>289.0</ele><time>2026-04-18T11:25:20.283Z</time></trkpt><trkpt lat="43.5041764" lon="10.622071"><ele>287.66666666666663</ele><time>2026-04-18T11:25:22.275Z</time></trkpt><trkpt lat="43.5041645" lon="10.6222016"><ele>286.3333333333333</ele><time>2026-04-18T11:25:24.278Z</time></trkpt><trkpt lat="43.5041474" lon="10.6223395"><ele>285.0</ele><time>2026-04-18T11:25:26.377Z</time></trkpt><trkpt lat="43.5041212" lon="10.6224271"><ele>283.6666666666667</ele><time>2026-04-18T11:25:28.421Z</time></trkpt><trkpt lat="43.5040481" lon="10.6224692"><ele>282.33333333333337</ele><time>2026-04-18T11:25:31.353Z</time></trkpt><trkpt lat="43.5039825" lon="10.6224399"><ele>281.0</ele><time>2026-04-18T11:25:33.282Z</time></trkpt><trkpt lat="43.5039118" lon="10.6223954"><ele>281.00000000000006</ele><time>2026-04-18T11:25:35.281Z</time></trkpt><trkpt lat="43.5038406" lon="10.6223521"><ele>281.0</ele><time>2026-04-18T11:25:37.284Z</time></trkpt><trkpt lat="43.5037815" lon="10.6223188"><ele>281.0</ele><time>2026-04-18T11:25:39.401Z</time></trkpt><trkpt lat="43.5036849" lon="10.6222941"><ele>281.0</ele><time>2026-04-18T11:25:42.283Z</time></trkpt><trkpt lat="43.5036167" lon="10.6223027"><ele>281.0</ele><time>2026-04-18T11:25:44.278Z</time></trkpt><trkpt lat="43.5035444" lon="10.622336"><ele>281.00000000000006</ele><time>2026-04-18T11:25:46.39Z</time></trkpt><trkpt lat="43.5034811" lon="10.6223506"><ele>281.0</ele><time>2026-04-18T11:25:48.278Z</time></trkpt><trkpt lat="43.5034378" lon="10.6222714"><ele>281.0</ele><time>2026-04-18T11:25:52.273Z</time></trkpt><trkpt lat="43.5034752" lon="10.6221907"><ele>281.0</ele><time>2026-04-18T11:25:56.277Z</time></trkpt><trkpt lat="43.5035549" lon="10.622118"><ele>281.0</ele><time>2026-04-18T11:25:58.383Z</time></trkpt><trkpt lat="43.5036493" lon="10.6220577"><ele>281.0</ele><time>2026-04-18T11:26:00.404Z</time></trkpt><trkpt lat="43.503758" lon="10.6220014"><ele>281.0</ele><time>2026-04-18T11:26:02.278Z</time></trkpt><trkpt lat="43.5038593" lon="10.6219742"><ele>282.6</ele><time>2026-04-18T11:26:04.275Z</time></trkpt><trkpt lat="43.5039543" lon="10.621937"><ele>284.20000000000005</ele><time>2026-04-18T11:26:06.275Z</time></trkpt><trkpt lat="43.5040503" lon="10.6218748"><ele>285.79999999999995</ele><time>2026-04-18T11:26:08.396Z</time></trkpt><trkpt lat="43.5041157" lon="10.621735"><ele>287.4</ele><time>2026-04-18T11:26:10.353Z</time></trkpt><trkpt lat="43.5041494" lon="10.621648"><ele>289.0</ele><time>2026-04-18T11:26:11.275Z</time></trkpt><trkpt lat="43.5041928" lon="10.6215522"><ele>289.0</ele><time>2026-04-18T11:26:12.276Z</time></trkpt><trkpt lat="43.5042407" lon="10.6214712"><ele>289.0</ele><time>2026-04-18T11:26:13.28Z</time></trkpt><trkpt lat="43.5042888" lon="10.6213922"><ele>289.0</ele><time>2026-04-18T11:26:14.276Z</time></trkpt><trkpt lat="43.5043303" lon="10.621303"><ele>289.0</ele><time>2026-04-18T11:26:15.281Z</time></trkpt><trkpt lat="43.5043667" lon="10.6211603"><ele>289.0</ele><time>2026-04-18T11:26:17.281Z</time></trkpt><trkpt lat="43.5043465" lon="10.621044"><ele>289.0</ele><time>2026-04-18T11:26:19.283Z</time></trkpt><trkpt lat="43.5043194" lon="10.6209077"><ele>291.0</ele><time>2026-04-18T11:26:22.272Z</time></trkpt><trkpt lat="43.5042918" lon="10.6208049"><ele>293.0</ele><time>2026-04-18T11:26:25.37Z</time></trkpt><trkpt lat="43.5042688" lon="10.6206574"><ele>295.0</ele><time>2026-04-18T11:26:28.401Z</time></trkpt><trkpt lat="43.5042971" lon="10.6205653"><ele>297.0</ele><time>2026-04-18T11:26:31.402Z</time></trkpt><trkpt lat="43.5042263" lon="10.6205369"><ele>299.0</ele><time>2026-04-18T11:26:37.383Z</time></trkpt><trkpt lat="43.5042342" lon="10.620438"><ele>301.0</ele><time>2026-04-18T11:26:45.4Z</time></trkpt><trkpt lat="43.5043383" lon="10.6203408"><ele>302.6</ele><time>2026-04-18T11:26:48.29Z</time></trkpt><trkpt lat="43.5044115" lon="10.6203042"><ele>304.20000000000005</ele><time>2026-04-18T11:26:49.276Z</time></trkpt><trkpt lat="43.5045457" lon="10.6202707"><ele>305.79999999999995</ele><time>2026-04-18T11:26:51.278Z</time></trkpt><trkpt lat="43.50464" lon="10.6202549"><ele>307.4</ele><time>2026-04-18T11:26:53.278Z</time></trkpt><trkpt lat="43.5046955" lon="10.6202072"><ele>309.0</ele><time>2026-04-18T11:26:56.278Z</time></trkpt><trkpt lat="43.5046098" lon="10.6201381"><ele>309.3333333333333</ele><time>2026-04-18T11:27:01.283Z</time></trkpt><trkpt lat="43.5045381" lon="10.6200565"><ele>309.6666666666667</ele><time>2026-04-18T11:27:03.411Z</time></trkpt><trkpt lat="43.5044785" lon="10.6199147"><ele>310.0</ele><time>2026-04-18T11:27:05.327Z</time></trkpt><trkpt lat="43.5044498" lon="10.6198353"><ele>310.33333333333337</ele><time>2026-04-18T11:27:06.28Z</time></trkpt><trkpt lat="43.5044175" lon="10.6197469"><ele>310.6666666666667</ele><time>2026-04-18T11:27:07.349Z</time></trkpt><trkpt lat="43.5043846" lon="10.6196388"><ele>311.0</ele><time>2026-04-18T11:27:08.384Z</time></trkpt><trkpt lat="43.5043522" lon="10.619525"><ele>312.8</ele><time>2026-04-18T11:27:09.4Z</time></trkpt><trkpt lat="43.504319" lon="10.619434"><ele>314.6</ele><time>2026-04-18T11:27:10.406Z</time></trkpt><trkpt lat="43.5042731" lon="10.6193605"><ele>316.4</ele><time>2026-04-18T11:27:11.331Z</time></trkpt><trkpt lat="43.5042111" lon="10.6192892"><ele>318.2</ele><time>2026-04-18T11:27:12.278Z</time></trkpt><trkpt lat="43.5041409" lon="10.6192284"><ele>320.0</ele><time>2026-04-18T11:27:13.401Z</time></trkpt><trkpt lat="43.5039959" lon="10.6191342"><ele>320.0</ele><time>2026-04-18T11:27:15.271Z</time></trkpt><trkpt lat="43.5039125" lon="10.6190831"><ele>320.0</ele><time>2026-04-18T11:27:16.283Z</time></trkpt><trkpt lat="43.5038367" lon="10.619049"><ele>320.0</ele><time>2026-04-18T11:27:17.281Z</time></trkpt><trkpt lat="43.5037657" lon="10.6190392"><ele>320.0</ele><time>2026-04-18T11:27:18.28Z</time></trkpt><trkpt lat="43.5036948" lon="10.619043"><ele>320.0</ele><time>2026-04-18T11:27:19.28Z</time></trkpt><trkpt lat="43.503622" lon="10.6190611"><ele>320.0</ele><time>2026-04-18T11:27:20.275Z</time></trkpt><trkpt lat="43.5035498" lon="10.6190922"><ele>320.0</ele><time>2026-04-18T11:27:21.276Z</time></trkpt><trkpt lat="43.5034479" lon="10.61911"><ele>320.0</ele><time>2026-04-18T11:27:23.394Z</time></trkpt><trkpt lat="43.5033575" lon="10.6190492"><ele>320.0</ele><time>2026-04-18T11:27:25.386Z</time></trkpt><trkpt lat="43.5032522" lon="10.6189839"><ele>320.0</ele><time>2026-04-18T11:27:27.374Z</time></trkpt><trkpt lat="43.5031698" lon="10.6189581"><ele>320.0</ele><time>2026-04-18T11:27:29.398Z</time></trkpt><trkpt lat="43.5031029" lon="10.6189505"><ele>320.0</ele><time>2026-04-18T11:27:32.397Z</time></trkpt><trkpt lat="43.5030385" lon="10.618949"><ele>320.0</ele><time>2026-04-18T11:45:20.27Z</time></trkpt><trkpt lat="43.5029687" lon="10.618933"><ele>320.0</ele><time>2026-04-18T11:45:27.267Z</time></trkpt><trkpt lat="43.5029252" lon="10.6188672"><ele>320.0</ele><time>2026-04-18T11:45:32.224Z</time></trkpt><trkpt lat="43.5028455" lon="10.6188555"><ele>320.0</ele><time>2026-04-18T11:45:38.28Z</time></trkpt><trkpt lat="43.5027717" lon="10.6188786"><ele>320.0</ele><time>2026-04-18T11:45:44.274Z</time></trkpt><trkpt lat="43.5027083" lon="10.6189028"><ele>320.0</ele><time>2026-04-18T11:45:50.279Z</time></trkpt><trkpt lat="43.5026469" lon="10.6189503"><ele>319.0</ele><time>2026-04-18T11:45:57.276Z</time></trkpt><trkpt lat="43.5026508" lon="10.6190389"><ele>318.0</ele><time>2026-04-18T11:46:03.285Z</time></trkpt><trkpt lat="43.5026794" lon="10.6191185"><ele>317.0</ele><time>2026-04-18T11:46:08.275Z</time></trkpt><trkpt lat="43.5026565" lon="10.6192032"><ele>316.0</ele><time>2026-04-18T11:46:15.389Z</time></trkpt><trkpt lat="43.5025909" lon="10.6191777"><ele>315.0</ele><time>2026-04-18T11:46:21.279Z</time></trkpt><trkpt lat="43.5025747" lon="10.6190813"><ele>314.0</ele><time>2026-04-18T11:46:27.27Z</time></trkpt><trkpt lat="43.5025384" lon="10.6189984"><ele>313.0</ele><time>2026-04-18T11:46:33.275Z</time></trkpt><trkpt lat="43.5025254" lon="10.6189088"><ele>313.0</ele><time>2026-04-18T11:46:39.281Z</time></trkpt><trkpt lat="43.5024796" lon="10.6188397"><ele>313.0</ele><time>2026-04-18T11:46:46.274Z</time></trkpt><trkpt lat="43.5025333" lon="10.6189149"><ele>313.0</ele><time>2026-04-18T11:47:54.267Z</time></trkpt><trkpt lat="43.5025571" lon="10.6190107"><ele>313.0</ele><time>2026-04-18T11:47:59.277Z</time></trkpt><trkpt lat="43.5026133" lon="10.6190544"><ele>313.0</ele><time>2026-04-18T11:48:06.272Z</time></trkpt><trkpt lat="43.5026411" lon="10.6191527"><ele>313.0</ele><time>2026-04-18T11:50:49.268Z</time></trkpt><trkpt lat="43.5025927" lon="10.6190831"><ele>313.0</ele><time>2026-04-18T11:50:57.276Z</time></trkpt><trkpt lat="43.5025662" lon="10.6190003"><ele>313.0</ele><time>2026-04-18T11:51:03.273Z</time></trkpt><trkpt lat="43.5025335" lon="10.6189097"><ele>313.0</ele><time>2026-04-18T11:51:26.44Z</time></trkpt><trkpt lat="43.5025182" lon="10.618822"><ele>313.0</ele><time>2026-04-18T11:51:35.274Z</time></trkpt><trkpt lat="43.5024927" lon="10.6189101"><ele>313.0</ele><time>2026-04-18T11:56:34.266Z</time></trkpt><trkpt lat="43.5024306" lon="10.6189252"><ele>313.0</ele><time>2026-04-18T11:56:41.265Z</time></trkpt><trkpt lat="43.5024014" lon="10.618846"><ele>313.0</ele><time>2026-04-18T11:56:52.268Z</time></trkpt><trkpt lat="43.5024506" lon="10.618781"><ele>313.0</ele><time>2026-04-18T12:19:12.262Z</time></trkpt><trkpt lat="43.502502" lon="10.6188978"><ele>313.0</ele><time>2026-04-18T12:25:19.266Z</time></trkpt><trkpt lat="43.5025549" lon="10.618957"><ele>313.0</ele><time>2026-04-18T12:25:55.358Z</time></trkpt><trkpt lat="43.5025874" lon="10.6190411"><ele>313.0</ele><time>2026-04-18T12:26:09.419Z</time></trkpt><trkpt lat="43.502609" lon="10.6191293"><ele>313.0</ele><time>2026-04-18T12:28:01.259Z</time></trkpt><trkpt lat="43.5026697" lon="10.6191727"><ele>313.0</ele><time>2026-04-18T12:28:31.342Z</time></trkpt><trkpt lat="43.5027449" lon="10.6192145"><ele>313.0</ele><time>2026-04-18T12:29:39.265Z</time></trkpt><trkpt lat="43.5028155" lon="10.6192198"><ele>313.0</ele><time>2026-04-18T12:29:46.904Z</time></trkpt><trkpt lat="43.502879" lon="10.6192236"><ele>314.0</ele><time>2026-04-18T12:29:52.257Z</time></trkpt><trkpt lat="43.502947" lon="10.6192601"><ele>315.0</ele><time>2026-04-18T12:29:58.337Z</time></trkpt><trkpt lat="43.50301" lon="10.619226"><ele>316.0</ele><time>2026-04-18T12:30:04.204Z</time></trkpt><trkpt lat="43.5030134" lon="10.6191332"><ele>317.0</ele><time>2026-04-18T12:30:12.348Z</time></trkpt><trkpt lat="43.5030235" lon="10.6190343"><ele>318.0</ele><time>2026-04-18T12:30:22.255Z</time></trkpt><trkpt lat="43.5030182" lon="10.6189467"><ele>319.0</ele><time>2026-04-18T12:30:28.262Z</time></trkpt><trkpt lat="43.5029551" lon="10.6188533"><ele>320.0</ele><time>2026-04-18T12:35:32.37Z</time></trkpt><trkpt lat="43.503051" lon="10.6188965"><ele>320.0</ele><time>2026-04-18T12:35:51.396Z</time></trkpt><trkpt lat="43.5031597" lon="10.6189592"><ele>320.0</ele><time>2026-04-18T12:35:53.391Z</time></trkpt><trkpt lat="43.5032926" lon="10.6190092"><ele>320.0</ele><time>2026-04-18T12:35:55.248Z</time></trkpt><trkpt lat="43.5033962" lon="10.6190625"><ele>320.0</ele><time>2026-04-18T12:35:57.25Z</time></trkpt><trkpt lat="43.5034755" lon="10.6191121"><ele>320.0</ele><time>2026-04-18T12:35:59.326Z</time></trkpt><trkpt lat="43.5035407" lon="10.6191202"><ele>320.0</ele><time>2026-04-18T12:36:01.253Z</time></trkpt><trkpt lat="43.5036276" lon="10.6190701"><ele>320.0</ele><time>2026-04-18T12:36:04.253Z</time></trkpt><trkpt lat="43.5036936" lon="10.6190476"><ele>320.0</ele><time>2026-04-18T12:36:08.253Z</time></trkpt><trkpt lat="43.5037748" lon="10.6190377"><ele>320.0</ele><time>2026-04-18T12:36:17.251Z</time></trkpt><trkpt lat="43.5038768" lon="10.61906"><ele>320.0</ele><time>2026-04-18T12:36:19.252Z</time></trkpt><trkpt lat="43.5039592" lon="10.6191226"><ele>320.0</ele><time>2026-04-18T12:36:21.252Z</time></trkpt><trkpt lat="43.5040369" lon="10.6191771"><ele>320.0</ele><time>2026-04-18T12:36:23.393Z</time></trkpt><trkpt lat="43.5041249" lon="10.6192261"><ele>320.0</ele><time>2026-04-18T12:36:26.251Z</time></trkpt><trkpt lat="43.5041916" lon="10.6192749"><ele>320.0</ele><time>2026-04-18T12:36:28.387Z</time></trkpt><trkpt lat="43.5042782" lon="10.6193933"><ele>320.0</ele><time>2026-04-18T12:36:31.257Z</time></trkpt><trkpt lat="43.5043078" lon="10.6194944"><ele>318.5</ele><time>2026-04-18T12:36:33.252Z</time></trkpt><trkpt lat="43.50434" lon="10.6195943"><ele>317.0</ele><time>2026-04-18T12:36:35.341Z</time></trkpt><trkpt lat="43.5043797" lon="10.6196963"><ele>315.5</ele><time>2026-04-18T12:36:37.394Z</time></trkpt><trkpt lat="43.5044288" lon="10.6198191"><ele>314.0</ele><time>2026-04-18T12:36:40.251Z</time></trkpt><trkpt lat="43.5044768" lon="10.6199354"><ele>312.5</ele><time>2026-04-18T12:36:43.25Z</time></trkpt><trkpt lat="43.5045095" lon="10.6200295"><ele>311.0</ele><time>2026-04-18T12:36:45.249Z</time></trkpt><trkpt lat="43.5045512" lon="10.6201102"><ele>310.6666666666667</ele><time>2026-04-18T12:36:47.25Z</time></trkpt><trkpt lat="43.5046246" lon="10.6201854"><ele>310.33333333333337</ele><time>2026-04-18T12:36:50.403Z</time></trkpt><trkpt lat="43.5046996" lon="10.6202334"><ele>310.0</ele><time>2026-04-18T12:36:53.253Z</time></trkpt><trkpt lat="43.5047906" lon="10.6202171"><ele>309.6666666666667</ele><time>2026-04-18T12:36:56.404Z</time></trkpt><trkpt lat="43.5048568" lon="10.6201525"><ele>309.3333333333333</ele><time>2026-04-18T12:36:58.4Z</time></trkpt><trkpt lat="43.5049019" lon="10.6200781"><ele>309.0</ele><time>2026-04-18T12:37:00.254Z</time></trkpt><trkpt lat="43.5049379" lon="10.6199977"><ele>309.0</ele><time>2026-04-18T12:37:02.252Z</time></trkpt><trkpt lat="43.5049857" lon="10.6199044"><ele>309.0</ele><time>2026-04-18T12:37:04.397Z</time></trkpt><trkpt lat="43.5050295" lon="10.6198127"><ele>309.0</ele><time>2026-04-18T12:37:06.251Z</time></trkpt><trkpt lat="43.5050688" lon="10.6197151"><ele>309.0</ele><time>2026-04-18T12:37:08.252Z</time></trkpt><trkpt lat="43.5051045" lon="10.6196239"><ele>309.0</ele><time>2026-04-18T12:37:10.248Z</time></trkpt><trkpt lat="43.5051405" lon="10.6195309"><ele>309.0</ele><time>2026-04-18T12:37:12.25Z</time></trkpt><trkpt lat="43.5051795" lon="10.6194437"><ele>309.59999999999997</ele><time>2026-04-18T12:37:14.251Z</time></trkpt><trkpt lat="43.5052273" lon="10.619355"><ele>310.2</ele><time>2026-04-18T12:37:16.254Z</time></trkpt><trkpt lat="43.5052967" lon="10.6193345"><ele>310.79999999999995</ele><time>2026-04-18T12:37:18.393Z</time></trkpt><trkpt lat="43.5053827" lon="10.61936"><ele>311.4</ele><time>2026-04-18T12:37:20.251Z</time></trkpt><trkpt lat="43.5054699" lon="10.6193901"><ele>312.0</ele><time>2026-04-18T12:37:22.403Z</time></trkpt><trkpt lat="43.5056084" lon="10.6194419"><ele>310.0</ele><time>2026-04-18T12:37:25.254Z</time></trkpt><trkpt lat="43.5057293" lon="10.6194742"><ele>308.0</ele><time>2026-04-18T12:37:28.253Z</time></trkpt><trkpt lat="43.505813" lon="10.6194646"><ele>306.0</ele><time>2026-04-18T12:37:30.255Z</time></trkpt><trkpt lat="43.5058819" lon="10.619447"><ele>304.0</ele><time>2026-04-18T12:37:32.419Z</time></trkpt><trkpt lat="43.5059436" lon="10.6194257"><ele>302.0</ele><time>2026-04-18T12:37:34.251Z</time></trkpt><trkpt lat="43.5060176" lon="10.6193996"><ele>300.0</ele><time>2026-04-18T12:37:36.248Z</time></trkpt><trkpt lat="43.5061063" lon="10.6193637"><ele>300.0</ele><time>2026-04-18T12:37:38.383Z</time></trkpt><trkpt lat="43.5062075" lon="10.6193285"><ele>300.0</ele><time>2026-04-18T12:37:40.405Z</time></trkpt><trkpt lat="43.5063687" lon="10.6193022"><ele>300.0</ele><time>2026-04-18T12:37:43.252Z</time></trkpt><trkpt lat="43.5064816" lon="10.6193108"><ele>300.0</ele><time>2026-04-18T12:37:45.249Z</time></trkpt><trkpt lat="43.5065872" lon="10.6193113"><ele>298.1666666666667</ele><time>2026-04-18T12:37:47.408Z</time></trkpt><trkpt lat="43.5066926" lon="10.6192793"><ele>296.3333333333333</ele><time>2026-04-18T12:37:50.252Z</time></trkpt><trkpt lat="43.5067525" lon="10.6192506"><ele>294.5</ele><time>2026-04-18T12:37:52.401Z</time></trkpt><trkpt lat="43.5068278" lon="10.6192127"><ele>292.66666666666663</ele><time>2026-04-18T12:37:54.398Z</time></trkpt><trkpt lat="43.5068994" lon="10.6191611"><ele>290.8333333333333</ele><time>2026-04-18T12:37:56.25Z</time></trkpt><trkpt lat="43.5069781" lon="10.6190699"><ele>289.0</ele><time>2026-04-18T12:37:58.245Z</time></trkpt><trkpt lat="43.5070531" lon="10.6189792"><ele>287.0</ele><time>2026-04-18T12:38:00.361Z</time></trkpt><trkpt lat="43.5071495" lon="10.6188696"><ele>285.0</ele><time>2026-04-18T12:38:02.379Z</time></trkpt><trkpt lat="43.5072094" lon="10.6188207"><ele>283.0</ele><time>2026-04-18T12:38:03.398Z</time></trkpt><trkpt lat="43.5073513" lon="10.6187499"><ele>281.0</ele><time>2026-04-18T12:38:05.254Z</time></trkpt><trkpt lat="43.5074335" lon="10.6187198"><ele>279.0</ele><time>2026-04-18T12:38:06.247Z</time></trkpt><trkpt lat="43.5075165" lon="10.6186859"><ele>279.0</ele><time>2026-04-18T12:38:07.253Z</time></trkpt><trkpt lat="43.5075836" lon="10.6186519"><ele>279.0</ele><time>2026-04-18T12:38:08.249Z</time></trkpt><trkpt lat="43.5076791" lon="10.6185718"><ele>279.0</ele><time>2026-04-18T12:38:10.406Z</time></trkpt><trkpt lat="43.5077474" lon="10.6184836"><ele>279.0</ele><time>2026-04-18T12:38:13.403Z</time></trkpt><trkpt lat="43.5078036" lon="10.6183963"><ele>279.0</ele><time>2026-04-18T12:38:15.385Z</time></trkpt><trkpt lat="43.5078701" lon="10.6182949"><ele>279.0</ele><time>2026-04-18T12:38:17.352Z</time></trkpt><trkpt lat="43.5079295" lon="10.618192"><ele>279.0</ele><time>2026-04-18T12:38:19.393Z</time></trkpt><trkpt lat="43.5080075" lon="10.6180373"><ele>279.0</ele><time>2026-04-18T12:38:22.398Z</time></trkpt><trkpt lat="43.5080608" lon="10.6179077"><ele>279.0</ele><time>2026-04-18T12:38:24.399Z</time></trkpt><trkpt lat="43.5081039" lon="10.6177589"><ele>281.0</ele><time>2026-04-18T12:38:26.4Z</time></trkpt><trkpt lat="43.5081568" lon="10.6176047"><ele>283.0</ele><time>2026-04-18T12:38:28.249Z</time></trkpt><trkpt lat="43.5082089" lon="10.6174521"><ele>285.0</ele><time>2026-04-18T12:38:30.388Z</time></trkpt><trkpt lat="43.508266" lon="10.6173046"><ele>287.0</ele><time>2026-04-18T12:38:32.332Z</time></trkpt><trkpt lat="43.5083013" lon="10.6172309"><ele>289.0</ele><time>2026-04-18T12:38:33.4Z</time></trkpt><trkpt lat="43.5083771" lon="10.6170837"><ele>289.0</ele><time>2026-04-18T12:38:35.396Z</time></trkpt><trkpt lat="43.508421" lon="10.617015"><ele>289.0</ele><time>2026-04-18T12:38:36.399Z</time></trkpt><trkpt lat="43.508555" lon="10.6168304"><ele>289.0</ele><time>2026-04-18T12:38:39.252Z</time></trkpt><trkpt lat="43.5086027" lon="10.6167697"><ele>289.0</ele><time>2026-04-18T12:38:40.408Z</time></trkpt><trkpt lat="43.5087097" lon="10.6166483"><ele>289.5</ele><time>2026-04-18T12:38:42.402Z</time></trkpt><trkpt lat="43.5087604" lon="10.6165885"><ele>290.0</ele><time>2026-04-18T12:38:43.356Z</time></trkpt><trkpt lat="43.5088639" lon="10.6164566"><ele>290.5</ele><time>2026-04-18T12:38:46.243Z</time></trkpt><trkpt lat="43.5089252" lon="10.6163686"><ele>291.0</ele><time>2026-04-18T12:38:49.244Z</time></trkpt><trkpt lat="43.5089871" lon="10.6163522"><ele>291.5</ele><time>2026-04-18T12:38:51.247Z</time></trkpt><trkpt lat="43.5090521" lon="10.6164092"><ele>292.0</ele><time>2026-04-18T12:38:53.405Z</time></trkpt><trkpt lat="43.5091046" lon="10.616518"><ele>292.0</ele><time>2026-04-18T12:38:55.357Z</time></trkpt><trkpt lat="43.5091592" lon="10.616619"><ele>292.0</ele><time>2026-04-18T12:38:57.4Z</time></trkpt><trkpt lat="43.5092334" lon="10.6167359"><ele>292.0</ele><time>2026-04-18T12:38:59.403Z</time></trkpt><trkpt lat="43.5092722" lon="10.6168092"><ele>292.0</ele><time>2026-04-18T12:39:00.347Z</time></trkpt><trkpt lat="43.509307" lon="10.6168845"><ele>292.0</ele><time>2026-04-18T12:39:01.408Z</time></trkpt><trkpt lat="43.5093787" lon="10.6170336"><ele>291.0</ele><time>2026-04-18T12:39:03.4Z</time></trkpt><trkpt lat="43.5094192" lon="10.6171152"><ele>290.0</ele><time>2026-04-18T12:39:04.396Z</time></trkpt><trkpt lat="43.509463" lon="10.6171994"><ele>289.0</ele><time>2026-04-18T12:39:05.408Z</time></trkpt><trkpt lat="43.509508" lon="10.6172845"><ele>288.0</ele><time>2026-04-18T12:39:06.398Z</time></trkpt><trkpt lat="43.5095539" lon="10.6173736"><ele>287.0</ele><time>2026-04-18T12:39:07.399Z</time></trkpt><trkpt lat="43.5096499" lon="10.617548"><ele>286.85714285714283</ele><time>2026-04-18T12:39:09.254Z</time></trkpt><trkpt lat="43.5096979" lon="10.6176411"><ele>286.7142857142857</ele><time>2026-04-18T12:39:10.389Z</time></trkpt><trkpt lat="43.5097427" lon="10.6177228"><ele>286.57142857142856</ele><time>2026-04-18T12:39:11.326Z</time></trkpt><trkpt lat="43.5097832" lon="10.6178071"><ele>286.42857142857144</ele><time>2026-04-18T12:39:12.363Z</time></trkpt><trkpt lat="43.5098198" lon="10.617897"><ele>286.2857142857143</ele><time>2026-04-18T12:39:13.408Z</time></trkpt><trkpt lat="43.5098481" lon="10.6179807"><ele>286.1428571428571</ele><time>2026-04-18T12:39:14.365Z</time></trkpt><trkpt lat="43.5098791" lon="10.6180632"><ele>286.0</ele><time>2026-04-18T12:39:15.405Z</time></trkpt><trkpt lat="43.5099087" lon="10.6181401"><ele>285.40000000000003</ele><time>2026-04-18T12:39:16.402Z</time></trkpt><trkpt lat="43.5099365" lon="10.6182184"><ele>284.8</ele><time>2026-04-18T12:39:17.321Z</time></trkpt><trkpt lat="43.5099615" lon="10.6182999"><ele>284.20000000000005</ele><time>2026-04-18T12:39:18.256Z</time></trkpt><trkpt lat="43.510012" lon="10.6184567"><ele>283.6</ele><time>2026-04-18T12:39:20.394Z</time></trkpt><trkpt lat="43.510095" lon="10.6185701"><ele>283.0</ele><time>2026-04-18T12:39:22.343Z</time></trkpt><trkpt lat="43.5102122" lon="10.6185815"><ele>283.0</ele><time>2026-04-18T12:39:24.4Z</time></trkpt><trkpt lat="43.5103293" lon="10.6185031"><ele>283.0</ele><time>2026-04-18T12:39:26.396Z</time></trkpt><trkpt lat="43.5103927" lon="10.618445"><ele>283.0</ele><time>2026-04-18T12:39:27.376Z</time></trkpt><trkpt lat="43.5104649" lon="10.6183802"><ele>283.0</ele><time>2026-04-18T12:39:28.403Z</time></trkpt><trkpt lat="43.5105379" lon="10.6183159"><ele>283.0</ele><time>2026-04-18T12:39:29.396Z</time></trkpt><trkpt lat="43.5106099" lon="10.6182616"><ele>281.3333333333333</ele><time>2026-04-18T12:39:30.394Z</time></trkpt><trkpt lat="43.5106806" lon="10.6182205"><ele>279.66666666666663</ele><time>2026-04-18T12:39:31.371Z</time></trkpt><trkpt lat="43.5107531" lon="10.6181908"><ele>278.0</ele><time>2026-04-18T12:39:32.396Z</time></trkpt><trkpt lat="43.5108319" lon="10.618178"><ele>276.3333333333333</ele><time>2026-04-18T12:39:33.355Z</time></trkpt><trkpt lat="43.5109149" lon="10.6181836"><ele>274.6666666666667</ele><time>2026-04-18T12:39:34.394Z</time></trkpt><trkpt lat="43.5109962" lon="10.6181971"><ele>273.0</ele><time>2026-04-18T12:39:35.378Z</time></trkpt><trkpt lat="43.5111659" lon="10.6182299"><ele>271.2</ele><time>2026-04-18T12:39:37.255Z</time></trkpt><trkpt lat="43.5112517" lon="10.6182508"><ele>269.4</ele><time>2026-04-18T12:39:38.259Z</time></trkpt><trkpt lat="43.5113415" lon="10.6182718"><ele>267.59999999999997</ele><time>2026-04-18T12:39:39.252Z</time></trkpt><trkpt lat="43.511434" lon="10.6182909"><ele>265.8</ele><time>2026-04-18T12:39:40.251Z</time></trkpt><trkpt lat="43.5115262" lon="10.6183143"><ele>264.0</ele><time>2026-04-18T12:39:41.25Z</time></trkpt><trkpt lat="43.5116178" lon="10.6183406"><ele>264.0</ele><time>2026-04-18T12:39:42.396Z</time></trkpt><trkpt lat="43.5117112" lon="10.6183796"><ele>264.0</ele><time>2026-04-18T12:39:43.389Z</time></trkpt><trkpt lat="43.5118048" lon="10.6184307"><ele>264.0</ele><time>2026-04-18T12:39:44.399Z</time></trkpt><trkpt lat="43.5118896" lon="10.6185"><ele>264.0</ele><time>2026-04-18T12:39:45.362Z</time></trkpt><trkpt lat="43.5119721" lon="10.6185792"><ele>264.0</ele><time>2026-04-18T12:39:46.394Z</time></trkpt><trkpt lat="43.5120536" lon="10.6186665"><ele>261.75</ele><time>2026-04-18T12:39:47.311Z</time></trkpt><trkpt lat="43.5121399" lon="10.6187494"><ele>259.5</ele><time>2026-04-18T12:39:48.391Z</time></trkpt><trkpt lat="43.5122305" lon="10.618823"><ele>257.25</ele><time>2026-04-18T12:39:49.399Z</time></trkpt><trkpt lat="43.512431" lon="10.6189401"><ele>255.0</ele><time>2026-04-18T12:39:51.393Z</time></trkpt><trkpt lat="43.5125354" lon="10.6189898"><ele>255.0</ele><time>2026-04-18T12:39:52.356Z</time></trkpt><trkpt lat="43.5126413" lon="10.6190412"><ele>255.0</ele><time>2026-04-18T12:39:53.39Z</time></trkpt><trkpt lat="43.5127487" lon="10.6190901"><ele>255.0</ele><time>2026-04-18T12:39:54.394Z</time></trkpt><trkpt lat="43.512858" lon="10.61914"><ele>255.0</ele><time>2026-04-18T12:39:55.397Z</time></trkpt><trkpt lat="43.5129726" lon="10.6191936"><ele>252.75</ele><time>2026-04-18T12:39:56.358Z</time></trkpt><trkpt lat="43.5130881" lon="10.619248"><ele>250.5</ele><time>2026-04-18T12:39:57.4Z</time></trkpt><trkpt lat="43.5132073" lon="10.6193031"><ele>248.25</ele><time>2026-04-18T12:39:58.386Z</time></trkpt><trkpt lat="43.5133308" lon="10.61936"><ele>246.0</ele><time>2026-04-18T12:39:59.404Z</time></trkpt><trkpt lat="43.5134509" lon="10.6194179"><ele>246.0</ele><time>2026-04-18T12:40:00.401Z</time></trkpt><trkpt lat="43.5135662" lon="10.6194739"><ele>246.0</ele><time>2026-04-18T12:40:01.403Z</time></trkpt><trkpt lat="43.5136741" lon="10.6195251"><ele>246.0</ele><time>2026-04-18T12:40:02.388Z</time></trkpt><trkpt lat="43.5138565" lon="10.6196103"><ele>246.0</ele><time>2026-04-18T12:40:04.256Z</time></trkpt><trkpt lat="43.5139312" lon="10.6196505"><ele>244.0</ele><time>2026-04-18T12:40:05.399Z</time></trkpt><trkpt lat="43.5139947" lon="10.6196988"><ele>242.00000000000003</ele><time>2026-04-18T12:40:06.393Z</time></trkpt><trkpt lat="43.5140417" lon="10.6197732"><ele>240.00000000000003</ele><time>2026-04-18T12:40:07.401Z</time></trkpt><trkpt lat="43.5140706" lon="10.6198651"><ele>238.0</ele><time>2026-04-18T12:40:08.395Z</time></trkpt><trkpt lat="43.5140662" lon="10.6200927"><ele>236.0</ele><time>2026-04-18T12:40:10.251Z</time></trkpt><trkpt lat="43.5140294" lon="10.6202135"><ele>235.60000000000002</ele><time>2026-04-18T12:40:11.406Z</time></trkpt><trkpt lat="43.5139693" lon="10.6203363"><ele>235.20000000000002</ele><time>2026-04-18T12:40:12.379Z</time></trkpt><trkpt lat="43.5138975" lon="10.6204561"><ele>234.79999999999998</ele><time>2026-04-18T12:40:13.369Z</time></trkpt><trkpt lat="43.5138208" lon="10.6205639"><ele>234.39999999999998</ele><time>2026-04-18T12:40:14.352Z</time></trkpt><trkpt lat="43.5137473" lon="10.6206675"><ele>234.0</ele><time>2026-04-18T12:40:15.345Z</time></trkpt><trkpt lat="43.5136756" lon="10.6207708"><ele>234.0</ele><time>2026-04-18T12:40:16.388Z</time></trkpt><trkpt lat="43.5136122" lon="10.6208568"><ele>233.99999999999997</ele><time>2026-04-18T12:40:17.398Z</time></trkpt><trkpt lat="43.5134945" lon="10.621023"><ele>233.99999999999997</ele><time>2026-04-18T12:40:19.377Z</time></trkpt><trkpt lat="43.5134555" lon="10.6211234"><ele>234.0</ele><time>2026-04-18T12:40:20.394Z</time></trkpt><trkpt lat="43.513445" lon="10.6212397"><ele>234.0</ele><time>2026-04-18T12:40:21.345Z</time></trkpt><trkpt lat="43.5134625" lon="10.6213574"><ele>232.39999999999998</ele><time>2026-04-18T12:40:22.389Z</time></trkpt><trkpt lat="43.5135129" lon="10.6214614"><ele>230.79999999999998</ele><time>2026-04-18T12:40:23.352Z</time></trkpt><trkpt lat="43.5135867" lon="10.6215386"><ele>229.20000000000002</ele><time>2026-04-18T12:40:24.397Z</time></trkpt><trkpt lat="43.5136746" lon="10.6215887"><ele>227.60000000000002</ele><time>2026-04-18T12:40:25.407Z</time></trkpt><trkpt lat="43.5137726" lon="10.6216186"><ele>226.0</ele><time>2026-04-18T12:40:26.407Z</time></trkpt><trkpt lat="43.5139862" lon="10.6216838"><ele>225.25</ele><time>2026-04-18T12:40:28.399Z</time></trkpt><trkpt lat="43.5140987" lon="10.6217413"><ele>224.5</ele><time>2026-04-18T12:40:29.357Z</time></trkpt><trkpt lat="43.5142084" lon="10.6218199"><ele>223.75</ele><time>2026-04-18T12:40:30.398Z</time></trkpt><trkpt lat="43.514323" lon="10.6219051"><ele>223.0</ele><time>2026-04-18T12:40:31.405Z</time></trkpt><trkpt lat="43.5144439" lon="10.6219843"><ele>220.75</ele><time>2026-04-18T12:40:32.404Z</time></trkpt><trkpt lat="43.5145747" lon="10.6220498"><ele>218.5</ele><time>2026-04-18T12:40:33.387Z</time></trkpt><trkpt lat="43.5147125" lon="10.6220991"><ele>216.25</ele><time>2026-04-18T12:40:34.365Z</time></trkpt><trkpt lat="43.5148554" lon="10.622135"><ele>214.0</ele><time>2026-04-18T12:40:35.396Z</time></trkpt><trkpt lat="43.5150039" lon="10.6221626"><ele>214.0</ele><time>2026-04-18T12:40:36.399Z</time></trkpt><trkpt lat="43.515157" lon="10.6221798"><ele>214.0</ele><time>2026-04-18T12:40:37.397Z</time></trkpt><trkpt lat="43.5153148" lon="10.6221919"><ele>214.0</ele><time>2026-04-18T12:40:38.397Z</time></trkpt><trkpt lat="43.5156365" lon="10.6221973"><ele>212.5</ele><time>2026-04-18T12:40:40.254Z</time></trkpt><trkpt lat="43.5157896" lon="10.6222016"><ele>211.0</ele><time>2026-04-18T12:40:41.4Z</time></trkpt><trkpt lat="43.5159392" lon="10.6222151"><ele>209.5</ele><time>2026-04-18T12:40:42.392Z</time></trkpt><trkpt lat="43.5160818" lon="10.6222503"><ele>208.0</ele><time>2026-04-18T12:40:43.394Z</time></trkpt><trkpt lat="43.5162156" lon="10.6223117"><ele>206.75</ele><time>2026-04-18T12:40:44.401Z</time></trkpt><trkpt lat="43.5163445" lon="10.622397"><ele>205.5</ele><time>2026-04-18T12:40:45.398Z</time></trkpt><trkpt lat="43.5164568" lon="10.6225057"><ele>204.25</ele><time>2026-04-18T12:40:46.405Z</time></trkpt><trkpt lat="43.5165557" lon="10.6226346"><ele>203.0</ele><time>2026-04-18T12:40:47.394Z</time></trkpt><trkpt lat="43.5166508" lon="10.6227866"><ele>202.66666666666669</ele><time>2026-04-18T12:40:48.406Z</time></trkpt><trkpt lat="43.5167955" lon="10.6231311"><ele>202.33333333333331</ele><time>2026-04-18T12:40:50.397Z</time></trkpt><trkpt lat="43.5168491" lon="10.6233012"><ele>202.0</ele><time>2026-04-18T12:40:51.401Z</time></trkpt><trkpt lat="43.5168944" lon="10.6234562"><ele>202.0</ele><time>2026-04-18T12:40:52.406Z</time></trkpt><trkpt lat="43.516933" lon="10.6236028"><ele>202.0</ele><time>2026-04-18T12:40:53.396Z</time></trkpt><trkpt lat="43.5169703" lon="10.6237353"><ele>202.0</ele><time>2026-04-18T12:40:54.397Z</time></trkpt><trkpt lat="43.5170186" lon="10.6238571"><ele>202.0</ele><time>2026-04-18T12:40:55.364Z</time></trkpt><trkpt lat="43.5170854" lon="10.62396"><ele>202.0</ele><time>2026-04-18T12:40:56.402Z</time></trkpt><trkpt lat="43.5171756" lon="10.62404"><ele>198.66666666666666</ele><time>2026-04-18T12:40:57.389Z</time></trkpt><trkpt lat="43.5172831" lon="10.6241047"><ele>195.33333333333331</ele><time>2026-04-18T12:40:58.4Z</time></trkpt><trkpt lat="43.5174038" lon="10.6241528"><ele>192.0</ele><time>2026-04-18T12:40:59.396Z</time></trkpt><trkpt lat="43.5176756" lon="10.6242271"><ele>192.0</ele><time>2026-04-18T12:41:01.392Z</time></trkpt><trkpt lat="43.5178244" lon="10.624265"><ele>192.0</ele><time>2026-04-18T12:41:02.397Z</time></trkpt><trkpt lat="43.517981" lon="10.6243016"><ele>192.0</ele><time>2026-04-18T12:41:03.395Z</time></trkpt><trkpt lat="43.5181429" lon="10.6243438"><ele>188.0</ele><time>2026-04-18T12:41:04.395Z</time></trkpt><trkpt lat="43.5183021" lon="10.6243857"><ele>184.0</ele><time>2026-04-18T12:41:05.398Z</time></trkpt><trkpt lat="43.518458" lon="10.6244281"><ele>180.0</ele><time>2026-04-18T12:41:06.399Z</time></trkpt><trkpt lat="43.5186094" lon="10.6244697"><ele>178.0</ele><time>2026-04-18T12:41:07.25Z</time></trkpt><trkpt lat="43.5187488" lon="10.6245029"><ele>176.0</ele><time>2026-04-18T12:41:08.25Z</time></trkpt><trkpt lat="43.5188735" lon="10.6245361"><ele>174.0</ele><time>2026-04-18T12:41:09.398Z</time></trkpt><trkpt lat="43.5189852" lon="10.6245671"><ele>172.0</ele><time>2026-04-18T12:41:10.308Z</time></trkpt><trkpt lat="43.5190845" lon="10.6245909"><ele>172.0</ele><time>2026-04-18T12:41:11.253Z</time></trkpt><trkpt lat="43.5191722" lon="10.6246171"><ele>172.0</ele><time>2026-04-18T12:41:12.392Z</time></trkpt><trkpt lat="43.5192549" lon="10.6246465"><ele>172.0</ele><time>2026-04-18T12:41:13.398Z</time></trkpt><trkpt lat="43.5193281" lon="10.6246811"><ele>172.0</ele><time>2026-04-18T12:41:14.402Z</time></trkpt><trkpt lat="43.5193923" lon="10.6247075"><ele>172.0</ele><time>2026-04-18T12:41:15.401Z</time></trkpt><trkpt lat="43.5194994" lon="10.6247339"><ele>172.0</ele><time>2026-04-18T12:41:17.386Z</time></trkpt><trkpt lat="43.5196096" lon="10.6246528"><ele>170.5</ele><time>2026-04-18T12:41:19.409Z</time></trkpt><trkpt lat="43.5196731" lon="10.6245764"><ele>169.0</ele><time>2026-04-18T12:41:20.405Z</time></trkpt><trkpt lat="43.5198319" lon="10.6243813"><ele>167.5</ele><time>2026-04-18T12:41:22.245Z</time></trkpt><trkpt lat="43.5199201" lon="10.6242696"><ele>166.0</ele><time>2026-04-18T12:41:23.262Z</time></trkpt><trkpt lat="43.5200122" lon="10.6241534"><ele>166.0</ele><time>2026-04-18T12:41:24.403Z</time></trkpt><trkpt lat="43.5201061" lon="10.624033"><ele>166.0</ele><time>2026-04-18T12:41:25.402Z</time></trkpt><trkpt lat="43.5202051" lon="10.6239105"><ele>166.0</ele><time>2026-04-18T12:41:26.392Z</time></trkpt><trkpt lat="43.5203037" lon="10.6237866"><ele>166.0</ele><time>2026-04-18T12:41:27.397Z</time></trkpt><trkpt lat="43.5204053" lon="10.6236644"><ele>163.5</ele><time>2026-04-18T12:41:28.398Z</time></trkpt><trkpt lat="43.520503" lon="10.6235387"><ele>161.0</ele><time>2026-04-18T12:41:29.368Z</time></trkpt><trkpt lat="43.5206093" lon="10.6234121"><ele>158.5</ele><time>2026-04-18T12:41:30.395Z</time></trkpt><trkpt lat="43.5207161" lon="10.623281"><ele>156.0</ele><time>2026-04-18T12:41:31.356Z</time></trkpt><trkpt lat="43.5208211" lon="10.6231533"><ele>156.0</ele><time>2026-04-18T12:41:32.414Z</time></trkpt><trkpt lat="43.520927" lon="10.6230231"><ele>156.0</ele><time>2026-04-18T12:41:33.408Z</time></trkpt><trkpt lat="43.5210327" lon="10.6228896"><ele>156.0</ele><time>2026-04-18T12:41:34.411Z</time></trkpt><trkpt lat="43.5211415" lon="10.6227567"><ele>156.0</ele><time>2026-04-18T12:41:35.256Z</time></trkpt><trkpt lat="43.521246" lon="10.6226243"><ele>154.5</ele><time>2026-04-18T12:41:36.387Z</time></trkpt><trkpt lat="43.5213453" lon="10.6224946"><ele>153.0</ele><time>2026-04-18T12:41:37.359Z</time></trkpt><trkpt lat="43.5214457" lon="10.6223678"><ele>151.5</ele><time>2026-04-18T12:41:38.316Z</time></trkpt><trkpt lat="43.5215421" lon="10.6222438"><ele>150.0</ele><time>2026-04-18T12:41:39.254Z</time></trkpt><trkpt lat="43.521631" lon="10.6221191"><ele>150.0</ele><time>2026-04-18T12:41:40.322Z</time></trkpt><trkpt lat="43.5217033" lon="10.6219844"><ele>150.0</ele><time>2026-04-18T12:41:41.25Z</time></trkpt><trkpt lat="43.5217625" lon="10.6218364"><ele>150.0</ele><time>2026-04-18T12:41:42.25Z</time></trkpt><trkpt lat="43.5218083" lon="10.6216871"><ele>150.0</ele><time>2026-04-18T12:41:43.389Z</time></trkpt><trkpt lat="43.5218355" lon="10.6215323"><ele>148.66666666666666</ele><time>2026-04-18T12:41:44.399Z</time></trkpt><trkpt lat="43.5218477" lon="10.6212192"><ele>147.33333333333331</ele><time>2026-04-18T12:41:46.399Z</time></trkpt><trkpt lat="43.5218413" lon="10.6210549"><ele>146.0</ele><time>2026-04-18T12:41:47.392Z</time></trkpt><trkpt lat="43.5218317" lon="10.6208824"><ele>145.5</ele><time>2026-04-18T12:41:48.362Z</time></trkpt><trkpt lat="43.5218204" lon="10.6207076"><ele>145.0</ele><time>2026-04-18T12:41:49.401Z</time></trkpt><trkpt lat="43.5218088" lon="10.6205286"><ele>144.5</ele><time>2026-04-18T12:41:50.387Z</time></trkpt><trkpt lat="43.5217968" lon="10.6203502"><ele>144.0</ele><time>2026-04-18T12:41:51.403Z</time></trkpt><trkpt lat="43.521784" lon="10.6201777"><ele>142.75</ele><time>2026-04-18T12:41:52.404Z</time></trkpt><trkpt lat="43.5217692" lon="10.620012"><ele>141.5</ele><time>2026-04-18T12:41:53.405Z</time></trkpt><trkpt lat="43.5217573" lon="10.619852"><ele>140.25</ele><time>2026-04-18T12:41:54.385Z</time></trkpt><trkpt lat="43.521752" lon="10.6196948"><ele>139.0</ele><time>2026-04-18T12:41:55.4Z</time></trkpt><trkpt lat="43.5217616" lon="10.6195412"><ele>137.25</ele><time>2026-04-18T12:41:56.36Z</time></trkpt><trkpt lat="43.521793" lon="10.6193956"><ele>135.5</ele><time>2026-04-18T12:41:57.402Z</time></trkpt><trkpt lat="43.5219112" lon="10.6191377"><ele>133.75</ele><time>2026-04-18T12:41:59.39Z</time></trkpt><trkpt lat="43.5219782" lon="10.6190298"><ele>132.0</ele><time>2026-04-18T12:42:00.396Z</time></trkpt><trkpt lat="43.5220457" lon="10.6189326"><ele>131.66666666666666</ele><time>2026-04-18T12:42:01.391Z</time></trkpt><trkpt lat="43.5221151" lon="10.6188485"><ele>131.33333333333334</ele><time>2026-04-18T12:42:02.357Z</time></trkpt><trkpt lat="43.5221958" lon="10.618794"><ele>131.0</ele><time>2026-04-18T12:42:03.395Z</time></trkpt><trkpt lat="43.5222756" lon="10.6187865"><ele>130.66666666666669</ele><time>2026-04-18T12:42:04.4Z</time></trkpt><trkpt lat="43.522355" lon="10.6188178"><ele>130.33333333333334</ele><time>2026-04-18T12:42:05.398Z</time></trkpt><trkpt lat="43.5224383" lon="10.6188717"><ele>130.0</ele><time>2026-04-18T12:42:06.389Z</time></trkpt><trkpt lat="43.5225276" lon="10.6189421"><ele>130.0</ele><time>2026-04-18T12:42:07.404Z</time></trkpt><trkpt lat="43.5226312" lon="10.619016"><ele>130.0</ele><time>2026-04-18T12:42:08.412Z</time></trkpt><trkpt lat="43.5228604" lon="10.619157"><ele>130.0</ele><time>2026-04-18T12:42:10.244Z</time></trkpt><trkpt lat="43.5229811" lon="10.6192186"><ele>130.66666666666669</ele><time>2026-04-18T12:42:11.402Z</time></trkpt><trkpt lat="43.5230972" lon="10.6192719"><ele>131.33333333333334</ele><time>2026-04-18T12:42:12.399Z</time></trkpt><trkpt lat="43.5232133" lon="10.619323"><ele>132.0</ele><time>2026-04-18T12:42:13.401Z</time></trkpt><trkpt lat="43.5234313" lon="10.619427"><ele>132.0</ele><time>2026-04-18T12:42:15.396Z</time></trkpt><trkpt lat="43.5235404" lon="10.6194792"><ele>132.0</ele><time>2026-04-18T12:42:16.393Z</time></trkpt><trkpt lat="43.5236488" lon="10.6195294"><ele>132.0</ele><time>2026-04-18T12:42:17.351Z</time></trkpt><trkpt lat="43.5237621" lon="10.6195836"><ele>132.0</ele><time>2026-04-18T12:42:18.38Z</time></trkpt><trkpt lat="43.523982" lon="10.6197026"><ele>128.0</ele><time>2026-04-18T12:42:20.254Z</time></trkpt><trkpt lat="43.5242663" lon="10.6200017"><ele>124.0</ele><time>2026-04-18T12:42:23.249Z</time></trkpt><trkpt lat="43.5243399" lon="10.6201353"><ele>124.0</ele><time>2026-04-18T12:42:24.404Z</time></trkpt><trkpt lat="43.5244124" lon="10.620266"><ele>124.0</ele><time>2026-04-18T12:42:25.347Z</time></trkpt><trkpt lat="43.5244842" lon="10.6203923"><ele>124.0</ele><time>2026-04-18T12:42:26.362Z</time></trkpt><trkpt lat="43.5245572" lon="10.6205224"><ele>124.0</ele><time>2026-04-18T12:42:27.361Z</time></trkpt><trkpt lat="43.5246301" lon="10.6206538"><ele>122.75</ele><time>2026-04-18T12:42:28.364Z</time></trkpt><trkpt lat="43.5247005" lon="10.620792"><ele>121.5</ele><time>2026-04-18T12:42:29.356Z</time></trkpt><trkpt lat="43.5247726" lon="10.6209294"><ele>120.25</ele><time>2026-04-18T12:42:30.396Z</time></trkpt><trkpt lat="43.5248447" lon="10.6210665"><ele>119.0</ele><time>2026-04-18T12:42:31.385Z</time></trkpt><trkpt lat="43.5249226" lon="10.6211963"><ele>117.33333333333333</ele><time>2026-04-18T12:42:32.406Z</time></trkpt><trkpt lat="43.5251123" lon="10.6214028"><ele>115.66666666666666</ele><time>2026-04-18T12:42:34.359Z</time></trkpt><trkpt lat="43.5252256" lon="10.6214728"><ele>114.0</ele><time>2026-04-18T12:42:35.4Z</time></trkpt><trkpt lat="43.5253453" lon="10.6215204"><ele>113.66666666666666</ele><time>2026-04-18T12:42:36.393Z</time></trkpt><trkpt lat="43.5254717" lon="10.6215396"><ele>113.33333333333333</ele><time>2026-04-18T12:42:37.404Z</time></trkpt><trkpt lat="43.5255975" lon="10.6215453"><ele>113.0</ele><time>2026-04-18T12:42:38.394Z</time></trkpt><trkpt lat="43.525852" lon="10.6215403"><ele>113.0</ele><time>2026-04-18T12:42:40.258Z</time></trkpt><trkpt lat="43.5259811" lon="10.6215407"><ele>113.0</ele><time>2026-04-18T12:42:41.255Z</time></trkpt><trkpt lat="43.5261087" lon="10.6215441"><ele>113.0</ele><time>2026-04-18T12:42:42.396Z</time></trkpt><trkpt lat="43.5262308" lon="10.6215465"><ele>113.0</ele><time>2026-04-18T12:42:43.405Z</time></trkpt><trkpt lat="43.5263503" lon="10.6215487"><ele>112.25</ele><time>2026-04-18T12:42:44.403Z</time></trkpt><trkpt lat="43.5264717" lon="10.6215505"><ele>111.5</ele><time>2026-04-18T12:42:45.415Z</time></trkpt><trkpt lat="43.5265935" lon="10.6215523"><ele>110.75</ele><time>2026-04-18T12:42:46.387Z</time></trkpt><trkpt lat="43.5267075" lon="10.6215583"><ele>110.0</ele><time>2026-04-18T12:42:47.393Z</time></trkpt><trkpt lat="43.5268104" lon="10.6215641"><ele>110.0</ele><time>2026-04-18T12:42:48.403Z</time></trkpt><trkpt lat="43.5268993" lon="10.6215719"><ele>110.0</ele><time>2026-04-18T12:42:49.395Z</time></trkpt><trkpt lat="43.5269698" lon="10.6215779"><ele>110.0</ele><time>2026-04-18T12:42:50.393Z</time></trkpt><trkpt lat="43.5270882" lon="10.621587"><ele>110.0</ele><time>2026-04-18T12:42:52.401Z</time></trkpt><trkpt lat="43.5272048" lon="10.6215897"><ele>110.0</ele><time>2026-04-18T12:42:54.407Z</time></trkpt><trkpt lat="43.5272759" lon="10.6215907"><ele>109.0</ele><time>2026-04-18T12:42:55.398Z</time></trkpt><trkpt lat="43.5273573" lon="10.621589"><ele>108.0</ele><time>2026-04-18T12:42:56.405Z</time></trkpt><trkpt lat="43.5274507" lon="10.6215801"><ele>107.0</ele><time>2026-04-18T12:42:57.406Z</time></trkpt><trkpt lat="43.5275506" lon="10.6215531"><ele>106.0</ele><time>2026-04-18T12:42:58.4Z</time></trkpt><trkpt lat="43.5276525" lon="10.6215087"><ele>105.0</ele><time>2026-04-18T12:42:59.393Z</time></trkpt><trkpt lat="43.527754" lon="10.6214546"><ele>105.0</ele><time>2026-04-18T12:43:00.404Z</time></trkpt><trkpt lat="43.5278592" lon="10.6213983"><ele>105.0</ele><time>2026-04-18T12:43:01.396Z</time></trkpt><trkpt lat="43.5279717" lon="10.62134"><ele>105.0</ele><time>2026-04-18T12:43:02.395Z</time></trkpt><trkpt lat="43.5281059" lon="10.6212637"><ele>105.0</ele><time>2026-04-18T12:43:03.37Z</time></trkpt><trkpt lat="43.5284436" lon="10.6210899"><ele>105.0</ele><time>2026-04-18T12:43:05.245Z</time></trkpt><trkpt lat="43.5286132" lon="10.6210242"><ele>105.0</ele><time>2026-04-18T12:43:06.254Z</time></trkpt><trkpt lat="43.5287742" lon="10.6209676"><ele>105.0</ele><time>2026-04-18T12:43:07.251Z</time></trkpt><trkpt lat="43.5289284" lon="10.6209177"><ele>103.5</ele><time>2026-04-18T12:43:08.251Z</time></trkpt><trkpt lat="43.5290773" lon="10.6208817"><ele>102.0</ele><time>2026-04-18T12:43:09.254Z</time></trkpt><trkpt lat="43.5292219" lon="10.6208621"><ele>100.5</ele><time>2026-04-18T12:43:10.251Z</time></trkpt><trkpt lat="43.5293687" lon="10.6208553"><ele>99.0</ele><time>2026-04-18T12:43:11.402Z</time></trkpt><trkpt lat="43.5295178" lon="10.6208621"><ele>97.66666666666667</ele><time>2026-04-18T12:43:12.385Z</time></trkpt><trkpt lat="43.5296735" lon="10.6208837"><ele>96.33333333333334</ele><time>2026-04-18T12:43:13.395Z</time></trkpt><trkpt lat="43.5298259" lon="10.6209169"><ele>95.0</ele><time>2026-04-18T12:43:14.403Z</time></trkpt><trkpt lat="43.5299736" lon="10.620954"><ele>95.0</ele><time>2026-04-18T12:43:15.405Z</time></trkpt><trkpt lat="43.5301125" lon="10.6209912"><ele>95.0</ele><time>2026-04-18T12:43:16.395Z</time></trkpt><trkpt lat="43.5302467" lon="10.6210295"><ele>95.0</ele><time>2026-04-18T12:43:17.393Z</time></trkpt><trkpt lat="43.5303766" lon="10.6210654"><ele>95.0</ele><time>2026-04-18T12:43:18.341Z</time></trkpt><trkpt lat="43.5305027" lon="10.6210882"><ele>93.25</ele><time>2026-04-18T12:43:19.353Z</time></trkpt><trkpt lat="43.5306295" lon="10.6210875"><ele>91.5</ele><time>2026-04-18T12:43:20.333Z</time></trkpt><trkpt lat="43.5307495" lon="10.6210556"><ele>89.75</ele><time>2026-04-18T12:43:21.345Z</time></trkpt><trkpt lat="43.530859" lon="10.6209931"><ele>88.0</ele><time>2026-04-18T12:43:22.363Z</time></trkpt><trkpt lat="43.5310381" lon="10.6207734"><ele>88.0</ele><time>2026-04-18T12:43:24.352Z</time></trkpt><trkpt lat="43.5311079" lon="10.6206281"><ele>88.0</ele><time>2026-04-18T12:43:25.34Z</time></trkpt><trkpt lat="43.5311733" lon="10.6204712"><ele>88.0</ele><time>2026-04-18T12:43:26.247Z</time></trkpt><trkpt lat="43.5312384" lon="10.6203067"><ele>88.0</ele><time>2026-04-18T12:43:27.252Z</time></trkpt><trkpt lat="43.5313055" lon="10.6201426"><ele>86.0</ele><time>2026-04-18T12:43:28.248Z</time></trkpt><trkpt lat="43.5313756" lon="10.6199833"><ele>84.0</ele><time>2026-04-18T12:43:29.25Z</time></trkpt><trkpt lat="43.531457" lon="10.6198316"><ele>82.0</ele><time>2026-04-18T12:43:30.247Z</time></trkpt><trkpt lat="43.5315545" lon="10.6196928"><ele>80.0</ele><time>2026-04-18T12:43:31.251Z</time></trkpt><trkpt lat="43.531665" lon="10.6195711"><ele>80.25</ele><time>2026-04-18T12:43:32.253Z</time></trkpt><trkpt lat="43.5317928" lon="10.6194759"><ele>80.5</ele><time>2026-04-18T12:43:33.25Z</time></trkpt><trkpt lat="43.5319318" lon="10.6194083"><ele>80.75</ele><time>2026-04-18T12:43:34.252Z</time></trkpt><trkpt lat="43.5320721" lon="10.619354"><ele>81.0</ele><time>2026-04-18T12:43:35.251Z</time></trkpt><trkpt lat="43.5322164" lon="10.6193472"><ele>78.33333333333333</ele><time>2026-04-18T12:43:36.323Z</time></trkpt><trkpt lat="43.5323619" lon="10.6193541"><ele>75.66666666666666</ele><time>2026-04-18T12:43:37.361Z</time></trkpt><trkpt lat="43.5325061" lon="10.6193845"><ele>73.0</ele><time>2026-04-18T12:43:38.374Z</time></trkpt><trkpt lat="43.5327964" lon="10.6194612"><ele>71.66666666666666</ele><time>2026-04-18T12:43:40.249Z</time></trkpt><trkpt lat="43.5329415" lon="10.6195009"><ele>70.33333333333333</ele><time>2026-04-18T12:43:41.366Z</time></trkpt><trkpt lat="43.5330874" lon="10.6195451"><ele>69.0</ele><time>2026-04-18T12:43:42.35Z</time></trkpt><trkpt lat="43.533238" lon="10.6195905"><ele>69.0</ele><time>2026-04-18T12:43:43.373Z</time></trkpt><trkpt lat="43.5333857" lon="10.6196339"><ele>69.0</ele><time>2026-04-18T12:43:44.344Z</time></trkpt><trkpt lat="43.5335369" lon="10.6196777"><ele>69.0</ele><time>2026-04-18T12:43:45.372Z</time></trkpt><trkpt lat="43.5336889" lon="10.6197194"><ele>68.66666666666667</ele><time>2026-04-18T12:43:46.367Z</time></trkpt><trkpt lat="43.5338449" lon="10.6197655"><ele>68.33333333333334</ele><time>2026-04-18T12:43:47.351Z</time></trkpt><trkpt lat="43.533997" lon="10.6198126"><ele>68.0</ele><time>2026-04-18T12:43:48.257Z</time></trkpt><trkpt lat="43.5341554" lon="10.6198623"><ele>68.0</ele><time>2026-04-18T12:43:49.339Z</time></trkpt><trkpt lat="43.5343157" lon="10.619902"><ele>68.0</ele><time>2026-04-18T12:43:50.352Z</time></trkpt><trkpt lat="43.5344704" lon="10.6199185"><ele>68.0</ele><time>2026-04-18T12:43:51.368Z</time></trkpt><trkpt lat="43.5346231" lon="10.6198981"><ele>67.66666666666667</ele><time>2026-04-18T12:43:52.341Z</time></trkpt><trkpt lat="43.5347795" lon="10.6198643"><ele>67.33333333333333</ele><time>2026-04-18T12:43:53.374Z</time></trkpt><trkpt lat="43.5349397" lon="10.619826"><ele>67.0</ele><time>2026-04-18T12:43:54.35Z</time></trkpt><trkpt lat="43.5350992" lon="10.6197842"><ele>67.0</ele><time>2026-04-18T12:43:55.373Z</time></trkpt><trkpt lat="43.5352668" lon="10.6197413"><ele>67.0</ele><time>2026-04-18T12:43:56.348Z</time></trkpt><trkpt lat="43.5354356" lon="10.619693"><ele>67.0</ele><time>2026-04-18T12:43:57.349Z</time></trkpt><trkpt lat="43.5356062" lon="10.6196486"><ele>66.0</ele><time>2026-04-18T12:43:58.339Z</time></trkpt><trkpt lat="43.5357748" lon="10.6196029"><ele>65.0</ele><time>2026-04-18T12:43:59.37Z</time></trkpt><trkpt lat="43.5359459" lon="10.6195573"><ele>64.0</ele><time>2026-04-18T12:44:00.362Z</time></trkpt><trkpt lat="43.5361139" lon="10.6195084"><ele>64.66666666666666</ele><time>2026-04-18T12:44:01.373Z</time></trkpt><trkpt lat="43.5362802" lon="10.6194621"><ele>65.33333333333333</ele><time>2026-04-18T12:44:02.375Z</time></trkpt><trkpt lat="43.5364467" lon="10.6194167"><ele>66.0</ele><time>2026-04-18T12:44:03.367Z</time></trkpt><trkpt lat="43.5366133" lon="10.6193734"><ele>66.0</ele><time>2026-04-18T12:44:04.349Z</time></trkpt><trkpt lat="43.5367868" lon="10.6193381"><ele>66.0</ele><time>2026-04-18T12:44:05.365Z</time></trkpt><trkpt lat="43.5369517" lon="10.6193075"><ele>66.0</ele><time>2026-04-18T12:44:06.347Z</time></trkpt><trkpt lat="43.5371225" lon="10.6192843"><ele>65.66666666666667</ele><time>2026-04-18T12:44:07.37Z</time></trkpt><trkpt lat="43.5372945" lon="10.6192672"><ele>65.33333333333334</ele><time>2026-04-18T12:44:08.348Z</time></trkpt><trkpt lat="43.5374636" lon="10.6192547"><ele>65.0</ele><time>2026-04-18T12:44:09.249Z</time></trkpt><trkpt lat="43.5376309" lon="10.6192439"><ele>65.0</ele><time>2026-04-18T12:44:10.25Z</time></trkpt><trkpt lat="43.5378033" lon="10.6192349"><ele>65.0</ele><time>2026-04-18T12:44:11.25Z</time></trkpt><trkpt lat="43.5379736" lon="10.6192273"><ele>65.0</ele><time>2026-04-18T12:44:12.251Z</time></trkpt><trkpt lat="43.5381447" lon="10.6192234"><ele>63.66666666666667</ele><time>2026-04-18T12:44:13.374Z</time></trkpt><trkpt lat="43.5383158" lon="10.6192237"><ele>62.33333333333333</ele><time>2026-04-18T12:44:14.351Z</time></trkpt><trkpt lat="43.5384866" lon="10.6192323"><ele>61.0</ele><time>2026-04-18T12:44:15.352Z</time></trkpt><trkpt lat="43.5386589" lon="10.619248"><ele>61.0</ele><time>2026-04-18T12:44:16.343Z</time></trkpt><trkpt lat="43.5388294" lon="10.6192714"><ele>61.0</ele><time>2026-04-18T12:44:17.345Z</time></trkpt><trkpt lat="43.5389982" lon="10.6192938"><ele>61.0</ele><time>2026-04-18T12:44:18.335Z</time></trkpt><trkpt lat="43.5391679" lon="10.6193156"><ele>61.0</ele><time>2026-04-18T12:44:19.364Z</time></trkpt><trkpt lat="43.5393372" lon="10.6193342"><ele>61.0</ele><time>2026-04-18T12:44:20.372Z</time></trkpt><trkpt lat="43.5396781" lon="10.6193423"><ele>61.0</ele><time>2026-04-18T12:44:22.369Z</time></trkpt><trkpt lat="43.5398506" lon="10.6193254"><ele>61.0</ele><time>2026-04-18T12:44:23.369Z</time></trkpt><trkpt lat="43.5400212" lon="10.6193003"><ele>61.0</ele><time>2026-04-18T12:44:24.345Z</time></trkpt><trkpt lat="43.5401931" lon="10.6192695"><ele>61.0</ele><time>2026-04-18T12:44:25.346Z</time></trkpt><trkpt lat="43.5403625" lon="10.6192424"><ele>61.0</ele><time>2026-04-18T12:44:26.362Z</time></trkpt><trkpt lat="43.5405338" lon="10.619214"><ele>61.0</ele><time>2026-04-18T12:44:27.347Z</time></trkpt><trkpt lat="43.5407035" lon="10.6191894"><ele>60.5</ele><time>2026-04-18T12:44:28.361Z</time></trkpt><trkpt lat="43.5410435" lon="10.6191506"><ele>60.0</ele><time>2026-04-18T12:44:30.252Z</time></trkpt><trkpt lat="43.541214" lon="10.6191466"><ele>59.66666666666667</ele><time>2026-04-18T12:44:31.251Z</time></trkpt><trkpt lat="43.5413838" lon="10.6191595"><ele>59.333333333333336</ele><time>2026-04-18T12:44:32.252Z</time></trkpt><trkpt lat="43.5415522" lon="10.6191866"><ele>59.0</ele><time>2026-04-18T12:44:33.37Z</time></trkpt><trkpt lat="43.5418908" lon="10.6192714"><ele>59.333333333333336</ele><time>2026-04-18T12:44:35.304Z</time></trkpt><trkpt lat="43.5420584" lon="10.6193309"><ele>59.66666666666667</ele><time>2026-04-18T12:44:36.353Z</time></trkpt><trkpt lat="43.5422243" lon="10.6194035"><ele>60.0</ele><time>2026-04-18T12:44:37.339Z</time></trkpt><trkpt lat="43.5423899" lon="10.6194828"><ele>59.66666666666667</ele><time>2026-04-18T12:44:38.336Z</time></trkpt><trkpt lat="43.5425535" lon="10.6195667"><ele>59.333333333333336</ele><time>2026-04-18T12:44:39.247Z</time></trkpt><trkpt lat="43.5427181" lon="10.6196492"><ele>59.0</ele><time>2026-04-18T12:44:40.243Z</time></trkpt><trkpt lat="43.5428826" lon="10.6197314"><ele>58.333333333333336</ele><time>2026-04-18T12:44:41.367Z</time></trkpt><trkpt lat="43.5430482" lon="10.6198128"><ele>57.66666666666667</ele><time>2026-04-18T12:44:42.358Z</time></trkpt><trkpt lat="43.5432153" lon="10.6198942"><ele>57.0</ele><time>2026-04-18T12:44:43.338Z</time></trkpt><trkpt lat="43.5433827" lon="10.619975"><ele>57.0</ele><time>2026-04-18T12:44:44.362Z</time></trkpt><trkpt lat="43.5435503" lon="10.6200566"><ele>57.0</ele><time>2026-04-18T12:44:45.362Z</time></trkpt><trkpt lat="43.5437195" lon="10.6201416"><ele>57.0</ele><time>2026-04-18T12:44:46.36Z</time></trkpt><trkpt lat="43.54389" lon="10.6202303"><ele>56.66666666666667</ele><time>2026-04-18T12:44:47.368Z</time></trkpt><trkpt lat="43.5440585" lon="10.6203257"><ele>56.333333333333336</ele><time>2026-04-18T12:44:48.377Z</time></trkpt><trkpt lat="43.5442264" lon="10.6204294"><ele>56.0</ele><time>2026-04-18T12:44:49.371Z</time></trkpt><trkpt lat="43.5443935" lon="10.6205417"><ele>55.333333333333336</ele><time>2026-04-18T12:44:50.368Z</time></trkpt><trkpt lat="43.5445599" lon="10.6206606"><ele>54.66666666666667</ele><time>2026-04-18T12:44:51.375Z</time></trkpt><trkpt lat="43.5447272" lon="10.6207806"><ele>54.0</ele><time>2026-04-18T12:44:52.359Z</time></trkpt><trkpt lat="43.5448943" lon="10.6209055"><ele>54.0</ele><time>2026-04-18T12:44:53.35Z</time></trkpt><trkpt lat="43.5450591" lon="10.6210391"><ele>54.0</ele><time>2026-04-18T12:44:54.35Z</time></trkpt><trkpt lat="43.5452205" lon="10.6211815"><ele>54.0</ele><time>2026-04-18T12:44:55.351Z</time></trkpt><trkpt lat="43.5453805" lon="10.6213315"><ele>53.0</ele><time>2026-04-18T12:44:56.352Z</time></trkpt><trkpt lat="43.5455398" lon="10.6214854"><ele>52.0</ele><time>2026-04-18T12:44:57.352Z</time></trkpt><trkpt lat="43.545701" lon="10.6216412"><ele>51.0</ele><time>2026-04-18T12:44:58.363Z</time></trkpt><trkpt lat="43.5458613" lon="10.6217954"><ele>51.0</ele><time>2026-04-18T12:44:59.367Z</time></trkpt><trkpt lat="43.5460277" lon="10.62194"><ele>51.0</ele><time>2026-04-18T12:45:00.37Z</time></trkpt><trkpt lat="43.5461969" lon="10.6220679"><ele>51.0</ele><time>2026-04-18T12:45:01.373Z</time></trkpt><trkpt lat="43.5463684" lon="10.62218"><ele>51.0</ele><time>2026-04-18T12:45:02.365Z</time></trkpt><trkpt lat="43.5465406" lon="10.6222782"><ele>51.0</ele><time>2026-04-18T12:45:03.371Z</time></trkpt><trkpt lat="43.5467126" lon="10.6223643"><ele>51.0</ele><time>2026-04-18T12:45:04.367Z</time></trkpt><trkpt lat="43.5468824" lon="10.6224374"><ele>54.0</ele><time>2026-04-18T12:45:05.347Z</time></trkpt><trkpt lat="43.5470543" lon="10.6224973"><ele>57.0</ele><time>2026-04-18T12:45:06.352Z</time></trkpt><trkpt lat="43.5472273" lon="10.6225444"><ele>60.0</ele><time>2026-04-18T12:45:07.363Z</time></trkpt><trkpt lat="43.5473985" lon="10.6225887"><ele>60.0</ele><time>2026-04-18T12:45:08.348Z</time></trkpt><trkpt lat="43.5475666" lon="10.6226447"><ele>60.0</ele><time>2026-04-18T12:45:09.254Z</time></trkpt><trkpt lat="43.5477311" lon="10.6227155"><ele>60.0</ele><time>2026-04-18T12:45:10.248Z</time></trkpt><trkpt lat="43.5478912" lon="10.6227985"><ele>58.5</ele><time>2026-04-18T12:45:11.36Z</time></trkpt><trkpt lat="43.5481875" lon="10.6229814"><ele>57.0</ele><time>2026-04-18T12:45:13.248Z</time></trkpt><trkpt lat="43.5483214" lon="10.6230994"><ele>57.0</ele><time>2026-04-18T12:45:14.251Z</time></trkpt><trkpt lat="43.5484338" lon="10.6232473"><ele>57.0</ele><time>2026-04-18T12:45:15.361Z</time></trkpt><trkpt lat="43.548522" lon="10.6234209"><ele>57.0</ele><time>2026-04-18T12:45:16.366Z</time></trkpt><trkpt lat="43.548591" lon="10.6236103"><ele>56.0</ele><time>2026-04-18T12:45:17.366Z</time></trkpt><trkpt lat="43.5486507" lon="10.6238068"><ele>55.0</ele><time>2026-04-18T12:45:18.334Z</time></trkpt><trkpt lat="43.5487135" lon="10.624003"><ele>54.0</ele><time>2026-04-18T12:45:19.371Z</time></trkpt><trkpt lat="43.5487812" lon="10.6241973"><ele>55.0</ele><time>2026-04-18T12:45:20.367Z</time></trkpt><trkpt lat="43.5488635" lon="10.6243794"><ele>56.0</ele><time>2026-04-18T12:45:21.269Z</time></trkpt><trkpt lat="43.5489624" lon="10.6245527"><ele>57.0</ele><time>2026-04-18T12:45:22.246Z</time></trkpt><trkpt lat="43.5490735" lon="10.6247147"><ele>57.0</ele><time>2026-04-18T12:45:23.369Z</time></trkpt><trkpt lat="43.549193" lon="10.6248703"><ele>57.0</ele><time>2026-04-18T12:45:24.364Z</time></trkpt><trkpt lat="43.5493099" lon="10.6250158"><ele>57.0</ele><time>2026-04-18T12:45:25.344Z</time></trkpt><trkpt lat="43.5494207" lon="10.625153"><ele>57.0</ele><time>2026-04-18T12:45:26.366Z</time></trkpt><trkpt lat="43.5495281" lon="10.6252771"><ele>57.0</ele><time>2026-04-18T12:45:27.36Z</time></trkpt><trkpt lat="43.5496419" lon="10.6253808"><ele>57.0</ele><time>2026-04-18T12:45:28.342Z</time></trkpt><trkpt lat="43.5497677" lon="10.6254628"><ele>57.0</ele><time>2026-04-18T12:45:29.369Z</time></trkpt><trkpt lat="43.5499027" lon="10.6255237"><ele>56.0</ele><time>2026-04-18T12:45:30.373Z</time></trkpt><trkpt lat="43.5500454" lon="10.6255691"><ele>55.0</ele><time>2026-04-18T12:45:31.353Z</time></trkpt><trkpt lat="43.550196" lon="10.6256088"><ele>54.0</ele><time>2026-04-18T12:45:32.365Z</time></trkpt><trkpt lat="43.5503542" lon="10.6256512"><ele>53.66666666666667</ele><time>2026-04-18T12:45:33.3Z</time></trkpt><trkpt lat="43.5505164" lon="10.6256921"><ele>53.333333333333336</ele><time>2026-04-18T12:45:34.345Z</time></trkpt><trkpt lat="43.5506826" lon="10.6257314"><ele>53.0</ele><time>2026-04-18T12:45:35.277Z</time></trkpt><trkpt lat="43.5508556" lon="10.6257532"><ele>53.0</ele><time>2026-04-18T12:45:36.367Z</time></trkpt><trkpt lat="43.5510324" lon="10.6257513"><ele>53.0</ele><time>2026-04-18T12:45:37.338Z</time></trkpt><trkpt lat="43.5512107" lon="10.6257364"><ele>53.0</ele><time>2026-04-18T12:45:38.347Z</time></trkpt><trkpt lat="43.5513848" lon="10.6257157"><ele>52.333333333333336</ele><time>2026-04-18T12:45:39.346Z</time></trkpt><trkpt lat="43.5515471" lon="10.6256914"><ele>51.66666666666667</ele><time>2026-04-18T12:45:40.254Z</time></trkpt><trkpt lat="43.5517027" lon="10.6256738"><ele>51.0</ele><time>2026-04-18T12:45:41.253Z</time></trkpt><trkpt lat="43.5518622" lon="10.6256671"><ele>51.0</ele><time>2026-04-18T12:45:42.363Z</time></trkpt><trkpt lat="43.5520192" lon="10.6256872"><ele>51.0</ele><time>2026-04-18T12:45:43.365Z</time></trkpt><trkpt lat="43.5521702" lon="10.6257459"><ele>51.0</ele><time>2026-04-18T12:45:44.344Z</time></trkpt><trkpt lat="43.5523158" lon="10.6258277"><ele>52.0</ele><time>2026-04-18T12:45:45.356Z</time></trkpt><trkpt lat="43.5524575" lon="10.6259321"><ele>53.0</ele><time>2026-04-18T12:45:46.35Z</time></trkpt><trkpt lat="43.5525986" lon="10.6260452"><ele>54.0</ele><time>2026-04-18T12:45:47.34Z</time></trkpt><trkpt lat="43.5527374" lon="10.6261702"><ele>54.0</ele><time>2026-04-18T12:45:48.369Z</time></trkpt><trkpt lat="43.5528712" lon="10.6263017"><ele>54.0</ele><time>2026-04-18T12:45:49.37Z</time></trkpt><trkpt lat="43.5529993" lon="10.6264404"><ele>54.0</ele><time>2026-04-18T12:45:50.362Z</time></trkpt><trkpt lat="43.5531222" lon="10.6265721"><ele>54.0</ele><time>2026-04-18T12:45:51.346Z</time></trkpt><trkpt lat="43.5532407" lon="10.6266903"><ele>54.0</ele><time>2026-04-18T12:45:52.37Z</time></trkpt><trkpt lat="43.5533624" lon="10.6267814"><ele>54.0</ele><time>2026-04-18T12:45:53.355Z</time></trkpt><trkpt lat="43.5536303" lon="10.6268786"><ele>55.75</ele><time>2026-04-18T12:45:55.372Z</time></trkpt><trkpt lat="43.5537754" lon="10.6268947"><ele>57.5</ele><time>2026-04-18T12:45:56.345Z</time></trkpt><trkpt lat="43.5539142" lon="10.6269208"><ele>59.25</ele><time>2026-04-18T12:45:57.362Z</time></trkpt><trkpt lat="43.5540445" lon="10.6269765"><ele>61.0</ele><time>2026-04-18T12:45:58.363Z</time></trkpt><trkpt lat="43.5541648" lon="10.6270581"><ele>57.5</ele><time>2026-04-18T12:45:59.376Z</time></trkpt><trkpt lat="43.5542842" lon="10.6271372"><ele>54.0</ele><time>2026-04-18T12:46:00.35Z</time></trkpt><trkpt lat="43.5544176" lon="10.6271834"><ele>50.5</ele><time>2026-04-18T12:46:01.37Z</time></trkpt><trkpt lat="43.5545596" lon="10.6272036"><ele>47.0</ele><time>2026-04-18T12:46:02.343Z</time></trkpt><trkpt lat="43.5547043" lon="10.6271954"><ele>47.0</ele><time>2026-04-18T12:46:03.254Z</time></trkpt><trkpt lat="43.554855" lon="10.6271712"><ele>47.0</ele><time>2026-04-18T12:46:04.253Z</time></trkpt><trkpt lat="43.5550086" lon="10.6271368"><ele>47.0</ele><time>2026-04-18T12:46:05.252Z</time></trkpt><trkpt lat="43.5551652" lon="10.6270891"><ele>47.0</ele><time>2026-04-18T12:46:06.34Z</time></trkpt><trkpt lat="43.5553241" lon="10.6270283"><ele>47.0</ele><time>2026-04-18T12:46:07.25Z</time></trkpt><trkpt lat="43.5554855" lon="10.6269617"><ele>47.0</ele><time>2026-04-18T12:46:08.373Z</time></trkpt><trkpt lat="43.5556471" lon="10.6268961"><ele>49.0</ele><time>2026-04-18T12:46:09.371Z</time></trkpt><trkpt lat="43.5558126" lon="10.6268416"><ele>51.0</ele><time>2026-04-18T12:46:10.248Z</time></trkpt><trkpt lat="43.5559839" lon="10.626822"><ele>53.0</ele><time>2026-04-18T12:46:11.252Z</time></trkpt><trkpt lat="43.5561592" lon="10.6268371"><ele>50.66666666666667</ele><time>2026-04-18T12:46:12.368Z</time></trkpt><trkpt lat="43.5563329" lon="10.6268726"><ele>48.333333333333336</ele><time>2026-04-18T12:46:13.338Z</time></trkpt><trkpt lat="43.5565078" lon="10.6269145"><ele>46.0</ele><time>2026-04-18T12:46:14.364Z</time></trkpt><trkpt lat="43.5566811" lon="10.6269559"><ele>46.0</ele><time>2026-04-18T12:46:15.37Z</time></trkpt><trkpt lat="43.5568568" lon="10.626996"><ele>46.0</ele><time>2026-04-18T12:46:16.364Z</time></trkpt><trkpt lat="43.5570326" lon="10.6270272"><ele>46.0</ele><time>2026-04-18T12:46:17.343Z</time></trkpt><trkpt lat="43.5572085" lon="10.627043"><ele>46.333333333333336</ele><time>2026-04-18T12:46:18.342Z</time></trkpt><trkpt lat="43.5573806" lon="10.6270401"><ele>46.666666666666664</ele><time>2026-04-18T12:46:19.348Z</time></trkpt><trkpt lat="43.5575416" lon="10.6270318"><ele>47.0</ele><time>2026-04-18T12:46:20.367Z</time></trkpt><trkpt lat="43.5578275" lon="10.6270155"><ele>46.25</ele><time>2026-04-18T12:46:22.243Z</time></trkpt><trkpt lat="43.5579586" lon="10.627006"><ele>45.5</ele><time>2026-04-18T12:46:23.248Z</time></trkpt><trkpt lat="43.5580852" lon="10.6270074"><ele>44.75</ele><time>2026-04-18T12:46:24.36Z</time></trkpt><trkpt lat="43.5582165" lon="10.6270141"><ele>44.0</ele><time>2026-04-18T12:46:25.35Z</time></trkpt><trkpt lat="43.558351" lon="10.6270319"><ele>44.0</ele><time>2026-04-18T12:46:26.37Z</time></trkpt><trkpt lat="43.558491" lon="10.6270582"><ele>44.0</ele><time>2026-04-18T12:46:27.367Z</time></trkpt><trkpt lat="43.558778" lon="10.6271314"><ele>44.0</ele><time>2026-04-18T12:46:29.367Z</time></trkpt><trkpt lat="43.558928" lon="10.6271705"><ele>45.0</ele><time>2026-04-18T12:46:30.361Z</time></trkpt><trkpt lat="43.5590827" lon="10.62721"><ele>46.0</ele><time>2026-04-18T12:46:31.366Z</time></trkpt><trkpt lat="43.5592434" lon="10.6272463"><ele>47.0</ele><time>2026-04-18T12:46:32.347Z</time></trkpt><trkpt lat="43.5594056" lon="10.6272821"><ele>46.666666666666664</ele><time>2026-04-18T12:46:33.373Z</time></trkpt><trkpt lat="43.5595692" lon="10.6273219"><ele>46.333333333333336</ele><time>2026-04-18T12:46:34.351Z</time></trkpt><trkpt lat="43.5597368" lon="10.6273662"><ele>46.0</ele><time>2026-04-18T12:46:35.367Z</time></trkpt><trkpt lat="43.5599072" lon="10.6274107"><ele>46.0</ele><time>2026-04-18T12:46:36.388Z</time></trkpt><trkpt lat="43.5600792" lon="10.6274563"><ele>46.0</ele><time>2026-04-18T12:46:37.349Z</time></trkpt><trkpt lat="43.5602543" lon="10.627497"><ele>46.0</ele><time>2026-04-18T12:46:38.339Z</time></trkpt><trkpt lat="43.5604312" lon="10.6275315"><ele>46.5</ele><time>2026-04-18T12:46:39.359Z</time></trkpt><trkpt lat="43.5607916" lon="10.6275533"><ele>47.0</ele><time>2026-04-18T12:46:41.252Z</time></trkpt><trkpt lat="43.5609747" lon="10.6275366"><ele>47.0</ele><time>2026-04-18T12:46:42.364Z</time></trkpt><trkpt lat="43.5611569" lon="10.6274964"><ele>47.0</ele><time>2026-04-18T12:46:43.371Z</time></trkpt><trkpt lat="43.5615094" lon="10.627352"><ele>45.666666666666664</ele><time>2026-04-18T12:46:45.373Z</time></trkpt><trkpt lat="43.5616847" lon="10.6272614"><ele>44.333333333333336</ele><time>2026-04-18T12:46:46.347Z</time></trkpt><trkpt lat="43.561858" lon="10.6271714"><ele>43.0</ele><time>2026-04-18T12:46:47.338Z</time></trkpt><trkpt lat="43.5620291" lon="10.6270804"><ele>42.0</ele><time>2026-04-18T12:46:48.332Z</time></trkpt><trkpt lat="43.5621978" lon="10.6269907"><ele>41.0</ele><time>2026-04-18T12:46:49.355Z</time></trkpt><trkpt lat="43.5623665" lon="10.6269014"><ele>40.0</ele><time>2026-04-18T12:46:50.353Z</time></trkpt><trkpt lat="43.562536" lon="10.6268149"><ele>40.66666666666667</ele><time>2026-04-18T12:46:51.37Z</time></trkpt><trkpt lat="43.5627004" lon="10.6267375"><ele>41.333333333333336</ele><time>2026-04-18T12:46:52.37Z</time></trkpt><trkpt lat="43.5628705" lon="10.6266753"><ele>42.0</ele><time>2026-04-18T12:46:53.376Z</time></trkpt><trkpt lat="43.5630428" lon="10.6266348"><ele>42.0</ele><time>2026-04-18T12:46:54.338Z</time></trkpt><trkpt lat="43.5632162" lon="10.6266131"><ele>42.0</ele><time>2026-04-18T12:46:55.348Z</time></trkpt><trkpt lat="43.5633794" lon="10.6266162"><ele>42.0</ele><time>2026-04-18T12:46:56.364Z</time></trkpt><trkpt lat="43.5635418" lon="10.6266484"><ele>42.0</ele><time>2026-04-18T12:46:57.362Z</time></trkpt><trkpt lat="43.5636964" lon="10.6267217"><ele>42.0</ele><time>2026-04-18T12:46:58.365Z</time></trkpt><trkpt lat="43.5638417" lon="10.6268165"><ele>42.0</ele><time>2026-04-18T12:46:59.371Z</time></trkpt><trkpt lat="43.5639843" lon="10.6269078"><ele>41.333333333333336</ele><time>2026-04-18T12:47:00.367Z</time></trkpt><trkpt lat="43.5641253" lon="10.6269825"><ele>40.66666666666667</ele><time>2026-04-18T12:47:01.323Z</time></trkpt><trkpt lat="43.5642743" lon="10.6270288"><ele>40.0</ele><time>2026-04-18T12:47:02.353Z</time></trkpt><trkpt lat="43.5644255" lon="10.6270318"><ele>39.66666666666667</ele><time>2026-04-18T12:47:03.372Z</time></trkpt><trkpt lat="43.5645766" lon="10.6270021"><ele>39.333333333333336</ele><time>2026-04-18T12:47:04.369Z</time></trkpt><trkpt lat="43.5647268" lon="10.6269514"><ele>39.0</ele><time>2026-04-18T12:47:05.37Z</time></trkpt><trkpt lat="43.5648769" lon="10.6268978"><ele>41.666666666666664</ele><time>2026-04-18T12:47:06.351Z</time></trkpt><trkpt lat="43.5650304" lon="10.6268628"><ele>44.33333333333333</ele><time>2026-04-18T12:47:07.347Z</time></trkpt><trkpt lat="43.5651857" lon="10.6268601"><ele>47.0</ele><time>2026-04-18T12:47:08.371Z</time></trkpt><trkpt lat="43.5653399" lon="10.6268826"><ele>46.666666666666664</ele><time>2026-04-18T12:47:09.34Z</time></trkpt><trkpt lat="43.5654893" lon="10.6269207"><ele>46.333333333333336</ele><time>2026-04-18T12:47:10.252Z</time></trkpt><trkpt lat="43.5656407" lon="10.62696"><ele>46.0</ele><time>2026-04-18T12:47:11.253Z</time></trkpt><trkpt lat="43.5657959" lon="10.6269755"><ele>46.0</ele><time>2026-04-18T12:47:12.359Z</time></trkpt><trkpt lat="43.5659534" lon="10.6269747"><ele>46.0</ele><time>2026-04-18T12:47:13.366Z</time></trkpt><trkpt lat="43.5661155" lon="10.6269627"><ele>46.0</ele><time>2026-04-18T12:47:14.372Z</time></trkpt><trkpt lat="43.5662808" lon="10.6269501"><ele>45.66666666666667</ele><time>2026-04-18T12:47:15.373Z</time></trkpt><trkpt lat="43.5664431" lon="10.6269417"><ele>45.333333333333336</ele><time>2026-04-18T12:47:16.346Z</time></trkpt><trkpt lat="43.5665992" lon="10.6269291"><ele>45.0</ele><time>2026-04-18T12:47:17.347Z</time></trkpt><trkpt lat="43.5667478" lon="10.6269119"><ele>45.0</ele><time>2026-04-18T12:47:18.347Z</time></trkpt><trkpt lat="43.5668849" lon="10.6268922"><ele>45.0</ele><time>2026-04-18T12:47:19.254Z</time></trkpt><trkpt lat="43.567017" lon="10.6268613"><ele>45.0</ele><time>2026-04-18T12:47:20.252Z</time></trkpt><trkpt lat="43.5671517" lon="10.6268054"><ele>45.0</ele><time>2026-04-18T12:47:21.356Z</time></trkpt><trkpt lat="43.5672803" lon="10.6267389"><ele>44.333333333333336</ele><time>2026-04-18T12:47:22.345Z</time></trkpt><trkpt lat="43.5674054" lon="10.6266463"><ele>43.66666666666667</ele><time>2026-04-18T12:47:23.376Z</time></trkpt><trkpt lat="43.5675368" lon="10.6265202"><ele>43.0</ele><time>2026-04-18T12:47:24.363Z</time></trkpt><trkpt lat="43.5676736" lon="10.6264075"><ele>43.0</ele><time>2026-04-18T12:47:25.346Z</time></trkpt><trkpt lat="43.5678159" lon="10.6263119"><ele>43.0</ele><time>2026-04-18T12:47:26.345Z</time></trkpt><trkpt lat="43.5679646" lon="10.6262409"><ele>43.0</ele><time>2026-04-18T12:47:27.248Z</time></trkpt><trkpt lat="43.5681183" lon="10.6261894"><ele>42.0</ele><time>2026-04-18T12:47:28.351Z</time></trkpt><trkpt lat="43.568275" lon="10.6261584"><ele>41.0</ele><time>2026-04-18T12:47:29.335Z</time></trkpt><trkpt lat="43.5684376" lon="10.6261492"><ele>40.0</ele><time>2026-04-18T12:47:30.343Z</time></trkpt><trkpt lat="43.568602" lon="10.6261512"><ele>38.66666666666667</ele><time>2026-04-18T12:47:31.364Z</time></trkpt><trkpt lat="43.5687684" lon="10.6261675"><ele>37.333333333333336</ele><time>2026-04-18T12:47:32.365Z</time></trkpt><trkpt lat="43.5689356" lon="10.6261928"><ele>36.0</ele><time>2026-04-18T12:47:33.368Z</time></trkpt><trkpt lat="43.5691038" lon="10.6262243"><ele>36.0</ele><time>2026-04-18T12:47:34.367Z</time></trkpt><trkpt lat="43.5694449" lon="10.626302"><ele>36.0</ele><time>2026-04-18T12:47:36.342Z</time></trkpt><trkpt lat="43.5696157" lon="10.6263455"><ele>36.333333333333336</ele><time>2026-04-18T12:47:37.338Z</time></trkpt><trkpt lat="43.5697888" lon="10.6263904"><ele>36.66666666666667</ele><time>2026-04-18T12:47:38.347Z</time></trkpt><trkpt lat="43.5699586" lon="10.6264422"><ele>37.0</ele><time>2026-04-18T12:47:39.356Z</time></trkpt><trkpt lat="43.5703023" lon="10.6265439"><ele>36.66666666666667</ele><time>2026-04-18T12:47:41.251Z</time></trkpt><trkpt lat="43.5704708" lon="10.6265969"><ele>36.333333333333336</ele><time>2026-04-18T12:47:42.364Z</time></trkpt><trkpt lat="43.5706403" lon="10.6266599"><ele>36.0</ele><time>2026-04-18T12:47:43.364Z</time></trkpt><trkpt lat="43.5708078" lon="10.6267282"><ele>36.0</ele><time>2026-04-18T12:47:44.266Z</time></trkpt><trkpt lat="43.5709728" lon="10.6268061"><ele>36.0</ele><time>2026-04-18T12:47:45.357Z</time></trkpt><trkpt lat="43.5711356" lon="10.6268875"><ele>36.0</ele><time>2026-04-18T12:47:46.363Z</time></trkpt><trkpt lat="43.5713007" lon="10.6269674"><ele>36.0</ele><time>2026-04-18T12:47:47.366Z</time></trkpt><trkpt lat="43.5714666" lon="10.6270474"><ele>36.0</ele><time>2026-04-18T12:47:48.374Z</time></trkpt><trkpt lat="43.5716337" lon="10.627127"><ele>36.0</ele><time>2026-04-18T12:47:49.364Z</time></trkpt><trkpt lat="43.5718022" lon="10.6272061"><ele>36.0</ele><time>2026-04-18T12:47:50.342Z</time></trkpt><trkpt lat="43.5719726" lon="10.6272854"><ele>36.0</ele><time>2026-04-18T12:47:51.356Z</time></trkpt><trkpt lat="43.5721417" lon="10.6273653"><ele>36.0</ele><time>2026-04-18T12:47:52.367Z</time></trkpt><trkpt lat="43.5723121" lon="10.6274467"><ele>36.333333333333336</ele><time>2026-04-18T12:47:53.348Z</time></trkpt><trkpt lat="43.5724832" lon="10.6275259"><ele>36.66666666666667</ele><time>2026-04-18T12:47:54.371Z</time></trkpt><trkpt lat="43.5726527" lon="10.6276084"><ele>37.0</ele><time>2026-04-18T12:47:55.37Z</time></trkpt><trkpt lat="43.5728202" lon="10.6276791"><ele>37.66666666666667</ele><time>2026-04-18T12:47:56.363Z</time></trkpt><trkpt lat="43.5729885" lon="10.6277389"><ele>38.333333333333336</ele><time>2026-04-18T12:47:57.351Z</time></trkpt><trkpt lat="43.5731518" lon="10.6277839"><ele>39.0</ele><time>2026-04-18T12:47:58.362Z</time></trkpt><trkpt lat="43.573463" lon="10.6278506"><ele>37.333333333333336</ele><time>2026-04-18T12:48:00.366Z</time></trkpt><trkpt lat="43.573614" lon="10.627879"><ele>35.66666666666667</ele><time>2026-04-18T12:48:01.338Z</time></trkpt><trkpt lat="43.5737624" lon="10.6279106"><ele>34.0</ele><time>2026-04-18T12:48:02.252Z</time></trkpt><trkpt lat="43.5739088" lon="10.6279427"><ele>34.0</ele><time>2026-04-18T12:48:03.37Z</time></trkpt><trkpt lat="43.5740591" lon="10.6279732"><ele>34.0</ele><time>2026-04-18T12:48:04.373Z</time></trkpt><trkpt lat="43.5742146" lon="10.6280079"><ele>34.0</ele><time>2026-04-18T12:48:05.369Z</time></trkpt><trkpt lat="43.5743742" lon="10.6280423"><ele>34.0</ele><time>2026-04-18T12:48:06.367Z</time></trkpt><trkpt lat="43.5745368" lon="10.6280768"><ele>34.0</ele><time>2026-04-18T12:48:07.359Z</time></trkpt><trkpt lat="43.574695" lon="10.6281109"><ele>34.0</ele><time>2026-04-18T12:48:08.351Z</time></trkpt><trkpt lat="43.5748519" lon="10.6281449"><ele>34.0</ele><time>2026-04-18T12:48:09.371Z</time></trkpt><trkpt lat="43.5751695" lon="10.6282131"><ele>34.0</ele><time>2026-04-18T12:48:11.251Z</time></trkpt><trkpt lat="43.5753308" lon="10.6282512"><ele>34.0</ele><time>2026-04-18T12:48:12.245Z</time></trkpt><trkpt lat="43.5754947" lon="10.6282893"><ele>34.0</ele><time>2026-04-18T12:48:13.341Z</time></trkpt><trkpt lat="43.5756589" lon="10.6283244"><ele>34.0</ele><time>2026-04-18T12:48:14.361Z</time></trkpt><trkpt lat="43.5758253" lon="10.6283601"><ele>34.0</ele><time>2026-04-18T12:48:15.358Z</time></trkpt><trkpt lat="43.5759934" lon="10.6283964"><ele>34.0</ele><time>2026-04-18T12:48:16.363Z</time></trkpt><trkpt lat="43.5761614" lon="10.628431"><ele>34.0</ele><time>2026-04-18T12:48:17.37Z</time></trkpt><trkpt lat="43.5763308" lon="10.6284686"><ele>33.66666666666667</ele><time>2026-04-18T12:48:18.337Z</time></trkpt><trkpt lat="43.5765014" lon="10.6285058"><ele>33.333333333333336</ele><time>2026-04-18T12:48:19.345Z</time></trkpt><trkpt lat="43.576676" lon="10.6285402"><ele>33.0</ele><time>2026-04-18T12:48:20.352Z</time></trkpt><trkpt lat="43.5768459" lon="10.6285792"><ele>33.0</ele><time>2026-04-18T12:48:21.344Z</time></trkpt><trkpt lat="43.5770154" lon="10.6286175"><ele>33.0</ele><time>2026-04-18T12:48:22.34Z</time></trkpt><trkpt lat="43.5771852" lon="10.6286536"><ele>33.0</ele><time>2026-04-18T12:48:23.344Z</time></trkpt><trkpt lat="43.5773547" lon="10.628691"><ele>33.0</ele><time>2026-04-18T12:48:24.347Z</time></trkpt><trkpt lat="43.5775255" lon="10.6287294"><ele>33.0</ele><time>2026-04-18T12:48:25.349Z</time></trkpt><trkpt lat="43.5776923" lon="10.628767"><ele>33.0</ele><time>2026-04-18T12:48:26.348Z</time></trkpt><trkpt lat="43.5778646" lon="10.628804"><ele>33.0</ele><time>2026-04-18T12:48:27.365Z</time></trkpt><trkpt lat="43.5780314" lon="10.6288395"><ele>33.0</ele><time>2026-04-18T12:48:28.339Z</time></trkpt><trkpt lat="43.5781979" lon="10.6288761"><ele>33.0</ele><time>2026-04-18T12:48:29.366Z</time></trkpt><trkpt lat="43.5785304" lon="10.6289465"><ele>33.333333333333336</ele><time>2026-04-18T12:48:31.252Z</time></trkpt><trkpt lat="43.5786967" lon="10.6289811"><ele>33.66666666666667</ele><time>2026-04-18T12:48:32.252Z</time></trkpt><trkpt lat="43.5788577" lon="10.6290158"><ele>34.0</ele><time>2026-04-18T12:48:33.347Z</time></trkpt><trkpt lat="43.5790175" lon="10.629048"><ele>34.0</ele><time>2026-04-18T12:48:34.345Z</time></trkpt><trkpt lat="43.5791784" lon="10.6290831"><ele>34.0</ele><time>2026-04-18T12:48:35.365Z</time></trkpt><trkpt lat="43.579338" lon="10.6291169"><ele>34.0</ele><time>2026-04-18T12:48:36.35Z</time></trkpt><trkpt lat="43.5794956" lon="10.6291513"><ele>34.0</ele><time>2026-04-18T12:48:37.344Z</time></trkpt><trkpt lat="43.579653" lon="10.6291853"><ele>34.0</ele><time>2026-04-18T12:48:38.351Z</time></trkpt><trkpt lat="43.57981" lon="10.6292175"><ele>34.0</ele><time>2026-04-18T12:48:39.367Z</time></trkpt><trkpt lat="43.5801012" lon="10.6292782"><ele>34.0</ele><time>2026-04-18T12:48:41.24Z</time></trkpt><trkpt lat="43.5802357" lon="10.629307"><ele>34.0</ele><time>2026-04-18T12:48:42.25Z</time></trkpt><trkpt lat="43.5803591" lon="10.6293302"><ele>34.0</ele><time>2026-04-18T12:48:43.245Z</time></trkpt><trkpt lat="43.5804666" lon="10.6293494"><ele>34.0</ele><time>2026-04-18T12:48:44.353Z</time></trkpt><trkpt lat="43.5805652" lon="10.6293693"><ele>34.2</ele><time>2026-04-18T12:48:45.378Z</time></trkpt><trkpt lat="43.5806585" lon="10.6293879"><ele>34.4</ele><time>2026-04-18T12:48:46.351Z</time></trkpt><trkpt lat="43.580749" lon="10.6294091"><ele>34.6</ele><time>2026-04-18T12:48:47.363Z</time></trkpt><trkpt lat="43.5808443" lon="10.6294335"><ele>34.8</ele><time>2026-04-18T12:48:48.356Z</time></trkpt><trkpt lat="43.580942" lon="10.6294578"><ele>35.0</ele><time>2026-04-18T12:48:49.344Z</time></trkpt><trkpt lat="43.5810434" lon="10.6294816"><ele>34.5</ele><time>2026-04-18T12:48:50.375Z</time></trkpt><trkpt lat="43.5811481" lon="10.6295044"><ele>34.0</ele><time>2026-04-18T12:48:51.363Z</time></trkpt><trkpt lat="43.5812534" lon="10.629529"><ele>33.5</ele><time>2026-04-18T12:48:52.364Z</time></trkpt><trkpt lat="43.5814707" lon="10.6295849"><ele>33.0</ele><time>2026-04-18T12:48:54.367Z</time></trkpt><trkpt lat="43.5815843" lon="10.6296107"><ele>33.0</ele><time>2026-04-18T12:48:55.366Z</time></trkpt><trkpt lat="43.5818163" lon="10.6296691"><ele>33.0</ele><time>2026-04-18T12:48:57.249Z</time></trkpt><trkpt lat="43.5819329" lon="10.6296986"><ele>33.0</ele><time>2026-04-18T12:48:58.352Z</time></trkpt><trkpt lat="43.5820506" lon="10.6297298"><ele>32.666666666666664</ele><time>2026-04-18T12:48:59.36Z</time></trkpt><trkpt lat="43.5822876" lon="10.6297856"><ele>32.33333333333333</ele><time>2026-04-18T12:49:01.353Z</time></trkpt><trkpt lat="43.5824095" lon="10.6298083"><ele>32.0</ele><time>2026-04-18T12:49:02.365Z</time></trkpt><trkpt lat="43.582523" lon="10.629834"><ele>32.0</ele><time>2026-04-18T12:49:03.365Z</time></trkpt><trkpt lat="43.5826344" lon="10.6298547"><ele>32.0</ele><time>2026-04-18T12:49:04.345Z</time></trkpt><trkpt lat="43.5827447" lon="10.6298787"><ele>32.0</ele><time>2026-04-18T12:49:05.33Z</time></trkpt><trkpt lat="43.5828513" lon="10.6299009"><ele>32.0</ele><time>2026-04-18T12:49:06.252Z</time></trkpt><trkpt lat="43.5829564" lon="10.6299205"><ele>32.0</ele><time>2026-04-18T12:49:07.371Z</time></trkpt><trkpt lat="43.5831639" lon="10.6299631"><ele>31.8</ele><time>2026-04-18T12:49:09.35Z</time></trkpt><trkpt lat="43.5832695" lon="10.6299867"><ele>31.6</ele><time>2026-04-18T12:49:10.251Z</time></trkpt><trkpt lat="43.5833764" lon="10.6300077"><ele>31.400000000000002</ele><time>2026-04-18T12:49:11.248Z</time></trkpt><trkpt lat="43.5834874" lon="10.6300285"><ele>31.200000000000003</ele><time>2026-04-18T12:49:12.252Z</time></trkpt><trkpt lat="43.5835998" lon="10.6300536"><ele>31.0</ele><time>2026-04-18T12:49:13.38Z</time></trkpt><trkpt lat="43.5837142" lon="10.6300834"><ele>31.0</ele><time>2026-04-18T12:49:14.37Z</time></trkpt><trkpt lat="43.5838316" lon="10.6301131"><ele>31.0</ele><time>2026-04-18T12:49:15.377Z</time></trkpt><trkpt lat="43.5839521" lon="10.6301407"><ele>31.0</ele><time>2026-04-18T12:49:16.369Z</time></trkpt><trkpt lat="43.5840767" lon="10.6301653"><ele>31.0</ele><time>2026-04-18T12:49:17.373Z</time></trkpt><trkpt lat="43.5841982" lon="10.6301913"><ele>31.0</ele><time>2026-04-18T12:49:18.363Z</time></trkpt><trkpt lat="43.5843201" lon="10.6302205"><ele>31.0</ele><time>2026-04-18T12:49:19.357Z</time></trkpt><trkpt lat="43.5844401" lon="10.630245"><ele>31.0</ele><time>2026-04-18T12:49:20.342Z</time></trkpt><trkpt lat="43.5845647" lon="10.6302711"><ele>31.0</ele><time>2026-04-18T12:49:21.376Z</time></trkpt><trkpt lat="43.5846906" lon="10.6302986"><ele>31.0</ele><time>2026-04-18T12:49:22.373Z</time></trkpt><trkpt lat="43.5848183" lon="10.6303259"><ele>31.0</ele><time>2026-04-18T12:49:23.349Z</time></trkpt><trkpt lat="43.5849461" lon="10.6303528"><ele>31.0</ele><time>2026-04-18T12:49:24.318Z</time></trkpt><trkpt lat="43.5850727" lon="10.630383"><ele>31.0</ele><time>2026-04-18T12:49:25.347Z</time></trkpt><trkpt lat="43.5851975" lon="10.6304124"><ele>31.0</ele><time>2026-04-18T12:49:26.366Z</time></trkpt><trkpt lat="43.5853226" lon="10.630443"><ele>31.0</ele><time>2026-04-18T12:49:27.355Z</time></trkpt><trkpt lat="43.5854456" lon="10.6304708"><ele>31.0</ele><time>2026-04-18T12:49:28.355Z</time></trkpt><trkpt lat="43.5855672" lon="10.6304979"><ele>31.0</ele><time>2026-04-18T12:49:29.374Z</time></trkpt><trkpt lat="43.5856874" lon="10.6305234"><ele>30.75</ele><time>2026-04-18T12:49:30.359Z</time></trkpt><trkpt lat="43.5857993" lon="10.6305453"><ele>30.5</ele><time>2026-04-18T12:49:31.343Z</time></trkpt><trkpt lat="43.5859101" lon="10.6305688"><ele>30.25</ele><time>2026-04-18T12:49:32.36Z</time></trkpt><trkpt lat="43.586021" lon="10.6305916"><ele>30.0</ele><time>2026-04-18T12:49:33.352Z</time></trkpt><trkpt lat="43.5861337" lon="10.630615"><ele>30.25</ele><time>2026-04-18T12:49:34.367Z</time></trkpt><trkpt lat="43.5862458" lon="10.6306384"><ele>30.5</ele><time>2026-04-18T12:49:35.366Z</time></trkpt><trkpt lat="43.5863621" lon="10.630659"><ele>30.75</ele><time>2026-04-18T12:49:36.363Z</time></trkpt><trkpt lat="43.5864783" lon="10.6306863"><ele>31.0</ele><time>2026-04-18T12:49:37.355Z</time></trkpt><trkpt lat="43.5865955" lon="10.630714"><ele>31.0</ele><time>2026-04-18T12:49:38.362Z</time></trkpt><trkpt lat="43.5867156" lon="10.6307361"><ele>31.0</ele><time>2026-04-18T12:49:39.344Z</time></trkpt><trkpt lat="43.5868384" lon="10.6307631"><ele>31.0</ele><time>2026-04-18T12:49:40.251Z</time></trkpt><trkpt lat="43.5869666" lon="10.6307909"><ele>31.0</ele><time>2026-04-18T12:49:41.253Z</time></trkpt><trkpt lat="43.5870941" lon="10.630819"><ele>30.75</ele><time>2026-04-18T12:49:42.241Z</time></trkpt><trkpt lat="43.5872252" lon="10.6308457"><ele>30.5</ele><time>2026-04-18T12:49:43.358Z</time></trkpt><trkpt lat="43.5873608" lon="10.6308695"><ele>30.25</ele><time>2026-04-18T12:49:44.366Z</time></trkpt><trkpt lat="43.5874954" lon="10.630893"><ele>30.0</ele><time>2026-04-18T12:49:45.362Z</time></trkpt><trkpt lat="43.5876323" lon="10.63091"><ele>30.0</ele><time>2026-04-18T12:49:46.381Z</time></trkpt><trkpt lat="43.5877738" lon="10.6309248"><ele>30.0</ele><time>2026-04-18T12:49:47.347Z</time></trkpt><trkpt lat="43.5879168" lon="10.6309402"><ele>30.0</ele><time>2026-04-18T12:49:48.371Z</time></trkpt><trkpt lat="43.5880611" lon="10.6309538"><ele>30.0</ele><time>2026-04-18T12:49:49.364Z</time></trkpt><trkpt lat="43.5882025" lon="10.6309665"><ele>30.25</ele><time>2026-04-18T12:49:50.36Z</time></trkpt><trkpt lat="43.5883411" lon="10.6309816"><ele>30.5</ele><time>2026-04-18T12:49:51.348Z</time></trkpt><trkpt lat="43.5884765" lon="10.6309928"><ele>30.75</ele><time>2026-04-18T12:49:52.338Z</time></trkpt><trkpt lat="43.5886095" lon="10.6310036"><ele>31.0</ele><time>2026-04-18T12:49:53.347Z</time></trkpt><trkpt lat="43.5887365" lon="10.6310156"><ele>30.5</ele><time>2026-04-18T12:49:54.344Z</time></trkpt><trkpt lat="43.5888654" lon="10.6310266"><ele>30.0</ele><time>2026-04-18T12:49:55.351Z</time></trkpt><trkpt lat="43.5889904" lon="10.6310352"><ele>29.5</ele><time>2026-04-18T12:49:56.348Z</time></trkpt><trkpt lat="43.5891156" lon="10.6310465"><ele>29.0</ele><time>2026-04-18T12:49:57.377Z</time></trkpt><trkpt lat="43.589237" lon="10.6310589"><ele>29.0</ele><time>2026-04-18T12:49:58.343Z</time></trkpt><trkpt lat="43.5893565" lon="10.6310718"><ele>29.0</ele><time>2026-04-18T12:49:59.364Z</time></trkpt><trkpt lat="43.5894737" lon="10.6310877"><ele>29.0</ele><time>2026-04-18T12:50:00.38Z</time></trkpt><trkpt lat="43.5895972" lon="10.6310959"><ele>29.0</ele><time>2026-04-18T12:50:01.343Z</time></trkpt><trkpt lat="43.5897218" lon="10.6311085"><ele>29.0</ele><time>2026-04-18T12:50:02.325Z</time></trkpt><trkpt lat="43.5898495" lon="10.631125"><ele>29.0</ele><time>2026-04-18T12:50:03.356Z</time></trkpt><trkpt lat="43.589983" lon="10.6311389"><ele>29.0</ele><time>2026-04-18T12:50:04.371Z</time></trkpt><trkpt lat="43.590121" lon="10.6311514"><ele>29.0</ele><time>2026-04-18T12:50:05.37Z</time></trkpt><trkpt lat="43.5904077" lon="10.63118"><ele>28.666666666666664</ele><time>2026-04-18T12:50:07.363Z</time></trkpt><trkpt lat="43.5905555" lon="10.631194"><ele>28.333333333333336</ele><time>2026-04-18T12:50:08.37Z</time></trkpt><trkpt lat="43.5907088" lon="10.6312105"><ele>28.0</ele><time>2026-04-18T12:50:09.372Z</time></trkpt><trkpt lat="43.5910215" lon="10.6312459"><ele>28.333333333333336</ele><time>2026-04-18T12:50:11.25Z</time></trkpt><trkpt lat="43.5911822" lon="10.6312625"><ele>28.666666666666664</ele><time>2026-04-18T12:50:12.363Z</time></trkpt><trkpt lat="43.591347" lon="10.6312771"><ele>29.0</ele><time>2026-04-18T12:50:13.364Z</time></trkpt><trkpt lat="43.5916786" lon="10.6313018"><ele>29.0</ele><time>2026-04-18T12:50:15.249Z</time></trkpt><trkpt lat="43.591843" lon="10.6313162"><ele>29.0</ele><time>2026-04-18T12:50:16.248Z</time></trkpt><trkpt lat="43.5920048" lon="10.6313301"><ele>29.0</ele><time>2026-04-18T12:50:17.346Z</time></trkpt><trkpt lat="43.5921653" lon="10.6313432"><ele>28.333333333333332</ele><time>2026-04-18T12:50:18.347Z</time></trkpt><trkpt lat="43.5923258" lon="10.6313587"><ele>27.666666666666664</ele><time>2026-04-18T12:50:19.356Z</time></trkpt><trkpt lat="43.5924856" lon="10.6313757"><ele>27.0</ele><time>2026-04-18T12:50:20.366Z</time></trkpt><trkpt lat="43.5926455" lon="10.6313927"><ele>27.0</ele><time>2026-04-18T12:50:21.341Z</time></trkpt><trkpt lat="43.5928067" lon="10.6314115"><ele>27.0</ele><time>2026-04-18T12:50:22.364Z</time></trkpt><trkpt lat="43.5929686" lon="10.6314298"><ele>27.0</ele><time>2026-04-18T12:50:23.371Z</time></trkpt><trkpt lat="43.5931314" lon="10.6314474"><ele>26.666666666666664</ele><time>2026-04-18T12:50:24.349Z</time></trkpt><trkpt lat="43.5932961" lon="10.631464"><ele>26.333333333333332</ele><time>2026-04-18T12:50:25.374Z</time></trkpt><trkpt lat="43.5934615" lon="10.6314817"><ele>26.0</ele><time>2026-04-18T12:50:26.342Z</time></trkpt><trkpt lat="43.5936307" lon="10.6314963"><ele>25.666666666666664</ele><time>2026-04-18T12:50:27.366Z</time></trkpt><trkpt lat="43.5938" lon="10.6315141"><ele>25.333333333333336</ele><time>2026-04-18T12:50:28.37Z</time></trkpt><trkpt lat="43.5939724" lon="10.63153"><ele>25.0</ele><time>2026-04-18T12:50:29.367Z</time></trkpt><trkpt lat="43.5941449" lon="10.6315497"><ele>25.0</ele><time>2026-04-18T12:50:30.363Z</time></trkpt><trkpt lat="43.5943169" lon="10.6315704"><ele>25.0</ele><time>2026-04-18T12:50:31.349Z</time></trkpt><trkpt lat="43.5944865" lon="10.6315909"><ele>25.0</ele><time>2026-04-18T12:50:32.366Z</time></trkpt><trkpt lat="43.5946546" lon="10.6316097"><ele>25.666666666666668</ele><time>2026-04-18T12:50:33.362Z</time></trkpt><trkpt lat="43.5948219" lon="10.6316281"><ele>26.333333333333336</ele><time>2026-04-18T12:50:34.371Z</time></trkpt><trkpt lat="43.5949882" lon="10.6316475"><ele>27.0</ele><time>2026-04-18T12:50:35.275Z</time></trkpt><trkpt lat="43.5951553" lon="10.6316652"><ele>27.0</ele><time>2026-04-18T12:50:36.368Z</time></trkpt><trkpt lat="43.5954889" lon="10.6316958"><ele>27.0</ele><time>2026-04-18T12:50:38.342Z</time></trkpt><trkpt lat="43.595656" lon="10.6317119"><ele>27.0</ele><time>2026-04-18T12:50:39.368Z</time></trkpt><trkpt lat="43.5959848" lon="10.631748"><ele>27.0</ele><time>2026-04-18T12:50:41.254Z</time></trkpt><trkpt lat="43.5961434" lon="10.6317684"><ele>27.0</ele><time>2026-04-18T12:50:42.367Z</time></trkpt><trkpt lat="43.5963042" lon="10.6317892"><ele>27.0</ele><time>2026-04-18T12:50:43.358Z</time></trkpt><trkpt lat="43.5964664" lon="10.6318096"><ele>27.0</ele><time>2026-04-18T12:50:44.352Z</time></trkpt><trkpt lat="43.5966292" lon="10.6318309"><ele>27.0</ele><time>2026-04-18T12:50:45.367Z</time></trkpt><trkpt lat="43.5967918" lon="10.6318537"><ele>27.0</ele><time>2026-04-18T12:50:46.368Z</time></trkpt><trkpt lat="43.5969565" lon="10.6318768"><ele>27.0</ele><time>2026-04-18T12:50:47.368Z</time></trkpt><trkpt lat="43.5971217" lon="10.6318995"><ele>27.0</ele><time>2026-04-18T12:50:48.27Z</time></trkpt><trkpt lat="43.597287" lon="10.6319215"><ele>27.0</ele><time>2026-04-18T12:50:49.253Z</time></trkpt><trkpt lat="43.597452" lon="10.6319409"><ele>27.0</ele><time>2026-04-18T12:50:50.337Z</time></trkpt><trkpt lat="43.5976177" lon="10.631961"><ele>27.0</ele><time>2026-04-18T12:50:51.37Z</time></trkpt><trkpt lat="43.5977828" lon="10.6319816"><ele>27.0</ele><time>2026-04-18T12:50:52.377Z</time></trkpt><trkpt lat="43.5979492" lon="10.6320032"><ele>27.0</ele><time>2026-04-18T12:50:53.363Z</time></trkpt><trkpt lat="43.5981157" lon="10.6320247"><ele>27.0</ele><time>2026-04-18T12:50:54.346Z</time></trkpt><trkpt lat="43.5982834" lon="10.6320461"><ele>27.0</ele><time>2026-04-18T12:50:55.346Z</time></trkpt><trkpt lat="43.5984525" lon="10.632067"><ele>27.0</ele><time>2026-04-18T12:50:56.365Z</time></trkpt><trkpt lat="43.5986195" lon="10.632088"><ele>26.333333333333336</ele><time>2026-04-18T12:50:57.349Z</time></trkpt><trkpt lat="43.598785" lon="10.6321101"><ele>25.666666666666668</ele><time>2026-04-18T12:50:58.371Z</time></trkpt><trkpt lat="43.5989473" lon="10.6321306"><ele>25.0</ele><time>2026-04-18T12:50:59.366Z</time></trkpt><trkpt lat="43.5990998" lon="10.6321506"><ele>25.0</ele><time>2026-04-18T12:51:00.34Z</time></trkpt><trkpt lat="43.5992561" lon="10.6321722"><ele>25.0</ele><time>2026-04-18T12:51:01.357Z</time></trkpt><trkpt lat="43.5994109" lon="10.6321938"><ele>25.0</ele><time>2026-04-18T12:51:02.364Z</time></trkpt><trkpt lat="43.5995668" lon="10.6322154"><ele>25.333333333333336</ele><time>2026-04-18T12:51:03.37Z</time></trkpt><trkpt lat="43.5997232" lon="10.6322356"><ele>25.666666666666664</ele><time>2026-04-18T12:51:04.364Z</time></trkpt><trkpt lat="43.5998805" lon="10.6322547"><ele>26.0</ele><time>2026-04-18T12:51:05.368Z</time></trkpt><trkpt lat="43.6000391" lon="10.6322739"><ele>26.0</ele><time>2026-04-18T12:51:06.367Z</time></trkpt><trkpt lat="43.6001988" lon="10.6322945"><ele>26.0</ele><time>2026-04-18T12:51:07.347Z</time></trkpt><trkpt lat="43.6003583" lon="10.632316"><ele>26.0</ele><time>2026-04-18T12:51:08.34Z</time></trkpt><trkpt lat="43.6005188" lon="10.6323372"><ele>26.0</ele><time>2026-04-18T12:51:09.356Z</time></trkpt><trkpt lat="43.6008433" lon="10.6323799"><ele>26.0</ele><time>2026-04-18T12:51:11.247Z</time></trkpt><trkpt lat="43.6010055" lon="10.6324127"><ele>26.0</ele><time>2026-04-18T12:51:12.367Z</time></trkpt><trkpt lat="43.601165" lon="10.6324677"><ele>26.0</ele><time>2026-04-18T12:51:13.366Z</time></trkpt><trkpt lat="43.6013177" lon="10.6325461"><ele>26.0</ele><time>2026-04-18T12:51:14.36Z</time></trkpt><trkpt lat="43.6014663" lon="10.6326344"><ele>25.666666666666664</ele><time>2026-04-18T12:51:15.37Z</time></trkpt><trkpt lat="43.6016137" lon="10.6327212"><ele>25.333333333333336</ele><time>2026-04-18T12:51:16.352Z</time></trkpt><trkpt lat="43.6017623" lon="10.6327996"><ele>25.0</ele><time>2026-04-18T12:51:17.362Z</time></trkpt><trkpt lat="43.6019136" lon="10.6328685"><ele>24.0</ele><time>2026-04-18T12:51:18.36Z</time></trkpt><trkpt lat="43.6020683" lon="10.6329296"><ele>23.0</ele><time>2026-04-18T12:51:19.359Z</time></trkpt><trkpt lat="43.602226" lon="10.632979"><ele>22.0</ele><time>2026-04-18T12:51:20.36Z</time></trkpt><trkpt lat="43.6025522" lon="10.6330205"><ele>22.0</ele><time>2026-04-18T12:51:22.247Z</time></trkpt><trkpt lat="43.6027182" lon="10.6330151"><ele>22.0</ele><time>2026-04-18T12:51:23.362Z</time></trkpt><trkpt lat="43.6028866" lon="10.6329987"><ele>22.0</ele><time>2026-04-18T12:51:24.344Z</time></trkpt><trkpt lat="43.6030562" lon="10.6329719"><ele>23.0</ele><time>2026-04-18T12:51:25.252Z</time></trkpt><trkpt lat="43.6032286" lon="10.6329401"><ele>24.0</ele><time>2026-04-18T12:51:26.327Z</time></trkpt><trkpt lat="43.6034017" lon="10.632906"><ele>25.0</ele><time>2026-04-18T12:51:27.338Z</time></trkpt><trkpt lat="43.6035764" lon="10.6328726"><ele>25.0</ele><time>2026-04-18T12:51:28.249Z</time></trkpt><trkpt lat="43.6037509" lon="10.6328413"><ele>25.0</ele><time>2026-04-18T12:51:29.353Z</time></trkpt><trkpt lat="43.6040781" lon="10.6328023"><ele>25.0</ele><time>2026-04-18T12:51:31.343Z</time></trkpt><trkpt lat="43.6042415" lon="10.6327851"><ele>25.0</ele><time>2026-04-18T12:51:32.359Z</time></trkpt><trkpt lat="43.6044042" lon="10.632768"><ele>25.0</ele><time>2026-04-18T12:51:33.361Z</time></trkpt><trkpt lat="43.6045697" lon="10.6327521"><ele>25.0</ele><time>2026-04-18T12:51:34.371Z</time></trkpt><trkpt lat="43.6047357" lon="10.6327347"><ele>25.0</ele><time>2026-04-18T12:51:35.337Z</time></trkpt><trkpt lat="43.6049008" lon="10.6327215"><ele>25.0</ele><time>2026-04-18T12:51:36.339Z</time></trkpt><trkpt lat="43.605065" lon="10.6327078"><ele>25.0</ele><time>2026-04-18T12:51:37.347Z</time></trkpt><trkpt lat="43.6052267" lon="10.6326989"><ele>25.0</ele><time>2026-04-18T12:51:38.362Z</time></trkpt><trkpt lat="43.6053854" lon="10.6326932"><ele>25.0</ele><time>2026-04-18T12:51:39.374Z</time></trkpt><trkpt lat="43.6056905" lon="10.632688"><ele>24.75</ele><time>2026-04-18T12:51:41.255Z</time></trkpt><trkpt lat="43.6058397" lon="10.6326883"><ele>24.5</ele><time>2026-04-18T12:51:42.369Z</time></trkpt><trkpt lat="43.6059902" lon="10.6326843"><ele>24.25</ele><time>2026-04-18T12:51:43.334Z</time></trkpt><trkpt lat="43.6061378" lon="10.6326711"><ele>24.0</ele><time>2026-04-18T12:51:44.368Z</time></trkpt><trkpt lat="43.6062857" lon="10.6326496"><ele>24.0</ele><time>2026-04-18T12:51:45.367Z</time></trkpt><trkpt lat="43.6064249" lon="10.6326277"><ele>24.0</ele><time>2026-04-18T12:51:46.359Z</time></trkpt><trkpt lat="43.6065547" lon="10.6326067"><ele>24.0</ele><time>2026-04-18T12:51:47.347Z</time></trkpt><trkpt lat="43.6066804" lon="10.6325836"><ele>24.0</ele><time>2026-04-18T12:51:48.351Z</time></trkpt><trkpt lat="43.6067921" lon="10.6325631"><ele>24.0</ele><time>2026-04-18T12:51:49.352Z</time></trkpt><trkpt lat="43.6069682" lon="10.6325289"><ele>24.0</ele><time>2026-04-18T12:51:51.248Z</time></trkpt><trkpt lat="43.6070663" lon="10.6325126"><ele>24.0</ele><time>2026-04-18T12:51:53.365Z</time></trkpt><trkpt lat="43.6071583" lon="10.6324908"><ele>24.0</ele><time>2026-04-18T12:51:55.35Z</time></trkpt><trkpt lat="43.6072446" lon="10.63239"><ele>23.799999999999997</ele><time>2026-04-18T12:51:57.364Z</time></trkpt><trkpt lat="43.607275" lon="10.6322963"><ele>23.599999999999998</ele><time>2026-04-18T12:51:58.335Z</time></trkpt><trkpt lat="43.6072807" lon="10.6321815"><ele>23.4</ele><time>2026-04-18T12:51:59.361Z</time></trkpt><trkpt lat="43.6072703" lon="10.6320486"><ele>23.2</ele><time>2026-04-18T12:52:00.367Z</time></trkpt><trkpt lat="43.6072639" lon="10.631905"><ele>23.0</ele><time>2026-04-18T12:52:01.363Z</time></trkpt><trkpt lat="43.6073136" lon="10.631606"><ele>23.0</ele><time>2026-04-18T12:52:03.251Z</time></trkpt><trkpt lat="43.6073444" lon="10.6314521"><ele>23.0</ele><time>2026-04-18T12:52:04.251Z</time></trkpt><trkpt lat="43.6073762" lon="10.6313093"><ele>23.0</ele><time>2026-04-18T12:52:05.25Z</time></trkpt><trkpt lat="43.6074006" lon="10.6311713"><ele>23.0</ele><time>2026-04-18T12:52:06.242Z</time></trkpt><trkpt lat="43.607419" lon="10.631029"><ele>23.0</ele><time>2026-04-18T12:52:07.247Z</time></trkpt><trkpt lat="43.6074192" lon="10.6308958"><ele>23.25</ele><time>2026-04-18T12:52:08.249Z</time></trkpt><trkpt lat="43.6073919" lon="10.6307596"><ele>23.5</ele><time>2026-04-18T12:52:09.345Z</time></trkpt><trkpt lat="43.6073408" lon="10.6306414"><ele>23.75</ele><time>2026-04-18T12:52:10.366Z</time></trkpt><trkpt lat="43.6072024" lon="10.6304923"><ele>24.0</ele><time>2026-04-18T12:52:12.248Z</time></trkpt><trkpt lat="43.6071289" lon="10.6304579"><ele>24.0</ele><time>2026-04-18T12:52:13.248Z</time></trkpt><trkpt lat="43.6070563" lon="10.630437"><ele>24.0</ele><time>2026-04-18T12:52:14.341Z</time></trkpt><trkpt lat="43.6069844" lon="10.6304165"><ele>24.0</ele><time>2026-04-18T12:52:15.323Z</time></trkpt><trkpt lat="43.6069138" lon="10.6303802"><ele>24.0</ele><time>2026-04-18T12:52:16.249Z</time></trkpt><trkpt lat="43.6068466" lon="10.6303201"><ele>24.0</ele><time>2026-04-18T12:52:17.361Z</time></trkpt><trkpt lat="43.6067887" lon="10.6302319"><ele>24.0</ele><time>2026-04-18T12:52:18.351Z</time></trkpt><trkpt lat="43.6067501" lon="10.6301203"><ele>24.0</ele><time>2026-04-18T12:52:19.343Z</time></trkpt><trkpt lat="43.6067327" lon="10.6299881"><ele>24.0</ele><time>2026-04-18T12:52:20.247Z</time></trkpt><trkpt lat="43.6067293" lon="10.6298314"><ele>24.0</ele><time>2026-04-18T12:52:21.265Z</time></trkpt><trkpt lat="43.6067347" lon="10.6296621"><ele>24.0</ele><time>2026-04-18T12:52:22.247Z</time></trkpt><trkpt lat="43.6067441" lon="10.6294827"><ele>23.333333333333332</ele><time>2026-04-18T12:52:23.359Z</time></trkpt><trkpt lat="43.6067577" lon="10.6292916"><ele>22.666666666666664</ele><time>2026-04-18T12:52:24.363Z</time></trkpt><trkpt lat="43.6067769" lon="10.629096"><ele>22.0</ele><time>2026-04-18T12:52:25.367Z</time></trkpt><trkpt lat="43.6068227" lon="10.6287019"><ele>23.5</ele><time>2026-04-18T12:52:27.356Z</time></trkpt><trkpt lat="43.6068879" lon="10.6283002"><ele>25.0</ele><time>2026-04-18T12:52:29.25Z</time></trkpt><trkpt lat="43.6069504" lon="10.6281058"><ele>24.333333333333336</ele><time>2026-04-18T12:52:30.326Z</time></trkpt><trkpt lat="43.606997" lon="10.627909"><ele>23.666666666666668</ele><time>2026-04-18T12:52:31.353Z</time></trkpt><trkpt lat="43.6070469" lon="10.6277115"><ele>23.0</ele><time>2026-04-18T12:52:32.246Z</time></trkpt><trkpt lat="43.607103" lon="10.6275094"><ele>23.0</ele><time>2026-04-18T12:52:33.362Z</time></trkpt><trkpt lat="43.6071663" lon="10.6273076"><ele>23.0</ele><time>2026-04-18T12:52:34.364Z</time></trkpt><trkpt lat="43.6072321" lon="10.6271009"><ele>23.0</ele><time>2026-04-18T12:52:35.362Z</time></trkpt><trkpt lat="43.6073065" lon="10.6268928"><ele>24.5</ele><time>2026-04-18T12:52:36.331Z</time></trkpt><trkpt lat="43.607387" lon="10.626683"><ele>26.0</ele><time>2026-04-18T12:52:37.361Z</time></trkpt><trkpt lat="43.6075746" lon="10.6262649"><ele>25.666666666666664</ele><time>2026-04-18T12:52:39.351Z</time></trkpt><trkpt lat="43.6076768" lon="10.6260571"><ele>25.333333333333336</ele><time>2026-04-18T12:52:40.344Z</time></trkpt><trkpt lat="43.6077845" lon="10.6258532"><ele>25.0</ele><time>2026-04-18T12:52:41.247Z</time></trkpt><trkpt lat="43.6078917" lon="10.62566"><ele>25.0</ele><time>2026-04-18T12:52:42.246Z</time></trkpt><trkpt lat="43.6079996" lon="10.6254719"><ele>25.0</ele><time>2026-04-18T12:52:43.318Z</time></trkpt><trkpt lat="43.6081109" lon="10.6252904"><ele>25.0</ele><time>2026-04-18T12:52:44.249Z</time></trkpt><trkpt lat="43.6082298" lon="10.6251097"><ele>25.333333333333336</ele><time>2026-04-18T12:52:45.25Z</time></trkpt><trkpt lat="43.6083552" lon="10.6249327"><ele>25.666666666666664</ele><time>2026-04-18T12:52:46.355Z</time></trkpt><trkpt lat="43.608488" lon="10.62476"><ele>26.0</ele><time>2026-04-18T12:52:47.364Z</time></trkpt><trkpt lat="43.6086299" lon="10.6245931"><ele>26.666666666666664</ele><time>2026-04-18T12:52:48.364Z</time></trkpt><trkpt lat="43.6087748" lon="10.6244263"><ele>27.333333333333336</ele><time>2026-04-18T12:52:49.356Z</time></trkpt><trkpt lat="43.6089199" lon="10.624261"><ele>28.0</ele><time>2026-04-18T12:52:50.374Z</time></trkpt><trkpt lat="43.6090648" lon="10.6240957"><ele>28.0</ele><time>2026-04-18T12:52:51.364Z</time></trkpt><trkpt lat="43.6092122" lon="10.6239324"><ele>28.0</ele><time>2026-04-18T12:52:52.366Z</time></trkpt><trkpt lat="43.6093621" lon="10.6237623"><ele>28.0</ele><time>2026-04-18T12:52:53.378Z</time></trkpt><trkpt lat="43.609664" lon="10.6234303"><ele>27.0</ele><time>2026-04-18T12:52:55.364Z</time></trkpt><trkpt lat="43.6098176" lon="10.6232643"><ele>26.0</ele><time>2026-04-18T12:52:56.351Z</time></trkpt><trkpt lat="43.6099728" lon="10.6231037"><ele>25.0</ele><time>2026-04-18T12:52:57.342Z</time></trkpt><trkpt lat="43.6101234" lon="10.6229606"><ele>25.0</ele><time>2026-04-18T12:52:58.367Z</time></trkpt><trkpt lat="43.610269" lon="10.6228253"><ele>25.0</ele><time>2026-04-18T12:52:59.348Z</time></trkpt><trkpt lat="43.6104145" lon="10.6226916"><ele>25.0</ele><time>2026-04-18T12:53:00.365Z</time></trkpt><trkpt lat="43.6105579" lon="10.6225588"><ele>24.333333333333336</ele><time>2026-04-18T12:53:01.34Z</time></trkpt><trkpt lat="43.6107001" lon="10.6224269"><ele>23.666666666666668</ele><time>2026-04-18T12:53:02.362Z</time></trkpt><trkpt lat="43.610841" lon="10.6222943"><ele>23.0</ele><time>2026-04-18T12:53:03.355Z</time></trkpt><trkpt lat="43.6109809" lon="10.6221607"><ele>23.0</ele><time>2026-04-18T12:53:04.36Z</time></trkpt><trkpt lat="43.6111198" lon="10.6220263"><ele>23.0</ele><time>2026-04-18T12:53:05.342Z</time></trkpt><trkpt lat="43.6112573" lon="10.6218928"><ele>23.0</ele><time>2026-04-18T12:53:06.349Z</time></trkpt><trkpt lat="43.6113914" lon="10.6217639"><ele>23.0</ele><time>2026-04-18T12:53:07.342Z</time></trkpt><trkpt lat="43.6115275" lon="10.6216364"><ele>23.0</ele><time>2026-04-18T12:53:08.362Z</time></trkpt><trkpt lat="43.6116685" lon="10.6215197"><ele>23.0</ele><time>2026-04-18T12:53:09.36Z</time></trkpt><trkpt lat="43.611821" lon="10.6214231"><ele>22.5</ele><time>2026-04-18T12:53:10.361Z</time></trkpt><trkpt lat="43.6121532" lon="10.6212963"><ele>22.0</ele><time>2026-04-18T12:53:12.249Z</time></trkpt><trkpt lat="43.6123253" lon="10.6212523"><ele>22.0</ele><time>2026-04-18T12:53:13.369Z</time></trkpt><trkpt lat="43.6124871" lon="10.6212073"><ele>22.0</ele><time>2026-04-18T12:53:14.371Z</time></trkpt><trkpt lat="43.6126479" lon="10.6211573"><ele>22.0</ele><time>2026-04-18T12:53:15.37Z</time></trkpt><trkpt lat="43.6127988" lon="10.6211001"><ele>22.0</ele><time>2026-04-18T12:53:16.37Z</time></trkpt><trkpt lat="43.6129394" lon="10.6210345"><ele>22.0</ele><time>2026-04-18T12:53:17.372Z</time></trkpt><trkpt lat="43.6130735" lon="10.6209565"><ele>22.0</ele><time>2026-04-18T12:53:18.36Z</time></trkpt><trkpt lat="43.6132057" lon="10.6208624"><ele>22.0</ele><time>2026-04-18T12:53:19.355Z</time></trkpt><trkpt lat="43.6133367" lon="10.6207537"><ele>22.0</ele><time>2026-04-18T12:53:20.353Z</time></trkpt><trkpt lat="43.6134677" lon="10.620634"><ele>22.0</ele><time>2026-04-18T12:53:21.363Z</time></trkpt><trkpt lat="43.6136026" lon="10.6205097"><ele>22.0</ele><time>2026-04-18T12:53:22.345Z</time></trkpt><trkpt lat="43.613742" lon="10.6203807"><ele>21.333333333333332</ele><time>2026-04-18T12:53:23.366Z</time></trkpt><trkpt lat="43.6138862" lon="10.6202499"><ele>20.666666666666668</ele><time>2026-04-18T12:53:24.345Z</time></trkpt><trkpt lat="43.6140357" lon="10.6201214"><ele>20.0</ele><time>2026-04-18T12:53:25.371Z</time></trkpt><trkpt lat="43.6141884" lon="10.6199959"><ele>20.0</ele><time>2026-04-18T12:53:26.367Z</time></trkpt><trkpt lat="43.6143409" lon="10.6198783"><ele>20.0</ele><time>2026-04-18T12:53:27.337Z</time></trkpt><trkpt lat="43.6144916" lon="10.619767"><ele>20.0</ele><time>2026-04-18T12:53:28.369Z</time></trkpt><trkpt lat="43.6146423" lon="10.6196594"><ele>19.5</ele><time>2026-04-18T12:53:29.366Z</time></trkpt><trkpt lat="43.6147922" lon="10.6195495"><ele>19.0</ele><time>2026-04-18T12:53:30.365Z</time></trkpt><trkpt lat="43.6150882" lon="10.619322"><ele>19.0</ele><time>2026-04-18T12:53:32.248Z</time></trkpt><trkpt lat="43.6152401" lon="10.6192029"><ele>19.0</ele><time>2026-04-18T12:53:33.344Z</time></trkpt><trkpt lat="43.615391" lon="10.6190739"><ele>19.0</ele><time>2026-04-18T12:53:34.25Z</time></trkpt><trkpt lat="43.6155425" lon="10.6189431"><ele>19.0</ele><time>2026-04-18T12:53:35.251Z</time></trkpt><trkpt lat="43.6156946" lon="10.6188088"><ele>19.0</ele><time>2026-04-18T12:53:36.244Z</time></trkpt><trkpt lat="43.6158458" lon="10.6186734"><ele>19.0</ele><time>2026-04-18T12:53:37.245Z</time></trkpt><trkpt lat="43.615997" lon="10.6185389"><ele>18.666666666666664</ele><time>2026-04-18T12:53:38.247Z</time></trkpt><trkpt lat="43.6161472" lon="10.6184039"><ele>18.333333333333332</ele><time>2026-04-18T12:53:39.25Z</time></trkpt><trkpt lat="43.6162926" lon="10.6182629"><ele>18.0</ele><time>2026-04-18T12:53:40.325Z</time></trkpt><trkpt lat="43.6164311" lon="10.6181162"><ele>18.0</ele><time>2026-04-18T12:53:41.25Z</time></trkpt><trkpt lat="43.6165588" lon="10.6179721"><ele>18.0</ele><time>2026-04-18T12:53:42.248Z</time></trkpt><trkpt lat="43.6166774" lon="10.6178265"><ele>18.0</ele><time>2026-04-18T12:53:43.245Z</time></trkpt><trkpt lat="43.6167944" lon="10.617677"><ele>17.666666666666668</ele><time>2026-04-18T12:53:44.252Z</time></trkpt><trkpt lat="43.6169084" lon="10.6175274"><ele>17.333333333333336</ele><time>2026-04-18T12:53:45.247Z</time></trkpt><trkpt lat="43.6170215" lon="10.6173761"><ele>17.0</ele><time>2026-04-18T12:53:46.247Z</time></trkpt><trkpt lat="43.6171354" lon="10.6172237"><ele>17.333333333333336</ele><time>2026-04-18T12:53:47.339Z</time></trkpt><trkpt lat="43.6172492" lon="10.6170697"><ele>17.666666666666668</ele><time>2026-04-18T12:53:48.339Z</time></trkpt><trkpt lat="43.6173611" lon="10.6169127"><ele>18.0</ele><time>2026-04-18T12:53:49.369Z</time></trkpt><trkpt lat="43.61747" lon="10.6167547"><ele>18.0</ele><time>2026-04-18T12:53:50.362Z</time></trkpt><trkpt lat="43.617578" lon="10.6165956"><ele>18.0</ele><time>2026-04-18T12:53:51.345Z</time></trkpt><trkpt lat="43.6176837" lon="10.6164322"><ele>18.0</ele><time>2026-04-18T12:53:52.25Z</time></trkpt><trkpt lat="43.6177894" lon="10.6162646"><ele>18.0</ele><time>2026-04-18T12:53:53.341Z</time></trkpt><trkpt lat="43.6178937" lon="10.6160937"><ele>18.0</ele><time>2026-04-18T12:53:54.343Z</time></trkpt><trkpt lat="43.617997" lon="10.6159166"><ele>18.0</ele><time>2026-04-18T12:53:55.252Z</time></trkpt><trkpt lat="43.618097" lon="10.6157417"><ele>18.0</ele><time>2026-04-18T12:53:56.241Z</time></trkpt><trkpt lat="43.6181917" lon="10.6155716"><ele>18.0</ele><time>2026-04-18T12:53:57.247Z</time></trkpt><trkpt lat="43.6182808" lon="10.6154042"><ele>18.0</ele><time>2026-04-18T12:53:58.241Z</time></trkpt><trkpt lat="43.6183672" lon="10.6152371"><ele>18.0</ele><time>2026-04-18T12:53:59.244Z</time></trkpt><trkpt lat="43.6184515" lon="10.6150684"><ele>18.0</ele><time>2026-04-18T12:54:00.248Z</time></trkpt><trkpt lat="43.6185323" lon="10.6148996"><ele>18.0</ele><time>2026-04-18T12:54:01.338Z</time></trkpt><trkpt lat="43.6186095" lon="10.6147314"><ele>18.0</ele><time>2026-04-18T12:54:02.247Z</time></trkpt><trkpt lat="43.6186849" lon="10.6145663"><ele>18.0</ele><time>2026-04-18T12:54:03.245Z</time></trkpt><trkpt lat="43.6187568" lon="10.6144006"><ele>18.0</ele><time>2026-04-18T12:54:04.25Z</time></trkpt><trkpt lat="43.6188258" lon="10.6142423"><ele>18.0</ele><time>2026-04-18T12:54:05.247Z</time></trkpt><trkpt lat="43.6188917" lon="10.6140883"><ele>18.0</ele><time>2026-04-18T12:54:06.242Z</time></trkpt><trkpt lat="43.6189536" lon="10.6139412"><ele>18.0</ele><time>2026-04-18T12:54:07.248Z</time></trkpt><trkpt lat="43.6190106" lon="10.6137995"><ele>18.0</ele><time>2026-04-18T12:54:08.254Z</time></trkpt><trkpt lat="43.6190649" lon="10.6136642"><ele>18.0</ele><time>2026-04-18T12:54:09.36Z</time></trkpt><trkpt lat="43.6191159" lon="10.6135325"><ele>18.0</ele><time>2026-04-18T12:54:10.346Z</time></trkpt><trkpt lat="43.6191631" lon="10.6134071"><ele>18.0</ele><time>2026-04-18T12:54:11.249Z</time></trkpt><trkpt lat="43.6192065" lon="10.6132904"><ele>18.0</ele><time>2026-04-18T12:54:12.252Z</time></trkpt><trkpt lat="43.6192477" lon="10.6131786"><ele>18.0</ele><time>2026-04-18T12:54:13.372Z</time></trkpt><trkpt lat="43.6192879" lon="10.6130744"><ele>18.0</ele><time>2026-04-18T12:54:14.355Z</time></trkpt><trkpt lat="43.6193278" lon="10.6129818"><ele>18.0</ele><time>2026-04-18T12:54:15.344Z</time></trkpt><trkpt lat="43.6193737" lon="10.6128895"><ele>18.0</ele><time>2026-04-18T12:54:16.246Z</time></trkpt><trkpt lat="43.6194267" lon="10.6128026"><ele>18.0</ele><time>2026-04-18T12:54:17.247Z</time></trkpt><trkpt lat="43.6194911" lon="10.6127234"><ele>17.8</ele><time>2026-04-18T12:54:18.348Z</time></trkpt><trkpt lat="43.6195652" lon="10.6126553"><ele>17.6</ele><time>2026-04-18T12:54:19.365Z</time></trkpt><trkpt lat="43.6196452" lon="10.6125925"><ele>17.4</ele><time>2026-04-18T12:54:20.376Z</time></trkpt><trkpt lat="43.6197179" lon="10.6125092"><ele>17.2</ele><time>2026-04-18T12:54:21.376Z</time></trkpt><trkpt lat="43.6197702" lon="10.6124076"><ele>17.0</ele><time>2026-04-18T12:54:22.337Z</time></trkpt><trkpt lat="43.6197972" lon="10.6122967"><ele>17.0</ele><time>2026-04-18T12:54:23.326Z</time></trkpt><trkpt lat="43.6198006" lon="10.6121768"><ele>17.0</ele><time>2026-04-18T12:54:24.33Z</time></trkpt><trkpt lat="43.6197914" lon="10.612049"><ele>17.0</ele><time>2026-04-18T12:54:25.345Z</time></trkpt><trkpt lat="43.6197932" lon="10.6119074"><ele>17.0</ele><time>2026-04-18T12:54:26.363Z</time></trkpt><trkpt lat="43.6198192" lon="10.6117591"><ele>17.0</ele><time>2026-04-18T12:54:27.364Z</time></trkpt><trkpt lat="43.619925" lon="10.6114431"><ele>17.0</ele><time>2026-04-18T12:54:29.359Z</time></trkpt><trkpt lat="43.6200547" lon="10.6111088"><ele>17.0</ele><time>2026-04-18T12:54:31.349Z</time></trkpt><trkpt lat="43.6201175" lon="10.610936"><ele>17.0</ele><time>2026-04-18T12:54:32.37Z</time></trkpt><trkpt lat="43.620183" lon="10.6107574"><ele>17.0</ele><time>2026-04-18T12:54:33.365Z</time></trkpt><trkpt lat="43.6202494" lon="10.6105747"><ele>17.0</ele><time>2026-04-18T12:54:34.344Z</time></trkpt><trkpt lat="43.6203165" lon="10.6103885"><ele>17.0</ele><time>2026-04-18T12:54:35.254Z</time></trkpt><trkpt lat="43.6203867" lon="10.6102015"><ele>16.666666666666668</ele><time>2026-04-18T12:54:36.36Z</time></trkpt><trkpt lat="43.6204581" lon="10.6100072"><ele>16.333333333333332</ele><time>2026-04-18T12:54:37.361Z</time></trkpt><trkpt lat="43.6205322" lon="10.609814"><ele>16.0</ele><time>2026-04-18T12:54:38.341Z</time></trkpt><trkpt lat="43.6206055" lon="10.6096137"><ele>16.666666666666664</ele><time>2026-04-18T12:54:39.34Z</time></trkpt><trkpt lat="43.6206835" lon="10.6094113"><ele>17.333333333333332</ele><time>2026-04-18T12:54:40.335Z</time></trkpt><trkpt lat="43.6207637" lon="10.6092062"><ele>18.0</ele><time>2026-04-18T12:54:41.242Z</time></trkpt><trkpt lat="43.6208444" lon="10.6089995"><ele>18.0</ele><time>2026-04-18T12:54:42.242Z</time></trkpt><trkpt lat="43.6209251" lon="10.6087886"><ele>18.0</ele><time>2026-04-18T12:54:43.25Z</time></trkpt><trkpt lat="43.6210074" lon="10.6085722"><ele>18.0</ele><time>2026-04-18T12:54:44.246Z</time></trkpt><trkpt lat="43.6210916" lon="10.6083505"><ele>17.0</ele><time>2026-04-18T12:54:45.248Z</time></trkpt><trkpt lat="43.6211768" lon="10.6081246"><ele>16.0</ele><time>2026-04-18T12:54:46.245Z</time></trkpt><trkpt lat="43.621264" lon="10.6078951"><ele>15.0</ele><time>2026-04-18T12:54:47.25Z</time></trkpt><trkpt lat="43.6213518" lon="10.6076668"><ele>15.0</ele><time>2026-04-18T12:54:48.253Z</time></trkpt><trkpt lat="43.6214389" lon="10.6074413"><ele>15.0</ele><time>2026-04-18T12:54:49.368Z</time></trkpt><trkpt lat="43.6215256" lon="10.6072184"><ele>15.0</ele><time>2026-04-18T12:54:50.364Z</time></trkpt><trkpt lat="43.6216121" lon="10.6069984"><ele>16.0</ele><time>2026-04-18T12:54:51.357Z</time></trkpt><trkpt lat="43.6217817" lon="10.6065627"><ele>17.0</ele><time>2026-04-18T12:54:53.252Z</time></trkpt><trkpt lat="43.6218656" lon="10.6063474"><ele>17.333333333333336</ele><time>2026-04-18T12:54:54.35Z</time></trkpt><trkpt lat="43.6219483" lon="10.6061318"><ele>17.666666666666668</ele><time>2026-04-18T12:54:55.337Z</time></trkpt><trkpt lat="43.6220328" lon="10.6059152"><ele>18.0</ele><time>2026-04-18T12:54:56.349Z</time></trkpt><trkpt lat="43.6221176" lon="10.6056963"><ele>17.666666666666668</ele><time>2026-04-18T12:54:57.37Z</time></trkpt><trkpt lat="43.6222046" lon="10.6054755"><ele>17.333333333333336</ele><time>2026-04-18T12:54:58.371Z</time></trkpt><trkpt lat="43.6222965" lon="10.6052529"><ele>17.0</ele><time>2026-04-18T12:54:59.366Z</time></trkpt><trkpt lat="43.6224916" lon="10.6048071"><ele>17.0</ele><time>2026-04-18T12:55:01.363Z</time></trkpt><trkpt lat="43.6225903" lon="10.6045937"><ele>17.0</ele><time>2026-04-18T12:55:02.353Z</time></trkpt><trkpt lat="43.6227946" lon="10.6041943"><ele>16.666666666666668</ele><time>2026-04-18T12:55:04.337Z</time></trkpt><trkpt lat="43.6229034" lon="10.6040097"><ele>16.333333333333332</ele><time>2026-04-18T12:55:05.25Z</time></trkpt><trkpt lat="43.6230122" lon="10.6038405"><ele>16.0</ele><time>2026-04-18T12:55:06.24Z</time></trkpt><trkpt lat="43.6231212" lon="10.6036838"><ele>16.0</ele><time>2026-04-18T12:55:07.247Z</time></trkpt><trkpt lat="43.6232293" lon="10.6035416"><ele>16.0</ele><time>2026-04-18T12:55:08.248Z</time></trkpt><trkpt lat="43.6233363" lon="10.6034104"><ele>16.0</ele><time>2026-04-18T12:55:09.355Z</time></trkpt><trkpt lat="43.623435" lon="10.6032958"><ele>16.0</ele><time>2026-04-18T12:55:10.354Z</time></trkpt><trkpt lat="43.6236029" lon="10.6031221"><ele>15.999999999999998</ele><time>2026-04-18T12:55:12.246Z</time></trkpt><trkpt lat="43.6236791" lon="10.6030609"><ele>16.0</ele><time>2026-04-18T12:55:13.375Z</time></trkpt><trkpt lat="43.623756" lon="10.6030174"><ele>16.0</ele><time>2026-04-18T12:55:14.33Z</time></trkpt><trkpt lat="43.6238378" lon="10.6030124"><ele>16.0</ele><time>2026-04-18T12:55:15.336Z</time></trkpt><trkpt lat="43.6239253" lon="10.60302"><ele>15.999999999999998</ele><time>2026-04-18T12:55:16.365Z</time></trkpt><trkpt lat="43.624019" lon="10.6030043"><ele>16.0</ele><time>2026-04-18T12:55:17.344Z</time></trkpt><trkpt lat="43.6241053" lon="10.6029619"><ele>16.0</ele><time>2026-04-18T12:55:18.342Z</time></trkpt><trkpt lat="43.6241801" lon="10.6028899"><ele>16.0</ele><time>2026-04-18T12:55:19.333Z</time></trkpt><trkpt lat="43.6242374" lon="10.602792"><ele>16.0</ele><time>2026-04-18T12:55:20.344Z</time></trkpt><trkpt lat="43.6242908" lon="10.6026723"><ele>16.0</ele><time>2026-04-18T12:55:21.342Z</time></trkpt><trkpt lat="43.6243576" lon="10.6025474"><ele>16.0</ele><time>2026-04-18T12:55:22.332Z</time></trkpt><trkpt lat="43.6244512" lon="10.6024567"><ele>15.666666666666666</ele><time>2026-04-18T12:55:23.366Z</time></trkpt><trkpt lat="43.6245571" lon="10.6023973"><ele>15.333333333333332</ele><time>2026-04-18T12:55:24.365Z</time></trkpt><trkpt lat="43.6247932" lon="10.6023307"><ele>15.0</ele><time>2026-04-18T12:55:26.248Z</time></trkpt><trkpt lat="43.6249183" lon="10.6023039"><ele>15.0</ele><time>2026-04-18T12:55:27.248Z</time></trkpt><trkpt lat="43.625048" lon="10.6022787"><ele>15.0</ele><time>2026-04-18T12:55:28.329Z</time></trkpt><trkpt lat="43.6251791" lon="10.60226"><ele>15.0</ele><time>2026-04-18T12:55:29.341Z</time></trkpt><trkpt lat="43.6253124" lon="10.6022455"><ele>15.0</ele><time>2026-04-18T12:55:30.379Z</time></trkpt><trkpt lat="43.6254488" lon="10.6022344"><ele>15.0</ele><time>2026-04-18T12:55:31.356Z</time></trkpt><trkpt lat="43.6255876" lon="10.6022268"><ele>15.0</ele><time>2026-04-18T12:55:32.347Z</time></trkpt><trkpt lat="43.6257286" lon="10.6022247"><ele>15.0</ele><time>2026-04-18T12:55:33.341Z</time></trkpt><trkpt lat="43.6258723" lon="10.6022334"><ele>15.0</ele><time>2026-04-18T12:55:34.362Z</time></trkpt><trkpt lat="43.6260162" lon="10.6022493"><ele>14.666666666666668</ele><time>2026-04-18T12:55:35.369Z</time></trkpt><trkpt lat="43.6261624" lon="10.6022733"><ele>14.333333333333334</ele><time>2026-04-18T12:55:36.344Z</time></trkpt><trkpt lat="43.6263109" lon="10.6023057"><ele>14.0</ele><time>2026-04-18T12:55:37.364Z</time></trkpt><trkpt lat="43.6264623" lon="10.6023456"><ele>14.0</ele><time>2026-04-18T12:55:38.346Z</time></trkpt><trkpt lat="43.6266151" lon="10.6023911"><ele>14.0</ele><time>2026-04-18T12:55:39.361Z</time></trkpt><trkpt lat="43.6267718" lon="10.602441"><ele>14.0</ele><time>2026-04-18T12:55:40.345Z</time></trkpt><trkpt lat="43.6269304" lon="10.602498"><ele>14.666666666666668</ele><time>2026-04-18T12:55:41.251Z</time></trkpt><trkpt lat="43.627092" lon="10.6025652"><ele>15.333333333333332</ele><time>2026-04-18T12:55:42.248Z</time></trkpt><trkpt lat="43.6272566" lon="10.6026408"><ele>16.0</ele><time>2026-04-18T12:55:43.378Z</time></trkpt><trkpt lat="43.6275855" lon="10.6028128"><ele>16.0</ele><time>2026-04-18T12:55:45.251Z</time></trkpt><trkpt lat="43.6277513" lon="10.6029034"><ele>16.0</ele><time>2026-04-18T12:55:46.345Z</time></trkpt><trkpt lat="43.6279148" lon="10.6029917"><ele>16.0</ele><time>2026-04-18T12:55:47.343Z</time></trkpt><trkpt lat="43.6280803" lon="10.6030803"><ele>16.0</ele><time>2026-04-18T12:55:48.254Z</time></trkpt><trkpt lat="43.6282476" lon="10.6031744"><ele>16.0</ele><time>2026-04-18T12:55:49.34Z</time></trkpt><trkpt lat="43.6284138" lon="10.60327"><ele>16.0</ele><time>2026-04-18T12:55:50.331Z</time></trkpt><trkpt lat="43.6285807" lon="10.6033661"><ele>15.333333333333332</ele><time>2026-04-18T12:55:51.347Z</time></trkpt><trkpt lat="43.6287508" lon="10.6034604"><ele>14.666666666666668</ele><time>2026-04-18T12:55:52.368Z</time></trkpt><trkpt lat="43.6289222" lon="10.6035525"><ele>14.0</ele><time>2026-04-18T12:55:53.366Z</time></trkpt><trkpt lat="43.6290976" lon="10.603643"><ele>14.0</ele><time>2026-04-18T12:55:54.346Z</time></trkpt><trkpt lat="43.629273" lon="10.6037363"><ele>14.0</ele><time>2026-04-18T12:55:55.339Z</time></trkpt><trkpt lat="43.6294363" lon="10.6038274"><ele>14.0</ele><time>2026-04-18T12:55:56.345Z</time></trkpt><trkpt lat="43.6295914" lon="10.6039147"><ele>13.666666666666668</ele><time>2026-04-18T12:55:57.335Z</time></trkpt><trkpt lat="43.6297385" lon="10.6039981"><ele>13.333333333333332</ele><time>2026-04-18T12:55:58.343Z</time></trkpt><trkpt lat="43.6298817" lon="10.6040773"><ele>13.0</ele><time>2026-04-18T12:55:59.361Z</time></trkpt><trkpt lat="43.6300239" lon="10.6041547"><ele>13.0</ele><time>2026-04-18T12:56:00.366Z</time></trkpt><trkpt lat="43.6301647" lon="10.6042318"><ele>13.0</ele><time>2026-04-18T12:56:01.37Z</time></trkpt><trkpt lat="43.6302991" lon="10.6043073"><ele>13.0</ele><time>2026-04-18T12:56:02.372Z</time></trkpt><trkpt lat="43.6304266" lon="10.6043772"><ele>13.0</ele><time>2026-04-18T12:56:03.341Z</time></trkpt><trkpt lat="43.6305494" lon="10.6044422"><ele>13.666666666666666</ele><time>2026-04-18T12:56:04.336Z</time></trkpt><trkpt lat="43.6306685" lon="10.6045047"><ele>14.333333333333332</ele><time>2026-04-18T12:56:05.367Z</time></trkpt><trkpt lat="43.6309007" lon="10.6046265"><ele>15.0</ele><time>2026-04-18T12:56:07.337Z</time></trkpt><trkpt lat="43.6310109" lon="10.6046851"><ele>15.0</ele><time>2026-04-18T12:56:08.34Z</time></trkpt><trkpt lat="43.6311175" lon="10.6047444"><ele>15.0</ele><time>2026-04-18T12:56:09.365Z</time></trkpt><trkpt lat="43.6312207" lon="10.6047976"><ele>15.0</ele><time>2026-04-18T12:56:10.37Z</time></trkpt><trkpt lat="43.6314238" lon="10.6049078"><ele>15.0</ele><time>2026-04-18T12:56:12.25Z</time></trkpt><trkpt lat="43.6315168" lon="10.6049626"><ele>15.0</ele><time>2026-04-18T12:56:13.344Z</time></trkpt><trkpt lat="43.631605" lon="10.6050097"><ele>15.0</ele><time>2026-04-18T12:56:14.358Z</time></trkpt><trkpt lat="43.631684" lon="10.6050596"><ele>15.0</ele><time>2026-04-18T12:56:15.356Z</time></trkpt><trkpt lat="43.6317423" lon="10.6050995"><ele>15.0</ele><time>2026-04-18T12:56:16.351Z</time></trkpt><trkpt lat="43.6318094" lon="10.6051604"><ele>15.0</ele><time>2026-04-18T12:56:18.358Z</time></trkpt><trkpt lat="43.6318638" lon="10.6052373"><ele>15.0</ele><time>2026-04-18T12:56:20.361Z</time></trkpt><trkpt lat="43.6319558" lon="10.6053465"><ele>15.0</ele><time>2026-04-18T12:56:22.243Z</time></trkpt><trkpt lat="43.6320214" lon="10.6053883"><ele>15.0</ele><time>2026-04-18T12:56:23.251Z</time></trkpt><trkpt lat="43.6320973" lon="10.6054062"><ele>15.0</ele><time>2026-04-18T12:56:24.248Z</time></trkpt><trkpt lat="43.6321697" lon="10.605387"><ele>15.0</ele><time>2026-04-18T12:56:25.251Z</time></trkpt><trkpt lat="43.632242" lon="10.6053382"><ele>15.0</ele><time>2026-04-18T12:56:26.249Z</time></trkpt><trkpt lat="43.6323143" lon="10.6052726"><ele>15.0</ele><time>2026-04-18T12:56:27.364Z</time></trkpt><trkpt lat="43.6323867" lon="10.6051951"><ele>15.0</ele><time>2026-04-18T12:56:28.367Z</time></trkpt><trkpt lat="43.6324675" lon="10.6051307"><ele>15.0</ele><time>2026-04-18T12:56:29.37Z</time></trkpt><trkpt lat="43.6325635" lon="10.6050877"><ele>15.0</ele><time>2026-04-18T12:56:30.348Z</time></trkpt><trkpt lat="43.6326696" lon="10.6050556"><ele>15.0</ele><time>2026-04-18T12:56:31.34Z</time></trkpt><trkpt lat="43.6327834" lon="10.60502"><ele>15.0</ele><time>2026-04-18T12:56:32.249Z</time></trkpt><trkpt lat="43.6329017" lon="10.604976"><ele>15.5</ele><time>2026-04-18T12:56:33.345Z</time></trkpt><trkpt lat="43.6330239" lon="10.6049182"><ele>16.0</ele><time>2026-04-18T12:56:34.358Z</time></trkpt><trkpt lat="43.6331509" lon="10.6048423"><ele>16.5</ele><time>2026-04-18T12:56:35.361Z</time></trkpt><trkpt lat="43.6332779" lon="10.6047468"><ele>17.0</ele><time>2026-04-18T12:56:36.363Z</time></trkpt><trkpt lat="43.6333965" lon="10.6046457"><ele>17.0</ele><time>2026-04-18T12:56:37.309Z</time></trkpt><trkpt lat="43.6335155" lon="10.6045466"><ele>17.0</ele><time>2026-04-18T12:56:38.367Z</time></trkpt><trkpt lat="43.6336427" lon="10.6044566"><ele>17.0</ele><time>2026-04-18T12:56:39.364Z</time></trkpt><trkpt lat="43.6337718" lon="10.6043735"><ele>17.0</ele><time>2026-04-18T12:56:40.366Z</time></trkpt><trkpt lat="43.6340599" lon="10.6042516"><ele>16.333333333333336</ele><time>2026-04-18T12:56:42.244Z</time></trkpt><trkpt lat="43.6342086" lon="10.6041974"><ele>15.666666666666668</ele><time>2026-04-18T12:56:43.34Z</time></trkpt><trkpt lat="43.6343622" lon="10.6041438"><ele>15.0</ele><time>2026-04-18T12:56:44.368Z</time></trkpt><trkpt lat="43.6345128" lon="10.6040898"><ele>14.666666666666668</ele><time>2026-04-18T12:56:45.34Z</time></trkpt><trkpt lat="43.634666" lon="10.6040294"><ele>14.333333333333334</ele><time>2026-04-18T12:56:46.351Z</time></trkpt><trkpt lat="43.6348125" lon="10.6039627"><ele>14.0</ele><time>2026-04-18T12:56:47.354Z</time></trkpt><trkpt lat="43.6349522" lon="10.6038848"><ele>14.0</ele><time>2026-04-18T12:56:48.341Z</time></trkpt><trkpt lat="43.6350808" lon="10.6037986"><ele>14.0</ele><time>2026-04-18T12:56:49.34Z</time></trkpt><trkpt lat="43.6352052" lon="10.6037079"><ele>14.0</ele><time>2026-04-18T12:56:50.345Z</time></trkpt><trkpt lat="43.635325" lon="10.6036107"><ele>14.0</ele><time>2026-04-18T12:56:51.341Z</time></trkpt><trkpt lat="43.6354381" lon="10.6035042"><ele>13.5</ele><time>2026-04-18T12:56:52.339Z</time></trkpt><trkpt lat="43.635547" lon="10.603389"><ele>13.0</ele><time>2026-04-18T12:56:53.338Z</time></trkpt><trkpt lat="43.6356471" lon="10.6032575"><ele>12.5</ele><time>2026-04-18T12:56:54.371Z</time></trkpt><trkpt lat="43.6357394" lon="10.6031154"><ele>12.0</ele><time>2026-04-18T12:56:55.321Z</time></trkpt><trkpt lat="43.6358286" lon="10.6029686"><ele>12.0</ele><time>2026-04-18T12:56:56.349Z</time></trkpt><trkpt lat="43.6359155" lon="10.6028166"><ele>12.0</ele><time>2026-04-18T12:56:57.357Z</time></trkpt><trkpt lat="43.636081" lon="10.6024953"><ele>12.0</ele><time>2026-04-18T12:56:59.344Z</time></trkpt><trkpt lat="43.6361621" lon="10.6023279"><ele>12.0</ele><time>2026-04-18T12:57:00.346Z</time></trkpt><trkpt lat="43.6362363" lon="10.6021601"><ele>12.0</ele><time>2026-04-18T12:57:01.347Z</time></trkpt><trkpt lat="43.63631" lon="10.6020006"><ele>12.0</ele><time>2026-04-18T12:57:02.37Z</time></trkpt><trkpt lat="43.636456" lon="10.6016748"><ele>12.5</ele><time>2026-04-18T12:57:04.357Z</time></trkpt><trkpt lat="43.6365262" lon="10.6015159"><ele>13.0</ele><time>2026-04-18T12:57:05.358Z</time></trkpt><trkpt lat="43.636595" lon="10.6013653"><ele>13.5</ele><time>2026-04-18T12:57:06.34Z</time></trkpt><trkpt lat="43.6366609" lon="10.6012239"><ele>14.0</ele><time>2026-04-18T12:57:07.342Z</time></trkpt><trkpt lat="43.6367223" lon="10.6010904"><ele>14.0</ele><time>2026-04-18T12:57:08.31Z</time></trkpt><trkpt lat="43.636785" lon="10.6009659"><ele>13.999999999999998</ele><time>2026-04-18T12:57:09.249Z</time></trkpt><trkpt lat="43.6368476" lon="10.6008465"><ele>13.999999999999998</ele><time>2026-04-18T12:57:10.341Z</time></trkpt><trkpt lat="43.6369104" lon="10.6007364"><ele>14.0</ele><time>2026-04-18T12:57:11.249Z</time></trkpt><trkpt lat="43.6369766" lon="10.6006334"><ele>14.0</ele><time>2026-04-18T12:57:12.249Z</time></trkpt><trkpt lat="43.6370481" lon="10.600543"><ele>14.0</ele><time>2026-04-18T12:57:13.255Z</time></trkpt><trkpt lat="43.6371266" lon="10.600481"><ele>14.0</ele><time>2026-04-18T12:57:14.351Z</time></trkpt><trkpt lat="43.6372058" lon="10.6004551"><ele>14.0</ele><time>2026-04-18T12:57:15.367Z</time></trkpt><trkpt lat="43.6372757" lon="10.6004561"><ele>14.0</ele><time>2026-04-18T12:57:16.339Z</time></trkpt><trkpt lat="43.6373338" lon="10.6004929"><ele>14.0</ele><time>2026-04-18T12:57:17.34Z</time></trkpt><trkpt lat="43.637376" lon="10.6005585"><ele>14.0</ele><time>2026-04-18T12:57:18.359Z</time></trkpt><trkpt lat="43.6373974" lon="10.6006439"><ele>14.0</ele><time>2026-04-18T12:57:19.339Z</time></trkpt><trkpt lat="43.6374046" lon="10.6007579"><ele>14.0</ele><time>2026-04-18T12:57:20.343Z</time></trkpt><trkpt lat="43.6373978" lon="10.6008881"><ele>13.999999999999998</ele><time>2026-04-18T12:57:21.343Z</time></trkpt><trkpt lat="43.6373775" lon="10.601025"><ele>13.999999999999998</ele><time>2026-04-18T12:57:22.346Z</time></trkpt><trkpt lat="43.6373356" lon="10.6011521"><ele>14.0</ele><time>2026-04-18T12:57:23.371Z</time></trkpt><trkpt lat="43.6372713" lon="10.6012631"><ele>14.0</ele><time>2026-04-18T12:57:24.359Z</time></trkpt><trkpt lat="43.6371939" lon="10.6013685"><ele>14.0</ele><time>2026-04-18T12:57:25.366Z</time></trkpt><trkpt lat="43.6371069" lon="10.6014756"><ele>14.0</ele><time>2026-04-18T12:57:26.374Z</time></trkpt><trkpt lat="43.6370131" lon="10.6015906"><ele>14.0</ele><time>2026-04-18T12:57:27.372Z</time></trkpt><trkpt lat="43.6369169" lon="10.6017124"><ele>14.0</ele><time>2026-04-18T12:57:28.359Z</time></trkpt><trkpt lat="43.6368198" lon="10.6018458"><ele>14.0</ele><time>2026-04-18T12:57:29.34Z</time></trkpt><trkpt lat="43.6367226" lon="10.6019841"><ele>14.0</ele><time>2026-04-18T12:57:30.345Z</time></trkpt><trkpt lat="43.6366243" lon="10.602132"><ele>14.0</ele><time>2026-04-18T12:57:31.344Z</time></trkpt><trkpt lat="43.6365269" lon="10.6022841"><ele>14.0</ele><time>2026-04-18T12:57:32.344Z</time></trkpt><trkpt lat="43.636431" lon="10.6024357"><ele>13.5</ele><time>2026-04-18T12:57:33.249Z</time></trkpt><trkpt lat="43.6363384" lon="10.6025822"><ele>13.0</ele><time>2026-04-18T12:57:34.341Z</time></trkpt><trkpt lat="43.6362457" lon="10.602732"><ele>12.5</ele><time>2026-04-18T12:57:35.246Z</time></trkpt><trkpt lat="43.6361491" lon="10.6028799"><ele>12.0</ele><time>2026-04-18T12:57:36.245Z</time></trkpt><trkpt lat="43.6360535" lon="10.6030303"><ele>12.0</ele><time>2026-04-18T12:57:37.336Z</time></trkpt><trkpt lat="43.6359546" lon="10.603178"><ele>12.0</ele><time>2026-04-18T12:57:38.342Z</time></trkpt><trkpt lat="43.6358568" lon="10.6033266"><ele>12.0</ele><time>2026-04-18T12:57:39.364Z</time></trkpt><trkpt lat="43.6357605" lon="10.6034773"><ele>12.0</ele><time>2026-04-18T12:57:40.371Z</time></trkpt><trkpt lat="43.6356629" lon="10.603628"><ele>12.0</ele><time>2026-04-18T12:57:41.31Z</time></trkpt><trkpt lat="43.6355597" lon="10.6037692"><ele>12.0</ele><time>2026-04-18T12:57:42.246Z</time></trkpt><trkpt lat="43.6354462" lon="10.6039029"><ele>12.0</ele><time>2026-04-18T12:57:43.25Z</time></trkpt><trkpt lat="43.6353287" lon="10.604032"><ele>12.0</ele><time>2026-04-18T12:57:44.342Z</time></trkpt><trkpt lat="43.6352059" lon="10.6041595"><ele>12.666666666666668</ele><time>2026-04-18T12:57:45.341Z</time></trkpt><trkpt lat="43.6350795" lon="10.60428"><ele>13.333333333333334</ele><time>2026-04-18T12:57:46.362Z</time></trkpt><trkpt lat="43.6349458" lon="10.6043884"><ele>14.0</ele><time>2026-04-18T12:57:47.348Z</time></trkpt><trkpt lat="43.6348039" lon="10.6044865"><ele>14.0</ele><time>2026-04-18T12:57:48.358Z</time></trkpt><trkpt lat="43.6346626" lon="10.6045766"><ele>14.0</ele><time>2026-04-18T12:57:49.345Z</time></trkpt><trkpt lat="43.6345266" lon="10.6046556"><ele>14.0</ele><time>2026-04-18T12:57:50.337Z</time></trkpt><trkpt lat="43.6343929" lon="10.6047272"><ele>14.0</ele><time>2026-04-18T12:57:51.343Z</time></trkpt><trkpt lat="43.6342584" lon="10.6047826"><ele>14.25</ele><time>2026-04-18T12:57:52.339Z</time></trkpt><trkpt lat="43.6341198" lon="10.6048168"><ele>14.5</ele><time>2026-04-18T12:57:53.241Z</time></trkpt><trkpt lat="43.6339819" lon="10.6048147"><ele>14.75</ele><time>2026-04-18T12:57:54.246Z</time></trkpt><trkpt lat="43.6338509" lon="10.6047795"><ele>15.0</ele><time>2026-04-18T12:57:55.249Z</time></trkpt><trkpt lat="43.6337371" lon="10.6047121"><ele>15.0</ele><time>2026-04-18T12:57:56.245Z</time></trkpt><trkpt lat="43.633641" lon="10.6046197"><ele>15.0</ele><time>2026-04-18T12:57:57.245Z</time></trkpt><trkpt lat="43.6335588" lon="10.6045023"><ele>15.0</ele><time>2026-04-18T12:57:58.244Z</time></trkpt><trkpt lat="43.6334919" lon="10.6043657"><ele>15.0</ele><time>2026-04-18T12:57:59.244Z</time></trkpt><trkpt lat="43.6334336" lon="10.6042141"><ele>15.0</ele><time>2026-04-18T12:58:00.245Z</time></trkpt><trkpt lat="43.6333812" lon="10.6040547"><ele>15.0</ele><time>2026-04-18T12:58:01.244Z</time></trkpt><trkpt lat="43.6333297" lon="10.6038961"><ele>15.0</ele><time>2026-04-18T12:58:02.369Z</time></trkpt><trkpt lat="43.63328" lon="10.6037277"><ele>15.0</ele><time>2026-04-18T12:58:03.362Z</time></trkpt><trkpt lat="43.6332329" lon="10.603552"><ele>15.0</ele><time>2026-04-18T12:58:04.366Z</time></trkpt><trkpt lat="43.6331887" lon="10.603366"><ele>15.0</ele><time>2026-04-18T12:58:05.356Z</time></trkpt><trkpt lat="43.6331446" lon="10.6031682"><ele>15.0</ele><time>2026-04-18T12:58:06.355Z</time></trkpt><trkpt lat="43.6330665" lon="10.6027519"><ele>15.333333333333332</ele><time>2026-04-18T12:58:08.246Z</time></trkpt><trkpt lat="43.6330292" lon="10.6025276"><ele>15.666666666666666</ele><time>2026-04-18T12:58:09.294Z</time></trkpt><trkpt lat="43.6329948" lon="10.6022969"><ele>16.0</ele><time>2026-04-18T12:58:10.37Z</time></trkpt><trkpt lat="43.6329338" lon="10.6018125"><ele>16.333333333333332</ele><time>2026-04-18T12:58:12.247Z</time></trkpt><trkpt lat="43.6329082" lon="10.6015573"><ele>16.666666666666668</ele><time>2026-04-18T12:58:13.366Z</time></trkpt><trkpt lat="43.6328884" lon="10.6012905"><ele>17.0</ele><time>2026-04-18T12:58:14.335Z</time></trkpt><trkpt lat="43.6328753" lon="10.6010214"><ele>16.333333333333336</ele><time>2026-04-18T12:58:15.342Z</time></trkpt><trkpt lat="43.6328668" lon="10.6007429"><ele>15.666666666666668</ele><time>2026-04-18T12:58:16.359Z</time></trkpt><trkpt lat="43.6328603" lon="10.6004573"><ele>15.0</ele><time>2026-04-18T12:58:17.365Z</time></trkpt><trkpt lat="43.6328584" lon="10.6001668"><ele>14.333333333333332</ele><time>2026-04-18T12:58:18.35Z</time></trkpt><trkpt lat="43.6328595" lon="10.5998722"><ele>13.666666666666666</ele><time>2026-04-18T12:58:19.369Z</time></trkpt><trkpt lat="43.6328632" lon="10.5995741"><ele>13.0</ele><time>2026-04-18T12:58:20.36Z</time></trkpt><trkpt lat="43.6328721" lon="10.599274"><ele>13.0</ele><time>2026-04-18T12:58:21.363Z</time></trkpt><trkpt lat="43.6328852" lon="10.5989705"><ele>13.0</ele><time>2026-04-18T12:58:22.347Z</time></trkpt><trkpt lat="43.6329021" lon="10.5986673"><ele>13.0</ele><time>2026-04-18T12:58:23.367Z</time></trkpt><trkpt lat="43.6329257" lon="10.5983628"><ele>13.0</ele><time>2026-04-18T12:58:24.341Z</time></trkpt><trkpt lat="43.6329511" lon="10.5980581"><ele>13.0</ele><time>2026-04-18T12:58:25.334Z</time></trkpt><trkpt lat="43.6329786" lon="10.5977532"><ele>13.0</ele><time>2026-04-18T12:58:26.364Z</time></trkpt><trkpt lat="43.6330076" lon="10.5974471"><ele>12.666666666666666</ele><time>2026-04-18T12:58:27.368Z</time></trkpt><trkpt lat="43.6330389" lon="10.5971401"><ele>12.333333333333332</ele><time>2026-04-18T12:58:28.366Z</time></trkpt><trkpt lat="43.6330717" lon="10.5968339"><ele>12.0</ele><time>2026-04-18T12:58:29.357Z</time></trkpt><trkpt lat="43.633145" lon="10.5962211"><ele>12.0</ele><time>2026-04-18T12:58:31.344Z</time></trkpt><trkpt lat="43.6331832" lon="10.595913"><ele>12.0</ele><time>2026-04-18T12:58:32.342Z</time></trkpt><trkpt lat="43.6332238" lon="10.5956041"><ele>12.5</ele><time>2026-04-18T12:58:33.37Z</time></trkpt><trkpt lat="43.6332629" lon="10.5952957"><ele>13.0</ele><time>2026-04-18T12:58:34.334Z</time></trkpt><trkpt lat="43.6333035" lon="10.5949871"><ele>13.0</ele><time>2026-04-18T12:58:35.345Z</time></trkpt><trkpt lat="43.6333439" lon="10.5946791"><ele>13.0</ele><time>2026-04-18T12:58:36.357Z</time></trkpt><trkpt lat="43.6333827" lon="10.5943702"><ele>14.0</ele><time>2026-04-18T12:58:37.341Z</time></trkpt><trkpt lat="43.6334216" lon="10.5940617"><ele>15.0</ele><time>2026-04-18T12:58:38.369Z</time></trkpt><trkpt lat="43.6334619" lon="10.5937535"><ele>14.666666666666668</ele><time>2026-04-18T12:58:39.35Z</time></trkpt><trkpt lat="43.6335007" lon="10.59345"><ele>14.333333333333334</ele><time>2026-04-18T12:58:40.347Z</time></trkpt><trkpt lat="43.6335422" lon="10.5931475"><ele>14.0</ele><time>2026-04-18T12:58:41.334Z</time></trkpt><trkpt lat="43.6335829" lon="10.5928451"><ele>13.666666666666668</ele><time>2026-04-18T12:58:42.25Z</time></trkpt><trkpt lat="43.6336231" lon="10.5925507"><ele>13.333333333333332</ele><time>2026-04-18T12:58:43.249Z</time></trkpt><trkpt lat="43.6336602" lon="10.5922593"><ele>13.0</ele><time>2026-04-18T12:58:44.374Z</time></trkpt><trkpt lat="43.6336972" lon="10.5919709"><ele>13.0</ele><time>2026-04-18T12:58:45.367Z</time></trkpt><trkpt lat="43.6337336" lon="10.5916883"><ele>13.0</ele><time>2026-04-18T12:58:46.367Z</time></trkpt><trkpt lat="43.6337709" lon="10.5914089"><ele>13.0</ele><time>2026-04-18T12:58:47.365Z</time></trkpt><trkpt lat="43.6338068" lon="10.5911317"><ele>13.0</ele><time>2026-04-18T12:58:48.356Z</time></trkpt><trkpt lat="43.6338412" lon="10.590856"><ele>13.0</ele><time>2026-04-18T12:58:49.366Z</time></trkpt><trkpt lat="43.6338752" lon="10.5905835"><ele>13.0</ele><time>2026-04-18T12:58:50.368Z</time></trkpt><trkpt lat="43.6339096" lon="10.5903128"><ele>13.333333333333332</ele><time>2026-04-18T12:58:51.365Z</time></trkpt><trkpt lat="43.6339456" lon="10.5900443"><ele>13.666666666666668</ele><time>2026-04-18T12:58:52.343Z</time></trkpt><trkpt lat="43.6339815" lon="10.5897788"><ele>14.0</ele><time>2026-04-18T12:58:53.343Z</time></trkpt><trkpt lat="43.634016" lon="10.5895144"><ele>14.333333333333334</ele><time>2026-04-18T12:58:54.343Z</time></trkpt><trkpt lat="43.6340496" lon="10.5892481"><ele>14.666666666666668</ele><time>2026-04-18T12:58:55.365Z</time></trkpt><trkpt lat="43.6340831" lon="10.588983"><ele>15.0</ele><time>2026-04-18T12:58:56.338Z</time></trkpt><trkpt lat="43.6341172" lon="10.5887155"><ele>13.666666666666666</ele><time>2026-04-18T12:58:57.341Z</time></trkpt><trkpt lat="43.6341519" lon="10.5884392"><ele>12.333333333333332</ele><time>2026-04-18T12:58:58.347Z</time></trkpt><trkpt lat="43.6341888" lon="10.5881491"><ele>11.0</ele><time>2026-04-18T12:58:59.363Z</time></trkpt><trkpt lat="43.6342257" lon="10.5878531"><ele>11.0</ele><time>2026-04-18T12:59:00.338Z</time></trkpt><trkpt lat="43.6342597" lon="10.5875484"><ele>11.0</ele><time>2026-04-18T12:59:01.368Z</time></trkpt><trkpt lat="43.6342879" lon="10.5872397"><ele>11.0</ele><time>2026-04-18T12:59:02.365Z</time></trkpt><trkpt lat="43.6343129" lon="10.5869249"><ele>11.0</ele><time>2026-04-18T12:59:03.368Z</time></trkpt><trkpt lat="43.6343528" lon="10.5862764"><ele>12.0</ele><time>2026-04-18T12:59:05.344Z</time></trkpt><trkpt lat="43.6343636" lon="10.5859576"><ele>13.0</ele><time>2026-04-18T12:59:06.343Z</time></trkpt><trkpt lat="43.6343728" lon="10.5856338"><ele>13.0</ele><time>2026-04-18T12:59:07.332Z</time></trkpt><trkpt lat="43.6343795" lon="10.5853105"><ele>13.0</ele><time>2026-04-18T12:59:08.346Z</time></trkpt><trkpt lat="43.6343785" lon="10.5849905"><ele>13.0</ele><time>2026-04-18T12:59:09.358Z</time></trkpt><trkpt lat="43.6343783" lon="10.5846701"><ele>13.0</ele><time>2026-04-18T12:59:10.368Z</time></trkpt><trkpt lat="43.6343749" lon="10.58435"><ele>9.0</ele><time>2026-04-18T12:59:11.358Z</time></trkpt><trkpt lat="43.6343682" lon="10.5837061"><ele>9.5</ele><time>2026-04-18T12:59:13.247Z</time></trkpt><trkpt lat="43.6343635" lon="10.5833821"><ele>10.0</ele><time>2026-04-18T12:59:14.246Z</time></trkpt><trkpt lat="43.6343591" lon="10.5830516"><ele>11.0</ele><time>2026-04-18T12:59:15.337Z</time></trkpt><trkpt lat="43.6343532" lon="10.5827128"><ele>12.0</ele><time>2026-04-18T12:59:16.362Z</time></trkpt><trkpt lat="43.634347" lon="10.5823692"><ele>12.0</ele><time>2026-04-18T12:59:17.362Z</time></trkpt><trkpt lat="43.6343428" lon="10.5820253"><ele>12.0</ele><time>2026-04-18T12:59:18.367Z</time></trkpt><trkpt lat="43.6343387" lon="10.5816792"><ele>11.5</ele><time>2026-04-18T12:59:19.348Z</time></trkpt><trkpt lat="43.6343345" lon="10.5813318"><ele>11.0</ele><time>2026-04-18T12:59:20.363Z</time></trkpt><trkpt lat="43.634332" lon="10.5809849"><ele>11.0</ele><time>2026-04-18T12:59:21.34Z</time></trkpt><trkpt lat="43.6343284" lon="10.5806361"><ele>11.0</ele><time>2026-04-18T12:59:22.363Z</time></trkpt><trkpt lat="43.6343231" lon="10.5802859"><ele>10.0</ele><time>2026-04-18T12:59:23.338Z</time></trkpt><trkpt lat="43.6343184" lon="10.5799351"><ele>9.0</ele><time>2026-04-18T12:59:24.361Z</time></trkpt><trkpt lat="43.6343099" lon="10.5792327"><ele>9.0</ele><time>2026-04-18T12:59:26.246Z</time></trkpt><trkpt lat="43.6343071" lon="10.5788751"><ele>9.0</ele><time>2026-04-18T12:59:27.365Z</time></trkpt><trkpt lat="43.6343142" lon="10.578117"><ele>9.0</ele><time>2026-04-18T12:59:29.351Z</time></trkpt><trkpt lat="43.6343187" lon="10.5777194"><ele>9.0</ele><time>2026-04-18T12:59:30.359Z</time></trkpt><trkpt lat="43.6343208" lon="10.5773143"><ele>8.5</ele><time>2026-04-18T12:59:31.352Z</time></trkpt><trkpt lat="43.6343219" lon="10.5769066"><ele>8.0</ele><time>2026-04-18T12:59:32.34Z</time></trkpt><trkpt lat="43.6343181" lon="10.5764961"><ele>8.0</ele><time>2026-04-18T12:59:33.345Z</time></trkpt><trkpt lat="43.6343149" lon="10.5760839"><ele>8.0</ele><time>2026-04-18T12:59:34.347Z</time></trkpt><trkpt lat="43.6343125" lon="10.5756752"><ele>9.0</ele><time>2026-04-18T12:59:35.344Z</time></trkpt><trkpt lat="43.634307" lon="10.5752658"><ele>10.0</ele><time>2026-04-18T12:59:36.375Z</time></trkpt><trkpt lat="43.6343001" lon="10.5748588"><ele>10.0</ele><time>2026-04-18T12:59:37.343Z</time></trkpt><trkpt lat="43.634291" lon="10.5744524"><ele>10.0</ele><time>2026-04-18T12:59:38.364Z</time></trkpt><trkpt lat="43.6342811" lon="10.5740469"><ele>9.0</ele><time>2026-04-18T12:59:39.37Z</time></trkpt><trkpt lat="43.6342683" lon="10.5736501"><ele>8.0</ele><time>2026-04-18T12:59:40.374Z</time></trkpt><trkpt lat="43.6342554" lon="10.5732733"><ele>8.0</ele><time>2026-04-18T12:59:41.339Z</time></trkpt><trkpt lat="43.6342423" lon="10.572895"><ele>8.0</ele><time>2026-04-18T12:59:42.249Z</time></trkpt><trkpt lat="43.6342311" lon="10.5725208"><ele>8.0</ele><time>2026-04-18T12:59:43.253Z</time></trkpt><trkpt lat="43.6342211" lon="10.5721471"><ele>8.0</ele><time>2026-04-18T12:59:44.353Z</time></trkpt><trkpt lat="43.6342122" lon="10.5717719"><ele>8.0</ele><time>2026-04-18T12:59:45.365Z</time></trkpt><trkpt lat="43.6342042" lon="10.5713964"><ele>8.0</ele><time>2026-04-18T12:59:46.36Z</time></trkpt><trkpt lat="43.6341958" lon="10.5710205"><ele>8.5</ele><time>2026-04-18T12:59:47.372Z</time></trkpt><trkpt lat="43.6341859" lon="10.5706406"><ele>9.0</ele><time>2026-04-18T12:59:48.36Z</time></trkpt><trkpt lat="43.6341755" lon="10.5702561"><ele>9.0</ele><time>2026-04-18T12:59:49.369Z</time></trkpt><trkpt lat="43.6341691" lon="10.5698684"><ele>9.0</ele><time>2026-04-18T12:59:50.356Z</time></trkpt><trkpt lat="43.6341764" lon="10.569095"><ele>8.5</ele><time>2026-04-18T12:59:52.348Z</time></trkpt><trkpt lat="43.6341914" lon="10.5687149"><ele>8.0</ele><time>2026-04-18T12:59:53.368Z</time></trkpt><trkpt lat="43.6342179" lon="10.568339"><ele>8.0</ele><time>2026-04-18T12:59:54.337Z</time></trkpt><trkpt lat="43.6342578" lon="10.5679645"><ele>8.0</ele><time>2026-04-18T12:59:55.351Z</time></trkpt><trkpt lat="43.6343096" lon="10.5675925"><ele>8.5</ele><time>2026-04-18T12:59:56.341Z</time></trkpt><trkpt lat="43.6343714" lon="10.5672312"><ele>9.0</ele><time>2026-04-18T12:59:57.367Z</time></trkpt><trkpt lat="43.6344443" lon="10.5668889"><ele>8.0</ele><time>2026-04-18T12:59:58.345Z</time></trkpt><trkpt lat="43.6345344" lon="10.5665474"><ele>7.0</ele><time>2026-04-18T12:59:59.366Z</time></trkpt><trkpt lat="43.6346438" lon="10.5662167"><ele>8.0</ele><time>2026-04-18T13:00:00.369Z</time></trkpt><trkpt lat="43.6347691" lon="10.5658938"><ele>9.0</ele><time>2026-04-18T13:00:01.368Z</time></trkpt><trkpt lat="43.6350628" lon="10.5652809"><ele>9.5</ele><time>2026-04-18T13:00:03.365Z</time></trkpt><trkpt lat="43.6352289" lon="10.5649938"><ele>10.0</ele><time>2026-04-18T13:00:04.363Z</time></trkpt><trkpt lat="43.6354034" lon="10.5647232"><ele>10.0</ele><time>2026-04-18T13:00:05.372Z</time></trkpt><trkpt lat="43.6355818" lon="10.5644765"><ele>10.0</ele><time>2026-04-18T13:00:06.337Z</time></trkpt><trkpt lat="43.6357625" lon="10.5642478"><ele>10.0</ele><time>2026-04-18T13:00:07.365Z</time></trkpt><trkpt lat="43.6359501" lon="10.5640263"><ele>10.0</ele><time>2026-04-18T13:00:08.315Z</time></trkpt><trkpt lat="43.6361413" lon="10.5638157"><ele>9.5</ele><time>2026-04-18T13:00:09.359Z</time></trkpt><trkpt lat="43.636338" lon="10.5636144"><ele>9.0</ele><time>2026-04-18T13:00:10.359Z</time></trkpt><trkpt lat="43.6365394" lon="10.5634094"><ele>10.0</ele><time>2026-04-18T13:00:11.369Z</time></trkpt><trkpt lat="43.6369784" lon="10.5629875"><ele>11.0</ele><time>2026-04-18T13:00:13.248Z</time></trkpt><trkpt lat="43.6372042" lon="10.5627765"><ele>12.0</ele><time>2026-04-18T13:00:14.355Z</time></trkpt><trkpt lat="43.6374314" lon="10.5625636"><ele>12.0</ele><time>2026-04-18T13:00:15.357Z</time></trkpt><trkpt lat="43.6376591" lon="10.5623463"><ele>12.0</ele><time>2026-04-18T13:00:16.371Z</time></trkpt><trkpt lat="43.637884" lon="10.5621267"><ele>10.0</ele><time>2026-04-18T13:00:17.348Z</time></trkpt><trkpt lat="43.6381065" lon="10.5619152"><ele>8.0</ele><time>2026-04-18T13:00:18.285Z</time></trkpt><trkpt lat="43.6383233" lon="10.5617162"><ele>8.0</ele><time>2026-04-18T13:00:19.363Z</time></trkpt><trkpt lat="43.6385262" lon="10.5615313"><ele>8.0</ele><time>2026-04-18T13:00:20.349Z</time></trkpt><trkpt lat="43.6387227" lon="10.5613523"><ele>6.0</ele><time>2026-04-18T13:00:21.365Z</time></trkpt><trkpt lat="43.6389162" lon="10.5611759"><ele>4.0</ele><time>2026-04-18T13:00:22.366Z</time></trkpt><trkpt lat="43.6391054" lon="10.5610023"><ele>4.0</ele><time>2026-04-18T13:00:23.379Z</time></trkpt><trkpt lat="43.6392905" lon="10.5608308"><ele>4.0</ele><time>2026-04-18T13:00:24.366Z</time></trkpt><trkpt lat="43.6394672" lon="10.560665"><ele>4.0</ele><time>2026-04-18T13:00:25.371Z</time></trkpt><trkpt lat="43.6396351" lon="10.5605052"><ele>3.333333333333333</ele><time>2026-04-18T13:00:26.375Z</time></trkpt><trkpt lat="43.6398111" lon="10.5603322"><ele>2.6666666666666665</ele><time>2026-04-18T13:00:27.366Z</time></trkpt><trkpt lat="43.6399945" lon="10.560154"><ele>2.0</ele><time>2026-04-18T13:00:28.332Z</time></trkpt><trkpt lat="43.6401842" lon="10.5599706"><ele>5.0</ele><time>2026-04-18T13:00:29.343Z</time></trkpt><trkpt lat="43.6403804" lon="10.5597811"><ele>8.0</ele><time>2026-04-18T13:00:30.343Z</time></trkpt><trkpt lat="43.6405875" lon="10.5595834"><ele>8.0</ele><time>2026-04-18T13:00:31.356Z</time></trkpt><trkpt lat="43.6407992" lon="10.5593781"><ele>8.0</ele><time>2026-04-18T13:00:32.367Z</time></trkpt><trkpt lat="43.641021" lon="10.5591656"><ele>7.0</ele><time>2026-04-18T13:00:33.298Z</time></trkpt><trkpt lat="43.6412501" lon="10.5589478"><ele>6.0</ele><time>2026-04-18T13:00:34.349Z</time></trkpt><trkpt lat="43.6414818" lon="10.5587319"><ele>6.5</ele><time>2026-04-18T13:00:35.344Z</time></trkpt><trkpt lat="43.6417163" lon="10.558512"><ele>7.0</ele><time>2026-04-18T13:00:36.341Z</time></trkpt><trkpt lat="43.6419545" lon="10.5582921"><ele>7.5</ele><time>2026-04-18T13:00:37.366Z</time></trkpt><trkpt lat="43.6421954" lon="10.5580731"><ele>8.0</ele><time>2026-04-18T13:00:38.358Z</time></trkpt><trkpt lat="43.6424357" lon="10.5578492"><ele>7.0</ele><time>2026-04-18T13:00:39.344Z</time></trkpt><trkpt lat="43.6426783" lon="10.5576252"><ele>6.0</ele><time>2026-04-18T13:00:40.37Z</time></trkpt><trkpt lat="43.6429199" lon="10.5574013"><ele>6.0</ele><time>2026-04-18T13:00:41.345Z</time></trkpt><trkpt lat="43.643161" lon="10.5571826"><ele>6.0</ele><time>2026-04-18T13:00:42.252Z</time></trkpt><trkpt lat="43.643393" lon="10.5569777"><ele>6.0</ele><time>2026-04-18T13:00:43.25Z</time></trkpt><trkpt lat="43.6436188" lon="10.556778"><ele>6.0</ele><time>2026-04-18T13:00:44.351Z</time></trkpt><trkpt lat="43.6438358" lon="10.5565839"><ele>5.0</ele><time>2026-04-18T13:00:45.352Z</time></trkpt><trkpt lat="43.6442589" lon="10.5561959"><ele>5.5</ele><time>2026-04-18T13:00:47.35Z</time></trkpt><trkpt lat="43.6444682" lon="10.5560008"><ele>6.0</ele><time>2026-04-18T13:00:48.362Z</time></trkpt><trkpt lat="43.6446761" lon="10.5558067"><ele>6.0</ele><time>2026-04-18T13:00:49.364Z</time></trkpt><trkpt lat="43.6448848" lon="10.5556132"><ele>6.0</ele><time>2026-04-18T13:00:50.372Z</time></trkpt><trkpt lat="43.6452985" lon="10.5552313"><ele>6.0</ele><time>2026-04-18T13:00:52.251Z</time></trkpt><trkpt lat="43.6455037" lon="10.5550408"><ele>6.0</ele><time>2026-04-18T13:00:53.236Z</time></trkpt><trkpt lat="43.6457087" lon="10.554852"><ele>6.0</ele><time>2026-04-18T13:00:54.241Z</time></trkpt><trkpt lat="43.6459152" lon="10.5546619"><ele>6.0</ele><time>2026-04-18T13:00:55.364Z</time></trkpt><trkpt lat="43.6461229" lon="10.5544693"><ele>6.5</ele><time>2026-04-18T13:00:56.355Z</time></trkpt><trkpt lat="43.6463295" lon="10.554276"><ele>7.0</ele><time>2026-04-18T13:00:57.337Z</time></trkpt><trkpt lat="43.6465373" lon="10.5540829"><ele>7.0</ele><time>2026-04-18T13:00:58.357Z</time></trkpt><trkpt lat="43.6467427" lon="10.5538899"><ele>7.0</ele><time>2026-04-18T13:00:59.347Z</time></trkpt><trkpt lat="43.6469457" lon="10.5536966"><ele>6.0</ele><time>2026-04-18T13:01:00.266Z</time></trkpt><trkpt lat="43.6471462" lon="10.5535041"><ele>5.0</ele><time>2026-04-18T13:01:01.243Z</time></trkpt><trkpt lat="43.6473445" lon="10.5533089"><ele>5.0</ele><time>2026-04-18T13:01:02.358Z</time></trkpt><trkpt lat="43.6475412" lon="10.5531089"><ele>5.0</ele><time>2026-04-18T13:01:03.329Z</time></trkpt><trkpt lat="43.6477338" lon="10.5528981"><ele>6.0</ele><time>2026-04-18T13:01:04.372Z</time></trkpt><trkpt lat="43.6480968" lon="10.5524539"><ele>6.0</ele><time>2026-04-18T13:01:06.244Z</time></trkpt><trkpt lat="43.6482655" lon="10.5522224"><ele>6.0</ele><time>2026-04-18T13:01:07.359Z</time></trkpt><trkpt lat="43.6484185" lon="10.5519931"><ele>6.0</ele><time>2026-04-18T13:01:08.373Z</time></trkpt><trkpt lat="43.6485641" lon="10.5517547"><ele>6.0</ele><time>2026-04-18T13:01:09.366Z</time></trkpt><trkpt lat="43.6487028" lon="10.5515072"><ele>6.0</ele><time>2026-04-18T13:01:10.369Z</time></trkpt><trkpt lat="43.6488359" lon="10.5512483"><ele>6.0</ele><time>2026-04-18T13:01:11.364Z</time></trkpt><trkpt lat="43.6489609" lon="10.5509787"><ele>6.0</ele><time>2026-04-18T13:01:12.374Z</time></trkpt><trkpt lat="43.649192" lon="10.5504171"><ele>5.5</ele><time>2026-04-18T13:01:14.246Z</time></trkpt><trkpt lat="43.6493002" lon="10.5501246"><ele>5.0</ele><time>2026-04-18T13:01:15.366Z</time></trkpt><trkpt lat="43.6494068" lon="10.549827"><ele>5.5</ele><time>2026-04-18T13:01:16.331Z</time></trkpt><trkpt lat="43.6495131" lon="10.5495275"><ele>6.0</ele><time>2026-04-18T13:01:17.249Z</time></trkpt><trkpt lat="43.6496202" lon="10.5492254"><ele>6.0</ele><time>2026-04-18T13:01:18.248Z</time></trkpt><trkpt lat="43.6497287" lon="10.5489219"><ele>6.0</ele><time>2026-04-18T13:01:19.249Z</time></trkpt><trkpt lat="43.6498377" lon="10.5486167"><ele>5.0</ele><time>2026-04-18T13:01:20.336Z</time></trkpt><trkpt lat="43.6499474" lon="10.5483093"><ele>4.0</ele><time>2026-04-18T13:01:21.249Z</time></trkpt><trkpt lat="43.650056" lon="10.5479997"><ele>4.5</ele><time>2026-04-18T13:01:22.245Z</time></trkpt><trkpt lat="43.6501622" lon="10.5476933"><ele>5.0</ele><time>2026-04-18T13:01:23.252Z</time></trkpt><trkpt lat="43.6502667" lon="10.5473907"><ele>5.5</ele><time>2026-04-18T13:01:24.359Z</time></trkpt><trkpt lat="43.6503742" lon="10.5470885"><ele>6.0</ele><time>2026-04-18T13:01:25.358Z</time></trkpt><trkpt lat="43.6504817" lon="10.5467853"><ele>5.5</ele><time>2026-04-18T13:01:26.369Z</time></trkpt><trkpt lat="43.6505867" lon="10.5464855"><ele>5.0</ele><time>2026-04-18T13:01:27.348Z</time></trkpt><trkpt lat="43.6506923" lon="10.5461859"><ele>5.0</ele><time>2026-04-18T13:01:28.365Z</time></trkpt><trkpt lat="43.6507987" lon="10.5458846"><ele>5.0</ele><time>2026-04-18T13:01:29.367Z</time></trkpt><trkpt lat="43.6509049" lon="10.5455814"><ele>5.0</ele><time>2026-04-18T13:01:30.371Z</time></trkpt><trkpt lat="43.6511133" lon="10.5449686"><ele>4.5</ele><time>2026-04-18T13:01:32.244Z</time></trkpt><trkpt lat="43.6512192" lon="10.5446628"><ele>4.0</ele><time>2026-04-18T13:01:33.367Z</time></trkpt><trkpt lat="43.6513284" lon="10.5443539"><ele>3.5</ele><time>2026-04-18T13:01:34.364Z</time></trkpt><trkpt lat="43.6514397" lon="10.5440443"><ele>3.0</ele><time>2026-04-18T13:01:35.359Z</time></trkpt><trkpt lat="43.6515498" lon="10.5437333"><ele>4.0</ele><time>2026-04-18T13:01:36.362Z</time></trkpt><trkpt lat="43.6516615" lon="10.5434201"><ele>5.0</ele><time>2026-04-18T13:01:37.37Z</time></trkpt><trkpt lat="43.6517748" lon="10.5431081"><ele>5.0</ele><time>2026-04-18T13:01:38.338Z</time></trkpt><trkpt lat="43.6518913" lon="10.5427974"><ele>5.0</ele><time>2026-04-18T13:01:39.342Z</time></trkpt><trkpt lat="43.6520124" lon="10.5424878"><ele>5.0</ele><time>2026-04-18T13:01:40.342Z</time></trkpt><trkpt lat="43.6521397" lon="10.5421808"><ele>5.0</ele><time>2026-04-18T13:01:41.349Z</time></trkpt><trkpt lat="43.652275" lon="10.5418796"><ele>5.5</ele><time>2026-04-18T13:01:42.346Z</time></trkpt><trkpt lat="43.6524215" lon="10.5415875"><ele>6.0</ele><time>2026-04-18T13:01:43.248Z</time></trkpt><trkpt lat="43.6525795" lon="10.5413056"><ele>6.0</ele><time>2026-04-18T13:01:44.244Z</time></trkpt><trkpt lat="43.6527464" lon="10.5410351"><ele>6.0</ele><time>2026-04-18T13:01:45.362Z</time></trkpt><trkpt lat="43.6529207" lon="10.5407769"><ele>5.5</ele><time>2026-04-18T13:01:46.363Z</time></trkpt><trkpt lat="43.6531026" lon="10.5405293"><ele>5.0</ele><time>2026-04-18T13:01:47.316Z</time></trkpt><trkpt lat="43.6532901" lon="10.5402896"><ele>5.0</ele><time>2026-04-18T13:01:48.341Z</time></trkpt><trkpt lat="43.6534854" lon="10.5400621"><ele>5.0</ele><time>2026-04-18T13:01:49.358Z</time></trkpt><trkpt lat="43.6536874" lon="10.539846"><ele>6.0</ele><time>2026-04-18T13:01:50.348Z</time></trkpt><trkpt lat="43.6538962" lon="10.5396407"><ele>7.0</ele><time>2026-04-18T13:01:51.341Z</time></trkpt><trkpt lat="43.6541065" lon="10.5394354"><ele>7.0</ele><time>2026-04-18T13:01:52.351Z</time></trkpt><trkpt lat="43.6543483" lon="10.5392595"><ele>7.0</ele><time>2026-04-18T13:01:53.36Z</time></trkpt><trkpt lat="43.6545742" lon="10.5390817"><ele>5.5</ele><time>2026-04-18T13:01:54.36Z</time></trkpt><trkpt lat="43.6548064" lon="10.5389118"><ele>4.0</ele><time>2026-04-18T13:01:55.365Z</time></trkpt><trkpt lat="43.6550424" lon="10.5387505"><ele>4.5</ele><time>2026-04-18T13:01:56.362Z</time></trkpt><trkpt lat="43.6552821" lon="10.5385961"><ele>5.0</ele><time>2026-04-18T13:01:57.366Z</time></trkpt><trkpt lat="43.655526" lon="10.5384469"><ele>5.0</ele><time>2026-04-18T13:01:58.355Z</time></trkpt><trkpt lat="43.6557711" lon="10.5382986"><ele>5.0</ele><time>2026-04-18T13:01:59.334Z</time></trkpt><trkpt lat="43.656017" lon="10.5381503"><ele>5.5</ele><time>2026-04-18T13:02:00.25Z</time></trkpt><trkpt lat="43.6562636" lon="10.5380027"><ele>6.0</ele><time>2026-04-18T13:02:01.37Z</time></trkpt><trkpt lat="43.6565108" lon="10.5378561"><ele>6.0</ele><time>2026-04-18T13:02:02.34Z</time></trkpt><trkpt lat="43.656756" lon="10.5377138"><ele>6.0</ele><time>2026-04-18T13:02:03.25Z</time></trkpt><trkpt lat="43.6570002" lon="10.5375697"><ele>7.0</ele><time>2026-04-18T13:02:04.343Z</time></trkpt><trkpt lat="43.6572426" lon="10.5374228"><ele>8.0</ele><time>2026-04-18T13:02:05.37Z</time></trkpt><trkpt lat="43.6574855" lon="10.5372743"><ele>8.0</ele><time>2026-04-18T13:02:06.344Z</time></trkpt><trkpt lat="43.6577296" lon="10.5371263"><ele>8.0</ele><time>2026-04-18T13:02:07.363Z</time></trkpt><trkpt lat="43.6579719" lon="10.5369776"><ele>7.0</ele><time>2026-04-18T13:02:08.365Z</time></trkpt><trkpt lat="43.6582201" lon="10.5368277"><ele>6.0</ele><time>2026-04-18T13:02:09.368Z</time></trkpt><trkpt lat="43.6584682" lon="10.5366732"><ele>4.5</ele><time>2026-04-18T13:02:10.361Z</time></trkpt><trkpt lat="43.6587184" lon="10.5365197"><ele>3.0</ele><time>2026-04-18T13:02:11.355Z</time></trkpt><trkpt lat="43.6589706" lon="10.5363666"><ele>4.0</ele><time>2026-04-18T13:02:12.36Z</time></trkpt><trkpt lat="43.6594795" lon="10.5360615"><ele>4.0</ele><time>2026-04-18T13:02:14.25Z</time></trkpt><trkpt lat="43.6597368" lon="10.5359099"><ele>4.0</ele><time>2026-04-18T13:02:15.356Z</time></trkpt><trkpt lat="43.6599941" lon="10.5357582"><ele>4.0</ele><time>2026-04-18T13:02:16.351Z</time></trkpt><trkpt lat="43.6602503" lon="10.5356072"><ele>4.0</ele><time>2026-04-18T13:02:17.334Z</time></trkpt><trkpt lat="43.6605052" lon="10.5354573"><ele>5.0</ele><time>2026-04-18T13:02:18.338Z</time></trkpt><trkpt lat="43.6607601" lon="10.5353078"><ele>6.0</ele><time>2026-04-18T13:02:19.343Z</time></trkpt><trkpt lat="43.6610118" lon="10.5351574"><ele>6.0</ele><time>2026-04-18T13:02:20.247Z</time></trkpt><trkpt lat="43.661259" lon="10.5350095"><ele>6.0</ele><time>2026-04-18T13:02:21.347Z</time></trkpt><trkpt lat="43.661503" lon="10.5348617"><ele>6.0</ele><time>2026-04-18T13:02:22.341Z</time></trkpt><trkpt lat="43.6617348" lon="10.5347202"><ele>6.0</ele><time>2026-04-18T13:02:23.368Z</time></trkpt><trkpt lat="43.6619625" lon="10.5345804"><ele>4.0</ele><time>2026-04-18T13:02:24.342Z</time></trkpt><trkpt lat="43.6621888" lon="10.5344415"><ele>2.0</ele><time>2026-04-18T13:02:25.356Z</time></trkpt><trkpt lat="43.6626426" lon="10.5341672"><ele>2.5</ele><time>2026-04-18T13:02:27.359Z</time></trkpt><trkpt lat="43.662869" lon="10.5340266"><ele>3.0</ele><time>2026-04-18T13:02:28.346Z</time></trkpt><trkpt lat="43.6630952" lon="10.5338848"><ele>3.0</ele><time>2026-04-18T13:02:29.362Z</time></trkpt><trkpt lat="43.6633214" lon="10.5337411"><ele>3.0</ele><time>2026-04-18T13:02:30.341Z</time></trkpt><trkpt lat="43.6635493" lon="10.5335964"><ele>4.0</ele><time>2026-04-18T13:02:31.366Z</time></trkpt><trkpt lat="43.663778" lon="10.5334463"><ele>5.0</ele><time>2026-04-18T13:02:32.361Z</time></trkpt><trkpt lat="43.6640071" lon="10.5332902"><ele>5.0</ele><time>2026-04-18T13:02:33.363Z</time></trkpt><trkpt lat="43.6642341" lon="10.5331265"><ele>5.0</ele><time>2026-04-18T13:02:34.367Z</time></trkpt><trkpt lat="43.6644566" lon="10.5329532"><ele>5.5</ele><time>2026-04-18T13:02:35.333Z</time></trkpt><trkpt lat="43.6646742" lon="10.5327701"><ele>6.0</ele><time>2026-04-18T13:02:36.371Z</time></trkpt><trkpt lat="43.664888" lon="10.5325764"><ele>6.0</ele><time>2026-04-18T13:02:37.353Z</time></trkpt><trkpt lat="43.6650979" lon="10.5323702"><ele>6.0</ele><time>2026-04-18T13:02:38.34Z</time></trkpt><trkpt lat="43.6653024" lon="10.53215"><ele>5.5</ele><time>2026-04-18T13:02:39.343Z</time></trkpt><trkpt lat="43.6654999" lon="10.5319155"><ele>5.0</ele><time>2026-04-18T13:02:40.327Z</time></trkpt><trkpt lat="43.6656942" lon="10.5316712"><ele>5.0</ele><time>2026-04-18T13:02:41.35Z</time></trkpt><trkpt lat="43.6658794" lon="10.5314129"><ele>5.0</ele><time>2026-04-18T13:02:42.325Z</time></trkpt><trkpt lat="43.6660583" lon="10.5311451"><ele>5.0</ele><time>2026-04-18T13:02:43.251Z</time></trkpt><trkpt lat="43.6662291" lon="10.5308676"><ele>5.0</ele><time>2026-04-18T13:02:44.246Z</time></trkpt><trkpt lat="43.6663928" lon="10.5305818"><ele>4.5</ele><time>2026-04-18T13:02:45.365Z</time></trkpt><trkpt lat="43.666547" lon="10.530286"><ele>4.0</ele><time>2026-04-18T13:02:46.366Z</time></trkpt><trkpt lat="43.66669" lon="10.529982"><ele>4.0</ele><time>2026-04-18T13:02:47.349Z</time></trkpt><trkpt lat="43.666822" lon="10.5296708"><ele>4.0</ele><time>2026-04-18T13:02:48.344Z</time></trkpt><trkpt lat="43.6669425" lon="10.5293542"><ele>4.0</ele><time>2026-04-18T13:02:49.342Z</time></trkpt><trkpt lat="43.6670548" lon="10.5290351"><ele>4.0</ele><time>2026-04-18T13:02:50.251Z</time></trkpt><trkpt lat="43.6671585" lon="10.5287133"><ele>5.0</ele><time>2026-04-18T13:02:51.366Z</time></trkpt><trkpt lat="43.6672514" lon="10.5283884"><ele>6.0</ele><time>2026-04-18T13:02:52.36Z</time></trkpt><trkpt lat="43.6673348" lon="10.5280598"><ele>4.0</ele><time>2026-04-18T13:02:53.348Z</time></trkpt><trkpt lat="43.6674088" lon="10.5277252"><ele>2.0</ele><time>2026-04-18T13:02:54.347Z</time></trkpt><trkpt lat="43.6674784" lon="10.5273906"><ele>2.0</ele><time>2026-04-18T13:02:55.361Z</time></trkpt><trkpt lat="43.667593" lon="10.5267139"><ele>2.0</ele><time>2026-04-18T13:02:57.24Z</time></trkpt><trkpt lat="43.6676431" lon="10.5263726"><ele>2.0</ele><time>2026-04-18T13:02:58.248Z</time></trkpt><trkpt lat="43.6676891" lon="10.5260322"><ele>2.5</ele><time>2026-04-18T13:02:59.36Z</time></trkpt><trkpt lat="43.6677343" lon="10.52569"><ele>3.0</ele><time>2026-04-18T13:03:00.368Z</time></trkpt><trkpt lat="43.6677757" lon="10.5253505"><ele>4.0</ele><time>2026-04-18T13:03:01.348Z</time></trkpt><trkpt lat="43.6678162" lon="10.5250088"><ele>5.0</ele><time>2026-04-18T13:03:02.34Z</time></trkpt><trkpt lat="43.6678565" lon="10.5246673"><ele>5.0</ele><time>2026-04-18T13:03:03.365Z</time></trkpt><trkpt lat="43.6678978" lon="10.5243288"><ele>5.0</ele><time>2026-04-18T13:03:04.364Z</time></trkpt><trkpt lat="43.6679374" lon="10.5239966"><ele>4.5</ele><time>2026-04-18T13:03:05.338Z</time></trkpt><trkpt lat="43.6679742" lon="10.5236694"><ele>4.0</ele><time>2026-04-18T13:03:06.343Z</time></trkpt><trkpt lat="43.668014" lon="10.5233433"><ele>4.0</ele><time>2026-04-18T13:03:07.337Z</time></trkpt><trkpt lat="43.6680543" lon="10.5230165"><ele>4.0</ele><time>2026-04-18T13:03:08.252Z</time></trkpt><trkpt lat="43.6680941" lon="10.5226923"><ele>3.0</ele><time>2026-04-18T13:03:09.357Z</time></trkpt><trkpt lat="43.668137" lon="10.5223615"><ele>2.0</ele><time>2026-04-18T13:03:10.354Z</time></trkpt><trkpt lat="43.6681823" lon="10.5220294"><ele>2.0</ele><time>2026-04-18T13:03:11.365Z</time></trkpt><trkpt lat="43.6682277" lon="10.5216949"><ele>2.0</ele><time>2026-04-18T13:03:12.343Z</time></trkpt><trkpt lat="43.6682699" lon="10.5213579"><ele>3.5</ele><time>2026-04-18T13:03:13.25Z</time></trkpt><trkpt lat="43.6683115" lon="10.5210197"><ele>5.0</ele><time>2026-04-18T13:03:14.248Z</time></trkpt><trkpt lat="43.6683539" lon="10.5206806"><ele>3.5</ele><time>2026-04-18T13:03:15.246Z</time></trkpt><trkpt lat="43.6683953" lon="10.5203434"><ele>2.0</ele><time>2026-04-18T13:03:16.34Z</time></trkpt><trkpt lat="43.6684318" lon="10.5200146"><ele>2.0</ele><time>2026-04-18T13:03:17.344Z</time></trkpt><trkpt lat="43.6684723" lon="10.5196866"><ele>2.0</ele><time>2026-04-18T13:03:18.338Z</time></trkpt><trkpt lat="43.6685144" lon="10.5193606"><ele>2.0</ele><time>2026-04-18T13:03:19.356Z</time></trkpt><trkpt lat="43.6685551" lon="10.5190369"><ele>2.0</ele><time>2026-04-18T13:03:20.318Z</time></trkpt><trkpt lat="43.6685911" lon="10.5187192"><ele>2.5</ele><time>2026-04-18T13:03:21.346Z</time></trkpt><trkpt lat="43.6686293" lon="10.5183963"><ele>3.0</ele><time>2026-04-18T13:03:22.341Z</time></trkpt><trkpt lat="43.6686673" lon="10.5180705"><ele>3.0</ele><time>2026-04-18T13:03:23.35Z</time></trkpt><trkpt lat="43.6687445" lon="10.5174084"><ele>3.0</ele><time>2026-04-18T13:03:25.352Z</time></trkpt><trkpt lat="43.6687808" lon="10.5170752"><ele>3.0</ele><time>2026-04-18T13:03:26.363Z</time></trkpt><trkpt lat="43.6688579" lon="10.516401"><ele>3.5</ele><time>2026-04-18T13:03:28.239Z</time></trkpt><trkpt lat="43.6689014" lon="10.5160611"><ele>4.0</ele><time>2026-04-18T13:03:29.251Z</time></trkpt><trkpt lat="43.6689422" lon="10.5157221"><ele>3.0</ele><time>2026-04-18T13:03:30.247Z</time></trkpt><trkpt lat="43.668984" lon="10.5153858"><ele>2.0</ele><time>2026-04-18T13:03:31.345Z</time></trkpt><trkpt lat="43.6690201" lon="10.5150516"><ele>3.0</ele><time>2026-04-18T13:03:32.364Z</time></trkpt><trkpt lat="43.6690978" lon="10.5143828"><ele>3.0</ele><time>2026-04-18T13:03:34.36Z</time></trkpt><trkpt lat="43.6691378" lon="10.5140498"><ele>3.0</ele><time>2026-04-18T13:03:35.366Z</time></trkpt><trkpt lat="43.6691769" lon="10.5137172"><ele>3.0</ele><time>2026-04-18T13:03:36.353Z</time></trkpt><trkpt lat="43.6692178" lon="10.5133807"><ele>3.0</ele><time>2026-04-18T13:03:37.347Z</time></trkpt><trkpt lat="43.6692586" lon="10.5130439"><ele>4.0</ele><time>2026-04-18T13:03:38.363Z</time></trkpt><trkpt lat="43.6692994" lon="10.5127048"><ele>5.0</ele><time>2026-04-18T13:03:39.366Z</time></trkpt><trkpt lat="43.66934" lon="10.512366"><ele>4.5</ele><time>2026-04-18T13:03:40.344Z</time></trkpt><trkpt lat="43.66938" lon="10.5120288"><ele>4.0</ele><time>2026-04-18T13:03:41.343Z</time></trkpt><trkpt lat="43.669423" lon="10.5116827"><ele>3.0</ele><time>2026-04-18T13:03:42.366Z</time></trkpt><trkpt lat="43.669505" lon="10.5110013"><ele>3.0</ele><time>2026-04-18T13:03:44.246Z</time></trkpt><trkpt lat="43.6695445" lon="10.5106563"><ele>3.0</ele><time>2026-04-18T13:03:45.355Z</time></trkpt><trkpt lat="43.6695857" lon="10.5103093"><ele>3.0</ele><time>2026-04-18T13:03:46.363Z</time></trkpt><trkpt lat="43.6696263" lon="10.5099618"><ele>3.0</ele><time>2026-04-18T13:03:47.366Z</time></trkpt><trkpt lat="43.6696699" lon="10.5096159"><ele>2.0</ele><time>2026-04-18T13:03:48.362Z</time></trkpt><trkpt lat="43.669757" lon="10.5089182"><ele>2.0</ele><time>2026-04-18T13:03:50.356Z</time></trkpt><trkpt lat="43.6697981" lon="10.5085667"><ele>2.0</ele><time>2026-04-18T13:03:51.369Z</time></trkpt><trkpt lat="43.669838" lon="10.5082141"><ele>1.0</ele><time>2026-04-18T13:03:52.356Z</time></trkpt><trkpt lat="43.6699178" lon="10.5074999"><ele>1.0</ele><time>2026-04-18T13:03:54.362Z</time></trkpt><trkpt lat="43.669958" lon="10.507144"><ele>1.0</ele><time>2026-04-18T13:03:55.381Z</time></trkpt><trkpt lat="43.6699995" lon="10.5067888"><ele>1.0</ele><time>2026-04-18T13:03:56.375Z</time></trkpt><trkpt lat="43.6700405" lon="10.5064344"><ele>1.0</ele><time>2026-04-18T13:03:57.362Z</time></trkpt><trkpt lat="43.6700829" lon="10.5060788"><ele>1.0</ele><time>2026-04-18T13:03:58.339Z</time></trkpt><trkpt lat="43.6701257" lon="10.5057241"><ele>1.0</ele><time>2026-04-18T13:03:59.361Z</time></trkpt><trkpt lat="43.670168" lon="10.5053724"><ele>2.0</ele><time>2026-04-18T13:04:00.366Z</time></trkpt><trkpt lat="43.6702105" lon="10.5050205"><ele>3.0</ele><time>2026-04-18T13:04:01.365Z</time></trkpt><trkpt lat="43.6702535" lon="10.5046696"><ele>3.0</ele><time>2026-04-18T13:04:02.359Z</time></trkpt><trkpt lat="43.6702971" lon="10.5043192"><ele>3.0</ele><time>2026-04-18T13:04:03.341Z</time></trkpt><trkpt lat="43.6703392" lon="10.503971"><ele>2.5</ele><time>2026-04-18T13:04:04.344Z</time></trkpt><trkpt lat="43.6703816" lon="10.5036241"><ele>2.0</ele><time>2026-04-18T13:04:05.344Z</time></trkpt><trkpt lat="43.6704216" lon="10.503276"><ele>2.0</ele><time>2026-04-18T13:04:06.249Z</time></trkpt><trkpt lat="43.6704629" lon="10.5029283"><ele>2.0</ele><time>2026-04-18T13:04:07.351Z</time></trkpt><trkpt lat="43.6705443" lon="10.502236"><ele>2.5</ele><time>2026-04-18T13:04:09.348Z</time></trkpt><trkpt lat="43.6705837" lon="10.5018919"><ele>3.0</ele><time>2026-04-18T13:04:10.341Z</time></trkpt><trkpt lat="43.6706227" lon="10.5015579"><ele>3.0</ele><time>2026-04-18T13:04:11.341Z</time></trkpt><trkpt lat="43.6706584" lon="10.501231"><ele>3.0</ele><time>2026-04-18T13:04:12.356Z</time></trkpt><trkpt lat="43.6707297" lon="10.5005791"><ele>3.0</ele><time>2026-04-18T13:04:14.248Z</time></trkpt><trkpt lat="43.6707624" lon="10.5002487"><ele>3.0</ele><time>2026-04-18T13:04:15.369Z</time></trkpt><trkpt lat="43.6707962" lon="10.4999018"><ele>3.0</ele><time>2026-04-18T13:04:16.336Z</time></trkpt><trkpt lat="43.6708304" lon="10.499555"><ele>3.0</ele><time>2026-04-18T13:04:17.346Z</time></trkpt><trkpt lat="43.6708686" lon="10.4992123"><ele>3.0</ele><time>2026-04-18T13:04:18.351Z</time></trkpt><trkpt lat="43.6709107" lon="10.4988611"><ele>3.0</ele><time>2026-04-18T13:04:19.339Z</time></trkpt><trkpt lat="43.6709561" lon="10.4985059"><ele>2.0</ele><time>2026-04-18T13:04:20.363Z</time></trkpt><trkpt lat="43.6710021" lon="10.4981458"><ele>1.0</ele><time>2026-04-18T13:04:21.343Z</time></trkpt><trkpt lat="43.6710477" lon="10.4977815"><ele>1.0</ele><time>2026-04-18T13:04:22.36Z</time></trkpt><trkpt lat="43.671091" lon="10.4974145"><ele>1.0</ele><time>2026-04-18T13:04:23.35Z</time></trkpt><trkpt lat="43.6711341" lon="10.4970447"><ele>1.5</ele><time>2026-04-18T13:04:24.348Z</time></trkpt><trkpt lat="43.6711782" lon="10.4966729"><ele>2.0</ele><time>2026-04-18T13:04:25.348Z</time></trkpt><trkpt lat="43.6712208" lon="10.4963042"><ele>2.5</ele><time>2026-04-18T13:04:26.336Z</time></trkpt><trkpt lat="43.6712637" lon="10.4959357"><ele>3.0</ele><time>2026-04-18T13:04:27.238Z</time></trkpt><trkpt lat="43.6713062" lon="10.4955717"><ele>3.0</ele><time>2026-04-18T13:04:28.338Z</time></trkpt><trkpt lat="43.6713489" lon="10.4952104"><ele>3.0</ele><time>2026-04-18T13:04:29.344Z</time></trkpt><trkpt lat="43.6713915" lon="10.494852"><ele>2.5</ele><time>2026-04-18T13:04:30.347Z</time></trkpt><trkpt lat="43.6714341" lon="10.4944938"><ele>2.0</ele><time>2026-04-18T13:04:31.342Z</time></trkpt><trkpt lat="43.6714763" lon="10.4941365"><ele>2.0</ele><time>2026-04-18T13:04:32.332Z</time></trkpt><trkpt lat="43.6715158" lon="10.4937812"><ele>2.0</ele><time>2026-04-18T13:04:33.35Z</time></trkpt><trkpt lat="43.6715934" lon="10.4930639"><ele>2.0</ele><time>2026-04-18T13:04:35.346Z</time></trkpt><trkpt lat="43.6716231" lon="10.4927016"><ele>2.0</ele><time>2026-04-18T13:04:36.353Z</time></trkpt><trkpt lat="43.6716441" lon="10.4923407"><ele>2.0</ele><time>2026-04-18T13:04:37.342Z</time></trkpt><trkpt lat="43.6716563" lon="10.4919749"><ele>2.0</ele><time>2026-04-18T13:04:38.344Z</time></trkpt><trkpt lat="43.6716619" lon="10.491607"><ele>1.5</ele><time>2026-04-18T13:04:39.367Z</time></trkpt><trkpt lat="43.6716601" lon="10.4912364"><ele>1.0</ele><time>2026-04-18T13:04:40.342Z</time></trkpt><trkpt lat="43.6716519" lon="10.4908657"><ele>1.0</ele><time>2026-04-18T13:04:41.362Z</time></trkpt><trkpt lat="43.6716397" lon="10.4904989"><ele>1.0</ele><time>2026-04-18T13:04:42.339Z</time></trkpt><trkpt lat="43.6716261" lon="10.4901429"><ele>1.0</ele><time>2026-04-18T13:04:43.247Z</time></trkpt><trkpt lat="43.6716132" lon="10.4897852"><ele>1.0</ele><time>2026-04-18T13:04:44.249Z</time></trkpt><trkpt lat="43.6716022" lon="10.4894296"><ele>1.0</ele><time>2026-04-18T13:04:45.243Z</time></trkpt><trkpt lat="43.6715914" lon="10.4890754"><ele>1.0</ele><time>2026-04-18T13:04:46.336Z</time></trkpt><trkpt lat="43.6715795" lon="10.4887231"><ele>1.0</ele><time>2026-04-18T13:04:47.358Z</time></trkpt><trkpt lat="43.6715682" lon="10.4883682"><ele>1.0</ele><time>2026-04-18T13:04:48.337Z</time></trkpt><trkpt lat="43.6715572" lon="10.4880129"><ele>1.5</ele><time>2026-04-18T13:04:49.245Z</time></trkpt><trkpt lat="43.6715463" lon="10.4876554"><ele>2.0</ele><time>2026-04-18T13:04:50.349Z</time></trkpt><trkpt lat="43.6715343" lon="10.4872966"><ele>1.5</ele><time>2026-04-18T13:04:51.346Z</time></trkpt><trkpt lat="43.6715242" lon="10.4869351"><ele>1.0</ele><time>2026-04-18T13:04:52.366Z</time></trkpt><trkpt lat="43.6715179" lon="10.4862299"><ele>2.0</ele><time>2026-04-18T13:04:54.337Z</time></trkpt><trkpt lat="43.6715143" lon="10.4858892"><ele>3.0</ele><time>2026-04-18T13:04:55.349Z</time></trkpt><trkpt lat="43.6715052" lon="10.4855533"><ele>2.5</ele><time>2026-04-18T13:04:56.344Z</time></trkpt><trkpt lat="43.6714933" lon="10.4852185"><ele>2.0</ele><time>2026-04-18T13:04:57.339Z</time></trkpt><trkpt lat="43.6714803" lon="10.4848857"><ele>2.0</ele><time>2026-04-18T13:04:58.358Z</time></trkpt><trkpt lat="43.6714677" lon="10.4845544"><ele>2.0</ele><time>2026-04-18T13:04:59.339Z</time></trkpt><trkpt lat="43.6714538" lon="10.4842207"><ele>2.0</ele><time>2026-04-18T13:05:00.325Z</time></trkpt><trkpt lat="43.6714382" lon="10.4838852"><ele>2.0</ele><time>2026-04-18T13:05:01.343Z</time></trkpt><trkpt lat="43.6714272" lon="10.483545"><ele>2.0</ele><time>2026-04-18T13:05:02.35Z</time></trkpt><trkpt lat="43.671417" lon="10.4832021"><ele>2.0</ele><time>2026-04-18T13:05:03.341Z</time></trkpt><trkpt lat="43.6714055" lon="10.4828539"><ele>2.0</ele><time>2026-04-18T13:05:04.355Z</time></trkpt><trkpt lat="43.6713942" lon="10.4825038"><ele>2.0</ele><time>2026-04-18T13:05:05.34Z</time></trkpt><trkpt lat="43.6713839" lon="10.4821524"><ele>3.0</ele><time>2026-04-18T13:05:06.331Z</time></trkpt><trkpt lat="43.6713756" lon="10.4818033"><ele>4.0</ele><time>2026-04-18T13:05:07.37Z</time></trkpt><trkpt lat="43.6713668" lon="10.4814546"><ele>3.0</ele><time>2026-04-18T13:05:08.361Z</time></trkpt><trkpt lat="43.6713552" lon="10.4811053"><ele>2.0</ele><time>2026-04-18T13:05:09.363Z</time></trkpt><trkpt lat="43.6713387" lon="10.4807554"><ele>2.0</ele><time>2026-04-18T13:05:10.359Z</time></trkpt><trkpt lat="43.6713259" lon="10.4804081"><ele>2.0</ele><time>2026-04-18T13:05:11.365Z</time></trkpt><trkpt lat="43.6713126" lon="10.4800609"><ele>1.0</ele><time>2026-04-18T13:05:12.358Z</time></trkpt><trkpt lat="43.6712896" lon="10.4793628"><ele>1.0</ele><time>2026-04-18T13:05:14.25Z</time></trkpt><trkpt lat="43.671283" lon="10.4790109"><ele>1.0</ele><time>2026-04-18T13:05:15.368Z</time></trkpt><trkpt lat="43.6712794" lon="10.4786593"><ele>1.0</ele><time>2026-04-18T13:05:16.366Z</time></trkpt><trkpt lat="43.6712796" lon="10.4783072"><ele>1.0</ele><time>2026-04-18T13:05:17.373Z</time></trkpt><trkpt lat="43.6712912" lon="10.4776168"><ele>2.0</ele><time>2026-04-18T13:05:20.294Z</time></trkpt><trkpt lat="43.6713229" lon="10.4769401"><ele>2.0</ele><time>2026-04-18T13:05:21.342Z</time></trkpt><trkpt lat="43.6713448" lon="10.4766066"><ele>2.0</ele><time>2026-04-18T13:05:22.355Z</time></trkpt><trkpt lat="43.6713709" lon="10.4762753"><ele>2.5</ele><time>2026-04-18T13:05:23.339Z</time></trkpt><trkpt lat="43.6714011" lon="10.4759502"><ele>3.0</ele><time>2026-04-18T13:05:24.346Z</time></trkpt><trkpt lat="43.6714345" lon="10.4756302"><ele>1.5</ele><time>2026-04-18T13:05:25.337Z</time></trkpt><trkpt lat="43.6714714" lon="10.4753134"><ele>0.0</ele><time>2026-04-18T13:05:26.342Z</time></trkpt><trkpt lat="43.6715126" lon="10.4749979"><ele>0.0</ele><time>2026-04-18T13:05:27.359Z</time></trkpt><trkpt lat="43.6715589" lon="10.4746801"><ele>0.0</ele><time>2026-04-18T13:05:28.364Z</time></trkpt><trkpt lat="43.671613" lon="10.4743596"><ele>2.0</ele><time>2026-04-18T13:05:29.365Z</time></trkpt><trkpt lat="43.6717421" lon="10.4737082"><ele>2.0</ele><time>2026-04-18T13:05:31.334Z</time></trkpt><trkpt lat="43.6718132" lon="10.4734032"><ele>2.0</ele><time>2026-04-18T13:05:32.243Z</time></trkpt><trkpt lat="43.6718857" lon="10.4731089"><ele>2.0</ele><time>2026-04-18T13:05:33.239Z</time></trkpt><trkpt lat="43.6719633" lon="10.4728183"><ele>2.0</ele><time>2026-04-18T13:05:34.354Z</time></trkpt><trkpt lat="43.6720467" lon="10.4725329"><ele>2.0</ele><time>2026-04-18T13:05:35.37Z</time></trkpt><trkpt lat="43.6721355" lon="10.4722422"><ele>0.5</ele><time>2026-04-18T13:05:36.353Z</time></trkpt><trkpt lat="43.6722273" lon="10.4719473"><ele>-1.0</ele><time>2026-04-18T13:05:37.349Z</time></trkpt><trkpt lat="43.6723253" lon="10.471651"><ele>-1.0</ele><time>2026-04-18T13:05:38.249Z</time></trkpt><trkpt lat="43.6724291" lon="10.4713529"><ele>-1.0</ele><time>2026-04-18T13:05:39.343Z</time></trkpt><trkpt lat="43.6725397" lon="10.4710572"><ele>0.0</ele><time>2026-04-18T13:05:40.359Z</time></trkpt><trkpt lat="43.6726619" lon="10.4707652"><ele>1.0</ele><time>2026-04-18T13:05:41.351Z</time></trkpt><trkpt lat="43.6727921" lon="10.4704785"><ele>1.0</ele><time>2026-04-18T13:05:42.345Z</time></trkpt><trkpt lat="43.6729204" lon="10.4701872"><ele>1.0</ele><time>2026-04-18T13:05:43.247Z</time></trkpt><trkpt lat="43.6730508" lon="10.4698971"><ele>1.0</ele><time>2026-04-18T13:05:44.249Z</time></trkpt><trkpt lat="43.6731826" lon="10.4696129"><ele>1.0</ele><time>2026-04-18T13:05:45.369Z</time></trkpt><trkpt lat="43.6733202" lon="10.4693339"><ele>0.5</ele><time>2026-04-18T13:05:46.349Z</time></trkpt><trkpt lat="43.6734616" lon="10.4690562"><ele>0.0</ele><time>2026-04-18T13:05:47.332Z</time></trkpt><trkpt lat="43.6736075" lon="10.468776"><ele>-0.5</ele><time>2026-04-18T13:05:48.363Z</time></trkpt><trkpt lat="43.6737581" lon="10.4684938"><ele>-1.0</ele><time>2026-04-18T13:05:49.367Z</time></trkpt><trkpt lat="43.6739145" lon="10.4682083"><ele>-0.5</ele><time>2026-04-18T13:05:50.339Z</time></trkpt><trkpt lat="43.6740739" lon="10.4679195"><ele>0.0</ele><time>2026-04-18T13:05:51.347Z</time></trkpt><trkpt lat="43.6742364" lon="10.4676276"><ele>0.0</ele><time>2026-04-18T13:05:52.341Z</time></trkpt><trkpt lat="43.6743979" lon="10.4673358"><ele>0.0</ele><time>2026-04-18T13:05:53.365Z</time></trkpt><trkpt lat="43.6745596" lon="10.467045"><ele>0.5</ele><time>2026-04-18T13:05:54.355Z</time></trkpt><trkpt lat="43.6747229" lon="10.4667586"><ele>1.0</ele><time>2026-04-18T13:05:55.343Z</time></trkpt><trkpt lat="43.6748843" lon="10.4664795"><ele>1.0</ele><time>2026-04-18T13:05:56.341Z</time></trkpt><trkpt lat="43.67504" lon="10.4662086"><ele>1.0</ele><time>2026-04-18T13:05:57.361Z</time></trkpt><trkpt lat="43.6753373" lon="10.4656908"><ele>1.0</ele><time>2026-04-18T13:05:59.338Z</time></trkpt><trkpt lat="43.6754816" lon="10.4654376"><ele>1.0</ele><time>2026-04-18T13:06:00.361Z</time></trkpt><trkpt lat="43.6756243" lon="10.4651864"><ele>1.0</ele><time>2026-04-18T13:06:01.346Z</time></trkpt><trkpt lat="43.6757636" lon="10.4649353"><ele>1.0</ele><time>2026-04-18T13:06:02.362Z</time></trkpt><trkpt lat="43.675895" lon="10.464699"><ele>1.0</ele><time>2026-04-18T13:06:03.372Z</time></trkpt><trkpt lat="43.6760194" lon="10.4644734"><ele>0.6666666666666666</ele><time>2026-04-18T13:06:04.35Z</time></trkpt><trkpt lat="43.6761408" lon="10.4642554"><ele>0.3333333333333333</ele><time>2026-04-18T13:06:05.343Z</time></trkpt><trkpt lat="43.6762625" lon="10.4640398"><ele>0.0</ele><time>2026-04-18T13:06:06.368Z</time></trkpt><trkpt lat="43.6763823" lon="10.463827"><ele>0.3333333333333333</ele><time>2026-04-18T13:06:07.348Z</time></trkpt><trkpt lat="43.6765001" lon="10.4636137"><ele>0.6666666666666666</ele><time>2026-04-18T13:06:08.366Z</time></trkpt><trkpt lat="43.6766169" lon="10.4633995"><ele>1.0</ele><time>2026-04-18T13:06:09.339Z</time></trkpt><trkpt lat="43.6767329" lon="10.4631852"><ele>1.0</ele><time>2026-04-18T13:06:10.358Z</time></trkpt><trkpt lat="43.6768491" lon="10.462973"><ele>1.0</ele><time>2026-04-18T13:06:11.348Z</time></trkpt><trkpt lat="43.6769668" lon="10.4627595"><ele>1.0</ele><time>2026-04-18T13:06:12.345Z</time></trkpt><trkpt lat="43.6770862" lon="10.4625475"><ele>1.3333333333333333</ele><time>2026-04-18T13:06:13.247Z</time></trkpt><trkpt lat="43.6772061" lon="10.4623357"><ele>1.6666666666666665</ele><time>2026-04-18T13:06:14.246Z</time></trkpt><trkpt lat="43.6773219" lon="10.4621287"><ele>2.0</ele><time>2026-04-18T13:06:15.36Z</time></trkpt><trkpt lat="43.6774372" lon="10.4619217"><ele>2.333333333333333</ele><time>2026-04-18T13:06:16.358Z</time></trkpt><trkpt lat="43.6775509" lon="10.4617169"><ele>2.6666666666666665</ele><time>2026-04-18T13:06:17.361Z</time></trkpt><trkpt lat="43.6776642" lon="10.4615159"><ele>3.0</ele><time>2026-04-18T13:06:18.356Z</time></trkpt><trkpt lat="43.6777764" lon="10.4613132"><ele>2.6666666666666665</ele><time>2026-04-18T13:06:19.364Z</time></trkpt><trkpt lat="43.6778839" lon="10.4611214"><ele>2.333333333333333</ele><time>2026-04-18T13:06:20.347Z</time></trkpt><trkpt lat="43.6779862" lon="10.4609396"><ele>2.0</ele><time>2026-04-18T13:06:21.248Z</time></trkpt><trkpt lat="43.6780858" lon="10.4607597"><ele>2.0</ele><time>2026-04-18T13:06:22.245Z</time></trkpt><trkpt lat="43.6781869" lon="10.4605786"><ele>2.0</ele><time>2026-04-18T13:06:23.252Z</time></trkpt><trkpt lat="43.6782863" lon="10.4603976"><ele>2.0</ele><time>2026-04-18T13:06:24.356Z</time></trkpt><trkpt lat="43.6784839" lon="10.4600362"><ele>2.0</ele><time>2026-04-18T13:06:26.349Z</time></trkpt><trkpt lat="43.6785842" lon="10.4598564"><ele>2.0</ele><time>2026-04-18T13:06:27.361Z</time></trkpt><trkpt lat="43.6786851" lon="10.4596753"><ele>2.0</ele><time>2026-04-18T13:06:28.342Z</time></trkpt><trkpt lat="43.6787857" lon="10.4594918"><ele>2.0</ele><time>2026-04-18T13:06:29.362Z</time></trkpt><trkpt lat="43.678888" lon="10.4593053"><ele>2.0</ele><time>2026-04-18T13:06:30.368Z</time></trkpt><trkpt lat="43.6789891" lon="10.4591183"><ele>2.0</ele><time>2026-04-18T13:06:31.364Z</time></trkpt><trkpt lat="43.6790902" lon="10.4589288"><ele>1.0</ele><time>2026-04-18T13:06:32.242Z</time></trkpt><trkpt lat="43.6791892" lon="10.4587369"><ele>0.0</ele><time>2026-04-18T13:06:33.362Z</time></trkpt><trkpt lat="43.679388" lon="10.4583409"><ele>0.0</ele><time>2026-04-18T13:06:35.24Z</time></trkpt><trkpt lat="43.6794861" lon="10.4581362"><ele>0.0</ele><time>2026-04-18T13:06:36.241Z</time></trkpt><trkpt lat="43.6795825" lon="10.4579289"><ele>0.0</ele><time>2026-04-18T13:06:37.24Z</time></trkpt><trkpt lat="43.6796801" lon="10.4577154"><ele>0.0</ele><time>2026-04-18T13:06:38.242Z</time></trkpt><trkpt lat="43.6797766" lon="10.4575017"><ele>0.0</ele><time>2026-04-18T13:06:39.241Z</time></trkpt><trkpt lat="43.6798646" lon="10.4572997"><ele>0.0</ele><time>2026-04-18T13:06:40.24Z</time></trkpt><trkpt lat="43.6799547" lon="10.4570932"><ele>0.0</ele><time>2026-04-18T13:06:41.236Z</time></trkpt><trkpt lat="43.6800417" lon="10.456887"><ele>0.0</ele><time>2026-04-18T13:06:42.244Z</time></trkpt><trkpt lat="43.6801277" lon="10.4566817"><ele>0.0</ele><time>2026-04-18T13:06:43.243Z</time></trkpt><trkpt lat="43.6802134" lon="10.4564771"><ele>0.3333333333333333</ele><time>2026-04-18T13:06:44.246Z</time></trkpt><trkpt lat="43.6802973" lon="10.4562747"><ele>0.6666666666666666</ele><time>2026-04-18T13:06:45.355Z</time></trkpt><trkpt lat="43.6803785" lon="10.4560735"><ele>1.0</ele><time>2026-04-18T13:06:46.361Z</time></trkpt><trkpt lat="43.6804606" lon="10.4558707"><ele>1.0</ele><time>2026-04-18T13:06:47.362Z</time></trkpt><trkpt lat="43.680539" lon="10.455666"><ele>1.0</ele><time>2026-04-18T13:06:48.366Z</time></trkpt><trkpt lat="43.6806991" lon="10.455253"><ele>0.6666666666666666</ele><time>2026-04-18T13:06:50.332Z</time></trkpt><trkpt lat="43.6807811" lon="10.455044"><ele>0.3333333333333333</ele><time>2026-04-18T13:06:51.36Z</time></trkpt><trkpt lat="43.6808622" lon="10.4548341"><ele>0.0</ele><time>2026-04-18T13:06:52.362Z</time></trkpt><trkpt lat="43.6809482" lon="10.4546162"><ele>0.0</ele><time>2026-04-18T13:06:53.359Z</time></trkpt><trkpt lat="43.6810348" lon="10.4543971"><ele>0.0</ele><time>2026-04-18T13:06:54.333Z</time></trkpt><trkpt lat="43.681122" lon="10.4541791"><ele>0.0</ele><time>2026-04-18T13:06:55.313Z</time></trkpt><trkpt lat="43.6812082" lon="10.4539588"><ele>0.6666666666666666</ele><time>2026-04-18T13:06:56.354Z</time></trkpt><trkpt lat="43.6812939" lon="10.453737"><ele>1.3333333333333333</ele><time>2026-04-18T13:06:57.338Z</time></trkpt><trkpt lat="43.6813815" lon="10.453511"><ele>2.0</ele><time>2026-04-18T13:06:58.251Z</time></trkpt><trkpt lat="43.6814713" lon="10.4532829"><ele>2.0</ele><time>2026-04-18T13:06:59.343Z</time></trkpt><trkpt lat="43.6815615" lon="10.4530507"><ele>2.0</ele><time>2026-04-18T13:07:00.34Z</time></trkpt><trkpt lat="43.6816532" lon="10.4528134"><ele>2.0</ele><time>2026-04-18T13:07:01.365Z</time></trkpt><trkpt lat="43.6817461" lon="10.452571"><ele>2.0</ele><time>2026-04-18T13:07:02.334Z</time></trkpt><trkpt lat="43.6818351" lon="10.4523382"><ele>2.0</ele><time>2026-04-18T13:07:03.361Z</time></trkpt><trkpt lat="43.6819222" lon="10.4521121"><ele>2.0</ele><time>2026-04-18T13:07:04.358Z</time></trkpt><trkpt lat="43.6820061" lon="10.4518959"><ele>1.3333333333333333</ele><time>2026-04-18T13:07:05.339Z</time></trkpt><trkpt lat="43.6820901" lon="10.4516798"><ele>0.6666666666666666</ele><time>2026-04-18T13:07:06.361Z</time></trkpt><trkpt lat="43.6821738" lon="10.4514665"><ele>0.0</ele><time>2026-04-18T13:07:07.339Z</time></trkpt><trkpt lat="43.6822518" lon="10.4512644"><ele>0.0</ele><time>2026-04-18T13:07:08.243Z</time></trkpt><trkpt lat="43.6823325" lon="10.4510596"><ele>0.0</ele><time>2026-04-18T13:07:09.335Z</time></trkpt><trkpt lat="43.6824126" lon="10.4508567"><ele>0.0</ele><time>2026-04-18T13:07:10.343Z</time></trkpt><trkpt lat="43.6824924" lon="10.4506492"><ele>0.6666666666666666</ele><time>2026-04-18T13:07:11.344Z</time></trkpt><trkpt lat="43.6825737" lon="10.4504443"><ele>1.3333333333333333</ele><time>2026-04-18T13:07:12.245Z</time></trkpt><trkpt lat="43.682655" lon="10.4502383"><ele>2.0</ele><time>2026-04-18T13:07:13.371Z</time></trkpt><trkpt lat="43.6828171" lon="10.449828"><ele>1.6666666666666665</ele><time>2026-04-18T13:07:15.245Z</time></trkpt><trkpt lat="43.6828969" lon="10.4496243"><ele>1.3333333333333333</ele><time>2026-04-18T13:07:16.356Z</time></trkpt><trkpt lat="43.6829766" lon="10.4494207"><ele>1.0</ele><time>2026-04-18T13:07:17.369Z</time></trkpt><trkpt lat="43.6830562" lon="10.4492193"><ele>1.0</ele><time>2026-04-18T13:07:18.358Z</time></trkpt><trkpt lat="43.6831339" lon="10.4490192"><ele>1.0</ele><time>2026-04-18T13:07:19.366Z</time></trkpt><trkpt lat="43.6832121" lon="10.44882"><ele>1.0</ele><time>2026-04-18T13:07:20.34Z</time></trkpt><trkpt lat="43.6832918" lon="10.4486197"><ele>1.0</ele><time>2026-04-18T13:07:21.359Z</time></trkpt><trkpt lat="43.6833731" lon="10.4484182"><ele>1.0</ele><time>2026-04-18T13:07:22.333Z</time></trkpt><trkpt lat="43.6834556" lon="10.4482163"><ele>1.0</ele><time>2026-04-18T13:07:23.35Z</time></trkpt><trkpt lat="43.6835383" lon="10.4480116"><ele>0.6666666666666666</ele><time>2026-04-18T13:07:24.349Z</time></trkpt><trkpt lat="43.6836216" lon="10.4478048"><ele>0.3333333333333333</ele><time>2026-04-18T13:07:25.371Z</time></trkpt><trkpt lat="43.6837056" lon="10.4475934"><ele>0.0</ele><time>2026-04-18T13:07:26.325Z</time></trkpt><trkpt lat="43.6837897" lon="10.4473819"><ele>0.0</ele><time>2026-04-18T13:07:27.359Z</time></trkpt><trkpt lat="43.683875" lon="10.4471791"><ele>0.0</ele><time>2026-04-18T13:07:28.364Z</time></trkpt><trkpt lat="43.6839579" lon="10.4469875"><ele>0.0</ele><time>2026-04-18T13:07:29.359Z</time></trkpt><trkpt lat="43.6841167" lon="10.44661"><ele>0.0</ele><time>2026-04-18T13:07:31.362Z</time></trkpt><trkpt lat="43.6841929" lon="10.4464322"><ele>0.0</ele><time>2026-04-18T13:07:32.372Z</time></trkpt><trkpt lat="43.6842693" lon="10.4462533"><ele>0.0</ele><time>2026-04-18T13:07:33.372Z</time></trkpt><trkpt lat="43.6843463" lon="10.4460733"><ele>0.0</ele><time>2026-04-18T13:07:34.361Z</time></trkpt><trkpt lat="43.6844227" lon="10.4458894"><ele>0.0</ele><time>2026-04-18T13:07:35.34Z</time></trkpt><trkpt lat="43.6845017" lon="10.4457031"><ele>0.0</ele><time>2026-04-18T13:07:36.245Z</time></trkpt><trkpt lat="43.6845818" lon="10.4455207"><ele>0.3333333333333333</ele><time>2026-04-18T13:07:37.335Z</time></trkpt><trkpt lat="43.6846635" lon="10.4453393"><ele>0.6666666666666666</ele><time>2026-04-18T13:07:38.346Z</time></trkpt><trkpt lat="43.6847436" lon="10.4451604"><ele>1.0</ele><time>2026-04-18T13:07:39.251Z</time></trkpt><trkpt lat="43.684824" lon="10.4449844"><ele>1.0</ele><time>2026-04-18T13:07:40.247Z</time></trkpt><trkpt lat="43.6849051" lon="10.4448052"><ele>1.0</ele><time>2026-04-18T13:07:41.248Z</time></trkpt><trkpt lat="43.6849871" lon="10.4446292"><ele>1.0</ele><time>2026-04-18T13:07:42.246Z</time></trkpt><trkpt lat="43.6850701" lon="10.4444489"><ele>1.3333333333333333</ele><time>2026-04-18T13:07:43.324Z</time></trkpt><trkpt lat="43.6851549" lon="10.4442622"><ele>1.6666666666666665</ele><time>2026-04-18T13:07:44.247Z</time></trkpt><trkpt lat="43.6852418" lon="10.4440665"><ele>2.0</ele><time>2026-04-18T13:07:45.243Z</time></trkpt><trkpt lat="43.6853326" lon="10.4438639"><ele>2.0</ele><time>2026-04-18T13:07:46.246Z</time></trkpt><trkpt lat="43.6854255" lon="10.4436555"><ele>2.0</ele><time>2026-04-18T13:07:47.25Z</time></trkpt><trkpt lat="43.6855219" lon="10.4434409"><ele>2.0</ele><time>2026-04-18T13:07:48.246Z</time></trkpt><trkpt lat="43.6856212" lon="10.4432205"><ele>2.0</ele><time>2026-04-18T13:07:49.247Z</time></trkpt><trkpt lat="43.68572" lon="10.4430042"><ele>2.0</ele><time>2026-04-18T13:07:50.246Z</time></trkpt><trkpt lat="43.6858134" lon="10.4428001"><ele>2.0</ele><time>2026-04-18T13:07:51.246Z</time></trkpt><trkpt lat="43.685907" lon="10.4425999"><ele>2.333333333333333</ele><time>2026-04-18T13:07:52.246Z</time></trkpt><trkpt lat="43.6859996" lon="10.4424037"><ele>2.6666666666666665</ele><time>2026-04-18T13:07:53.25Z</time></trkpt><trkpt lat="43.6860881" lon="10.4422133"><ele>3.0</ele><time>2026-04-18T13:07:54.244Z</time></trkpt><trkpt lat="43.6861729" lon="10.4420259"><ele>2.3333333333333335</ele><time>2026-04-18T13:07:55.246Z</time></trkpt><trkpt lat="43.6862557" lon="10.4418427"><ele>1.6666666666666665</ele><time>2026-04-18T13:07:56.246Z</time></trkpt><trkpt lat="43.6863368" lon="10.4416612"><ele>1.0</ele><time>2026-04-18T13:07:57.247Z</time></trkpt><trkpt lat="43.6864177" lon="10.4414816"><ele>1.0</ele><time>2026-04-18T13:07:58.24Z</time></trkpt><trkpt lat="43.6865008" lon="10.4413057"><ele>1.0</ele><time>2026-04-18T13:07:59.245Z</time></trkpt><trkpt lat="43.6865837" lon="10.4411261"><ele>1.0</ele><time>2026-04-18T13:08:00.244Z</time></trkpt><trkpt lat="43.6866685" lon="10.4409474"><ele>1.0</ele><time>2026-04-18T13:08:01.245Z</time></trkpt><trkpt lat="43.6867573" lon="10.440775"><ele>1.0</ele><time>2026-04-18T13:08:02.245Z</time></trkpt><trkpt lat="43.6868376" lon="10.4406115"><ele>1.0</ele><time>2026-04-18T13:08:03.359Z</time></trkpt><trkpt lat="43.6869144" lon="10.4404533"><ele>1.0</ele><time>2026-04-18T13:08:04.361Z</time></trkpt><trkpt lat="43.6869903" lon="10.4402938"><ele>1.0</ele><time>2026-04-18T13:08:05.368Z</time></trkpt><trkpt lat="43.6870671" lon="10.4401354"><ele>1.0</ele><time>2026-04-18T13:08:06.356Z</time></trkpt><trkpt lat="43.6871455" lon="10.4399758"><ele>1.0</ele><time>2026-04-18T13:08:07.357Z</time></trkpt><trkpt lat="43.6872245" lon="10.4398169"><ele>1.0</ele><time>2026-04-18T13:08:08.35Z</time></trkpt><trkpt lat="43.6873126" lon="10.4396651"><ele>1.25</ele><time>2026-04-18T13:08:09.367Z</time></trkpt><trkpt lat="43.6874068" lon="10.4395178"><ele>1.5</ele><time>2026-04-18T13:08:10.356Z</time></trkpt><trkpt lat="43.6875079" lon="10.4393885"><ele>1.75</ele><time>2026-04-18T13:08:11.363Z</time></trkpt><trkpt lat="43.6876183" lon="10.4392816"><ele>2.0</ele><time>2026-04-18T13:08:12.338Z</time></trkpt><trkpt lat="43.6877277" lon="10.4391988"><ele>1.3333333333333333</ele><time>2026-04-18T13:08:13.369Z</time></trkpt><trkpt lat="43.6879577" lon="10.4391019"><ele>0.6666666666666666</ele><time>2026-04-18T13:08:15.244Z</time></trkpt><trkpt lat="43.6880718" lon="10.4390831"><ele>0.0</ele><time>2026-04-18T13:08:16.245Z</time></trkpt><trkpt lat="43.6881835" lon="10.4390795"><ele>0.0</ele><time>2026-04-18T13:08:17.242Z</time></trkpt><trkpt lat="43.6882958" lon="10.4390765"><ele>0.0</ele><time>2026-04-18T13:08:18.245Z</time></trkpt><trkpt lat="43.6884102" lon="10.4390726"><ele>0.0</ele><time>2026-04-18T13:08:19.24Z</time></trkpt><trkpt lat="43.6885244" lon="10.439064"><ele>0.0</ele><time>2026-04-18T13:08:20.353Z</time></trkpt><trkpt lat="43.6886384" lon="10.4390441"><ele>0.5</ele><time>2026-04-18T13:08:21.332Z</time></trkpt><trkpt lat="43.6887535" lon="10.4390052"><ele>1.0</ele><time>2026-04-18T13:08:22.24Z</time></trkpt><trkpt lat="43.6888674" lon="10.4389514"><ele>1.5</ele><time>2026-04-18T13:08:23.234Z</time></trkpt><trkpt lat="43.6889777" lon="10.4388819"><ele>2.0</ele><time>2026-04-18T13:08:24.244Z</time></trkpt><trkpt lat="43.6890829" lon="10.4387978"><ele>2.0</ele><time>2026-04-18T13:08:25.243Z</time></trkpt><trkpt lat="43.6891813" lon="10.4386992"><ele>2.0</ele><time>2026-04-18T13:08:26.241Z</time></trkpt><trkpt lat="43.6892699" lon="10.4385851"><ele>2.0</ele><time>2026-04-18T13:08:27.242Z</time></trkpt><trkpt lat="43.6893514" lon="10.438461"><ele>2.0</ele><time>2026-04-18T13:08:28.24Z</time></trkpt><trkpt lat="43.6894261" lon="10.4383307"><ele>2.0</ele><time>2026-04-18T13:08:29.244Z</time></trkpt><trkpt lat="43.6895002" lon="10.4381986"><ele>2.0</ele><time>2026-04-18T13:08:30.24Z</time></trkpt><trkpt lat="43.6895766" lon="10.4380553"><ele>2.0</ele><time>2026-04-18T13:08:31.246Z</time></trkpt><trkpt lat="43.6896641" lon="10.4378967"><ele>2.0</ele><time>2026-04-18T13:08:32.238Z</time></trkpt><trkpt lat="43.6897682" lon="10.4377246"><ele>2.0</ele><time>2026-04-18T13:08:33.236Z</time></trkpt><trkpt lat="43.6898841" lon="10.4375374"><ele>2.0</ele><time>2026-04-18T13:08:34.247Z</time></trkpt><trkpt lat="43.6900118" lon="10.4373442"><ele>2.0</ele><time>2026-04-18T13:08:35.25Z</time></trkpt><trkpt lat="43.6901518" lon="10.4371314"><ele>2.0</ele><time>2026-04-18T13:08:36.242Z</time></trkpt><trkpt lat="43.6902956" lon="10.4369073"><ele>2.0</ele><time>2026-04-18T13:08:37.247Z</time></trkpt><trkpt lat="43.6904387" lon="10.4366835"><ele>2.0</ele><time>2026-04-18T13:08:38.233Z</time></trkpt><trkpt lat="43.6905716" lon="10.4364764"><ele>1.6666666666666665</ele><time>2026-04-18T13:08:39.24Z</time></trkpt><trkpt lat="43.6906975" lon="10.4362705"><ele>1.3333333333333333</ele><time>2026-04-18T13:08:40.246Z</time></trkpt><trkpt lat="43.6908063" lon="10.4360707"><ele>1.0</ele><time>2026-04-18T13:08:41.241Z</time></trkpt><trkpt lat="43.6908963" lon="10.4358748"><ele>1.0</ele><time>2026-04-18T13:08:42.237Z</time></trkpt><trkpt lat="43.6909744" lon="10.435673"><ele>1.0</ele><time>2026-04-18T13:08:43.239Z</time></trkpt><trkpt lat="43.6910441" lon="10.4354673"><ele>1.0</ele><time>2026-04-18T13:08:44.229Z</time></trkpt><trkpt lat="43.6911091" lon="10.435276"><ele>1.25</ele><time>2026-04-18T13:08:45.235Z</time></trkpt><trkpt lat="43.6911722" lon="10.4350895"><ele>1.5</ele><time>2026-04-18T13:08:46.246Z</time></trkpt><trkpt lat="43.6912334" lon="10.4349036"><ele>1.75</ele><time>2026-04-18T13:08:47.25Z</time></trkpt><trkpt lat="43.6912899" lon="10.4347299"><ele>2.0</ele><time>2026-04-18T13:08:48.238Z</time></trkpt><trkpt lat="43.6913439" lon="10.4345732"><ele>2.0</ele><time>2026-04-18T13:08:49.255Z</time></trkpt><trkpt lat="43.6914003" lon="10.434427"><ele>2.0</ele><time>2026-04-18T13:08:50.246Z</time></trkpt><trkpt lat="43.6914566" lon="10.4342941"><ele>2.0</ele><time>2026-04-18T13:08:51.238Z</time></trkpt><trkpt lat="43.6915228" lon="10.4341807"><ele>2.0</ele><time>2026-04-18T13:08:52.25Z</time></trkpt><trkpt lat="43.6915964" lon="10.4340924"><ele>2.0</ele><time>2026-04-18T13:08:53.238Z</time></trkpt><trkpt lat="43.6916832" lon="10.4340309"><ele>2.0</ele><time>2026-04-18T13:08:54.244Z</time></trkpt><trkpt lat="43.6917782" lon="10.4340032"><ele>2.0</ele><time>2026-04-18T13:08:55.241Z</time></trkpt><trkpt lat="43.6918727" lon="10.4340244"><ele>2.0</ele><time>2026-04-18T13:08:56.243Z</time></trkpt><trkpt lat="43.6919648" lon="10.4340822"><ele>2.0</ele><time>2026-04-18T13:08:57.246Z</time></trkpt><trkpt lat="43.6920451" lon="10.4341734"><ele>2.0</ele><time>2026-04-18T13:08:58.242Z</time></trkpt><trkpt lat="43.6920961" lon="10.4342928"><ele>2.0</ele><time>2026-04-18T13:08:59.243Z</time></trkpt><trkpt lat="43.6921179" lon="10.4344338"><ele>2.0</ele><time>2026-04-18T13:09:00.363Z</time></trkpt><trkpt lat="43.6921051" lon="10.4345815"><ele>2.0</ele><time>2026-04-18T13:09:01.319Z</time></trkpt><trkpt lat="43.6920594" lon="10.4347247"><ele>2.0</ele><time>2026-04-18T13:09:02.353Z</time></trkpt><trkpt lat="43.6918797" lon="10.4349321"><ele>2.0</ele><time>2026-04-18T13:09:04.374Z</time></trkpt><trkpt lat="43.6917583" lon="10.4349844"><ele>2.0</ele><time>2026-04-18T13:09:05.374Z</time></trkpt><trkpt lat="43.6916258" lon="10.4350067"><ele>2.0</ele><time>2026-04-18T13:09:06.374Z</time></trkpt><trkpt lat="43.6914832" lon="10.4350174"><ele>2.0</ele><time>2026-04-18T13:09:07.372Z</time></trkpt><trkpt lat="43.6913295" lon="10.435021"><ele>2.0</ele><time>2026-04-18T13:09:08.37Z</time></trkpt><trkpt lat="43.6911668" lon="10.4350099"><ele>2.0</ele><time>2026-04-18T13:09:09.367Z</time></trkpt><trkpt lat="43.6909964" lon="10.4349848"><ele>2.0</ele><time>2026-04-18T13:09:10.38Z</time></trkpt><trkpt lat="43.6908111" lon="10.4349273"><ele>1.6666666666666665</ele><time>2026-04-18T13:09:11.389Z</time></trkpt><trkpt lat="43.6906172" lon="10.4348517"><ele>1.3333333333333333</ele><time>2026-04-18T13:09:12.372Z</time></trkpt><trkpt lat="43.6904177" lon="10.4347593"><ele>1.0</ele><time>2026-04-18T13:09:13.377Z</time></trkpt><trkpt lat="43.6900083" lon="10.4345445"><ele>2.0</ele><time>2026-04-18T13:09:15.239Z</time></trkpt><trkpt lat="43.6897931" lon="10.4344156"><ele>3.0</ele><time>2026-04-18T13:09:16.238Z</time></trkpt><trkpt lat="43.6895764" lon="10.4342875"><ele>2.6666666666666665</ele><time>2026-04-18T13:09:17.244Z</time></trkpt><trkpt lat="43.6893912" lon="10.4341497"><ele>2.333333333333333</ele><time>2026-04-18T13:09:18.242Z</time></trkpt><trkpt lat="43.6892026" lon="10.4340247"><ele>2.0</ele><time>2026-04-18T13:09:19.244Z</time></trkpt><trkpt lat="43.6890274" lon="10.4339056"><ele>1.6666666666666665</ele><time>2026-04-18T13:09:20.243Z</time></trkpt><trkpt lat="43.6888617" lon="10.4337946"><ele>1.3333333333333333</ele><time>2026-04-18T13:09:21.243Z</time></trkpt><trkpt lat="43.6887053" lon="10.4336897"><ele>1.0</ele><time>2026-04-18T13:09:22.373Z</time></trkpt><trkpt lat="43.6885584" lon="10.4335897"><ele>1.0</ele><time>2026-04-18T13:09:23.376Z</time></trkpt><trkpt lat="43.6884191" lon="10.4334962"><ele>1.0</ele><time>2026-04-18T13:09:24.376Z</time></trkpt><trkpt lat="43.6882868" lon="10.4334062"><ele>1.0</ele><time>2026-04-18T13:09:25.368Z</time></trkpt><trkpt lat="43.6881599" lon="10.4333201"><ele>1.0</ele><time>2026-04-18T13:09:26.249Z</time></trkpt><trkpt lat="43.6880388" lon="10.4332367"><ele>1.0</ele><time>2026-04-18T13:09:27.375Z</time></trkpt><trkpt lat="43.6878252" lon="10.4330894"><ele>1.0</ele><time>2026-04-18T13:09:29.243Z</time></trkpt><trkpt lat="43.687732" lon="10.4330285"><ele>1.0</ele><time>2026-04-18T13:09:30.239Z</time></trkpt><trkpt lat="43.6876497" lon="10.4329754"><ele>1.0</ele><time>2026-04-18T13:09:31.245Z</time></trkpt><trkpt lat="43.6875784" lon="10.432928"><ele>1.3333333333333333</ele><time>2026-04-18T13:09:32.373Z</time></trkpt><trkpt lat="43.6875195" lon="10.4328762"><ele>1.6666666666666665</ele><time>2026-04-18T13:09:33.37Z</time></trkpt><trkpt lat="43.6874746" lon="10.4328038"><ele>2.0</ele><time>2026-04-18T13:09:34.334Z</time></trkpt><trkpt lat="43.6874405" lon="10.4327101"><ele>2.3333333333333335</ele><time>2026-04-18T13:09:35.374Z</time></trkpt><trkpt lat="43.6874162" lon="10.4325938"><ele>2.6666666666666665</ele><time>2026-04-18T13:09:36.375Z</time></trkpt><trkpt lat="43.6874053" lon="10.4324633"><ele>3.0</ele><time>2026-04-18T13:09:37.387Z</time></trkpt><trkpt lat="43.6874165" lon="10.4323168"><ele>3.0</ele><time>2026-04-18T13:09:38.36Z</time></trkpt><trkpt lat="43.6874481" lon="10.4321607"><ele>3.0</ele><time>2026-04-18T13:09:39.38Z</time></trkpt><trkpt lat="43.6874858" lon="10.4320028"><ele>3.0</ele><time>2026-04-18T13:09:40.367Z</time></trkpt><trkpt lat="43.6875299" lon="10.4318337"><ele>3.0</ele><time>2026-04-18T13:09:41.38Z</time></trkpt><trkpt lat="43.6875737" lon="10.4316563"><ele>3.0</ele><time>2026-04-18T13:09:42.324Z</time></trkpt><trkpt lat="43.6876211" lon="10.4314761"><ele>3.0</ele><time>2026-04-18T13:09:43.245Z</time></trkpt><trkpt lat="43.6876682" lon="10.4313005"><ele>3.0</ele><time>2026-04-18T13:09:44.242Z</time></trkpt><trkpt lat="43.6877163" lon="10.4311218"><ele>3.0</ele><time>2026-04-18T13:09:45.247Z</time></trkpt><trkpt lat="43.6877614" lon="10.4309439"><ele>3.0</ele><time>2026-04-18T13:09:46.371Z</time></trkpt><trkpt lat="43.6878041" lon="10.4307625"><ele>3.0</ele><time>2026-04-18T13:09:47.375Z</time></trkpt><trkpt lat="43.6878451" lon="10.430579"><ele>3.0</ele><time>2026-04-18T13:09:48.374Z</time></trkpt><trkpt lat="43.6879326" lon="10.4302118"><ele>3.0</ele><time>2026-04-18T13:09:50.242Z</time></trkpt><trkpt lat="43.6879801" lon="10.4300261"><ele>3.0</ele><time>2026-04-18T13:09:51.372Z</time></trkpt><trkpt lat="43.6880289" lon="10.4298399"><ele>3.0</ele><time>2026-04-18T13:09:52.38Z</time></trkpt><trkpt lat="43.688078" lon="10.4296557"><ele>3.0</ele><time>2026-04-18T13:09:53.383Z</time></trkpt><trkpt lat="43.6881207" lon="10.4294801"><ele>2.6666666666666665</ele><time>2026-04-18T13:09:54.377Z</time></trkpt><trkpt lat="43.6881623" lon="10.4293046"><ele>2.333333333333333</ele><time>2026-04-18T13:09:55.372Z</time></trkpt><trkpt lat="43.6882008" lon="10.4291257"><ele>2.0</ele><time>2026-04-18T13:09:56.372Z</time></trkpt><trkpt lat="43.6882788" lon="10.428768"><ele>1.75</ele><time>2026-04-18T13:09:58.32Z</time></trkpt><trkpt lat="43.6883191" lon="10.4285973"><ele>1.5</ele><time>2026-04-18T13:09:59.384Z</time></trkpt><trkpt lat="43.6883584" lon="10.428432"><ele>1.25</ele><time>2026-04-18T13:10:00.372Z</time></trkpt><trkpt lat="43.6883993" lon="10.4282774"><ele>1.0</ele><time>2026-04-18T13:10:01.282Z</time></trkpt><trkpt lat="43.6884411" lon="10.4281316"><ele>1.0</ele><time>2026-04-18T13:10:02.243Z</time></trkpt><trkpt lat="43.6884785" lon="10.4279918"><ele>1.0</ele><time>2026-04-18T13:10:03.244Z</time></trkpt><trkpt lat="43.6885098" lon="10.4278605"><ele>1.0</ele><time>2026-04-18T13:10:04.377Z</time></trkpt><trkpt lat="43.6885313" lon="10.427737"><ele>1.0</ele><time>2026-04-18T13:10:05.381Z</time></trkpt><trkpt lat="43.6885377" lon="10.427619"><ele>1.0</ele><time>2026-04-18T13:10:06.361Z</time></trkpt><trkpt lat="43.6885206" lon="10.4275136"><ele>1.1666666666666665</ele><time>2026-04-18T13:10:07.345Z</time></trkpt><trkpt lat="43.6884835" lon="10.4274258"><ele>1.3333333333333333</ele><time>2026-04-18T13:10:08.338Z</time></trkpt><trkpt lat="43.6884222" lon="10.4273548"><ele>1.5</ele><time>2026-04-18T13:10:09.253Z</time></trkpt><trkpt lat="43.6883501" lon="10.4272824"><ele>1.6666666666666665</ele><time>2026-04-18T13:10:10.246Z</time></trkpt><trkpt lat="43.6882708" lon="10.4272047"><ele>1.8333333333333333</ele><time>2026-04-18T13:10:11.248Z</time></trkpt><trkpt lat="43.6881885" lon="10.4271277"><ele>2.0</ele><time>2026-04-18T13:10:12.378Z</time></trkpt><trkpt lat="43.6880432" lon="10.4269908"><ele>2.1666666666666665</ele><time>2026-04-18T13:10:14.245Z</time></trkpt><trkpt lat="43.6879775" lon="10.4269291"><ele>2.333333333333333</ele><time>2026-04-18T13:10:15.245Z</time></trkpt><trkpt lat="43.6879224" lon="10.4268643"><ele>2.5</ele><time>2026-04-18T13:10:16.243Z</time></trkpt><trkpt lat="43.6878888" lon="10.4267839"><ele>2.6666666666666665</ele><time>2026-04-18T13:10:17.248Z</time></trkpt><trkpt lat="43.6879089" lon="10.4266275"><ele>2.8333333333333335</ele><time>2026-04-18T13:10:19.244Z</time></trkpt><trkpt lat="43.687975" lon="10.4265046"><ele>3.0</ele><time>2026-04-18T13:10:21.369Z</time></trkpt><trkpt lat="43.688029" lon="10.4264002"><ele>3.0</ele><time>2026-04-18T13:10:23.359Z</time></trkpt><trkpt lat="43.6880939" lon="10.4263326"><ele>3.0</ele><time>2026-04-18T13:10:25.378Z</time></trkpt><trkpt lat="43.6881785" lon="10.4263298"><ele>3.0</ele><time>2026-04-18T13:10:27.374Z</time></trkpt><trkpt lat="43.6882588" lon="10.4263988"><ele>3.0</ele><time>2026-04-18T13:10:29.391Z</time></trkpt><trkpt lat="43.6883131" lon="10.4264571"><ele>3.0</ele><time>2026-04-18T13:10:30.37Z</time></trkpt><trkpt lat="43.688378" lon="10.4265222"><ele>3.0</ele><time>2026-04-18T13:10:31.375Z</time></trkpt><trkpt lat="43.688439" lon="10.4265928"><ele>3.0</ele><time>2026-04-18T13:10:32.378Z</time></trkpt><trkpt lat="43.6884934" lon="10.426654"><ele>3.0</ele><time>2026-04-18T13:10:33.375Z</time></trkpt><trkpt lat="43.6885428" lon="10.4267093"><ele>3.0</ele><time>2026-04-18T13:10:34.381Z</time></trkpt><trkpt lat="43.688626" lon="10.4268051"><ele>3.0</ele><time>2026-04-18T13:10:36.356Z</time></trkpt><trkpt lat="43.6887051" lon="10.4268876"><ele>3.0</ele><time>2026-04-18T13:10:38.382Z</time></trkpt><trkpt lat="43.6887717" lon="10.4269543"><ele>3.0</ele><time>2026-04-18T13:10:40.383Z</time></trkpt><trkpt lat="43.6888301" lon="10.4270109"><ele>2.9999999999999996</ele><time>2026-04-18T13:10:42.381Z</time></trkpt><trkpt lat="43.6888691" lon="10.4270847"><ele>3.0</ele><time>2026-04-18T13:10:55.24Z</time></trkpt><trkpt lat="43.6889188" lon="10.4271547"><ele>3.0</ele><time>2026-04-18T13:11:02.237Z</time></trkpt><trkpt lat="43.6888908" lon="10.4272381"><ele>3.0</ele><time>2026-04-18T13:11:06.242Z</time></trkpt><trkpt lat="43.6888362" lon="10.4273043"><ele>3.0</ele><time>2026-04-18T13:11:12.342Z</time></trkpt><trkpt lat="43.6887994" lon="10.4273953"><ele>2.9999999999999996</ele><time>2026-04-18T13:11:16.364Z</time></trkpt><trkpt lat="43.6887432" lon="10.4274455"><ele>3.0</ele><time>2026-04-18T13:12:01.237Z</time></trkpt><trkpt lat="43.688782" lon="10.4273707"><ele>3.0</ele><time>2026-04-18T13:13:33.238Z</time></trkpt><trkpt lat="43.6888292" lon="10.4273008"><ele>3.0</ele><time>2026-04-18T13:13:41.215Z</time></trkpt><trkpt lat="43.6888947" lon="10.4273149"><ele>3.0</ele><time>2026-04-18T13:14:12.235Z</time></trkpt><trkpt lat="43.6888332" lon="10.4273428"><ele>3.0</ele><time>2026-04-18T13:14:32.254Z</time></trkpt><trkpt lat="43.6888875" lon="10.4273942"><ele>3.0</ele><time>2026-04-18T13:16:36.246Z</time></trkpt><trkpt lat="43.688948" lon="10.4274197"><ele>3.0</ele><time>2026-04-18T13:17:18.242Z</time></trkpt></trkseg></trk></gpx>